<?xml version="1.0" encoding="UTF-8" standalone="no" ?>
<gpx xmlns="http://www.topografix.com/GPX/1/1" xmlns:xsi="http://www.w3.org/2001/XMLSchema-instance" xsi:schemaLocation="http://www.topografix.com/GPX/1/1 http://www.topografix.com/GPX/1/1/gpx.xsd" version="1.1" creator="VisuGPX - https://www.visugpx.com">
  <metadata>
    <name>soucieu</name>
    <desc><![CDATA[Rando de souccieu en jarrest]]></desc>
  </metadata>
  <trk>
    <name><![CDATA[Le voyage 14/10/2018]]></name>
    <desc><![CDATA[Rando de souccieu en jarrest]]></desc>
    <trkseg>
      <trkpt lat="45.67905" lon="4.70109">
        <ele>401</ele>
        <time>2018-10-14T07:19:18Z</time>
      </trkpt>
      <trkpt lat="45.67904" lon="4.70109">
        <ele>401</ele>
        <time>2018-10-14T07:19:19Z</time>
      </trkpt>
      <trkpt lat="45.67905" lon="4.70108">
        <ele>400</ele>
        <time>2018-10-14T07:19:25Z</time>
      </trkpt>
      <trkpt lat="45.67905" lon="4.7011">
        <ele>399</ele>
        <time>2018-10-14T07:19:26Z</time>
      </trkpt>
      <trkpt lat="45.67903" lon="4.70111">
        <ele>400</ele>
        <time>2018-10-14T07:19:27Z</time>
      </trkpt>
      <trkpt lat="45.67901" lon="4.70113">
        <ele>397</ele>
        <time>2018-10-14T07:19:28Z</time>
      </trkpt>
      <trkpt lat="45.67899" lon="4.70115">
        <ele>397</ele>
        <time>2018-10-14T07:19:29Z</time>
      </trkpt>
      <trkpt lat="45.67897" lon="4.70117">
        <ele>397</ele>
        <time>2018-10-14T07:19:30Z</time>
      </trkpt>
      <trkpt lat="45.67895" lon="4.70119">
        <ele>396</ele>
        <time>2018-10-14T07:19:31Z</time>
      </trkpt>
      <trkpt lat="45.67893" lon="4.70119">
        <ele>397</ele>
        <time>2018-10-14T07:19:32Z</time>
      </trkpt>
      <trkpt lat="45.6789" lon="4.70119">
        <ele>396</ele>
        <time>2018-10-14T07:19:33Z</time>
      </trkpt>
      <trkpt lat="45.67888" lon="4.70118">
        <ele>395</ele>
        <time>2018-10-14T07:19:34Z</time>
      </trkpt>
      <trkpt lat="45.67885" lon="4.70117">
        <ele>395</ele>
        <time>2018-10-14T07:19:35Z</time>
      </trkpt>
      <trkpt lat="45.67883" lon="4.70117">
        <ele>395</ele>
        <time>2018-10-14T07:19:36Z</time>
      </trkpt>
      <trkpt lat="45.67882" lon="4.70117">
        <ele>395</ele>
        <time>2018-10-14T07:19:37Z</time>
      </trkpt>
      <trkpt lat="45.67881" lon="4.70117">
        <ele>396</ele>
        <time>2018-10-14T07:20:07Z</time>
      </trkpt>
      <trkpt lat="45.6788" lon="4.70117">
        <ele>396</ele>
        <time>2018-10-14T07:20:08Z</time>
      </trkpt>
      <trkpt lat="45.6788" lon="4.70116">
        <ele>396</ele>
        <time>2018-10-14T07:20:09Z</time>
      </trkpt>
      <trkpt lat="45.6788" lon="4.70114">
        <ele>396</ele>
        <time>2018-10-14T07:20:10Z</time>
      </trkpt>
      <trkpt lat="45.67879" lon="4.70113">
        <ele>396</ele>
        <time>2018-10-14T07:20:11Z</time>
      </trkpt>
      <trkpt lat="45.67879" lon="4.70113">
        <ele>395</ele>
        <time>2018-10-14T07:20:12Z</time>
      </trkpt>
      <trkpt lat="45.67878" lon="4.7011">
        <ele>395</ele>
        <time>2018-10-14T07:20:13Z</time>
      </trkpt>
      <trkpt lat="45.67878" lon="4.70106">
        <ele>396</ele>
        <time>2018-10-14T07:20:14Z</time>
      </trkpt>
      <trkpt lat="45.67878" lon="4.70102">
        <ele>396</ele>
        <time>2018-10-14T07:20:15Z</time>
      </trkpt>
      <trkpt lat="45.67877" lon="4.70098">
        <ele>396</ele>
        <time>2018-10-14T07:20:16Z</time>
      </trkpt>
      <trkpt lat="45.67877" lon="4.70093">
        <ele>396</ele>
        <time>2018-10-14T07:20:17Z</time>
      </trkpt>
      <trkpt lat="45.67876" lon="4.70088">
        <ele>396</ele>
        <time>2018-10-14T07:20:18Z</time>
      </trkpt>
      <trkpt lat="45.67876" lon="4.70084">
        <ele>397</ele>
        <time>2018-10-14T07:20:19Z</time>
      </trkpt>
      <trkpt lat="45.67875" lon="4.7008">
        <ele>396</ele>
        <time>2018-10-14T07:20:20Z</time>
      </trkpt>
      <trkpt lat="45.67874" lon="4.70076">
        <ele>395</ele>
        <time>2018-10-14T07:20:21Z</time>
      </trkpt>
      <trkpt lat="45.67873" lon="4.70072">
        <ele>395</ele>
        <time>2018-10-14T07:20:22Z</time>
      </trkpt>
      <trkpt lat="45.67872" lon="4.70068">
        <ele>395</ele>
        <time>2018-10-14T07:20:23Z</time>
      </trkpt>
      <trkpt lat="45.67872" lon="4.70065">
        <ele>395</ele>
        <time>2018-10-14T07:20:24Z</time>
      </trkpt>
      <trkpt lat="45.67872" lon="4.7006">
        <ele>395</ele>
        <time>2018-10-14T07:20:25Z</time>
      </trkpt>
      <trkpt lat="45.67871" lon="4.70055">
        <ele>395</ele>
        <time>2018-10-14T07:20:26Z</time>
      </trkpt>
      <trkpt lat="45.6787" lon="4.70051">
        <ele>396</ele>
        <time>2018-10-14T07:20:27Z</time>
      </trkpt>
      <trkpt lat="45.6787" lon="4.70046">
        <ele>396</ele>
        <time>2018-10-14T07:20:28Z</time>
      </trkpt>
      <trkpt lat="45.6787" lon="4.70042">
        <ele>396</ele>
        <time>2018-10-14T07:20:29Z</time>
      </trkpt>
      <trkpt lat="45.6787" lon="4.70038">
        <ele>395</ele>
        <time>2018-10-14T07:20:30Z</time>
      </trkpt>
      <trkpt lat="45.6787" lon="4.70034">
        <ele>395</ele>
        <time>2018-10-14T07:20:31Z</time>
      </trkpt>
      <trkpt lat="45.6787" lon="4.7003">
        <ele>395</ele>
        <time>2018-10-14T07:20:32Z</time>
      </trkpt>
      <trkpt lat="45.6787" lon="4.70026">
        <ele>395</ele>
        <time>2018-10-14T07:20:33Z</time>
      </trkpt>
      <trkpt lat="45.6787" lon="4.70022">
        <ele>395</ele>
        <time>2018-10-14T07:20:34Z</time>
      </trkpt>
      <trkpt lat="45.6787" lon="4.70019">
        <ele>395</ele>
        <time>2018-10-14T07:20:35Z</time>
      </trkpt>
      <trkpt lat="45.6787" lon="4.70016">
        <ele>396</ele>
        <time>2018-10-14T07:20:36Z</time>
      </trkpt>
      <trkpt lat="45.6787" lon="4.70013">
        <ele>396</ele>
        <time>2018-10-14T07:20:37Z</time>
      </trkpt>
      <trkpt lat="45.67869" lon="4.7001">
        <ele>397</ele>
        <time>2018-10-14T07:20:38Z</time>
      </trkpt>
      <trkpt lat="45.67869" lon="4.70007">
        <ele>397</ele>
        <time>2018-10-14T07:20:39Z</time>
      </trkpt>
      <trkpt lat="45.6787" lon="4.70003">
        <ele>397</ele>
        <time>2018-10-14T07:20:40Z</time>
      </trkpt>
      <trkpt lat="45.67869" lon="4.7">
        <ele>397</ele>
        <time>2018-10-14T07:20:41Z</time>
      </trkpt>
      <trkpt lat="45.67868" lon="4.69996">
        <ele>398</ele>
        <time>2018-10-14T07:20:42Z</time>
      </trkpt>
      <trkpt lat="45.67868" lon="4.69992">
        <ele>398</ele>
        <time>2018-10-14T07:20:43Z</time>
      </trkpt>
      <trkpt lat="45.67867" lon="4.69988">
        <ele>398</ele>
        <time>2018-10-14T07:20:44Z</time>
      </trkpt>
      <trkpt lat="45.67867" lon="4.69984">
        <ele>398</ele>
        <time>2018-10-14T07:20:45Z</time>
      </trkpt>
      <trkpt lat="45.67865" lon="4.6998">
        <ele>398</ele>
        <time>2018-10-14T07:20:46Z</time>
      </trkpt>
      <trkpt lat="45.67864" lon="4.69976">
        <ele>398</ele>
        <time>2018-10-14T07:20:47Z</time>
      </trkpt>
      <trkpt lat="45.67862" lon="4.69971">
        <ele>398</ele>
        <time>2018-10-14T07:20:48Z</time>
      </trkpt>
      <trkpt lat="45.67861" lon="4.69967">
        <ele>398</ele>
        <time>2018-10-14T07:20:49Z</time>
      </trkpt>
      <trkpt lat="45.6786" lon="4.69963">
        <ele>398</ele>
        <time>2018-10-14T07:20:50Z</time>
      </trkpt>
      <trkpt lat="45.67859" lon="4.69959">
        <ele>398</ele>
        <time>2018-10-14T07:20:51Z</time>
      </trkpt>
      <trkpt lat="45.67858" lon="4.69955">
        <ele>398</ele>
        <time>2018-10-14T07:20:52Z</time>
      </trkpt>
      <trkpt lat="45.67857" lon="4.69951">
        <ele>398</ele>
        <time>2018-10-14T07:20:53Z</time>
      </trkpt>
      <trkpt lat="45.67856" lon="4.69946">
        <ele>398</ele>
        <time>2018-10-14T07:20:54Z</time>
      </trkpt>
      <trkpt lat="45.67855" lon="4.69941">
        <ele>398</ele>
        <time>2018-10-14T07:20:55Z</time>
      </trkpt>
      <trkpt lat="45.67854" lon="4.69937">
        <ele>398</ele>
        <time>2018-10-14T07:20:56Z</time>
      </trkpt>
      <trkpt lat="45.67854" lon="4.69933">
        <ele>398</ele>
        <time>2018-10-14T07:20:57Z</time>
      </trkpt>
      <trkpt lat="45.67853" lon="4.69929">
        <ele>398</ele>
        <time>2018-10-14T07:20:58Z</time>
      </trkpt>
      <trkpt lat="45.67853" lon="4.69925">
        <ele>399</ele>
        <time>2018-10-14T07:20:59Z</time>
      </trkpt>
      <trkpt lat="45.67852" lon="4.69921">
        <ele>399</ele>
        <time>2018-10-14T07:21:00Z</time>
      </trkpt>
      <trkpt lat="45.67852" lon="4.69916">
        <ele>399</ele>
        <time>2018-10-14T07:21:01Z</time>
      </trkpt>
      <trkpt lat="45.67851" lon="4.69911">
        <ele>399</ele>
        <time>2018-10-14T07:21:02Z</time>
      </trkpt>
      <trkpt lat="45.67851" lon="4.69906">
        <ele>399</ele>
        <time>2018-10-14T07:21:03Z</time>
      </trkpt>
      <trkpt lat="45.6785" lon="4.69902">
        <ele>399</ele>
        <time>2018-10-14T07:21:04Z</time>
      </trkpt>
      <trkpt lat="45.67847" lon="4.69898">
        <ele>398</ele>
        <time>2018-10-14T07:21:05Z</time>
      </trkpt>
      <trkpt lat="45.67845" lon="4.69896">
        <ele>398</ele>
        <time>2018-10-14T07:21:06Z</time>
      </trkpt>
      <trkpt lat="45.67844" lon="4.69893">
        <ele>400</ele>
        <time>2018-10-14T07:21:07Z</time>
      </trkpt>
      <trkpt lat="45.67844" lon="4.69889">
        <ele>399</ele>
        <time>2018-10-14T07:21:08Z</time>
      </trkpt>
      <trkpt lat="45.67843" lon="4.69885">
        <ele>399</ele>
        <time>2018-10-14T07:21:09Z</time>
      </trkpt>
      <trkpt lat="45.67844" lon="4.69879">
        <ele>400</ele>
        <time>2018-10-14T07:21:10Z</time>
      </trkpt>
      <trkpt lat="45.67844" lon="4.69874">
        <ele>401</ele>
        <time>2018-10-14T07:21:11Z</time>
      </trkpt>
      <trkpt lat="45.67843" lon="4.69869">
        <ele>402</ele>
        <time>2018-10-14T07:21:12Z</time>
      </trkpt>
      <trkpt lat="45.67843" lon="4.69864">
        <ele>403</ele>
        <time>2018-10-14T07:21:13Z</time>
      </trkpt>
      <trkpt lat="45.67843" lon="4.69858">
        <ele>403</ele>
        <time>2018-10-14T07:21:14Z</time>
      </trkpt>
      <trkpt lat="45.67843" lon="4.69854">
        <ele>403</ele>
        <time>2018-10-14T07:21:15Z</time>
      </trkpt>
      <trkpt lat="45.67844" lon="4.6985">
        <ele>403</ele>
        <time>2018-10-14T07:21:16Z</time>
      </trkpt>
      <trkpt lat="45.67844" lon="4.69845">
        <ele>403</ele>
        <time>2018-10-14T07:21:17Z</time>
      </trkpt>
      <trkpt lat="45.67845" lon="4.69841">
        <ele>403</ele>
        <time>2018-10-14T07:21:18Z</time>
      </trkpt>
      <trkpt lat="45.67845" lon="4.69836">
        <ele>403</ele>
        <time>2018-10-14T07:21:19Z</time>
      </trkpt>
      <trkpt lat="45.67845" lon="4.69832">
        <ele>403</ele>
        <time>2018-10-14T07:21:20Z</time>
      </trkpt>
      <trkpt lat="45.67845" lon="4.69828">
        <ele>403</ele>
        <time>2018-10-14T07:21:21Z</time>
      </trkpt>
      <trkpt lat="45.67845" lon="4.69824">
        <ele>403</ele>
        <time>2018-10-14T07:21:22Z</time>
      </trkpt>
      <trkpt lat="45.67845" lon="4.6982">
        <ele>403</ele>
        <time>2018-10-14T07:21:23Z</time>
      </trkpt>
      <trkpt lat="45.67845" lon="4.69816">
        <ele>403</ele>
        <time>2018-10-14T07:21:24Z</time>
      </trkpt>
      <trkpt lat="45.67845" lon="4.69812">
        <ele>404</ele>
        <time>2018-10-14T07:21:25Z</time>
      </trkpt>
      <trkpt lat="45.67845" lon="4.69808">
        <ele>404</ele>
        <time>2018-10-14T07:21:26Z</time>
      </trkpt>
      <trkpt lat="45.67845" lon="4.69804">
        <ele>404</ele>
        <time>2018-10-14T07:21:27Z</time>
      </trkpt>
      <trkpt lat="45.67844" lon="4.69799">
        <ele>404</ele>
        <time>2018-10-14T07:21:28Z</time>
      </trkpt>
      <trkpt lat="45.67844" lon="4.69794">
        <ele>404</ele>
        <time>2018-10-14T07:21:29Z</time>
      </trkpt>
      <trkpt lat="45.67843" lon="4.6979">
        <ele>405</ele>
        <time>2018-10-14T07:21:30Z</time>
      </trkpt>
      <trkpt lat="45.67843" lon="4.69786">
        <ele>405</ele>
        <time>2018-10-14T07:21:31Z</time>
      </trkpt>
      <trkpt lat="45.67843" lon="4.69782">
        <ele>405</ele>
        <time>2018-10-14T07:21:32Z</time>
      </trkpt>
      <trkpt lat="45.67843" lon="4.69778">
        <ele>406</ele>
        <time>2018-10-14T07:21:33Z</time>
      </trkpt>
      <trkpt lat="45.67843" lon="4.69774">
        <ele>406</ele>
        <time>2018-10-14T07:21:34Z</time>
      </trkpt>
      <trkpt lat="45.67843" lon="4.6977">
        <ele>406</ele>
        <time>2018-10-14T07:21:35Z</time>
      </trkpt>
      <trkpt lat="45.67843" lon="4.69766">
        <ele>406</ele>
        <time>2018-10-14T07:21:36Z</time>
      </trkpt>
      <trkpt lat="45.67843" lon="4.69762">
        <ele>406</ele>
        <time>2018-10-14T07:21:37Z</time>
      </trkpt>
      <trkpt lat="45.67843" lon="4.69757">
        <ele>406</ele>
        <time>2018-10-14T07:21:38Z</time>
      </trkpt>
      <trkpt lat="45.67843" lon="4.69753">
        <ele>406</ele>
        <time>2018-10-14T07:21:39Z</time>
      </trkpt>
      <trkpt lat="45.67843" lon="4.69749">
        <ele>406</ele>
        <time>2018-10-14T07:21:40Z</time>
      </trkpt>
      <trkpt lat="45.67844" lon="4.69746">
        <ele>407</ele>
        <time>2018-10-14T07:21:41Z</time>
      </trkpt>
      <trkpt lat="45.67843" lon="4.69742">
        <ele>406</ele>
        <time>2018-10-14T07:21:42Z</time>
      </trkpt>
      <trkpt lat="45.67843" lon="4.69737">
        <ele>406</ele>
        <time>2018-10-14T07:21:43Z</time>
      </trkpt>
      <trkpt lat="45.67844" lon="4.69733">
        <ele>406</ele>
        <time>2018-10-14T07:21:44Z</time>
      </trkpt>
      <trkpt lat="45.67844" lon="4.6973">
        <ele>407</ele>
        <time>2018-10-14T07:21:45Z</time>
      </trkpt>
      <trkpt lat="45.67844" lon="4.69726">
        <ele>406</ele>
        <time>2018-10-14T07:21:46Z</time>
      </trkpt>
      <trkpt lat="45.67844" lon="4.69722">
        <ele>407</ele>
        <time>2018-10-14T07:21:47Z</time>
      </trkpt>
      <trkpt lat="45.67844" lon="4.69718">
        <ele>406</ele>
        <time>2018-10-14T07:21:48Z</time>
      </trkpt>
      <trkpt lat="45.67844" lon="4.69714">
        <ele>406</ele>
        <time>2018-10-14T07:21:49Z</time>
      </trkpt>
      <trkpt lat="45.67843" lon="4.6971">
        <ele>406</ele>
        <time>2018-10-14T07:21:50Z</time>
      </trkpt>
      <trkpt lat="45.67843" lon="4.69705">
        <ele>406</ele>
        <time>2018-10-14T07:21:51Z</time>
      </trkpt>
      <trkpt lat="45.67843" lon="4.69701">
        <ele>406</ele>
        <time>2018-10-14T07:21:52Z</time>
      </trkpt>
      <trkpt lat="45.67841" lon="4.69696">
        <ele>406</ele>
        <time>2018-10-14T07:21:53Z</time>
      </trkpt>
      <trkpt lat="45.67841" lon="4.69692">
        <ele>407</ele>
        <time>2018-10-14T07:21:54Z</time>
      </trkpt>
      <trkpt lat="45.6784" lon="4.69687">
        <ele>408</ele>
        <time>2018-10-14T07:21:55Z</time>
      </trkpt>
      <trkpt lat="45.67839" lon="4.69682">
        <ele>409</ele>
        <time>2018-10-14T07:21:56Z</time>
      </trkpt>
      <trkpt lat="45.67838" lon="4.69677">
        <ele>409</ele>
        <time>2018-10-14T07:21:57Z</time>
      </trkpt>
      <trkpt lat="45.67838" lon="4.69672">
        <ele>409</ele>
        <time>2018-10-14T07:21:58Z</time>
      </trkpt>
      <trkpt lat="45.67837" lon="4.69667">
        <ele>410</ele>
        <time>2018-10-14T07:21:59Z</time>
      </trkpt>
      <trkpt lat="45.67836" lon="4.69663">
        <ele>410</ele>
        <time>2018-10-14T07:22:00Z</time>
      </trkpt>
      <trkpt lat="45.67836" lon="4.69658">
        <ele>410</ele>
        <time>2018-10-14T07:22:01Z</time>
      </trkpt>
      <trkpt lat="45.67835" lon="4.69654">
        <ele>411</ele>
        <time>2018-10-14T07:22:02Z</time>
      </trkpt>
      <trkpt lat="45.67833" lon="4.6965">
        <ele>410</ele>
        <time>2018-10-14T07:22:03Z</time>
      </trkpt>
      <trkpt lat="45.67832" lon="4.69646">
        <ele>410</ele>
        <time>2018-10-14T07:22:04Z</time>
      </trkpt>
      <trkpt lat="45.67831" lon="4.69641">
        <ele>410</ele>
        <time>2018-10-14T07:22:05Z</time>
      </trkpt>
      <trkpt lat="45.6783" lon="4.69637">
        <ele>410</ele>
        <time>2018-10-14T07:22:06Z</time>
      </trkpt>
      <trkpt lat="45.67828" lon="4.69632">
        <ele>410</ele>
        <time>2018-10-14T07:22:07Z</time>
      </trkpt>
      <trkpt lat="45.67827" lon="4.69627">
        <ele>411</ele>
        <time>2018-10-14T07:22:08Z</time>
      </trkpt>
      <trkpt lat="45.67825" lon="4.69623">
        <ele>411</ele>
        <time>2018-10-14T07:22:09Z</time>
      </trkpt>
      <trkpt lat="45.67824" lon="4.69618">
        <ele>409</ele>
        <time>2018-10-14T07:22:10Z</time>
      </trkpt>
      <trkpt lat="45.67823" lon="4.69614">
        <ele>410</ele>
        <time>2018-10-14T07:22:11Z</time>
      </trkpt>
      <trkpt lat="45.67822" lon="4.6961">
        <ele>410</ele>
        <time>2018-10-14T07:22:12Z</time>
      </trkpt>
      <trkpt lat="45.67821" lon="4.69604">
        <ele>410</ele>
        <time>2018-10-14T07:22:13Z</time>
      </trkpt>
      <trkpt lat="45.6782" lon="4.696">
        <ele>410</ele>
        <time>2018-10-14T07:22:14Z</time>
      </trkpt>
      <trkpt lat="45.67817" lon="4.69596">
        <ele>409</ele>
        <time>2018-10-14T07:22:15Z</time>
      </trkpt>
      <trkpt lat="45.67816" lon="4.69591">
        <ele>410</ele>
        <time>2018-10-14T07:22:16Z</time>
      </trkpt>
      <trkpt lat="45.67814" lon="4.69587">
        <ele>410</ele>
        <time>2018-10-14T07:22:17Z</time>
      </trkpt>
      <trkpt lat="45.67813" lon="4.69582">
        <ele>411</ele>
        <time>2018-10-14T07:22:18Z</time>
      </trkpt>
      <trkpt lat="45.67811" lon="4.69577">
        <ele>412</ele>
        <time>2018-10-14T07:22:19Z</time>
      </trkpt>
      <trkpt lat="45.6781" lon="4.69572">
        <ele>412</ele>
        <time>2018-10-14T07:22:20Z</time>
      </trkpt>
      <trkpt lat="45.67808" lon="4.69566">
        <ele>412</ele>
        <time>2018-10-14T07:22:21Z</time>
      </trkpt>
      <trkpt lat="45.67807" lon="4.69561">
        <ele>413</ele>
        <time>2018-10-14T07:22:22Z</time>
      </trkpt>
      <trkpt lat="45.67806" lon="4.69557">
        <ele>413</ele>
        <time>2018-10-14T07:22:23Z</time>
      </trkpt>
      <trkpt lat="45.67804" lon="4.69552">
        <ele>413</ele>
        <time>2018-10-14T07:22:24Z</time>
      </trkpt>
      <trkpt lat="45.67803" lon="4.69546">
        <ele>413</ele>
        <time>2018-10-14T07:22:25Z</time>
      </trkpt>
      <trkpt lat="45.67802" lon="4.69541">
        <ele>414</ele>
        <time>2018-10-14T07:22:26Z</time>
      </trkpt>
      <trkpt lat="45.678" lon="4.69536">
        <ele>414</ele>
        <time>2018-10-14T07:22:27Z</time>
      </trkpt>
      <trkpt lat="45.67799" lon="4.69531">
        <ele>414</ele>
        <time>2018-10-14T07:22:28Z</time>
      </trkpt>
      <trkpt lat="45.67798" lon="4.69527">
        <ele>414</ele>
        <time>2018-10-14T07:22:29Z</time>
      </trkpt>
      <trkpt lat="45.67796" lon="4.69522">
        <ele>414</ele>
        <time>2018-10-14T07:22:30Z</time>
      </trkpt>
      <trkpt lat="45.67796" lon="4.69517">
        <ele>414</ele>
        <time>2018-10-14T07:22:31Z</time>
      </trkpt>
      <trkpt lat="45.67795" lon="4.69512">
        <ele>414</ele>
        <time>2018-10-14T07:22:32Z</time>
      </trkpt>
      <trkpt lat="45.67794" lon="4.69507">
        <ele>413</ele>
        <time>2018-10-14T07:22:33Z</time>
      </trkpt>
      <trkpt lat="45.67793" lon="4.69503">
        <ele>413</ele>
        <time>2018-10-14T07:22:34Z</time>
      </trkpt>
      <trkpt lat="45.67793" lon="4.69499">
        <ele>413</ele>
        <time>2018-10-14T07:22:35Z</time>
      </trkpt>
      <trkpt lat="45.67792" lon="4.69494">
        <ele>414</ele>
        <time>2018-10-14T07:22:36Z</time>
      </trkpt>
      <trkpt lat="45.67793" lon="4.69489">
        <ele>413</ele>
        <time>2018-10-14T07:22:37Z</time>
      </trkpt>
      <trkpt lat="45.67793" lon="4.69484">
        <ele>413</ele>
        <time>2018-10-14T07:22:38Z</time>
      </trkpt>
      <trkpt lat="45.67793" lon="4.69479">
        <ele>412</ele>
        <time>2018-10-14T07:22:39Z</time>
      </trkpt>
      <trkpt lat="45.67793" lon="4.69474">
        <ele>412</ele>
        <time>2018-10-14T07:22:40Z</time>
      </trkpt>
      <trkpt lat="45.67792" lon="4.69468">
        <ele>413</ele>
        <time>2018-10-14T07:22:41Z</time>
      </trkpt>
      <trkpt lat="45.67792" lon="4.69462">
        <ele>413</ele>
        <time>2018-10-14T07:22:42Z</time>
      </trkpt>
      <trkpt lat="45.67792" lon="4.69456">
        <ele>414</ele>
        <time>2018-10-14T07:22:43Z</time>
      </trkpt>
      <trkpt lat="45.67792" lon="4.6945">
        <ele>415</ele>
        <time>2018-10-14T07:22:44Z</time>
      </trkpt>
      <trkpt lat="45.67793" lon="4.69444">
        <ele>415</ele>
        <time>2018-10-14T07:22:45Z</time>
      </trkpt>
      <trkpt lat="45.67793" lon="4.69436">
        <ele>415</ele>
        <time>2018-10-14T07:22:46Z</time>
      </trkpt>
      <trkpt lat="45.67793" lon="4.6943">
        <ele>415</ele>
        <time>2018-10-14T07:22:47Z</time>
      </trkpt>
      <trkpt lat="45.67792" lon="4.69423">
        <ele>415</ele>
        <time>2018-10-14T07:22:48Z</time>
      </trkpt>
      <trkpt lat="45.67792" lon="4.69416">
        <ele>415</ele>
        <time>2018-10-14T07:22:49Z</time>
      </trkpt>
      <trkpt lat="45.6779" lon="4.69403">
        <ele>416</ele>
        <time>2018-10-14T07:22:51Z</time>
      </trkpt>
      <trkpt lat="45.6779" lon="4.69396">
        <ele>416</ele>
        <time>2018-10-14T07:22:52Z</time>
      </trkpt>
      <trkpt lat="45.67788" lon="4.6939">
        <ele>415</ele>
        <time>2018-10-14T07:22:53Z</time>
      </trkpt>
      <trkpt lat="45.67787" lon="4.69383">
        <ele>416</ele>
        <time>2018-10-14T07:22:54Z</time>
      </trkpt>
      <trkpt lat="45.67786" lon="4.69376">
        <ele>416</ele>
        <time>2018-10-14T07:22:55Z</time>
      </trkpt>
      <trkpt lat="45.67785" lon="4.6937">
        <ele>416</ele>
        <time>2018-10-14T07:22:56Z</time>
      </trkpt>
      <trkpt lat="45.67783" lon="4.69364">
        <ele>415</ele>
        <time>2018-10-14T07:22:57Z</time>
      </trkpt>
      <trkpt lat="45.6778" lon="4.69359">
        <ele>415</ele>
        <time>2018-10-14T07:22:58Z</time>
      </trkpt>
      <trkpt lat="45.67777" lon="4.69354">
        <ele>415</ele>
        <time>2018-10-14T07:22:59Z</time>
      </trkpt>
      <trkpt lat="45.67774" lon="4.69348">
        <ele>415</ele>
        <time>2018-10-14T07:23:00Z</time>
      </trkpt>
      <trkpt lat="45.67772" lon="4.69341">
        <ele>414</ele>
        <time>2018-10-14T07:23:01Z</time>
      </trkpt>
      <trkpt lat="45.6777" lon="4.69334">
        <ele>415</ele>
        <time>2018-10-14T07:23:02Z</time>
      </trkpt>
      <trkpt lat="45.67769" lon="4.69329">
        <ele>415</ele>
        <time>2018-10-14T07:23:03Z</time>
      </trkpt>
      <trkpt lat="45.67769" lon="4.69322">
        <ele>416</ele>
        <time>2018-10-14T07:23:04Z</time>
      </trkpt>
      <trkpt lat="45.67768" lon="4.69315">
        <ele>415</ele>
        <time>2018-10-14T07:23:05Z</time>
      </trkpt>
      <trkpt lat="45.67767" lon="4.69308">
        <ele>415</ele>
        <time>2018-10-14T07:23:06Z</time>
      </trkpt>
      <trkpt lat="45.67763" lon="4.69301">
        <ele>416</ele>
        <time>2018-10-14T07:23:07Z</time>
      </trkpt>
      <trkpt lat="45.67761" lon="4.69298">
        <ele>415</ele>
        <time>2018-10-14T07:23:08Z</time>
      </trkpt>
      <trkpt lat="45.67756" lon="4.69294">
        <ele>415</ele>
        <time>2018-10-14T07:23:09Z</time>
      </trkpt>
      <trkpt lat="45.67753" lon="4.69291">
        <ele>415</ele>
        <time>2018-10-14T07:23:10Z</time>
      </trkpt>
      <trkpt lat="45.67749" lon="4.69287">
        <ele>416</ele>
        <time>2018-10-14T07:23:11Z</time>
      </trkpt>
      <trkpt lat="45.67746" lon="4.69282">
        <ele>416</ele>
        <time>2018-10-14T07:23:12Z</time>
      </trkpt>
      <trkpt lat="45.67743" lon="4.69278">
        <ele>416</ele>
        <time>2018-10-14T07:23:13Z</time>
      </trkpt>
      <trkpt lat="45.6774" lon="4.69274">
        <ele>417</ele>
        <time>2018-10-14T07:23:14Z</time>
      </trkpt>
      <trkpt lat="45.67736" lon="4.69268">
        <ele>417</ele>
        <time>2018-10-14T07:23:15Z</time>
      </trkpt>
      <trkpt lat="45.67733" lon="4.69264">
        <ele>417</ele>
        <time>2018-10-14T07:23:16Z</time>
      </trkpt>
      <trkpt lat="45.67731" lon="4.6926">
        <ele>417</ele>
        <time>2018-10-14T07:23:17Z</time>
      </trkpt>
      <trkpt lat="45.67728" lon="4.69256">
        <ele>417</ele>
        <time>2018-10-14T07:23:18Z</time>
      </trkpt>
      <trkpt lat="45.67726" lon="4.69252">
        <ele>417</ele>
        <time>2018-10-14T07:23:19Z</time>
      </trkpt>
      <trkpt lat="45.67724" lon="4.69247">
        <ele>417</ele>
        <time>2018-10-14T07:23:20Z</time>
      </trkpt>
      <trkpt lat="45.67721" lon="4.69243">
        <ele>417</ele>
        <time>2018-10-14T07:23:21Z</time>
      </trkpt>
      <trkpt lat="45.67719" lon="4.69238">
        <ele>417</ele>
        <time>2018-10-14T07:23:22Z</time>
      </trkpt>
      <trkpt lat="45.67717" lon="4.69234">
        <ele>417</ele>
        <time>2018-10-14T07:23:23Z</time>
      </trkpt>
      <trkpt lat="45.67714" lon="4.6923">
        <ele>417</ele>
        <time>2018-10-14T07:23:24Z</time>
      </trkpt>
      <trkpt lat="45.67711" lon="4.69226">
        <ele>417</ele>
        <time>2018-10-14T07:23:25Z</time>
      </trkpt>
      <trkpt lat="45.67708" lon="4.69223">
        <ele>418</ele>
        <time>2018-10-14T07:23:26Z</time>
      </trkpt>
      <trkpt lat="45.67705" lon="4.6922">
        <ele>418</ele>
        <time>2018-10-14T07:23:27Z</time>
      </trkpt>
      <trkpt lat="45.67703" lon="4.69216">
        <ele>418</ele>
        <time>2018-10-14T07:23:28Z</time>
      </trkpt>
      <trkpt lat="45.67699" lon="4.69213">
        <ele>418</ele>
        <time>2018-10-14T07:23:29Z</time>
      </trkpt>
      <trkpt lat="45.67697" lon="4.6921">
        <ele>419</ele>
        <time>2018-10-14T07:23:30Z</time>
      </trkpt>
      <trkpt lat="45.67694" lon="4.69207">
        <ele>418</ele>
        <time>2018-10-14T07:23:31Z</time>
      </trkpt>
      <trkpt lat="45.67691" lon="4.69204">
        <ele>418</ele>
        <time>2018-10-14T07:23:32Z</time>
      </trkpt>
      <trkpt lat="45.67688" lon="4.69202">
        <ele>418</ele>
        <time>2018-10-14T07:23:33Z</time>
      </trkpt>
      <trkpt lat="45.67686" lon="4.69199">
        <ele>419</ele>
        <time>2018-10-14T07:23:34Z</time>
      </trkpt>
      <trkpt lat="45.67682" lon="4.69196">
        <ele>419</ele>
        <time>2018-10-14T07:23:35Z</time>
      </trkpt>
      <trkpt lat="45.67679" lon="4.69194">
        <ele>419</ele>
        <time>2018-10-14T07:23:36Z</time>
      </trkpt>
      <trkpt lat="45.67676" lon="4.69192">
        <ele>419</ele>
        <time>2018-10-14T07:23:37Z</time>
      </trkpt>
      <trkpt lat="45.67673" lon="4.69189">
        <ele>418</ele>
        <time>2018-10-14T07:23:38Z</time>
      </trkpt>
      <trkpt lat="45.67669" lon="4.69186">
        <ele>418</ele>
        <time>2018-10-14T07:23:39Z</time>
      </trkpt>
      <trkpt lat="45.67666" lon="4.69184">
        <ele>419</ele>
        <time>2018-10-14T07:23:40Z</time>
      </trkpt>
      <trkpt lat="45.67663" lon="4.69181">
        <ele>419</ele>
        <time>2018-10-14T07:23:41Z</time>
      </trkpt>
      <trkpt lat="45.6766" lon="4.69179">
        <ele>419</ele>
        <time>2018-10-14T07:23:42Z</time>
      </trkpt>
      <trkpt lat="45.67656" lon="4.69177">
        <ele>419</ele>
        <time>2018-10-14T07:23:43Z</time>
      </trkpt>
      <trkpt lat="45.67653" lon="4.69175">
        <ele>419</ele>
        <time>2018-10-14T07:23:44Z</time>
      </trkpt>
      <trkpt lat="45.67649" lon="4.69173">
        <ele>419</ele>
        <time>2018-10-14T07:23:45Z</time>
      </trkpt>
      <trkpt lat="45.67645" lon="4.69172">
        <ele>420</ele>
        <time>2018-10-14T07:23:46Z</time>
      </trkpt>
      <trkpt lat="45.67642" lon="4.6917">
        <ele>420</ele>
        <time>2018-10-14T07:23:47Z</time>
      </trkpt>
      <trkpt lat="45.67639" lon="4.69169">
        <ele>420</ele>
        <time>2018-10-14T07:23:48Z</time>
      </trkpt>
      <trkpt lat="45.67635" lon="4.69167">
        <ele>420</ele>
        <time>2018-10-14T07:23:49Z</time>
      </trkpt>
      <trkpt lat="45.67632" lon="4.69165">
        <ele>420</ele>
        <time>2018-10-14T07:23:50Z</time>
      </trkpt>
      <trkpt lat="45.67629" lon="4.69164">
        <ele>420</ele>
        <time>2018-10-14T07:23:51Z</time>
      </trkpt>
      <trkpt lat="45.67625" lon="4.69163">
        <ele>420</ele>
        <time>2018-10-14T07:23:52Z</time>
      </trkpt>
      <trkpt lat="45.67622" lon="4.69161">
        <ele>421</ele>
        <time>2018-10-14T07:23:53Z</time>
      </trkpt>
      <trkpt lat="45.67619" lon="4.69158">
        <ele>421</ele>
        <time>2018-10-14T07:23:54Z</time>
      </trkpt>
      <trkpt lat="45.67616" lon="4.69156">
        <ele>421</ele>
        <time>2018-10-14T07:23:55Z</time>
      </trkpt>
      <trkpt lat="45.67613" lon="4.69153">
        <ele>422</ele>
        <time>2018-10-14T07:23:56Z</time>
      </trkpt>
      <trkpt lat="45.6761" lon="4.69151">
        <ele>422</ele>
        <time>2018-10-14T07:23:57Z</time>
      </trkpt>
      <trkpt lat="45.67608" lon="4.69149">
        <ele>422</ele>
        <time>2018-10-14T07:23:58Z</time>
      </trkpt>
      <trkpt lat="45.67604" lon="4.69147">
        <ele>422</ele>
        <time>2018-10-14T07:23:59Z</time>
      </trkpt>
      <trkpt lat="45.67601" lon="4.69146">
        <ele>424</ele>
        <time>2018-10-14T07:24:00Z</time>
      </trkpt>
      <trkpt lat="45.67598" lon="4.69143">
        <ele>423</ele>
        <time>2018-10-14T07:24:01Z</time>
      </trkpt>
      <trkpt lat="45.67595" lon="4.69141">
        <ele>423</ele>
        <time>2018-10-14T07:24:02Z</time>
      </trkpt>
      <trkpt lat="45.67591" lon="4.69139">
        <ele>423</ele>
        <time>2018-10-14T07:24:03Z</time>
      </trkpt>
      <trkpt lat="45.67588" lon="4.69137">
        <ele>423</ele>
        <time>2018-10-14T07:24:04Z</time>
      </trkpt>
      <trkpt lat="45.67585" lon="4.69134">
        <ele>424</ele>
        <time>2018-10-14T07:24:05Z</time>
      </trkpt>
      <trkpt lat="45.67582" lon="4.69131">
        <ele>423</ele>
        <time>2018-10-14T07:24:06Z</time>
      </trkpt>
      <trkpt lat="45.67579" lon="4.69129">
        <ele>423</ele>
        <time>2018-10-14T07:24:07Z</time>
      </trkpt>
      <trkpt lat="45.67576" lon="4.69126">
        <ele>423</ele>
        <time>2018-10-14T07:24:08Z</time>
      </trkpt>
      <trkpt lat="45.67574" lon="4.69124">
        <ele>423</ele>
        <time>2018-10-14T07:24:09Z</time>
      </trkpt>
      <trkpt lat="45.67571" lon="4.69122">
        <ele>424</ele>
        <time>2018-10-14T07:24:10Z</time>
      </trkpt>
      <trkpt lat="45.67568" lon="4.69119">
        <ele>424</ele>
        <time>2018-10-14T07:24:11Z</time>
      </trkpt>
      <trkpt lat="45.67566" lon="4.69117">
        <ele>424</ele>
        <time>2018-10-14T07:24:12Z</time>
      </trkpt>
      <trkpt lat="45.67564" lon="4.69114">
        <ele>424</ele>
        <time>2018-10-14T07:24:13Z</time>
      </trkpt>
      <trkpt lat="45.67561" lon="4.69112">
        <ele>424</ele>
        <time>2018-10-14T07:24:14Z</time>
      </trkpt>
      <trkpt lat="45.67558" lon="4.69109">
        <ele>424</ele>
        <time>2018-10-14T07:24:15Z</time>
      </trkpt>
      <trkpt lat="45.67556" lon="4.69106">
        <ele>425</ele>
        <time>2018-10-14T07:24:16Z</time>
      </trkpt>
      <trkpt lat="45.67553" lon="4.69104">
        <ele>425</ele>
        <time>2018-10-14T07:24:17Z</time>
      </trkpt>
      <trkpt lat="45.6755" lon="4.69101">
        <ele>424</ele>
        <time>2018-10-14T07:24:18Z</time>
      </trkpt>
      <trkpt lat="45.67547" lon="4.69098">
        <ele>424</ele>
        <time>2018-10-14T07:24:19Z</time>
      </trkpt>
      <trkpt lat="45.67544" lon="4.69095">
        <ele>425</ele>
        <time>2018-10-14T07:24:20Z</time>
      </trkpt>
      <trkpt lat="45.67541" lon="4.69092">
        <ele>425</ele>
        <time>2018-10-14T07:24:21Z</time>
      </trkpt>
      <trkpt lat="45.67539" lon="4.6909">
        <ele>425</ele>
        <time>2018-10-14T07:24:22Z</time>
      </trkpt>
      <trkpt lat="45.67536" lon="4.69087">
        <ele>425</ele>
        <time>2018-10-14T07:24:23Z</time>
      </trkpt>
      <trkpt lat="45.67533" lon="4.69084">
        <ele>425</ele>
        <time>2018-10-14T07:24:24Z</time>
      </trkpt>
      <trkpt lat="45.6753" lon="4.69081">
        <ele>426</ele>
        <time>2018-10-14T07:24:25Z</time>
      </trkpt>
      <trkpt lat="45.67527" lon="4.69079">
        <ele>425</ele>
        <time>2018-10-14T07:24:26Z</time>
      </trkpt>
      <trkpt lat="45.67525" lon="4.69076">
        <ele>426</ele>
        <time>2018-10-14T07:24:27Z</time>
      </trkpt>
      <trkpt lat="45.67522" lon="4.69074">
        <ele>426</ele>
        <time>2018-10-14T07:24:28Z</time>
      </trkpt>
      <trkpt lat="45.67518" lon="4.69071">
        <ele>426</ele>
        <time>2018-10-14T07:24:29Z</time>
      </trkpt>
      <trkpt lat="45.67515" lon="4.69068">
        <ele>427</ele>
        <time>2018-10-14T07:24:30Z</time>
      </trkpt>
      <trkpt lat="45.67512" lon="4.69065">
        <ele>427</ele>
        <time>2018-10-14T07:24:31Z</time>
      </trkpt>
      <trkpt lat="45.67508" lon="4.69062">
        <ele>428</ele>
        <time>2018-10-14T07:24:32Z</time>
      </trkpt>
      <trkpt lat="45.67505" lon="4.69059">
        <ele>428</ele>
        <time>2018-10-14T07:24:33Z</time>
      </trkpt>
      <trkpt lat="45.67502" lon="4.69056">
        <ele>428</ele>
        <time>2018-10-14T07:24:34Z</time>
      </trkpt>
      <trkpt lat="45.67499" lon="4.69053">
        <ele>428</ele>
        <time>2018-10-14T07:24:35Z</time>
      </trkpt>
      <trkpt lat="45.67496" lon="4.69051">
        <ele>428</ele>
        <time>2018-10-14T07:24:36Z</time>
      </trkpt>
      <trkpt lat="45.67493" lon="4.69048">
        <ele>429</ele>
        <time>2018-10-14T07:24:37Z</time>
      </trkpt>
      <trkpt lat="45.67491" lon="4.69045">
        <ele>429</ele>
        <time>2018-10-14T07:24:38Z</time>
      </trkpt>
      <trkpt lat="45.67488" lon="4.69042">
        <ele>428</ele>
        <time>2018-10-14T07:24:39Z</time>
      </trkpt>
      <trkpt lat="45.67485" lon="4.69039">
        <ele>428</ele>
        <time>2018-10-14T07:24:40Z</time>
      </trkpt>
      <trkpt lat="45.67482" lon="4.69035">
        <ele>428</ele>
        <time>2018-10-14T07:24:41Z</time>
      </trkpt>
      <trkpt lat="45.6748" lon="4.69032">
        <ele>427</ele>
        <time>2018-10-14T07:24:42Z</time>
      </trkpt>
      <trkpt lat="45.67477" lon="4.69028">
        <ele>427</ele>
        <time>2018-10-14T07:24:43Z</time>
      </trkpt>
      <trkpt lat="45.67476" lon="4.69024">
        <ele>427</ele>
        <time>2018-10-14T07:24:44Z</time>
      </trkpt>
      <trkpt lat="45.67473" lon="4.6902">
        <ele>426</ele>
        <time>2018-10-14T07:24:45Z</time>
      </trkpt>
      <trkpt lat="45.6747" lon="4.69015">
        <ele>425</ele>
        <time>2018-10-14T07:24:46Z</time>
      </trkpt>
      <trkpt lat="45.67468" lon="4.69011">
        <ele>425</ele>
        <time>2018-10-14T07:24:47Z</time>
      </trkpt>
      <trkpt lat="45.67466" lon="4.69007">
        <ele>426</ele>
        <time>2018-10-14T07:24:48Z</time>
      </trkpt>
      <trkpt lat="45.67464" lon="4.69003">
        <ele>426</ele>
        <time>2018-10-14T07:24:49Z</time>
      </trkpt>
      <trkpt lat="45.67463" lon="4.68999">
        <ele>426</ele>
        <time>2018-10-14T07:24:50Z</time>
      </trkpt>
      <trkpt lat="45.67461" lon="4.68997">
        <ele>426</ele>
        <time>2018-10-14T07:24:51Z</time>
      </trkpt>
      <trkpt lat="45.67459" lon="4.68992">
        <ele>425</ele>
        <time>2018-10-14T07:24:52Z</time>
      </trkpt>
      <trkpt lat="45.67458" lon="4.68988">
        <ele>425</ele>
        <time>2018-10-14T07:24:53Z</time>
      </trkpt>
      <trkpt lat="45.67456" lon="4.68982">
        <ele>424</ele>
        <time>2018-10-14T07:24:54Z</time>
      </trkpt>
      <trkpt lat="45.67455" lon="4.68979">
        <ele>424</ele>
        <time>2018-10-14T07:24:55Z</time>
      </trkpt>
      <trkpt lat="45.6745" lon="4.68961">
        <ele>425</ele>
        <time>2018-10-14T07:24:56Z</time>
      </trkpt>
      <trkpt lat="45.67449" lon="4.68955">
        <ele>425</ele>
        <time>2018-10-14T07:24:57Z</time>
      </trkpt>
      <trkpt lat="45.67448" lon="4.68949">
        <ele>425</ele>
        <time>2018-10-14T07:24:58Z</time>
      </trkpt>
      <trkpt lat="45.67446" lon="4.68943">
        <ele>426</ele>
        <time>2018-10-14T07:24:59Z</time>
      </trkpt>
      <trkpt lat="45.67444" lon="4.68938">
        <ele>425</ele>
        <time>2018-10-14T07:25:00Z</time>
      </trkpt>
      <trkpt lat="45.67443" lon="4.68931">
        <ele>426</ele>
        <time>2018-10-14T07:25:01Z</time>
      </trkpt>
      <trkpt lat="45.67442" lon="4.68925">
        <ele>426</ele>
        <time>2018-10-14T07:25:02Z</time>
      </trkpt>
      <trkpt lat="45.6744" lon="4.68919">
        <ele>426</ele>
        <time>2018-10-14T07:25:03Z</time>
      </trkpt>
      <trkpt lat="45.67439" lon="4.68913">
        <ele>426</ele>
        <time>2018-10-14T07:25:04Z</time>
      </trkpt>
      <trkpt lat="45.67437" lon="4.68906">
        <ele>426</ele>
        <time>2018-10-14T07:25:05Z</time>
      </trkpt>
      <trkpt lat="45.67435" lon="4.689">
        <ele>425</ele>
        <time>2018-10-14T07:25:06Z</time>
      </trkpt>
      <trkpt lat="45.67434" lon="4.68893">
        <ele>425</ele>
        <time>2018-10-14T07:25:07Z</time>
      </trkpt>
      <trkpt lat="45.67432" lon="4.68886">
        <ele>425</ele>
        <time>2018-10-14T07:25:08Z</time>
      </trkpt>
      <trkpt lat="45.67432" lon="4.68878">
        <ele>425</ele>
        <time>2018-10-14T07:25:09Z</time>
      </trkpt>
      <trkpt lat="45.67432" lon="4.6887">
        <ele>426</ele>
        <time>2018-10-14T07:25:10Z</time>
      </trkpt>
      <trkpt lat="45.67431" lon="4.68862">
        <ele>425</ele>
        <time>2018-10-14T07:25:11Z</time>
      </trkpt>
      <trkpt lat="45.6743" lon="4.68854">
        <ele>425</ele>
        <time>2018-10-14T07:25:12Z</time>
      </trkpt>
      <trkpt lat="45.67429" lon="4.68846">
        <ele>425</ele>
        <time>2018-10-14T07:25:13Z</time>
      </trkpt>
      <trkpt lat="45.67428" lon="4.68837">
        <ele>425</ele>
        <time>2018-10-14T07:25:14Z</time>
      </trkpt>
      <trkpt lat="45.67427" lon="4.68829">
        <ele>424</ele>
        <time>2018-10-14T07:25:15Z</time>
      </trkpt>
      <trkpt lat="45.67424" lon="4.68821">
        <ele>424</ele>
        <time>2018-10-14T07:25:16Z</time>
      </trkpt>
      <trkpt lat="45.67421" lon="4.68813">
        <ele>424</ele>
        <time>2018-10-14T07:25:17Z</time>
      </trkpt>
      <trkpt lat="45.67418" lon="4.68805">
        <ele>424</ele>
        <time>2018-10-14T07:25:18Z</time>
      </trkpt>
      <trkpt lat="45.67415" lon="4.68797">
        <ele>424</ele>
        <time>2018-10-14T07:25:19Z</time>
      </trkpt>
      <trkpt lat="45.67411" lon="4.68789">
        <ele>424</ele>
        <time>2018-10-14T07:25:20Z</time>
      </trkpt>
      <trkpt lat="45.67409" lon="4.68782">
        <ele>424</ele>
        <time>2018-10-14T07:25:21Z</time>
      </trkpt>
      <trkpt lat="45.67406" lon="4.68775">
        <ele>424</ele>
        <time>2018-10-14T07:25:22Z</time>
      </trkpt>
      <trkpt lat="45.67403" lon="4.68767">
        <ele>424</ele>
        <time>2018-10-14T07:25:23Z</time>
      </trkpt>
      <trkpt lat="45.674" lon="4.68759">
        <ele>424</ele>
        <time>2018-10-14T07:25:24Z</time>
      </trkpt>
      <trkpt lat="45.67398" lon="4.68751">
        <ele>423</ele>
        <time>2018-10-14T07:25:25Z</time>
      </trkpt>
      <trkpt lat="45.67394" lon="4.68743">
        <ele>423</ele>
        <time>2018-10-14T07:25:26Z</time>
      </trkpt>
      <trkpt lat="45.6739" lon="4.68735">
        <ele>423</ele>
        <time>2018-10-14T07:25:27Z</time>
      </trkpt>
      <trkpt lat="45.67387" lon="4.68727">
        <ele>422</ele>
        <time>2018-10-14T07:25:28Z</time>
      </trkpt>
      <trkpt lat="45.67384" lon="4.6872">
        <ele>421</ele>
        <time>2018-10-14T07:25:29Z</time>
      </trkpt>
      <trkpt lat="45.6738" lon="4.68711">
        <ele>420</ele>
        <time>2018-10-14T07:25:30Z</time>
      </trkpt>
      <trkpt lat="45.67377" lon="4.68702">
        <ele>421</ele>
        <time>2018-10-14T07:25:31Z</time>
      </trkpt>
      <trkpt lat="45.67374" lon="4.68695">
        <ele>422</ele>
        <time>2018-10-14T07:25:32Z</time>
      </trkpt>
      <trkpt lat="45.67371" lon="4.68688">
        <ele>422</ele>
        <time>2018-10-14T07:25:33Z</time>
      </trkpt>
      <trkpt lat="45.67368" lon="4.68681">
        <ele>421</ele>
        <time>2018-10-14T07:25:34Z</time>
      </trkpt>
      <trkpt lat="45.67366" lon="4.68674">
        <ele>422</ele>
        <time>2018-10-14T07:25:35Z</time>
      </trkpt>
      <trkpt lat="45.67364" lon="4.68668">
        <ele>423</ele>
        <time>2018-10-14T07:25:36Z</time>
      </trkpt>
      <trkpt lat="45.67362" lon="4.68661">
        <ele>423</ele>
        <time>2018-10-14T07:25:37Z</time>
      </trkpt>
      <trkpt lat="45.67359" lon="4.68654">
        <ele>423</ele>
        <time>2018-10-14T07:25:38Z</time>
      </trkpt>
      <trkpt lat="45.67357" lon="4.68647">
        <ele>423</ele>
        <time>2018-10-14T07:25:39Z</time>
      </trkpt>
      <trkpt lat="45.67355" lon="4.6864">
        <ele>424</ele>
        <time>2018-10-14T07:25:40Z</time>
      </trkpt>
      <trkpt lat="45.67353" lon="4.68633">
        <ele>424</ele>
        <time>2018-10-14T07:25:41Z</time>
      </trkpt>
      <trkpt lat="45.67351" lon="4.68627">
        <ele>425</ele>
        <time>2018-10-14T07:25:42Z</time>
      </trkpt>
      <trkpt lat="45.67348" lon="4.6862">
        <ele>424</ele>
        <time>2018-10-14T07:25:43Z</time>
      </trkpt>
      <trkpt lat="45.67345" lon="4.68614">
        <ele>423</ele>
        <time>2018-10-14T07:25:44Z</time>
      </trkpt>
      <trkpt lat="45.67342" lon="4.68609">
        <ele>422</ele>
        <time>2018-10-14T07:25:45Z</time>
      </trkpt>
      <trkpt lat="45.67339" lon="4.68603">
        <ele>422</ele>
        <time>2018-10-14T07:25:46Z</time>
      </trkpt>
      <trkpt lat="45.67337" lon="4.68597">
        <ele>423</ele>
        <time>2018-10-14T07:25:47Z</time>
      </trkpt>
      <trkpt lat="45.67336" lon="4.68592">
        <ele>423</ele>
        <time>2018-10-14T07:25:48Z</time>
      </trkpt>
      <trkpt lat="45.67333" lon="4.68587">
        <ele>423</ele>
        <time>2018-10-14T07:25:49Z</time>
      </trkpt>
      <trkpt lat="45.67331" lon="4.68582">
        <ele>424</ele>
        <time>2018-10-14T07:25:50Z</time>
      </trkpt>
      <trkpt lat="45.6733" lon="4.68576">
        <ele>423</ele>
        <time>2018-10-14T07:25:51Z</time>
      </trkpt>
      <trkpt lat="45.67327" lon="4.6857">
        <ele>423</ele>
        <time>2018-10-14T07:25:52Z</time>
      </trkpt>
      <trkpt lat="45.67324" lon="4.68564">
        <ele>423</ele>
        <time>2018-10-14T07:25:53Z</time>
      </trkpt>
      <trkpt lat="45.67321" lon="4.68559">
        <ele>422</ele>
        <time>2018-10-14T07:25:54Z</time>
      </trkpt>
      <trkpt lat="45.67319" lon="4.68554">
        <ele>422</ele>
        <time>2018-10-14T07:25:55Z</time>
      </trkpt>
      <trkpt lat="45.67316" lon="4.6855">
        <ele>422</ele>
        <time>2018-10-14T07:25:56Z</time>
      </trkpt>
      <trkpt lat="45.67313" lon="4.68545">
        <ele>422</ele>
        <time>2018-10-14T07:25:57Z</time>
      </trkpt>
      <trkpt lat="45.6731" lon="4.68541">
        <ele>422</ele>
        <time>2018-10-14T07:25:58Z</time>
      </trkpt>
      <trkpt lat="45.67307" lon="4.68537">
        <ele>422</ele>
        <time>2018-10-14T07:25:59Z</time>
      </trkpt>
      <trkpt lat="45.67304" lon="4.68537">
        <ele>422</ele>
        <time>2018-10-14T07:26:00Z</time>
      </trkpt>
      <trkpt lat="45.67301" lon="4.68534">
        <ele>422</ele>
        <time>2018-10-14T07:26:01Z</time>
      </trkpt>
      <trkpt lat="45.67297" lon="4.68532">
        <ele>423</ele>
        <time>2018-10-14T07:26:02Z</time>
      </trkpt>
      <trkpt lat="45.67293" lon="4.68529">
        <ele>423</ele>
        <time>2018-10-14T07:26:03Z</time>
      </trkpt>
      <trkpt lat="45.6729" lon="4.68528">
        <ele>423</ele>
        <time>2018-10-14T07:26:04Z</time>
      </trkpt>
      <trkpt lat="45.67286" lon="4.68526">
        <ele>423</ele>
        <time>2018-10-14T07:26:05Z</time>
      </trkpt>
      <trkpt lat="45.67283" lon="4.68525">
        <ele>424</ele>
        <time>2018-10-14T07:26:06Z</time>
      </trkpt>
      <trkpt lat="45.67279" lon="4.68523">
        <ele>425</ele>
        <time>2018-10-14T07:26:07Z</time>
      </trkpt>
      <trkpt lat="45.67275" lon="4.68521">
        <ele>425</ele>
        <time>2018-10-14T07:26:08Z</time>
      </trkpt>
      <trkpt lat="45.67271" lon="4.6852">
        <ele>426</ele>
        <time>2018-10-14T07:26:09Z</time>
      </trkpt>
      <trkpt lat="45.67267" lon="4.68518">
        <ele>426</ele>
        <time>2018-10-14T07:26:10Z</time>
      </trkpt>
      <trkpt lat="45.67264" lon="4.68516">
        <ele>427</ele>
        <time>2018-10-14T07:26:11Z</time>
      </trkpt>
      <trkpt lat="45.6726" lon="4.68513">
        <ele>428</ele>
        <time>2018-10-14T07:26:12Z</time>
      </trkpt>
      <trkpt lat="45.67257" lon="4.68511">
        <ele>428</ele>
        <time>2018-10-14T07:26:13Z</time>
      </trkpt>
      <trkpt lat="45.67253" lon="4.68508">
        <ele>428</ele>
        <time>2018-10-14T07:26:14Z</time>
      </trkpt>
      <trkpt lat="45.6725" lon="4.68505">
        <ele>427</ele>
        <time>2018-10-14T07:26:15Z</time>
      </trkpt>
      <trkpt lat="45.67246" lon="4.68502">
        <ele>428</ele>
        <time>2018-10-14T07:26:16Z</time>
      </trkpt>
      <trkpt lat="45.67243" lon="4.68499">
        <ele>427</ele>
        <time>2018-10-14T07:26:17Z</time>
      </trkpt>
      <trkpt lat="45.67241" lon="4.68496">
        <ele>428</ele>
        <time>2018-10-14T07:26:18Z</time>
      </trkpt>
      <trkpt lat="45.67238" lon="4.68493">
        <ele>428</ele>
        <time>2018-10-14T07:26:19Z</time>
      </trkpt>
      <trkpt lat="45.67236" lon="4.68488">
        <ele>427</ele>
        <time>2018-10-14T07:26:20Z</time>
      </trkpt>
      <trkpt lat="45.67234" lon="4.68484">
        <ele>426</ele>
        <time>2018-10-14T07:26:21Z</time>
      </trkpt>
      <trkpt lat="45.67231" lon="4.6848">
        <ele>427</ele>
        <time>2018-10-14T07:26:22Z</time>
      </trkpt>
      <trkpt lat="45.67228" lon="4.68477">
        <ele>427</ele>
        <time>2018-10-14T07:26:23Z</time>
      </trkpt>
      <trkpt lat="45.67225" lon="4.68475">
        <ele>427</ele>
        <time>2018-10-14T07:26:24Z</time>
      </trkpt>
      <trkpt lat="45.67222" lon="4.68472">
        <ele>427</ele>
        <time>2018-10-14T07:26:25Z</time>
      </trkpt>
      <trkpt lat="45.67218" lon="4.68469">
        <ele>428</ele>
        <time>2018-10-14T07:26:26Z</time>
      </trkpt>
      <trkpt lat="45.67215" lon="4.68466">
        <ele>427</ele>
        <time>2018-10-14T07:26:27Z</time>
      </trkpt>
      <trkpt lat="45.67213" lon="4.68464">
        <ele>428</ele>
        <time>2018-10-14T07:26:28Z</time>
      </trkpt>
      <trkpt lat="45.67209" lon="4.68462">
        <ele>429</ele>
        <time>2018-10-14T07:26:29Z</time>
      </trkpt>
      <trkpt lat="45.67206" lon="4.6846">
        <ele>429</ele>
        <time>2018-10-14T07:26:30Z</time>
      </trkpt>
      <trkpt lat="45.67204" lon="4.68458">
        <ele>429</ele>
        <time>2018-10-14T07:26:31Z</time>
      </trkpt>
      <trkpt lat="45.67202" lon="4.68454">
        <ele>429</ele>
        <time>2018-10-14T07:26:32Z</time>
      </trkpt>
      <trkpt lat="45.672" lon="4.68451">
        <ele>430</ele>
        <time>2018-10-14T07:26:33Z</time>
      </trkpt>
      <trkpt lat="45.67201" lon="4.68445">
        <ele>430</ele>
        <time>2018-10-14T07:26:34Z</time>
      </trkpt>
      <trkpt lat="45.67201" lon="4.68441">
        <ele>431</ele>
        <time>2018-10-14T07:26:35Z</time>
      </trkpt>
      <trkpt lat="45.67201" lon="4.68436">
        <ele>431</ele>
        <time>2018-10-14T07:26:36Z</time>
      </trkpt>
      <trkpt lat="45.67202" lon="4.68431">
        <ele>431</ele>
        <time>2018-10-14T07:26:37Z</time>
      </trkpt>
      <trkpt lat="45.67202" lon="4.68425">
        <ele>430</ele>
        <time>2018-10-14T07:26:38Z</time>
      </trkpt>
      <trkpt lat="45.67202" lon="4.6842">
        <ele>431</ele>
        <time>2018-10-14T07:26:39Z</time>
      </trkpt>
      <trkpt lat="45.67203" lon="4.68414">
        <ele>431</ele>
        <time>2018-10-14T07:26:40Z</time>
      </trkpt>
      <trkpt lat="45.67204" lon="4.68409">
        <ele>431</ele>
        <time>2018-10-14T07:26:41Z</time>
      </trkpt>
      <trkpt lat="45.67205" lon="4.68402">
        <ele>431</ele>
        <time>2018-10-14T07:26:42Z</time>
      </trkpt>
      <trkpt lat="45.67205" lon="4.68397">
        <ele>431</ele>
        <time>2018-10-14T07:26:43Z</time>
      </trkpt>
      <trkpt lat="45.67206" lon="4.68391">
        <ele>431</ele>
        <time>2018-10-14T07:26:44Z</time>
      </trkpt>
      <trkpt lat="45.67206" lon="4.68386">
        <ele>431</ele>
        <time>2018-10-14T07:26:45Z</time>
      </trkpt>
      <trkpt lat="45.67207" lon="4.6838">
        <ele>431</ele>
        <time>2018-10-14T07:26:46Z</time>
      </trkpt>
      <trkpt lat="45.67207" lon="4.68375">
        <ele>432</ele>
        <time>2018-10-14T07:26:47Z</time>
      </trkpt>
      <trkpt lat="45.67206" lon="4.68369">
        <ele>431</ele>
        <time>2018-10-14T07:26:48Z</time>
      </trkpt>
      <trkpt lat="45.67205" lon="4.68363">
        <ele>431</ele>
        <time>2018-10-14T07:26:49Z</time>
      </trkpt>
      <trkpt lat="45.67205" lon="4.68358">
        <ele>431</ele>
        <time>2018-10-14T07:26:50Z</time>
      </trkpt>
      <trkpt lat="45.67205" lon="4.68352">
        <ele>432</ele>
        <time>2018-10-14T07:26:51Z</time>
      </trkpt>
      <trkpt lat="45.67205" lon="4.68348">
        <ele>431</ele>
        <time>2018-10-14T07:26:52Z</time>
      </trkpt>
      <trkpt lat="45.67205" lon="4.68343">
        <ele>431</ele>
        <time>2018-10-14T07:26:53Z</time>
      </trkpt>
      <trkpt lat="45.67205" lon="4.68338">
        <ele>431</ele>
        <time>2018-10-14T07:26:54Z</time>
      </trkpt>
      <trkpt lat="45.67205" lon="4.68333">
        <ele>431</ele>
        <time>2018-10-14T07:26:55Z</time>
      </trkpt>
      <trkpt lat="45.67205" lon="4.68327">
        <ele>431</ele>
        <time>2018-10-14T07:26:56Z</time>
      </trkpt>
      <trkpt lat="45.67204" lon="4.68322">
        <ele>431</ele>
        <time>2018-10-14T07:26:57Z</time>
      </trkpt>
      <trkpt lat="45.67204" lon="4.68317">
        <ele>431</ele>
        <time>2018-10-14T07:26:58Z</time>
      </trkpt>
      <trkpt lat="45.67204" lon="4.68311">
        <ele>431</ele>
        <time>2018-10-14T07:26:59Z</time>
      </trkpt>
      <trkpt lat="45.67204" lon="4.68305">
        <ele>432</ele>
        <time>2018-10-14T07:27:00Z</time>
      </trkpt>
      <trkpt lat="45.67204" lon="4.683">
        <ele>433</ele>
        <time>2018-10-14T07:27:01Z</time>
      </trkpt>
      <trkpt lat="45.67203" lon="4.68295">
        <ele>434</ele>
        <time>2018-10-14T07:27:02Z</time>
      </trkpt>
      <trkpt lat="45.67203" lon="4.6829">
        <ele>434</ele>
        <time>2018-10-14T07:27:03Z</time>
      </trkpt>
      <trkpt lat="45.67202" lon="4.68284">
        <ele>434</ele>
        <time>2018-10-14T07:27:04Z</time>
      </trkpt>
      <trkpt lat="45.67202" lon="4.68279">
        <ele>434</ele>
        <time>2018-10-14T07:27:05Z</time>
      </trkpt>
      <trkpt lat="45.67201" lon="4.68273">
        <ele>435</ele>
        <time>2018-10-14T07:27:06Z</time>
      </trkpt>
      <trkpt lat="45.67201" lon="4.68268">
        <ele>435</ele>
        <time>2018-10-14T07:27:07Z</time>
      </trkpt>
      <trkpt lat="45.67201" lon="4.68262">
        <ele>435</ele>
        <time>2018-10-14T07:27:08Z</time>
      </trkpt>
      <trkpt lat="45.67201" lon="4.68257">
        <ele>435</ele>
        <time>2018-10-14T07:27:09Z</time>
      </trkpt>
      <trkpt lat="45.672" lon="4.68251">
        <ele>435</ele>
        <time>2018-10-14T07:27:10Z</time>
      </trkpt>
      <trkpt lat="45.672" lon="4.68246">
        <ele>436</ele>
        <time>2018-10-14T07:27:11Z</time>
      </trkpt>
      <trkpt lat="45.67201" lon="4.68241">
        <ele>436</ele>
        <time>2018-10-14T07:27:12Z</time>
      </trkpt>
      <trkpt lat="45.672" lon="4.68235">
        <ele>436</ele>
        <time>2018-10-14T07:27:13Z</time>
      </trkpt>
      <trkpt lat="45.67199" lon="4.6823">
        <ele>435</ele>
        <time>2018-10-14T07:27:14Z</time>
      </trkpt>
      <trkpt lat="45.67199" lon="4.68224">
        <ele>435</ele>
        <time>2018-10-14T07:27:15Z</time>
      </trkpt>
      <trkpt lat="45.672" lon="4.68219">
        <ele>435</ele>
        <time>2018-10-14T07:27:16Z</time>
      </trkpt>
      <trkpt lat="45.672" lon="4.68214">
        <ele>435</ele>
        <time>2018-10-14T07:27:17Z</time>
      </trkpt>
      <trkpt lat="45.672" lon="4.68209">
        <ele>435</ele>
        <time>2018-10-14T07:27:18Z</time>
      </trkpt>
      <trkpt lat="45.67201" lon="4.68204">
        <ele>435</ele>
        <time>2018-10-14T07:27:19Z</time>
      </trkpt>
      <trkpt lat="45.67201" lon="4.68199">
        <ele>435</ele>
        <time>2018-10-14T07:27:20Z</time>
      </trkpt>
      <trkpt lat="45.67202" lon="4.68194">
        <ele>435</ele>
        <time>2018-10-14T07:27:21Z</time>
      </trkpt>
      <trkpt lat="45.67202" lon="4.6819">
        <ele>435</ele>
        <time>2018-10-14T07:27:22Z</time>
      </trkpt>
      <trkpt lat="45.67203" lon="4.68185">
        <ele>435</ele>
        <time>2018-10-14T07:27:23Z</time>
      </trkpt>
      <trkpt lat="45.67204" lon="4.6818">
        <ele>436</ele>
        <time>2018-10-14T07:27:24Z</time>
      </trkpt>
      <trkpt lat="45.67204" lon="4.68175">
        <ele>436</ele>
        <time>2018-10-14T07:27:25Z</time>
      </trkpt>
      <trkpt lat="45.67205" lon="4.68171">
        <ele>436</ele>
        <time>2018-10-14T07:27:26Z</time>
      </trkpt>
      <trkpt lat="45.67206" lon="4.68166">
        <ele>436</ele>
        <time>2018-10-14T07:27:27Z</time>
      </trkpt>
      <trkpt lat="45.67208" lon="4.68162">
        <ele>436</ele>
        <time>2018-10-14T07:27:28Z</time>
      </trkpt>
      <trkpt lat="45.67209" lon="4.68157">
        <ele>437</ele>
        <time>2018-10-14T07:27:29Z</time>
      </trkpt>
      <trkpt lat="45.6721" lon="4.68152">
        <ele>438</ele>
        <time>2018-10-14T07:27:30Z</time>
      </trkpt>
      <trkpt lat="45.67211" lon="4.68148">
        <ele>438</ele>
        <time>2018-10-14T07:27:31Z</time>
      </trkpt>
      <trkpt lat="45.67213" lon="4.68142">
        <ele>437</ele>
        <time>2018-10-14T07:27:32Z</time>
      </trkpt>
      <trkpt lat="45.67214" lon="4.68137">
        <ele>437</ele>
        <time>2018-10-14T07:27:33Z</time>
      </trkpt>
      <trkpt lat="45.67216" lon="4.68132">
        <ele>436</ele>
        <time>2018-10-14T07:27:34Z</time>
      </trkpt>
      <trkpt lat="45.67217" lon="4.68127">
        <ele>436</ele>
        <time>2018-10-14T07:27:35Z</time>
      </trkpt>
      <trkpt lat="45.67218" lon="4.68123">
        <ele>436</ele>
        <time>2018-10-14T07:27:36Z</time>
      </trkpt>
      <trkpt lat="45.6722" lon="4.68118">
        <ele>436</ele>
        <time>2018-10-14T07:27:37Z</time>
      </trkpt>
      <trkpt lat="45.67221" lon="4.68114">
        <ele>436</ele>
        <time>2018-10-14T07:27:38Z</time>
      </trkpt>
      <trkpt lat="45.67223" lon="4.68109">
        <ele>436</ele>
        <time>2018-10-14T07:27:39Z</time>
      </trkpt>
      <trkpt lat="45.67225" lon="4.68104">
        <ele>437</ele>
        <time>2018-10-14T07:27:40Z</time>
      </trkpt>
      <trkpt lat="45.67226" lon="4.68099">
        <ele>437</ele>
        <time>2018-10-14T07:27:41Z</time>
      </trkpt>
      <trkpt lat="45.67226" lon="4.68096">
        <ele>437</ele>
        <time>2018-10-14T07:27:42Z</time>
      </trkpt>
      <trkpt lat="45.67226" lon="4.68093">
        <ele>437</ele>
        <time>2018-10-14T07:27:43Z</time>
      </trkpt>
      <trkpt lat="45.67225" lon="4.68089">
        <ele>438</ele>
        <time>2018-10-14T07:27:44Z</time>
      </trkpt>
      <trkpt lat="45.67223" lon="4.68082">
        <ele>438</ele>
        <time>2018-10-14T07:27:45Z</time>
      </trkpt>
      <trkpt lat="45.67222" lon="4.68078">
        <ele>438</ele>
        <time>2018-10-14T07:27:46Z</time>
      </trkpt>
      <trkpt lat="45.6722" lon="4.68074">
        <ele>438</ele>
        <time>2018-10-14T07:27:47Z</time>
      </trkpt>
      <trkpt lat="45.67218" lon="4.68071">
        <ele>439</ele>
        <time>2018-10-14T07:27:48Z</time>
      </trkpt>
      <trkpt lat="45.67216" lon="4.68067">
        <ele>438</ele>
        <time>2018-10-14T07:27:49Z</time>
      </trkpt>
      <trkpt lat="45.67215" lon="4.68063">
        <ele>438</ele>
        <time>2018-10-14T07:27:50Z</time>
      </trkpt>
      <trkpt lat="45.67213" lon="4.68059">
        <ele>438</ele>
        <time>2018-10-14T07:27:51Z</time>
      </trkpt>
      <trkpt lat="45.67212" lon="4.68055">
        <ele>439</ele>
        <time>2018-10-14T07:27:52Z</time>
      </trkpt>
      <trkpt lat="45.67211" lon="4.68052">
        <ele>439</ele>
        <time>2018-10-14T07:27:53Z</time>
      </trkpt>
      <trkpt lat="45.67209" lon="4.68047">
        <ele>438</ele>
        <time>2018-10-14T07:27:55Z</time>
      </trkpt>
      <trkpt lat="45.67207" lon="4.6804">
        <ele>440</ele>
        <time>2018-10-14T07:27:56Z</time>
      </trkpt>
      <trkpt lat="45.67205" lon="4.68036">
        <ele>441</ele>
        <time>2018-10-14T07:27:57Z</time>
      </trkpt>
      <trkpt lat="45.67205" lon="4.68033">
        <ele>442</ele>
        <time>2018-10-14T07:27:58Z</time>
      </trkpt>
      <trkpt lat="45.67204" lon="4.68029">
        <ele>442</ele>
        <time>2018-10-14T07:27:59Z</time>
      </trkpt>
      <trkpt lat="45.67203" lon="4.68026">
        <ele>442</ele>
        <time>2018-10-14T07:28:00Z</time>
      </trkpt>
      <trkpt lat="45.67202" lon="4.68022">
        <ele>442</ele>
        <time>2018-10-14T07:28:01Z</time>
      </trkpt>
      <trkpt lat="45.67201" lon="4.68019">
        <ele>442</ele>
        <time>2018-10-14T07:28:02Z</time>
      </trkpt>
      <trkpt lat="45.672" lon="4.68015">
        <ele>442</ele>
        <time>2018-10-14T07:28:03Z</time>
      </trkpt>
      <trkpt lat="45.67199" lon="4.68012">
        <ele>442</ele>
        <time>2018-10-14T07:28:04Z</time>
      </trkpt>
      <trkpt lat="45.67197" lon="4.68009">
        <ele>442</ele>
        <time>2018-10-14T07:28:05Z</time>
      </trkpt>
      <trkpt lat="45.67195" lon="4.68005">
        <ele>443</ele>
        <time>2018-10-14T07:28:06Z</time>
      </trkpt>
      <trkpt lat="45.67194" lon="4.68001">
        <ele>443</ele>
        <time>2018-10-14T07:28:07Z</time>
      </trkpt>
      <trkpt lat="45.67193" lon="4.67996">
        <ele>443</ele>
        <time>2018-10-14T07:28:08Z</time>
      </trkpt>
      <trkpt lat="45.67193" lon="4.67991">
        <ele>442</ele>
        <time>2018-10-14T07:28:09Z</time>
      </trkpt>
      <trkpt lat="45.67191" lon="4.67987">
        <ele>442</ele>
        <time>2018-10-14T07:28:10Z</time>
      </trkpt>
      <trkpt lat="45.67191" lon="4.67983">
        <ele>443</ele>
        <time>2018-10-14T07:28:11Z</time>
      </trkpt>
      <trkpt lat="45.67189" lon="4.67979">
        <ele>443</ele>
        <time>2018-10-14T07:28:12Z</time>
      </trkpt>
      <trkpt lat="45.67189" lon="4.67975">
        <ele>444</ele>
        <time>2018-10-14T07:28:13Z</time>
      </trkpt>
      <trkpt lat="45.67187" lon="4.67971">
        <ele>444</ele>
        <time>2018-10-14T07:28:14Z</time>
      </trkpt>
      <trkpt lat="45.67187" lon="4.67966">
        <ele>444</ele>
        <time>2018-10-14T07:28:15Z</time>
      </trkpt>
      <trkpt lat="45.67186" lon="4.67962">
        <ele>443</ele>
        <time>2018-10-14T07:28:16Z</time>
      </trkpt>
      <trkpt lat="45.67185" lon="4.67958">
        <ele>443</ele>
        <time>2018-10-14T07:28:17Z</time>
      </trkpt>
      <trkpt lat="45.67184" lon="4.67955">
        <ele>443</ele>
        <time>2018-10-14T07:28:18Z</time>
      </trkpt>
      <trkpt lat="45.67184" lon="4.67953">
        <ele>443</ele>
        <time>2018-10-14T07:28:19Z</time>
      </trkpt>
      <trkpt lat="45.67182" lon="4.67946">
        <ele>444</ele>
        <time>2018-10-14T07:28:20Z</time>
      </trkpt>
      <trkpt lat="45.6718" lon="4.67943">
        <ele>444</ele>
        <time>2018-10-14T07:28:21Z</time>
      </trkpt>
      <trkpt lat="45.67179" lon="4.67939">
        <ele>444</ele>
        <time>2018-10-14T07:28:22Z</time>
      </trkpt>
      <trkpt lat="45.67178" lon="4.67936">
        <ele>444</ele>
        <time>2018-10-14T07:28:23Z</time>
      </trkpt>
      <trkpt lat="45.67177" lon="4.67933">
        <ele>444</ele>
        <time>2018-10-14T07:28:24Z</time>
      </trkpt>
      <trkpt lat="45.67176" lon="4.67929">
        <ele>445</ele>
        <time>2018-10-14T07:28:25Z</time>
      </trkpt>
      <trkpt lat="45.67175" lon="4.67925">
        <ele>445</ele>
        <time>2018-10-14T07:28:26Z</time>
      </trkpt>
      <trkpt lat="45.67174" lon="4.67921">
        <ele>446</ele>
        <time>2018-10-14T07:28:27Z</time>
      </trkpt>
      <trkpt lat="45.67173" lon="4.67917">
        <ele>446</ele>
        <time>2018-10-14T07:28:28Z</time>
      </trkpt>
      <trkpt lat="45.67171" lon="4.67913">
        <ele>447</ele>
        <time>2018-10-14T07:28:29Z</time>
      </trkpt>
      <trkpt lat="45.6717" lon="4.67909">
        <ele>447</ele>
        <time>2018-10-14T07:28:30Z</time>
      </trkpt>
      <trkpt lat="45.67169" lon="4.67905">
        <ele>447</ele>
        <time>2018-10-14T07:28:31Z</time>
      </trkpt>
      <trkpt lat="45.67169" lon="4.67901">
        <ele>447</ele>
        <time>2018-10-14T07:28:32Z</time>
      </trkpt>
      <trkpt lat="45.67168" lon="4.67899">
        <ele>447</ele>
        <time>2018-10-14T07:28:33Z</time>
      </trkpt>
      <trkpt lat="45.67166" lon="4.67896">
        <ele>448</ele>
        <time>2018-10-14T07:28:34Z</time>
      </trkpt>
      <trkpt lat="45.67166" lon="4.67893">
        <ele>448</ele>
        <time>2018-10-14T07:28:35Z</time>
      </trkpt>
      <trkpt lat="45.67165" lon="4.67889">
        <ele>448</ele>
        <time>2018-10-14T07:28:36Z</time>
      </trkpt>
      <trkpt lat="45.67165" lon="4.67886">
        <ele>448</ele>
        <time>2018-10-14T07:28:37Z</time>
      </trkpt>
      <trkpt lat="45.67164" lon="4.67883">
        <ele>449</ele>
        <time>2018-10-14T07:28:38Z</time>
      </trkpt>
      <trkpt lat="45.67163" lon="4.67879">
        <ele>448</ele>
        <time>2018-10-14T07:28:39Z</time>
      </trkpt>
      <trkpt lat="45.67162" lon="4.67875">
        <ele>448</ele>
        <time>2018-10-14T07:28:40Z</time>
      </trkpt>
      <trkpt lat="45.67161" lon="4.67871">
        <ele>448</ele>
        <time>2018-10-14T07:28:41Z</time>
      </trkpt>
      <trkpt lat="45.6716" lon="4.67868">
        <ele>448</ele>
        <time>2018-10-14T07:28:42Z</time>
      </trkpt>
      <trkpt lat="45.6716" lon="4.67864">
        <ele>449</ele>
        <time>2018-10-14T07:28:43Z</time>
      </trkpt>
      <trkpt lat="45.6716" lon="4.6786">
        <ele>449</ele>
        <time>2018-10-14T07:28:44Z</time>
      </trkpt>
      <trkpt lat="45.67159" lon="4.67855">
        <ele>449</ele>
        <time>2018-10-14T07:28:45Z</time>
      </trkpt>
      <trkpt lat="45.67159" lon="4.67851">
        <ele>450</ele>
        <time>2018-10-14T07:28:46Z</time>
      </trkpt>
      <trkpt lat="45.67159" lon="4.67847">
        <ele>450</ele>
        <time>2018-10-14T07:28:47Z</time>
      </trkpt>
      <trkpt lat="45.67158" lon="4.67844">
        <ele>450</ele>
        <time>2018-10-14T07:28:48Z</time>
      </trkpt>
      <trkpt lat="45.67158" lon="4.6784">
        <ele>449</ele>
        <time>2018-10-14T07:28:49Z</time>
      </trkpt>
      <trkpt lat="45.67157" lon="4.67837">
        <ele>449</ele>
        <time>2018-10-14T07:28:50Z</time>
      </trkpt>
      <trkpt lat="45.67156" lon="4.67833">
        <ele>449</ele>
        <time>2018-10-14T07:28:51Z</time>
      </trkpt>
      <trkpt lat="45.67156" lon="4.6783">
        <ele>449</ele>
        <time>2018-10-14T07:28:52Z</time>
      </trkpt>
      <trkpt lat="45.67155" lon="4.67826">
        <ele>450</ele>
        <time>2018-10-14T07:28:53Z</time>
      </trkpt>
      <trkpt lat="45.67155" lon="4.67823">
        <ele>450</ele>
        <time>2018-10-14T07:28:54Z</time>
      </trkpt>
      <trkpt lat="45.67154" lon="4.67819">
        <ele>450</ele>
        <time>2018-10-14T07:28:55Z</time>
      </trkpt>
      <trkpt lat="45.67153" lon="4.67816">
        <ele>450</ele>
        <time>2018-10-14T07:28:56Z</time>
      </trkpt>
      <trkpt lat="45.67153" lon="4.67812">
        <ele>450</ele>
        <time>2018-10-14T07:28:57Z</time>
      </trkpt>
      <trkpt lat="45.67154" lon="4.67808">
        <ele>451</ele>
        <time>2018-10-14T07:28:58Z</time>
      </trkpt>
      <trkpt lat="45.67154" lon="4.67804">
        <ele>451</ele>
        <time>2018-10-14T07:28:59Z</time>
      </trkpt>
      <trkpt lat="45.67153" lon="4.678">
        <ele>451</ele>
        <time>2018-10-14T07:29:00Z</time>
      </trkpt>
      <trkpt lat="45.67153" lon="4.67795">
        <ele>451</ele>
        <time>2018-10-14T07:29:01Z</time>
      </trkpt>
      <trkpt lat="45.67152" lon="4.67791">
        <ele>451</ele>
        <time>2018-10-14T07:29:02Z</time>
      </trkpt>
      <trkpt lat="45.67152" lon="4.67787">
        <ele>451</ele>
        <time>2018-10-14T07:29:03Z</time>
      </trkpt>
      <trkpt lat="45.67152" lon="4.67783">
        <ele>452</ele>
        <time>2018-10-14T07:29:04Z</time>
      </trkpt>
      <trkpt lat="45.67151" lon="4.67779">
        <ele>452</ele>
        <time>2018-10-14T07:29:05Z</time>
      </trkpt>
      <trkpt lat="45.67151" lon="4.67775">
        <ele>452</ele>
        <time>2018-10-14T07:29:06Z</time>
      </trkpt>
      <trkpt lat="45.67151" lon="4.67772">
        <ele>452</ele>
        <time>2018-10-14T07:29:07Z</time>
      </trkpt>
      <trkpt lat="45.67152" lon="4.67768">
        <ele>452</ele>
        <time>2018-10-14T07:29:08Z</time>
      </trkpt>
      <trkpt lat="45.67151" lon="4.67764">
        <ele>453</ele>
        <time>2018-10-14T07:29:09Z</time>
      </trkpt>
      <trkpt lat="45.67152" lon="4.6776">
        <ele>453</ele>
        <time>2018-10-14T07:29:10Z</time>
      </trkpt>
      <trkpt lat="45.67152" lon="4.67757">
        <ele>453</ele>
        <time>2018-10-14T07:29:11Z</time>
      </trkpt>
      <trkpt lat="45.67152" lon="4.67753">
        <ele>453</ele>
        <time>2018-10-14T07:29:12Z</time>
      </trkpt>
      <trkpt lat="45.67152" lon="4.67749">
        <ele>453</ele>
        <time>2018-10-14T07:29:13Z</time>
      </trkpt>
      <trkpt lat="45.67152" lon="4.67745">
        <ele>454</ele>
        <time>2018-10-14T07:29:14Z</time>
      </trkpt>
      <trkpt lat="45.67152" lon="4.67741">
        <ele>454</ele>
        <time>2018-10-14T07:29:15Z</time>
      </trkpt>
      <trkpt lat="45.67152" lon="4.67738">
        <ele>454</ele>
        <time>2018-10-14T07:29:16Z</time>
      </trkpt>
      <trkpt lat="45.67152" lon="4.67734">
        <ele>455</ele>
        <time>2018-10-14T07:29:17Z</time>
      </trkpt>
      <trkpt lat="45.67152" lon="4.6773">
        <ele>455</ele>
        <time>2018-10-14T07:29:18Z</time>
      </trkpt>
      <trkpt lat="45.67152" lon="4.67726">
        <ele>454</ele>
        <time>2018-10-14T07:29:19Z</time>
      </trkpt>
      <trkpt lat="45.67152" lon="4.67722">
        <ele>454</ele>
        <time>2018-10-14T07:29:20Z</time>
      </trkpt>
      <trkpt lat="45.67151" lon="4.67718">
        <ele>455</ele>
        <time>2018-10-14T07:29:21Z</time>
      </trkpt>
      <trkpt lat="45.67151" lon="4.67714">
        <ele>455</ele>
        <time>2018-10-14T07:29:22Z</time>
      </trkpt>
      <trkpt lat="45.67151" lon="4.67711">
        <ele>455</ele>
        <time>2018-10-14T07:29:23Z</time>
      </trkpt>
      <trkpt lat="45.6715" lon="4.67708">
        <ele>455</ele>
        <time>2018-10-14T07:29:24Z</time>
      </trkpt>
      <trkpt lat="45.67149" lon="4.67706">
        <ele>456</ele>
        <time>2018-10-14T07:29:25Z</time>
      </trkpt>
      <trkpt lat="45.67149" lon="4.67704">
        <ele>456</ele>
        <time>2018-10-14T07:29:26Z</time>
      </trkpt>
      <trkpt lat="45.67149" lon="4.67703">
        <ele>456</ele>
        <time>2018-10-14T07:29:27Z</time>
      </trkpt>
      <trkpt lat="45.67148" lon="4.67701">
        <ele>456</ele>
        <time>2018-10-14T07:29:28Z</time>
      </trkpt>
      <trkpt lat="45.67147" lon="4.67698">
        <ele>456</ele>
        <time>2018-10-14T07:29:29Z</time>
      </trkpt>
      <trkpt lat="45.67146" lon="4.67694">
        <ele>456</ele>
        <time>2018-10-14T07:29:30Z</time>
      </trkpt>
      <trkpt lat="45.67145" lon="4.67692">
        <ele>457</ele>
        <time>2018-10-14T07:29:31Z</time>
      </trkpt>
      <trkpt lat="45.67144" lon="4.67689">
        <ele>458</ele>
        <time>2018-10-14T07:29:32Z</time>
      </trkpt>
      <trkpt lat="45.67142" lon="4.67684">
        <ele>458</ele>
        <time>2018-10-14T07:29:33Z</time>
      </trkpt>
      <trkpt lat="45.67141" lon="4.67681">
        <ele>459</ele>
        <time>2018-10-14T07:29:34Z</time>
      </trkpt>
      <trkpt lat="45.67139" lon="4.67677">
        <ele>459</ele>
        <time>2018-10-14T07:29:35Z</time>
      </trkpt>
      <trkpt lat="45.67138" lon="4.67673">
        <ele>459</ele>
        <time>2018-10-14T07:29:36Z</time>
      </trkpt>
      <trkpt lat="45.67137" lon="4.67669">
        <ele>459</ele>
        <time>2018-10-14T07:29:37Z</time>
      </trkpt>
      <trkpt lat="45.67136" lon="4.67665">
        <ele>459</ele>
        <time>2018-10-14T07:29:38Z</time>
      </trkpt>
      <trkpt lat="45.67135" lon="4.67662">
        <ele>459</ele>
        <time>2018-10-14T07:29:39Z</time>
      </trkpt>
      <trkpt lat="45.67133" lon="4.67659">
        <ele>459</ele>
        <time>2018-10-14T07:29:40Z</time>
      </trkpt>
      <trkpt lat="45.67131" lon="4.67655">
        <ele>459</ele>
        <time>2018-10-14T07:29:41Z</time>
      </trkpt>
      <trkpt lat="45.6713" lon="4.67651">
        <ele>459</ele>
        <time>2018-10-14T07:29:42Z</time>
      </trkpt>
      <trkpt lat="45.67128" lon="4.67648">
        <ele>460</ele>
        <time>2018-10-14T07:29:43Z</time>
      </trkpt>
      <trkpt lat="45.67126" lon="4.67643">
        <ele>460</ele>
        <time>2018-10-14T07:29:44Z</time>
      </trkpt>
      <trkpt lat="45.67125" lon="4.67636">
        <ele>461</ele>
        <time>2018-10-14T07:29:45Z</time>
      </trkpt>
      <trkpt lat="45.67124" lon="4.67631">
        <ele>461</ele>
        <time>2018-10-14T07:29:46Z</time>
      </trkpt>
      <trkpt lat="45.67125" lon="4.67626">
        <ele>461</ele>
        <time>2018-10-14T07:29:47Z</time>
      </trkpt>
      <trkpt lat="45.67125" lon="4.67621">
        <ele>461</ele>
        <time>2018-10-14T07:29:48Z</time>
      </trkpt>
      <trkpt lat="45.67126" lon="4.67616">
        <ele>461</ele>
        <time>2018-10-14T07:29:49Z</time>
      </trkpt>
      <trkpt lat="45.67127" lon="4.67611">
        <ele>461</ele>
        <time>2018-10-14T07:29:50Z</time>
      </trkpt>
      <trkpt lat="45.67127" lon="4.67605">
        <ele>461</ele>
        <time>2018-10-14T07:29:51Z</time>
      </trkpt>
      <trkpt lat="45.67127" lon="4.67599">
        <ele>460</ele>
        <time>2018-10-14T07:29:52Z</time>
      </trkpt>
      <trkpt lat="45.67128" lon="4.67594">
        <ele>461</ele>
        <time>2018-10-14T07:29:53Z</time>
      </trkpt>
      <trkpt lat="45.67128" lon="4.67591">
        <ele>460</ele>
        <time>2018-10-14T07:29:54Z</time>
      </trkpt>
      <trkpt lat="45.67128" lon="4.67588">
        <ele>460</ele>
        <time>2018-10-14T07:29:55Z</time>
      </trkpt>
      <trkpt lat="45.67128" lon="4.67586">
        <ele>459</ele>
        <time>2018-10-14T07:29:56Z</time>
      </trkpt>
      <trkpt lat="45.67128" lon="4.67581">
        <ele>459</ele>
        <time>2018-10-14T07:29:57Z</time>
      </trkpt>
      <trkpt lat="45.67129" lon="4.67564">
        <ele>459</ele>
        <time>2018-10-14T07:29:58Z</time>
      </trkpt>
      <trkpt lat="45.67128" lon="4.67557">
        <ele>459</ele>
        <time>2018-10-14T07:29:59Z</time>
      </trkpt>
      <trkpt lat="45.67127" lon="4.67549">
        <ele>458</ele>
        <time>2018-10-14T07:30:00Z</time>
      </trkpt>
      <trkpt lat="45.67125" lon="4.67542">
        <ele>457</ele>
        <time>2018-10-14T07:30:01Z</time>
      </trkpt>
      <trkpt lat="45.67123" lon="4.67536">
        <ele>457</ele>
        <time>2018-10-14T07:30:02Z</time>
      </trkpt>
      <trkpt lat="45.67122" lon="4.67529">
        <ele>457</ele>
        <time>2018-10-14T07:30:03Z</time>
      </trkpt>
      <trkpt lat="45.67119" lon="4.67523">
        <ele>457</ele>
        <time>2018-10-14T07:30:04Z</time>
      </trkpt>
      <trkpt lat="45.67117" lon="4.67517">
        <ele>457</ele>
        <time>2018-10-14T07:30:05Z</time>
      </trkpt>
      <trkpt lat="45.67114" lon="4.67512">
        <ele>458</ele>
        <time>2018-10-14T07:30:06Z</time>
      </trkpt>
      <trkpt lat="45.67112" lon="4.67507">
        <ele>459</ele>
        <time>2018-10-14T07:30:07Z</time>
      </trkpt>
      <trkpt lat="45.6711" lon="4.67501">
        <ele>460</ele>
        <time>2018-10-14T07:30:08Z</time>
      </trkpt>
      <trkpt lat="45.67109" lon="4.67495">
        <ele>459</ele>
        <time>2018-10-14T07:30:09Z</time>
      </trkpt>
      <trkpt lat="45.67108" lon="4.67489">
        <ele>459</ele>
        <time>2018-10-14T07:30:10Z</time>
      </trkpt>
      <trkpt lat="45.67106" lon="4.67484">
        <ele>459</ele>
        <time>2018-10-14T07:30:11Z</time>
      </trkpt>
      <trkpt lat="45.67104" lon="4.67479">
        <ele>458</ele>
        <time>2018-10-14T07:30:12Z</time>
      </trkpt>
      <trkpt lat="45.67102" lon="4.67474">
        <ele>458</ele>
        <time>2018-10-14T07:30:13Z</time>
      </trkpt>
      <trkpt lat="45.67101" lon="4.67469">
        <ele>457</ele>
        <time>2018-10-14T07:30:14Z</time>
      </trkpt>
      <trkpt lat="45.671" lon="4.67465">
        <ele>458</ele>
        <time>2018-10-14T07:30:15Z</time>
      </trkpt>
      <trkpt lat="45.67098" lon="4.6746">
        <ele>458</ele>
        <time>2018-10-14T07:30:16Z</time>
      </trkpt>
      <trkpt lat="45.67096" lon="4.67455">
        <ele>459</ele>
        <time>2018-10-14T07:30:17Z</time>
      </trkpt>
      <trkpt lat="45.67094" lon="4.67451">
        <ele>459</ele>
        <time>2018-10-14T07:30:18Z</time>
      </trkpt>
      <trkpt lat="45.67092" lon="4.67447">
        <ele>460</ele>
        <time>2018-10-14T07:30:19Z</time>
      </trkpt>
      <trkpt lat="45.67091" lon="4.67443">
        <ele>460</ele>
        <time>2018-10-14T07:30:20Z</time>
      </trkpt>
      <trkpt lat="45.6709" lon="4.67439">
        <ele>460</ele>
        <time>2018-10-14T07:30:21Z</time>
      </trkpt>
      <trkpt lat="45.67088" lon="4.67435">
        <ele>460</ele>
        <time>2018-10-14T07:30:22Z</time>
      </trkpt>
      <trkpt lat="45.67087" lon="4.67431">
        <ele>460</ele>
        <time>2018-10-14T07:30:23Z</time>
      </trkpt>
      <trkpt lat="45.67086" lon="4.67428">
        <ele>460</ele>
        <time>2018-10-14T07:30:24Z</time>
      </trkpt>
      <trkpt lat="45.67085" lon="4.67424">
        <ele>460</ele>
        <time>2018-10-14T07:30:25Z</time>
      </trkpt>
      <trkpt lat="45.67083" lon="4.67422">
        <ele>460</ele>
        <time>2018-10-14T07:30:26Z</time>
      </trkpt>
      <trkpt lat="45.67083" lon="4.67421">
        <ele>460</ele>
        <time>2018-10-14T07:30:27Z</time>
      </trkpt>
      <trkpt lat="45.67082" lon="4.67419">
        <ele>460</ele>
        <time>2018-10-14T07:30:28Z</time>
      </trkpt>
      <trkpt lat="45.6708" lon="4.67415">
        <ele>460</ele>
        <time>2018-10-14T07:30:29Z</time>
      </trkpt>
      <trkpt lat="45.67077" lon="4.67407">
        <ele>461</ele>
        <time>2018-10-14T07:30:30Z</time>
      </trkpt>
      <trkpt lat="45.67075" lon="4.67403">
        <ele>461</ele>
        <time>2018-10-14T07:30:31Z</time>
      </trkpt>
      <trkpt lat="45.67073" lon="4.674">
        <ele>461</ele>
        <time>2018-10-14T07:30:32Z</time>
      </trkpt>
      <trkpt lat="45.67071" lon="4.67397">
        <ele>461</ele>
        <time>2018-10-14T07:30:33Z</time>
      </trkpt>
      <trkpt lat="45.6707" lon="4.67393">
        <ele>461</ele>
        <time>2018-10-14T07:30:34Z</time>
      </trkpt>
      <trkpt lat="45.67067" lon="4.6739">
        <ele>461</ele>
        <time>2018-10-14T07:30:35Z</time>
      </trkpt>
      <trkpt lat="45.67064" lon="4.67387">
        <ele>461</ele>
        <time>2018-10-14T07:30:36Z</time>
      </trkpt>
      <trkpt lat="45.67062" lon="4.67384">
        <ele>461</ele>
        <time>2018-10-14T07:30:37Z</time>
      </trkpt>
      <trkpt lat="45.6706" lon="4.6738">
        <ele>461</ele>
        <time>2018-10-14T07:30:38Z</time>
      </trkpt>
      <trkpt lat="45.67057" lon="4.67378">
        <ele>460</ele>
        <time>2018-10-14T07:30:39Z</time>
      </trkpt>
      <trkpt lat="45.67056" lon="4.67376">
        <ele>461</ele>
        <time>2018-10-14T07:30:40Z</time>
      </trkpt>
      <trkpt lat="45.67055" lon="4.67373">
        <ele>461</ele>
        <time>2018-10-14T07:30:41Z</time>
      </trkpt>
      <trkpt lat="45.67052" lon="4.67365">
        <ele>460</ele>
        <time>2018-10-14T07:30:42Z</time>
      </trkpt>
      <trkpt lat="45.6705" lon="4.67362">
        <ele>461</ele>
        <time>2018-10-14T07:30:43Z</time>
      </trkpt>
      <trkpt lat="45.67049" lon="4.67358">
        <ele>461</ele>
        <time>2018-10-14T07:30:44Z</time>
      </trkpt>
      <trkpt lat="45.67048" lon="4.67354">
        <ele>461</ele>
        <time>2018-10-14T07:30:45Z</time>
      </trkpt>
      <trkpt lat="45.67046" lon="4.67349">
        <ele>461</ele>
        <time>2018-10-14T07:30:46Z</time>
      </trkpt>
      <trkpt lat="45.67045" lon="4.67344">
        <ele>461</ele>
        <time>2018-10-14T07:30:47Z</time>
      </trkpt>
      <trkpt lat="45.67044" lon="4.6734">
        <ele>461</ele>
        <time>2018-10-14T07:30:48Z</time>
      </trkpt>
      <trkpt lat="45.67042" lon="4.67336">
        <ele>461</ele>
        <time>2018-10-14T07:30:49Z</time>
      </trkpt>
      <trkpt lat="45.67041" lon="4.67331">
        <ele>461</ele>
        <time>2018-10-14T07:30:50Z</time>
      </trkpt>
      <trkpt lat="45.67039" lon="4.67326">
        <ele>461</ele>
        <time>2018-10-14T07:30:51Z</time>
      </trkpt>
      <trkpt lat="45.67037" lon="4.67321">
        <ele>461</ele>
        <time>2018-10-14T07:30:52Z</time>
      </trkpt>
      <trkpt lat="45.67034" lon="4.67319">
        <ele>460</ele>
        <time>2018-10-14T07:30:53Z</time>
      </trkpt>
      <trkpt lat="45.67032" lon="4.67315">
        <ele>461</ele>
        <time>2018-10-14T07:30:54Z</time>
      </trkpt>
      <trkpt lat="45.67031" lon="4.67311">
        <ele>462</ele>
        <time>2018-10-14T07:30:55Z</time>
      </trkpt>
      <trkpt lat="45.6703" lon="4.67306">
        <ele>462</ele>
        <time>2018-10-14T07:30:56Z</time>
      </trkpt>
      <trkpt lat="45.67029" lon="4.67302">
        <ele>463</ele>
        <time>2018-10-14T07:30:57Z</time>
      </trkpt>
      <trkpt lat="45.67029" lon="4.67296">
        <ele>464</ele>
        <time>2018-10-14T07:30:58Z</time>
      </trkpt>
      <trkpt lat="45.67028" lon="4.67292">
        <ele>464</ele>
        <time>2018-10-14T07:30:59Z</time>
      </trkpt>
      <trkpt lat="45.67026" lon="4.67288">
        <ele>464</ele>
        <time>2018-10-14T07:31:00Z</time>
      </trkpt>
      <trkpt lat="45.67025" lon="4.67283">
        <ele>464</ele>
        <time>2018-10-14T07:31:01Z</time>
      </trkpt>
      <trkpt lat="45.67022" lon="4.67279">
        <ele>464</ele>
        <time>2018-10-14T07:31:02Z</time>
      </trkpt>
      <trkpt lat="45.6702" lon="4.67274">
        <ele>464</ele>
        <time>2018-10-14T07:31:03Z</time>
      </trkpt>
      <trkpt lat="45.67019" lon="4.6727">
        <ele>463</ele>
        <time>2018-10-14T07:31:04Z</time>
      </trkpt>
      <trkpt lat="45.67016" lon="4.67266">
        <ele>463</ele>
        <time>2018-10-14T07:31:05Z</time>
      </trkpt>
      <trkpt lat="45.67014" lon="4.67262">
        <ele>463</ele>
        <time>2018-10-14T07:31:06Z</time>
      </trkpt>
      <trkpt lat="45.67011" lon="4.67258">
        <ele>462</ele>
        <time>2018-10-14T07:31:07Z</time>
      </trkpt>
      <trkpt lat="45.67008" lon="4.67254">
        <ele>461</ele>
        <time>2018-10-14T07:31:08Z</time>
      </trkpt>
      <trkpt lat="45.67005" lon="4.67249">
        <ele>460</ele>
        <time>2018-10-14T07:31:09Z</time>
      </trkpt>
      <trkpt lat="45.67002" lon="4.67245">
        <ele>460</ele>
        <time>2018-10-14T07:31:10Z</time>
      </trkpt>
      <trkpt lat="45.66999" lon="4.67239">
        <ele>460</ele>
        <time>2018-10-14T07:31:11Z</time>
      </trkpt>
      <trkpt lat="45.66996" lon="4.67234">
        <ele>459</ele>
        <time>2018-10-14T07:31:12Z</time>
      </trkpt>
      <trkpt lat="45.66994" lon="4.67228">
        <ele>459</ele>
        <time>2018-10-14T07:31:13Z</time>
      </trkpt>
      <trkpt lat="45.66991" lon="4.67222">
        <ele>458</ele>
        <time>2018-10-14T07:31:14Z</time>
      </trkpt>
      <trkpt lat="45.6699" lon="4.67214">
        <ele>457</ele>
        <time>2018-10-14T07:31:15Z</time>
      </trkpt>
      <trkpt lat="45.66988" lon="4.67206">
        <ele>457</ele>
        <time>2018-10-14T07:31:16Z</time>
      </trkpt>
      <trkpt lat="45.66987" lon="4.67198">
        <ele>457</ele>
        <time>2018-10-14T07:31:17Z</time>
      </trkpt>
      <trkpt lat="45.66985" lon="4.67191">
        <ele>457</ele>
        <time>2018-10-14T07:31:18Z</time>
      </trkpt>
      <trkpt lat="45.66983" lon="4.67184">
        <ele>458</ele>
        <time>2018-10-14T07:31:19Z</time>
      </trkpt>
      <trkpt lat="45.66982" lon="4.67177">
        <ele>458</ele>
        <time>2018-10-14T07:31:20Z</time>
      </trkpt>
      <trkpt lat="45.6698" lon="4.67171">
        <ele>458</ele>
        <time>2018-10-14T07:31:21Z</time>
      </trkpt>
      <trkpt lat="45.66978" lon="4.67166">
        <ele>459</ele>
        <time>2018-10-14T07:31:22Z</time>
      </trkpt>
      <trkpt lat="45.66977" lon="4.67161">
        <ele>459</ele>
        <time>2018-10-14T07:31:23Z</time>
      </trkpt>
      <trkpt lat="45.66975" lon="4.67156">
        <ele>459</ele>
        <time>2018-10-14T07:31:24Z</time>
      </trkpt>
      <trkpt lat="45.66974" lon="4.6715">
        <ele>459</ele>
        <time>2018-10-14T07:31:25Z</time>
      </trkpt>
      <trkpt lat="45.66973" lon="4.67146">
        <ele>460</ele>
        <time>2018-10-14T07:31:26Z</time>
      </trkpt>
      <trkpt lat="45.66971" lon="4.67141">
        <ele>460</ele>
        <time>2018-10-14T07:31:27Z</time>
      </trkpt>
      <trkpt lat="45.6697" lon="4.67138">
        <ele>460</ele>
        <time>2018-10-14T07:31:28Z</time>
      </trkpt>
      <trkpt lat="45.66969" lon="4.67136">
        <ele>460</ele>
        <time>2018-10-14T07:31:29Z</time>
      </trkpt>
      <trkpt lat="45.66967" lon="4.67131">
        <ele>460</ele>
        <time>2018-10-14T07:31:30Z</time>
      </trkpt>
      <trkpt lat="45.66961" lon="4.67123">
        <ele>459</ele>
        <time>2018-10-14T07:31:31Z</time>
      </trkpt>
      <trkpt lat="45.66958" lon="4.67122">
        <ele>460</ele>
        <time>2018-10-14T07:31:32Z</time>
      </trkpt>
      <trkpt lat="45.66956" lon="4.67122">
        <ele>459</ele>
        <time>2018-10-14T07:31:33Z</time>
      </trkpt>
      <trkpt lat="45.66953" lon="4.67122">
        <ele>459</ele>
        <time>2018-10-14T07:31:34Z</time>
      </trkpt>
      <trkpt lat="45.66951" lon="4.67123">
        <ele>460</ele>
        <time>2018-10-14T07:31:35Z</time>
      </trkpt>
      <trkpt lat="45.66949" lon="4.67124">
        <ele>460</ele>
        <time>2018-10-14T07:31:36Z</time>
      </trkpt>
      <trkpt lat="45.66947" lon="4.67123">
        <ele>460</ele>
        <time>2018-10-14T07:31:37Z</time>
      </trkpt>
      <trkpt lat="45.66945" lon="4.67122">
        <ele>460</ele>
        <time>2018-10-14T07:31:38Z</time>
      </trkpt>
      <trkpt lat="45.66944" lon="4.67122">
        <ele>459</ele>
        <time>2018-10-14T07:31:39Z</time>
      </trkpt>
      <trkpt lat="45.66943" lon="4.6712">
        <ele>460</ele>
        <time>2018-10-14T07:31:40Z</time>
      </trkpt>
      <trkpt lat="45.66942" lon="4.67117">
        <ele>460</ele>
        <time>2018-10-14T07:31:41Z</time>
      </trkpt>
      <trkpt lat="45.66941" lon="4.67115">
        <ele>460</ele>
        <time>2018-10-14T07:31:42Z</time>
      </trkpt>
      <trkpt lat="45.6694" lon="4.67113">
        <ele>461</ele>
        <time>2018-10-14T07:31:43Z</time>
      </trkpt>
      <trkpt lat="45.66938" lon="4.6711">
        <ele>462</ele>
        <time>2018-10-14T07:31:45Z</time>
      </trkpt>
      <trkpt lat="45.66937" lon="4.67108">
        <ele>463</ele>
        <time>2018-10-14T07:31:46Z</time>
      </trkpt>
      <trkpt lat="45.66936" lon="4.67106">
        <ele>463</ele>
        <time>2018-10-14T07:31:47Z</time>
      </trkpt>
      <trkpt lat="45.66935" lon="4.67104">
        <ele>464</ele>
        <time>2018-10-14T07:31:48Z</time>
      </trkpt>
      <trkpt lat="45.66935" lon="4.67101">
        <ele>464</ele>
        <time>2018-10-14T07:31:49Z</time>
      </trkpt>
      <trkpt lat="45.66934" lon="4.67098">
        <ele>464</ele>
        <time>2018-10-14T07:31:50Z</time>
      </trkpt>
      <trkpt lat="45.66934" lon="4.67096">
        <ele>464</ele>
        <time>2018-10-14T07:31:51Z</time>
      </trkpt>
      <trkpt lat="45.66933" lon="4.67091">
        <ele>464</ele>
        <time>2018-10-14T07:31:52Z</time>
      </trkpt>
      <trkpt lat="45.66933" lon="4.67088">
        <ele>464</ele>
        <time>2018-10-14T07:31:53Z</time>
      </trkpt>
      <trkpt lat="45.66933" lon="4.67085">
        <ele>465</ele>
        <time>2018-10-14T07:31:54Z</time>
      </trkpt>
      <trkpt lat="45.66933" lon="4.67081">
        <ele>465</ele>
        <time>2018-10-14T07:31:55Z</time>
      </trkpt>
      <trkpt lat="45.66932" lon="4.67079">
        <ele>465</ele>
        <time>2018-10-14T07:31:56Z</time>
      </trkpt>
      <trkpt lat="45.66931" lon="4.67076">
        <ele>465</ele>
        <time>2018-10-14T07:31:57Z</time>
      </trkpt>
      <trkpt lat="45.66929" lon="4.67073">
        <ele>465</ele>
        <time>2018-10-14T07:31:58Z</time>
      </trkpt>
      <trkpt lat="45.66928" lon="4.67071">
        <ele>466</ele>
        <time>2018-10-14T07:31:59Z</time>
      </trkpt>
      <trkpt lat="45.66927" lon="4.67069">
        <ele>466</ele>
        <time>2018-10-14T07:32:00Z</time>
      </trkpt>
      <trkpt lat="45.66925" lon="4.67066">
        <ele>466</ele>
        <time>2018-10-14T07:32:01Z</time>
      </trkpt>
      <trkpt lat="45.66924" lon="4.67063">
        <ele>466</ele>
        <time>2018-10-14T07:32:02Z</time>
      </trkpt>
      <trkpt lat="45.66922" lon="4.6706">
        <ele>466</ele>
        <time>2018-10-14T07:32:03Z</time>
      </trkpt>
      <trkpt lat="45.66921" lon="4.67057">
        <ele>466</ele>
        <time>2018-10-14T07:32:04Z</time>
      </trkpt>
      <trkpt lat="45.66919" lon="4.67054">
        <ele>466</ele>
        <time>2018-10-14T07:32:05Z</time>
      </trkpt>
      <trkpt lat="45.66917" lon="4.67051">
        <ele>466</ele>
        <time>2018-10-14T07:32:06Z</time>
      </trkpt>
      <trkpt lat="45.66916" lon="4.67048">
        <ele>466</ele>
        <time>2018-10-14T07:32:07Z</time>
      </trkpt>
      <trkpt lat="45.66914" lon="4.67045">
        <ele>466</ele>
        <time>2018-10-14T07:32:08Z</time>
      </trkpt>
      <trkpt lat="45.66913" lon="4.67043">
        <ele>466</ele>
        <time>2018-10-14T07:32:09Z</time>
      </trkpt>
      <trkpt lat="45.66913" lon="4.67041">
        <ele>467</ele>
        <time>2018-10-14T07:32:10Z</time>
      </trkpt>
      <trkpt lat="45.66909" lon="4.67033">
        <ele>468</ele>
        <time>2018-10-14T07:32:11Z</time>
      </trkpt>
      <trkpt lat="45.66908" lon="4.6703">
        <ele>467</ele>
        <time>2018-10-14T07:32:12Z</time>
      </trkpt>
      <trkpt lat="45.66906" lon="4.67026">
        <ele>468</ele>
        <time>2018-10-14T07:32:13Z</time>
      </trkpt>
      <trkpt lat="45.66905" lon="4.67022">
        <ele>468</ele>
        <time>2018-10-14T07:32:14Z</time>
      </trkpt>
      <trkpt lat="45.66903" lon="4.67019">
        <ele>468</ele>
        <time>2018-10-14T07:32:15Z</time>
      </trkpt>
      <trkpt lat="45.66901" lon="4.67016">
        <ele>469</ele>
        <time>2018-10-14T07:32:16Z</time>
      </trkpt>
      <trkpt lat="45.669" lon="4.67012">
        <ele>468</ele>
        <time>2018-10-14T07:32:17Z</time>
      </trkpt>
      <trkpt lat="45.66899" lon="4.67009">
        <ele>468</ele>
        <time>2018-10-14T07:32:18Z</time>
      </trkpt>
      <trkpt lat="45.66898" lon="4.67006">
        <ele>468</ele>
        <time>2018-10-14T07:32:19Z</time>
      </trkpt>
      <trkpt lat="45.66896" lon="4.67004">
        <ele>469</ele>
        <time>2018-10-14T07:32:20Z</time>
      </trkpt>
      <trkpt lat="45.66895" lon="4.67002">
        <ele>469</ele>
        <time>2018-10-14T07:32:21Z</time>
      </trkpt>
      <trkpt lat="45.66893" lon="4.66999">
        <ele>469</ele>
        <time>2018-10-14T07:32:22Z</time>
      </trkpt>
      <trkpt lat="45.66892" lon="4.66997">
        <ele>469</ele>
        <time>2018-10-14T07:32:23Z</time>
      </trkpt>
      <trkpt lat="45.66891" lon="4.66994">
        <ele>468</ele>
        <time>2018-10-14T07:32:24Z</time>
      </trkpt>
      <trkpt lat="45.6689" lon="4.66991">
        <ele>468</ele>
        <time>2018-10-14T07:32:25Z</time>
      </trkpt>
      <trkpt lat="45.66888" lon="4.66989">
        <ele>468</ele>
        <time>2018-10-14T07:32:26Z</time>
      </trkpt>
      <trkpt lat="45.66886" lon="4.66987">
        <ele>468</ele>
        <time>2018-10-14T07:32:27Z</time>
      </trkpt>
      <trkpt lat="45.66885" lon="4.66984">
        <ele>467</ele>
        <time>2018-10-14T07:32:28Z</time>
      </trkpt>
      <trkpt lat="45.66884" lon="4.6698">
        <ele>467</ele>
        <time>2018-10-14T07:32:29Z</time>
      </trkpt>
      <trkpt lat="45.66883" lon="4.66977">
        <ele>468</ele>
        <time>2018-10-14T07:32:30Z</time>
      </trkpt>
      <trkpt lat="45.66881" lon="4.66974">
        <ele>468</ele>
        <time>2018-10-14T07:32:31Z</time>
      </trkpt>
      <trkpt lat="45.66879" lon="4.6697">
        <ele>469</ele>
        <time>2018-10-14T07:32:32Z</time>
      </trkpt>
      <trkpt lat="45.66877" lon="4.66966">
        <ele>469</ele>
        <time>2018-10-14T07:32:33Z</time>
      </trkpt>
      <trkpt lat="45.66876" lon="4.66962">
        <ele>469</ele>
        <time>2018-10-14T07:32:34Z</time>
      </trkpt>
      <trkpt lat="45.66875" lon="4.6696">
        <ele>469</ele>
        <time>2018-10-14T07:32:35Z</time>
      </trkpt>
      <trkpt lat="45.66874" lon="4.66957">
        <ele>469</ele>
        <time>2018-10-14T07:32:36Z</time>
      </trkpt>
      <trkpt lat="45.66872" lon="4.66954">
        <ele>469</ele>
        <time>2018-10-14T07:32:37Z</time>
      </trkpt>
      <trkpt lat="45.66871" lon="4.66952">
        <ele>469</ele>
        <time>2018-10-14T07:32:38Z</time>
      </trkpt>
      <trkpt lat="45.66869" lon="4.6695">
        <ele>469</ele>
        <time>2018-10-14T07:32:39Z</time>
      </trkpt>
      <trkpt lat="45.66867" lon="4.66947">
        <ele>469</ele>
        <time>2018-10-14T07:32:40Z</time>
      </trkpt>
      <trkpt lat="45.66866" lon="4.66943">
        <ele>469</ele>
        <time>2018-10-14T07:32:41Z</time>
      </trkpt>
      <trkpt lat="45.66863" lon="4.66939">
        <ele>469</ele>
        <time>2018-10-14T07:32:42Z</time>
      </trkpt>
      <trkpt lat="45.66861" lon="4.66935">
        <ele>469</ele>
        <time>2018-10-14T07:32:43Z</time>
      </trkpt>
      <trkpt lat="45.66859" lon="4.66932">
        <ele>470</ele>
        <time>2018-10-14T07:32:44Z</time>
      </trkpt>
      <trkpt lat="45.66858" lon="4.66929">
        <ele>470</ele>
        <time>2018-10-14T07:32:45Z</time>
      </trkpt>
      <trkpt lat="45.66856" lon="4.66927">
        <ele>470</ele>
        <time>2018-10-14T07:32:46Z</time>
      </trkpt>
      <trkpt lat="45.66853" lon="4.66923">
        <ele>469</ele>
        <time>2018-10-14T07:32:47Z</time>
      </trkpt>
      <trkpt lat="45.66851" lon="4.66919">
        <ele>469</ele>
        <time>2018-10-14T07:32:48Z</time>
      </trkpt>
      <trkpt lat="45.66848" lon="4.66916">
        <ele>469</ele>
        <time>2018-10-14T07:32:49Z</time>
      </trkpt>
      <trkpt lat="45.66846" lon="4.66913">
        <ele>469</ele>
        <time>2018-10-14T07:32:50Z</time>
      </trkpt>
      <trkpt lat="45.66845" lon="4.66909">
        <ele>469</ele>
        <time>2018-10-14T07:32:51Z</time>
      </trkpt>
      <trkpt lat="45.66844" lon="4.66905">
        <ele>469</ele>
        <time>2018-10-14T07:32:52Z</time>
      </trkpt>
      <trkpt lat="45.66843" lon="4.66901">
        <ele>469</ele>
        <time>2018-10-14T07:32:53Z</time>
      </trkpt>
      <trkpt lat="45.66842" lon="4.66897">
        <ele>469</ele>
        <time>2018-10-14T07:32:54Z</time>
      </trkpt>
      <trkpt lat="45.66841" lon="4.66893">
        <ele>470</ele>
        <time>2018-10-14T07:32:55Z</time>
      </trkpt>
      <trkpt lat="45.6684" lon="4.6689">
        <ele>469</ele>
        <time>2018-10-14T07:32:56Z</time>
      </trkpt>
      <trkpt lat="45.66838" lon="4.66886">
        <ele>469</ele>
        <time>2018-10-14T07:32:57Z</time>
      </trkpt>
      <trkpt lat="45.66837" lon="4.66883">
        <ele>468</ele>
        <time>2018-10-14T07:32:58Z</time>
      </trkpt>
      <trkpt lat="45.66835" lon="4.6688">
        <ele>469</ele>
        <time>2018-10-14T07:32:59Z</time>
      </trkpt>
      <trkpt lat="45.66833" lon="4.66876">
        <ele>469</ele>
        <time>2018-10-14T07:33:00Z</time>
      </trkpt>
      <trkpt lat="45.66831" lon="4.66874">
        <ele>469</ele>
        <time>2018-10-14T07:33:01Z</time>
      </trkpt>
      <trkpt lat="45.6683" lon="4.6687">
        <ele>469</ele>
        <time>2018-10-14T07:33:02Z</time>
      </trkpt>
      <trkpt lat="45.66828" lon="4.66867">
        <ele>469</ele>
        <time>2018-10-14T07:33:03Z</time>
      </trkpt>
      <trkpt lat="45.66826" lon="4.66865">
        <ele>470</ele>
        <time>2018-10-14T07:33:04Z</time>
      </trkpt>
      <trkpt lat="45.66824" lon="4.66863">
        <ele>470</ele>
        <time>2018-10-14T07:33:05Z</time>
      </trkpt>
      <trkpt lat="45.66822" lon="4.6686">
        <ele>470</ele>
        <time>2018-10-14T07:33:06Z</time>
      </trkpt>
      <trkpt lat="45.6682" lon="4.66857">
        <ele>470</ele>
        <time>2018-10-14T07:33:07Z</time>
      </trkpt>
      <trkpt lat="45.66818" lon="4.66855">
        <ele>470</ele>
        <time>2018-10-14T07:33:08Z</time>
      </trkpt>
      <trkpt lat="45.66816" lon="4.66852">
        <ele>469</ele>
        <time>2018-10-14T07:33:09Z</time>
      </trkpt>
      <trkpt lat="45.66814" lon="4.66849">
        <ele>469</ele>
        <time>2018-10-14T07:33:10Z</time>
      </trkpt>
      <trkpt lat="45.66812" lon="4.66848">
        <ele>470</ele>
        <time>2018-10-14T07:33:11Z</time>
      </trkpt>
      <trkpt lat="45.66811" lon="4.66847">
        <ele>471</ele>
        <time>2018-10-14T07:33:12Z</time>
      </trkpt>
      <trkpt lat="45.66809" lon="4.66846">
        <ele>471</ele>
        <time>2018-10-14T07:33:13Z</time>
      </trkpt>
      <trkpt lat="45.66808" lon="4.66844">
        <ele>470</ele>
        <time>2018-10-14T07:33:14Z</time>
      </trkpt>
      <trkpt lat="45.66806" lon="4.66841">
        <ele>470</ele>
        <time>2018-10-14T07:33:15Z</time>
      </trkpt>
      <trkpt lat="45.66805" lon="4.6684">
        <ele>470</ele>
        <time>2018-10-14T07:33:16Z</time>
      </trkpt>
      <trkpt lat="45.66804" lon="4.66837">
        <ele>470</ele>
        <time>2018-10-14T07:33:17Z</time>
      </trkpt>
      <trkpt lat="45.66802" lon="4.66835">
        <ele>470</ele>
        <time>2018-10-14T07:33:18Z</time>
      </trkpt>
      <trkpt lat="45.668" lon="4.66832">
        <ele>471</ele>
        <time>2018-10-14T07:33:19Z</time>
      </trkpt>
      <trkpt lat="45.66798" lon="4.6683">
        <ele>471</ele>
        <time>2018-10-14T07:33:20Z</time>
      </trkpt>
      <trkpt lat="45.66796" lon="4.66827">
        <ele>471</ele>
        <time>2018-10-14T07:33:21Z</time>
      </trkpt>
      <trkpt lat="45.66793" lon="4.66825">
        <ele>471</ele>
        <time>2018-10-14T07:33:22Z</time>
      </trkpt>
      <trkpt lat="45.66791" lon="4.66823">
        <ele>471</ele>
        <time>2018-10-14T07:33:23Z</time>
      </trkpt>
      <trkpt lat="45.66789" lon="4.66821">
        <ele>471</ele>
        <time>2018-10-14T07:33:24Z</time>
      </trkpt>
      <trkpt lat="45.66787" lon="4.66818">
        <ele>471</ele>
        <time>2018-10-14T07:33:25Z</time>
      </trkpt>
      <trkpt lat="45.66785" lon="4.66815">
        <ele>471</ele>
        <time>2018-10-14T07:33:26Z</time>
      </trkpt>
      <trkpt lat="45.66784" lon="4.66811">
        <ele>471</ele>
        <time>2018-10-14T07:33:27Z</time>
      </trkpt>
      <trkpt lat="45.66782" lon="4.66808">
        <ele>471</ele>
        <time>2018-10-14T07:33:28Z</time>
      </trkpt>
      <trkpt lat="45.66781" lon="4.66806">
        <ele>472</ele>
        <time>2018-10-14T07:33:29Z</time>
      </trkpt>
      <trkpt lat="45.6678" lon="4.66803">
        <ele>472</ele>
        <time>2018-10-14T07:33:30Z</time>
      </trkpt>
      <trkpt lat="45.66779" lon="4.668">
        <ele>473</ele>
        <time>2018-10-14T07:33:31Z</time>
      </trkpt>
      <trkpt lat="45.66778" lon="4.66798">
        <ele>473</ele>
        <time>2018-10-14T07:33:32Z</time>
      </trkpt>
      <trkpt lat="45.66776" lon="4.66796">
        <ele>471</ele>
        <time>2018-10-14T07:33:33Z</time>
      </trkpt>
      <trkpt lat="45.66775" lon="4.66794">
        <ele>472</ele>
        <time>2018-10-14T07:33:34Z</time>
      </trkpt>
      <trkpt lat="45.66774" lon="4.66793">
        <ele>472</ele>
        <time>2018-10-14T07:33:35Z</time>
      </trkpt>
      <trkpt lat="45.66773" lon="4.66791">
        <ele>472</ele>
        <time>2018-10-14T07:33:36Z</time>
      </trkpt>
      <trkpt lat="45.66772" lon="4.66788">
        <ele>473</ele>
        <time>2018-10-14T07:33:37Z</time>
      </trkpt>
      <trkpt lat="45.66771" lon="4.66786">
        <ele>473</ele>
        <time>2018-10-14T07:33:38Z</time>
      </trkpt>
      <trkpt lat="45.66769" lon="4.66784">
        <ele>473</ele>
        <time>2018-10-14T07:33:39Z</time>
      </trkpt>
      <trkpt lat="45.66768" lon="4.66782">
        <ele>474</ele>
        <time>2018-10-14T07:33:40Z</time>
      </trkpt>
      <trkpt lat="45.66766" lon="4.66781">
        <ele>474</ele>
        <time>2018-10-14T07:33:41Z</time>
      </trkpt>
      <trkpt lat="45.66765" lon="4.6678">
        <ele>474</ele>
        <time>2018-10-14T07:33:42Z</time>
      </trkpt>
      <trkpt lat="45.66763" lon="4.66778">
        <ele>472</ele>
        <time>2018-10-14T07:33:43Z</time>
      </trkpt>
      <trkpt lat="45.66761" lon="4.66776">
        <ele>473</ele>
        <time>2018-10-14T07:33:44Z</time>
      </trkpt>
      <trkpt lat="45.6676" lon="4.66774">
        <ele>474</ele>
        <time>2018-10-14T07:33:45Z</time>
      </trkpt>
      <trkpt lat="45.66758" lon="4.66772">
        <ele>474</ele>
        <time>2018-10-14T07:33:46Z</time>
      </trkpt>
      <trkpt lat="45.66757" lon="4.66771">
        <ele>475</ele>
        <time>2018-10-14T07:33:47Z</time>
      </trkpt>
      <trkpt lat="45.66756" lon="4.6677">
        <ele>475</ele>
        <time>2018-10-14T07:33:48Z</time>
      </trkpt>
      <trkpt lat="45.66756" lon="4.66769">
        <ele>475</ele>
        <time>2018-10-14T07:33:49Z</time>
      </trkpt>
      <trkpt lat="45.66755" lon="4.66768">
        <ele>476</ele>
        <time>2018-10-14T07:33:50Z</time>
      </trkpt>
      <trkpt lat="45.66755" lon="4.66766">
        <ele>477</ele>
        <time>2018-10-14T07:33:51Z</time>
      </trkpt>
      <trkpt lat="45.66754" lon="4.66765">
        <ele>478</ele>
        <time>2018-10-14T07:33:52Z</time>
      </trkpt>
      <trkpt lat="45.66753" lon="4.66764">
        <ele>478</ele>
        <time>2018-10-14T07:33:53Z</time>
      </trkpt>
      <trkpt lat="45.66752" lon="4.66763">
        <ele>478</ele>
        <time>2018-10-14T07:33:54Z</time>
      </trkpt>
      <trkpt lat="45.66751" lon="4.66762">
        <ele>478</ele>
        <time>2018-10-14T07:33:55Z</time>
      </trkpt>
      <trkpt lat="45.6675" lon="4.66761">
        <ele>479</ele>
        <time>2018-10-14T07:33:56Z</time>
      </trkpt>
      <trkpt lat="45.66749" lon="4.6676">
        <ele>480</ele>
        <time>2018-10-14T07:33:57Z</time>
      </trkpt>
      <trkpt lat="45.66747" lon="4.66759">
        <ele>480</ele>
        <time>2018-10-14T07:33:58Z</time>
      </trkpt>
      <trkpt lat="45.66746" lon="4.66758">
        <ele>480</ele>
        <time>2018-10-14T07:33:59Z</time>
      </trkpt>
      <trkpt lat="45.66744" lon="4.66757">
        <ele>480</ele>
        <time>2018-10-14T07:34:00Z</time>
      </trkpt>
      <trkpt lat="45.66743" lon="4.66756">
        <ele>480</ele>
        <time>2018-10-14T07:34:01Z</time>
      </trkpt>
      <trkpt lat="45.66742" lon="4.66755">
        <ele>480</ele>
        <time>2018-10-14T07:34:02Z</time>
      </trkpt>
      <trkpt lat="45.66741" lon="4.66754">
        <ele>481</ele>
        <time>2018-10-14T07:34:03Z</time>
      </trkpt>
      <trkpt lat="45.6674" lon="4.66752">
        <ele>480</ele>
        <time>2018-10-14T07:34:04Z</time>
      </trkpt>
      <trkpt lat="45.66739" lon="4.6675">
        <ele>480</ele>
        <time>2018-10-14T07:34:05Z</time>
      </trkpt>
      <trkpt lat="45.66738" lon="4.66749">
        <ele>480</ele>
        <time>2018-10-14T07:34:06Z</time>
      </trkpt>
      <trkpt lat="45.66737" lon="4.66748">
        <ele>480</ele>
        <time>2018-10-14T07:34:07Z</time>
      </trkpt>
      <trkpt lat="45.66736" lon="4.66747">
        <ele>481</ele>
        <time>2018-10-14T07:34:08Z</time>
      </trkpt>
      <trkpt lat="45.66735" lon="4.66748">
        <ele>482</ele>
        <time>2018-10-14T07:34:09Z</time>
      </trkpt>
      <trkpt lat="45.66734" lon="4.66749">
        <ele>482</ele>
        <time>2018-10-14T07:34:10Z</time>
      </trkpt>
      <trkpt lat="45.66734" lon="4.66751">
        <ele>483</ele>
        <time>2018-10-14T07:34:11Z</time>
      </trkpt>
      <trkpt lat="45.66735" lon="4.66754">
        <ele>483</ele>
        <time>2018-10-14T07:34:12Z</time>
      </trkpt>
      <trkpt lat="45.66736" lon="4.66756">
        <ele>479</ele>
        <time>2018-10-14T07:34:13Z</time>
      </trkpt>
      <trkpt lat="45.66736" lon="4.66759">
        <ele>481</ele>
        <time>2018-10-14T07:34:14Z</time>
      </trkpt>
      <trkpt lat="45.66735" lon="4.66763">
        <ele>482</ele>
        <time>2018-10-14T07:34:15Z</time>
      </trkpt>
      <trkpt lat="45.66735" lon="4.66766">
        <ele>482</ele>
        <time>2018-10-14T07:34:16Z</time>
      </trkpt>
      <trkpt lat="45.66734" lon="4.6677">
        <ele>483</ele>
        <time>2018-10-14T07:34:17Z</time>
      </trkpt>
      <trkpt lat="45.66734" lon="4.66773">
        <ele>484</ele>
        <time>2018-10-14T07:34:18Z</time>
      </trkpt>
      <trkpt lat="45.66733" lon="4.66777">
        <ele>483</ele>
        <time>2018-10-14T07:34:19Z</time>
      </trkpt>
      <trkpt lat="45.66733" lon="4.6678">
        <ele>483</ele>
        <time>2018-10-14T07:34:20Z</time>
      </trkpt>
      <trkpt lat="45.66732" lon="4.66784">
        <ele>483</ele>
        <time>2018-10-14T07:34:21Z</time>
      </trkpt>
      <trkpt lat="45.66731" lon="4.66787">
        <ele>484</ele>
        <time>2018-10-14T07:34:22Z</time>
      </trkpt>
      <trkpt lat="45.6673" lon="4.66791">
        <ele>484</ele>
        <time>2018-10-14T07:34:23Z</time>
      </trkpt>
      <trkpt lat="45.66729" lon="4.66795">
        <ele>484</ele>
        <time>2018-10-14T07:34:24Z</time>
      </trkpt>
      <trkpt lat="45.66727" lon="4.66799">
        <ele>484</ele>
        <time>2018-10-14T07:34:25Z</time>
      </trkpt>
      <trkpt lat="45.66726" lon="4.66802">
        <ele>484</ele>
        <time>2018-10-14T07:34:26Z</time>
      </trkpt>
      <trkpt lat="45.66724" lon="4.66806">
        <ele>484</ele>
        <time>2018-10-14T07:34:27Z</time>
      </trkpt>
      <trkpt lat="45.66721" lon="4.6681">
        <ele>484</ele>
        <time>2018-10-14T07:34:28Z</time>
      </trkpt>
      <trkpt lat="45.66719" lon="4.66815">
        <ele>485</ele>
        <time>2018-10-14T07:34:29Z</time>
      </trkpt>
      <trkpt lat="45.66718" lon="4.6682">
        <ele>485</ele>
        <time>2018-10-14T07:34:30Z</time>
      </trkpt>
      <trkpt lat="45.66716" lon="4.66825">
        <ele>485</ele>
        <time>2018-10-14T07:34:31Z</time>
      </trkpt>
      <trkpt lat="45.66713" lon="4.6683">
        <ele>484</ele>
        <time>2018-10-14T07:34:32Z</time>
      </trkpt>
      <trkpt lat="45.6671" lon="4.66833">
        <ele>484</ele>
        <time>2018-10-14T07:34:33Z</time>
      </trkpt>
      <trkpt lat="45.66707" lon="4.66837">
        <ele>484</ele>
        <time>2018-10-14T07:34:34Z</time>
      </trkpt>
      <trkpt lat="45.66703" lon="4.6684">
        <ele>485</ele>
        <time>2018-10-14T07:34:35Z</time>
      </trkpt>
      <trkpt lat="45.66699" lon="4.66843">
        <ele>485</ele>
        <time>2018-10-14T07:34:36Z</time>
      </trkpt>
      <trkpt lat="45.66696" lon="4.66846">
        <ele>485</ele>
        <time>2018-10-14T07:34:37Z</time>
      </trkpt>
      <trkpt lat="45.66693" lon="4.6685">
        <ele>485</ele>
        <time>2018-10-14T07:34:38Z</time>
      </trkpt>
      <trkpt lat="45.66689" lon="4.66854">
        <ele>486</ele>
        <time>2018-10-14T07:34:39Z</time>
      </trkpt>
      <trkpt lat="45.66686" lon="4.66856">
        <ele>485</ele>
        <time>2018-10-14T07:34:40Z</time>
      </trkpt>
      <trkpt lat="45.66682" lon="4.66855">
        <ele>486</ele>
        <time>2018-10-14T07:34:41Z</time>
      </trkpt>
      <trkpt lat="45.66679" lon="4.66854">
        <ele>486</ele>
        <time>2018-10-14T07:34:42Z</time>
      </trkpt>
      <trkpt lat="45.66675" lon="4.66851">
        <ele>486</ele>
        <time>2018-10-14T07:34:43Z</time>
      </trkpt>
      <trkpt lat="45.66672" lon="4.66847">
        <ele>486</ele>
        <time>2018-10-14T07:34:44Z</time>
      </trkpt>
      <trkpt lat="45.6667" lon="4.66843">
        <ele>486</ele>
        <time>2018-10-14T07:34:45Z</time>
      </trkpt>
      <trkpt lat="45.66667" lon="4.6684">
        <ele>486</ele>
        <time>2018-10-14T07:34:46Z</time>
      </trkpt>
      <trkpt lat="45.66665" lon="4.66836">
        <ele>486</ele>
        <time>2018-10-14T07:34:47Z</time>
      </trkpt>
      <trkpt lat="45.66663" lon="4.66832">
        <ele>486</ele>
        <time>2018-10-14T07:34:48Z</time>
      </trkpt>
      <trkpt lat="45.66661" lon="4.66829">
        <ele>487</ele>
        <time>2018-10-14T07:34:49Z</time>
      </trkpt>
      <trkpt lat="45.6666" lon="4.66827">
        <ele>487</ele>
        <time>2018-10-14T07:34:50Z</time>
      </trkpt>
      <trkpt lat="45.66659" lon="4.66825">
        <ele>488</ele>
        <time>2018-10-14T07:34:51Z</time>
      </trkpt>
      <trkpt lat="45.66658" lon="4.66822">
        <ele>487</ele>
        <time>2018-10-14T07:34:53Z</time>
      </trkpt>
      <trkpt lat="45.66654" lon="4.66811">
        <ele>487</ele>
        <time>2018-10-14T07:34:54Z</time>
      </trkpt>
      <trkpt lat="45.66653" lon="4.66808">
        <ele>487</ele>
        <time>2018-10-14T07:34:55Z</time>
      </trkpt>
      <trkpt lat="45.66652" lon="4.66804">
        <ele>488</ele>
        <time>2018-10-14T07:34:56Z</time>
      </trkpt>
      <trkpt lat="45.66652" lon="4.668">
        <ele>488</ele>
        <time>2018-10-14T07:34:57Z</time>
      </trkpt>
      <trkpt lat="45.66652" lon="4.66795">
        <ele>488</ele>
        <time>2018-10-14T07:34:58Z</time>
      </trkpt>
      <trkpt lat="45.66651" lon="4.66791">
        <ele>489</ele>
        <time>2018-10-14T07:34:59Z</time>
      </trkpt>
      <trkpt lat="45.66651" lon="4.66788">
        <ele>489</ele>
        <time>2018-10-14T07:35:00Z</time>
      </trkpt>
      <trkpt lat="45.66651" lon="4.66783">
        <ele>489</ele>
        <time>2018-10-14T07:35:01Z</time>
      </trkpt>
      <trkpt lat="45.66651" lon="4.66779">
        <ele>489</ele>
        <time>2018-10-14T07:35:02Z</time>
      </trkpt>
      <trkpt lat="45.66651" lon="4.66776">
        <ele>489</ele>
        <time>2018-10-14T07:35:03Z</time>
      </trkpt>
      <trkpt lat="45.6665" lon="4.66773">
        <ele>489</ele>
        <time>2018-10-14T07:35:04Z</time>
      </trkpt>
      <trkpt lat="45.66649" lon="4.66768">
        <ele>490</ele>
        <time>2018-10-14T07:35:05Z</time>
      </trkpt>
      <trkpt lat="45.66647" lon="4.66761">
        <ele>491</ele>
        <time>2018-10-14T07:35:06Z</time>
      </trkpt>
      <trkpt lat="45.66645" lon="4.66756">
        <ele>491</ele>
        <time>2018-10-14T07:35:07Z</time>
      </trkpt>
      <trkpt lat="45.66644" lon="4.66752">
        <ele>492</ele>
        <time>2018-10-14T07:35:08Z</time>
      </trkpt>
      <trkpt lat="45.66642" lon="4.66747">
        <ele>492</ele>
        <time>2018-10-14T07:35:09Z</time>
      </trkpt>
      <trkpt lat="45.66641" lon="4.66742">
        <ele>493</ele>
        <time>2018-10-14T07:35:10Z</time>
      </trkpt>
      <trkpt lat="45.66639" lon="4.66738">
        <ele>493</ele>
        <time>2018-10-14T07:35:11Z</time>
      </trkpt>
      <trkpt lat="45.66638" lon="4.66733">
        <ele>493</ele>
        <time>2018-10-14T07:35:12Z</time>
      </trkpt>
      <trkpt lat="45.66637" lon="4.66728">
        <ele>493</ele>
        <time>2018-10-14T07:35:13Z</time>
      </trkpt>
      <trkpt lat="45.66635" lon="4.66723">
        <ele>493</ele>
        <time>2018-10-14T07:35:14Z</time>
      </trkpt>
      <trkpt lat="45.66634" lon="4.6672">
        <ele>493</ele>
        <time>2018-10-14T07:35:15Z</time>
      </trkpt>
      <trkpt lat="45.66633" lon="4.66718">
        <ele>493</ele>
        <time>2018-10-14T07:35:16Z</time>
      </trkpt>
      <trkpt lat="45.66632" lon="4.66716">
        <ele>493</ele>
        <time>2018-10-14T07:35:17Z</time>
      </trkpt>
      <trkpt lat="45.66631" lon="4.66714">
        <ele>493</ele>
        <time>2018-10-14T07:35:18Z</time>
      </trkpt>
      <trkpt lat="45.66629" lon="4.66711">
        <ele>494</ele>
        <time>2018-10-14T07:35:19Z</time>
      </trkpt>
      <trkpt lat="45.66628" lon="4.66708">
        <ele>494</ele>
        <time>2018-10-14T07:35:20Z</time>
      </trkpt>
      <trkpt lat="45.66625" lon="4.66698">
        <ele>494</ele>
        <time>2018-10-14T07:35:21Z</time>
      </trkpt>
      <trkpt lat="45.66621" lon="4.66689">
        <ele>495</ele>
        <time>2018-10-14T07:35:22Z</time>
      </trkpt>
      <trkpt lat="45.66619" lon="4.66686">
        <ele>495</ele>
        <time>2018-10-14T07:35:23Z</time>
      </trkpt>
      <trkpt lat="45.66617" lon="4.66683">
        <ele>495</ele>
        <time>2018-10-14T07:35:24Z</time>
      </trkpt>
      <trkpt lat="45.66615" lon="4.6668">
        <ele>495</ele>
        <time>2018-10-14T07:35:25Z</time>
      </trkpt>
      <trkpt lat="45.66614" lon="4.66677">
        <ele>495</ele>
        <time>2018-10-14T07:35:26Z</time>
      </trkpt>
      <trkpt lat="45.66612" lon="4.66675">
        <ele>495</ele>
        <time>2018-10-14T07:35:27Z</time>
      </trkpt>
      <trkpt lat="45.66609" lon="4.66672">
        <ele>496</ele>
        <time>2018-10-14T07:35:28Z</time>
      </trkpt>
      <trkpt lat="45.66607" lon="4.6667">
        <ele>495</ele>
        <time>2018-10-14T07:35:29Z</time>
      </trkpt>
      <trkpt lat="45.66605" lon="4.66667">
        <ele>496</ele>
        <time>2018-10-14T07:35:30Z</time>
      </trkpt>
      <trkpt lat="45.66602" lon="4.66665">
        <ele>496</ele>
        <time>2018-10-14T07:35:31Z</time>
      </trkpt>
      <trkpt lat="45.66601" lon="4.66663">
        <ele>496</ele>
        <time>2018-10-14T07:35:32Z</time>
      </trkpt>
      <trkpt lat="45.666" lon="4.66663">
        <ele>496</ele>
        <time>2018-10-14T07:35:33Z</time>
      </trkpt>
      <trkpt lat="45.66599" lon="4.66661">
        <ele>497</ele>
        <time>2018-10-14T07:35:34Z</time>
      </trkpt>
      <trkpt lat="45.66597" lon="4.66659">
        <ele>497</ele>
        <time>2018-10-14T07:35:35Z</time>
      </trkpt>
      <trkpt lat="45.66595" lon="4.66658">
        <ele>497</ele>
        <time>2018-10-14T07:35:36Z</time>
      </trkpt>
      <trkpt lat="45.66594" lon="4.66656">
        <ele>497</ele>
        <time>2018-10-14T07:35:37Z</time>
      </trkpt>
      <trkpt lat="45.66592" lon="4.66654">
        <ele>496</ele>
        <time>2018-10-14T07:35:38Z</time>
      </trkpt>
      <trkpt lat="45.6659" lon="4.66652">
        <ele>496</ele>
        <time>2018-10-14T07:35:39Z</time>
      </trkpt>
      <trkpt lat="45.66587" lon="4.6665">
        <ele>496</ele>
        <time>2018-10-14T07:35:40Z</time>
      </trkpt>
      <trkpt lat="45.66585" lon="4.66648">
        <ele>497</ele>
        <time>2018-10-14T07:35:41Z</time>
      </trkpt>
      <trkpt lat="45.66583" lon="4.66646">
        <ele>496</ele>
        <time>2018-10-14T07:35:42Z</time>
      </trkpt>
      <trkpt lat="45.6658" lon="4.66643">
        <ele>496</ele>
        <time>2018-10-14T07:35:43Z</time>
      </trkpt>
      <trkpt lat="45.66577" lon="4.66641">
        <ele>496</ele>
        <time>2018-10-14T07:35:44Z</time>
      </trkpt>
      <trkpt lat="45.66574" lon="4.66638">
        <ele>496</ele>
        <time>2018-10-14T07:35:45Z</time>
      </trkpt>
      <trkpt lat="45.66569" lon="4.66634">
        <ele>495</ele>
        <time>2018-10-14T07:35:47Z</time>
      </trkpt>
      <trkpt lat="45.66565" lon="4.66632">
        <ele>496</ele>
        <time>2018-10-14T07:35:48Z</time>
      </trkpt>
      <trkpt lat="45.66557" lon="4.66626">
        <ele>496</ele>
        <time>2018-10-14T07:35:49Z</time>
      </trkpt>
      <trkpt lat="45.66552" lon="4.66624">
        <ele>496</ele>
        <time>2018-10-14T07:35:50Z</time>
      </trkpt>
      <trkpt lat="45.66549" lon="4.66623">
        <ele>497</ele>
        <time>2018-10-14T07:35:51Z</time>
      </trkpt>
      <trkpt lat="45.66545" lon="4.66621">
        <ele>497</ele>
        <time>2018-10-14T07:35:52Z</time>
      </trkpt>
      <trkpt lat="45.66542" lon="4.66619">
        <ele>497</ele>
        <time>2018-10-14T07:35:53Z</time>
      </trkpt>
      <trkpt lat="45.66539" lon="4.66617">
        <ele>497</ele>
        <time>2018-10-14T07:35:54Z</time>
      </trkpt>
      <trkpt lat="45.66536" lon="4.66615">
        <ele>497</ele>
        <time>2018-10-14T07:35:55Z</time>
      </trkpt>
      <trkpt lat="45.66534" lon="4.66612">
        <ele>497</ele>
        <time>2018-10-14T07:35:56Z</time>
      </trkpt>
      <trkpt lat="45.66531" lon="4.6661">
        <ele>497</ele>
        <time>2018-10-14T07:35:57Z</time>
      </trkpt>
      <trkpt lat="45.6653" lon="4.66609">
        <ele>497</ele>
        <time>2018-10-14T07:35:58Z</time>
      </trkpt>
      <trkpt lat="45.66526" lon="4.66607">
        <ele>497</ele>
        <time>2018-10-14T07:36:00Z</time>
      </trkpt>
      <trkpt lat="45.66523" lon="4.66604">
        <ele>497</ele>
        <time>2018-10-14T07:36:01Z</time>
      </trkpt>
      <trkpt lat="45.66519" lon="4.66601">
        <ele>497</ele>
        <time>2018-10-14T07:36:02Z</time>
      </trkpt>
      <trkpt lat="45.66514" lon="4.66596">
        <ele>497</ele>
        <time>2018-10-14T07:36:03Z</time>
      </trkpt>
      <trkpt lat="45.6651" lon="4.66593">
        <ele>497</ele>
        <time>2018-10-14T07:36:04Z</time>
      </trkpt>
      <trkpt lat="45.66506" lon="4.6659">
        <ele>497</ele>
        <time>2018-10-14T07:36:05Z</time>
      </trkpt>
      <trkpt lat="45.66503" lon="4.66587">
        <ele>497</ele>
        <time>2018-10-14T07:36:06Z</time>
      </trkpt>
      <trkpt lat="45.66499" lon="4.66584">
        <ele>497</ele>
        <time>2018-10-14T07:36:07Z</time>
      </trkpt>
      <trkpt lat="45.66497" lon="4.66581">
        <ele>497</ele>
        <time>2018-10-14T07:36:08Z</time>
      </trkpt>
      <trkpt lat="45.66494" lon="4.66577">
        <ele>497</ele>
        <time>2018-10-14T07:36:09Z</time>
      </trkpt>
      <trkpt lat="45.66489" lon="4.66574">
        <ele>497</ele>
        <time>2018-10-14T07:36:10Z</time>
      </trkpt>
      <trkpt lat="45.66486" lon="4.66572">
        <ele>497</ele>
        <time>2018-10-14T07:36:11Z</time>
      </trkpt>
      <trkpt lat="45.66482" lon="4.66572">
        <ele>497</ele>
        <time>2018-10-14T07:36:12Z</time>
      </trkpt>
      <trkpt lat="45.66478" lon="4.66572">
        <ele>496</ele>
        <time>2018-10-14T07:36:13Z</time>
      </trkpt>
      <trkpt lat="45.66475" lon="4.66572">
        <ele>496</ele>
        <time>2018-10-14T07:36:14Z</time>
      </trkpt>
      <trkpt lat="45.66472" lon="4.66573">
        <ele>497</ele>
        <time>2018-10-14T07:36:15Z</time>
      </trkpt>
      <trkpt lat="45.66468" lon="4.66573">
        <ele>496</ele>
        <time>2018-10-14T07:36:17Z</time>
      </trkpt>
      <trkpt lat="45.6646" lon="4.66575">
        <ele>496</ele>
        <time>2018-10-14T07:36:18Z</time>
      </trkpt>
      <trkpt lat="45.66452" lon="4.66579">
        <ele>495</ele>
        <time>2018-10-14T07:36:19Z</time>
      </trkpt>
      <trkpt lat="45.66448" lon="4.6658">
        <ele>495</ele>
        <time>2018-10-14T07:36:20Z</time>
      </trkpt>
      <trkpt lat="45.66443" lon="4.66581">
        <ele>495</ele>
        <time>2018-10-14T07:36:21Z</time>
      </trkpt>
      <trkpt lat="45.66438" lon="4.66582">
        <ele>496</ele>
        <time>2018-10-14T07:36:22Z</time>
      </trkpt>
      <trkpt lat="45.66434" lon="4.66584">
        <ele>496</ele>
        <time>2018-10-14T07:36:23Z</time>
      </trkpt>
      <trkpt lat="45.66428" lon="4.66585">
        <ele>494</ele>
        <time>2018-10-14T07:36:24Z</time>
      </trkpt>
      <trkpt lat="45.66423" lon="4.66587">
        <ele>495</ele>
        <time>2018-10-14T07:36:25Z</time>
      </trkpt>
      <trkpt lat="45.66419" lon="4.66589">
        <ele>495</ele>
        <time>2018-10-14T07:36:26Z</time>
      </trkpt>
      <trkpt lat="45.66414" lon="4.66591">
        <ele>495</ele>
        <time>2018-10-14T07:36:27Z</time>
      </trkpt>
      <trkpt lat="45.6641" lon="4.66592">
        <ele>496</ele>
        <time>2018-10-14T07:36:28Z</time>
      </trkpt>
      <trkpt lat="45.66406" lon="4.66592">
        <ele>496</ele>
        <time>2018-10-14T07:36:29Z</time>
      </trkpt>
      <trkpt lat="45.66401" lon="4.66592">
        <ele>496</ele>
        <time>2018-10-14T07:36:30Z</time>
      </trkpt>
      <trkpt lat="45.66398" lon="4.66591">
        <ele>496</ele>
        <time>2018-10-14T07:36:31Z</time>
      </trkpt>
      <trkpt lat="45.66393" lon="4.6659">
        <ele>496</ele>
        <time>2018-10-14T07:36:32Z</time>
      </trkpt>
      <trkpt lat="45.66389" lon="4.66589">
        <ele>496</ele>
        <time>2018-10-14T07:36:33Z</time>
      </trkpt>
      <trkpt lat="45.66386" lon="4.66589">
        <ele>496</ele>
        <time>2018-10-14T07:36:34Z</time>
      </trkpt>
      <trkpt lat="45.66382" lon="4.66588">
        <ele>496</ele>
        <time>2018-10-14T07:36:35Z</time>
      </trkpt>
      <trkpt lat="45.66378" lon="4.66588">
        <ele>497</ele>
        <time>2018-10-14T07:36:36Z</time>
      </trkpt>
      <trkpt lat="45.66375" lon="4.66587">
        <ele>498</ele>
        <time>2018-10-14T07:36:37Z</time>
      </trkpt>
      <trkpt lat="45.66371" lon="4.66586">
        <ele>499</ele>
        <time>2018-10-14T07:36:38Z</time>
      </trkpt>
      <trkpt lat="45.66368" lon="4.66585">
        <ele>500</ele>
        <time>2018-10-14T07:36:39Z</time>
      </trkpt>
      <trkpt lat="45.66365" lon="4.66584">
        <ele>500</ele>
        <time>2018-10-14T07:36:40Z</time>
      </trkpt>
      <trkpt lat="45.66361" lon="4.66583">
        <ele>501</ele>
        <time>2018-10-14T07:36:41Z</time>
      </trkpt>
      <trkpt lat="45.66358" lon="4.66583">
        <ele>500</ele>
        <time>2018-10-14T07:36:42Z</time>
      </trkpt>
      <trkpt lat="45.66355" lon="4.66582">
        <ele>499</ele>
        <time>2018-10-14T07:36:43Z</time>
      </trkpt>
      <trkpt lat="45.66351" lon="4.66582">
        <ele>500</ele>
        <time>2018-10-14T07:36:44Z</time>
      </trkpt>
      <trkpt lat="45.66348" lon="4.66583">
        <ele>500</ele>
        <time>2018-10-14T07:36:45Z</time>
      </trkpt>
      <trkpt lat="45.66344" lon="4.66584">
        <ele>500</ele>
        <time>2018-10-14T07:36:46Z</time>
      </trkpt>
      <trkpt lat="45.66341" lon="4.66587">
        <ele>499</ele>
        <time>2018-10-14T07:36:47Z</time>
      </trkpt>
      <trkpt lat="45.66338" lon="4.66591">
        <ele>499</ele>
        <time>2018-10-14T07:36:48Z</time>
      </trkpt>
      <trkpt lat="45.66335" lon="4.66596">
        <ele>499</ele>
        <time>2018-10-14T07:36:49Z</time>
      </trkpt>
      <trkpt lat="45.66332" lon="4.666">
        <ele>498</ele>
        <time>2018-10-14T07:36:50Z</time>
      </trkpt>
      <trkpt lat="45.66329" lon="4.66604">
        <ele>498</ele>
        <time>2018-10-14T07:36:51Z</time>
      </trkpt>
      <trkpt lat="45.66326" lon="4.66609">
        <ele>497</ele>
        <time>2018-10-14T07:36:52Z</time>
      </trkpt>
      <trkpt lat="45.66323" lon="4.66613">
        <ele>497</ele>
        <time>2018-10-14T07:36:53Z</time>
      </trkpt>
      <trkpt lat="45.6632" lon="4.66616">
        <ele>497</ele>
        <time>2018-10-14T07:36:54Z</time>
      </trkpt>
      <trkpt lat="45.66317" lon="4.66618">
        <ele>497</ele>
        <time>2018-10-14T07:36:55Z</time>
      </trkpt>
      <trkpt lat="45.66314" lon="4.6662">
        <ele>496</ele>
        <time>2018-10-14T07:36:56Z</time>
      </trkpt>
      <trkpt lat="45.6631" lon="4.66622">
        <ele>496</ele>
        <time>2018-10-14T07:36:57Z</time>
      </trkpt>
      <trkpt lat="45.66307" lon="4.66623">
        <ele>497</ele>
        <time>2018-10-14T07:36:58Z</time>
      </trkpt>
      <trkpt lat="45.66304" lon="4.66626">
        <ele>497</ele>
        <time>2018-10-14T07:36:59Z</time>
      </trkpt>
      <trkpt lat="45.66301" lon="4.66628">
        <ele>497</ele>
        <time>2018-10-14T07:37:00Z</time>
      </trkpt>
      <trkpt lat="45.66298" lon="4.66632">
        <ele>497</ele>
        <time>2018-10-14T07:37:01Z</time>
      </trkpt>
      <trkpt lat="45.66296" lon="4.66636">
        <ele>497</ele>
        <time>2018-10-14T07:37:02Z</time>
      </trkpt>
      <trkpt lat="45.66293" lon="4.66641">
        <ele>497</ele>
        <time>2018-10-14T07:37:03Z</time>
      </trkpt>
      <trkpt lat="45.66291" lon="4.66646">
        <ele>497</ele>
        <time>2018-10-14T07:37:04Z</time>
      </trkpt>
      <trkpt lat="45.66289" lon="4.66651">
        <ele>497</ele>
        <time>2018-10-14T07:37:05Z</time>
      </trkpt>
      <trkpt lat="45.66286" lon="4.66655">
        <ele>498</ele>
        <time>2018-10-14T07:37:06Z</time>
      </trkpt>
      <trkpt lat="45.66283" lon="4.66658">
        <ele>499</ele>
        <time>2018-10-14T07:37:07Z</time>
      </trkpt>
      <trkpt lat="45.66279" lon="4.6666">
        <ele>500</ele>
        <time>2018-10-14T07:37:08Z</time>
      </trkpt>
      <trkpt lat="45.66275" lon="4.66663">
        <ele>500</ele>
        <time>2018-10-14T07:37:09Z</time>
      </trkpt>
      <trkpt lat="45.66271" lon="4.66665">
        <ele>499</ele>
        <time>2018-10-14T07:37:10Z</time>
      </trkpt>
      <trkpt lat="45.66268" lon="4.66664">
        <ele>499</ele>
        <time>2018-10-14T07:37:11Z</time>
      </trkpt>
      <trkpt lat="45.66266" lon="4.6666">
        <ele>500</ele>
        <time>2018-10-14T07:37:12Z</time>
      </trkpt>
      <trkpt lat="45.66266" lon="4.66653">
        <ele>499</ele>
        <time>2018-10-14T07:37:13Z</time>
      </trkpt>
      <trkpt lat="45.66267" lon="4.66645">
        <ele>499</ele>
        <time>2018-10-14T07:37:14Z</time>
      </trkpt>
      <trkpt lat="45.66269" lon="4.66638">
        <ele>500</ele>
        <time>2018-10-14T07:37:15Z</time>
      </trkpt>
      <trkpt lat="45.6627" lon="4.66631">
        <ele>499</ele>
        <time>2018-10-14T07:37:16Z</time>
      </trkpt>
      <trkpt lat="45.66272" lon="4.66625">
        <ele>499</ele>
        <time>2018-10-14T07:37:17Z</time>
      </trkpt>
      <trkpt lat="45.66274" lon="4.66619">
        <ele>499</ele>
        <time>2018-10-14T07:37:18Z</time>
      </trkpt>
      <trkpt lat="45.66275" lon="4.66613">
        <ele>499</ele>
        <time>2018-10-14T07:37:19Z</time>
      </trkpt>
      <trkpt lat="45.66276" lon="4.66606">
        <ele>500</ele>
        <time>2018-10-14T07:37:20Z</time>
      </trkpt>
      <trkpt lat="45.66277" lon="4.666">
        <ele>499</ele>
        <time>2018-10-14T07:37:21Z</time>
      </trkpt>
      <trkpt lat="45.66279" lon="4.66594">
        <ele>499</ele>
        <time>2018-10-14T07:37:22Z</time>
      </trkpt>
      <trkpt lat="45.66279" lon="4.66587">
        <ele>500</ele>
        <time>2018-10-14T07:37:23Z</time>
      </trkpt>
      <trkpt lat="45.6628" lon="4.66581">
        <ele>500</ele>
        <time>2018-10-14T07:37:24Z</time>
      </trkpt>
      <trkpt lat="45.6628" lon="4.66576">
        <ele>500</ele>
        <time>2018-10-14T07:37:25Z</time>
      </trkpt>
      <trkpt lat="45.66282" lon="4.66571">
        <ele>501</ele>
        <time>2018-10-14T07:37:26Z</time>
      </trkpt>
      <trkpt lat="45.66282" lon="4.66566">
        <ele>500</ele>
        <time>2018-10-14T07:37:27Z</time>
      </trkpt>
      <trkpt lat="45.66283" lon="4.66562">
        <ele>500</ele>
        <time>2018-10-14T07:37:28Z</time>
      </trkpt>
      <trkpt lat="45.66283" lon="4.66559">
        <ele>501</ele>
        <time>2018-10-14T07:37:29Z</time>
      </trkpt>
      <trkpt lat="45.66283" lon="4.66555">
        <ele>501</ele>
        <time>2018-10-14T07:37:30Z</time>
      </trkpt>
      <trkpt lat="45.66283" lon="4.66551">
        <ele>501</ele>
        <time>2018-10-14T07:37:31Z</time>
      </trkpt>
      <trkpt lat="45.66283" lon="4.66548">
        <ele>501</ele>
        <time>2018-10-14T07:37:32Z</time>
      </trkpt>
      <trkpt lat="45.66283" lon="4.66544">
        <ele>500</ele>
        <time>2018-10-14T07:37:33Z</time>
      </trkpt>
      <trkpt lat="45.66283" lon="4.66541">
        <ele>501</ele>
        <time>2018-10-14T07:37:34Z</time>
      </trkpt>
      <trkpt lat="45.66283" lon="4.66537">
        <ele>501</ele>
        <time>2018-10-14T07:37:35Z</time>
      </trkpt>
      <trkpt lat="45.66282" lon="4.66533">
        <ele>502</ele>
        <time>2018-10-14T07:37:36Z</time>
      </trkpt>
      <trkpt lat="45.66282" lon="4.6653">
        <ele>503</ele>
        <time>2018-10-14T07:37:37Z</time>
      </trkpt>
      <trkpt lat="45.66282" lon="4.66527">
        <ele>504</ele>
        <time>2018-10-14T07:37:38Z</time>
      </trkpt>
      <trkpt lat="45.66281" lon="4.66524">
        <ele>504</ele>
        <time>2018-10-14T07:37:39Z</time>
      </trkpt>
      <trkpt lat="45.66281" lon="4.66521">
        <ele>503</ele>
        <time>2018-10-14T07:37:40Z</time>
      </trkpt>
      <trkpt lat="45.66281" lon="4.66517">
        <ele>504</ele>
        <time>2018-10-14T07:37:41Z</time>
      </trkpt>
      <trkpt lat="45.6628" lon="4.66512">
        <ele>504</ele>
        <time>2018-10-14T07:37:42Z</time>
      </trkpt>
      <trkpt lat="45.66281" lon="4.66508">
        <ele>504</ele>
        <time>2018-10-14T07:37:43Z</time>
      </trkpt>
      <trkpt lat="45.66281" lon="4.66504">
        <ele>504</ele>
        <time>2018-10-14T07:37:44Z</time>
      </trkpt>
      <trkpt lat="45.66282" lon="4.665">
        <ele>505</ele>
        <time>2018-10-14T07:37:45Z</time>
      </trkpt>
      <trkpt lat="45.66282" lon="4.66496">
        <ele>505</ele>
        <time>2018-10-14T07:37:46Z</time>
      </trkpt>
      <trkpt lat="45.66282" lon="4.66492">
        <ele>505</ele>
        <time>2018-10-14T07:37:48Z</time>
      </trkpt>
      <trkpt lat="45.66283" lon="4.66488">
        <ele>505</ele>
        <time>2018-10-14T07:37:49Z</time>
      </trkpt>
      <trkpt lat="45.66283" lon="4.66485">
        <ele>505</ele>
        <time>2018-10-14T07:37:50Z</time>
      </trkpt>
      <trkpt lat="45.66286" lon="4.66475">
        <ele>505</ele>
        <time>2018-10-14T07:37:51Z</time>
      </trkpt>
      <trkpt lat="45.66287" lon="4.66471">
        <ele>505</ele>
        <time>2018-10-14T07:37:52Z</time>
      </trkpt>
      <trkpt lat="45.66287" lon="4.66467">
        <ele>505</ele>
        <time>2018-10-14T07:37:53Z</time>
      </trkpt>
      <trkpt lat="45.6629" lon="4.66463">
        <ele>506</ele>
        <time>2018-10-14T07:37:54Z</time>
      </trkpt>
      <trkpt lat="45.66291" lon="4.66459">
        <ele>506</ele>
        <time>2018-10-14T07:37:55Z</time>
      </trkpt>
      <trkpt lat="45.66293" lon="4.66455">
        <ele>506</ele>
        <time>2018-10-14T07:37:56Z</time>
      </trkpt>
      <trkpt lat="45.66294" lon="4.66451">
        <ele>506</ele>
        <time>2018-10-14T07:37:57Z</time>
      </trkpt>
      <trkpt lat="45.66296" lon="4.66448">
        <ele>507</ele>
        <time>2018-10-14T07:37:58Z</time>
      </trkpt>
      <trkpt lat="45.66297" lon="4.66445">
        <ele>506</ele>
        <time>2018-10-14T07:37:59Z</time>
      </trkpt>
      <trkpt lat="45.66299" lon="4.66442">
        <ele>507</ele>
        <time>2018-10-14T07:38:00Z</time>
      </trkpt>
      <trkpt lat="45.66301" lon="4.66439">
        <ele>508</ele>
        <time>2018-10-14T07:38:01Z</time>
      </trkpt>
      <trkpt lat="45.66303" lon="4.66435">
        <ele>508</ele>
        <time>2018-10-14T07:38:02Z</time>
      </trkpt>
      <trkpt lat="45.66304" lon="4.66431">
        <ele>508</ele>
        <time>2018-10-14T07:38:03Z</time>
      </trkpt>
      <trkpt lat="45.66304" lon="4.66428">
        <ele>509</ele>
        <time>2018-10-14T07:38:04Z</time>
      </trkpt>
      <trkpt lat="45.66304" lon="4.66425">
        <ele>509</ele>
        <time>2018-10-14T07:38:05Z</time>
      </trkpt>
      <trkpt lat="45.66303" lon="4.6642">
        <ele>509</ele>
        <time>2018-10-14T07:38:06Z</time>
      </trkpt>
      <trkpt lat="45.66302" lon="4.66417">
        <ele>509</ele>
        <time>2018-10-14T07:38:07Z</time>
      </trkpt>
      <trkpt lat="45.66301" lon="4.66414">
        <ele>509</ele>
        <time>2018-10-14T07:38:08Z</time>
      </trkpt>
      <trkpt lat="45.663" lon="4.66412">
        <ele>509</ele>
        <time>2018-10-14T07:38:09Z</time>
      </trkpt>
      <trkpt lat="45.66298" lon="4.66409">
        <ele>510</ele>
        <time>2018-10-14T07:38:10Z</time>
      </trkpt>
      <trkpt lat="45.66297" lon="4.66408">
        <ele>510</ele>
        <time>2018-10-14T07:38:11Z</time>
      </trkpt>
      <trkpt lat="45.66296" lon="4.66408">
        <ele>510</ele>
        <time>2018-10-14T07:38:12Z</time>
      </trkpt>
      <trkpt lat="45.66294" lon="4.66407">
        <ele>510</ele>
        <time>2018-10-14T07:38:13Z</time>
      </trkpt>
      <trkpt lat="45.66292" lon="4.66407">
        <ele>510</ele>
        <time>2018-10-14T07:38:14Z</time>
      </trkpt>
      <trkpt lat="45.66291" lon="4.66406">
        <ele>511</ele>
        <time>2018-10-14T07:38:15Z</time>
      </trkpt>
      <trkpt lat="45.6629" lon="4.66406">
        <ele>512</ele>
        <time>2018-10-14T07:38:16Z</time>
      </trkpt>
      <trkpt lat="45.66288" lon="4.66406">
        <ele>513</ele>
        <time>2018-10-14T07:38:17Z</time>
      </trkpt>
      <trkpt lat="45.66286" lon="4.66405">
        <ele>513</ele>
        <time>2018-10-14T07:38:18Z</time>
      </trkpt>
      <trkpt lat="45.66283" lon="4.66405">
        <ele>515</ele>
        <time>2018-10-14T07:38:19Z</time>
      </trkpt>
      <trkpt lat="45.6628" lon="4.66404">
        <ele>516</ele>
        <time>2018-10-14T07:38:21Z</time>
      </trkpt>
      <trkpt lat="45.66278" lon="4.66403">
        <ele>516</ele>
        <time>2018-10-14T07:38:22Z</time>
      </trkpt>
      <trkpt lat="45.66275" lon="4.66402">
        <ele>516</ele>
        <time>2018-10-14T07:38:23Z</time>
      </trkpt>
      <trkpt lat="45.66272" lon="4.664">
        <ele>515</ele>
        <time>2018-10-14T07:38:24Z</time>
      </trkpt>
      <trkpt lat="45.66269" lon="4.66399">
        <ele>516</ele>
        <time>2018-10-14T07:38:25Z</time>
      </trkpt>
      <trkpt lat="45.66266" lon="4.66397">
        <ele>516</ele>
        <time>2018-10-14T07:38:26Z</time>
      </trkpt>
      <trkpt lat="45.66262" lon="4.66395">
        <ele>516</ele>
        <time>2018-10-14T07:38:27Z</time>
      </trkpt>
      <trkpt lat="45.6626" lon="4.66394">
        <ele>515</ele>
        <time>2018-10-14T07:38:28Z</time>
      </trkpt>
      <trkpt lat="45.66258" lon="4.66392">
        <ele>515</ele>
        <time>2018-10-14T07:38:29Z</time>
      </trkpt>
      <trkpt lat="45.66256" lon="4.6639">
        <ele>515</ele>
        <time>2018-10-14T07:38:30Z</time>
      </trkpt>
      <trkpt lat="45.66253" lon="4.66389">
        <ele>515</ele>
        <time>2018-10-14T07:38:31Z</time>
      </trkpt>
      <trkpt lat="45.6625" lon="4.66387">
        <ele>515</ele>
        <time>2018-10-14T07:38:32Z</time>
      </trkpt>
      <trkpt lat="45.66244" lon="4.66384">
        <ele>515</ele>
        <time>2018-10-14T07:38:34Z</time>
      </trkpt>
      <trkpt lat="45.66242" lon="4.66382">
        <ele>515</ele>
        <time>2018-10-14T07:38:35Z</time>
      </trkpt>
      <trkpt lat="45.6624" lon="4.66379">
        <ele>515</ele>
        <time>2018-10-14T07:38:36Z</time>
      </trkpt>
      <trkpt lat="45.66238" lon="4.66377">
        <ele>515</ele>
        <time>2018-10-14T07:38:37Z</time>
      </trkpt>
      <trkpt lat="45.66236" lon="4.66375">
        <ele>514</ele>
        <time>2018-10-14T07:38:38Z</time>
      </trkpt>
      <trkpt lat="45.66233" lon="4.66372">
        <ele>515</ele>
        <time>2018-10-14T07:38:39Z</time>
      </trkpt>
      <trkpt lat="45.66231" lon="4.6637">
        <ele>515</ele>
        <time>2018-10-14T07:38:40Z</time>
      </trkpt>
      <trkpt lat="45.6623" lon="4.66368">
        <ele>515</ele>
        <time>2018-10-14T07:38:41Z</time>
      </trkpt>
      <trkpt lat="45.66228" lon="4.66366">
        <ele>514</ele>
        <time>2018-10-14T07:38:42Z</time>
      </trkpt>
      <trkpt lat="45.66226" lon="4.66364">
        <ele>514</ele>
        <time>2018-10-14T07:38:43Z</time>
      </trkpt>
      <trkpt lat="45.66224" lon="4.66362">
        <ele>514</ele>
        <time>2018-10-14T07:38:44Z</time>
      </trkpt>
      <trkpt lat="45.66222" lon="4.66361">
        <ele>514</ele>
        <time>2018-10-14T07:38:45Z</time>
      </trkpt>
      <trkpt lat="45.6622" lon="4.66359">
        <ele>515</ele>
        <time>2018-10-14T07:38:46Z</time>
      </trkpt>
      <trkpt lat="45.66218" lon="4.66357">
        <ele>515</ele>
        <time>2018-10-14T07:38:47Z</time>
      </trkpt>
      <trkpt lat="45.66216" lon="4.66355">
        <ele>515</ele>
        <time>2018-10-14T07:38:48Z</time>
      </trkpt>
      <trkpt lat="45.66215" lon="4.66353">
        <ele>516</ele>
        <time>2018-10-14T07:38:49Z</time>
      </trkpt>
      <trkpt lat="45.66213" lon="4.66351">
        <ele>516</ele>
        <time>2018-10-14T07:38:50Z</time>
      </trkpt>
      <trkpt lat="45.66211" lon="4.66349">
        <ele>516</ele>
        <time>2018-10-14T07:38:51Z</time>
      </trkpt>
      <trkpt lat="45.6621" lon="4.66348">
        <ele>517</ele>
        <time>2018-10-14T07:38:52Z</time>
      </trkpt>
      <trkpt lat="45.66209" lon="4.66346">
        <ele>517</ele>
        <time>2018-10-14T07:38:53Z</time>
      </trkpt>
      <trkpt lat="45.66207" lon="4.66345">
        <ele>517</ele>
        <time>2018-10-14T07:38:54Z</time>
      </trkpt>
      <trkpt lat="45.66205" lon="4.66342">
        <ele>517</ele>
        <time>2018-10-14T07:38:55Z</time>
      </trkpt>
      <trkpt lat="45.66204" lon="4.6634">
        <ele>517</ele>
        <time>2018-10-14T07:38:56Z</time>
      </trkpt>
      <trkpt lat="45.66203" lon="4.66338">
        <ele>517</ele>
        <time>2018-10-14T07:38:57Z</time>
      </trkpt>
      <trkpt lat="45.66201" lon="4.66336">
        <ele>517</ele>
        <time>2018-10-14T07:38:58Z</time>
      </trkpt>
      <trkpt lat="45.662" lon="4.66335">
        <ele>518</ele>
        <time>2018-10-14T07:38:59Z</time>
      </trkpt>
      <trkpt lat="45.66198" lon="4.66333">
        <ele>518</ele>
        <time>2018-10-14T07:39:00Z</time>
      </trkpt>
      <trkpt lat="45.66196" lon="4.66331">
        <ele>518</ele>
        <time>2018-10-14T07:39:02Z</time>
      </trkpt>
      <trkpt lat="45.66195" lon="4.6633">
        <ele>518</ele>
        <time>2018-10-14T07:39:03Z</time>
      </trkpt>
      <trkpt lat="45.66193" lon="4.66329">
        <ele>518</ele>
        <time>2018-10-14T07:39:04Z</time>
      </trkpt>
      <trkpt lat="45.66192" lon="4.66326">
        <ele>518</ele>
        <time>2018-10-14T07:39:06Z</time>
      </trkpt>
      <trkpt lat="45.6619" lon="4.66323">
        <ele>519</ele>
        <time>2018-10-14T07:39:07Z</time>
      </trkpt>
      <trkpt lat="45.66188" lon="4.66321">
        <ele>519</ele>
        <time>2018-10-14T07:39:08Z</time>
      </trkpt>
      <trkpt lat="45.66187" lon="4.6632">
        <ele>519</ele>
        <time>2018-10-14T07:39:09Z</time>
      </trkpt>
      <trkpt lat="45.66185" lon="4.66318">
        <ele>520</ele>
        <time>2018-10-14T07:39:10Z</time>
      </trkpt>
      <trkpt lat="45.66183" lon="4.66317">
        <ele>520</ele>
        <time>2018-10-14T07:39:11Z</time>
      </trkpt>
      <trkpt lat="45.66181" lon="4.66316">
        <ele>520</ele>
        <time>2018-10-14T07:39:12Z</time>
      </trkpt>
      <trkpt lat="45.6618" lon="4.66315">
        <ele>521</ele>
        <time>2018-10-14T07:39:13Z</time>
      </trkpt>
      <trkpt lat="45.66178" lon="4.66314">
        <ele>521</ele>
        <time>2018-10-14T07:39:14Z</time>
      </trkpt>
      <trkpt lat="45.66176" lon="4.66314">
        <ele>523</ele>
        <time>2018-10-14T07:39:15Z</time>
      </trkpt>
      <trkpt lat="45.66175" lon="4.66314">
        <ele>523</ele>
        <time>2018-10-14T07:39:16Z</time>
      </trkpt>
      <trkpt lat="45.66173" lon="4.66313">
        <ele>523</ele>
        <time>2018-10-14T07:39:17Z</time>
      </trkpt>
      <trkpt lat="45.66172" lon="4.66313">
        <ele>523</ele>
        <time>2018-10-14T07:39:18Z</time>
      </trkpt>
      <trkpt lat="45.6617" lon="4.66313">
        <ele>523</ele>
        <time>2018-10-14T07:39:19Z</time>
      </trkpt>
      <trkpt lat="45.66169" lon="4.66312">
        <ele>523</ele>
        <time>2018-10-14T07:39:21Z</time>
      </trkpt>
      <trkpt lat="45.66169" lon="4.66311">
        <ele>524</ele>
        <time>2018-10-14T07:39:22Z</time>
      </trkpt>
      <trkpt lat="45.66168" lon="4.6631">
        <ele>524</ele>
        <time>2018-10-14T07:39:23Z</time>
      </trkpt>
      <trkpt lat="45.66166" lon="4.66309">
        <ele>524</ele>
        <time>2018-10-14T07:39:24Z</time>
      </trkpt>
      <trkpt lat="45.66165" lon="4.66309">
        <ele>524</ele>
        <time>2018-10-14T07:39:25Z</time>
      </trkpt>
      <trkpt lat="45.66163" lon="4.66309">
        <ele>524</ele>
        <time>2018-10-14T07:39:26Z</time>
      </trkpt>
      <trkpt lat="45.66162" lon="4.66308">
        <ele>525</ele>
        <time>2018-10-14T07:39:27Z</time>
      </trkpt>
      <trkpt lat="45.66161" lon="4.66308">
        <ele>524</ele>
        <time>2018-10-14T07:39:28Z</time>
      </trkpt>
      <trkpt lat="45.66159" lon="4.66307">
        <ele>525</ele>
        <time>2018-10-14T07:39:29Z</time>
      </trkpt>
      <trkpt lat="45.66158" lon="4.66306">
        <ele>525</ele>
        <time>2018-10-14T07:39:30Z</time>
      </trkpt>
      <trkpt lat="45.66156" lon="4.66304">
        <ele>525</ele>
        <time>2018-10-14T07:39:31Z</time>
      </trkpt>
      <trkpt lat="45.66155" lon="4.66303">
        <ele>525</ele>
        <time>2018-10-14T07:39:32Z</time>
      </trkpt>
      <trkpt lat="45.66153" lon="4.66302">
        <ele>526</ele>
        <time>2018-10-14T07:39:33Z</time>
      </trkpt>
      <trkpt lat="45.66152" lon="4.66301">
        <ele>526</ele>
        <time>2018-10-14T07:39:34Z</time>
      </trkpt>
      <trkpt lat="45.66151" lon="4.663">
        <ele>526</ele>
        <time>2018-10-14T07:39:35Z</time>
      </trkpt>
      <trkpt lat="45.6615" lon="4.663">
        <ele>527</ele>
        <time>2018-10-14T07:39:36Z</time>
      </trkpt>
      <trkpt lat="45.66148" lon="4.66299">
        <ele>527</ele>
        <time>2018-10-14T07:39:37Z</time>
      </trkpt>
      <trkpt lat="45.66147" lon="4.66298">
        <ele>527</ele>
        <time>2018-10-14T07:39:38Z</time>
      </trkpt>
      <trkpt lat="45.66146" lon="4.66298">
        <ele>527</ele>
        <time>2018-10-14T07:39:39Z</time>
      </trkpt>
      <trkpt lat="45.66145" lon="4.66297">
        <ele>527</ele>
        <time>2018-10-14T07:39:40Z</time>
      </trkpt>
      <trkpt lat="45.66144" lon="4.66296">
        <ele>527</ele>
        <time>2018-10-14T07:39:41Z</time>
      </trkpt>
      <trkpt lat="45.66143" lon="4.66294">
        <ele>527</ele>
        <time>2018-10-14T07:39:42Z</time>
      </trkpt>
      <trkpt lat="45.66142" lon="4.66293">
        <ele>527</ele>
        <time>2018-10-14T07:39:43Z</time>
      </trkpt>
      <trkpt lat="45.66141" lon="4.66292">
        <ele>528</ele>
        <time>2018-10-14T07:39:44Z</time>
      </trkpt>
      <trkpt lat="45.6614" lon="4.66291">
        <ele>528</ele>
        <time>2018-10-14T07:39:45Z</time>
      </trkpt>
      <trkpt lat="45.66139" lon="4.6629">
        <ele>529</ele>
        <time>2018-10-14T07:39:46Z</time>
      </trkpt>
      <trkpt lat="45.66138" lon="4.66289">
        <ele>529</ele>
        <time>2018-10-14T07:39:47Z</time>
      </trkpt>
      <trkpt lat="45.66136" lon="4.66288">
        <ele>529</ele>
        <time>2018-10-14T07:39:48Z</time>
      </trkpt>
      <trkpt lat="45.66135" lon="4.66287">
        <ele>529</ele>
        <time>2018-10-14T07:39:49Z</time>
      </trkpt>
      <trkpt lat="45.66133" lon="4.66286">
        <ele>530</ele>
        <time>2018-10-14T07:39:50Z</time>
      </trkpt>
      <trkpt lat="45.66132" lon="4.66286">
        <ele>530</ele>
        <time>2018-10-14T07:39:51Z</time>
      </trkpt>
      <trkpt lat="45.6613" lon="4.66285">
        <ele>530</ele>
        <time>2018-10-14T07:39:52Z</time>
      </trkpt>
      <trkpt lat="45.66129" lon="4.66284">
        <ele>530</ele>
        <time>2018-10-14T07:39:53Z</time>
      </trkpt>
      <trkpt lat="45.66128" lon="4.66283">
        <ele>531</ele>
        <time>2018-10-14T07:39:54Z</time>
      </trkpt>
      <trkpt lat="45.66127" lon="4.66282">
        <ele>532</ele>
        <time>2018-10-14T07:39:55Z</time>
      </trkpt>
      <trkpt lat="45.66126" lon="4.66281">
        <ele>532</ele>
        <time>2018-10-14T07:39:56Z</time>
      </trkpt>
      <trkpt lat="45.66125" lon="4.6628">
        <ele>532</ele>
        <time>2018-10-14T07:39:57Z</time>
      </trkpt>
      <trkpt lat="45.66124" lon="4.66279">
        <ele>533</ele>
        <time>2018-10-14T07:39:58Z</time>
      </trkpt>
      <trkpt lat="45.66123" lon="4.66278">
        <ele>533</ele>
        <time>2018-10-14T07:39:59Z</time>
      </trkpt>
      <trkpt lat="45.66122" lon="4.66277">
        <ele>534</ele>
        <time>2018-10-14T07:40:00Z</time>
      </trkpt>
      <trkpt lat="45.66121" lon="4.66277">
        <ele>534</ele>
        <time>2018-10-14T07:40:01Z</time>
      </trkpt>
      <trkpt lat="45.6612" lon="4.66276">
        <ele>535</ele>
        <time>2018-10-14T07:40:02Z</time>
      </trkpt>
      <trkpt lat="45.66119" lon="4.66275">
        <ele>535</ele>
        <time>2018-10-14T07:40:03Z</time>
      </trkpt>
      <trkpt lat="45.66117" lon="4.66274">
        <ele>535</ele>
        <time>2018-10-14T07:40:04Z</time>
      </trkpt>
      <trkpt lat="45.66115" lon="4.66273">
        <ele>535</ele>
        <time>2018-10-14T07:40:05Z</time>
      </trkpt>
      <trkpt lat="45.66113" lon="4.66271">
        <ele>535</ele>
        <time>2018-10-14T07:40:06Z</time>
      </trkpt>
      <trkpt lat="45.66112" lon="4.6627">
        <ele>536</ele>
        <time>2018-10-14T07:40:07Z</time>
      </trkpt>
      <trkpt lat="45.66111" lon="4.6627">
        <ele>536</ele>
        <time>2018-10-14T07:40:08Z</time>
      </trkpt>
      <trkpt lat="45.66111" lon="4.66269">
        <ele>537</ele>
        <time>2018-10-14T07:40:09Z</time>
      </trkpt>
      <trkpt lat="45.66109" lon="4.66267">
        <ele>537</ele>
        <time>2018-10-14T07:40:10Z</time>
      </trkpt>
      <trkpt lat="45.66108" lon="4.66265">
        <ele>537</ele>
        <time>2018-10-14T07:40:11Z</time>
      </trkpt>
      <trkpt lat="45.66106" lon="4.66264">
        <ele>537</ele>
        <time>2018-10-14T07:40:12Z</time>
      </trkpt>
      <trkpt lat="45.66105" lon="4.66263">
        <ele>537</ele>
        <time>2018-10-14T07:40:13Z</time>
      </trkpt>
      <trkpt lat="45.66103" lon="4.66262">
        <ele>538</ele>
        <time>2018-10-14T07:40:14Z</time>
      </trkpt>
      <trkpt lat="45.66102" lon="4.6626">
        <ele>538</ele>
        <time>2018-10-14T07:40:15Z</time>
      </trkpt>
      <trkpt lat="45.66101" lon="4.66259">
        <ele>539</ele>
        <time>2018-10-14T07:40:16Z</time>
      </trkpt>
      <trkpt lat="45.66099" lon="4.66258">
        <ele>539</ele>
        <time>2018-10-14T07:40:17Z</time>
      </trkpt>
      <trkpt lat="45.66097" lon="4.66257">
        <ele>539</ele>
        <time>2018-10-14T07:40:18Z</time>
      </trkpt>
      <trkpt lat="45.66096" lon="4.66256">
        <ele>540</ele>
        <time>2018-10-14T07:40:19Z</time>
      </trkpt>
      <trkpt lat="45.66094" lon="4.66255">
        <ele>540</ele>
        <time>2018-10-14T07:40:20Z</time>
      </trkpt>
      <trkpt lat="45.66093" lon="4.66254">
        <ele>541</ele>
        <time>2018-10-14T07:40:21Z</time>
      </trkpt>
      <trkpt lat="45.66092" lon="4.66253">
        <ele>542</ele>
        <time>2018-10-14T07:40:22Z</time>
      </trkpt>
      <trkpt lat="45.66089" lon="4.66252">
        <ele>542</ele>
        <time>2018-10-14T07:40:23Z</time>
      </trkpt>
      <trkpt lat="45.66086" lon="4.66251">
        <ele>542</ele>
        <time>2018-10-14T07:40:24Z</time>
      </trkpt>
      <trkpt lat="45.66084" lon="4.66249">
        <ele>541</ele>
        <time>2018-10-14T07:40:25Z</time>
      </trkpt>
      <trkpt lat="45.66082" lon="4.66247">
        <ele>541</ele>
        <time>2018-10-14T07:40:26Z</time>
      </trkpt>
      <trkpt lat="45.66081" lon="4.66246">
        <ele>542</ele>
        <time>2018-10-14T07:40:27Z</time>
      </trkpt>
      <trkpt lat="45.66079" lon="4.66244">
        <ele>542</ele>
        <time>2018-10-14T07:40:28Z</time>
      </trkpt>
      <trkpt lat="45.66077" lon="4.66243">
        <ele>542</ele>
        <time>2018-10-14T07:40:29Z</time>
      </trkpt>
      <trkpt lat="45.66076" lon="4.66242">
        <ele>543</ele>
        <time>2018-10-14T07:40:30Z</time>
      </trkpt>
      <trkpt lat="45.66075" lon="4.66241">
        <ele>543</ele>
        <time>2018-10-14T07:40:31Z</time>
      </trkpt>
      <trkpt lat="45.66074" lon="4.66239">
        <ele>542</ele>
        <time>2018-10-14T07:40:32Z</time>
      </trkpt>
      <trkpt lat="45.66073" lon="4.66237">
        <ele>542</ele>
        <time>2018-10-14T07:40:33Z</time>
      </trkpt>
      <trkpt lat="45.66072" lon="4.66234">
        <ele>542</ele>
        <time>2018-10-14T07:40:34Z</time>
      </trkpt>
      <trkpt lat="45.66071" lon="4.66231">
        <ele>543</ele>
        <time>2018-10-14T07:40:35Z</time>
      </trkpt>
      <trkpt lat="45.66071" lon="4.66228">
        <ele>543</ele>
        <time>2018-10-14T07:40:36Z</time>
      </trkpt>
      <trkpt lat="45.66071" lon="4.66225">
        <ele>543</ele>
        <time>2018-10-14T07:40:37Z</time>
      </trkpt>
      <trkpt lat="45.66072" lon="4.66222">
        <ele>543</ele>
        <time>2018-10-14T07:40:38Z</time>
      </trkpt>
      <trkpt lat="45.66074" lon="4.66219">
        <ele>543</ele>
        <time>2018-10-14T07:40:39Z</time>
      </trkpt>
      <trkpt lat="45.66075" lon="4.66216">
        <ele>543</ele>
        <time>2018-10-14T07:40:40Z</time>
      </trkpt>
      <trkpt lat="45.66077" lon="4.66214">
        <ele>544</ele>
        <time>2018-10-14T07:40:41Z</time>
      </trkpt>
      <trkpt lat="45.66078" lon="4.66212">
        <ele>544</ele>
        <time>2018-10-14T07:40:42Z</time>
      </trkpt>
      <trkpt lat="45.66079" lon="4.6621">
        <ele>545</ele>
        <time>2018-10-14T07:40:43Z</time>
      </trkpt>
      <trkpt lat="45.6608" lon="4.66209">
        <ele>545</ele>
        <time>2018-10-14T07:40:44Z</time>
      </trkpt>
      <trkpt lat="45.66082" lon="4.66207">
        <ele>546</ele>
        <time>2018-10-14T07:40:45Z</time>
      </trkpt>
      <trkpt lat="45.66083" lon="4.66206">
        <ele>546</ele>
        <time>2018-10-14T07:40:46Z</time>
      </trkpt>
      <trkpt lat="45.66084" lon="4.66204">
        <ele>546</ele>
        <time>2018-10-14T07:40:47Z</time>
      </trkpt>
      <trkpt lat="45.66085" lon="4.66202">
        <ele>546</ele>
        <time>2018-10-14T07:40:48Z</time>
      </trkpt>
      <trkpt lat="45.66087" lon="4.662">
        <ele>546</ele>
        <time>2018-10-14T07:40:49Z</time>
      </trkpt>
      <trkpt lat="45.66088" lon="4.66199">
        <ele>547</ele>
        <time>2018-10-14T07:40:50Z</time>
      </trkpt>
      <trkpt lat="45.66089" lon="4.66197">
        <ele>547</ele>
        <time>2018-10-14T07:40:51Z</time>
      </trkpt>
      <trkpt lat="45.6609" lon="4.66195">
        <ele>547</ele>
        <time>2018-10-14T07:40:52Z</time>
      </trkpt>
      <trkpt lat="45.66092" lon="4.66192">
        <ele>548</ele>
        <time>2018-10-14T07:40:53Z</time>
      </trkpt>
      <trkpt lat="45.66093" lon="4.6619">
        <ele>548</ele>
        <time>2018-10-14T07:40:54Z</time>
      </trkpt>
      <trkpt lat="45.66094" lon="4.66188">
        <ele>548</ele>
        <time>2018-10-14T07:40:55Z</time>
      </trkpt>
      <trkpt lat="45.66095" lon="4.66185">
        <ele>548</ele>
        <time>2018-10-14T07:40:56Z</time>
      </trkpt>
      <trkpt lat="45.66096" lon="4.66182">
        <ele>548</ele>
        <time>2018-10-14T07:40:57Z</time>
      </trkpt>
      <trkpt lat="45.66097" lon="4.6618">
        <ele>548</ele>
        <time>2018-10-14T07:40:58Z</time>
      </trkpt>
      <trkpt lat="45.66098" lon="4.66177">
        <ele>548</ele>
        <time>2018-10-14T07:40:59Z</time>
      </trkpt>
      <trkpt lat="45.66099" lon="4.66175">
        <ele>548</ele>
        <time>2018-10-14T07:41:00Z</time>
      </trkpt>
      <trkpt lat="45.66099" lon="4.66172">
        <ele>549</ele>
        <time>2018-10-14T07:41:01Z</time>
      </trkpt>
      <trkpt lat="45.661" lon="4.66169">
        <ele>548</ele>
        <time>2018-10-14T07:41:02Z</time>
      </trkpt>
      <trkpt lat="45.661" lon="4.66166">
        <ele>549</ele>
        <time>2018-10-14T07:41:03Z</time>
      </trkpt>
      <trkpt lat="45.661" lon="4.66163">
        <ele>549</ele>
        <time>2018-10-14T07:41:04Z</time>
      </trkpt>
      <trkpt lat="45.661" lon="4.66161">
        <ele>549</ele>
        <time>2018-10-14T07:41:05Z</time>
      </trkpt>
      <trkpt lat="45.661" lon="4.66158">
        <ele>549</ele>
        <time>2018-10-14T07:41:06Z</time>
      </trkpt>
      <trkpt lat="45.66099" lon="4.66155">
        <ele>549</ele>
        <time>2018-10-14T07:41:07Z</time>
      </trkpt>
      <trkpt lat="45.66098" lon="4.66152">
        <ele>550</ele>
        <time>2018-10-14T07:41:08Z</time>
      </trkpt>
      <trkpt lat="45.66098" lon="4.6615">
        <ele>549</ele>
        <time>2018-10-14T07:41:09Z</time>
      </trkpt>
      <trkpt lat="45.66097" lon="4.66147">
        <ele>549</ele>
        <time>2018-10-14T07:41:10Z</time>
      </trkpt>
      <trkpt lat="45.66097" lon="4.66144">
        <ele>549</ele>
        <time>2018-10-14T07:41:11Z</time>
      </trkpt>
      <trkpt lat="45.66096" lon="4.66141">
        <ele>549</ele>
        <time>2018-10-14T07:41:12Z</time>
      </trkpt>
      <trkpt lat="45.66096" lon="4.66138">
        <ele>550</ele>
        <time>2018-10-14T07:41:13Z</time>
      </trkpt>
      <trkpt lat="45.66095" lon="4.66135">
        <ele>550</ele>
        <time>2018-10-14T07:41:14Z</time>
      </trkpt>
      <trkpt lat="45.66095" lon="4.66132">
        <ele>551</ele>
        <time>2018-10-14T07:41:15Z</time>
      </trkpt>
      <trkpt lat="45.66095" lon="4.66129">
        <ele>550</ele>
        <time>2018-10-14T07:41:16Z</time>
      </trkpt>
      <trkpt lat="45.66095" lon="4.66126">
        <ele>550</ele>
        <time>2018-10-14T07:41:17Z</time>
      </trkpt>
      <trkpt lat="45.66095" lon="4.66123">
        <ele>551</ele>
        <time>2018-10-14T07:41:18Z</time>
      </trkpt>
      <trkpt lat="45.66095" lon="4.66119">
        <ele>551</ele>
        <time>2018-10-14T07:41:19Z</time>
      </trkpt>
      <trkpt lat="45.66095" lon="4.66116">
        <ele>551</ele>
        <time>2018-10-14T07:41:20Z</time>
      </trkpt>
      <trkpt lat="45.66095" lon="4.66113">
        <ele>552</ele>
        <time>2018-10-14T07:41:21Z</time>
      </trkpt>
      <trkpt lat="45.66095" lon="4.6611">
        <ele>552</ele>
        <time>2018-10-14T07:41:22Z</time>
      </trkpt>
      <trkpt lat="45.66095" lon="4.66106">
        <ele>552</ele>
        <time>2018-10-14T07:41:23Z</time>
      </trkpt>
      <trkpt lat="45.66095" lon="4.66103">
        <ele>552</ele>
        <time>2018-10-14T07:41:24Z</time>
      </trkpt>
      <trkpt lat="45.66094" lon="4.661">
        <ele>552</ele>
        <time>2018-10-14T07:41:25Z</time>
      </trkpt>
      <trkpt lat="45.66093" lon="4.66097">
        <ele>552</ele>
        <time>2018-10-14T07:41:26Z</time>
      </trkpt>
      <trkpt lat="45.66092" lon="4.66094">
        <ele>552</ele>
        <time>2018-10-14T07:41:27Z</time>
      </trkpt>
      <trkpt lat="45.66091" lon="4.66091">
        <ele>552</ele>
        <time>2018-10-14T07:41:28Z</time>
      </trkpt>
      <trkpt lat="45.6609" lon="4.66087">
        <ele>553</ele>
        <time>2018-10-14T07:41:29Z</time>
      </trkpt>
      <trkpt lat="45.6609" lon="4.66084">
        <ele>553</ele>
        <time>2018-10-14T07:41:30Z</time>
      </trkpt>
      <trkpt lat="45.6609" lon="4.66081">
        <ele>553</ele>
        <time>2018-10-14T07:41:31Z</time>
      </trkpt>
      <trkpt lat="45.6609" lon="4.66078">
        <ele>553</ele>
        <time>2018-10-14T07:41:32Z</time>
      </trkpt>
      <trkpt lat="45.6609" lon="4.66074">
        <ele>553</ele>
        <time>2018-10-14T07:41:33Z</time>
      </trkpt>
      <trkpt lat="45.6609" lon="4.66071">
        <ele>553</ele>
        <time>2018-10-14T07:41:34Z</time>
      </trkpt>
      <trkpt lat="45.6609" lon="4.66068">
        <ele>553</ele>
        <time>2018-10-14T07:41:35Z</time>
      </trkpt>
      <trkpt lat="45.66091" lon="4.66065">
        <ele>553</ele>
        <time>2018-10-14T07:41:36Z</time>
      </trkpt>
      <trkpt lat="45.66092" lon="4.66062">
        <ele>554</ele>
        <time>2018-10-14T07:41:37Z</time>
      </trkpt>
      <trkpt lat="45.66092" lon="4.66059">
        <ele>553</ele>
        <time>2018-10-14T07:41:38Z</time>
      </trkpt>
      <trkpt lat="45.66093" lon="4.66056">
        <ele>553</ele>
        <time>2018-10-14T07:41:39Z</time>
      </trkpt>
      <trkpt lat="45.66093" lon="4.66053">
        <ele>553</ele>
        <time>2018-10-14T07:41:40Z</time>
      </trkpt>
      <trkpt lat="45.66094" lon="4.6605">
        <ele>554</ele>
        <time>2018-10-14T07:41:41Z</time>
      </trkpt>
      <trkpt lat="45.66094" lon="4.66047">
        <ele>554</ele>
        <time>2018-10-14T07:41:42Z</time>
      </trkpt>
      <trkpt lat="45.66094" lon="4.66044">
        <ele>554</ele>
        <time>2018-10-14T07:41:43Z</time>
      </trkpt>
      <trkpt lat="45.66094" lon="4.66041">
        <ele>554</ele>
        <time>2018-10-14T07:41:44Z</time>
      </trkpt>
      <trkpt lat="45.66094" lon="4.66038">
        <ele>554</ele>
        <time>2018-10-14T07:41:45Z</time>
      </trkpt>
      <trkpt lat="45.66094" lon="4.66034">
        <ele>554</ele>
        <time>2018-10-14T07:41:46Z</time>
      </trkpt>
      <trkpt lat="45.66094" lon="4.66031">
        <ele>554</ele>
        <time>2018-10-14T07:41:47Z</time>
      </trkpt>
      <trkpt lat="45.66094" lon="4.66027">
        <ele>554</ele>
        <time>2018-10-14T07:41:48Z</time>
      </trkpt>
      <trkpt lat="45.66094" lon="4.66024">
        <ele>555</ele>
        <time>2018-10-14T07:41:49Z</time>
      </trkpt>
      <trkpt lat="45.66094" lon="4.66021">
        <ele>555</ele>
        <time>2018-10-14T07:41:50Z</time>
      </trkpt>
      <trkpt lat="45.66093" lon="4.66017">
        <ele>555</ele>
        <time>2018-10-14T07:41:51Z</time>
      </trkpt>
      <trkpt lat="45.66093" lon="4.66014">
        <ele>555</ele>
        <time>2018-10-14T07:41:52Z</time>
      </trkpt>
      <trkpt lat="45.66093" lon="4.66011">
        <ele>554</ele>
        <time>2018-10-14T07:41:53Z</time>
      </trkpt>
      <trkpt lat="45.66093" lon="4.66008">
        <ele>554</ele>
        <time>2018-10-14T07:41:54Z</time>
      </trkpt>
      <trkpt lat="45.66093" lon="4.66004">
        <ele>554</ele>
        <time>2018-10-14T07:41:55Z</time>
      </trkpt>
      <trkpt lat="45.66094" lon="4.66001">
        <ele>554</ele>
        <time>2018-10-14T07:41:56Z</time>
      </trkpt>
      <trkpt lat="45.66094" lon="4.65998">
        <ele>555</ele>
        <time>2018-10-14T07:41:57Z</time>
      </trkpt>
      <trkpt lat="45.66094" lon="4.65995">
        <ele>556</ele>
        <time>2018-10-14T07:41:58Z</time>
      </trkpt>
      <trkpt lat="45.66094" lon="4.65992">
        <ele>556</ele>
        <time>2018-10-14T07:41:59Z</time>
      </trkpt>
      <trkpt lat="45.66094" lon="4.65989">
        <ele>556</ele>
        <time>2018-10-14T07:42:00Z</time>
      </trkpt>
      <trkpt lat="45.66094" lon="4.65985">
        <ele>556</ele>
        <time>2018-10-14T07:42:01Z</time>
      </trkpt>
      <trkpt lat="45.66094" lon="4.65982">
        <ele>556</ele>
        <time>2018-10-14T07:42:02Z</time>
      </trkpt>
      <trkpt lat="45.66094" lon="4.65979">
        <ele>556</ele>
        <time>2018-10-14T07:42:03Z</time>
      </trkpt>
      <trkpt lat="45.66093" lon="4.65976">
        <ele>556</ele>
        <time>2018-10-14T07:42:04Z</time>
      </trkpt>
      <trkpt lat="45.66093" lon="4.65973">
        <ele>556</ele>
        <time>2018-10-14T07:42:05Z</time>
      </trkpt>
      <trkpt lat="45.66092" lon="4.65969">
        <ele>556</ele>
        <time>2018-10-14T07:42:06Z</time>
      </trkpt>
      <trkpt lat="45.66092" lon="4.65966">
        <ele>557</ele>
        <time>2018-10-14T07:42:07Z</time>
      </trkpt>
      <trkpt lat="45.66091" lon="4.65962">
        <ele>557</ele>
        <time>2018-10-14T07:42:08Z</time>
      </trkpt>
      <trkpt lat="45.6609" lon="4.65959">
        <ele>557</ele>
        <time>2018-10-14T07:42:09Z</time>
      </trkpt>
      <trkpt lat="45.6609" lon="4.65955">
        <ele>557</ele>
        <time>2018-10-14T07:42:10Z</time>
      </trkpt>
      <trkpt lat="45.6609" lon="4.65952">
        <ele>557</ele>
        <time>2018-10-14T07:42:11Z</time>
      </trkpt>
      <trkpt lat="45.66089" lon="4.65948">
        <ele>557</ele>
        <time>2018-10-14T07:42:12Z</time>
      </trkpt>
      <trkpt lat="45.66089" lon="4.65944">
        <ele>557</ele>
        <time>2018-10-14T07:42:13Z</time>
      </trkpt>
      <trkpt lat="45.66089" lon="4.65941">
        <ele>558</ele>
        <time>2018-10-14T07:42:14Z</time>
      </trkpt>
      <trkpt lat="45.66088" lon="4.65937">
        <ele>558</ele>
        <time>2018-10-14T07:42:15Z</time>
      </trkpt>
      <trkpt lat="45.66087" lon="4.65933">
        <ele>558</ele>
        <time>2018-10-14T07:42:16Z</time>
      </trkpt>
      <trkpt lat="45.66086" lon="4.6593">
        <ele>558</ele>
        <time>2018-10-14T07:42:17Z</time>
      </trkpt>
      <trkpt lat="45.66085" lon="4.65927">
        <ele>558</ele>
        <time>2018-10-14T07:42:18Z</time>
      </trkpt>
      <trkpt lat="45.66084" lon="4.65923">
        <ele>558</ele>
        <time>2018-10-14T07:42:19Z</time>
      </trkpt>
      <trkpt lat="45.66083" lon="4.6592">
        <ele>559</ele>
        <time>2018-10-14T07:42:20Z</time>
      </trkpt>
      <trkpt lat="45.66081" lon="4.65916">
        <ele>559</ele>
        <time>2018-10-14T07:42:21Z</time>
      </trkpt>
      <trkpt lat="45.6608" lon="4.65913">
        <ele>560</ele>
        <time>2018-10-14T07:42:22Z</time>
      </trkpt>
      <trkpt lat="45.66078" lon="4.65909">
        <ele>559</ele>
        <time>2018-10-14T07:42:23Z</time>
      </trkpt>
      <trkpt lat="45.66077" lon="4.65906">
        <ele>559</ele>
        <time>2018-10-14T07:42:24Z</time>
      </trkpt>
      <trkpt lat="45.66076" lon="4.65903">
        <ele>560</ele>
        <time>2018-10-14T07:42:25Z</time>
      </trkpt>
      <trkpt lat="45.66075" lon="4.659">
        <ele>560</ele>
        <time>2018-10-14T07:42:26Z</time>
      </trkpt>
      <trkpt lat="45.66074" lon="4.65896">
        <ele>560</ele>
        <time>2018-10-14T07:42:27Z</time>
      </trkpt>
      <trkpt lat="45.66073" lon="4.65893">
        <ele>560</ele>
        <time>2018-10-14T07:42:28Z</time>
      </trkpt>
      <trkpt lat="45.66072" lon="4.6589">
        <ele>560</ele>
        <time>2018-10-14T07:42:29Z</time>
      </trkpt>
      <trkpt lat="45.66071" lon="4.65886">
        <ele>560</ele>
        <time>2018-10-14T07:42:30Z</time>
      </trkpt>
      <trkpt lat="45.66069" lon="4.65881">
        <ele>560</ele>
        <time>2018-10-14T07:42:31Z</time>
      </trkpt>
      <trkpt lat="45.66065" lon="4.65873">
        <ele>561</ele>
        <time>2018-10-14T07:42:32Z</time>
      </trkpt>
      <trkpt lat="45.66063" lon="4.65867">
        <ele>561</ele>
        <time>2018-10-14T07:42:33Z</time>
      </trkpt>
      <trkpt lat="45.6606" lon="4.65862">
        <ele>561</ele>
        <time>2018-10-14T07:42:34Z</time>
      </trkpt>
      <trkpt lat="45.66057" lon="4.65857">
        <ele>561</ele>
        <time>2018-10-14T07:42:35Z</time>
      </trkpt>
      <trkpt lat="45.66055" lon="4.65852">
        <ele>560</ele>
        <time>2018-10-14T07:42:36Z</time>
      </trkpt>
      <trkpt lat="45.66053" lon="4.65846">
        <ele>560</ele>
        <time>2018-10-14T07:42:37Z</time>
      </trkpt>
      <trkpt lat="45.66051" lon="4.6584">
        <ele>560</ele>
        <time>2018-10-14T07:42:38Z</time>
      </trkpt>
      <trkpt lat="45.66048" lon="4.65833">
        <ele>560</ele>
        <time>2018-10-14T07:42:39Z</time>
      </trkpt>
      <trkpt lat="45.66045" lon="4.65827">
        <ele>559</ele>
        <time>2018-10-14T07:42:40Z</time>
      </trkpt>
      <trkpt lat="45.66043" lon="4.6582">
        <ele>559</ele>
        <time>2018-10-14T07:42:41Z</time>
      </trkpt>
      <trkpt lat="45.6604" lon="4.65813">
        <ele>558</ele>
        <time>2018-10-14T07:42:42Z</time>
      </trkpt>
      <trkpt lat="45.66038" lon="4.65807">
        <ele>559</ele>
        <time>2018-10-14T07:42:43Z</time>
      </trkpt>
      <trkpt lat="45.66034" lon="4.658">
        <ele>558</ele>
        <time>2018-10-14T07:42:44Z</time>
      </trkpt>
      <trkpt lat="45.66032" lon="4.65794">
        <ele>558</ele>
        <time>2018-10-14T07:42:45Z</time>
      </trkpt>
      <trkpt lat="45.66029" lon="4.65788">
        <ele>559</ele>
        <time>2018-10-14T07:42:46Z</time>
      </trkpt>
      <trkpt lat="45.66027" lon="4.65782">
        <ele>558</ele>
        <time>2018-10-14T07:42:47Z</time>
      </trkpt>
      <trkpt lat="45.66025" lon="4.65777">
        <ele>557</ele>
        <time>2018-10-14T07:42:48Z</time>
      </trkpt>
      <trkpt lat="45.66022" lon="4.65773">
        <ele>558</ele>
        <time>2018-10-14T07:42:49Z</time>
      </trkpt>
      <trkpt lat="45.66019" lon="4.65768">
        <ele>558</ele>
        <time>2018-10-14T07:42:50Z</time>
      </trkpt>
      <trkpt lat="45.66015" lon="4.65764">
        <ele>557</ele>
        <time>2018-10-14T07:42:51Z</time>
      </trkpt>
      <trkpt lat="45.66011" lon="4.65759">
        <ele>557</ele>
        <time>2018-10-14T07:42:52Z</time>
      </trkpt>
      <trkpt lat="45.66007" lon="4.65756">
        <ele>558</ele>
        <time>2018-10-14T07:42:53Z</time>
      </trkpt>
      <trkpt lat="45.66003" lon="4.65752">
        <ele>558</ele>
        <time>2018-10-14T07:42:54Z</time>
      </trkpt>
      <trkpt lat="45.65999" lon="4.65748">
        <ele>559</ele>
        <time>2018-10-14T07:42:55Z</time>
      </trkpt>
      <trkpt lat="45.65995" lon="4.65745">
        <ele>558</ele>
        <time>2018-10-14T07:42:56Z</time>
      </trkpt>
      <trkpt lat="45.65991" lon="4.65742">
        <ele>558</ele>
        <time>2018-10-14T07:42:57Z</time>
      </trkpt>
      <trkpt lat="45.65987" lon="4.65739">
        <ele>559</ele>
        <time>2018-10-14T07:42:58Z</time>
      </trkpt>
      <trkpt lat="45.65982" lon="4.65737">
        <ele>560</ele>
        <time>2018-10-14T07:42:59Z</time>
      </trkpt>
      <trkpt lat="45.65978" lon="4.65733">
        <ele>560</ele>
        <time>2018-10-14T07:43:00Z</time>
      </trkpt>
      <trkpt lat="45.65973" lon="4.6573">
        <ele>560</ele>
        <time>2018-10-14T07:43:01Z</time>
      </trkpt>
      <trkpt lat="45.6597" lon="4.65727">
        <ele>560</ele>
        <time>2018-10-14T07:43:02Z</time>
      </trkpt>
      <trkpt lat="45.65967" lon="4.65725">
        <ele>560</ele>
        <time>2018-10-14T07:43:03Z</time>
      </trkpt>
      <trkpt lat="45.65964" lon="4.65722">
        <ele>560</ele>
        <time>2018-10-14T07:43:04Z</time>
      </trkpt>
      <trkpt lat="45.6596" lon="4.65719">
        <ele>560</ele>
        <time>2018-10-14T07:43:05Z</time>
      </trkpt>
      <trkpt lat="45.65957" lon="4.65716">
        <ele>560</ele>
        <time>2018-10-14T07:43:06Z</time>
      </trkpt>
      <trkpt lat="45.65955" lon="4.65714">
        <ele>560</ele>
        <time>2018-10-14T07:43:07Z</time>
      </trkpt>
      <trkpt lat="45.65955" lon="4.65713">
        <ele>559</ele>
        <time>2018-10-14T07:43:08Z</time>
      </trkpt>
      <trkpt lat="45.65952" lon="4.65709">
        <ele>559</ele>
        <time>2018-10-14T07:43:09Z</time>
      </trkpt>
      <trkpt lat="45.65945" lon="4.65703">
        <ele>561</ele>
        <time>2018-10-14T07:43:10Z</time>
      </trkpt>
      <trkpt lat="45.65942" lon="4.657">
        <ele>560</ele>
        <time>2018-10-14T07:43:11Z</time>
      </trkpt>
      <trkpt lat="45.65939" lon="4.65697">
        <ele>560</ele>
        <time>2018-10-14T07:43:12Z</time>
      </trkpt>
      <trkpt lat="45.65937" lon="4.65693">
        <ele>560</ele>
        <time>2018-10-14T07:43:13Z</time>
      </trkpt>
      <trkpt lat="45.65935" lon="4.6569">
        <ele>560</ele>
        <time>2018-10-14T07:43:14Z</time>
      </trkpt>
      <trkpt lat="45.65933" lon="4.65685">
        <ele>560</ele>
        <time>2018-10-14T07:43:15Z</time>
      </trkpt>
      <trkpt lat="45.6593" lon="4.65684">
        <ele>560</ele>
        <time>2018-10-14T07:43:16Z</time>
      </trkpt>
      <trkpt lat="45.65928" lon="4.6568">
        <ele>559</ele>
        <time>2018-10-14T07:43:17Z</time>
      </trkpt>
      <trkpt lat="45.65925" lon="4.65678">
        <ele>559</ele>
        <time>2018-10-14T07:43:18Z</time>
      </trkpt>
      <trkpt lat="45.65923" lon="4.65676">
        <ele>559</ele>
        <time>2018-10-14T07:43:19Z</time>
      </trkpt>
      <trkpt lat="45.65922" lon="4.65675">
        <ele>560</ele>
        <time>2018-10-14T07:43:20Z</time>
      </trkpt>
      <trkpt lat="45.65921" lon="4.65673">
        <ele>559</ele>
        <time>2018-10-14T07:43:21Z</time>
      </trkpt>
      <trkpt lat="45.6592" lon="4.65672">
        <ele>559</ele>
        <time>2018-10-14T07:43:22Z</time>
      </trkpt>
      <trkpt lat="45.65918" lon="4.6567">
        <ele>559</ele>
        <time>2018-10-14T07:43:23Z</time>
      </trkpt>
      <trkpt lat="45.65916" lon="4.65668">
        <ele>559</ele>
        <time>2018-10-14T07:43:24Z</time>
      </trkpt>
      <trkpt lat="45.65914" lon="4.65667">
        <ele>558</ele>
        <time>2018-10-14T07:43:25Z</time>
      </trkpt>
      <trkpt lat="45.65912" lon="4.65665">
        <ele>559</ele>
        <time>2018-10-14T07:43:26Z</time>
      </trkpt>
      <trkpt lat="45.6591" lon="4.65663">
        <ele>559</ele>
        <time>2018-10-14T07:43:27Z</time>
      </trkpt>
      <trkpt lat="45.65908" lon="4.65661">
        <ele>559</ele>
        <time>2018-10-14T07:43:28Z</time>
      </trkpt>
      <trkpt lat="45.65906" lon="4.65659">
        <ele>559</ele>
        <time>2018-10-14T07:43:29Z</time>
      </trkpt>
      <trkpt lat="45.65904" lon="4.65657">
        <ele>559</ele>
        <time>2018-10-14T07:43:30Z</time>
      </trkpt>
      <trkpt lat="45.65902" lon="4.65655">
        <ele>559</ele>
        <time>2018-10-14T07:43:31Z</time>
      </trkpt>
      <trkpt lat="45.659" lon="4.65653">
        <ele>560</ele>
        <time>2018-10-14T07:43:32Z</time>
      </trkpt>
      <trkpt lat="45.65898" lon="4.65651">
        <ele>560</ele>
        <time>2018-10-14T07:43:33Z</time>
      </trkpt>
      <trkpt lat="45.65896" lon="4.65649">
        <ele>560</ele>
        <time>2018-10-14T07:43:34Z</time>
      </trkpt>
      <trkpt lat="45.65894" lon="4.65646">
        <ele>560</ele>
        <time>2018-10-14T07:43:35Z</time>
      </trkpt>
      <trkpt lat="45.65892" lon="4.65645">
        <ele>560</ele>
        <time>2018-10-14T07:43:36Z</time>
      </trkpt>
      <trkpt lat="45.6589" lon="4.65643">
        <ele>561</ele>
        <time>2018-10-14T07:43:37Z</time>
      </trkpt>
      <trkpt lat="45.65888" lon="4.65641">
        <ele>561</ele>
        <time>2018-10-14T07:43:38Z</time>
      </trkpt>
      <trkpt lat="45.65886" lon="4.65639">
        <ele>561</ele>
        <time>2018-10-14T07:43:39Z</time>
      </trkpt>
      <trkpt lat="45.65884" lon="4.65636">
        <ele>561</ele>
        <time>2018-10-14T07:43:40Z</time>
      </trkpt>
      <trkpt lat="45.65882" lon="4.65634">
        <ele>561</ele>
        <time>2018-10-14T07:43:41Z</time>
      </trkpt>
      <trkpt lat="45.6588" lon="4.65632">
        <ele>562</ele>
        <time>2018-10-14T07:43:42Z</time>
      </trkpt>
      <trkpt lat="45.65879" lon="4.65629">
        <ele>562</ele>
        <time>2018-10-14T07:43:43Z</time>
      </trkpt>
      <trkpt lat="45.65877" lon="4.65627">
        <ele>562</ele>
        <time>2018-10-14T07:43:44Z</time>
      </trkpt>
      <trkpt lat="45.65876" lon="4.65625">
        <ele>562</ele>
        <time>2018-10-14T07:43:45Z</time>
      </trkpt>
      <trkpt lat="45.65875" lon="4.65622">
        <ele>563</ele>
        <time>2018-10-14T07:43:46Z</time>
      </trkpt>
      <trkpt lat="45.65873" lon="4.65619">
        <ele>563</ele>
        <time>2018-10-14T07:43:47Z</time>
      </trkpt>
      <trkpt lat="45.65872" lon="4.65617">
        <ele>563</ele>
        <time>2018-10-14T07:43:48Z</time>
      </trkpt>
      <trkpt lat="45.65871" lon="4.65614">
        <ele>564</ele>
        <time>2018-10-14T07:43:49Z</time>
      </trkpt>
      <trkpt lat="45.6587" lon="4.65612">
        <ele>563</ele>
        <time>2018-10-14T07:43:50Z</time>
      </trkpt>
      <trkpt lat="45.65869" lon="4.65609">
        <ele>563</ele>
        <time>2018-10-14T07:43:51Z</time>
      </trkpt>
      <trkpt lat="45.65868" lon="4.65607">
        <ele>563</ele>
        <time>2018-10-14T07:43:52Z</time>
      </trkpt>
      <trkpt lat="45.65867" lon="4.65605">
        <ele>564</ele>
        <time>2018-10-14T07:43:53Z</time>
      </trkpt>
      <trkpt lat="45.65867" lon="4.65603">
        <ele>564</ele>
        <time>2018-10-14T07:43:54Z</time>
      </trkpt>
      <trkpt lat="45.65866" lon="4.65601">
        <ele>564</ele>
        <time>2018-10-14T07:43:55Z</time>
      </trkpt>
      <trkpt lat="45.65865" lon="4.65599">
        <ele>565</ele>
        <time>2018-10-14T07:43:56Z</time>
      </trkpt>
      <trkpt lat="45.65864" lon="4.65596">
        <ele>565</ele>
        <time>2018-10-14T07:43:57Z</time>
      </trkpt>
      <trkpt lat="45.65863" lon="4.65593">
        <ele>565</ele>
        <time>2018-10-14T07:43:58Z</time>
      </trkpt>
      <trkpt lat="45.65862" lon="4.65591">
        <ele>565</ele>
        <time>2018-10-14T07:43:59Z</time>
      </trkpt>
      <trkpt lat="45.65861" lon="4.65588">
        <ele>565</ele>
        <time>2018-10-14T07:44:00Z</time>
      </trkpt>
      <trkpt lat="45.65861" lon="4.65585">
        <ele>566</ele>
        <time>2018-10-14T07:44:01Z</time>
      </trkpt>
      <trkpt lat="45.65861" lon="4.65582">
        <ele>565</ele>
        <time>2018-10-14T07:44:02Z</time>
      </trkpt>
      <trkpt lat="45.65861" lon="4.6558">
        <ele>566</ele>
        <time>2018-10-14T07:44:03Z</time>
      </trkpt>
      <trkpt lat="45.6586" lon="4.65577">
        <ele>566</ele>
        <time>2018-10-14T07:44:04Z</time>
      </trkpt>
      <trkpt lat="45.6586" lon="4.65575">
        <ele>566</ele>
        <time>2018-10-14T07:44:05Z</time>
      </trkpt>
      <trkpt lat="45.6586" lon="4.65572">
        <ele>566</ele>
        <time>2018-10-14T07:44:06Z</time>
      </trkpt>
      <trkpt lat="45.6586" lon="4.65569">
        <ele>567</ele>
        <time>2018-10-14T07:44:07Z</time>
      </trkpt>
      <trkpt lat="45.6586" lon="4.65567">
        <ele>567</ele>
        <time>2018-10-14T07:44:08Z</time>
      </trkpt>
      <trkpt lat="45.65859" lon="4.65564">
        <ele>568</ele>
        <time>2018-10-14T07:44:09Z</time>
      </trkpt>
      <trkpt lat="45.65859" lon="4.65561">
        <ele>568</ele>
        <time>2018-10-14T07:44:10Z</time>
      </trkpt>
      <trkpt lat="45.65859" lon="4.65558">
        <ele>568</ele>
        <time>2018-10-14T07:44:11Z</time>
      </trkpt>
      <trkpt lat="45.65857" lon="4.65556">
        <ele>568</ele>
        <time>2018-10-14T07:44:12Z</time>
      </trkpt>
      <trkpt lat="45.65857" lon="4.65553">
        <ele>568</ele>
        <time>2018-10-14T07:44:13Z</time>
      </trkpt>
      <trkpt lat="45.65855" lon="4.6555">
        <ele>568</ele>
        <time>2018-10-14T07:44:14Z</time>
      </trkpt>
      <trkpt lat="45.65854" lon="4.65548">
        <ele>568</ele>
        <time>2018-10-14T07:44:15Z</time>
      </trkpt>
      <trkpt lat="45.65853" lon="4.65545">
        <ele>569</ele>
        <time>2018-10-14T07:44:16Z</time>
      </trkpt>
      <trkpt lat="45.65852" lon="4.65542">
        <ele>569</ele>
        <time>2018-10-14T07:44:17Z</time>
      </trkpt>
      <trkpt lat="45.65852" lon="4.6554">
        <ele>569</ele>
        <time>2018-10-14T07:44:18Z</time>
      </trkpt>
      <trkpt lat="45.65851" lon="4.65537">
        <ele>569</ele>
        <time>2018-10-14T07:44:19Z</time>
      </trkpt>
      <trkpt lat="45.6585" lon="4.65534">
        <ele>569</ele>
        <time>2018-10-14T07:44:20Z</time>
      </trkpt>
      <trkpt lat="45.6585" lon="4.65532">
        <ele>570</ele>
        <time>2018-10-14T07:44:21Z</time>
      </trkpt>
      <trkpt lat="45.65849" lon="4.6553">
        <ele>570</ele>
        <time>2018-10-14T07:44:22Z</time>
      </trkpt>
      <trkpt lat="45.65849" lon="4.65527">
        <ele>570</ele>
        <time>2018-10-14T07:44:23Z</time>
      </trkpt>
      <trkpt lat="45.65848" lon="4.65525">
        <ele>570</ele>
        <time>2018-10-14T07:44:24Z</time>
      </trkpt>
      <trkpt lat="45.65847" lon="4.65522">
        <ele>570</ele>
        <time>2018-10-14T07:44:25Z</time>
      </trkpt>
      <trkpt lat="45.65846" lon="4.65519">
        <ele>570</ele>
        <time>2018-10-14T07:44:26Z</time>
      </trkpt>
      <trkpt lat="45.65845" lon="4.65517">
        <ele>570</ele>
        <time>2018-10-14T07:44:27Z</time>
      </trkpt>
      <trkpt lat="45.65844" lon="4.65516">
        <ele>570</ele>
        <time>2018-10-14T07:44:28Z</time>
      </trkpt>
      <trkpt lat="45.65842" lon="4.65514">
        <ele>570</ele>
        <time>2018-10-14T07:44:29Z</time>
      </trkpt>
      <trkpt lat="45.6584" lon="4.65513">
        <ele>571</ele>
        <time>2018-10-14T07:44:30Z</time>
      </trkpt>
      <trkpt lat="45.65838" lon="4.65511">
        <ele>571</ele>
        <time>2018-10-14T07:44:31Z</time>
      </trkpt>
      <trkpt lat="45.65836" lon="4.6551">
        <ele>571</ele>
        <time>2018-10-14T07:44:32Z</time>
      </trkpt>
      <trkpt lat="45.65834" lon="4.65508">
        <ele>571</ele>
        <time>2018-10-14T07:44:33Z</time>
      </trkpt>
      <trkpt lat="45.65833" lon="4.65506">
        <ele>571</ele>
        <time>2018-10-14T07:44:34Z</time>
      </trkpt>
      <trkpt lat="45.65831" lon="4.65504">
        <ele>571</ele>
        <time>2018-10-14T07:44:35Z</time>
      </trkpt>
      <trkpt lat="45.6583" lon="4.65503">
        <ele>571</ele>
        <time>2018-10-14T07:44:36Z</time>
      </trkpt>
      <trkpt lat="45.65828" lon="4.65501">
        <ele>571</ele>
        <time>2018-10-14T07:44:37Z</time>
      </trkpt>
      <trkpt lat="45.65826" lon="4.655">
        <ele>572</ele>
        <time>2018-10-14T07:44:38Z</time>
      </trkpt>
      <trkpt lat="45.65825" lon="4.65498">
        <ele>572</ele>
        <time>2018-10-14T07:44:39Z</time>
      </trkpt>
      <trkpt lat="45.65823" lon="4.65496">
        <ele>573</ele>
        <time>2018-10-14T07:44:40Z</time>
      </trkpt>
      <trkpt lat="45.65821" lon="4.65494">
        <ele>573</ele>
        <time>2018-10-14T07:44:41Z</time>
      </trkpt>
      <trkpt lat="45.65819" lon="4.65492">
        <ele>574</ele>
        <time>2018-10-14T07:44:42Z</time>
      </trkpt>
      <trkpt lat="45.65817" lon="4.6549">
        <ele>574</ele>
        <time>2018-10-14T07:44:43Z</time>
      </trkpt>
      <trkpt lat="45.65815" lon="4.65489">
        <ele>574</ele>
        <time>2018-10-14T07:44:44Z</time>
      </trkpt>
      <trkpt lat="45.65813" lon="4.65487">
        <ele>574</ele>
        <time>2018-10-14T07:44:45Z</time>
      </trkpt>
      <trkpt lat="45.65812" lon="4.65485">
        <ele>574</ele>
        <time>2018-10-14T07:44:46Z</time>
      </trkpt>
      <trkpt lat="45.6581" lon="4.65484">
        <ele>574</ele>
        <time>2018-10-14T07:44:47Z</time>
      </trkpt>
      <trkpt lat="45.65808" lon="4.65482">
        <ele>574</ele>
        <time>2018-10-14T07:44:48Z</time>
      </trkpt>
      <trkpt lat="45.65806" lon="4.6548">
        <ele>574</ele>
        <time>2018-10-14T07:44:49Z</time>
      </trkpt>
      <trkpt lat="45.65805" lon="4.65478">
        <ele>574</ele>
        <time>2018-10-14T07:44:50Z</time>
      </trkpt>
      <trkpt lat="45.65803" lon="4.65476">
        <ele>575</ele>
        <time>2018-10-14T07:44:51Z</time>
      </trkpt>
      <trkpt lat="45.65801" lon="4.65474">
        <ele>575</ele>
        <time>2018-10-14T07:44:52Z</time>
      </trkpt>
      <trkpt lat="45.658" lon="4.65472">
        <ele>575</ele>
        <time>2018-10-14T07:44:53Z</time>
      </trkpt>
      <trkpt lat="45.65798" lon="4.6547">
        <ele>576</ele>
        <time>2018-10-14T07:44:54Z</time>
      </trkpt>
      <trkpt lat="45.65797" lon="4.65467">
        <ele>576</ele>
        <time>2018-10-14T07:44:55Z</time>
      </trkpt>
      <trkpt lat="45.65796" lon="4.65465">
        <ele>576</ele>
        <time>2018-10-14T07:44:56Z</time>
      </trkpt>
      <trkpt lat="45.65795" lon="4.65462">
        <ele>577</ele>
        <time>2018-10-14T07:44:57Z</time>
      </trkpt>
      <trkpt lat="45.65793" lon="4.6546">
        <ele>577</ele>
        <time>2018-10-14T07:44:58Z</time>
      </trkpt>
      <trkpt lat="45.65792" lon="4.65457">
        <ele>577</ele>
        <time>2018-10-14T07:44:59Z</time>
      </trkpt>
      <trkpt lat="45.65791" lon="4.65455">
        <ele>577</ele>
        <time>2018-10-14T07:45:00Z</time>
      </trkpt>
      <trkpt lat="45.65789" lon="4.65453">
        <ele>577</ele>
        <time>2018-10-14T07:45:01Z</time>
      </trkpt>
      <trkpt lat="45.65788" lon="4.65451">
        <ele>577</ele>
        <time>2018-10-14T07:45:02Z</time>
      </trkpt>
      <trkpt lat="45.65786" lon="4.65448">
        <ele>578</ele>
        <time>2018-10-14T07:45:03Z</time>
      </trkpt>
      <trkpt lat="45.65785" lon="4.65446">
        <ele>578</ele>
        <time>2018-10-14T07:45:04Z</time>
      </trkpt>
      <trkpt lat="45.65783" lon="4.65444">
        <ele>578</ele>
        <time>2018-10-14T07:45:05Z</time>
      </trkpt>
      <trkpt lat="45.65781" lon="4.65442">
        <ele>578</ele>
        <time>2018-10-14T07:45:06Z</time>
      </trkpt>
      <trkpt lat="45.6578" lon="4.6544">
        <ele>578</ele>
        <time>2018-10-14T07:45:07Z</time>
      </trkpt>
      <trkpt lat="45.65778" lon="4.65437">
        <ele>578</ele>
        <time>2018-10-14T07:45:08Z</time>
      </trkpt>
      <trkpt lat="45.65776" lon="4.65435">
        <ele>578</ele>
        <time>2018-10-14T07:45:09Z</time>
      </trkpt>
      <trkpt lat="45.65775" lon="4.65433">
        <ele>579</ele>
        <time>2018-10-14T07:45:10Z</time>
      </trkpt>
      <trkpt lat="45.65774" lon="4.6543">
        <ele>579</ele>
        <time>2018-10-14T07:45:11Z</time>
      </trkpt>
      <trkpt lat="45.65772" lon="4.65428">
        <ele>579</ele>
        <time>2018-10-14T07:45:12Z</time>
      </trkpt>
      <trkpt lat="45.65771" lon="4.65425">
        <ele>577</ele>
        <time>2018-10-14T07:45:13Z</time>
      </trkpt>
      <trkpt lat="45.65766" lon="4.65416">
        <ele>579</ele>
        <time>2018-10-14T07:45:14Z</time>
      </trkpt>
      <trkpt lat="45.65764" lon="4.65413">
        <ele>579</ele>
        <time>2018-10-14T07:45:15Z</time>
      </trkpt>
      <trkpt lat="45.65761" lon="4.65409">
        <ele>577</ele>
        <time>2018-10-14T07:45:16Z</time>
      </trkpt>
      <trkpt lat="45.65758" lon="4.65405">
        <ele>577</ele>
        <time>2018-10-14T07:45:17Z</time>
      </trkpt>
      <trkpt lat="45.65756" lon="4.65401">
        <ele>576</ele>
        <time>2018-10-14T07:45:18Z</time>
      </trkpt>
      <trkpt lat="45.65752" lon="4.65396">
        <ele>576</ele>
        <time>2018-10-14T07:45:19Z</time>
      </trkpt>
      <trkpt lat="45.65748" lon="4.65391">
        <ele>575</ele>
        <time>2018-10-14T07:45:20Z</time>
      </trkpt>
      <trkpt lat="45.65744" lon="4.65386">
        <ele>575</ele>
        <time>2018-10-14T07:45:21Z</time>
      </trkpt>
      <trkpt lat="45.6574" lon="4.65381">
        <ele>575</ele>
        <time>2018-10-14T07:45:22Z</time>
      </trkpt>
      <trkpt lat="45.65735" lon="4.65376">
        <ele>576</ele>
        <time>2018-10-14T07:45:23Z</time>
      </trkpt>
      <trkpt lat="45.65731" lon="4.6537">
        <ele>576</ele>
        <time>2018-10-14T07:45:24Z</time>
      </trkpt>
      <trkpt lat="45.65727" lon="4.65365">
        <ele>574</ele>
        <time>2018-10-14T07:45:25Z</time>
      </trkpt>
      <trkpt lat="45.65722" lon="4.6536">
        <ele>575</ele>
        <time>2018-10-14T07:45:26Z</time>
      </trkpt>
      <trkpt lat="45.65717" lon="4.65355">
        <ele>575</ele>
        <time>2018-10-14T07:45:27Z</time>
      </trkpt>
      <trkpt lat="45.65711" lon="4.6535">
        <ele>575</ele>
        <time>2018-10-14T07:45:28Z</time>
      </trkpt>
      <trkpt lat="45.65707" lon="4.65344">
        <ele>575</ele>
        <time>2018-10-14T07:45:29Z</time>
      </trkpt>
      <trkpt lat="45.65702" lon="4.65338">
        <ele>575</ele>
        <time>2018-10-14T07:45:30Z</time>
      </trkpt>
      <trkpt lat="45.65698" lon="4.65332">
        <ele>575</ele>
        <time>2018-10-14T07:45:31Z</time>
      </trkpt>
      <trkpt lat="45.65694" lon="4.65328">
        <ele>574</ele>
        <time>2018-10-14T07:45:32Z</time>
      </trkpt>
      <trkpt lat="45.6569" lon="4.65323">
        <ele>575</ele>
        <time>2018-10-14T07:45:33Z</time>
      </trkpt>
      <trkpt lat="45.65685" lon="4.65319">
        <ele>574</ele>
        <time>2018-10-14T07:45:34Z</time>
      </trkpt>
      <trkpt lat="45.65681" lon="4.65316">
        <ele>575</ele>
        <time>2018-10-14T07:45:35Z</time>
      </trkpt>
      <trkpt lat="45.65676" lon="4.65313">
        <ele>576</ele>
        <time>2018-10-14T07:45:36Z</time>
      </trkpt>
      <trkpt lat="45.65673" lon="4.65308">
        <ele>576</ele>
        <time>2018-10-14T07:45:37Z</time>
      </trkpt>
      <trkpt lat="45.65669" lon="4.65305">
        <ele>576</ele>
        <time>2018-10-14T07:45:38Z</time>
      </trkpt>
      <trkpt lat="45.65665" lon="4.65301">
        <ele>577</ele>
        <time>2018-10-14T07:45:39Z</time>
      </trkpt>
      <trkpt lat="45.6566" lon="4.65297">
        <ele>577</ele>
        <time>2018-10-14T07:45:40Z</time>
      </trkpt>
      <trkpt lat="45.65656" lon="4.65295">
        <ele>577</ele>
        <time>2018-10-14T07:45:41Z</time>
      </trkpt>
      <trkpt lat="45.65653" lon="4.65293">
        <ele>577</ele>
        <time>2018-10-14T07:45:42Z</time>
      </trkpt>
      <trkpt lat="45.65649" lon="4.65289">
        <ele>578</ele>
        <time>2018-10-14T07:45:43Z</time>
      </trkpt>
      <trkpt lat="45.65645" lon="4.65288">
        <ele>578</ele>
        <time>2018-10-14T07:45:44Z</time>
      </trkpt>
      <trkpt lat="45.65641" lon="4.65285">
        <ele>579</ele>
        <time>2018-10-14T07:45:45Z</time>
      </trkpt>
      <trkpt lat="45.65638" lon="4.65283">
        <ele>579</ele>
        <time>2018-10-14T07:45:46Z</time>
      </trkpt>
      <trkpt lat="45.65634" lon="4.65281">
        <ele>579</ele>
        <time>2018-10-14T07:45:47Z</time>
      </trkpt>
      <trkpt lat="45.65632" lon="4.65279">
        <ele>579</ele>
        <time>2018-10-14T07:45:48Z</time>
      </trkpt>
      <trkpt lat="45.6563" lon="4.65277">
        <ele>579</ele>
        <time>2018-10-14T07:45:49Z</time>
      </trkpt>
      <trkpt lat="45.65628" lon="4.65274">
        <ele>579</ele>
        <time>2018-10-14T07:45:50Z</time>
      </trkpt>
      <trkpt lat="45.65623" lon="4.65271">
        <ele>580</ele>
        <time>2018-10-14T07:45:51Z</time>
      </trkpt>
      <trkpt lat="45.6562" lon="4.65268">
        <ele>580</ele>
        <time>2018-10-14T07:45:52Z</time>
      </trkpt>
      <trkpt lat="45.65617" lon="4.65267">
        <ele>579</ele>
        <time>2018-10-14T07:45:53Z</time>
      </trkpt>
      <trkpt lat="45.65614" lon="4.65265">
        <ele>580</ele>
        <time>2018-10-14T07:45:54Z</time>
      </trkpt>
      <trkpt lat="45.65611" lon="4.65262">
        <ele>580</ele>
        <time>2018-10-14T07:45:55Z</time>
      </trkpt>
      <trkpt lat="45.65609" lon="4.6526">
        <ele>581</ele>
        <time>2018-10-14T07:45:56Z</time>
      </trkpt>
      <trkpt lat="45.65606" lon="4.65258">
        <ele>581</ele>
        <time>2018-10-14T07:45:57Z</time>
      </trkpt>
      <trkpt lat="45.65604" lon="4.65255">
        <ele>581</ele>
        <time>2018-10-14T07:45:58Z</time>
      </trkpt>
      <trkpt lat="45.65602" lon="4.65254">
        <ele>581</ele>
        <time>2018-10-14T07:45:59Z</time>
      </trkpt>
      <trkpt lat="45.65601" lon="4.65254">
        <ele>581</ele>
        <time>2018-10-14T07:46:00Z</time>
      </trkpt>
      <trkpt lat="45.65599" lon="4.65253">
        <ele>581</ele>
        <time>2018-10-14T07:46:01Z</time>
      </trkpt>
      <trkpt lat="45.65597" lon="4.65251">
        <ele>581</ele>
        <time>2018-10-14T07:46:02Z</time>
      </trkpt>
      <trkpt lat="45.65595" lon="4.6525">
        <ele>581</ele>
        <time>2018-10-14T07:46:03Z</time>
      </trkpt>
      <trkpt lat="45.65593" lon="4.65249">
        <ele>582</ele>
        <time>2018-10-14T07:46:04Z</time>
      </trkpt>
      <trkpt lat="45.65591" lon="4.65247">
        <ele>582</ele>
        <time>2018-10-14T07:46:05Z</time>
      </trkpt>
      <trkpt lat="45.65588" lon="4.65245">
        <ele>582</ele>
        <time>2018-10-14T07:46:06Z</time>
      </trkpt>
      <trkpt lat="45.65586" lon="4.65244">
        <ele>582</ele>
        <time>2018-10-14T07:46:07Z</time>
      </trkpt>
      <trkpt lat="45.65583" lon="4.65242">
        <ele>582</ele>
        <time>2018-10-14T07:46:08Z</time>
      </trkpt>
      <trkpt lat="45.65581" lon="4.65241">
        <ele>582</ele>
        <time>2018-10-14T07:46:09Z</time>
      </trkpt>
      <trkpt lat="45.65579" lon="4.65239">
        <ele>582</ele>
        <time>2018-10-14T07:46:10Z</time>
      </trkpt>
      <trkpt lat="45.65577" lon="4.65237">
        <ele>583</ele>
        <time>2018-10-14T07:46:11Z</time>
      </trkpt>
      <trkpt lat="45.65575" lon="4.65235">
        <ele>583</ele>
        <time>2018-10-14T07:46:12Z</time>
      </trkpt>
      <trkpt lat="45.65572" lon="4.65233">
        <ele>583</ele>
        <time>2018-10-14T07:46:13Z</time>
      </trkpt>
      <trkpt lat="45.6557" lon="4.65231">
        <ele>583</ele>
        <time>2018-10-14T07:46:14Z</time>
      </trkpt>
      <trkpt lat="45.65568" lon="4.65229">
        <ele>583</ele>
        <time>2018-10-14T07:46:15Z</time>
      </trkpt>
      <trkpt lat="45.65566" lon="4.65227">
        <ele>583</ele>
        <time>2018-10-14T07:46:16Z</time>
      </trkpt>
      <trkpt lat="45.65564" lon="4.65224">
        <ele>583</ele>
        <time>2018-10-14T07:46:17Z</time>
      </trkpt>
      <trkpt lat="45.65562" lon="4.65221">
        <ele>583</ele>
        <time>2018-10-14T07:46:18Z</time>
      </trkpt>
      <trkpt lat="45.65562" lon="4.65218">
        <ele>580</ele>
        <time>2018-10-14T07:46:19Z</time>
      </trkpt>
      <trkpt lat="45.65562" lon="4.65215">
        <ele>580</ele>
        <time>2018-10-14T07:46:20Z</time>
      </trkpt>
      <trkpt lat="45.65564" lon="4.65211">
        <ele>581</ele>
        <time>2018-10-14T07:46:21Z</time>
      </trkpt>
      <trkpt lat="45.65566" lon="4.65207">
        <ele>580</ele>
        <time>2018-10-14T07:46:22Z</time>
      </trkpt>
      <trkpt lat="45.65568" lon="4.65204">
        <ele>578</ele>
        <time>2018-10-14T07:46:23Z</time>
      </trkpt>
      <trkpt lat="45.6557" lon="4.652">
        <ele>579</ele>
        <time>2018-10-14T07:46:24Z</time>
      </trkpt>
      <trkpt lat="45.65572" lon="4.65197">
        <ele>579</ele>
        <time>2018-10-14T07:46:25Z</time>
      </trkpt>
      <trkpt lat="45.65575" lon="4.65192">
        <ele>580</ele>
        <time>2018-10-14T07:46:26Z</time>
      </trkpt>
      <trkpt lat="45.65578" lon="4.65188">
        <ele>580</ele>
        <time>2018-10-14T07:46:27Z</time>
      </trkpt>
      <trkpt lat="45.65581" lon="4.65183">
        <ele>579</ele>
        <time>2018-10-14T07:46:28Z</time>
      </trkpt>
      <trkpt lat="45.65585" lon="4.65177">
        <ele>579</ele>
        <time>2018-10-14T07:46:29Z</time>
      </trkpt>
      <trkpt lat="45.65589" lon="4.65171">
        <ele>580</ele>
        <time>2018-10-14T07:46:30Z</time>
      </trkpt>
      <trkpt lat="45.65593" lon="4.65165">
        <ele>579</ele>
        <time>2018-10-14T07:46:31Z</time>
      </trkpt>
      <trkpt lat="45.65607" lon="4.65144">
        <ele>579</ele>
        <time>2018-10-14T07:46:32Z</time>
      </trkpt>
      <trkpt lat="45.65617" lon="4.65131">
        <ele>578</ele>
        <time>2018-10-14T07:46:33Z</time>
      </trkpt>
      <trkpt lat="45.65622" lon="4.65122">
        <ele>577</ele>
        <time>2018-10-14T07:46:34Z</time>
      </trkpt>
      <trkpt lat="45.65628" lon="4.65115">
        <ele>575</ele>
        <time>2018-10-14T07:46:35Z</time>
      </trkpt>
      <trkpt lat="45.65634" lon="4.65105">
        <ele>575</ele>
        <time>2018-10-14T07:46:36Z</time>
      </trkpt>
      <trkpt lat="45.6564" lon="4.65097">
        <ele>574</ele>
        <time>2018-10-14T07:46:37Z</time>
      </trkpt>
      <trkpt lat="45.65646" lon="4.65088">
        <ele>573</ele>
        <time>2018-10-14T07:46:38Z</time>
      </trkpt>
      <trkpt lat="45.65652" lon="4.6508">
        <ele>573</ele>
        <time>2018-10-14T07:46:39Z</time>
      </trkpt>
      <trkpt lat="45.65658" lon="4.65071">
        <ele>573</ele>
        <time>2018-10-14T07:46:40Z</time>
      </trkpt>
      <trkpt lat="45.65664" lon="4.65062">
        <ele>572</ele>
        <time>2018-10-14T07:46:41Z</time>
      </trkpt>
      <trkpt lat="45.6567" lon="4.65053">
        <ele>571</ele>
        <time>2018-10-14T07:46:42Z</time>
      </trkpt>
      <trkpt lat="45.65677" lon="4.65045">
        <ele>570</ele>
        <time>2018-10-14T07:46:43Z</time>
      </trkpt>
      <trkpt lat="45.65683" lon="4.65037">
        <ele>570</ele>
        <time>2018-10-14T07:46:44Z</time>
      </trkpt>
      <trkpt lat="45.6569" lon="4.65029">
        <ele>570</ele>
        <time>2018-10-14T07:46:45Z</time>
      </trkpt>
      <trkpt lat="45.65698" lon="4.65022">
        <ele>570</ele>
        <time>2018-10-14T07:46:46Z</time>
      </trkpt>
      <trkpt lat="45.65705" lon="4.65016">
        <ele>569</ele>
        <time>2018-10-14T07:46:47Z</time>
      </trkpt>
      <trkpt lat="45.65713" lon="4.65011">
        <ele>569</ele>
        <time>2018-10-14T07:46:48Z</time>
      </trkpt>
      <trkpt lat="45.6572" lon="4.65005">
        <ele>569</ele>
        <time>2018-10-14T07:46:49Z</time>
      </trkpt>
      <trkpt lat="45.65727" lon="4.64997">
        <ele>568</ele>
        <time>2018-10-14T07:46:50Z</time>
      </trkpt>
      <trkpt lat="45.65735" lon="4.64991">
        <ele>568</ele>
        <time>2018-10-14T07:46:51Z</time>
      </trkpt>
      <trkpt lat="45.65742" lon="4.64984">
        <ele>567</ele>
        <time>2018-10-14T07:46:52Z</time>
      </trkpt>
      <trkpt lat="45.65749" lon="4.64977">
        <ele>567</ele>
        <time>2018-10-14T07:46:53Z</time>
      </trkpt>
      <trkpt lat="45.65757" lon="4.64973">
        <ele>567</ele>
        <time>2018-10-14T07:46:54Z</time>
      </trkpt>
      <trkpt lat="45.65762" lon="4.64969">
        <ele>567</ele>
        <time>2018-10-14T07:46:55Z</time>
      </trkpt>
      <trkpt lat="45.65767" lon="4.64965">
        <ele>567</ele>
        <time>2018-10-14T07:46:56Z</time>
      </trkpt>
      <trkpt lat="45.65772" lon="4.64961">
        <ele>567</ele>
        <time>2018-10-14T07:46:57Z</time>
      </trkpt>
      <trkpt lat="45.65775" lon="4.64958">
        <ele>567</ele>
        <time>2018-10-14T07:46:58Z</time>
      </trkpt>
      <trkpt lat="45.65778" lon="4.64955">
        <ele>567</ele>
        <time>2018-10-14T07:46:59Z</time>
      </trkpt>
      <trkpt lat="45.65781" lon="4.64951">
        <ele>568</ele>
        <time>2018-10-14T07:47:00Z</time>
      </trkpt>
      <trkpt lat="45.65783" lon="4.64947">
        <ele>567</ele>
        <time>2018-10-14T07:47:01Z</time>
      </trkpt>
      <trkpt lat="45.65786" lon="4.64943">
        <ele>567</ele>
        <time>2018-10-14T07:47:02Z</time>
      </trkpt>
      <trkpt lat="45.65789" lon="4.64939">
        <ele>567</ele>
        <time>2018-10-14T07:47:03Z</time>
      </trkpt>
      <trkpt lat="45.65793" lon="4.64935">
        <ele>567</ele>
        <time>2018-10-14T07:47:04Z</time>
      </trkpt>
      <trkpt lat="45.65797" lon="4.64931">
        <ele>567</ele>
        <time>2018-10-14T07:47:05Z</time>
      </trkpt>
      <trkpt lat="45.65801" lon="4.64926">
        <ele>566</ele>
        <time>2018-10-14T07:47:06Z</time>
      </trkpt>
      <trkpt lat="45.65806" lon="4.6492">
        <ele>565</ele>
        <time>2018-10-14T07:47:07Z</time>
      </trkpt>
      <trkpt lat="45.65811" lon="4.64913">
        <ele>564</ele>
        <time>2018-10-14T07:47:08Z</time>
      </trkpt>
      <trkpt lat="45.65816" lon="4.6491">
        <ele>563</ele>
        <time>2018-10-14T07:47:09Z</time>
      </trkpt>
      <trkpt lat="45.65821" lon="4.64906">
        <ele>563</ele>
        <time>2018-10-14T07:47:10Z</time>
      </trkpt>
      <trkpt lat="45.65827" lon="4.64903">
        <ele>562</ele>
        <time>2018-10-14T07:47:11Z</time>
      </trkpt>
      <trkpt lat="45.65833" lon="4.64894">
        <ele>559</ele>
        <time>2018-10-14T07:47:12Z</time>
      </trkpt>
      <trkpt lat="45.6584" lon="4.64888">
        <ele>555</ele>
        <time>2018-10-14T07:47:13Z</time>
      </trkpt>
      <trkpt lat="45.65844" lon="4.64881">
        <ele>554</ele>
        <time>2018-10-14T07:47:14Z</time>
      </trkpt>
      <trkpt lat="45.6585" lon="4.64877">
        <ele>552</ele>
        <time>2018-10-14T07:47:15Z</time>
      </trkpt>
      <trkpt lat="45.65854" lon="4.64872">
        <ele>551</ele>
        <time>2018-10-14T07:47:16Z</time>
      </trkpt>
      <trkpt lat="45.65857" lon="4.64866">
        <ele>549</ele>
        <time>2018-10-14T07:47:17Z</time>
      </trkpt>
      <trkpt lat="45.65864" lon="4.64855">
        <ele>549</ele>
        <time>2018-10-14T07:47:18Z</time>
      </trkpt>
      <trkpt lat="45.65868" lon="4.6485">
        <ele>549</ele>
        <time>2018-10-14T07:47:19Z</time>
      </trkpt>
      <trkpt lat="45.65874" lon="4.64842">
        <ele>548</ele>
        <time>2018-10-14T07:47:20Z</time>
      </trkpt>
      <trkpt lat="45.65879" lon="4.64836">
        <ele>548</ele>
        <time>2018-10-14T07:47:21Z</time>
      </trkpt>
      <trkpt lat="45.65886" lon="4.64829">
        <ele>549</ele>
        <time>2018-10-14T07:47:22Z</time>
      </trkpt>
      <trkpt lat="45.65892" lon="4.64821">
        <ele>549</ele>
        <time>2018-10-14T07:47:23Z</time>
      </trkpt>
      <trkpt lat="45.65898" lon="4.64816">
        <ele>547</ele>
        <time>2018-10-14T07:47:24Z</time>
      </trkpt>
      <trkpt lat="45.65901" lon="4.6481">
        <ele>548</ele>
        <time>2018-10-14T07:47:25Z</time>
      </trkpt>
      <trkpt lat="45.65904" lon="4.64802">
        <ele>548</ele>
        <time>2018-10-14T07:47:26Z</time>
      </trkpt>
      <trkpt lat="45.65906" lon="4.64795">
        <ele>547</ele>
        <time>2018-10-14T07:47:27Z</time>
      </trkpt>
      <trkpt lat="45.65907" lon="4.64787">
        <ele>547</ele>
        <time>2018-10-14T07:47:28Z</time>
      </trkpt>
      <trkpt lat="45.65908" lon="4.64777">
        <ele>547</ele>
        <time>2018-10-14T07:47:29Z</time>
      </trkpt>
      <trkpt lat="45.65908" lon="4.64768">
        <ele>546</ele>
        <time>2018-10-14T07:47:30Z</time>
      </trkpt>
      <trkpt lat="45.65911" lon="4.64759">
        <ele>546</ele>
        <time>2018-10-14T07:47:31Z</time>
      </trkpt>
      <trkpt lat="45.65913" lon="4.64749">
        <ele>546</ele>
        <time>2018-10-14T07:47:32Z</time>
      </trkpt>
      <trkpt lat="45.65916" lon="4.6474">
        <ele>546</ele>
        <time>2018-10-14T07:47:33Z</time>
      </trkpt>
      <trkpt lat="45.65918" lon="4.6473">
        <ele>546</ele>
        <time>2018-10-14T07:47:34Z</time>
      </trkpt>
      <trkpt lat="45.65918" lon="4.64719">
        <ele>547</ele>
        <time>2018-10-14T07:47:35Z</time>
      </trkpt>
      <trkpt lat="45.6592" lon="4.6471">
        <ele>546</ele>
        <time>2018-10-14T07:47:36Z</time>
      </trkpt>
      <trkpt lat="45.6592" lon="4.64699">
        <ele>547</ele>
        <time>2018-10-14T07:47:37Z</time>
      </trkpt>
      <trkpt lat="45.6592" lon="4.6469">
        <ele>547</ele>
        <time>2018-10-14T07:47:38Z</time>
      </trkpt>
      <trkpt lat="45.6592" lon="4.64681">
        <ele>546</ele>
        <time>2018-10-14T07:47:39Z</time>
      </trkpt>
      <trkpt lat="45.6592" lon="4.64671">
        <ele>546</ele>
        <time>2018-10-14T07:47:40Z</time>
      </trkpt>
      <trkpt lat="45.65921" lon="4.64662">
        <ele>544</ele>
        <time>2018-10-14T07:47:41Z</time>
      </trkpt>
      <trkpt lat="45.65921" lon="4.64656">
        <ele>543</ele>
        <time>2018-10-14T07:47:42Z</time>
      </trkpt>
      <trkpt lat="45.65921" lon="4.64647">
        <ele>543</ele>
        <time>2018-10-14T07:47:43Z</time>
      </trkpt>
      <trkpt lat="45.65921" lon="4.64639">
        <ele>542</ele>
        <time>2018-10-14T07:47:44Z</time>
      </trkpt>
      <trkpt lat="45.65922" lon="4.64629">
        <ele>542</ele>
        <time>2018-10-14T07:47:45Z</time>
      </trkpt>
      <trkpt lat="45.65924" lon="4.64623">
        <ele>540</ele>
        <time>2018-10-14T07:47:46Z</time>
      </trkpt>
      <trkpt lat="45.65927" lon="4.64616">
        <ele>538</ele>
        <time>2018-10-14T07:47:47Z</time>
      </trkpt>
      <trkpt lat="45.65931" lon="4.64609">
        <ele>538</ele>
        <time>2018-10-14T07:47:48Z</time>
      </trkpt>
      <trkpt lat="45.65933" lon="4.646">
        <ele>537</ele>
        <time>2018-10-14T07:47:49Z</time>
      </trkpt>
      <trkpt lat="45.65935" lon="4.6459">
        <ele>537</ele>
        <time>2018-10-14T07:47:50Z</time>
      </trkpt>
      <trkpt lat="45.65933" lon="4.64578">
        <ele>542</ele>
        <time>2018-10-14T07:47:51Z</time>
      </trkpt>
      <trkpt lat="45.65933" lon="4.64565">
        <ele>541</ele>
        <time>2018-10-14T07:47:52Z</time>
      </trkpt>
      <trkpt lat="45.65932" lon="4.64557">
        <ele>539</ele>
        <time>2018-10-14T07:47:53Z</time>
      </trkpt>
      <trkpt lat="45.65929" lon="4.64547">
        <ele>538</ele>
        <time>2018-10-14T07:47:54Z</time>
      </trkpt>
      <trkpt lat="45.65926" lon="4.6454">
        <ele>537</ele>
        <time>2018-10-14T07:47:55Z</time>
      </trkpt>
      <trkpt lat="45.65922" lon="4.64531">
        <ele>538</ele>
        <time>2018-10-14T07:47:56Z</time>
      </trkpt>
      <trkpt lat="45.6592" lon="4.64523">
        <ele>537</ele>
        <time>2018-10-14T07:47:57Z</time>
      </trkpt>
      <trkpt lat="45.65919" lon="4.64514">
        <ele>535</ele>
        <time>2018-10-14T07:47:58Z</time>
      </trkpt>
      <trkpt lat="45.65919" lon="4.64505">
        <ele>534</ele>
        <time>2018-10-14T07:47:59Z</time>
      </trkpt>
      <trkpt lat="45.65917" lon="4.64497">
        <ele>535</ele>
        <time>2018-10-14T07:48:00Z</time>
      </trkpt>
      <trkpt lat="45.65916" lon="4.6449">
        <ele>532</ele>
        <time>2018-10-14T07:48:01Z</time>
      </trkpt>
      <trkpt lat="45.65918" lon="4.64483">
        <ele>531</ele>
        <time>2018-10-14T07:48:02Z</time>
      </trkpt>
      <trkpt lat="45.65923" lon="4.64475">
        <ele>530</ele>
        <time>2018-10-14T07:48:03Z</time>
      </trkpt>
      <trkpt lat="45.65927" lon="4.64468">
        <ele>530</ele>
        <time>2018-10-14T07:48:04Z</time>
      </trkpt>
      <trkpt lat="45.65935" lon="4.64464">
        <ele>528</ele>
        <time>2018-10-14T07:48:05Z</time>
      </trkpt>
      <trkpt lat="45.6594" lon="4.6446">
        <ele>527</ele>
        <time>2018-10-14T07:48:06Z</time>
      </trkpt>
      <trkpt lat="45.65947" lon="4.64456">
        <ele>522</ele>
        <time>2018-10-14T07:48:07Z</time>
      </trkpt>
      <trkpt lat="45.65952" lon="4.64452">
        <ele>522</ele>
        <time>2018-10-14T07:48:08Z</time>
      </trkpt>
      <trkpt lat="45.65956" lon="4.64445">
        <ele>521</ele>
        <time>2018-10-14T07:48:09Z</time>
      </trkpt>
      <trkpt lat="45.65959" lon="4.64436">
        <ele>520</ele>
        <time>2018-10-14T07:48:10Z</time>
      </trkpt>
      <trkpt lat="45.65961" lon="4.64428">
        <ele>519</ele>
        <time>2018-10-14T07:48:11Z</time>
      </trkpt>
      <trkpt lat="45.65964" lon="4.64419">
        <ele>517</ele>
        <time>2018-10-14T07:48:12Z</time>
      </trkpt>
      <trkpt lat="45.65966" lon="4.6441">
        <ele>516</ele>
        <time>2018-10-14T07:48:13Z</time>
      </trkpt>
      <trkpt lat="45.6597" lon="4.64399">
        <ele>515</ele>
        <time>2018-10-14T07:48:14Z</time>
      </trkpt>
      <trkpt lat="45.65971" lon="4.64389">
        <ele>515</ele>
        <time>2018-10-14T07:48:15Z</time>
      </trkpt>
      <trkpt lat="45.65973" lon="4.64382">
        <ele>515</ele>
        <time>2018-10-14T07:48:16Z</time>
      </trkpt>
      <trkpt lat="45.65973" lon="4.64376">
        <ele>513</ele>
        <time>2018-10-14T07:48:17Z</time>
      </trkpt>
      <trkpt lat="45.65974" lon="4.6437">
        <ele>513</ele>
        <time>2018-10-14T07:48:18Z</time>
      </trkpt>
      <trkpt lat="45.65975" lon="4.64365">
        <ele>512</ele>
        <time>2018-10-14T07:48:19Z</time>
      </trkpt>
      <trkpt lat="45.65976" lon="4.64359">
        <ele>512</ele>
        <time>2018-10-14T07:48:20Z</time>
      </trkpt>
      <trkpt lat="45.65978" lon="4.64355">
        <ele>511</ele>
        <time>2018-10-14T07:48:21Z</time>
      </trkpt>
      <trkpt lat="45.65978" lon="4.6435">
        <ele>511</ele>
        <time>2018-10-14T07:48:22Z</time>
      </trkpt>
      <trkpt lat="45.65979" lon="4.64343">
        <ele>511</ele>
        <time>2018-10-14T07:48:23Z</time>
      </trkpt>
      <trkpt lat="45.65981" lon="4.64336">
        <ele>510</ele>
        <time>2018-10-14T07:48:24Z</time>
      </trkpt>
      <trkpt lat="45.65981" lon="4.64329">
        <ele>509</ele>
        <time>2018-10-14T07:48:25Z</time>
      </trkpt>
      <trkpt lat="45.65981" lon="4.64321">
        <ele>509</ele>
        <time>2018-10-14T07:48:26Z</time>
      </trkpt>
      <trkpt lat="45.6598" lon="4.64313">
        <ele>507</ele>
        <time>2018-10-14T07:48:27Z</time>
      </trkpt>
      <trkpt lat="45.65978" lon="4.64305">
        <ele>507</ele>
        <time>2018-10-14T07:48:28Z</time>
      </trkpt>
      <trkpt lat="45.65975" lon="4.64296">
        <ele>506</ele>
        <time>2018-10-14T07:48:29Z</time>
      </trkpt>
      <trkpt lat="45.65971" lon="4.64288">
        <ele>505</ele>
        <time>2018-10-14T07:48:30Z</time>
      </trkpt>
      <trkpt lat="45.65966" lon="4.64283">
        <ele>506</ele>
        <time>2018-10-14T07:48:31Z</time>
      </trkpt>
      <trkpt lat="45.65962" lon="4.64276">
        <ele>506</ele>
        <time>2018-10-14T07:48:32Z</time>
      </trkpt>
      <trkpt lat="45.65958" lon="4.64268">
        <ele>506</ele>
        <time>2018-10-14T07:48:33Z</time>
      </trkpt>
      <trkpt lat="45.65955" lon="4.64257">
        <ele>505</ele>
        <time>2018-10-14T07:48:34Z</time>
      </trkpt>
      <trkpt lat="45.65949" lon="4.64252">
        <ele>503</ele>
        <time>2018-10-14T07:48:35Z</time>
      </trkpt>
      <trkpt lat="45.65945" lon="4.64246">
        <ele>504</ele>
        <time>2018-10-14T07:48:36Z</time>
      </trkpt>
      <trkpt lat="45.65945" lon="4.64239">
        <ele>504</ele>
        <time>2018-10-14T07:48:37Z</time>
      </trkpt>
      <trkpt lat="45.6594" lon="4.64234">
        <ele>502</ele>
        <time>2018-10-14T07:48:38Z</time>
      </trkpt>
      <trkpt lat="45.65934" lon="4.64232">
        <ele>500</ele>
        <time>2018-10-14T07:48:39Z</time>
      </trkpt>
      <trkpt lat="45.65931" lon="4.6423">
        <ele>501</ele>
        <time>2018-10-14T07:48:40Z</time>
      </trkpt>
      <trkpt lat="45.65926" lon="4.64225">
        <ele>500</ele>
        <time>2018-10-14T07:48:41Z</time>
      </trkpt>
      <trkpt lat="45.65921" lon="4.64223">
        <ele>498</ele>
        <time>2018-10-14T07:48:42Z</time>
      </trkpt>
      <trkpt lat="45.65919" lon="4.64217">
        <ele>497</ele>
        <time>2018-10-14T07:48:43Z</time>
      </trkpt>
      <trkpt lat="45.65916" lon="4.64211">
        <ele>497</ele>
        <time>2018-10-14T07:48:44Z</time>
      </trkpt>
      <trkpt lat="45.6592" lon="4.64199">
        <ele>497</ele>
        <time>2018-10-14T07:48:45Z</time>
      </trkpt>
      <trkpt lat="45.65923" lon="4.64194">
        <ele>496</ele>
        <time>2018-10-14T07:48:46Z</time>
      </trkpt>
      <trkpt lat="45.65924" lon="4.64186">
        <ele>496</ele>
        <time>2018-10-14T07:48:47Z</time>
      </trkpt>
      <trkpt lat="45.65926" lon="4.64179">
        <ele>494</ele>
        <time>2018-10-14T07:48:48Z</time>
      </trkpt>
      <trkpt lat="45.65928" lon="4.64174">
        <ele>490</ele>
        <time>2018-10-14T07:48:49Z</time>
      </trkpt>
      <trkpt lat="45.65928" lon="4.64165">
        <ele>487</ele>
        <time>2018-10-14T07:48:50Z</time>
      </trkpt>
      <trkpt lat="45.6593" lon="4.64159">
        <ele>486</ele>
        <time>2018-10-14T07:48:51Z</time>
      </trkpt>
      <trkpt lat="45.65933" lon="4.64151">
        <ele>486</ele>
        <time>2018-10-14T07:48:52Z</time>
      </trkpt>
      <trkpt lat="45.65936" lon="4.64145">
        <ele>486</ele>
        <time>2018-10-14T07:48:53Z</time>
      </trkpt>
      <trkpt lat="45.65941" lon="4.64142">
        <ele>489</ele>
        <time>2018-10-14T07:48:54Z</time>
      </trkpt>
      <trkpt lat="45.65945" lon="4.64137">
        <ele>487</ele>
        <time>2018-10-14T07:48:55Z</time>
      </trkpt>
      <trkpt lat="45.65952" lon="4.64132">
        <ele>486</ele>
        <time>2018-10-14T07:48:56Z</time>
      </trkpt>
      <trkpt lat="45.65957" lon="4.64128">
        <ele>485</ele>
        <time>2018-10-14T07:48:57Z</time>
      </trkpt>
      <trkpt lat="45.65965" lon="4.6413">
        <ele>483</ele>
        <time>2018-10-14T07:48:58Z</time>
      </trkpt>
      <trkpt lat="45.65968" lon="4.64128">
        <ele>483</ele>
        <time>2018-10-14T07:48:59Z</time>
      </trkpt>
      <trkpt lat="45.65972" lon="4.64127">
        <ele>482</ele>
        <time>2018-10-14T07:49:00Z</time>
      </trkpt>
      <trkpt lat="45.65976" lon="4.64124">
        <ele>482</ele>
        <time>2018-10-14T07:49:01Z</time>
      </trkpt>
      <trkpt lat="45.65978" lon="4.64121">
        <ele>481</ele>
        <time>2018-10-14T07:49:02Z</time>
      </trkpt>
      <trkpt lat="45.65983" lon="4.6412">
        <ele>480</ele>
        <time>2018-10-14T07:49:03Z</time>
      </trkpt>
      <trkpt lat="45.65988" lon="4.6412">
        <ele>479</ele>
        <time>2018-10-14T07:49:04Z</time>
      </trkpt>
      <trkpt lat="45.65989" lon="4.6412">
        <ele>480</ele>
        <time>2018-10-14T07:49:05Z</time>
      </trkpt>
      <trkpt lat="45.6599" lon="4.6412">
        <ele>481</ele>
        <time>2018-10-14T07:49:06Z</time>
      </trkpt>
      <trkpt lat="45.65992" lon="4.64118">
        <ele>481</ele>
        <time>2018-10-14T07:49:07Z</time>
      </trkpt>
      <trkpt lat="45.65997" lon="4.64116">
        <ele>479</ele>
        <time>2018-10-14T07:49:08Z</time>
      </trkpt>
      <trkpt lat="45.66019" lon="4.64114">
        <ele>478</ele>
        <time>2018-10-14T07:49:09Z</time>
      </trkpt>
      <trkpt lat="45.66023" lon="4.64115">
        <ele>478</ele>
        <time>2018-10-14T07:49:10Z</time>
      </trkpt>
      <trkpt lat="45.66027" lon="4.64112">
        <ele>477</ele>
        <time>2018-10-14T07:49:11Z</time>
      </trkpt>
      <trkpt lat="45.66031" lon="4.64107">
        <ele>474</ele>
        <time>2018-10-14T07:49:12Z</time>
      </trkpt>
      <trkpt lat="45.66031" lon="4.641">
        <ele>473</ele>
        <time>2018-10-14T07:49:13Z</time>
      </trkpt>
      <trkpt lat="45.66032" lon="4.64094">
        <ele>471</ele>
        <time>2018-10-14T07:49:14Z</time>
      </trkpt>
      <trkpt lat="45.66032" lon="4.64088">
        <ele>468</ele>
        <time>2018-10-14T07:49:15Z</time>
      </trkpt>
      <trkpt lat="45.66032" lon="4.64081">
        <ele>468</ele>
        <time>2018-10-14T07:49:16Z</time>
      </trkpt>
      <trkpt lat="45.66026" lon="4.64071">
        <ele>466</ele>
        <time>2018-10-14T07:49:17Z</time>
      </trkpt>
      <trkpt lat="45.66022" lon="4.64061">
        <ele>463</ele>
        <time>2018-10-14T07:49:18Z</time>
      </trkpt>
      <trkpt lat="45.66019" lon="4.64052">
        <ele>462</ele>
        <time>2018-10-14T07:49:19Z</time>
      </trkpt>
      <trkpt lat="45.66015" lon="4.64041">
        <ele>462</ele>
        <time>2018-10-14T07:49:20Z</time>
      </trkpt>
      <trkpt lat="45.66013" lon="4.6403">
        <ele>461</ele>
        <time>2018-10-14T07:49:21Z</time>
      </trkpt>
      <trkpt lat="45.66008" lon="4.64022">
        <ele>460</ele>
        <time>2018-10-14T07:49:22Z</time>
      </trkpt>
      <trkpt lat="45.66003" lon="4.64014">
        <ele>460</ele>
        <time>2018-10-14T07:49:23Z</time>
      </trkpt>
      <trkpt lat="45.66" lon="4.64008">
        <ele>460</ele>
        <time>2018-10-14T07:49:24Z</time>
      </trkpt>
      <trkpt lat="45.65996" lon="4.64003">
        <ele>457</ele>
        <time>2018-10-14T07:49:25Z</time>
      </trkpt>
      <trkpt lat="45.6599" lon="4.63996">
        <ele>457</ele>
        <time>2018-10-14T07:49:26Z</time>
      </trkpt>
      <trkpt lat="45.65986" lon="4.63988">
        <ele>457</ele>
        <time>2018-10-14T07:49:27Z</time>
      </trkpt>
      <trkpt lat="45.65982" lon="4.63979">
        <ele>456</ele>
        <time>2018-10-14T07:49:28Z</time>
      </trkpt>
      <trkpt lat="45.65986" lon="4.6397">
        <ele>456</ele>
        <time>2018-10-14T07:49:29Z</time>
      </trkpt>
      <trkpt lat="45.65985" lon="4.63962">
        <ele>454</ele>
        <time>2018-10-14T07:49:30Z</time>
      </trkpt>
      <trkpt lat="45.65986" lon="4.63951">
        <ele>452</ele>
        <time>2018-10-14T07:49:31Z</time>
      </trkpt>
      <trkpt lat="45.65984" lon="4.63943">
        <ele>451</ele>
        <time>2018-10-14T07:49:32Z</time>
      </trkpt>
      <trkpt lat="45.65982" lon="4.63935">
        <ele>451</ele>
        <time>2018-10-14T07:49:33Z</time>
      </trkpt>
      <trkpt lat="45.65979" lon="4.63929">
        <ele>451</ele>
        <time>2018-10-14T07:49:34Z</time>
      </trkpt>
      <trkpt lat="45.65976" lon="4.63924">
        <ele>452</ele>
        <time>2018-10-14T07:49:35Z</time>
      </trkpt>
      <trkpt lat="45.65974" lon="4.6392">
        <ele>452</ele>
        <time>2018-10-14T07:49:36Z</time>
      </trkpt>
      <trkpt lat="45.65973" lon="4.63917">
        <ele>452</ele>
        <time>2018-10-14T07:49:37Z</time>
      </trkpt>
      <trkpt lat="45.65973" lon="4.63913">
        <ele>453</ele>
        <time>2018-10-14T07:49:38Z</time>
      </trkpt>
      <trkpt lat="45.65973" lon="4.63911">
        <ele>452</ele>
        <time>2018-10-14T07:49:39Z</time>
      </trkpt>
      <trkpt lat="45.65972" lon="4.63908">
        <ele>452</ele>
        <time>2018-10-14T07:49:40Z</time>
      </trkpt>
      <trkpt lat="45.65974" lon="4.63905">
        <ele>453</ele>
        <time>2018-10-14T07:49:41Z</time>
      </trkpt>
      <trkpt lat="45.65974" lon="4.63902">
        <ele>453</ele>
        <time>2018-10-14T07:49:42Z</time>
      </trkpt>
      <trkpt lat="45.65976" lon="4.639">
        <ele>453</ele>
        <time>2018-10-14T07:49:43Z</time>
      </trkpt>
      <trkpt lat="45.65977" lon="4.63899">
        <ele>454</ele>
        <time>2018-10-14T07:49:44Z</time>
      </trkpt>
      <trkpt lat="45.65979" lon="4.63899">
        <ele>453</ele>
        <time>2018-10-14T07:49:45Z</time>
      </trkpt>
      <trkpt lat="45.6598" lon="4.639">
        <ele>452</ele>
        <time>2018-10-14T07:49:46Z</time>
      </trkpt>
      <trkpt lat="45.65982" lon="4.63901">
        <ele>452</ele>
        <time>2018-10-14T07:49:47Z</time>
      </trkpt>
      <trkpt lat="45.65993" lon="4.63908">
        <ele>453</ele>
        <time>2018-10-14T07:49:48Z</time>
      </trkpt>
      <trkpt lat="45.66002" lon="4.6391">
        <ele>454</ele>
        <time>2018-10-14T07:49:49Z</time>
      </trkpt>
      <trkpt lat="45.66006" lon="4.63911">
        <ele>455</ele>
        <time>2018-10-14T07:49:50Z</time>
      </trkpt>
      <trkpt lat="45.66009" lon="4.63913">
        <ele>454</ele>
        <time>2018-10-14T07:49:51Z</time>
      </trkpt>
      <trkpt lat="45.66013" lon="4.63914">
        <ele>454</ele>
        <time>2018-10-14T07:49:52Z</time>
      </trkpt>
      <trkpt lat="45.66016" lon="4.63915">
        <ele>454</ele>
        <time>2018-10-14T07:49:53Z</time>
      </trkpt>
      <trkpt lat="45.66021" lon="4.63916">
        <ele>454</ele>
        <time>2018-10-14T07:49:54Z</time>
      </trkpt>
      <trkpt lat="45.66023" lon="4.63916">
        <ele>453</ele>
        <time>2018-10-14T07:49:55Z</time>
      </trkpt>
      <trkpt lat="45.66026" lon="4.63916">
        <ele>453</ele>
        <time>2018-10-14T07:49:56Z</time>
      </trkpt>
      <trkpt lat="45.66029" lon="4.63916">
        <ele>453</ele>
        <time>2018-10-14T07:49:57Z</time>
      </trkpt>
      <trkpt lat="45.66032" lon="4.63915">
        <ele>454</ele>
        <time>2018-10-14T07:49:58Z</time>
      </trkpt>
      <trkpt lat="45.66036" lon="4.63916">
        <ele>453</ele>
        <time>2018-10-14T07:49:59Z</time>
      </trkpt>
      <trkpt lat="45.66039" lon="4.63915">
        <ele>453</ele>
        <time>2018-10-14T07:50:00Z</time>
      </trkpt>
      <trkpt lat="45.66043" lon="4.63914">
        <ele>453</ele>
        <time>2018-10-14T07:50:01Z</time>
      </trkpt>
      <trkpt lat="45.66047" lon="4.63913">
        <ele>454</ele>
        <time>2018-10-14T07:50:02Z</time>
      </trkpt>
      <trkpt lat="45.66049" lon="4.63911">
        <ele>454</ele>
        <time>2018-10-14T07:50:03Z</time>
      </trkpt>
      <trkpt lat="45.66052" lon="4.6391">
        <ele>453</ele>
        <time>2018-10-14T07:50:04Z</time>
      </trkpt>
      <trkpt lat="45.66055" lon="4.63909">
        <ele>452</ele>
        <time>2018-10-14T07:50:05Z</time>
      </trkpt>
      <trkpt lat="45.66058" lon="4.63907">
        <ele>453</ele>
        <time>2018-10-14T07:50:06Z</time>
      </trkpt>
      <trkpt lat="45.66062" lon="4.63906">
        <ele>453</ele>
        <time>2018-10-14T07:50:07Z</time>
      </trkpt>
      <trkpt lat="45.66065" lon="4.63905">
        <ele>452</ele>
        <time>2018-10-14T07:50:08Z</time>
      </trkpt>
      <trkpt lat="45.66067" lon="4.63904">
        <ele>452</ele>
        <time>2018-10-14T07:50:09Z</time>
      </trkpt>
      <trkpt lat="45.66068" lon="4.63903">
        <ele>453</ele>
        <time>2018-10-14T07:50:10Z</time>
      </trkpt>
      <trkpt lat="45.66069" lon="4.63902">
        <ele>453</ele>
        <time>2018-10-14T07:50:11Z</time>
      </trkpt>
      <trkpt lat="45.66071" lon="4.639">
        <ele>454</ele>
        <time>2018-10-14T07:50:12Z</time>
      </trkpt>
      <trkpt lat="45.66078" lon="4.63896">
        <ele>456</ele>
        <time>2018-10-14T07:50:13Z</time>
      </trkpt>
      <trkpt lat="45.66081" lon="4.63895">
        <ele>456</ele>
        <time>2018-10-14T07:50:14Z</time>
      </trkpt>
      <trkpt lat="45.66082" lon="4.63893">
        <ele>455</ele>
        <time>2018-10-14T07:50:15Z</time>
      </trkpt>
      <trkpt lat="45.66082" lon="4.6389">
        <ele>455</ele>
        <time>2018-10-14T07:50:16Z</time>
      </trkpt>
      <trkpt lat="45.66083" lon="4.63888">
        <ele>456</ele>
        <time>2018-10-14T07:50:17Z</time>
      </trkpt>
      <trkpt lat="45.66085" lon="4.63885">
        <ele>456</ele>
        <time>2018-10-14T07:50:18Z</time>
      </trkpt>
      <trkpt lat="45.66087" lon="4.63884">
        <ele>457</ele>
        <time>2018-10-14T07:50:19Z</time>
      </trkpt>
      <trkpt lat="45.66089" lon="4.63883">
        <ele>457</ele>
        <time>2018-10-14T07:50:20Z</time>
      </trkpt>
      <trkpt lat="45.66091" lon="4.63881">
        <ele>457</ele>
        <time>2018-10-14T07:50:21Z</time>
      </trkpt>
      <trkpt lat="45.66094" lon="4.63882">
        <ele>457</ele>
        <time>2018-10-14T07:50:22Z</time>
      </trkpt>
      <trkpt lat="45.66097" lon="4.63883">
        <ele>458</ele>
        <time>2018-10-14T07:50:23Z</time>
      </trkpt>
      <trkpt lat="45.66102" lon="4.63882">
        <ele>457</ele>
        <time>2018-10-14T07:50:24Z</time>
      </trkpt>
      <trkpt lat="45.66105" lon="4.63883">
        <ele>457</ele>
        <time>2018-10-14T07:50:25Z</time>
      </trkpt>
      <trkpt lat="45.66108" lon="4.63884">
        <ele>458</ele>
        <time>2018-10-14T07:50:26Z</time>
      </trkpt>
      <trkpt lat="45.66111" lon="4.63884">
        <ele>459</ele>
        <time>2018-10-14T07:50:27Z</time>
      </trkpt>
      <trkpt lat="45.66115" lon="4.63885">
        <ele>458</ele>
        <time>2018-10-14T07:50:28Z</time>
      </trkpt>
      <trkpt lat="45.66119" lon="4.63886">
        <ele>458</ele>
        <time>2018-10-14T07:50:29Z</time>
      </trkpt>
      <trkpt lat="45.66122" lon="4.63887">
        <ele>459</ele>
        <time>2018-10-14T07:50:30Z</time>
      </trkpt>
      <trkpt lat="45.66125" lon="4.63888">
        <ele>460</ele>
        <time>2018-10-14T07:50:31Z</time>
      </trkpt>
      <trkpt lat="45.66128" lon="4.6389">
        <ele>460</ele>
        <time>2018-10-14T07:50:32Z</time>
      </trkpt>
      <trkpt lat="45.66131" lon="4.63891">
        <ele>460</ele>
        <time>2018-10-14T07:50:33Z</time>
      </trkpt>
      <trkpt lat="45.66134" lon="4.63893">
        <ele>460</ele>
        <time>2018-10-14T07:50:34Z</time>
      </trkpt>
      <trkpt lat="45.66138" lon="4.63894">
        <ele>461</ele>
        <time>2018-10-14T07:50:35Z</time>
      </trkpt>
      <trkpt lat="45.66141" lon="4.63895">
        <ele>461</ele>
        <time>2018-10-14T07:50:36Z</time>
      </trkpt>
      <trkpt lat="45.66144" lon="4.63896">
        <ele>461</ele>
        <time>2018-10-14T07:50:37Z</time>
      </trkpt>
      <trkpt lat="45.66148" lon="4.63897">
        <ele>461</ele>
        <time>2018-10-14T07:50:38Z</time>
      </trkpt>
      <trkpt lat="45.66151" lon="4.63899">
        <ele>462</ele>
        <time>2018-10-14T07:50:39Z</time>
      </trkpt>
      <trkpt lat="45.66154" lon="4.639">
        <ele>463</ele>
        <time>2018-10-14T07:50:40Z</time>
      </trkpt>
      <trkpt lat="45.66158" lon="4.63901">
        <ele>462</ele>
        <time>2018-10-14T07:50:41Z</time>
      </trkpt>
      <trkpt lat="45.66161" lon="4.63903">
        <ele>463</ele>
        <time>2018-10-14T07:50:42Z</time>
      </trkpt>
      <trkpt lat="45.66164" lon="4.63905">
        <ele>463</ele>
        <time>2018-10-14T07:50:43Z</time>
      </trkpt>
      <trkpt lat="45.66166" lon="4.63907">
        <ele>462</ele>
        <time>2018-10-14T07:50:44Z</time>
      </trkpt>
      <trkpt lat="45.66169" lon="4.63909">
        <ele>463</ele>
        <time>2018-10-14T07:50:45Z</time>
      </trkpt>
      <trkpt lat="45.66172" lon="4.63911">
        <ele>463</ele>
        <time>2018-10-14T07:50:46Z</time>
      </trkpt>
      <trkpt lat="45.66174" lon="4.63913">
        <ele>463</ele>
        <time>2018-10-14T07:50:47Z</time>
      </trkpt>
      <trkpt lat="45.66177" lon="4.63915">
        <ele>463</ele>
        <time>2018-10-14T07:50:48Z</time>
      </trkpt>
      <trkpt lat="45.6618" lon="4.63918">
        <ele>463</ele>
        <time>2018-10-14T07:50:49Z</time>
      </trkpt>
      <trkpt lat="45.66183" lon="4.63919">
        <ele>463</ele>
        <time>2018-10-14T07:50:50Z</time>
      </trkpt>
      <trkpt lat="45.66186" lon="4.63921">
        <ele>463</ele>
        <time>2018-10-14T07:50:51Z</time>
      </trkpt>
      <trkpt lat="45.66189" lon="4.63922">
        <ele>464</ele>
        <time>2018-10-14T07:50:52Z</time>
      </trkpt>
      <trkpt lat="45.66192" lon="4.63923">
        <ele>465</ele>
        <time>2018-10-14T07:50:53Z</time>
      </trkpt>
      <trkpt lat="45.66194" lon="4.63924">
        <ele>465</ele>
        <time>2018-10-14T07:50:54Z</time>
      </trkpt>
      <trkpt lat="45.66196" lon="4.63926">
        <ele>465</ele>
        <time>2018-10-14T07:50:55Z</time>
      </trkpt>
      <trkpt lat="45.66199" lon="4.63927">
        <ele>465</ele>
        <time>2018-10-14T07:50:56Z</time>
      </trkpt>
      <trkpt lat="45.662" lon="4.63929">
        <ele>465</ele>
        <time>2018-10-14T07:50:57Z</time>
      </trkpt>
      <trkpt lat="45.66201" lon="4.6393">
        <ele>466</ele>
        <time>2018-10-14T07:50:58Z</time>
      </trkpt>
      <trkpt lat="45.66203" lon="4.6393">
        <ele>465</ele>
        <time>2018-10-14T07:50:59Z</time>
      </trkpt>
      <trkpt lat="45.66205" lon="4.63931">
        <ele>466</ele>
        <time>2018-10-14T07:51:00Z</time>
      </trkpt>
      <trkpt lat="45.66207" lon="4.63931">
        <ele>465</ele>
        <time>2018-10-14T07:51:01Z</time>
      </trkpt>
      <trkpt lat="45.66209" lon="4.63932">
        <ele>465</ele>
        <time>2018-10-14T07:51:02Z</time>
      </trkpt>
      <trkpt lat="45.66211" lon="4.63932">
        <ele>465</ele>
        <time>2018-10-14T07:51:03Z</time>
      </trkpt>
      <trkpt lat="45.66213" lon="4.63932">
        <ele>466</ele>
        <time>2018-10-14T07:51:04Z</time>
      </trkpt>
      <trkpt lat="45.66215" lon="4.63932">
        <ele>466</ele>
        <time>2018-10-14T07:51:05Z</time>
      </trkpt>
      <trkpt lat="45.66217" lon="4.63932">
        <ele>466</ele>
        <time>2018-10-14T07:51:06Z</time>
      </trkpt>
      <trkpt lat="45.6622" lon="4.63932">
        <ele>465</ele>
        <time>2018-10-14T07:51:07Z</time>
      </trkpt>
      <trkpt lat="45.66222" lon="4.63932">
        <ele>466</ele>
        <time>2018-10-14T07:51:08Z</time>
      </trkpt>
      <trkpt lat="45.66224" lon="4.63932">
        <ele>466</ele>
        <time>2018-10-14T07:51:09Z</time>
      </trkpt>
      <trkpt lat="45.66227" lon="4.63933">
        <ele>466</ele>
        <time>2018-10-14T07:51:10Z</time>
      </trkpt>
      <trkpt lat="45.66229" lon="4.63933">
        <ele>467</ele>
        <time>2018-10-14T07:51:11Z</time>
      </trkpt>
      <trkpt lat="45.66231" lon="4.63934">
        <ele>467</ele>
        <time>2018-10-14T07:51:12Z</time>
      </trkpt>
      <trkpt lat="45.66233" lon="4.63936">
        <ele>467</ele>
        <time>2018-10-14T07:51:13Z</time>
      </trkpt>
      <trkpt lat="45.66236" lon="4.63937">
        <ele>467</ele>
        <time>2018-10-14T07:51:14Z</time>
      </trkpt>
      <trkpt lat="45.66238" lon="4.63939">
        <ele>468</ele>
        <time>2018-10-14T07:51:15Z</time>
      </trkpt>
      <trkpt lat="45.6624" lon="4.63941">
        <ele>468</ele>
        <time>2018-10-14T07:51:16Z</time>
      </trkpt>
      <trkpt lat="45.66243" lon="4.63942">
        <ele>468</ele>
        <time>2018-10-14T07:51:17Z</time>
      </trkpt>
      <trkpt lat="45.66248" lon="4.63944">
        <ele>468</ele>
        <time>2018-10-14T07:51:19Z</time>
      </trkpt>
      <trkpt lat="45.66257" lon="4.63949">
        <ele>469</ele>
        <time>2018-10-14T07:51:20Z</time>
      </trkpt>
      <trkpt lat="45.6626" lon="4.6395">
        <ele>468</ele>
        <time>2018-10-14T07:51:21Z</time>
      </trkpt>
      <trkpt lat="45.66264" lon="4.63951">
        <ele>468</ele>
        <time>2018-10-14T07:51:22Z</time>
      </trkpt>
      <trkpt lat="45.66266" lon="4.63952">
        <ele>468</ele>
        <time>2018-10-14T07:51:23Z</time>
      </trkpt>
      <trkpt lat="45.66269" lon="4.63952">
        <ele>468</ele>
        <time>2018-10-14T07:51:24Z</time>
      </trkpt>
      <trkpt lat="45.66273" lon="4.63954">
        <ele>468</ele>
        <time>2018-10-14T07:51:25Z</time>
      </trkpt>
      <trkpt lat="45.66276" lon="4.63955">
        <ele>468</ele>
        <time>2018-10-14T07:51:26Z</time>
      </trkpt>
      <trkpt lat="45.66279" lon="4.63957">
        <ele>468</ele>
        <time>2018-10-14T07:51:27Z</time>
      </trkpt>
      <trkpt lat="45.66283" lon="4.63959">
        <ele>468</ele>
        <time>2018-10-14T07:51:28Z</time>
      </trkpt>
      <trkpt lat="45.66286" lon="4.6396">
        <ele>468</ele>
        <time>2018-10-14T07:51:29Z</time>
      </trkpt>
      <trkpt lat="45.6629" lon="4.63961">
        <ele>468</ele>
        <time>2018-10-14T07:51:30Z</time>
      </trkpt>
      <trkpt lat="45.66293" lon="4.63963">
        <ele>468</ele>
        <time>2018-10-14T07:51:31Z</time>
      </trkpt>
      <trkpt lat="45.66296" lon="4.63965">
        <ele>468</ele>
        <time>2018-10-14T07:51:32Z</time>
      </trkpt>
      <trkpt lat="45.66299" lon="4.63967">
        <ele>469</ele>
        <time>2018-10-14T07:51:33Z</time>
      </trkpt>
      <trkpt lat="45.66303" lon="4.63968">
        <ele>469</ele>
        <time>2018-10-14T07:51:34Z</time>
      </trkpt>
      <trkpt lat="45.66307" lon="4.6397">
        <ele>469</ele>
        <time>2018-10-14T07:51:35Z</time>
      </trkpt>
      <trkpt lat="45.66311" lon="4.63971">
        <ele>470</ele>
        <time>2018-10-14T07:51:36Z</time>
      </trkpt>
      <trkpt lat="45.66315" lon="4.63973">
        <ele>470</ele>
        <time>2018-10-14T07:51:37Z</time>
      </trkpt>
      <trkpt lat="45.66319" lon="4.63974">
        <ele>470</ele>
        <time>2018-10-14T07:51:38Z</time>
      </trkpt>
      <trkpt lat="45.66324" lon="4.63976">
        <ele>469</ele>
        <time>2018-10-14T07:51:39Z</time>
      </trkpt>
      <trkpt lat="45.66328" lon="4.63978">
        <ele>469</ele>
        <time>2018-10-14T07:51:40Z</time>
      </trkpt>
      <trkpt lat="45.66334" lon="4.6398">
        <ele>469</ele>
        <time>2018-10-14T07:51:41Z</time>
      </trkpt>
      <trkpt lat="45.6634" lon="4.63983">
        <ele>468</ele>
        <time>2018-10-14T07:51:42Z</time>
      </trkpt>
      <trkpt lat="45.66344" lon="4.63984">
        <ele>468</ele>
        <time>2018-10-14T07:51:43Z</time>
      </trkpt>
      <trkpt lat="45.66348" lon="4.63985">
        <ele>469</ele>
        <time>2018-10-14T07:51:44Z</time>
      </trkpt>
      <trkpt lat="45.6635" lon="4.63986">
        <ele>469</ele>
        <time>2018-10-14T07:51:45Z</time>
      </trkpt>
      <trkpt lat="45.66353" lon="4.63983">
        <ele>471</ele>
        <time>2018-10-14T07:51:46Z</time>
      </trkpt>
      <trkpt lat="45.66353" lon="4.6398">
        <ele>471</ele>
        <time>2018-10-14T07:51:47Z</time>
      </trkpt>
      <trkpt lat="45.66352" lon="4.63977">
        <ele>471</ele>
        <time>2018-10-14T07:51:48Z</time>
      </trkpt>
      <trkpt lat="45.66351" lon="4.63975">
        <ele>471</ele>
        <time>2018-10-14T07:51:49Z</time>
      </trkpt>
      <trkpt lat="45.66349" lon="4.63973">
        <ele>471</ele>
        <time>2018-10-14T07:51:50Z</time>
      </trkpt>
      <trkpt lat="45.66348" lon="4.6397">
        <ele>471</ele>
        <time>2018-10-14T07:51:51Z</time>
      </trkpt>
      <trkpt lat="45.66347" lon="4.63968">
        <ele>471</ele>
        <time>2018-10-14T07:51:52Z</time>
      </trkpt>
      <trkpt lat="45.66346" lon="4.63967">
        <ele>472</ele>
        <time>2018-10-14T07:51:53Z</time>
      </trkpt>
      <trkpt lat="45.66345" lon="4.63965">
        <ele>472</ele>
        <time>2018-10-14T07:51:54Z</time>
      </trkpt>
      <trkpt lat="45.66345" lon="4.63963">
        <ele>472</ele>
        <time>2018-10-14T07:51:55Z</time>
      </trkpt>
      <trkpt lat="45.66344" lon="4.63961">
        <ele>472</ele>
        <time>2018-10-14T07:51:56Z</time>
      </trkpt>
      <trkpt lat="45.66344" lon="4.63957">
        <ele>472</ele>
        <time>2018-10-14T07:51:58Z</time>
      </trkpt>
      <trkpt lat="45.66343" lon="4.63954">
        <ele>473</ele>
        <time>2018-10-14T07:51:59Z</time>
      </trkpt>
      <trkpt lat="45.66343" lon="4.63951">
        <ele>474</ele>
        <time>2018-10-14T07:52:00Z</time>
      </trkpt>
      <trkpt lat="45.66342" lon="4.63948">
        <ele>474</ele>
        <time>2018-10-14T07:52:01Z</time>
      </trkpt>
      <trkpt lat="45.66341" lon="4.63945">
        <ele>474</ele>
        <time>2018-10-14T07:52:02Z</time>
      </trkpt>
      <trkpt lat="45.66341" lon="4.63943">
        <ele>474</ele>
        <time>2018-10-14T07:52:03Z</time>
      </trkpt>
      <trkpt lat="45.6634" lon="4.6394">
        <ele>475</ele>
        <time>2018-10-14T07:52:04Z</time>
      </trkpt>
      <trkpt lat="45.6634" lon="4.63937">
        <ele>475</ele>
        <time>2018-10-14T07:52:05Z</time>
      </trkpt>
      <trkpt lat="45.66339" lon="4.63934">
        <ele>476</ele>
        <time>2018-10-14T07:52:06Z</time>
      </trkpt>
      <trkpt lat="45.66339" lon="4.63932">
        <ele>476</ele>
        <time>2018-10-14T07:52:07Z</time>
      </trkpt>
      <trkpt lat="45.66338" lon="4.6393">
        <ele>476</ele>
        <time>2018-10-14T07:52:08Z</time>
      </trkpt>
      <trkpt lat="45.66338" lon="4.63927">
        <ele>476</ele>
        <time>2018-10-14T07:52:09Z</time>
      </trkpt>
      <trkpt lat="45.66337" lon="4.63925">
        <ele>476</ele>
        <time>2018-10-14T07:52:10Z</time>
      </trkpt>
      <trkpt lat="45.66337" lon="4.63923">
        <ele>476</ele>
        <time>2018-10-14T07:52:11Z</time>
      </trkpt>
      <trkpt lat="45.66336" lon="4.6392">
        <ele>477</ele>
        <time>2018-10-14T07:52:12Z</time>
      </trkpt>
      <trkpt lat="45.66335" lon="4.63918">
        <ele>477</ele>
        <time>2018-10-14T07:52:13Z</time>
      </trkpt>
      <trkpt lat="45.66335" lon="4.63915">
        <ele>477</ele>
        <time>2018-10-14T07:52:14Z</time>
      </trkpt>
      <trkpt lat="45.66334" lon="4.63912">
        <ele>478</ele>
        <time>2018-10-14T07:52:15Z</time>
      </trkpt>
      <trkpt lat="45.66333" lon="4.63909">
        <ele>478</ele>
        <time>2018-10-14T07:52:16Z</time>
      </trkpt>
      <trkpt lat="45.66333" lon="4.63906">
        <ele>478</ele>
        <time>2018-10-14T07:52:17Z</time>
      </trkpt>
      <trkpt lat="45.66333" lon="4.63903">
        <ele>478</ele>
        <time>2018-10-14T07:52:18Z</time>
      </trkpt>
      <trkpt lat="45.66333" lon="4.639">
        <ele>478</ele>
        <time>2018-10-14T07:52:19Z</time>
      </trkpt>
      <trkpt lat="45.66332" lon="4.63897">
        <ele>478</ele>
        <time>2018-10-14T07:52:20Z</time>
      </trkpt>
      <trkpt lat="45.66332" lon="4.63895">
        <ele>478</ele>
        <time>2018-10-14T07:52:21Z</time>
      </trkpt>
      <trkpt lat="45.66332" lon="4.63893">
        <ele>479</ele>
        <time>2018-10-14T07:52:22Z</time>
      </trkpt>
      <trkpt lat="45.66331" lon="4.6389">
        <ele>479</ele>
        <time>2018-10-14T07:52:23Z</time>
      </trkpt>
      <trkpt lat="45.66331" lon="4.63888">
        <ele>480</ele>
        <time>2018-10-14T07:52:24Z</time>
      </trkpt>
      <trkpt lat="45.6633" lon="4.63885">
        <ele>480</ele>
        <time>2018-10-14T07:52:25Z</time>
      </trkpt>
      <trkpt lat="45.6633" lon="4.63883">
        <ele>480</ele>
        <time>2018-10-14T07:52:26Z</time>
      </trkpt>
      <trkpt lat="45.66329" lon="4.63879">
        <ele>481</ele>
        <time>2018-10-14T07:52:28Z</time>
      </trkpt>
      <trkpt lat="45.66328" lon="4.63876">
        <ele>481</ele>
        <time>2018-10-14T07:52:29Z</time>
      </trkpt>
      <trkpt lat="45.66327" lon="4.63874">
        <ele>481</ele>
        <time>2018-10-14T07:52:30Z</time>
      </trkpt>
      <trkpt lat="45.66327" lon="4.63871">
        <ele>481</ele>
        <time>2018-10-14T07:52:31Z</time>
      </trkpt>
      <trkpt lat="45.66327" lon="4.63868">
        <ele>481</ele>
        <time>2018-10-14T07:52:32Z</time>
      </trkpt>
      <trkpt lat="45.66326" lon="4.63866">
        <ele>481</ele>
        <time>2018-10-14T07:52:33Z</time>
      </trkpt>
      <trkpt lat="45.66325" lon="4.63863">
        <ele>481</ele>
        <time>2018-10-14T07:52:34Z</time>
      </trkpt>
      <trkpt lat="45.66325" lon="4.6386">
        <ele>481</ele>
        <time>2018-10-14T07:52:35Z</time>
      </trkpt>
      <trkpt lat="45.66324" lon="4.63857">
        <ele>482</ele>
        <time>2018-10-14T07:52:36Z</time>
      </trkpt>
      <trkpt lat="45.66324" lon="4.63855">
        <ele>482</ele>
        <time>2018-10-14T07:52:37Z</time>
      </trkpt>
      <trkpt lat="45.66323" lon="4.63852">
        <ele>483</ele>
        <time>2018-10-14T07:52:38Z</time>
      </trkpt>
      <trkpt lat="45.66323" lon="4.63849">
        <ele>483</ele>
        <time>2018-10-14T07:52:39Z</time>
      </trkpt>
      <trkpt lat="45.66322" lon="4.63847">
        <ele>483</ele>
        <time>2018-10-14T07:52:40Z</time>
      </trkpt>
      <trkpt lat="45.66321" lon="4.63843">
        <ele>484</ele>
        <time>2018-10-14T07:52:41Z</time>
      </trkpt>
      <trkpt lat="45.66321" lon="4.63841">
        <ele>484</ele>
        <time>2018-10-14T07:52:42Z</time>
      </trkpt>
      <trkpt lat="45.6632" lon="4.63838">
        <ele>484</ele>
        <time>2018-10-14T07:52:43Z</time>
      </trkpt>
      <trkpt lat="45.66319" lon="4.63835">
        <ele>484</ele>
        <time>2018-10-14T07:52:44Z</time>
      </trkpt>
      <trkpt lat="45.66319" lon="4.63832">
        <ele>484</ele>
        <time>2018-10-14T07:52:45Z</time>
      </trkpt>
      <trkpt lat="45.66318" lon="4.63829">
        <ele>484</ele>
        <time>2018-10-14T07:52:46Z</time>
      </trkpt>
      <trkpt lat="45.66317" lon="4.63827">
        <ele>484</ele>
        <time>2018-10-14T07:52:47Z</time>
      </trkpt>
      <trkpt lat="45.66317" lon="4.63824">
        <ele>484</ele>
        <time>2018-10-14T07:52:48Z</time>
      </trkpt>
      <trkpt lat="45.66316" lon="4.63822">
        <ele>484</ele>
        <time>2018-10-14T07:52:49Z</time>
      </trkpt>
      <trkpt lat="45.66315" lon="4.63819">
        <ele>484</ele>
        <time>2018-10-14T07:52:50Z</time>
      </trkpt>
      <trkpt lat="45.66314" lon="4.63817">
        <ele>484</ele>
        <time>2018-10-14T07:52:51Z</time>
      </trkpt>
      <trkpt lat="45.66314" lon="4.63815">
        <ele>484</ele>
        <time>2018-10-14T07:52:52Z</time>
      </trkpt>
      <trkpt lat="45.66313" lon="4.63812">
        <ele>484</ele>
        <time>2018-10-14T07:52:53Z</time>
      </trkpt>
      <trkpt lat="45.66312" lon="4.63809">
        <ele>483</ele>
        <time>2018-10-14T07:52:54Z</time>
      </trkpt>
      <trkpt lat="45.66312" lon="4.63806">
        <ele>483</ele>
        <time>2018-10-14T07:52:55Z</time>
      </trkpt>
      <trkpt lat="45.66312" lon="4.63803">
        <ele>484</ele>
        <time>2018-10-14T07:52:56Z</time>
      </trkpt>
      <trkpt lat="45.66311" lon="4.638">
        <ele>484</ele>
        <time>2018-10-14T07:52:58Z</time>
      </trkpt>
      <trkpt lat="45.6631" lon="4.63798">
        <ele>485</ele>
        <time>2018-10-14T07:52:59Z</time>
      </trkpt>
      <trkpt lat="45.6631" lon="4.63795">
        <ele>485</ele>
        <time>2018-10-14T07:53:00Z</time>
      </trkpt>
      <trkpt lat="45.66309" lon="4.63792">
        <ele>485</ele>
        <time>2018-10-14T07:53:01Z</time>
      </trkpt>
      <trkpt lat="45.66309" lon="4.63789">
        <ele>485</ele>
        <time>2018-10-14T07:53:02Z</time>
      </trkpt>
      <trkpt lat="45.66308" lon="4.63786">
        <ele>486</ele>
        <time>2018-10-14T07:53:03Z</time>
      </trkpt>
      <trkpt lat="45.66307" lon="4.63783">
        <ele>486</ele>
        <time>2018-10-14T07:53:04Z</time>
      </trkpt>
      <trkpt lat="45.66306" lon="4.6378">
        <ele>486</ele>
        <time>2018-10-14T07:53:05Z</time>
      </trkpt>
      <trkpt lat="45.66306" lon="4.63777">
        <ele>486</ele>
        <time>2018-10-14T07:53:06Z</time>
      </trkpt>
      <trkpt lat="45.66305" lon="4.63774">
        <ele>487</ele>
        <time>2018-10-14T07:53:07Z</time>
      </trkpt>
      <trkpt lat="45.66305" lon="4.63772">
        <ele>487</ele>
        <time>2018-10-14T07:53:08Z</time>
      </trkpt>
      <trkpt lat="45.66304" lon="4.63769">
        <ele>488</ele>
        <time>2018-10-14T07:53:09Z</time>
      </trkpt>
      <trkpt lat="45.66303" lon="4.63766">
        <ele>488</ele>
        <time>2018-10-14T07:53:10Z</time>
      </trkpt>
      <trkpt lat="45.66303" lon="4.63764">
        <ele>489</ele>
        <time>2018-10-14T07:53:11Z</time>
      </trkpt>
      <trkpt lat="45.66303" lon="4.63762">
        <ele>490</ele>
        <time>2018-10-14T07:53:12Z</time>
      </trkpt>
      <trkpt lat="45.66302" lon="4.63759">
        <ele>490</ele>
        <time>2018-10-14T07:53:13Z</time>
      </trkpt>
      <trkpt lat="45.66302" lon="4.63757">
        <ele>490</ele>
        <time>2018-10-14T07:53:14Z</time>
      </trkpt>
      <trkpt lat="45.66301" lon="4.63755">
        <ele>491</ele>
        <time>2018-10-14T07:53:15Z</time>
      </trkpt>
      <trkpt lat="45.66301" lon="4.63752">
        <ele>491</ele>
        <time>2018-10-14T07:53:16Z</time>
      </trkpt>
      <trkpt lat="45.663" lon="4.63749">
        <ele>491</ele>
        <time>2018-10-14T07:53:17Z</time>
      </trkpt>
      <trkpt lat="45.663" lon="4.63747">
        <ele>491</ele>
        <time>2018-10-14T07:53:18Z</time>
      </trkpt>
      <trkpt lat="45.66299" lon="4.63745">
        <ele>490</ele>
        <time>2018-10-14T07:53:19Z</time>
      </trkpt>
      <trkpt lat="45.66299" lon="4.63743">
        <ele>491</ele>
        <time>2018-10-14T07:53:20Z</time>
      </trkpt>
      <trkpt lat="45.66299" lon="4.63741">
        <ele>492</ele>
        <time>2018-10-14T07:53:21Z</time>
      </trkpt>
      <trkpt lat="45.66298" lon="4.63739">
        <ele>493</ele>
        <time>2018-10-14T07:53:22Z</time>
      </trkpt>
      <trkpt lat="45.66297" lon="4.63736">
        <ele>493</ele>
        <time>2018-10-14T07:53:23Z</time>
      </trkpt>
      <trkpt lat="45.66296" lon="4.63734">
        <ele>493</ele>
        <time>2018-10-14T07:53:24Z</time>
      </trkpt>
      <trkpt lat="45.66296" lon="4.63732">
        <ele>493</ele>
        <time>2018-10-14T07:53:25Z</time>
      </trkpt>
      <trkpt lat="45.66295" lon="4.63729">
        <ele>494</ele>
        <time>2018-10-14T07:53:26Z</time>
      </trkpt>
      <trkpt lat="45.66295" lon="4.63727">
        <ele>494</ele>
        <time>2018-10-14T07:53:27Z</time>
      </trkpt>
      <trkpt lat="45.66294" lon="4.63726">
        <ele>494</ele>
        <time>2018-10-14T07:53:28Z</time>
      </trkpt>
      <trkpt lat="45.66293" lon="4.63723">
        <ele>495</ele>
        <time>2018-10-14T07:53:29Z</time>
      </trkpt>
      <trkpt lat="45.66293" lon="4.63721">
        <ele>496</ele>
        <time>2018-10-14T07:53:30Z</time>
      </trkpt>
      <trkpt lat="45.66293" lon="4.63718">
        <ele>496</ele>
        <time>2018-10-14T07:53:31Z</time>
      </trkpt>
      <trkpt lat="45.66293" lon="4.63716">
        <ele>496</ele>
        <time>2018-10-14T07:53:32Z</time>
      </trkpt>
      <trkpt lat="45.66293" lon="4.63713">
        <ele>496</ele>
        <time>2018-10-14T07:53:33Z</time>
      </trkpt>
      <trkpt lat="45.66294" lon="4.63711">
        <ele>496</ele>
        <time>2018-10-14T07:53:34Z</time>
      </trkpt>
      <trkpt lat="45.66295" lon="4.63708">
        <ele>497</ele>
        <time>2018-10-14T07:53:35Z</time>
      </trkpt>
      <trkpt lat="45.66295" lon="4.63706">
        <ele>497</ele>
        <time>2018-10-14T07:53:36Z</time>
      </trkpt>
      <trkpt lat="45.66296" lon="4.63703">
        <ele>498</ele>
        <time>2018-10-14T07:53:37Z</time>
      </trkpt>
      <trkpt lat="45.66297" lon="4.63701">
        <ele>498</ele>
        <time>2018-10-14T07:53:38Z</time>
      </trkpt>
      <trkpt lat="45.66298" lon="4.63698">
        <ele>498</ele>
        <time>2018-10-14T07:53:39Z</time>
      </trkpt>
      <trkpt lat="45.66299" lon="4.63696">
        <ele>498</ele>
        <time>2018-10-14T07:53:40Z</time>
      </trkpt>
      <trkpt lat="45.663" lon="4.63694">
        <ele>498</ele>
        <time>2018-10-14T07:53:41Z</time>
      </trkpt>
      <trkpt lat="45.66301" lon="4.63692">
        <ele>498</ele>
        <time>2018-10-14T07:53:42Z</time>
      </trkpt>
      <trkpt lat="45.66303" lon="4.63691">
        <ele>498</ele>
        <time>2018-10-14T07:53:43Z</time>
      </trkpt>
      <trkpt lat="45.66304" lon="4.63689">
        <ele>499</ele>
        <time>2018-10-14T07:53:44Z</time>
      </trkpt>
      <trkpt lat="45.66306" lon="4.63687">
        <ele>499</ele>
        <time>2018-10-14T07:53:45Z</time>
      </trkpt>
      <trkpt lat="45.66308" lon="4.63684">
        <ele>499</ele>
        <time>2018-10-14T07:53:46Z</time>
      </trkpt>
      <trkpt lat="45.66309" lon="4.63682">
        <ele>499</ele>
        <time>2018-10-14T07:53:47Z</time>
      </trkpt>
      <trkpt lat="45.66311" lon="4.6368">
        <ele>500</ele>
        <time>2018-10-14T07:53:48Z</time>
      </trkpt>
      <trkpt lat="45.66312" lon="4.63679">
        <ele>500</ele>
        <time>2018-10-14T07:53:49Z</time>
      </trkpt>
      <trkpt lat="45.66314" lon="4.63677">
        <ele>501</ele>
        <time>2018-10-14T07:53:50Z</time>
      </trkpt>
      <trkpt lat="45.66316" lon="4.63676">
        <ele>501</ele>
        <time>2018-10-14T07:53:51Z</time>
      </trkpt>
      <trkpt lat="45.66318" lon="4.63674">
        <ele>501</ele>
        <time>2018-10-14T07:53:52Z</time>
      </trkpt>
      <trkpt lat="45.66319" lon="4.63673">
        <ele>502</ele>
        <time>2018-10-14T07:53:53Z</time>
      </trkpt>
      <trkpt lat="45.66321" lon="4.63671">
        <ele>502</ele>
        <time>2018-10-14T07:53:54Z</time>
      </trkpt>
      <trkpt lat="45.66322" lon="4.63668">
        <ele>502</ele>
        <time>2018-10-14T07:53:55Z</time>
      </trkpt>
      <trkpt lat="45.66325" lon="4.63665">
        <ele>502</ele>
        <time>2018-10-14T07:53:56Z</time>
      </trkpt>
      <trkpt lat="45.66328" lon="4.63662">
        <ele>501</ele>
        <time>2018-10-14T07:53:57Z</time>
      </trkpt>
      <trkpt lat="45.66332" lon="4.63659">
        <ele>501</ele>
        <time>2018-10-14T07:53:58Z</time>
      </trkpt>
      <trkpt lat="45.66335" lon="4.63655">
        <ele>501</ele>
        <time>2018-10-14T07:53:59Z</time>
      </trkpt>
      <trkpt lat="45.6634" lon="4.63654">
        <ele>502</ele>
        <time>2018-10-14T07:54:00Z</time>
      </trkpt>
      <trkpt lat="45.66345" lon="4.63651">
        <ele>503</ele>
        <time>2018-10-14T07:54:01Z</time>
      </trkpt>
      <trkpt lat="45.66349" lon="4.63649">
        <ele>503</ele>
        <time>2018-10-14T07:54:02Z</time>
      </trkpt>
      <trkpt lat="45.66354" lon="4.63644">
        <ele>504</ele>
        <time>2018-10-14T07:54:03Z</time>
      </trkpt>
      <trkpt lat="45.6636" lon="4.63637">
        <ele>502</ele>
        <time>2018-10-14T07:54:04Z</time>
      </trkpt>
      <trkpt lat="45.66365" lon="4.63629">
        <ele>501</ele>
        <time>2018-10-14T07:54:05Z</time>
      </trkpt>
      <trkpt lat="45.66368" lon="4.63618">
        <ele>498</ele>
        <time>2018-10-14T07:54:06Z</time>
      </trkpt>
      <trkpt lat="45.66369" lon="4.63608">
        <ele>498</ele>
        <time>2018-10-14T07:54:07Z</time>
      </trkpt>
      <trkpt lat="45.6637" lon="4.63597">
        <ele>497</ele>
        <time>2018-10-14T07:54:08Z</time>
      </trkpt>
      <trkpt lat="45.66368" lon="4.63585">
        <ele>497</ele>
        <time>2018-10-14T07:54:09Z</time>
      </trkpt>
      <trkpt lat="45.66365" lon="4.63574">
        <ele>496</ele>
        <time>2018-10-14T07:54:10Z</time>
      </trkpt>
      <trkpt lat="45.66362" lon="4.63562">
        <ele>495</ele>
        <time>2018-10-14T07:54:11Z</time>
      </trkpt>
      <trkpt lat="45.66359" lon="4.6355">
        <ele>494</ele>
        <time>2018-10-14T07:54:12Z</time>
      </trkpt>
      <trkpt lat="45.66356" lon="4.63538">
        <ele>493</ele>
        <time>2018-10-14T07:54:13Z</time>
      </trkpt>
      <trkpt lat="45.66353" lon="4.63526">
        <ele>493</ele>
        <time>2018-10-14T07:54:14Z</time>
      </trkpt>
      <trkpt lat="45.6635" lon="4.63512">
        <ele>492</ele>
        <time>2018-10-14T07:54:15Z</time>
      </trkpt>
      <trkpt lat="45.66347" lon="4.63498">
        <ele>493</ele>
        <time>2018-10-14T07:54:16Z</time>
      </trkpt>
      <trkpt lat="45.66345" lon="4.63484">
        <ele>492</ele>
        <time>2018-10-14T07:54:17Z</time>
      </trkpt>
      <trkpt lat="45.66343" lon="4.63471">
        <ele>492</ele>
        <time>2018-10-14T07:54:18Z</time>
      </trkpt>
      <trkpt lat="45.66339" lon="4.63459">
        <ele>491</ele>
        <time>2018-10-14T07:54:19Z</time>
      </trkpt>
      <trkpt lat="45.66336" lon="4.63447">
        <ele>491</ele>
        <time>2018-10-14T07:54:20Z</time>
      </trkpt>
      <trkpt lat="45.66334" lon="4.63435">
        <ele>490</ele>
        <time>2018-10-14T07:54:21Z</time>
      </trkpt>
      <trkpt lat="45.66333" lon="4.63424">
        <ele>489</ele>
        <time>2018-10-14T07:54:22Z</time>
      </trkpt>
      <trkpt lat="45.66333" lon="4.63413">
        <ele>490</ele>
        <time>2018-10-14T07:54:23Z</time>
      </trkpt>
      <trkpt lat="45.66335" lon="4.63402">
        <ele>490</ele>
        <time>2018-10-14T07:54:24Z</time>
      </trkpt>
      <trkpt lat="45.66337" lon="4.63392">
        <ele>490</ele>
        <time>2018-10-14T07:54:25Z</time>
      </trkpt>
      <trkpt lat="45.66339" lon="4.63382">
        <ele>491</ele>
        <time>2018-10-14T07:54:26Z</time>
      </trkpt>
      <trkpt lat="45.66341" lon="4.63373">
        <ele>491</ele>
        <time>2018-10-14T07:54:27Z</time>
      </trkpt>
      <trkpt lat="45.66343" lon="4.63364">
        <ele>491</ele>
        <time>2018-10-14T07:54:28Z</time>
      </trkpt>
      <trkpt lat="45.66344" lon="4.63356">
        <ele>491</ele>
        <time>2018-10-14T07:54:29Z</time>
      </trkpt>
      <trkpt lat="45.66345" lon="4.63347">
        <ele>490</ele>
        <time>2018-10-14T07:54:30Z</time>
      </trkpt>
      <trkpt lat="45.66346" lon="4.63339">
        <ele>490</ele>
        <time>2018-10-14T07:54:31Z</time>
      </trkpt>
      <trkpt lat="45.66347" lon="4.6333">
        <ele>489</ele>
        <time>2018-10-14T07:54:32Z</time>
      </trkpt>
      <trkpt lat="45.66348" lon="4.63321">
        <ele>489</ele>
        <time>2018-10-14T07:54:33Z</time>
      </trkpt>
      <trkpt lat="45.66349" lon="4.63312">
        <ele>488</ele>
        <time>2018-10-14T07:54:34Z</time>
      </trkpt>
      <trkpt lat="45.66349" lon="4.63301">
        <ele>488</ele>
        <time>2018-10-14T07:54:35Z</time>
      </trkpt>
      <trkpt lat="45.66351" lon="4.63292">
        <ele>487</ele>
        <time>2018-10-14T07:54:36Z</time>
      </trkpt>
      <trkpt lat="45.66353" lon="4.63282">
        <ele>487</ele>
        <time>2018-10-14T07:54:37Z</time>
      </trkpt>
      <trkpt lat="45.66354" lon="4.63273">
        <ele>486</ele>
        <time>2018-10-14T07:54:38Z</time>
      </trkpt>
      <trkpt lat="45.66355" lon="4.63262">
        <ele>486</ele>
        <time>2018-10-14T07:54:39Z</time>
      </trkpt>
      <trkpt lat="45.66356" lon="4.63252">
        <ele>485</ele>
        <time>2018-10-14T07:54:40Z</time>
      </trkpt>
      <trkpt lat="45.66357" lon="4.63241">
        <ele>484</ele>
        <time>2018-10-14T07:54:41Z</time>
      </trkpt>
      <trkpt lat="45.66358" lon="4.6323">
        <ele>484</ele>
        <time>2018-10-14T07:54:42Z</time>
      </trkpt>
      <trkpt lat="45.66359" lon="4.63218">
        <ele>483</ele>
        <time>2018-10-14T07:54:43Z</time>
      </trkpt>
      <trkpt lat="45.66361" lon="4.63207">
        <ele>482</ele>
        <time>2018-10-14T07:54:44Z</time>
      </trkpt>
      <trkpt lat="45.66364" lon="4.63197">
        <ele>482</ele>
        <time>2018-10-14T07:54:45Z</time>
      </trkpt>
      <trkpt lat="45.66367" lon="4.63188">
        <ele>482</ele>
        <time>2018-10-14T07:54:46Z</time>
      </trkpt>
      <trkpt lat="45.66372" lon="4.63178">
        <ele>483</ele>
        <time>2018-10-14T07:54:47Z</time>
      </trkpt>
      <trkpt lat="45.66377" lon="4.63176">
        <ele>481</ele>
        <time>2018-10-14T07:54:48Z</time>
      </trkpt>
      <trkpt lat="45.6638" lon="4.63172">
        <ele>481</ele>
        <time>2018-10-14T07:54:49Z</time>
      </trkpt>
      <trkpt lat="45.66385" lon="4.63169">
        <ele>483</ele>
        <time>2018-10-14T07:54:50Z</time>
      </trkpt>
      <trkpt lat="45.66387" lon="4.63166">
        <ele>483</ele>
        <time>2018-10-14T07:54:51Z</time>
      </trkpt>
      <trkpt lat="45.6639" lon="4.63163">
        <ele>482</ele>
        <time>2018-10-14T07:54:52Z</time>
      </trkpt>
      <trkpt lat="45.66393" lon="4.6316">
        <ele>482</ele>
        <time>2018-10-14T07:54:53Z</time>
      </trkpt>
      <trkpt lat="45.66395" lon="4.63158">
        <ele>482</ele>
        <time>2018-10-14T07:54:54Z</time>
      </trkpt>
      <trkpt lat="45.66396" lon="4.63157">
        <ele>482</ele>
        <time>2018-10-14T07:54:55Z</time>
      </trkpt>
      <trkpt lat="45.66398" lon="4.63157">
        <ele>482</ele>
        <time>2018-10-14T07:54:56Z</time>
      </trkpt>
      <trkpt lat="45.66401" lon="4.63158">
        <ele>482</ele>
        <time>2018-10-14T07:54:57Z</time>
      </trkpt>
      <trkpt lat="45.66402" lon="4.63159">
        <ele>482</ele>
        <time>2018-10-14T07:54:58Z</time>
      </trkpt>
      <trkpt lat="45.66404" lon="4.63161">
        <ele>482</ele>
        <time>2018-10-14T07:54:59Z</time>
      </trkpt>
      <trkpt lat="45.66405" lon="4.63162">
        <ele>483</ele>
        <time>2018-10-14T07:55:00Z</time>
      </trkpt>
      <trkpt lat="45.66406" lon="4.63164">
        <ele>483</ele>
        <time>2018-10-14T07:55:01Z</time>
      </trkpt>
      <trkpt lat="45.66407" lon="4.63165">
        <ele>484</ele>
        <time>2018-10-14T07:55:02Z</time>
      </trkpt>
      <trkpt lat="45.66409" lon="4.63168">
        <ele>484</ele>
        <time>2018-10-14T07:55:03Z</time>
      </trkpt>
      <trkpt lat="45.66411" lon="4.63171">
        <ele>484</ele>
        <time>2018-10-14T07:55:04Z</time>
      </trkpt>
      <trkpt lat="45.66413" lon="4.63173">
        <ele>484</ele>
        <time>2018-10-14T07:55:05Z</time>
      </trkpt>
      <trkpt lat="45.66415" lon="4.63175">
        <ele>484</ele>
        <time>2018-10-14T07:55:06Z</time>
      </trkpt>
      <trkpt lat="45.66416" lon="4.63176">
        <ele>485</ele>
        <time>2018-10-14T07:55:07Z</time>
      </trkpt>
      <trkpt lat="45.66418" lon="4.63177">
        <ele>486</ele>
        <time>2018-10-14T07:55:08Z</time>
      </trkpt>
      <trkpt lat="45.6642" lon="4.63179">
        <ele>487</ele>
        <time>2018-10-14T07:55:09Z</time>
      </trkpt>
      <trkpt lat="45.66423" lon="4.63179">
        <ele>488</ele>
        <time>2018-10-14T07:55:10Z</time>
      </trkpt>
      <trkpt lat="45.66425" lon="4.63179">
        <ele>489</ele>
        <time>2018-10-14T07:55:11Z</time>
      </trkpt>
      <trkpt lat="45.66426" lon="4.63178">
        <ele>490</ele>
        <time>2018-10-14T07:55:12Z</time>
      </trkpt>
      <trkpt lat="45.66427" lon="4.63178">
        <ele>491</ele>
        <time>2018-10-14T07:55:13Z</time>
      </trkpt>
      <trkpt lat="45.66428" lon="4.63176">
        <ele>492</ele>
        <time>2018-10-14T07:55:14Z</time>
      </trkpt>
      <trkpt lat="45.6643" lon="4.63174">
        <ele>492</ele>
        <time>2018-10-14T07:55:15Z</time>
      </trkpt>
      <trkpt lat="45.66431" lon="4.63171">
        <ele>491</ele>
        <time>2018-10-14T07:55:16Z</time>
      </trkpt>
      <trkpt lat="45.66433" lon="4.63169">
        <ele>491</ele>
        <time>2018-10-14T07:55:17Z</time>
      </trkpt>
      <trkpt lat="45.66434" lon="4.63166">
        <ele>491</ele>
        <time>2018-10-14T07:55:18Z</time>
      </trkpt>
      <trkpt lat="45.66435" lon="4.63163">
        <ele>491</ele>
        <time>2018-10-14T07:55:19Z</time>
      </trkpt>
      <trkpt lat="45.66436" lon="4.63161">
        <ele>491</ele>
        <time>2018-10-14T07:55:20Z</time>
      </trkpt>
      <trkpt lat="45.66437" lon="4.63159">
        <ele>492</ele>
        <time>2018-10-14T07:55:21Z</time>
      </trkpt>
      <trkpt lat="45.66438" lon="4.63157">
        <ele>492</ele>
        <time>2018-10-14T07:55:22Z</time>
      </trkpt>
      <trkpt lat="45.6644" lon="4.63156">
        <ele>492</ele>
        <time>2018-10-14T07:55:23Z</time>
      </trkpt>
      <trkpt lat="45.66441" lon="4.63155">
        <ele>492</ele>
        <time>2018-10-14T07:55:24Z</time>
      </trkpt>
      <trkpt lat="45.66443" lon="4.63154">
        <ele>493</ele>
        <time>2018-10-14T07:55:25Z</time>
      </trkpt>
      <trkpt lat="45.66445" lon="4.63154">
        <ele>493</ele>
        <time>2018-10-14T07:55:26Z</time>
      </trkpt>
      <trkpt lat="45.66447" lon="4.63154">
        <ele>494</ele>
        <time>2018-10-14T07:55:27Z</time>
      </trkpt>
      <trkpt lat="45.66449" lon="4.63153">
        <ele>494</ele>
        <time>2018-10-14T07:55:28Z</time>
      </trkpt>
      <trkpt lat="45.66451" lon="4.63153">
        <ele>494</ele>
        <time>2018-10-14T07:55:29Z</time>
      </trkpt>
      <trkpt lat="45.66454" lon="4.63152">
        <ele>494</ele>
        <time>2018-10-14T07:55:30Z</time>
      </trkpt>
      <trkpt lat="45.66456" lon="4.63152">
        <ele>494</ele>
        <time>2018-10-14T07:55:31Z</time>
      </trkpt>
      <trkpt lat="45.66458" lon="4.63152">
        <ele>495</ele>
        <time>2018-10-14T07:55:32Z</time>
      </trkpt>
      <trkpt lat="45.6646" lon="4.63153">
        <ele>495</ele>
        <time>2018-10-14T07:55:33Z</time>
      </trkpt>
      <trkpt lat="45.66463" lon="4.63153">
        <ele>495</ele>
        <time>2018-10-14T07:55:34Z</time>
      </trkpt>
      <trkpt lat="45.66465" lon="4.63153">
        <ele>495</ele>
        <time>2018-10-14T07:55:35Z</time>
      </trkpt>
      <trkpt lat="45.66468" lon="4.63153">
        <ele>495</ele>
        <time>2018-10-14T07:55:37Z</time>
      </trkpt>
      <trkpt lat="45.66471" lon="4.63153">
        <ele>495</ele>
        <time>2018-10-14T07:55:38Z</time>
      </trkpt>
      <trkpt lat="45.66473" lon="4.63152">
        <ele>493</ele>
        <time>2018-10-14T07:55:39Z</time>
      </trkpt>
      <trkpt lat="45.66475" lon="4.63152">
        <ele>494</ele>
        <time>2018-10-14T07:55:40Z</time>
      </trkpt>
      <trkpt lat="45.66477" lon="4.63152">
        <ele>494</ele>
        <time>2018-10-14T07:55:41Z</time>
      </trkpt>
      <trkpt lat="45.6648" lon="4.63152">
        <ele>494</ele>
        <time>2018-10-14T07:55:42Z</time>
      </trkpt>
      <trkpt lat="45.66482" lon="4.63152">
        <ele>495</ele>
        <time>2018-10-14T07:55:43Z</time>
      </trkpt>
      <trkpt lat="45.66484" lon="4.63153">
        <ele>495</ele>
        <time>2018-10-14T07:55:44Z</time>
      </trkpt>
      <trkpt lat="45.66487" lon="4.63153">
        <ele>495</ele>
        <time>2018-10-14T07:55:45Z</time>
      </trkpt>
      <trkpt lat="45.66489" lon="4.63154">
        <ele>495</ele>
        <time>2018-10-14T07:55:46Z</time>
      </trkpt>
      <trkpt lat="45.66492" lon="4.63154">
        <ele>495</ele>
        <time>2018-10-14T07:55:47Z</time>
      </trkpt>
      <trkpt lat="45.66495" lon="4.63155">
        <ele>494</ele>
        <time>2018-10-14T07:55:49Z</time>
      </trkpt>
      <trkpt lat="45.66498" lon="4.63155">
        <ele>495</ele>
        <time>2018-10-14T07:55:50Z</time>
      </trkpt>
      <trkpt lat="45.66502" lon="4.63156">
        <ele>496</ele>
        <time>2018-10-14T07:55:52Z</time>
      </trkpt>
      <trkpt lat="45.66505" lon="4.63157">
        <ele>495</ele>
        <time>2018-10-14T07:55:53Z</time>
      </trkpt>
      <trkpt lat="45.66507" lon="4.63158">
        <ele>495</ele>
        <time>2018-10-14T07:55:54Z</time>
      </trkpt>
      <trkpt lat="45.6651" lon="4.63158">
        <ele>495</ele>
        <time>2018-10-14T07:55:55Z</time>
      </trkpt>
      <trkpt lat="45.66513" lon="4.63158">
        <ele>494</ele>
        <time>2018-10-14T07:55:57Z</time>
      </trkpt>
      <trkpt lat="45.66517" lon="4.63159">
        <ele>494</ele>
        <time>2018-10-14T07:55:58Z</time>
      </trkpt>
      <trkpt lat="45.6652" lon="4.6316">
        <ele>494</ele>
        <time>2018-10-14T07:55:59Z</time>
      </trkpt>
      <trkpt lat="45.66523" lon="4.63161">
        <ele>494</ele>
        <time>2018-10-14T07:56:00Z</time>
      </trkpt>
      <trkpt lat="45.66525" lon="4.63161">
        <ele>495</ele>
        <time>2018-10-14T07:56:01Z</time>
      </trkpt>
      <trkpt lat="45.66527" lon="4.63161">
        <ele>494</ele>
        <time>2018-10-14T07:56:02Z</time>
      </trkpt>
      <trkpt lat="45.6653" lon="4.63161">
        <ele>495</ele>
        <time>2018-10-14T07:56:03Z</time>
      </trkpt>
      <trkpt lat="45.66533" lon="4.63161">
        <ele>495</ele>
        <time>2018-10-14T07:56:04Z</time>
      </trkpt>
      <trkpt lat="45.66535" lon="4.6316">
        <ele>495</ele>
        <time>2018-10-14T07:56:05Z</time>
      </trkpt>
      <trkpt lat="45.66538" lon="4.63158">
        <ele>496</ele>
        <time>2018-10-14T07:56:06Z</time>
      </trkpt>
      <trkpt lat="45.6654" lon="4.63157">
        <ele>496</ele>
        <time>2018-10-14T07:56:07Z</time>
      </trkpt>
      <trkpt lat="45.66542" lon="4.63156">
        <ele>497</ele>
        <time>2018-10-14T07:56:08Z</time>
      </trkpt>
      <trkpt lat="45.66545" lon="4.63155">
        <ele>498</ele>
        <time>2018-10-14T07:56:10Z</time>
      </trkpt>
      <trkpt lat="45.66548" lon="4.63154">
        <ele>498</ele>
        <time>2018-10-14T07:56:11Z</time>
      </trkpt>
      <trkpt lat="45.66551" lon="4.63153">
        <ele>498</ele>
        <time>2018-10-14T07:56:12Z</time>
      </trkpt>
      <trkpt lat="45.66554" lon="4.63152">
        <ele>498</ele>
        <time>2018-10-14T07:56:13Z</time>
      </trkpt>
      <trkpt lat="45.66556" lon="4.63151">
        <ele>498</ele>
        <time>2018-10-14T07:56:14Z</time>
      </trkpt>
      <trkpt lat="45.66558" lon="4.6315">
        <ele>497</ele>
        <time>2018-10-14T07:56:15Z</time>
      </trkpt>
      <trkpt lat="45.6656" lon="4.6315">
        <ele>498</ele>
        <time>2018-10-14T07:56:16Z</time>
      </trkpt>
      <trkpt lat="45.66562" lon="4.63148">
        <ele>498</ele>
        <time>2018-10-14T07:56:17Z</time>
      </trkpt>
      <trkpt lat="45.66565" lon="4.63147">
        <ele>498</ele>
        <time>2018-10-14T07:56:18Z</time>
      </trkpt>
      <trkpt lat="45.66567" lon="4.63146">
        <ele>498</ele>
        <time>2018-10-14T07:56:19Z</time>
      </trkpt>
      <trkpt lat="45.6657" lon="4.63145">
        <ele>498</ele>
        <time>2018-10-14T07:56:20Z</time>
      </trkpt>
      <trkpt lat="45.66572" lon="4.63145">
        <ele>499</ele>
        <time>2018-10-14T07:56:21Z</time>
      </trkpt>
      <trkpt lat="45.66575" lon="4.63144">
        <ele>499</ele>
        <time>2018-10-14T07:56:22Z</time>
      </trkpt>
      <trkpt lat="45.66578" lon="4.63143">
        <ele>500</ele>
        <time>2018-10-14T07:56:23Z</time>
      </trkpt>
      <trkpt lat="45.6658" lon="4.63143">
        <ele>500</ele>
        <time>2018-10-14T07:56:24Z</time>
      </trkpt>
      <trkpt lat="45.66582" lon="4.63142">
        <ele>500</ele>
        <time>2018-10-14T07:56:25Z</time>
      </trkpt>
      <trkpt lat="45.66584" lon="4.63141">
        <ele>501</ele>
        <time>2018-10-14T07:56:26Z</time>
      </trkpt>
      <trkpt lat="45.66586" lon="4.63141">
        <ele>501</ele>
        <time>2018-10-14T07:56:27Z</time>
      </trkpt>
      <trkpt lat="45.66588" lon="4.6314">
        <ele>502</ele>
        <time>2018-10-14T07:56:28Z</time>
      </trkpt>
      <trkpt lat="45.66589" lon="4.63139">
        <ele>502</ele>
        <time>2018-10-14T07:56:29Z</time>
      </trkpt>
      <trkpt lat="45.66591" lon="4.63138">
        <ele>501</ele>
        <time>2018-10-14T07:56:30Z</time>
      </trkpt>
      <trkpt lat="45.66593" lon="4.63137">
        <ele>502</ele>
        <time>2018-10-14T07:56:31Z</time>
      </trkpt>
      <trkpt lat="45.66595" lon="4.63137">
        <ele>501</ele>
        <time>2018-10-14T07:56:32Z</time>
      </trkpt>
      <trkpt lat="45.66597" lon="4.63136">
        <ele>502</ele>
        <time>2018-10-14T07:56:33Z</time>
      </trkpt>
      <trkpt lat="45.66599" lon="4.63135">
        <ele>502</ele>
        <time>2018-10-14T07:56:34Z</time>
      </trkpt>
      <trkpt lat="45.66602" lon="4.63134">
        <ele>501</ele>
        <time>2018-10-14T07:56:35Z</time>
      </trkpt>
      <trkpt lat="45.66604" lon="4.63134">
        <ele>501</ele>
        <time>2018-10-14T07:56:36Z</time>
      </trkpt>
      <trkpt lat="45.66607" lon="4.63133">
        <ele>502</ele>
        <time>2018-10-14T07:56:38Z</time>
      </trkpt>
      <trkpt lat="45.66608" lon="4.63133">
        <ele>503</ele>
        <time>2018-10-14T07:56:39Z</time>
      </trkpt>
      <trkpt lat="45.6661" lon="4.63132">
        <ele>502</ele>
        <time>2018-10-14T07:56:40Z</time>
      </trkpt>
      <trkpt lat="45.66613" lon="4.63131">
        <ele>502</ele>
        <time>2018-10-14T07:56:41Z</time>
      </trkpt>
      <trkpt lat="45.66615" lon="4.6313">
        <ele>503</ele>
        <time>2018-10-14T07:56:42Z</time>
      </trkpt>
      <trkpt lat="45.66618" lon="4.63129">
        <ele>503</ele>
        <time>2018-10-14T07:56:43Z</time>
      </trkpt>
      <trkpt lat="45.6662" lon="4.63128">
        <ele>503</ele>
        <time>2018-10-14T07:56:44Z</time>
      </trkpt>
      <trkpt lat="45.66623" lon="4.63128">
        <ele>504</ele>
        <time>2018-10-14T07:56:45Z</time>
      </trkpt>
      <trkpt lat="45.66625" lon="4.63127">
        <ele>505</ele>
        <time>2018-10-14T07:56:46Z</time>
      </trkpt>
      <trkpt lat="45.66628" lon="4.63126">
        <ele>505</ele>
        <time>2018-10-14T07:56:47Z</time>
      </trkpt>
      <trkpt lat="45.66631" lon="4.63125">
        <ele>505</ele>
        <time>2018-10-14T07:56:48Z</time>
      </trkpt>
      <trkpt lat="45.66633" lon="4.63123">
        <ele>505</ele>
        <time>2018-10-14T07:56:49Z</time>
      </trkpt>
      <trkpt lat="45.66634" lon="4.63122">
        <ele>505</ele>
        <time>2018-10-14T07:56:50Z</time>
      </trkpt>
      <trkpt lat="45.66636" lon="4.6312">
        <ele>505</ele>
        <time>2018-10-14T07:56:51Z</time>
      </trkpt>
      <trkpt lat="45.66638" lon="4.63118">
        <ele>505</ele>
        <time>2018-10-14T07:56:52Z</time>
      </trkpt>
      <trkpt lat="45.6664" lon="4.63117">
        <ele>506</ele>
        <time>2018-10-14T07:56:53Z</time>
      </trkpt>
      <trkpt lat="45.66642" lon="4.63116">
        <ele>506</ele>
        <time>2018-10-14T07:56:54Z</time>
      </trkpt>
      <trkpt lat="45.66643" lon="4.63115">
        <ele>506</ele>
        <time>2018-10-14T07:56:55Z</time>
      </trkpt>
      <trkpt lat="45.66645" lon="4.63113">
        <ele>507</ele>
        <time>2018-10-14T07:56:56Z</time>
      </trkpt>
      <trkpt lat="45.66647" lon="4.63112">
        <ele>507</ele>
        <time>2018-10-14T07:56:57Z</time>
      </trkpt>
      <trkpt lat="45.66648" lon="4.6311">
        <ele>507</ele>
        <time>2018-10-14T07:56:58Z</time>
      </trkpt>
      <trkpt lat="45.6665" lon="4.63109">
        <ele>507</ele>
        <time>2018-10-14T07:56:59Z</time>
      </trkpt>
      <trkpt lat="45.66652" lon="4.63108">
        <ele>507</ele>
        <time>2018-10-14T07:57:00Z</time>
      </trkpt>
      <trkpt lat="45.66653" lon="4.63107">
        <ele>508</ele>
        <time>2018-10-14T07:57:01Z</time>
      </trkpt>
      <trkpt lat="45.66655" lon="4.63106">
        <ele>509</ele>
        <time>2018-10-14T07:57:02Z</time>
      </trkpt>
      <trkpt lat="45.66657" lon="4.63105">
        <ele>509</ele>
        <time>2018-10-14T07:57:03Z</time>
      </trkpt>
      <trkpt lat="45.66658" lon="4.63103">
        <ele>509</ele>
        <time>2018-10-14T07:57:04Z</time>
      </trkpt>
      <trkpt lat="45.6666" lon="4.63102">
        <ele>510</ele>
        <time>2018-10-14T07:57:05Z</time>
      </trkpt>
      <trkpt lat="45.66662" lon="4.63101">
        <ele>510</ele>
        <time>2018-10-14T07:57:06Z</time>
      </trkpt>
      <trkpt lat="45.66664" lon="4.631">
        <ele>511</ele>
        <time>2018-10-14T07:57:07Z</time>
      </trkpt>
      <trkpt lat="45.66666" lon="4.63099">
        <ele>511</ele>
        <time>2018-10-14T07:57:08Z</time>
      </trkpt>
      <trkpt lat="45.66668" lon="4.63097">
        <ele>511</ele>
        <time>2018-10-14T07:57:09Z</time>
      </trkpt>
      <trkpt lat="45.6667" lon="4.63096">
        <ele>511</ele>
        <time>2018-10-14T07:57:10Z</time>
      </trkpt>
      <trkpt lat="45.66672" lon="4.63095">
        <ele>512</ele>
        <time>2018-10-14T07:57:11Z</time>
      </trkpt>
      <trkpt lat="45.66674" lon="4.63095">
        <ele>512</ele>
        <time>2018-10-14T07:57:12Z</time>
      </trkpt>
      <trkpt lat="45.66676" lon="4.63096">
        <ele>512</ele>
        <time>2018-10-14T07:57:13Z</time>
      </trkpt>
      <trkpt lat="45.66678" lon="4.63096">
        <ele>513</ele>
        <time>2018-10-14T07:57:14Z</time>
      </trkpt>
      <trkpt lat="45.66679" lon="4.63096">
        <ele>514</ele>
        <time>2018-10-14T07:57:15Z</time>
      </trkpt>
      <trkpt lat="45.66682" lon="4.63097">
        <ele>514</ele>
        <time>2018-10-14T07:57:16Z</time>
      </trkpt>
      <trkpt lat="45.66684" lon="4.63097">
        <ele>515</ele>
        <time>2018-10-14T07:57:17Z</time>
      </trkpt>
      <trkpt lat="45.66686" lon="4.63097">
        <ele>515</ele>
        <time>2018-10-14T07:57:18Z</time>
      </trkpt>
      <trkpt lat="45.66687" lon="4.63097">
        <ele>515</ele>
        <time>2018-10-14T07:57:19Z</time>
      </trkpt>
      <trkpt lat="45.6669" lon="4.63097">
        <ele>514</ele>
        <time>2018-10-14T07:57:20Z</time>
      </trkpt>
      <trkpt lat="45.66692" lon="4.63098">
        <ele>516</ele>
        <time>2018-10-14T07:57:21Z</time>
      </trkpt>
      <trkpt lat="45.66694" lon="4.63098">
        <ele>515</ele>
        <time>2018-10-14T07:57:22Z</time>
      </trkpt>
      <trkpt lat="45.66695" lon="4.63098">
        <ele>515</ele>
        <time>2018-10-14T07:57:23Z</time>
      </trkpt>
      <trkpt lat="45.66697" lon="4.63098">
        <ele>515</ele>
        <time>2018-10-14T07:57:24Z</time>
      </trkpt>
      <trkpt lat="45.66699" lon="4.63099">
        <ele>516</ele>
        <time>2018-10-14T07:57:25Z</time>
      </trkpt>
      <trkpt lat="45.66701" lon="4.631">
        <ele>516</ele>
        <time>2018-10-14T07:57:26Z</time>
      </trkpt>
      <trkpt lat="45.66703" lon="4.63101">
        <ele>516</ele>
        <time>2018-10-14T07:57:27Z</time>
      </trkpt>
      <trkpt lat="45.66705" lon="4.63101">
        <ele>516</ele>
        <time>2018-10-14T07:57:28Z</time>
      </trkpt>
      <trkpt lat="45.66706" lon="4.63102">
        <ele>516</ele>
        <time>2018-10-14T07:57:29Z</time>
      </trkpt>
      <trkpt lat="45.66707" lon="4.63102">
        <ele>517</ele>
        <time>2018-10-14T07:57:30Z</time>
      </trkpt>
      <trkpt lat="45.66708" lon="4.63103">
        <ele>516</ele>
        <time>2018-10-14T07:57:31Z</time>
      </trkpt>
      <trkpt lat="45.6671" lon="4.63103">
        <ele>517</ele>
        <time>2018-10-14T07:57:32Z</time>
      </trkpt>
      <trkpt lat="45.66712" lon="4.63103">
        <ele>517</ele>
        <time>2018-10-14T07:57:33Z</time>
      </trkpt>
      <trkpt lat="45.66714" lon="4.63103">
        <ele>517</ele>
        <time>2018-10-14T07:57:34Z</time>
      </trkpt>
      <trkpt lat="45.66716" lon="4.63102">
        <ele>516</ele>
        <time>2018-10-14T07:57:35Z</time>
      </trkpt>
      <trkpt lat="45.66718" lon="4.63101">
        <ele>517</ele>
        <time>2018-10-14T07:57:36Z</time>
      </trkpt>
      <trkpt lat="45.6672" lon="4.631">
        <ele>517</ele>
        <time>2018-10-14T07:57:37Z</time>
      </trkpt>
      <trkpt lat="45.66721" lon="4.63098">
        <ele>517</ele>
        <time>2018-10-14T07:57:38Z</time>
      </trkpt>
      <trkpt lat="45.66723" lon="4.63096">
        <ele>517</ele>
        <time>2018-10-14T07:57:39Z</time>
      </trkpt>
      <trkpt lat="45.66725" lon="4.63094">
        <ele>516</ele>
        <time>2018-10-14T07:57:40Z</time>
      </trkpt>
      <trkpt lat="45.66726" lon="4.63092">
        <ele>516</ele>
        <time>2018-10-14T07:57:41Z</time>
      </trkpt>
      <trkpt lat="45.66728" lon="4.63091">
        <ele>517</ele>
        <time>2018-10-14T07:57:42Z</time>
      </trkpt>
      <trkpt lat="45.6673" lon="4.63089">
        <ele>518</ele>
        <time>2018-10-14T07:57:43Z</time>
      </trkpt>
      <trkpt lat="45.66732" lon="4.63087">
        <ele>518</ele>
        <time>2018-10-14T07:57:44Z</time>
      </trkpt>
      <trkpt lat="45.66733" lon="4.63086">
        <ele>517</ele>
        <time>2018-10-14T07:57:45Z</time>
      </trkpt>
      <trkpt lat="45.66735" lon="4.63084">
        <ele>518</ele>
        <time>2018-10-14T07:57:46Z</time>
      </trkpt>
      <trkpt lat="45.66738" lon="4.63081">
        <ele>518</ele>
        <time>2018-10-14T07:57:48Z</time>
      </trkpt>
      <trkpt lat="45.6674" lon="4.63079">
        <ele>518</ele>
        <time>2018-10-14T07:57:49Z</time>
      </trkpt>
      <trkpt lat="45.66743" lon="4.63078">
        <ele>518</ele>
        <time>2018-10-14T07:57:50Z</time>
      </trkpt>
      <trkpt lat="45.66745" lon="4.63076">
        <ele>519</ele>
        <time>2018-10-14T07:57:51Z</time>
      </trkpt>
      <trkpt lat="45.66747" lon="4.63075">
        <ele>519</ele>
        <time>2018-10-14T07:57:52Z</time>
      </trkpt>
      <trkpt lat="45.66749" lon="4.63074">
        <ele>519</ele>
        <time>2018-10-14T07:57:53Z</time>
      </trkpt>
      <trkpt lat="45.66751" lon="4.63073">
        <ele>519</ele>
        <time>2018-10-14T07:57:54Z</time>
      </trkpt>
      <trkpt lat="45.66753" lon="4.63072">
        <ele>519</ele>
        <time>2018-10-14T07:57:55Z</time>
      </trkpt>
      <trkpt lat="45.66755" lon="4.63071">
        <ele>519</ele>
        <time>2018-10-14T07:57:56Z</time>
      </trkpt>
      <trkpt lat="45.66758" lon="4.63069">
        <ele>519</ele>
        <time>2018-10-14T07:57:57Z</time>
      </trkpt>
      <trkpt lat="45.6676" lon="4.63067">
        <ele>519</ele>
        <time>2018-10-14T07:57:58Z</time>
      </trkpt>
      <trkpt lat="45.66762" lon="4.63066">
        <ele>520</ele>
        <time>2018-10-14T07:57:59Z</time>
      </trkpt>
      <trkpt lat="45.66763" lon="4.63065">
        <ele>520</ele>
        <time>2018-10-14T07:58:00Z</time>
      </trkpt>
      <trkpt lat="45.66765" lon="4.63064">
        <ele>520</ele>
        <time>2018-10-14T07:58:01Z</time>
      </trkpt>
      <trkpt lat="45.66767" lon="4.63063">
        <ele>520</ele>
        <time>2018-10-14T07:58:02Z</time>
      </trkpt>
      <trkpt lat="45.66769" lon="4.63063">
        <ele>520</ele>
        <time>2018-10-14T07:58:03Z</time>
      </trkpt>
      <trkpt lat="45.6677" lon="4.63062">
        <ele>521</ele>
        <time>2018-10-14T07:58:04Z</time>
      </trkpt>
      <trkpt lat="45.66772" lon="4.63062">
        <ele>521</ele>
        <time>2018-10-14T07:58:05Z</time>
      </trkpt>
      <trkpt lat="45.66774" lon="4.63062">
        <ele>521</ele>
        <time>2018-10-14T07:58:06Z</time>
      </trkpt>
      <trkpt lat="45.66776" lon="4.63062">
        <ele>521</ele>
        <time>2018-10-14T07:58:07Z</time>
      </trkpt>
      <trkpt lat="45.66779" lon="4.63063">
        <ele>521</ele>
        <time>2018-10-14T07:58:08Z</time>
      </trkpt>
      <trkpt lat="45.66782" lon="4.63063">
        <ele>521</ele>
        <time>2018-10-14T07:58:09Z</time>
      </trkpt>
      <trkpt lat="45.66785" lon="4.63064">
        <ele>521</ele>
        <time>2018-10-14T07:58:10Z</time>
      </trkpt>
      <trkpt lat="45.66789" lon="4.63064">
        <ele>522</ele>
        <time>2018-10-14T07:58:11Z</time>
      </trkpt>
      <trkpt lat="45.66794" lon="4.63068">
        <ele>524</ele>
        <time>2018-10-14T07:58:12Z</time>
      </trkpt>
      <trkpt lat="45.66798" lon="4.63068">
        <ele>524</ele>
        <time>2018-10-14T07:58:13Z</time>
      </trkpt>
      <trkpt lat="45.66803" lon="4.63069">
        <ele>524</ele>
        <time>2018-10-14T07:58:14Z</time>
      </trkpt>
      <trkpt lat="45.66808" lon="4.63068">
        <ele>523</ele>
        <time>2018-10-14T07:58:15Z</time>
      </trkpt>
      <trkpt lat="45.66812" lon="4.63068">
        <ele>523</ele>
        <time>2018-10-14T07:58:16Z</time>
      </trkpt>
      <trkpt lat="45.66817" lon="4.63069">
        <ele>524</ele>
        <time>2018-10-14T07:58:17Z</time>
      </trkpt>
      <trkpt lat="45.66822" lon="4.63068">
        <ele>523</ele>
        <time>2018-10-14T07:58:18Z</time>
      </trkpt>
      <trkpt lat="45.66826" lon="4.63069">
        <ele>523</ele>
        <time>2018-10-14T07:58:19Z</time>
      </trkpt>
      <trkpt lat="45.66831" lon="4.63069">
        <ele>523</ele>
        <time>2018-10-14T07:58:20Z</time>
      </trkpt>
      <trkpt lat="45.66835" lon="4.63069">
        <ele>523</ele>
        <time>2018-10-14T07:58:21Z</time>
      </trkpt>
      <trkpt lat="45.66841" lon="4.6307">
        <ele>524</ele>
        <time>2018-10-14T07:58:22Z</time>
      </trkpt>
      <trkpt lat="45.66847" lon="4.6307">
        <ele>523</ele>
        <time>2018-10-14T07:58:23Z</time>
      </trkpt>
      <trkpt lat="45.66852" lon="4.6307">
        <ele>523</ele>
        <time>2018-10-14T07:58:24Z</time>
      </trkpt>
      <trkpt lat="45.66858" lon="4.63069">
        <ele>523</ele>
        <time>2018-10-14T07:58:25Z</time>
      </trkpt>
      <trkpt lat="45.66864" lon="4.63067">
        <ele>522</ele>
        <time>2018-10-14T07:58:26Z</time>
      </trkpt>
      <trkpt lat="45.66869" lon="4.63066">
        <ele>523</ele>
        <time>2018-10-14T07:58:27Z</time>
      </trkpt>
      <trkpt lat="45.66875" lon="4.63064">
        <ele>522</ele>
        <time>2018-10-14T07:58:28Z</time>
      </trkpt>
      <trkpt lat="45.6688" lon="4.63062">
        <ele>522</ele>
        <time>2018-10-14T07:58:29Z</time>
      </trkpt>
      <trkpt lat="45.66884" lon="4.6306">
        <ele>522</ele>
        <time>2018-10-14T07:58:30Z</time>
      </trkpt>
      <trkpt lat="45.66888" lon="4.63058">
        <ele>522</ele>
        <time>2018-10-14T07:58:31Z</time>
      </trkpt>
      <trkpt lat="45.66892" lon="4.63054">
        <ele>522</ele>
        <time>2018-10-14T07:58:32Z</time>
      </trkpt>
      <trkpt lat="45.66894" lon="4.6305">
        <ele>522</ele>
        <time>2018-10-14T07:58:33Z</time>
      </trkpt>
      <trkpt lat="45.66894" lon="4.63045">
        <ele>522</ele>
        <time>2018-10-14T07:58:34Z</time>
      </trkpt>
      <trkpt lat="45.66892" lon="4.6304">
        <ele>522</ele>
        <time>2018-10-14T07:58:35Z</time>
      </trkpt>
      <trkpt lat="45.66891" lon="4.63037">
        <ele>522</ele>
        <time>2018-10-14T07:58:36Z</time>
      </trkpt>
      <trkpt lat="45.66891" lon="4.63033">
        <ele>522</ele>
        <time>2018-10-14T07:58:37Z</time>
      </trkpt>
      <trkpt lat="45.6689" lon="4.63031">
        <ele>522</ele>
        <time>2018-10-14T07:58:38Z</time>
      </trkpt>
      <trkpt lat="45.66889" lon="4.63029">
        <ele>522</ele>
        <time>2018-10-14T07:58:39Z</time>
      </trkpt>
      <trkpt lat="45.66888" lon="4.63027">
        <ele>522</ele>
        <time>2018-10-14T07:58:40Z</time>
      </trkpt>
      <trkpt lat="45.66887" lon="4.63024">
        <ele>522</ele>
        <time>2018-10-14T07:58:41Z</time>
      </trkpt>
      <trkpt lat="45.66886" lon="4.63022">
        <ele>522</ele>
        <time>2018-10-14T07:58:42Z</time>
      </trkpt>
      <trkpt lat="45.66884" lon="4.63018">
        <ele>523</ele>
        <time>2018-10-14T07:58:44Z</time>
      </trkpt>
      <trkpt lat="45.66882" lon="4.63014">
        <ele>523</ele>
        <time>2018-10-14T07:58:45Z</time>
      </trkpt>
      <trkpt lat="45.66881" lon="4.63011">
        <ele>523</ele>
        <time>2018-10-14T07:58:46Z</time>
      </trkpt>
      <trkpt lat="45.6688" lon="4.63009">
        <ele>523</ele>
        <time>2018-10-14T07:58:47Z</time>
      </trkpt>
      <trkpt lat="45.66879" lon="4.63007">
        <ele>524</ele>
        <time>2018-10-14T07:58:48Z</time>
      </trkpt>
      <trkpt lat="45.66878" lon="4.63004">
        <ele>524</ele>
        <time>2018-10-14T07:58:49Z</time>
      </trkpt>
      <trkpt lat="45.66877" lon="4.63002">
        <ele>525</ele>
        <time>2018-10-14T07:58:50Z</time>
      </trkpt>
      <trkpt lat="45.66876" lon="4.63">
        <ele>525</ele>
        <time>2018-10-14T07:58:51Z</time>
      </trkpt>
      <trkpt lat="45.66875" lon="4.62997">
        <ele>525</ele>
        <time>2018-10-14T07:58:52Z</time>
      </trkpt>
      <trkpt lat="45.66875" lon="4.62994">
        <ele>525</ele>
        <time>2018-10-14T07:58:53Z</time>
      </trkpt>
      <trkpt lat="45.66875" lon="4.62991">
        <ele>525</ele>
        <time>2018-10-14T07:58:54Z</time>
      </trkpt>
      <trkpt lat="45.66875" lon="4.62988">
        <ele>525</ele>
        <time>2018-10-14T07:58:55Z</time>
      </trkpt>
      <trkpt lat="45.66876" lon="4.62985">
        <ele>526</ele>
        <time>2018-10-14T07:58:56Z</time>
      </trkpt>
      <trkpt lat="45.66876" lon="4.62982">
        <ele>526</ele>
        <time>2018-10-14T07:58:57Z</time>
      </trkpt>
      <trkpt lat="45.66875" lon="4.62979">
        <ele>526</ele>
        <time>2018-10-14T07:58:58Z</time>
      </trkpt>
      <trkpt lat="45.66874" lon="4.62976">
        <ele>526</ele>
        <time>2018-10-14T07:58:59Z</time>
      </trkpt>
      <trkpt lat="45.66872" lon="4.62974">
        <ele>526</ele>
        <time>2018-10-14T07:59:00Z</time>
      </trkpt>
      <trkpt lat="45.66871" lon="4.62972">
        <ele>526</ele>
        <time>2018-10-14T07:59:01Z</time>
      </trkpt>
      <trkpt lat="45.66869" lon="4.6297">
        <ele>527</ele>
        <time>2018-10-14T07:59:02Z</time>
      </trkpt>
      <trkpt lat="45.66867" lon="4.62969">
        <ele>527</ele>
        <time>2018-10-14T07:59:03Z</time>
      </trkpt>
      <trkpt lat="45.66866" lon="4.62967">
        <ele>527</ele>
        <time>2018-10-14T07:59:04Z</time>
      </trkpt>
      <trkpt lat="45.66865" lon="4.62965">
        <ele>528</ele>
        <time>2018-10-14T07:59:05Z</time>
      </trkpt>
      <trkpt lat="45.66865" lon="4.62963">
        <ele>528</ele>
        <time>2018-10-14T07:59:06Z</time>
      </trkpt>
      <trkpt lat="45.66865" lon="4.6296">
        <ele>528</ele>
        <time>2018-10-14T07:59:07Z</time>
      </trkpt>
      <trkpt lat="45.66865" lon="4.62958">
        <ele>528</ele>
        <time>2018-10-14T07:59:08Z</time>
      </trkpt>
      <trkpt lat="45.66865" lon="4.62956">
        <ele>528</ele>
        <time>2018-10-14T07:59:09Z</time>
      </trkpt>
      <trkpt lat="45.66865" lon="4.62954">
        <ele>529</ele>
        <time>2018-10-14T07:59:10Z</time>
      </trkpt>
      <trkpt lat="45.66865" lon="4.62952">
        <ele>529</ele>
        <time>2018-10-14T07:59:11Z</time>
      </trkpt>
      <trkpt lat="45.66864" lon="4.6295">
        <ele>530</ele>
        <time>2018-10-14T07:59:12Z</time>
      </trkpt>
      <trkpt lat="45.66864" lon="4.62948">
        <ele>530</ele>
        <time>2018-10-14T07:59:13Z</time>
      </trkpt>
      <trkpt lat="45.66863" lon="4.62946">
        <ele>530</ele>
        <time>2018-10-14T07:59:14Z</time>
      </trkpt>
      <trkpt lat="45.66863" lon="4.62946">
        <ele>531</ele>
        <time>2018-10-14T07:59:15Z</time>
      </trkpt>
      <trkpt lat="45.66862" lon="4.62946">
        <ele>531</ele>
        <time>2018-10-14T07:59:16Z</time>
      </trkpt>
      <trkpt lat="45.66861" lon="4.62946">
        <ele>532</ele>
        <time>2018-10-14T07:59:17Z</time>
      </trkpt>
      <trkpt lat="45.6686" lon="4.62945">
        <ele>532</ele>
        <time>2018-10-14T07:59:18Z</time>
      </trkpt>
      <trkpt lat="45.66859" lon="4.62944">
        <ele>532</ele>
        <time>2018-10-14T07:59:19Z</time>
      </trkpt>
      <trkpt lat="45.66859" lon="4.62944">
        <ele>532</ele>
        <time>2018-10-14T07:59:20Z</time>
      </trkpt>
      <trkpt lat="45.66858" lon="4.62943">
        <ele>532</ele>
        <time>2018-10-14T07:59:21Z</time>
      </trkpt>
      <trkpt lat="45.66858" lon="4.62942">
        <ele>533</ele>
        <time>2018-10-14T07:59:22Z</time>
      </trkpt>
      <trkpt lat="45.66856" lon="4.62941">
        <ele>532</ele>
        <time>2018-10-14T07:59:23Z</time>
      </trkpt>
      <trkpt lat="45.66855" lon="4.6294">
        <ele>533</ele>
        <time>2018-10-14T07:59:24Z</time>
      </trkpt>
      <trkpt lat="45.66854" lon="4.6294">
        <ele>533</ele>
        <time>2018-10-14T07:59:25Z</time>
      </trkpt>
      <trkpt lat="45.66853" lon="4.6294">
        <ele>533</ele>
        <time>2018-10-14T07:59:26Z</time>
      </trkpt>
      <trkpt lat="45.66852" lon="4.6294">
        <ele>534</ele>
        <time>2018-10-14T07:59:31Z</time>
      </trkpt>
      <trkpt lat="45.66851" lon="4.62939">
        <ele>534</ele>
        <time>2018-10-14T07:59:32Z</time>
      </trkpt>
      <trkpt lat="45.6685" lon="4.62937">
        <ele>534</ele>
        <time>2018-10-14T07:59:33Z</time>
      </trkpt>
      <trkpt lat="45.66848" lon="4.62936">
        <ele>534</ele>
        <time>2018-10-14T07:59:34Z</time>
      </trkpt>
      <trkpt lat="45.66847" lon="4.62934">
        <ele>535</ele>
        <time>2018-10-14T07:59:35Z</time>
      </trkpt>
      <trkpt lat="45.66845" lon="4.62933">
        <ele>534</ele>
        <time>2018-10-14T07:59:36Z</time>
      </trkpt>
      <trkpt lat="45.66844" lon="4.62933">
        <ele>535</ele>
        <time>2018-10-14T07:59:37Z</time>
      </trkpt>
      <trkpt lat="45.66843" lon="4.62932">
        <ele>536</ele>
        <time>2018-10-14T07:59:38Z</time>
      </trkpt>
      <trkpt lat="45.66843" lon="4.62932">
        <ele>536</ele>
        <time>2018-10-14T07:59:39Z</time>
      </trkpt>
      <trkpt lat="45.66842" lon="4.62932">
        <ele>537</ele>
        <time>2018-10-14T07:59:40Z</time>
      </trkpt>
      <trkpt lat="45.66842" lon="4.62933">
        <ele>537</ele>
        <time>2018-10-14T07:59:43Z</time>
      </trkpt>
      <trkpt lat="45.66841" lon="4.62933">
        <ele>537</ele>
        <time>2018-10-14T07:59:44Z</time>
      </trkpt>
      <trkpt lat="45.6684" lon="4.62933">
        <ele>538</ele>
        <time>2018-10-14T07:59:45Z</time>
      </trkpt>
      <trkpt lat="45.6684" lon="4.62933">
        <ele>538</ele>
        <time>2018-10-14T07:59:46Z</time>
      </trkpt>
      <trkpt lat="45.6684" lon="4.62934">
        <ele>538</ele>
        <time>2018-10-14T07:59:47Z</time>
      </trkpt>
      <trkpt lat="45.66839" lon="4.62934">
        <ele>539</ele>
        <time>2018-10-14T07:59:48Z</time>
      </trkpt>
      <trkpt lat="45.66838" lon="4.62934">
        <ele>539</ele>
        <time>2018-10-14T07:59:49Z</time>
      </trkpt>
      <trkpt lat="45.66838" lon="4.62933">
        <ele>540</ele>
        <time>2018-10-14T07:59:50Z</time>
      </trkpt>
      <trkpt lat="45.66837" lon="4.62932">
        <ele>541</ele>
        <time>2018-10-14T07:59:51Z</time>
      </trkpt>
      <trkpt lat="45.66837" lon="4.62931">
        <ele>540</ele>
        <time>2018-10-14T07:59:52Z</time>
      </trkpt>
      <trkpt lat="45.66836" lon="4.6293">
        <ele>541</ele>
        <time>2018-10-14T07:59:53Z</time>
      </trkpt>
      <trkpt lat="45.66835" lon="4.62929">
        <ele>542</ele>
        <time>2018-10-14T07:59:54Z</time>
      </trkpt>
      <trkpt lat="45.66835" lon="4.62928">
        <ele>541</ele>
        <time>2018-10-14T07:59:55Z</time>
      </trkpt>
      <trkpt lat="45.66834" lon="4.62928">
        <ele>540</ele>
        <time>2018-10-14T07:59:56Z</time>
      </trkpt>
      <trkpt lat="45.66832" lon="4.62927">
        <ele>540</ele>
        <time>2018-10-14T07:59:57Z</time>
      </trkpt>
      <trkpt lat="45.66832" lon="4.62927">
        <ele>540</ele>
        <time>2018-10-14T07:59:58Z</time>
      </trkpt>
      <trkpt lat="45.66832" lon="4.62926">
        <ele>540</ele>
        <time>2018-10-14T07:59:59Z</time>
      </trkpt>
      <trkpt lat="45.66831" lon="4.62925">
        <ele>542</ele>
        <time>2018-10-14T08:00:00Z</time>
      </trkpt>
      <trkpt lat="45.6683" lon="4.62925">
        <ele>542</ele>
        <time>2018-10-14T08:00:01Z</time>
      </trkpt>
      <trkpt lat="45.6683" lon="4.62924">
        <ele>542</ele>
        <time>2018-10-14T08:00:02Z</time>
      </trkpt>
      <trkpt lat="45.66829" lon="4.62923">
        <ele>542</ele>
        <time>2018-10-14T08:00:03Z</time>
      </trkpt>
      <trkpt lat="45.66828" lon="4.62923">
        <ele>543</ele>
        <time>2018-10-14T08:00:04Z</time>
      </trkpt>
      <trkpt lat="45.66827" lon="4.62923">
        <ele>543</ele>
        <time>2018-10-14T08:00:05Z</time>
      </trkpt>
      <trkpt lat="45.66827" lon="4.62923">
        <ele>544</ele>
        <time>2018-10-14T08:00:06Z</time>
      </trkpt>
      <trkpt lat="45.66826" lon="4.62923">
        <ele>544</ele>
        <time>2018-10-14T08:00:07Z</time>
      </trkpt>
      <trkpt lat="45.66825" lon="4.62922">
        <ele>542</ele>
        <time>2018-10-14T08:00:08Z</time>
      </trkpt>
      <trkpt lat="45.66824" lon="4.62921">
        <ele>543</ele>
        <time>2018-10-14T08:00:09Z</time>
      </trkpt>
      <trkpt lat="45.66824" lon="4.6292">
        <ele>543</ele>
        <time>2018-10-14T08:00:10Z</time>
      </trkpt>
      <trkpt lat="45.66824" lon="4.62919">
        <ele>544</ele>
        <time>2018-10-14T08:00:11Z</time>
      </trkpt>
      <trkpt lat="45.66823" lon="4.62918">
        <ele>544</ele>
        <time>2018-10-14T08:00:12Z</time>
      </trkpt>
      <trkpt lat="45.66823" lon="4.62917">
        <ele>545</ele>
        <time>2018-10-14T08:00:13Z</time>
      </trkpt>
      <trkpt lat="45.66822" lon="4.62917">
        <ele>545</ele>
        <time>2018-10-14T08:00:14Z</time>
      </trkpt>
      <trkpt lat="45.66822" lon="4.62916">
        <ele>545</ele>
        <time>2018-10-14T08:00:15Z</time>
      </trkpt>
      <trkpt lat="45.66821" lon="4.62916">
        <ele>545</ele>
        <time>2018-10-14T08:00:16Z</time>
      </trkpt>
      <trkpt lat="45.66821" lon="4.62916">
        <ele>545</ele>
        <time>2018-10-14T08:00:17Z</time>
      </trkpt>
      <trkpt lat="45.6682" lon="4.62915">
        <ele>544</ele>
        <time>2018-10-14T08:00:18Z</time>
      </trkpt>
      <trkpt lat="45.66819" lon="4.62915">
        <ele>545</ele>
        <time>2018-10-14T08:00:19Z</time>
      </trkpt>
      <trkpt lat="45.66819" lon="4.62914">
        <ele>545</ele>
        <time>2018-10-14T08:00:21Z</time>
      </trkpt>
      <trkpt lat="45.66819" lon="4.62914">
        <ele>546</ele>
        <time>2018-10-14T08:00:22Z</time>
      </trkpt>
      <trkpt lat="45.66819" lon="4.62913">
        <ele>545</ele>
        <time>2018-10-14T08:00:23Z</time>
      </trkpt>
      <trkpt lat="45.66818" lon="4.62912">
        <ele>545</ele>
        <time>2018-10-14T08:00:24Z</time>
      </trkpt>
      <trkpt lat="45.66818" lon="4.62912">
        <ele>547</ele>
        <time>2018-10-14T08:00:25Z</time>
      </trkpt>
      <trkpt lat="45.66817" lon="4.62911">
        <ele>547</ele>
        <time>2018-10-14T08:00:26Z</time>
      </trkpt>
      <trkpt lat="45.66817" lon="4.6291">
        <ele>548</ele>
        <time>2018-10-14T08:00:27Z</time>
      </trkpt>
      <trkpt lat="45.66816" lon="4.62909">
        <ele>548</ele>
        <time>2018-10-14T08:00:28Z</time>
      </trkpt>
      <trkpt lat="45.66815" lon="4.62909">
        <ele>548</ele>
        <time>2018-10-14T08:00:29Z</time>
      </trkpt>
      <trkpt lat="45.66813" lon="4.62908">
        <ele>547</ele>
        <time>2018-10-14T08:00:31Z</time>
      </trkpt>
      <trkpt lat="45.66812" lon="4.62907">
        <ele>547</ele>
        <time>2018-10-14T08:00:32Z</time>
      </trkpt>
      <trkpt lat="45.66811" lon="4.62907">
        <ele>548</ele>
        <time>2018-10-14T08:00:33Z</time>
      </trkpt>
      <trkpt lat="45.66811" lon="4.62906">
        <ele>548</ele>
        <time>2018-10-14T08:00:34Z</time>
      </trkpt>
      <trkpt lat="45.6681" lon="4.62906">
        <ele>548</ele>
        <time>2018-10-14T08:00:40Z</time>
      </trkpt>
      <trkpt lat="45.66809" lon="4.62905">
        <ele>549</ele>
        <time>2018-10-14T08:00:41Z</time>
      </trkpt>
      <trkpt lat="45.66808" lon="4.62904">
        <ele>549</ele>
        <time>2018-10-14T08:00:42Z</time>
      </trkpt>
      <trkpt lat="45.66807" lon="4.62904">
        <ele>548</ele>
        <time>2018-10-14T08:00:43Z</time>
      </trkpt>
      <trkpt lat="45.66806" lon="4.62902">
        <ele>548</ele>
        <time>2018-10-14T08:00:44Z</time>
      </trkpt>
      <trkpt lat="45.66805" lon="4.62901">
        <ele>548</ele>
        <time>2018-10-14T08:00:45Z</time>
      </trkpt>
      <trkpt lat="45.66804" lon="4.629">
        <ele>549</ele>
        <time>2018-10-14T08:00:46Z</time>
      </trkpt>
      <trkpt lat="45.66803" lon="4.62899">
        <ele>549</ele>
        <time>2018-10-14T08:00:47Z</time>
      </trkpt>
      <trkpt lat="45.66803" lon="4.62897">
        <ele>549</ele>
        <time>2018-10-14T08:00:48Z</time>
      </trkpt>
      <trkpt lat="45.66802" lon="4.62895">
        <ele>549</ele>
        <time>2018-10-14T08:00:49Z</time>
      </trkpt>
      <trkpt lat="45.66802" lon="4.62894">
        <ele>550</ele>
        <time>2018-10-14T08:00:50Z</time>
      </trkpt>
      <trkpt lat="45.668" lon="4.62893">
        <ele>551</ele>
        <time>2018-10-14T08:00:51Z</time>
      </trkpt>
      <trkpt lat="45.66799" lon="4.62891">
        <ele>551</ele>
        <time>2018-10-14T08:00:53Z</time>
      </trkpt>
      <trkpt lat="45.66797" lon="4.62889">
        <ele>551</ele>
        <time>2018-10-14T08:00:54Z</time>
      </trkpt>
      <trkpt lat="45.66795" lon="4.62887">
        <ele>552</ele>
        <time>2018-10-14T08:00:55Z</time>
      </trkpt>
      <trkpt lat="45.66793" lon="4.62885">
        <ele>552</ele>
        <time>2018-10-14T08:00:56Z</time>
      </trkpt>
      <trkpt lat="45.66792" lon="4.62884">
        <ele>553</ele>
        <time>2018-10-14T08:00:57Z</time>
      </trkpt>
      <trkpt lat="45.6679" lon="4.62882">
        <ele>552</ele>
        <time>2018-10-14T08:00:58Z</time>
      </trkpt>
      <trkpt lat="45.66789" lon="4.62881">
        <ele>549</ele>
        <time>2018-10-14T08:00:59Z</time>
      </trkpt>
      <trkpt lat="45.66788" lon="4.6288">
        <ele>551</ele>
        <time>2018-10-14T08:01:00Z</time>
      </trkpt>
      <trkpt lat="45.66787" lon="4.62879">
        <ele>552</ele>
        <time>2018-10-14T08:01:02Z</time>
      </trkpt>
      <trkpt lat="45.66786" lon="4.62877">
        <ele>552</ele>
        <time>2018-10-14T08:01:03Z</time>
      </trkpt>
      <trkpt lat="45.66784" lon="4.62875">
        <ele>552</ele>
        <time>2018-10-14T08:01:04Z</time>
      </trkpt>
      <trkpt lat="45.66783" lon="4.62874">
        <ele>552</ele>
        <time>2018-10-14T08:01:05Z</time>
      </trkpt>
      <trkpt lat="45.66782" lon="4.62873">
        <ele>552</ele>
        <time>2018-10-14T08:01:06Z</time>
      </trkpt>
      <trkpt lat="45.6678" lon="4.62872">
        <ele>552</ele>
        <time>2018-10-14T08:01:07Z</time>
      </trkpt>
      <trkpt lat="45.66779" lon="4.62871">
        <ele>552</ele>
        <time>2018-10-14T08:01:08Z</time>
      </trkpt>
      <trkpt lat="45.66777" lon="4.6287">
        <ele>552</ele>
        <time>2018-10-14T08:01:09Z</time>
      </trkpt>
      <trkpt lat="45.66776" lon="4.62869">
        <ele>552</ele>
        <time>2018-10-14T08:01:10Z</time>
      </trkpt>
      <trkpt lat="45.66775" lon="4.62869">
        <ele>552</ele>
        <time>2018-10-14T08:01:11Z</time>
      </trkpt>
      <trkpt lat="45.66773" lon="4.62869">
        <ele>551</ele>
        <time>2018-10-14T08:01:12Z</time>
      </trkpt>
      <trkpt lat="45.66771" lon="4.62869">
        <ele>551</ele>
        <time>2018-10-14T08:01:13Z</time>
      </trkpt>
      <trkpt lat="45.6677" lon="4.62869">
        <ele>551</ele>
        <time>2018-10-14T08:01:14Z</time>
      </trkpt>
      <trkpt lat="45.66768" lon="4.62869">
        <ele>552</ele>
        <time>2018-10-14T08:01:16Z</time>
      </trkpt>
      <trkpt lat="45.66767" lon="4.62868">
        <ele>553</ele>
        <time>2018-10-14T08:01:17Z</time>
      </trkpt>
      <trkpt lat="45.66766" lon="4.62868">
        <ele>554</ele>
        <time>2018-10-14T08:01:18Z</time>
      </trkpt>
      <trkpt lat="45.66765" lon="4.62867">
        <ele>550</ele>
        <time>2018-10-14T08:01:19Z</time>
      </trkpt>
      <trkpt lat="45.66764" lon="4.62866">
        <ele>552</ele>
        <time>2018-10-14T08:01:20Z</time>
      </trkpt>
      <trkpt lat="45.66763" lon="4.62866">
        <ele>552</ele>
        <time>2018-10-14T08:01:21Z</time>
      </trkpt>
      <trkpt lat="45.66762" lon="4.62864">
        <ele>553</ele>
        <time>2018-10-14T08:01:22Z</time>
      </trkpt>
      <trkpt lat="45.66761" lon="4.62861">
        <ele>553</ele>
        <time>2018-10-14T08:01:23Z</time>
      </trkpt>
      <trkpt lat="45.6676" lon="4.62858">
        <ele>553</ele>
        <time>2018-10-14T08:01:24Z</time>
      </trkpt>
      <trkpt lat="45.66758" lon="4.62855">
        <ele>553</ele>
        <time>2018-10-14T08:01:25Z</time>
      </trkpt>
      <trkpt lat="45.66758" lon="4.62853">
        <ele>555</ele>
        <time>2018-10-14T08:01:26Z</time>
      </trkpt>
      <trkpt lat="45.66758" lon="4.6285">
        <ele>555</ele>
        <time>2018-10-14T08:01:27Z</time>
      </trkpt>
      <trkpt lat="45.66758" lon="4.62848">
        <ele>555</ele>
        <time>2018-10-14T08:01:28Z</time>
      </trkpt>
      <trkpt lat="45.66758" lon="4.62846">
        <ele>555</ele>
        <time>2018-10-14T08:01:29Z</time>
      </trkpt>
      <trkpt lat="45.66757" lon="4.62844">
        <ele>555</ele>
        <time>2018-10-14T08:01:30Z</time>
      </trkpt>
      <trkpt lat="45.66756" lon="4.62842">
        <ele>556</ele>
        <time>2018-10-14T08:01:31Z</time>
      </trkpt>
      <trkpt lat="45.66755" lon="4.62841">
        <ele>556</ele>
        <time>2018-10-14T08:01:32Z</time>
      </trkpt>
      <trkpt lat="45.66755" lon="4.6284">
        <ele>554</ele>
        <time>2018-10-14T08:01:33Z</time>
      </trkpt>
      <trkpt lat="45.66753" lon="4.62839">
        <ele>555</ele>
        <time>2018-10-14T08:01:34Z</time>
      </trkpt>
      <trkpt lat="45.66752" lon="4.62837">
        <ele>555</ele>
        <time>2018-10-14T08:01:35Z</time>
      </trkpt>
      <trkpt lat="45.66751" lon="4.62836">
        <ele>554</ele>
        <time>2018-10-14T08:01:36Z</time>
      </trkpt>
      <trkpt lat="45.6675" lon="4.62835">
        <ele>554</ele>
        <time>2018-10-14T08:01:37Z</time>
      </trkpt>
      <trkpt lat="45.6675" lon="4.62833">
        <ele>555</ele>
        <time>2018-10-14T08:01:38Z</time>
      </trkpt>
      <trkpt lat="45.66749" lon="4.62831">
        <ele>555</ele>
        <time>2018-10-14T08:01:39Z</time>
      </trkpt>
      <trkpt lat="45.6675" lon="4.62828">
        <ele>555</ele>
        <time>2018-10-14T08:01:41Z</time>
      </trkpt>
      <trkpt lat="45.66749" lon="4.62826">
        <ele>556</ele>
        <time>2018-10-14T08:01:42Z</time>
      </trkpt>
      <trkpt lat="45.66748" lon="4.62824">
        <ele>556</ele>
        <time>2018-10-14T08:01:43Z</time>
      </trkpt>
      <trkpt lat="45.66747" lon="4.62823">
        <ele>556</ele>
        <time>2018-10-14T08:01:44Z</time>
      </trkpt>
      <trkpt lat="45.66746" lon="4.62821">
        <ele>556</ele>
        <time>2018-10-14T08:01:45Z</time>
      </trkpt>
      <trkpt lat="45.66746" lon="4.62819">
        <ele>556</ele>
        <time>2018-10-14T08:01:46Z</time>
      </trkpt>
      <trkpt lat="45.66745" lon="4.62817">
        <ele>556</ele>
        <time>2018-10-14T08:01:47Z</time>
      </trkpt>
      <trkpt lat="45.66745" lon="4.62815">
        <ele>556</ele>
        <time>2018-10-14T08:01:48Z</time>
      </trkpt>
      <trkpt lat="45.66745" lon="4.62813">
        <ele>556</ele>
        <time>2018-10-14T08:01:49Z</time>
      </trkpt>
      <trkpt lat="45.66745" lon="4.62811">
        <ele>557</ele>
        <time>2018-10-14T08:01:50Z</time>
      </trkpt>
      <trkpt lat="45.66746" lon="4.62808">
        <ele>556</ele>
        <time>2018-10-14T08:01:51Z</time>
      </trkpt>
      <trkpt lat="45.66748" lon="4.62806">
        <ele>556</ele>
        <time>2018-10-14T08:01:53Z</time>
      </trkpt>
      <trkpt lat="45.66748" lon="4.62804">
        <ele>557</ele>
        <time>2018-10-14T08:01:54Z</time>
      </trkpt>
      <trkpt lat="45.66748" lon="4.62802">
        <ele>557</ele>
        <time>2018-10-14T08:01:55Z</time>
      </trkpt>
      <trkpt lat="45.66749" lon="4.628">
        <ele>557</ele>
        <time>2018-10-14T08:01:56Z</time>
      </trkpt>
      <trkpt lat="45.6675" lon="4.62798">
        <ele>558</ele>
        <time>2018-10-14T08:01:57Z</time>
      </trkpt>
      <trkpt lat="45.66751" lon="4.62796">
        <ele>558</ele>
        <time>2018-10-14T08:01:58Z</time>
      </trkpt>
      <trkpt lat="45.66753" lon="4.62794">
        <ele>558</ele>
        <time>2018-10-14T08:01:59Z</time>
      </trkpt>
      <trkpt lat="45.66754" lon="4.62793">
        <ele>559</ele>
        <time>2018-10-14T08:02:00Z</time>
      </trkpt>
      <trkpt lat="45.66756" lon="4.62791">
        <ele>558</ele>
        <time>2018-10-14T08:02:01Z</time>
      </trkpt>
      <trkpt lat="45.66756" lon="4.62789">
        <ele>559</ele>
        <time>2018-10-14T08:02:02Z</time>
      </trkpt>
      <trkpt lat="45.66757" lon="4.62787">
        <ele>559</ele>
        <time>2018-10-14T08:02:03Z</time>
      </trkpt>
      <trkpt lat="45.66758" lon="4.62785">
        <ele>559</ele>
        <time>2018-10-14T08:02:04Z</time>
      </trkpt>
      <trkpt lat="45.66758" lon="4.62783">
        <ele>559</ele>
        <time>2018-10-14T08:02:05Z</time>
      </trkpt>
      <trkpt lat="45.66759" lon="4.62781">
        <ele>559</ele>
        <time>2018-10-14T08:02:06Z</time>
      </trkpt>
      <trkpt lat="45.6676" lon="4.6278">
        <ele>559</ele>
        <time>2018-10-14T08:02:07Z</time>
      </trkpt>
      <trkpt lat="45.6676" lon="4.62777">
        <ele>559</ele>
        <time>2018-10-14T08:02:09Z</time>
      </trkpt>
      <trkpt lat="45.6676" lon="4.62774">
        <ele>559</ele>
        <time>2018-10-14T08:02:10Z</time>
      </trkpt>
      <trkpt lat="45.66761" lon="4.62772">
        <ele>559</ele>
        <time>2018-10-14T08:02:11Z</time>
      </trkpt>
      <trkpt lat="45.66761" lon="4.6277">
        <ele>559</ele>
        <time>2018-10-14T08:02:12Z</time>
      </trkpt>
      <trkpt lat="45.66761" lon="4.62766">
        <ele>559</ele>
        <time>2018-10-14T08:02:14Z</time>
      </trkpt>
      <trkpt lat="45.66761" lon="4.62763">
        <ele>559</ele>
        <time>2018-10-14T08:02:15Z</time>
      </trkpt>
      <trkpt lat="45.6676" lon="4.62761">
        <ele>559</ele>
        <time>2018-10-14T08:02:16Z</time>
      </trkpt>
      <trkpt lat="45.6676" lon="4.62758">
        <ele>559</ele>
        <time>2018-10-14T08:02:17Z</time>
      </trkpt>
      <trkpt lat="45.6676" lon="4.62756">
        <ele>559</ele>
        <time>2018-10-14T08:02:18Z</time>
      </trkpt>
      <trkpt lat="45.6676" lon="4.62753">
        <ele>559</ele>
        <time>2018-10-14T08:02:19Z</time>
      </trkpt>
      <trkpt lat="45.6676" lon="4.62751">
        <ele>560</ele>
        <time>2018-10-14T08:02:20Z</time>
      </trkpt>
      <trkpt lat="45.6676" lon="4.62749">
        <ele>560</ele>
        <time>2018-10-14T08:02:21Z</time>
      </trkpt>
      <trkpt lat="45.6676" lon="4.62746">
        <ele>560</ele>
        <time>2018-10-14T08:02:22Z</time>
      </trkpt>
      <trkpt lat="45.66759" lon="4.62744">
        <ele>560</ele>
        <time>2018-10-14T08:02:23Z</time>
      </trkpt>
      <trkpt lat="45.66758" lon="4.62742">
        <ele>560</ele>
        <time>2018-10-14T08:02:24Z</time>
      </trkpt>
      <trkpt lat="45.66757" lon="4.6274">
        <ele>561</ele>
        <time>2018-10-14T08:02:25Z</time>
      </trkpt>
      <trkpt lat="45.66756" lon="4.62738">
        <ele>561</ele>
        <time>2018-10-14T08:02:26Z</time>
      </trkpt>
      <trkpt lat="45.66756" lon="4.62735">
        <ele>561</ele>
        <time>2018-10-14T08:02:27Z</time>
      </trkpt>
      <trkpt lat="45.66755" lon="4.62733">
        <ele>562</ele>
        <time>2018-10-14T08:02:28Z</time>
      </trkpt>
      <trkpt lat="45.66755" lon="4.6273">
        <ele>561</ele>
        <time>2018-10-14T08:02:29Z</time>
      </trkpt>
      <trkpt lat="45.66754" lon="4.62728">
        <ele>561</ele>
        <time>2018-10-14T08:02:30Z</time>
      </trkpt>
      <trkpt lat="45.66753" lon="4.62726">
        <ele>561</ele>
        <time>2018-10-14T08:02:31Z</time>
      </trkpt>
      <trkpt lat="45.66753" lon="4.62725">
        <ele>561</ele>
        <time>2018-10-14T08:02:32Z</time>
      </trkpt>
      <trkpt lat="45.66753" lon="4.62724">
        <ele>561</ele>
        <time>2018-10-14T08:02:33Z</time>
      </trkpt>
      <trkpt lat="45.66753" lon="4.62721">
        <ele>562</ele>
        <time>2018-10-14T08:02:34Z</time>
      </trkpt>
      <trkpt lat="45.66754" lon="4.62719">
        <ele>562</ele>
        <time>2018-10-14T08:02:35Z</time>
      </trkpt>
      <trkpt lat="45.66754" lon="4.62717">
        <ele>562</ele>
        <time>2018-10-14T08:02:36Z</time>
      </trkpt>
      <trkpt lat="45.66754" lon="4.62715">
        <ele>562</ele>
        <time>2018-10-14T08:02:37Z</time>
      </trkpt>
      <trkpt lat="45.66754" lon="4.62713">
        <ele>562</ele>
        <time>2018-10-14T08:02:38Z</time>
      </trkpt>
      <trkpt lat="45.66754" lon="4.6271">
        <ele>562</ele>
        <time>2018-10-14T08:02:39Z</time>
      </trkpt>
      <trkpt lat="45.66754" lon="4.62708">
        <ele>562</ele>
        <time>2018-10-14T08:02:40Z</time>
      </trkpt>
      <trkpt lat="45.66754" lon="4.62706">
        <ele>562</ele>
        <time>2018-10-14T08:02:41Z</time>
      </trkpt>
      <trkpt lat="45.66755" lon="4.62704">
        <ele>562</ele>
        <time>2018-10-14T08:02:42Z</time>
      </trkpt>
      <trkpt lat="45.66756" lon="4.62702">
        <ele>561</ele>
        <time>2018-10-14T08:02:43Z</time>
      </trkpt>
      <trkpt lat="45.66756" lon="4.627">
        <ele>562</ele>
        <time>2018-10-14T08:02:44Z</time>
      </trkpt>
      <trkpt lat="45.66756" lon="4.62698">
        <ele>563</ele>
        <time>2018-10-14T08:02:45Z</time>
      </trkpt>
      <trkpt lat="45.66756" lon="4.62695">
        <ele>562</ele>
        <time>2018-10-14T08:02:46Z</time>
      </trkpt>
      <trkpt lat="45.66757" lon="4.62693">
        <ele>563</ele>
        <time>2018-10-14T08:02:47Z</time>
      </trkpt>
      <trkpt lat="45.66757" lon="4.62691">
        <ele>563</ele>
        <time>2018-10-14T08:02:48Z</time>
      </trkpt>
      <trkpt lat="45.66758" lon="4.62689">
        <ele>562</ele>
        <time>2018-10-14T08:02:49Z</time>
      </trkpt>
      <trkpt lat="45.66758" lon="4.62687">
        <ele>562</ele>
        <time>2018-10-14T08:02:50Z</time>
      </trkpt>
      <trkpt lat="45.66759" lon="4.62686">
        <ele>563</ele>
        <time>2018-10-14T08:02:51Z</time>
      </trkpt>
      <trkpt lat="45.66759" lon="4.62684">
        <ele>563</ele>
        <time>2018-10-14T08:02:52Z</time>
      </trkpt>
      <trkpt lat="45.66759" lon="4.62682">
        <ele>563</ele>
        <time>2018-10-14T08:02:53Z</time>
      </trkpt>
      <trkpt lat="45.6676" lon="4.6268">
        <ele>563</ele>
        <time>2018-10-14T08:02:54Z</time>
      </trkpt>
      <trkpt lat="45.6676" lon="4.62677">
        <ele>563</ele>
        <time>2018-10-14T08:02:55Z</time>
      </trkpt>
      <trkpt lat="45.66761" lon="4.62673">
        <ele>563</ele>
        <time>2018-10-14T08:02:56Z</time>
      </trkpt>
      <trkpt lat="45.66763" lon="4.62671">
        <ele>564</ele>
        <time>2018-10-14T08:02:57Z</time>
      </trkpt>
      <trkpt lat="45.66764" lon="4.6267">
        <ele>565</ele>
        <time>2018-10-14T08:02:58Z</time>
      </trkpt>
      <trkpt lat="45.66766" lon="4.62669">
        <ele>566</ele>
        <time>2018-10-14T08:02:59Z</time>
      </trkpt>
      <trkpt lat="45.66767" lon="4.62667">
        <ele>567</ele>
        <time>2018-10-14T08:03:00Z</time>
      </trkpt>
      <trkpt lat="45.66767" lon="4.62666">
        <ele>567</ele>
        <time>2018-10-14T08:03:01Z</time>
      </trkpt>
      <trkpt lat="45.66768" lon="4.62664">
        <ele>567</ele>
        <time>2018-10-14T08:03:02Z</time>
      </trkpt>
      <trkpt lat="45.66768" lon="4.62663">
        <ele>568</ele>
        <time>2018-10-14T08:03:03Z</time>
      </trkpt>
      <trkpt lat="45.66768" lon="4.62661">
        <ele>568</ele>
        <time>2018-10-14T08:03:04Z</time>
      </trkpt>
      <trkpt lat="45.66769" lon="4.62659">
        <ele>568</ele>
        <time>2018-10-14T08:03:05Z</time>
      </trkpt>
      <trkpt lat="45.66769" lon="4.62657">
        <ele>568</ele>
        <time>2018-10-14T08:03:06Z</time>
      </trkpt>
      <trkpt lat="45.66769" lon="4.62655">
        <ele>569</ele>
        <time>2018-10-14T08:03:07Z</time>
      </trkpt>
      <trkpt lat="45.66769" lon="4.62654">
        <ele>569</ele>
        <time>2018-10-14T08:03:08Z</time>
      </trkpt>
      <trkpt lat="45.66769" lon="4.62652">
        <ele>569</ele>
        <time>2018-10-14T08:03:09Z</time>
      </trkpt>
      <trkpt lat="45.66768" lon="4.62651">
        <ele>570</ele>
        <time>2018-10-14T08:03:10Z</time>
      </trkpt>
      <trkpt lat="45.66767" lon="4.62649">
        <ele>570</ele>
        <time>2018-10-14T08:03:11Z</time>
      </trkpt>
      <trkpt lat="45.66766" lon="4.62647">
        <ele>571</ele>
        <time>2018-10-14T08:03:12Z</time>
      </trkpt>
      <trkpt lat="45.66765" lon="4.62645">
        <ele>572</ele>
        <time>2018-10-14T08:03:14Z</time>
      </trkpt>
      <trkpt lat="45.66764" lon="4.62644">
        <ele>572</ele>
        <time>2018-10-14T08:03:15Z</time>
      </trkpt>
      <trkpt lat="45.66763" lon="4.62643">
        <ele>573</ele>
        <time>2018-10-14T08:03:16Z</time>
      </trkpt>
      <trkpt lat="45.66761" lon="4.62642">
        <ele>573</ele>
        <time>2018-10-14T08:03:17Z</time>
      </trkpt>
      <trkpt lat="45.6676" lon="4.6264">
        <ele>574</ele>
        <time>2018-10-14T08:03:18Z</time>
      </trkpt>
      <trkpt lat="45.66758" lon="4.62639">
        <ele>574</ele>
        <time>2018-10-14T08:03:19Z</time>
      </trkpt>
      <trkpt lat="45.66757" lon="4.62637">
        <ele>574</ele>
        <time>2018-10-14T08:03:20Z</time>
      </trkpt>
      <trkpt lat="45.66755" lon="4.62636">
        <ele>575</ele>
        <time>2018-10-14T08:03:21Z</time>
      </trkpt>
      <trkpt lat="45.66755" lon="4.62635">
        <ele>575</ele>
        <time>2018-10-14T08:03:22Z</time>
      </trkpt>
      <trkpt lat="45.66753" lon="4.62633">
        <ele>575</ele>
        <time>2018-10-14T08:03:23Z</time>
      </trkpt>
      <trkpt lat="45.66753" lon="4.62632">
        <ele>575</ele>
        <time>2018-10-14T08:03:24Z</time>
      </trkpt>
      <trkpt lat="45.66752" lon="4.62631">
        <ele>575</ele>
        <time>2018-10-14T08:03:25Z</time>
      </trkpt>
      <trkpt lat="45.66751" lon="4.62629">
        <ele>575</ele>
        <time>2018-10-14T08:03:26Z</time>
      </trkpt>
      <trkpt lat="45.66751" lon="4.62627">
        <ele>577</ele>
        <time>2018-10-14T08:03:27Z</time>
      </trkpt>
      <trkpt lat="45.6675" lon="4.62625">
        <ele>576</ele>
        <time>2018-10-14T08:03:28Z</time>
      </trkpt>
      <trkpt lat="45.6675" lon="4.62622">
        <ele>576</ele>
        <time>2018-10-14T08:03:29Z</time>
      </trkpt>
      <trkpt lat="45.6675" lon="4.62619">
        <ele>576</ele>
        <time>2018-10-14T08:03:30Z</time>
      </trkpt>
      <trkpt lat="45.6675" lon="4.62616">
        <ele>576</ele>
        <time>2018-10-14T08:03:31Z</time>
      </trkpt>
      <trkpt lat="45.6675" lon="4.62614">
        <ele>575</ele>
        <time>2018-10-14T08:03:32Z</time>
      </trkpt>
      <trkpt lat="45.6675" lon="4.62611">
        <ele>574</ele>
        <time>2018-10-14T08:03:33Z</time>
      </trkpt>
      <trkpt lat="45.6675" lon="4.62609">
        <ele>574</ele>
        <time>2018-10-14T08:03:34Z</time>
      </trkpt>
      <trkpt lat="45.66751" lon="4.62607">
        <ele>573</ele>
        <time>2018-10-14T08:03:35Z</time>
      </trkpt>
      <trkpt lat="45.66751" lon="4.62604">
        <ele>573</ele>
        <time>2018-10-14T08:03:36Z</time>
      </trkpt>
      <trkpt lat="45.66752" lon="4.62602">
        <ele>573</ele>
        <time>2018-10-14T08:03:37Z</time>
      </trkpt>
      <trkpt lat="45.66752" lon="4.62599">
        <ele>572</ele>
        <time>2018-10-14T08:03:38Z</time>
      </trkpt>
      <trkpt lat="45.66752" lon="4.62596">
        <ele>572</ele>
        <time>2018-10-14T08:03:39Z</time>
      </trkpt>
      <trkpt lat="45.66753" lon="4.62593">
        <ele>572</ele>
        <time>2018-10-14T08:03:40Z</time>
      </trkpt>
      <trkpt lat="45.66752" lon="4.62591">
        <ele>573</ele>
        <time>2018-10-14T08:03:41Z</time>
      </trkpt>
      <trkpt lat="45.66752" lon="4.62589">
        <ele>573</ele>
        <time>2018-10-14T08:03:42Z</time>
      </trkpt>
      <trkpt lat="45.66752" lon="4.62587">
        <ele>573</ele>
        <time>2018-10-14T08:03:43Z</time>
      </trkpt>
      <trkpt lat="45.66752" lon="4.62585">
        <ele>574</ele>
        <time>2018-10-14T08:03:44Z</time>
      </trkpt>
      <trkpt lat="45.66753" lon="4.62582">
        <ele>574</ele>
        <time>2018-10-14T08:03:45Z</time>
      </trkpt>
      <trkpt lat="45.66753" lon="4.62581">
        <ele>575</ele>
        <time>2018-10-14T08:03:46Z</time>
      </trkpt>
      <trkpt lat="45.66753" lon="4.62579">
        <ele>575</ele>
        <time>2018-10-14T08:03:47Z</time>
      </trkpt>
      <trkpt lat="45.66753" lon="4.62576">
        <ele>575</ele>
        <time>2018-10-14T08:03:48Z</time>
      </trkpt>
      <trkpt lat="45.66753" lon="4.62573">
        <ele>574</ele>
        <time>2018-10-14T08:03:49Z</time>
      </trkpt>
      <trkpt lat="45.66752" lon="4.6257">
        <ele>574</ele>
        <time>2018-10-14T08:03:50Z</time>
      </trkpt>
      <trkpt lat="45.66752" lon="4.62566">
        <ele>574</ele>
        <time>2018-10-14T08:03:51Z</time>
      </trkpt>
      <trkpt lat="45.66752" lon="4.62562">
        <ele>574</ele>
        <time>2018-10-14T08:03:52Z</time>
      </trkpt>
      <trkpt lat="45.66752" lon="4.62557">
        <ele>574</ele>
        <time>2018-10-14T08:03:53Z</time>
      </trkpt>
      <trkpt lat="45.66752" lon="4.62553">
        <ele>574</ele>
        <time>2018-10-14T08:03:54Z</time>
      </trkpt>
      <trkpt lat="45.66752" lon="4.62551">
        <ele>574</ele>
        <time>2018-10-14T08:03:55Z</time>
      </trkpt>
      <trkpt lat="45.66748" lon="4.62542">
        <ele>574</ele>
        <time>2018-10-14T08:03:56Z</time>
      </trkpt>
      <trkpt lat="45.66748" lon="4.62537">
        <ele>574</ele>
        <time>2018-10-14T08:03:57Z</time>
      </trkpt>
      <trkpt lat="45.66747" lon="4.62533">
        <ele>574</ele>
        <time>2018-10-14T08:03:58Z</time>
      </trkpt>
      <trkpt lat="45.66746" lon="4.62528">
        <ele>575</ele>
        <time>2018-10-14T08:03:59Z</time>
      </trkpt>
      <trkpt lat="45.66745" lon="4.62524">
        <ele>575</ele>
        <time>2018-10-14T08:04:00Z</time>
      </trkpt>
      <trkpt lat="45.66744" lon="4.62519">
        <ele>575</ele>
        <time>2018-10-14T08:04:01Z</time>
      </trkpt>
      <trkpt lat="45.66744" lon="4.62515">
        <ele>575</ele>
        <time>2018-10-14T08:04:02Z</time>
      </trkpt>
      <trkpt lat="45.66744" lon="4.6251">
        <ele>575</ele>
        <time>2018-10-14T08:04:03Z</time>
      </trkpt>
      <trkpt lat="45.66744" lon="4.62506">
        <ele>575</ele>
        <time>2018-10-14T08:04:04Z</time>
      </trkpt>
      <trkpt lat="45.6674" lon="4.62501">
        <ele>576</ele>
        <time>2018-10-14T08:04:05Z</time>
      </trkpt>
      <trkpt lat="45.66739" lon="4.62497">
        <ele>576</ele>
        <time>2018-10-14T08:04:06Z</time>
      </trkpt>
      <trkpt lat="45.66738" lon="4.62492">
        <ele>576</ele>
        <time>2018-10-14T08:04:07Z</time>
      </trkpt>
      <trkpt lat="45.66738" lon="4.62487">
        <ele>576</ele>
        <time>2018-10-14T08:04:08Z</time>
      </trkpt>
      <trkpt lat="45.66737" lon="4.62481">
        <ele>576</ele>
        <time>2018-10-14T08:04:09Z</time>
      </trkpt>
      <trkpt lat="45.66736" lon="4.62477">
        <ele>576</ele>
        <time>2018-10-14T08:04:10Z</time>
      </trkpt>
      <trkpt lat="45.66734" lon="4.62471">
        <ele>578</ele>
        <time>2018-10-14T08:04:11Z</time>
      </trkpt>
      <trkpt lat="45.66734" lon="4.62465">
        <ele>578</ele>
        <time>2018-10-14T08:04:12Z</time>
      </trkpt>
      <trkpt lat="45.66731" lon="4.62461">
        <ele>578</ele>
        <time>2018-10-14T08:04:13Z</time>
      </trkpt>
      <trkpt lat="45.66731" lon="4.62455">
        <ele>579</ele>
        <time>2018-10-14T08:04:14Z</time>
      </trkpt>
      <trkpt lat="45.6673" lon="4.62449">
        <ele>578</ele>
        <time>2018-10-14T08:04:15Z</time>
      </trkpt>
      <trkpt lat="45.66728" lon="4.62444">
        <ele>579</ele>
        <time>2018-10-14T08:04:16Z</time>
      </trkpt>
      <trkpt lat="45.66724" lon="4.62437">
        <ele>579</ele>
        <time>2018-10-14T08:04:17Z</time>
      </trkpt>
      <trkpt lat="45.66723" lon="4.62432">
        <ele>579</ele>
        <time>2018-10-14T08:04:18Z</time>
      </trkpt>
      <trkpt lat="45.66721" lon="4.62428">
        <ele>580</ele>
        <time>2018-10-14T08:04:19Z</time>
      </trkpt>
      <trkpt lat="45.6672" lon="4.62426">
        <ele>580</ele>
        <time>2018-10-14T08:04:20Z</time>
      </trkpt>
      <trkpt lat="45.66718" lon="4.6242">
        <ele>579</ele>
        <time>2018-10-14T08:04:22Z</time>
      </trkpt>
      <trkpt lat="45.66716" lon="4.62409">
        <ele>582</ele>
        <time>2018-10-14T08:04:23Z</time>
      </trkpt>
      <trkpt lat="45.66714" lon="4.62404">
        <ele>581</ele>
        <time>2018-10-14T08:04:24Z</time>
      </trkpt>
      <trkpt lat="45.66714" lon="4.62399">
        <ele>581</ele>
        <time>2018-10-14T08:04:25Z</time>
      </trkpt>
      <trkpt lat="45.6671" lon="4.62393">
        <ele>580</ele>
        <time>2018-10-14T08:04:26Z</time>
      </trkpt>
      <trkpt lat="45.6671" lon="4.6239">
        <ele>578</ele>
        <time>2018-10-14T08:04:27Z</time>
      </trkpt>
      <trkpt lat="45.66712" lon="4.62388">
        <ele>578</ele>
        <time>2018-10-14T08:04:28Z</time>
      </trkpt>
      <trkpt lat="45.66711" lon="4.62384">
        <ele>577</ele>
        <time>2018-10-14T08:04:29Z</time>
      </trkpt>
      <trkpt lat="45.6671" lon="4.62382">
        <ele>576</ele>
        <time>2018-10-14T08:04:30Z</time>
      </trkpt>
      <trkpt lat="45.66709" lon="4.6238">
        <ele>576</ele>
        <time>2018-10-14T08:04:31Z</time>
      </trkpt>
      <trkpt lat="45.66708" lon="4.62379">
        <ele>575</ele>
        <time>2018-10-14T08:04:32Z</time>
      </trkpt>
      <trkpt lat="45.66706" lon="4.62377">
        <ele>575</ele>
        <time>2018-10-14T08:04:33Z</time>
      </trkpt>
      <trkpt lat="45.66704" lon="4.62375">
        <ele>575</ele>
        <time>2018-10-14T08:04:34Z</time>
      </trkpt>
      <trkpt lat="45.66702" lon="4.62372">
        <ele>574</ele>
        <time>2018-10-14T08:04:35Z</time>
      </trkpt>
      <trkpt lat="45.667" lon="4.6237">
        <ele>574</ele>
        <time>2018-10-14T08:04:36Z</time>
      </trkpt>
      <trkpt lat="45.66697" lon="4.62366">
        <ele>574</ele>
        <time>2018-10-14T08:04:38Z</time>
      </trkpt>
      <trkpt lat="45.66695" lon="4.62363">
        <ele>573</ele>
        <time>2018-10-14T08:04:39Z</time>
      </trkpt>
      <trkpt lat="45.66694" lon="4.62361">
        <ele>574</ele>
        <time>2018-10-14T08:04:40Z</time>
      </trkpt>
      <trkpt lat="45.66693" lon="4.62359">
        <ele>575</ele>
        <time>2018-10-14T08:04:41Z</time>
      </trkpt>
      <trkpt lat="45.66692" lon="4.62357">
        <ele>575</ele>
        <time>2018-10-14T08:04:42Z</time>
      </trkpt>
      <trkpt lat="45.6669" lon="4.62356">
        <ele>575</ele>
        <time>2018-10-14T08:04:43Z</time>
      </trkpt>
      <trkpt lat="45.66687" lon="4.62355">
        <ele>574</ele>
        <time>2018-10-14T08:04:44Z</time>
      </trkpt>
      <trkpt lat="45.66685" lon="4.62355">
        <ele>574</ele>
        <time>2018-10-14T08:04:45Z</time>
      </trkpt>
      <trkpt lat="45.66683" lon="4.62354">
        <ele>574</ele>
        <time>2018-10-14T08:04:46Z</time>
      </trkpt>
      <trkpt lat="45.66681" lon="4.62353">
        <ele>574</ele>
        <time>2018-10-14T08:04:48Z</time>
      </trkpt>
      <trkpt lat="45.66679" lon="4.62352">
        <ele>575</ele>
        <time>2018-10-14T08:04:49Z</time>
      </trkpt>
      <trkpt lat="45.66677" lon="4.6235">
        <ele>575</ele>
        <time>2018-10-14T08:04:50Z</time>
      </trkpt>
      <trkpt lat="45.66674" lon="4.62347">
        <ele>575</ele>
        <time>2018-10-14T08:04:51Z</time>
      </trkpt>
      <trkpt lat="45.66672" lon="4.62346">
        <ele>575</ele>
        <time>2018-10-14T08:04:52Z</time>
      </trkpt>
      <trkpt lat="45.6667" lon="4.62344">
        <ele>577</ele>
        <time>2018-10-14T08:04:53Z</time>
      </trkpt>
      <trkpt lat="45.66667" lon="4.62343">
        <ele>578</ele>
        <time>2018-10-14T08:04:54Z</time>
      </trkpt>
      <trkpt lat="45.66664" lon="4.62342">
        <ele>579</ele>
        <time>2018-10-14T08:04:55Z</time>
      </trkpt>
      <trkpt lat="45.66661" lon="4.62341">
        <ele>580</ele>
        <time>2018-10-14T08:04:56Z</time>
      </trkpt>
      <trkpt lat="45.66658" lon="4.62339">
        <ele>581</ele>
        <time>2018-10-14T08:04:57Z</time>
      </trkpt>
      <trkpt lat="45.66656" lon="4.62337">
        <ele>580</ele>
        <time>2018-10-14T08:04:58Z</time>
      </trkpt>
      <trkpt lat="45.66653" lon="4.62336">
        <ele>575</ele>
        <time>2018-10-14T08:04:59Z</time>
      </trkpt>
      <trkpt lat="45.6665" lon="4.62333">
        <ele>577</ele>
        <time>2018-10-14T08:05:00Z</time>
      </trkpt>
      <trkpt lat="45.66649" lon="4.62332">
        <ele>579</ele>
        <time>2018-10-14T08:05:01Z</time>
      </trkpt>
      <trkpt lat="45.66647" lon="4.62331">
        <ele>581</ele>
        <time>2018-10-14T08:05:02Z</time>
      </trkpt>
      <trkpt lat="45.66645" lon="4.62329">
        <ele>582</ele>
        <time>2018-10-14T08:05:03Z</time>
      </trkpt>
      <trkpt lat="45.66643" lon="4.62327">
        <ele>581</ele>
        <time>2018-10-14T08:05:04Z</time>
      </trkpt>
      <trkpt lat="45.66642" lon="4.62326">
        <ele>583</ele>
        <time>2018-10-14T08:05:05Z</time>
      </trkpt>
      <trkpt lat="45.66641" lon="4.62324">
        <ele>582</ele>
        <time>2018-10-14T08:05:06Z</time>
      </trkpt>
      <trkpt lat="45.6664" lon="4.62321">
        <ele>582</ele>
        <time>2018-10-14T08:05:07Z</time>
      </trkpt>
      <trkpt lat="45.66639" lon="4.62318">
        <ele>583</ele>
        <time>2018-10-14T08:05:08Z</time>
      </trkpt>
      <trkpt lat="45.66638" lon="4.62315">
        <ele>583</ele>
        <time>2018-10-14T08:05:09Z</time>
      </trkpt>
      <trkpt lat="45.66637" lon="4.62311">
        <ele>583</ele>
        <time>2018-10-14T08:05:10Z</time>
      </trkpt>
      <trkpt lat="45.66635" lon="4.62308">
        <ele>583</ele>
        <time>2018-10-14T08:05:11Z</time>
      </trkpt>
      <trkpt lat="45.66634" lon="4.62305">
        <ele>583</ele>
        <time>2018-10-14T08:05:12Z</time>
      </trkpt>
      <trkpt lat="45.66633" lon="4.62301">
        <ele>584</ele>
        <time>2018-10-14T08:05:13Z</time>
      </trkpt>
      <trkpt lat="45.66631" lon="4.62298">
        <ele>585</ele>
        <time>2018-10-14T08:05:14Z</time>
      </trkpt>
      <trkpt lat="45.6663" lon="4.62295">
        <ele>585</ele>
        <time>2018-10-14T08:05:15Z</time>
      </trkpt>
      <trkpt lat="45.66628" lon="4.62292">
        <ele>585</ele>
        <time>2018-10-14T08:05:16Z</time>
      </trkpt>
      <trkpt lat="45.66627" lon="4.62289">
        <ele>585</ele>
        <time>2018-10-14T08:05:17Z</time>
      </trkpt>
      <trkpt lat="45.66626" lon="4.62286">
        <ele>585</ele>
        <time>2018-10-14T08:05:18Z</time>
      </trkpt>
      <trkpt lat="45.66625" lon="4.62283">
        <ele>586</ele>
        <time>2018-10-14T08:05:19Z</time>
      </trkpt>
      <trkpt lat="45.66625" lon="4.6228">
        <ele>587</ele>
        <time>2018-10-14T08:05:20Z</time>
      </trkpt>
      <trkpt lat="45.66623" lon="4.62278">
        <ele>588</ele>
        <time>2018-10-14T08:05:21Z</time>
      </trkpt>
      <trkpt lat="45.66622" lon="4.62276">
        <ele>588</ele>
        <time>2018-10-14T08:05:22Z</time>
      </trkpt>
      <trkpt lat="45.66621" lon="4.62273">
        <ele>589</ele>
        <time>2018-10-14T08:05:23Z</time>
      </trkpt>
      <trkpt lat="45.66619" lon="4.62271">
        <ele>589</ele>
        <time>2018-10-14T08:05:24Z</time>
      </trkpt>
      <trkpt lat="45.66617" lon="4.62268">
        <ele>589</ele>
        <time>2018-10-14T08:05:25Z</time>
      </trkpt>
      <trkpt lat="45.66616" lon="4.62265">
        <ele>589</ele>
        <time>2018-10-14T08:05:26Z</time>
      </trkpt>
      <trkpt lat="45.66614" lon="4.62262">
        <ele>589</ele>
        <time>2018-10-14T08:05:27Z</time>
      </trkpt>
      <trkpt lat="45.66612" lon="4.62258">
        <ele>589</ele>
        <time>2018-10-14T08:05:28Z</time>
      </trkpt>
      <trkpt lat="45.66611" lon="4.62255">
        <ele>589</ele>
        <time>2018-10-14T08:05:29Z</time>
      </trkpt>
      <trkpt lat="45.66609" lon="4.62251">
        <ele>589</ele>
        <time>2018-10-14T08:05:30Z</time>
      </trkpt>
      <trkpt lat="45.66608" lon="4.62248">
        <ele>589</ele>
        <time>2018-10-14T08:05:31Z</time>
      </trkpt>
      <trkpt lat="45.66606" lon="4.62244">
        <ele>589</ele>
        <time>2018-10-14T08:05:32Z</time>
      </trkpt>
      <trkpt lat="45.66605" lon="4.62241">
        <ele>589</ele>
        <time>2018-10-14T08:05:33Z</time>
      </trkpt>
      <trkpt lat="45.66603" lon="4.62237">
        <ele>589</ele>
        <time>2018-10-14T08:05:34Z</time>
      </trkpt>
      <trkpt lat="45.66601" lon="4.62233">
        <ele>589</ele>
        <time>2018-10-14T08:05:35Z</time>
      </trkpt>
      <trkpt lat="45.666" lon="4.62229">
        <ele>589</ele>
        <time>2018-10-14T08:05:36Z</time>
      </trkpt>
      <trkpt lat="45.66598" lon="4.62225">
        <ele>589</ele>
        <time>2018-10-14T08:05:37Z</time>
      </trkpt>
      <trkpt lat="45.66597" lon="4.62222">
        <ele>589</ele>
        <time>2018-10-14T08:05:38Z</time>
      </trkpt>
      <trkpt lat="45.66596" lon="4.62218">
        <ele>589</ele>
        <time>2018-10-14T08:05:39Z</time>
      </trkpt>
      <trkpt lat="45.66595" lon="4.62214">
        <ele>589</ele>
        <time>2018-10-14T08:05:40Z</time>
      </trkpt>
      <trkpt lat="45.66593" lon="4.62211">
        <ele>589</ele>
        <time>2018-10-14T08:05:41Z</time>
      </trkpt>
      <trkpt lat="45.66592" lon="4.62207">
        <ele>589</ele>
        <time>2018-10-14T08:05:42Z</time>
      </trkpt>
      <trkpt lat="45.6659" lon="4.62203">
        <ele>589</ele>
        <time>2018-10-14T08:05:43Z</time>
      </trkpt>
      <trkpt lat="45.66588" lon="4.622">
        <ele>589</ele>
        <time>2018-10-14T08:05:44Z</time>
      </trkpt>
      <trkpt lat="45.66587" lon="4.62197">
        <ele>589</ele>
        <time>2018-10-14T08:05:45Z</time>
      </trkpt>
      <trkpt lat="45.66586" lon="4.62194">
        <ele>589</ele>
        <time>2018-10-14T08:05:46Z</time>
      </trkpt>
      <trkpt lat="45.66585" lon="4.62191">
        <ele>589</ele>
        <time>2018-10-14T08:05:47Z</time>
      </trkpt>
      <trkpt lat="45.66583" lon="4.62187">
        <ele>589</ele>
        <time>2018-10-14T08:05:48Z</time>
      </trkpt>
      <trkpt lat="45.66582" lon="4.62183">
        <ele>589</ele>
        <time>2018-10-14T08:05:49Z</time>
      </trkpt>
      <trkpt lat="45.66581" lon="4.6218">
        <ele>590</ele>
        <time>2018-10-14T08:05:50Z</time>
      </trkpt>
      <trkpt lat="45.66581" lon="4.62176">
        <ele>590</ele>
        <time>2018-10-14T08:05:51Z</time>
      </trkpt>
      <trkpt lat="45.6658" lon="4.62173">
        <ele>590</ele>
        <time>2018-10-14T08:05:52Z</time>
      </trkpt>
      <trkpt lat="45.66579" lon="4.62169">
        <ele>591</ele>
        <time>2018-10-14T08:05:53Z</time>
      </trkpt>
      <trkpt lat="45.66578" lon="4.62165">
        <ele>591</ele>
        <time>2018-10-14T08:05:54Z</time>
      </trkpt>
      <trkpt lat="45.66577" lon="4.62161">
        <ele>591</ele>
        <time>2018-10-14T08:05:55Z</time>
      </trkpt>
      <trkpt lat="45.66576" lon="4.62158">
        <ele>590</ele>
        <time>2018-10-14T08:05:56Z</time>
      </trkpt>
      <trkpt lat="45.66576" lon="4.62156">
        <ele>590</ele>
        <time>2018-10-14T08:05:57Z</time>
      </trkpt>
      <trkpt lat="45.66573" lon="4.62147">
        <ele>590</ele>
        <time>2018-10-14T08:05:59Z</time>
      </trkpt>
      <trkpt lat="45.66571" lon="4.62143">
        <ele>591</ele>
        <time>2018-10-14T08:06:00Z</time>
      </trkpt>
      <trkpt lat="45.66569" lon="4.62139">
        <ele>591</ele>
        <time>2018-10-14T08:06:01Z</time>
      </trkpt>
      <trkpt lat="45.66568" lon="4.62135">
        <ele>591</ele>
        <time>2018-10-14T08:06:02Z</time>
      </trkpt>
      <trkpt lat="45.66568" lon="4.62131">
        <ele>591</ele>
        <time>2018-10-14T08:06:03Z</time>
      </trkpt>
      <trkpt lat="45.66567" lon="4.62127">
        <ele>591</ele>
        <time>2018-10-14T08:06:04Z</time>
      </trkpt>
      <trkpt lat="45.66567" lon="4.62124">
        <ele>591</ele>
        <time>2018-10-14T08:06:05Z</time>
      </trkpt>
      <trkpt lat="45.66565" lon="4.6212">
        <ele>591</ele>
        <time>2018-10-14T08:06:06Z</time>
      </trkpt>
      <trkpt lat="45.66564" lon="4.62116">
        <ele>591</ele>
        <time>2018-10-14T08:06:07Z</time>
      </trkpt>
      <trkpt lat="45.66563" lon="4.62112">
        <ele>591</ele>
        <time>2018-10-14T08:06:08Z</time>
      </trkpt>
      <trkpt lat="45.66562" lon="4.62108">
        <ele>591</ele>
        <time>2018-10-14T08:06:09Z</time>
      </trkpt>
      <trkpt lat="45.66562" lon="4.62104">
        <ele>591</ele>
        <time>2018-10-14T08:06:10Z</time>
      </trkpt>
      <trkpt lat="45.66561" lon="4.62101">
        <ele>591</ele>
        <time>2018-10-14T08:06:11Z</time>
      </trkpt>
      <trkpt lat="45.6656" lon="4.62099">
        <ele>591</ele>
        <time>2018-10-14T08:06:12Z</time>
      </trkpt>
      <trkpt lat="45.6656" lon="4.62096">
        <ele>591</ele>
        <time>2018-10-14T08:06:13Z</time>
      </trkpt>
      <trkpt lat="45.66559" lon="4.62093">
        <ele>591</ele>
        <time>2018-10-14T08:06:14Z</time>
      </trkpt>
      <trkpt lat="45.66559" lon="4.6209">
        <ele>591</ele>
        <time>2018-10-14T08:06:15Z</time>
      </trkpt>
      <trkpt lat="45.66558" lon="4.62087">
        <ele>590</ele>
        <time>2018-10-14T08:06:16Z</time>
      </trkpt>
      <trkpt lat="45.66557" lon="4.62083">
        <ele>590</ele>
        <time>2018-10-14T08:06:17Z</time>
      </trkpt>
      <trkpt lat="45.66557" lon="4.62079">
        <ele>590</ele>
        <time>2018-10-14T08:06:18Z</time>
      </trkpt>
      <trkpt lat="45.66555" lon="4.62074">
        <ele>583</ele>
        <time>2018-10-14T08:06:19Z</time>
      </trkpt>
      <trkpt lat="45.66554" lon="4.6207">
        <ele>586</ele>
        <time>2018-10-14T08:06:20Z</time>
      </trkpt>
      <trkpt lat="45.66553" lon="4.62065">
        <ele>587</ele>
        <time>2018-10-14T08:06:21Z</time>
      </trkpt>
      <trkpt lat="45.66551" lon="4.6206">
        <ele>588</ele>
        <time>2018-10-14T08:06:22Z</time>
      </trkpt>
      <trkpt lat="45.6655" lon="4.62054">
        <ele>589</ele>
        <time>2018-10-14T08:06:23Z</time>
      </trkpt>
      <trkpt lat="45.66549" lon="4.62049">
        <ele>589</ele>
        <time>2018-10-14T08:06:24Z</time>
      </trkpt>
      <trkpt lat="45.66547" lon="4.62044">
        <ele>589</ele>
        <time>2018-10-14T08:06:25Z</time>
      </trkpt>
      <trkpt lat="45.66545" lon="4.62038">
        <ele>590</ele>
        <time>2018-10-14T08:06:26Z</time>
      </trkpt>
      <trkpt lat="45.6654" lon="4.62024">
        <ele>591</ele>
        <time>2018-10-14T08:06:27Z</time>
      </trkpt>
      <trkpt lat="45.66539" lon="4.62019">
        <ele>590</ele>
        <time>2018-10-14T08:06:28Z</time>
      </trkpt>
      <trkpt lat="45.66538" lon="4.62014">
        <ele>583</ele>
        <time>2018-10-14T08:06:29Z</time>
      </trkpt>
      <trkpt lat="45.66537" lon="4.62009">
        <ele>586</ele>
        <time>2018-10-14T08:06:30Z</time>
      </trkpt>
      <trkpt lat="45.66535" lon="4.62005">
        <ele>588</ele>
        <time>2018-10-14T08:06:31Z</time>
      </trkpt>
      <trkpt lat="45.66534" lon="4.61999">
        <ele>589</ele>
        <time>2018-10-14T08:06:32Z</time>
      </trkpt>
      <trkpt lat="45.66534" lon="4.61994">
        <ele>590</ele>
        <time>2018-10-14T08:06:33Z</time>
      </trkpt>
      <trkpt lat="45.66532" lon="4.61989">
        <ele>591</ele>
        <time>2018-10-14T08:06:34Z</time>
      </trkpt>
      <trkpt lat="45.66531" lon="4.61986">
        <ele>592</ele>
        <time>2018-10-14T08:06:35Z</time>
      </trkpt>
      <trkpt lat="45.6653" lon="4.61984">
        <ele>592</ele>
        <time>2018-10-14T08:06:36Z</time>
      </trkpt>
      <trkpt lat="45.6653" lon="4.61982">
        <ele>592</ele>
        <time>2018-10-14T08:06:37Z</time>
      </trkpt>
      <trkpt lat="45.66529" lon="4.61979">
        <ele>592</ele>
        <time>2018-10-14T08:06:38Z</time>
      </trkpt>
      <trkpt lat="45.66528" lon="4.61977">
        <ele>593</ele>
        <time>2018-10-14T08:06:39Z</time>
      </trkpt>
      <trkpt lat="45.66526" lon="4.61973">
        <ele>593</ele>
        <time>2018-10-14T08:06:41Z</time>
      </trkpt>
      <trkpt lat="45.66525" lon="4.61969">
        <ele>593</ele>
        <time>2018-10-14T08:06:42Z</time>
      </trkpt>
      <trkpt lat="45.66522" lon="4.61963">
        <ele>589</ele>
        <time>2018-10-14T08:06:44Z</time>
      </trkpt>
      <trkpt lat="45.6652" lon="4.61958">
        <ele>591</ele>
        <time>2018-10-14T08:06:45Z</time>
      </trkpt>
      <trkpt lat="45.66517" lon="4.61949">
        <ele>592</ele>
        <time>2018-10-14T08:06:46Z</time>
      </trkpt>
      <trkpt lat="45.66515" lon="4.61943">
        <ele>595</ele>
        <time>2018-10-14T08:06:47Z</time>
      </trkpt>
      <trkpt lat="45.66514" lon="4.6194">
        <ele>595</ele>
        <time>2018-10-14T08:06:48Z</time>
      </trkpt>
      <trkpt lat="45.66513" lon="4.61937">
        <ele>596</ele>
        <time>2018-10-14T08:06:49Z</time>
      </trkpt>
      <trkpt lat="45.66512" lon="4.61934">
        <ele>596</ele>
        <time>2018-10-14T08:06:50Z</time>
      </trkpt>
      <trkpt lat="45.6651" lon="4.61931">
        <ele>597</ele>
        <time>2018-10-14T08:06:51Z</time>
      </trkpt>
      <trkpt lat="45.66509" lon="4.61928">
        <ele>597</ele>
        <time>2018-10-14T08:06:52Z</time>
      </trkpt>
      <trkpt lat="45.66509" lon="4.61925">
        <ele>597</ele>
        <time>2018-10-14T08:06:53Z</time>
      </trkpt>
      <trkpt lat="45.66508" lon="4.61923">
        <ele>597</ele>
        <time>2018-10-14T08:06:54Z</time>
      </trkpt>
      <trkpt lat="45.66507" lon="4.6192">
        <ele>597</ele>
        <time>2018-10-14T08:06:55Z</time>
      </trkpt>
      <trkpt lat="45.66507" lon="4.61918">
        <ele>598</ele>
        <time>2018-10-14T08:06:56Z</time>
      </trkpt>
      <trkpt lat="45.66506" lon="4.61916">
        <ele>598</ele>
        <time>2018-10-14T08:06:57Z</time>
      </trkpt>
      <trkpt lat="45.66506" lon="4.61913">
        <ele>599</ele>
        <time>2018-10-14T08:06:59Z</time>
      </trkpt>
      <trkpt lat="45.66505" lon="4.6191">
        <ele>599</ele>
        <time>2018-10-14T08:07:00Z</time>
      </trkpt>
      <trkpt lat="45.66504" lon="4.61906">
        <ele>599</ele>
        <time>2018-10-14T08:07:01Z</time>
      </trkpt>
      <trkpt lat="45.66503" lon="4.61902">
        <ele>599</ele>
        <time>2018-10-14T08:07:02Z</time>
      </trkpt>
      <trkpt lat="45.66502" lon="4.61897">
        <ele>599</ele>
        <time>2018-10-14T08:07:03Z</time>
      </trkpt>
      <trkpt lat="45.66501" lon="4.61893">
        <ele>600</ele>
        <time>2018-10-14T08:07:04Z</time>
      </trkpt>
      <trkpt lat="45.665" lon="4.61889">
        <ele>600</ele>
        <time>2018-10-14T08:07:05Z</time>
      </trkpt>
      <trkpt lat="45.66499" lon="4.61885">
        <ele>600</ele>
        <time>2018-10-14T08:07:06Z</time>
      </trkpt>
      <trkpt lat="45.66499" lon="4.61882">
        <ele>601</ele>
        <time>2018-10-14T08:07:07Z</time>
      </trkpt>
      <trkpt lat="45.66498" lon="4.61878">
        <ele>601</ele>
        <time>2018-10-14T08:07:08Z</time>
      </trkpt>
      <trkpt lat="45.66498" lon="4.61874">
        <ele>601</ele>
        <time>2018-10-14T08:07:09Z</time>
      </trkpt>
      <trkpt lat="45.66497" lon="4.6187">
        <ele>602</ele>
        <time>2018-10-14T08:07:10Z</time>
      </trkpt>
      <trkpt lat="45.66497" lon="4.61866">
        <ele>601</ele>
        <time>2018-10-14T08:07:11Z</time>
      </trkpt>
      <trkpt lat="45.66497" lon="4.61863">
        <ele>602</ele>
        <time>2018-10-14T08:07:12Z</time>
      </trkpt>
      <trkpt lat="45.66497" lon="4.61859">
        <ele>602</ele>
        <time>2018-10-14T08:07:13Z</time>
      </trkpt>
      <trkpt lat="45.66497" lon="4.61856">
        <ele>603</ele>
        <time>2018-10-14T08:07:14Z</time>
      </trkpt>
      <trkpt lat="45.66497" lon="4.61853">
        <ele>603</ele>
        <time>2018-10-14T08:07:15Z</time>
      </trkpt>
      <trkpt lat="45.66498" lon="4.6185">
        <ele>603</ele>
        <time>2018-10-14T08:07:16Z</time>
      </trkpt>
      <trkpt lat="45.66498" lon="4.61847">
        <ele>603</ele>
        <time>2018-10-14T08:07:17Z</time>
      </trkpt>
      <trkpt lat="45.66499" lon="4.61844">
        <ele>603</ele>
        <time>2018-10-14T08:07:18Z</time>
      </trkpt>
      <trkpt lat="45.66499" lon="4.61841">
        <ele>593</ele>
        <time>2018-10-14T08:07:19Z</time>
      </trkpt>
      <trkpt lat="45.66499" lon="4.61839">
        <ele>597</ele>
        <time>2018-10-14T08:07:20Z</time>
      </trkpt>
      <trkpt lat="45.66498" lon="4.61836">
        <ele>600</ele>
        <time>2018-10-14T08:07:21Z</time>
      </trkpt>
      <trkpt lat="45.66497" lon="4.61834">
        <ele>602</ele>
        <time>2018-10-14T08:07:22Z</time>
      </trkpt>
      <trkpt lat="45.66497" lon="4.61832">
        <ele>602</ele>
        <time>2018-10-14T08:07:23Z</time>
      </trkpt>
      <trkpt lat="45.66496" lon="4.6183">
        <ele>603</ele>
        <time>2018-10-14T08:07:24Z</time>
      </trkpt>
      <trkpt lat="45.66494" lon="4.61828">
        <ele>603</ele>
        <time>2018-10-14T08:07:25Z</time>
      </trkpt>
      <trkpt lat="45.66494" lon="4.61826">
        <ele>604</ele>
        <time>2018-10-14T08:07:26Z</time>
      </trkpt>
      <trkpt lat="45.66493" lon="4.61824">
        <ele>604</ele>
        <time>2018-10-14T08:07:27Z</time>
      </trkpt>
      <trkpt lat="45.66493" lon="4.61822">
        <ele>604</ele>
        <time>2018-10-14T08:07:28Z</time>
      </trkpt>
      <trkpt lat="45.66493" lon="4.61819">
        <ele>605</ele>
        <time>2018-10-14T08:07:29Z</time>
      </trkpt>
      <trkpt lat="45.66493" lon="4.61817">
        <ele>604</ele>
        <time>2018-10-14T08:07:30Z</time>
      </trkpt>
      <trkpt lat="45.66493" lon="4.61814">
        <ele>605</ele>
        <time>2018-10-14T08:07:31Z</time>
      </trkpt>
      <trkpt lat="45.66493" lon="4.61812">
        <ele>605</ele>
        <time>2018-10-14T08:07:32Z</time>
      </trkpt>
      <trkpt lat="45.66493" lon="4.61809">
        <ele>594</ele>
        <time>2018-10-14T08:07:33Z</time>
      </trkpt>
      <trkpt lat="45.66493" lon="4.61806">
        <ele>598</ele>
        <time>2018-10-14T08:07:34Z</time>
      </trkpt>
      <trkpt lat="45.66493" lon="4.61804">
        <ele>601</ele>
        <time>2018-10-14T08:07:35Z</time>
      </trkpt>
      <trkpt lat="45.66493" lon="4.61801">
        <ele>602</ele>
        <time>2018-10-14T08:07:36Z</time>
      </trkpt>
      <trkpt lat="45.66493" lon="4.61797">
        <ele>603</ele>
        <time>2018-10-14T08:07:37Z</time>
      </trkpt>
      <trkpt lat="45.66493" lon="4.61794">
        <ele>604</ele>
        <time>2018-10-14T08:07:38Z</time>
      </trkpt>
      <trkpt lat="45.66493" lon="4.61791">
        <ele>604</ele>
        <time>2018-10-14T08:07:39Z</time>
      </trkpt>
      <trkpt lat="45.66493" lon="4.61787">
        <ele>604</ele>
        <time>2018-10-14T08:07:40Z</time>
      </trkpt>
      <trkpt lat="45.66493" lon="4.61784">
        <ele>605</ele>
        <time>2018-10-14T08:07:41Z</time>
      </trkpt>
      <trkpt lat="45.66493" lon="4.61781">
        <ele>605</ele>
        <time>2018-10-14T08:07:42Z</time>
      </trkpt>
      <trkpt lat="45.66493" lon="4.61777">
        <ele>605</ele>
        <time>2018-10-14T08:07:43Z</time>
      </trkpt>
      <trkpt lat="45.66493" lon="4.61773">
        <ele>605</ele>
        <time>2018-10-14T08:07:44Z</time>
      </trkpt>
      <trkpt lat="45.66494" lon="4.6177">
        <ele>605</ele>
        <time>2018-10-14T08:07:45Z</time>
      </trkpt>
      <trkpt lat="45.66494" lon="4.61766">
        <ele>605</ele>
        <time>2018-10-14T08:07:46Z</time>
      </trkpt>
      <trkpt lat="45.66494" lon="4.61762">
        <ele>605</ele>
        <time>2018-10-14T08:07:47Z</time>
      </trkpt>
      <trkpt lat="45.66494" lon="4.61759">
        <ele>605</ele>
        <time>2018-10-14T08:07:48Z</time>
      </trkpt>
      <trkpt lat="45.66495" lon="4.61756">
        <ele>605</ele>
        <time>2018-10-14T08:07:49Z</time>
      </trkpt>
      <trkpt lat="45.66495" lon="4.61752">
        <ele>606</ele>
        <time>2018-10-14T08:07:50Z</time>
      </trkpt>
      <trkpt lat="45.66496" lon="4.61749">
        <ele>606</ele>
        <time>2018-10-14T08:07:51Z</time>
      </trkpt>
      <trkpt lat="45.66497" lon="4.61745">
        <ele>606</ele>
        <time>2018-10-14T08:07:52Z</time>
      </trkpt>
      <trkpt lat="45.66497" lon="4.61742">
        <ele>606</ele>
        <time>2018-10-14T08:07:53Z</time>
      </trkpt>
      <trkpt lat="45.66498" lon="4.61739">
        <ele>606</ele>
        <time>2018-10-14T08:07:54Z</time>
      </trkpt>
      <trkpt lat="45.66499" lon="4.61736">
        <ele>606</ele>
        <time>2018-10-14T08:07:55Z</time>
      </trkpt>
      <trkpt lat="45.66501" lon="4.61733">
        <ele>607</ele>
        <time>2018-10-14T08:07:56Z</time>
      </trkpt>
      <trkpt lat="45.66502" lon="4.6173">
        <ele>607</ele>
        <time>2018-10-14T08:07:57Z</time>
      </trkpt>
      <trkpt lat="45.66503" lon="4.61727">
        <ele>607</ele>
        <time>2018-10-14T08:07:58Z</time>
      </trkpt>
      <trkpt lat="45.66504" lon="4.61725">
        <ele>607</ele>
        <time>2018-10-14T08:07:59Z</time>
      </trkpt>
      <trkpt lat="45.66505" lon="4.61722">
        <ele>607</ele>
        <time>2018-10-14T08:08:00Z</time>
      </trkpt>
      <trkpt lat="45.66506" lon="4.61719">
        <ele>608</ele>
        <time>2018-10-14T08:08:01Z</time>
      </trkpt>
      <trkpt lat="45.66506" lon="4.61716">
        <ele>608</ele>
        <time>2018-10-14T08:08:02Z</time>
      </trkpt>
      <trkpt lat="45.66506" lon="4.61713">
        <ele>596</ele>
        <time>2018-10-14T08:08:03Z</time>
      </trkpt>
      <trkpt lat="45.66505" lon="4.6171">
        <ele>601</ele>
        <time>2018-10-14T08:08:04Z</time>
      </trkpt>
      <trkpt lat="45.66505" lon="4.61706">
        <ele>604</ele>
        <time>2018-10-14T08:08:05Z</time>
      </trkpt>
      <trkpt lat="45.66504" lon="4.61703">
        <ele>605</ele>
        <time>2018-10-14T08:08:06Z</time>
      </trkpt>
      <trkpt lat="45.66504" lon="4.617">
        <ele>606</ele>
        <time>2018-10-14T08:08:07Z</time>
      </trkpt>
      <trkpt lat="45.66502" lon="4.61697">
        <ele>607</ele>
        <time>2018-10-14T08:08:08Z</time>
      </trkpt>
      <trkpt lat="45.66501" lon="4.61694">
        <ele>608</ele>
        <time>2018-10-14T08:08:09Z</time>
      </trkpt>
      <trkpt lat="45.66501" lon="4.61691">
        <ele>608</ele>
        <time>2018-10-14T08:08:10Z</time>
      </trkpt>
      <trkpt lat="45.66501" lon="4.61688">
        <ele>608</ele>
        <time>2018-10-14T08:08:11Z</time>
      </trkpt>
      <trkpt lat="45.665" lon="4.61685">
        <ele>602</ele>
        <time>2018-10-14T08:08:12Z</time>
      </trkpt>
      <trkpt lat="45.665" lon="4.61682">
        <ele>606</ele>
        <time>2018-10-14T08:08:13Z</time>
      </trkpt>
      <trkpt lat="45.66499" lon="4.61679">
        <ele>608</ele>
        <time>2018-10-14T08:08:14Z</time>
      </trkpt>
      <trkpt lat="45.66499" lon="4.61675">
        <ele>608</ele>
        <time>2018-10-14T08:08:15Z</time>
      </trkpt>
      <trkpt lat="45.66499" lon="4.61673">
        <ele>609</ele>
        <time>2018-10-14T08:08:16Z</time>
      </trkpt>
      <trkpt lat="45.66499" lon="4.6167">
        <ele>609</ele>
        <time>2018-10-14T08:08:17Z</time>
      </trkpt>
      <trkpt lat="45.66499" lon="4.61667">
        <ele>609</ele>
        <time>2018-10-14T08:08:18Z</time>
      </trkpt>
      <trkpt lat="45.66499" lon="4.61665">
        <ele>610</ele>
        <time>2018-10-14T08:08:19Z</time>
      </trkpt>
      <trkpt lat="45.66499" lon="4.61663">
        <ele>610</ele>
        <time>2018-10-14T08:08:20Z</time>
      </trkpt>
      <trkpt lat="45.66498" lon="4.61661">
        <ele>611</ele>
        <time>2018-10-14T08:08:21Z</time>
      </trkpt>
      <trkpt lat="45.66496" lon="4.61659">
        <ele>611</ele>
        <time>2018-10-14T08:08:22Z</time>
      </trkpt>
      <trkpt lat="45.66495" lon="4.61658">
        <ele>611</ele>
        <time>2018-10-14T08:08:23Z</time>
      </trkpt>
      <trkpt lat="45.66494" lon="4.61657">
        <ele>612</ele>
        <time>2018-10-14T08:08:24Z</time>
      </trkpt>
      <trkpt lat="45.66493" lon="4.61657">
        <ele>613</ele>
        <time>2018-10-14T08:08:25Z</time>
      </trkpt>
      <trkpt lat="45.66492" lon="4.61656">
        <ele>612</ele>
        <time>2018-10-14T08:08:26Z</time>
      </trkpt>
      <trkpt lat="45.66491" lon="4.61655">
        <ele>612</ele>
        <time>2018-10-14T08:08:27Z</time>
      </trkpt>
      <trkpt lat="45.66489" lon="4.61654">
        <ele>612</ele>
        <time>2018-10-14T08:08:28Z</time>
      </trkpt>
      <trkpt lat="45.66487" lon="4.61653">
        <ele>612</ele>
        <time>2018-10-14T08:08:29Z</time>
      </trkpt>
      <trkpt lat="45.66486" lon="4.61652">
        <ele>612</ele>
        <time>2018-10-14T08:08:31Z</time>
      </trkpt>
      <trkpt lat="45.66486" lon="4.61651">
        <ele>613</ele>
        <time>2018-10-14T08:08:32Z</time>
      </trkpt>
      <trkpt lat="45.66487" lon="4.61649">
        <ele>613</ele>
        <time>2018-10-14T08:08:33Z</time>
      </trkpt>
      <trkpt lat="45.66486" lon="4.61648">
        <ele>613</ele>
        <time>2018-10-14T08:08:34Z</time>
      </trkpt>
      <trkpt lat="45.66486" lon="4.61647">
        <ele>614</ele>
        <time>2018-10-14T08:08:35Z</time>
      </trkpt>
      <trkpt lat="45.66486" lon="4.61646">
        <ele>613</ele>
        <time>2018-10-14T08:08:36Z</time>
      </trkpt>
      <trkpt lat="45.66485" lon="4.61645">
        <ele>614</ele>
        <time>2018-10-14T08:08:37Z</time>
      </trkpt>
      <trkpt lat="45.66484" lon="4.61644">
        <ele>614</ele>
        <time>2018-10-14T08:08:38Z</time>
      </trkpt>
      <trkpt lat="45.66482" lon="4.61643">
        <ele>614</ele>
        <time>2018-10-14T08:08:39Z</time>
      </trkpt>
      <trkpt lat="45.66481" lon="4.61642">
        <ele>614</ele>
        <time>2018-10-14T08:08:40Z</time>
      </trkpt>
      <trkpt lat="45.6648" lon="4.61641">
        <ele>615</ele>
        <time>2018-10-14T08:08:41Z</time>
      </trkpt>
      <trkpt lat="45.6648" lon="4.6164">
        <ele>615</ele>
        <time>2018-10-14T08:08:42Z</time>
      </trkpt>
      <trkpt lat="45.66479" lon="4.61639">
        <ele>615</ele>
        <time>2018-10-14T08:08:43Z</time>
      </trkpt>
      <trkpt lat="45.66478" lon="4.61638">
        <ele>615</ele>
        <time>2018-10-14T08:08:44Z</time>
      </trkpt>
      <trkpt lat="45.66478" lon="4.61636">
        <ele>615</ele>
        <time>2018-10-14T08:08:45Z</time>
      </trkpt>
      <trkpt lat="45.66477" lon="4.61634">
        <ele>616</ele>
        <time>2018-10-14T08:08:46Z</time>
      </trkpt>
      <trkpt lat="45.66476" lon="4.61631">
        <ele>616</ele>
        <time>2018-10-14T08:08:47Z</time>
      </trkpt>
      <trkpt lat="45.66476" lon="4.61629">
        <ele>616</ele>
        <time>2018-10-14T08:08:48Z</time>
      </trkpt>
      <trkpt lat="45.66475" lon="4.61628">
        <ele>616</ele>
        <time>2018-10-14T08:08:49Z</time>
      </trkpt>
      <trkpt lat="45.66475" lon="4.61627">
        <ele>617</ele>
        <time>2018-10-14T08:08:50Z</time>
      </trkpt>
      <trkpt lat="45.66474" lon="4.61625">
        <ele>618</ele>
        <time>2018-10-14T08:08:51Z</time>
      </trkpt>
      <trkpt lat="45.66474" lon="4.61624">
        <ele>618</ele>
        <time>2018-10-14T08:08:52Z</time>
      </trkpt>
      <trkpt lat="45.66473" lon="4.61622">
        <ele>618</ele>
        <time>2018-10-14T08:08:53Z</time>
      </trkpt>
      <trkpt lat="45.66473" lon="4.61621">
        <ele>618</ele>
        <time>2018-10-14T08:08:54Z</time>
      </trkpt>
      <trkpt lat="45.66472" lon="4.61619">
        <ele>619</ele>
        <time>2018-10-14T08:08:55Z</time>
      </trkpt>
      <trkpt lat="45.66472" lon="4.61618">
        <ele>619</ele>
        <time>2018-10-14T08:08:56Z</time>
      </trkpt>
      <trkpt lat="45.66471" lon="4.61616">
        <ele>619</ele>
        <time>2018-10-14T08:08:57Z</time>
      </trkpt>
      <trkpt lat="45.66471" lon="4.61614">
        <ele>619</ele>
        <time>2018-10-14T08:08:58Z</time>
      </trkpt>
      <trkpt lat="45.66471" lon="4.61612">
        <ele>619</ele>
        <time>2018-10-14T08:08:59Z</time>
      </trkpt>
      <trkpt lat="45.66471" lon="4.6161">
        <ele>619</ele>
        <time>2018-10-14T08:09:00Z</time>
      </trkpt>
      <trkpt lat="45.66471" lon="4.61608">
        <ele>620</ele>
        <time>2018-10-14T08:09:01Z</time>
      </trkpt>
      <trkpt lat="45.66472" lon="4.61606">
        <ele>620</ele>
        <time>2018-10-14T08:09:02Z</time>
      </trkpt>
      <trkpt lat="45.66472" lon="4.61604">
        <ele>621</ele>
        <time>2018-10-14T08:09:03Z</time>
      </trkpt>
      <trkpt lat="45.66471" lon="4.61602">
        <ele>621</ele>
        <time>2018-10-14T08:09:04Z</time>
      </trkpt>
      <trkpt lat="45.66471" lon="4.61601">
        <ele>621</ele>
        <time>2018-10-14T08:09:05Z</time>
      </trkpt>
      <trkpt lat="45.6647" lon="4.61599">
        <ele>622</ele>
        <time>2018-10-14T08:09:06Z</time>
      </trkpt>
      <trkpt lat="45.6647" lon="4.61597">
        <ele>622</ele>
        <time>2018-10-14T08:09:07Z</time>
      </trkpt>
      <trkpt lat="45.66469" lon="4.61595">
        <ele>623</ele>
        <time>2018-10-14T08:09:08Z</time>
      </trkpt>
      <trkpt lat="45.66469" lon="4.61594">
        <ele>623</ele>
        <time>2018-10-14T08:09:09Z</time>
      </trkpt>
      <trkpt lat="45.66468" lon="4.61593">
        <ele>623</ele>
        <time>2018-10-14T08:09:10Z</time>
      </trkpt>
      <trkpt lat="45.66468" lon="4.61591">
        <ele>624</ele>
        <time>2018-10-14T08:09:11Z</time>
      </trkpt>
      <trkpt lat="45.66468" lon="4.61589">
        <ele>623</ele>
        <time>2018-10-14T08:09:12Z</time>
      </trkpt>
      <trkpt lat="45.66467" lon="4.61588">
        <ele>623</ele>
        <time>2018-10-14T08:09:13Z</time>
      </trkpt>
      <trkpt lat="45.66467" lon="4.61586">
        <ele>623</ele>
        <time>2018-10-14T08:09:14Z</time>
      </trkpt>
      <trkpt lat="45.66467" lon="4.61584">
        <ele>623</ele>
        <time>2018-10-14T08:09:15Z</time>
      </trkpt>
      <trkpt lat="45.66466" lon="4.61582">
        <ele>624</ele>
        <time>2018-10-14T08:09:16Z</time>
      </trkpt>
      <trkpt lat="45.66465" lon="4.6158">
        <ele>624</ele>
        <time>2018-10-14T08:09:17Z</time>
      </trkpt>
      <trkpt lat="45.66465" lon="4.61578">
        <ele>624</ele>
        <time>2018-10-14T08:09:18Z</time>
      </trkpt>
      <trkpt lat="45.66464" lon="4.61576">
        <ele>624</ele>
        <time>2018-10-14T08:09:19Z</time>
      </trkpt>
      <trkpt lat="45.66464" lon="4.61574">
        <ele>624</ele>
        <time>2018-10-14T08:09:20Z</time>
      </trkpt>
      <trkpt lat="45.66464" lon="4.61572">
        <ele>624</ele>
        <time>2018-10-14T08:09:21Z</time>
      </trkpt>
      <trkpt lat="45.66464" lon="4.6157">
        <ele>625</ele>
        <time>2018-10-14T08:09:22Z</time>
      </trkpt>
      <trkpt lat="45.66464" lon="4.61568">
        <ele>625</ele>
        <time>2018-10-14T08:09:23Z</time>
      </trkpt>
      <trkpt lat="45.66464" lon="4.61565">
        <ele>625</ele>
        <time>2018-10-14T08:09:24Z</time>
      </trkpt>
      <trkpt lat="45.66464" lon="4.61563">
        <ele>626</ele>
        <time>2018-10-14T08:09:25Z</time>
      </trkpt>
      <trkpt lat="45.66464" lon="4.61561">
        <ele>627</ele>
        <time>2018-10-14T08:09:27Z</time>
      </trkpt>
      <trkpt lat="45.66463" lon="4.61559">
        <ele>628</ele>
        <time>2018-10-14T08:09:28Z</time>
      </trkpt>
      <trkpt lat="45.66463" lon="4.61557">
        <ele>628</ele>
        <time>2018-10-14T08:09:29Z</time>
      </trkpt>
      <trkpt lat="45.66462" lon="4.61555">
        <ele>628</ele>
        <time>2018-10-14T08:09:30Z</time>
      </trkpt>
      <trkpt lat="45.66461" lon="4.61553">
        <ele>628</ele>
        <time>2018-10-14T08:09:31Z</time>
      </trkpt>
      <trkpt lat="45.6646" lon="4.61551">
        <ele>628</ele>
        <time>2018-10-14T08:09:32Z</time>
      </trkpt>
      <trkpt lat="45.66459" lon="4.61549">
        <ele>628</ele>
        <time>2018-10-14T08:09:33Z</time>
      </trkpt>
      <trkpt lat="45.66457" lon="4.61547">
        <ele>628</ele>
        <time>2018-10-14T08:09:34Z</time>
      </trkpt>
      <trkpt lat="45.66457" lon="4.61545">
        <ele>628</ele>
        <time>2018-10-14T08:09:35Z</time>
      </trkpt>
      <trkpt lat="45.66456" lon="4.61543">
        <ele>628</ele>
        <time>2018-10-14T08:09:36Z</time>
      </trkpt>
      <trkpt lat="45.66456" lon="4.61541">
        <ele>629</ele>
        <time>2018-10-14T08:09:37Z</time>
      </trkpt>
      <trkpt lat="45.66455" lon="4.6154">
        <ele>629</ele>
        <time>2018-10-14T08:09:38Z</time>
      </trkpt>
      <trkpt lat="45.66454" lon="4.61538">
        <ele>630</ele>
        <time>2018-10-14T08:09:39Z</time>
      </trkpt>
      <trkpt lat="45.66454" lon="4.61536">
        <ele>629</ele>
        <time>2018-10-14T08:09:40Z</time>
      </trkpt>
      <trkpt lat="45.66453" lon="4.61535">
        <ele>629</ele>
        <time>2018-10-14T08:09:41Z</time>
      </trkpt>
      <trkpt lat="45.66452" lon="4.61534">
        <ele>629</ele>
        <time>2018-10-14T08:09:42Z</time>
      </trkpt>
      <trkpt lat="45.66451" lon="4.61533">
        <ele>630</ele>
        <time>2018-10-14T08:09:43Z</time>
      </trkpt>
      <trkpt lat="45.6645" lon="4.61532">
        <ele>630</ele>
        <time>2018-10-14T08:09:44Z</time>
      </trkpt>
      <trkpt lat="45.66449" lon="4.61531">
        <ele>630</ele>
        <time>2018-10-14T08:09:45Z</time>
      </trkpt>
      <trkpt lat="45.66447" lon="4.61529">
        <ele>631</ele>
        <time>2018-10-14T08:09:46Z</time>
      </trkpt>
      <trkpt lat="45.66447" lon="4.61529">
        <ele>631</ele>
        <time>2018-10-14T08:09:47Z</time>
      </trkpt>
      <trkpt lat="45.66447" lon="4.61528">
        <ele>632</ele>
        <time>2018-10-14T08:09:48Z</time>
      </trkpt>
      <trkpt lat="45.66446" lon="4.61526">
        <ele>632</ele>
        <time>2018-10-14T08:09:49Z</time>
      </trkpt>
      <trkpt lat="45.66445" lon="4.61525">
        <ele>632</ele>
        <time>2018-10-14T08:09:50Z</time>
      </trkpt>
      <trkpt lat="45.66444" lon="4.61523">
        <ele>632</ele>
        <time>2018-10-14T08:09:51Z</time>
      </trkpt>
      <trkpt lat="45.66443" lon="4.61522">
        <ele>632</ele>
        <time>2018-10-14T08:09:52Z</time>
      </trkpt>
      <trkpt lat="45.66443" lon="4.6152">
        <ele>632</ele>
        <time>2018-10-14T08:09:53Z</time>
      </trkpt>
      <trkpt lat="45.66442" lon="4.61517">
        <ele>632</ele>
        <time>2018-10-14T08:09:54Z</time>
      </trkpt>
      <trkpt lat="45.66441" lon="4.61515">
        <ele>632</ele>
        <time>2018-10-14T08:09:55Z</time>
      </trkpt>
      <trkpt lat="45.66441" lon="4.61513">
        <ele>632</ele>
        <time>2018-10-14T08:09:56Z</time>
      </trkpt>
      <trkpt lat="45.6644" lon="4.61511">
        <ele>633</ele>
        <time>2018-10-14T08:09:57Z</time>
      </trkpt>
      <trkpt lat="45.66439" lon="4.61509">
        <ele>633</ele>
        <time>2018-10-14T08:09:58Z</time>
      </trkpt>
      <trkpt lat="45.66439" lon="4.61507">
        <ele>634</ele>
        <time>2018-10-14T08:09:59Z</time>
      </trkpt>
      <trkpt lat="45.66439" lon="4.61504">
        <ele>634</ele>
        <time>2018-10-14T08:10:00Z</time>
      </trkpt>
      <trkpt lat="45.66439" lon="4.61502">
        <ele>634</ele>
        <time>2018-10-14T08:10:01Z</time>
      </trkpt>
      <trkpt lat="45.66439" lon="4.615">
        <ele>635</ele>
        <time>2018-10-14T08:10:02Z</time>
      </trkpt>
      <trkpt lat="45.6644" lon="4.61497">
        <ele>635</ele>
        <time>2018-10-14T08:10:03Z</time>
      </trkpt>
      <trkpt lat="45.6644" lon="4.61495">
        <ele>635</ele>
        <time>2018-10-14T08:10:04Z</time>
      </trkpt>
      <trkpt lat="45.6644" lon="4.61493">
        <ele>636</ele>
        <time>2018-10-14T08:10:05Z</time>
      </trkpt>
      <trkpt lat="45.6644" lon="4.61491">
        <ele>636</ele>
        <time>2018-10-14T08:10:06Z</time>
      </trkpt>
      <trkpt lat="45.66441" lon="4.61489">
        <ele>636</ele>
        <time>2018-10-14T08:10:07Z</time>
      </trkpt>
      <trkpt lat="45.66441" lon="4.61488">
        <ele>637</ele>
        <time>2018-10-14T08:10:08Z</time>
      </trkpt>
      <trkpt lat="45.66441" lon="4.61487">
        <ele>637</ele>
        <time>2018-10-14T08:10:09Z</time>
      </trkpt>
      <trkpt lat="45.6644" lon="4.61486">
        <ele>638</ele>
        <time>2018-10-14T08:10:10Z</time>
      </trkpt>
      <trkpt lat="45.66439" lon="4.61485">
        <ele>638</ele>
        <time>2018-10-14T08:10:11Z</time>
      </trkpt>
      <trkpt lat="45.66439" lon="4.61484">
        <ele>638</ele>
        <time>2018-10-14T08:10:12Z</time>
      </trkpt>
      <trkpt lat="45.66438" lon="4.61483">
        <ele>638</ele>
        <time>2018-10-14T08:10:13Z</time>
      </trkpt>
      <trkpt lat="45.66436" lon="4.61481">
        <ele>638</ele>
        <time>2018-10-14T08:10:14Z</time>
      </trkpt>
      <trkpt lat="45.66435" lon="4.6148">
        <ele>638</ele>
        <time>2018-10-14T08:10:15Z</time>
      </trkpt>
      <trkpt lat="45.66434" lon="4.61479">
        <ele>637</ele>
        <time>2018-10-14T08:10:17Z</time>
      </trkpt>
      <trkpt lat="45.66433" lon="4.61477">
        <ele>637</ele>
        <time>2018-10-14T08:10:18Z</time>
      </trkpt>
      <trkpt lat="45.66431" lon="4.61476">
        <ele>638</ele>
        <time>2018-10-14T08:10:19Z</time>
      </trkpt>
      <trkpt lat="45.66431" lon="4.61474">
        <ele>638</ele>
        <time>2018-10-14T08:10:20Z</time>
      </trkpt>
      <trkpt lat="45.6643" lon="4.61472">
        <ele>638</ele>
        <time>2018-10-14T08:10:21Z</time>
      </trkpt>
      <trkpt lat="45.6643" lon="4.6147">
        <ele>639</ele>
        <time>2018-10-14T08:10:22Z</time>
      </trkpt>
      <trkpt lat="45.66429" lon="4.61468">
        <ele>639</ele>
        <time>2018-10-14T08:10:23Z</time>
      </trkpt>
      <trkpt lat="45.66428" lon="4.61465">
        <ele>639</ele>
        <time>2018-10-14T08:10:24Z</time>
      </trkpt>
      <trkpt lat="45.66427" lon="4.61463">
        <ele>639</ele>
        <time>2018-10-14T08:10:25Z</time>
      </trkpt>
      <trkpt lat="45.66427" lon="4.61461">
        <ele>639</ele>
        <time>2018-10-14T08:10:26Z</time>
      </trkpt>
      <trkpt lat="45.66426" lon="4.6146">
        <ele>638</ele>
        <time>2018-10-14T08:10:27Z</time>
      </trkpt>
      <trkpt lat="45.66425" lon="4.61458">
        <ele>638</ele>
        <time>2018-10-14T08:10:28Z</time>
      </trkpt>
      <trkpt lat="45.66425" lon="4.61456">
        <ele>639</ele>
        <time>2018-10-14T08:10:29Z</time>
      </trkpt>
      <trkpt lat="45.66424" lon="4.61454">
        <ele>639</ele>
        <time>2018-10-14T08:10:30Z</time>
      </trkpt>
      <trkpt lat="45.66423" lon="4.61452">
        <ele>639</ele>
        <time>2018-10-14T08:10:31Z</time>
      </trkpt>
      <trkpt lat="45.66423" lon="4.6145">
        <ele>640</ele>
        <time>2018-10-14T08:10:32Z</time>
      </trkpt>
      <trkpt lat="45.66422" lon="4.61448">
        <ele>640</ele>
        <time>2018-10-14T08:10:33Z</time>
      </trkpt>
      <trkpt lat="45.66422" lon="4.61446">
        <ele>640</ele>
        <time>2018-10-14T08:10:34Z</time>
      </trkpt>
      <trkpt lat="45.66421" lon="4.61444">
        <ele>640</ele>
        <time>2018-10-14T08:10:36Z</time>
      </trkpt>
      <trkpt lat="45.6642" lon="4.61442">
        <ele>641</ele>
        <time>2018-10-14T08:10:37Z</time>
      </trkpt>
      <trkpt lat="45.66419" lon="4.6144">
        <ele>641</ele>
        <time>2018-10-14T08:10:38Z</time>
      </trkpt>
      <trkpt lat="45.66418" lon="4.61438">
        <ele>642</ele>
        <time>2018-10-14T08:10:39Z</time>
      </trkpt>
      <trkpt lat="45.66417" lon="4.61436">
        <ele>642</ele>
        <time>2018-10-14T08:10:40Z</time>
      </trkpt>
      <trkpt lat="45.66416" lon="4.61434">
        <ele>642</ele>
        <time>2018-10-14T08:10:41Z</time>
      </trkpt>
      <trkpt lat="45.66415" lon="4.61433">
        <ele>642</ele>
        <time>2018-10-14T08:10:42Z</time>
      </trkpt>
      <trkpt lat="45.66414" lon="4.61431">
        <ele>642</ele>
        <time>2018-10-14T08:10:43Z</time>
      </trkpt>
      <trkpt lat="45.66413" lon="4.61429">
        <ele>642</ele>
        <time>2018-10-14T08:10:44Z</time>
      </trkpt>
      <trkpt lat="45.66412" lon="4.61427">
        <ele>642</ele>
        <time>2018-10-14T08:10:45Z</time>
      </trkpt>
      <trkpt lat="45.66411" lon="4.61425">
        <ele>642</ele>
        <time>2018-10-14T08:10:46Z</time>
      </trkpt>
      <trkpt lat="45.6641" lon="4.61424">
        <ele>642</ele>
        <time>2018-10-14T08:10:47Z</time>
      </trkpt>
      <trkpt lat="45.66409" lon="4.61422">
        <ele>642</ele>
        <time>2018-10-14T08:10:48Z</time>
      </trkpt>
      <trkpt lat="45.66409" lon="4.6142">
        <ele>641</ele>
        <time>2018-10-14T08:10:49Z</time>
      </trkpt>
      <trkpt lat="45.66408" lon="4.61418">
        <ele>642</ele>
        <time>2018-10-14T08:10:50Z</time>
      </trkpt>
      <trkpt lat="45.66407" lon="4.61416">
        <ele>642</ele>
        <time>2018-10-14T08:10:51Z</time>
      </trkpt>
      <trkpt lat="45.66407" lon="4.61415">
        <ele>642</ele>
        <time>2018-10-14T08:10:52Z</time>
      </trkpt>
      <trkpt lat="45.66407" lon="4.61413">
        <ele>642</ele>
        <time>2018-10-14T08:10:53Z</time>
      </trkpt>
      <trkpt lat="45.66406" lon="4.61411">
        <ele>643</ele>
        <time>2018-10-14T08:10:54Z</time>
      </trkpt>
      <trkpt lat="45.66406" lon="4.61409">
        <ele>643</ele>
        <time>2018-10-14T08:10:55Z</time>
      </trkpt>
      <trkpt lat="45.66406" lon="4.61407">
        <ele>643</ele>
        <time>2018-10-14T08:10:56Z</time>
      </trkpt>
      <trkpt lat="45.66406" lon="4.61406">
        <ele>644</ele>
        <time>2018-10-14T08:10:58Z</time>
      </trkpt>
      <trkpt lat="45.66406" lon="4.61404">
        <ele>644</ele>
        <time>2018-10-14T08:10:59Z</time>
      </trkpt>
      <trkpt lat="45.66406" lon="4.61403">
        <ele>645</ele>
        <time>2018-10-14T08:11:00Z</time>
      </trkpt>
      <trkpt lat="45.66405" lon="4.61402">
        <ele>646</ele>
        <time>2018-10-14T08:11:01Z</time>
      </trkpt>
      <trkpt lat="45.66404" lon="4.614">
        <ele>646</ele>
        <time>2018-10-14T08:11:02Z</time>
      </trkpt>
      <trkpt lat="45.66403" lon="4.61398">
        <ele>646</ele>
        <time>2018-10-14T08:11:03Z</time>
      </trkpt>
      <trkpt lat="45.66402" lon="4.61396">
        <ele>646</ele>
        <time>2018-10-14T08:11:04Z</time>
      </trkpt>
      <trkpt lat="45.66401" lon="4.61394">
        <ele>645</ele>
        <time>2018-10-14T08:11:05Z</time>
      </trkpt>
      <trkpt lat="45.66401" lon="4.61392">
        <ele>646</ele>
        <time>2018-10-14T08:11:06Z</time>
      </trkpt>
      <trkpt lat="45.664" lon="4.6139">
        <ele>647</ele>
        <time>2018-10-14T08:11:07Z</time>
      </trkpt>
      <trkpt lat="45.66399" lon="4.61388">
        <ele>647</ele>
        <time>2018-10-14T08:11:08Z</time>
      </trkpt>
      <trkpt lat="45.66398" lon="4.61387">
        <ele>647</ele>
        <time>2018-10-14T08:11:09Z</time>
      </trkpt>
      <trkpt lat="45.66396" lon="4.61386">
        <ele>648</ele>
        <time>2018-10-14T08:11:10Z</time>
      </trkpt>
      <trkpt lat="45.66395" lon="4.61384">
        <ele>648</ele>
        <time>2018-10-14T08:11:11Z</time>
      </trkpt>
      <trkpt lat="45.66394" lon="4.61383">
        <ele>648</ele>
        <time>2018-10-14T08:11:12Z</time>
      </trkpt>
      <trkpt lat="45.66393" lon="4.6138">
        <ele>648</ele>
        <time>2018-10-14T08:11:13Z</time>
      </trkpt>
      <trkpt lat="45.66392" lon="4.61378">
        <ele>649</ele>
        <time>2018-10-14T08:11:14Z</time>
      </trkpt>
      <trkpt lat="45.66391" lon="4.61376">
        <ele>649</ele>
        <time>2018-10-14T08:11:15Z</time>
      </trkpt>
      <trkpt lat="45.6639" lon="4.61374">
        <ele>649</ele>
        <time>2018-10-14T08:11:16Z</time>
      </trkpt>
      <trkpt lat="45.66389" lon="4.61372">
        <ele>649</ele>
        <time>2018-10-14T08:11:17Z</time>
      </trkpt>
      <trkpt lat="45.66388" lon="4.6137">
        <ele>649</ele>
        <time>2018-10-14T08:11:18Z</time>
      </trkpt>
      <trkpt lat="45.66386" lon="4.61367">
        <ele>649</ele>
        <time>2018-10-14T08:11:19Z</time>
      </trkpt>
      <trkpt lat="45.66386" lon="4.61365">
        <ele>649</ele>
        <time>2018-10-14T08:11:20Z</time>
      </trkpt>
      <trkpt lat="45.66385" lon="4.61364">
        <ele>650</ele>
        <time>2018-10-14T08:11:21Z</time>
      </trkpt>
      <trkpt lat="45.66384" lon="4.61362">
        <ele>650</ele>
        <time>2018-10-14T08:11:22Z</time>
      </trkpt>
      <trkpt lat="45.66383" lon="4.6136">
        <ele>650</ele>
        <time>2018-10-14T08:11:23Z</time>
      </trkpt>
      <trkpt lat="45.66382" lon="4.61359">
        <ele>650</ele>
        <time>2018-10-14T08:11:24Z</time>
      </trkpt>
      <trkpt lat="45.6638" lon="4.61358">
        <ele>650</ele>
        <time>2018-10-14T08:11:25Z</time>
      </trkpt>
      <trkpt lat="45.66379" lon="4.61356">
        <ele>650</ele>
        <time>2018-10-14T08:11:26Z</time>
      </trkpt>
      <trkpt lat="45.66378" lon="4.61354">
        <ele>651</ele>
        <time>2018-10-14T08:11:27Z</time>
      </trkpt>
      <trkpt lat="45.66377" lon="4.61353">
        <ele>651</ele>
        <time>2018-10-14T08:11:28Z</time>
      </trkpt>
      <trkpt lat="45.66375" lon="4.61352">
        <ele>651</ele>
        <time>2018-10-14T08:11:29Z</time>
      </trkpt>
      <trkpt lat="45.66374" lon="4.61351">
        <ele>651</ele>
        <time>2018-10-14T08:11:30Z</time>
      </trkpt>
      <trkpt lat="45.66373" lon="4.6135">
        <ele>651</ele>
        <time>2018-10-14T08:11:31Z</time>
      </trkpt>
      <trkpt lat="45.66371" lon="4.6135">
        <ele>652</ele>
        <time>2018-10-14T08:11:32Z</time>
      </trkpt>
      <trkpt lat="45.6637" lon="4.6135">
        <ele>652</ele>
        <time>2018-10-14T08:11:33Z</time>
      </trkpt>
      <trkpt lat="45.66369" lon="4.6135">
        <ele>652</ele>
        <time>2018-10-14T08:11:34Z</time>
      </trkpt>
      <trkpt lat="45.66367" lon="4.61349">
        <ele>652</ele>
        <time>2018-10-14T08:11:35Z</time>
      </trkpt>
      <trkpt lat="45.66366" lon="4.61348">
        <ele>653</ele>
        <time>2018-10-14T08:11:36Z</time>
      </trkpt>
      <trkpt lat="45.66365" lon="4.61346">
        <ele>653</ele>
        <time>2018-10-14T08:11:38Z</time>
      </trkpt>
      <trkpt lat="45.66364" lon="4.61345">
        <ele>653</ele>
        <time>2018-10-14T08:11:39Z</time>
      </trkpt>
      <trkpt lat="45.66362" lon="4.61343">
        <ele>653</ele>
        <time>2018-10-14T08:11:40Z</time>
      </trkpt>
      <trkpt lat="45.66361" lon="4.61342">
        <ele>653</ele>
        <time>2018-10-14T08:11:41Z</time>
      </trkpt>
      <trkpt lat="45.6636" lon="4.61341">
        <ele>654</ele>
        <time>2018-10-14T08:11:42Z</time>
      </trkpt>
      <trkpt lat="45.66359" lon="4.6134">
        <ele>654</ele>
        <time>2018-10-14T08:11:43Z</time>
      </trkpt>
      <trkpt lat="45.66357" lon="4.61338">
        <ele>655</ele>
        <time>2018-10-14T08:11:44Z</time>
      </trkpt>
      <trkpt lat="45.66356" lon="4.61337">
        <ele>655</ele>
        <time>2018-10-14T08:11:45Z</time>
      </trkpt>
      <trkpt lat="45.66355" lon="4.61336">
        <ele>655</ele>
        <time>2018-10-14T08:11:46Z</time>
      </trkpt>
      <trkpt lat="45.66353" lon="4.61335">
        <ele>655</ele>
        <time>2018-10-14T08:11:47Z</time>
      </trkpt>
      <trkpt lat="45.66351" lon="4.61334">
        <ele>655</ele>
        <time>2018-10-14T08:11:48Z</time>
      </trkpt>
      <trkpt lat="45.6635" lon="4.61333">
        <ele>655</ele>
        <time>2018-10-14T08:11:49Z</time>
      </trkpt>
      <trkpt lat="45.66348" lon="4.61332">
        <ele>656</ele>
        <time>2018-10-14T08:11:50Z</time>
      </trkpt>
      <trkpt lat="45.66346" lon="4.61332">
        <ele>656</ele>
        <time>2018-10-14T08:11:51Z</time>
      </trkpt>
      <trkpt lat="45.66345" lon="4.61331">
        <ele>656</ele>
        <time>2018-10-14T08:11:52Z</time>
      </trkpt>
      <trkpt lat="45.66343" lon="4.61331">
        <ele>656</ele>
        <time>2018-10-14T08:11:53Z</time>
      </trkpt>
      <trkpt lat="45.66342" lon="4.6133">
        <ele>657</ele>
        <time>2018-10-14T08:11:54Z</time>
      </trkpt>
      <trkpt lat="45.6634" lon="4.6133">
        <ele>657</ele>
        <time>2018-10-14T08:11:55Z</time>
      </trkpt>
      <trkpt lat="45.66338" lon="4.6133">
        <ele>657</ele>
        <time>2018-10-14T08:11:56Z</time>
      </trkpt>
      <trkpt lat="45.66337" lon="4.6133">
        <ele>657</ele>
        <time>2018-10-14T08:11:57Z</time>
      </trkpt>
      <trkpt lat="45.66336" lon="4.6133">
        <ele>657</ele>
        <time>2018-10-14T08:11:58Z</time>
      </trkpt>
      <trkpt lat="45.66335" lon="4.6133">
        <ele>657</ele>
        <time>2018-10-14T08:11:59Z</time>
      </trkpt>
      <trkpt lat="45.66333" lon="4.6133">
        <ele>657</ele>
        <time>2018-10-14T08:12:00Z</time>
      </trkpt>
      <trkpt lat="45.66332" lon="4.6133">
        <ele>657</ele>
        <time>2018-10-14T08:12:01Z</time>
      </trkpt>
      <trkpt lat="45.6633" lon="4.61329">
        <ele>657</ele>
        <time>2018-10-14T08:12:02Z</time>
      </trkpt>
      <trkpt lat="45.66328" lon="4.61329">
        <ele>657</ele>
        <time>2018-10-14T08:12:03Z</time>
      </trkpt>
      <trkpt lat="45.66327" lon="4.61328">
        <ele>657</ele>
        <time>2018-10-14T08:12:04Z</time>
      </trkpt>
      <trkpt lat="45.66325" lon="4.61327">
        <ele>657</ele>
        <time>2018-10-14T08:12:05Z</time>
      </trkpt>
      <trkpt lat="45.66324" lon="4.61326">
        <ele>657</ele>
        <time>2018-10-14T08:12:06Z</time>
      </trkpt>
      <trkpt lat="45.66322" lon="4.61325">
        <ele>657</ele>
        <time>2018-10-14T08:12:07Z</time>
      </trkpt>
      <trkpt lat="45.66321" lon="4.61325">
        <ele>658</ele>
        <time>2018-10-14T08:12:08Z</time>
      </trkpt>
      <trkpt lat="45.66319" lon="4.61324">
        <ele>658</ele>
        <time>2018-10-14T08:12:09Z</time>
      </trkpt>
      <trkpt lat="45.66317" lon="4.61324">
        <ele>658</ele>
        <time>2018-10-14T08:12:10Z</time>
      </trkpt>
      <trkpt lat="45.66316" lon="4.61323">
        <ele>658</ele>
        <time>2018-10-14T08:12:11Z</time>
      </trkpt>
      <trkpt lat="45.66314" lon="4.61323">
        <ele>659</ele>
        <time>2018-10-14T08:12:12Z</time>
      </trkpt>
      <trkpt lat="45.66312" lon="4.61323">
        <ele>659</ele>
        <time>2018-10-14T08:12:13Z</time>
      </trkpt>
      <trkpt lat="45.66311" lon="4.61322">
        <ele>659</ele>
        <time>2018-10-14T08:12:14Z</time>
      </trkpt>
      <trkpt lat="45.66309" lon="4.61322">
        <ele>659</ele>
        <time>2018-10-14T08:12:15Z</time>
      </trkpt>
      <trkpt lat="45.66307" lon="4.61321">
        <ele>659</ele>
        <time>2018-10-14T08:12:16Z</time>
      </trkpt>
      <trkpt lat="45.66305" lon="4.61321">
        <ele>660</ele>
        <time>2018-10-14T08:12:17Z</time>
      </trkpt>
      <trkpt lat="45.66303" lon="4.6132">
        <ele>660</ele>
        <time>2018-10-14T08:12:18Z</time>
      </trkpt>
      <trkpt lat="45.66301" lon="4.61319">
        <ele>661</ele>
        <time>2018-10-14T08:12:19Z</time>
      </trkpt>
      <trkpt lat="45.663" lon="4.61319">
        <ele>661</ele>
        <time>2018-10-14T08:12:20Z</time>
      </trkpt>
      <trkpt lat="45.66298" lon="4.61318">
        <ele>662</ele>
        <time>2018-10-14T08:12:21Z</time>
      </trkpt>
      <trkpt lat="45.66297" lon="4.61317">
        <ele>662</ele>
        <time>2018-10-14T08:12:22Z</time>
      </trkpt>
      <trkpt lat="45.66295" lon="4.61317">
        <ele>662</ele>
        <time>2018-10-14T08:12:23Z</time>
      </trkpt>
      <trkpt lat="45.66294" lon="4.61316">
        <ele>662</ele>
        <time>2018-10-14T08:12:24Z</time>
      </trkpt>
      <trkpt lat="45.66293" lon="4.61315">
        <ele>662</ele>
        <time>2018-10-14T08:12:25Z</time>
      </trkpt>
      <trkpt lat="45.66291" lon="4.61314">
        <ele>662</ele>
        <time>2018-10-14T08:12:26Z</time>
      </trkpt>
      <trkpt lat="45.6629" lon="4.61314">
        <ele>662</ele>
        <time>2018-10-14T08:12:27Z</time>
      </trkpt>
      <trkpt lat="45.66288" lon="4.61314">
        <ele>662</ele>
        <time>2018-10-14T08:12:28Z</time>
      </trkpt>
      <trkpt lat="45.66287" lon="4.61314">
        <ele>662</ele>
        <time>2018-10-14T08:12:29Z</time>
      </trkpt>
      <trkpt lat="45.66285" lon="4.61313">
        <ele>663</ele>
        <time>2018-10-14T08:12:30Z</time>
      </trkpt>
      <trkpt lat="45.66283" lon="4.61312">
        <ele>663</ele>
        <time>2018-10-14T08:12:31Z</time>
      </trkpt>
      <trkpt lat="45.66282" lon="4.61311">
        <ele>663</ele>
        <time>2018-10-14T08:12:32Z</time>
      </trkpt>
      <trkpt lat="45.6628" lon="4.6131">
        <ele>664</ele>
        <time>2018-10-14T08:12:33Z</time>
      </trkpt>
      <trkpt lat="45.66279" lon="4.61309">
        <ele>664</ele>
        <time>2018-10-14T08:12:34Z</time>
      </trkpt>
      <trkpt lat="45.66277" lon="4.61308">
        <ele>664</ele>
        <time>2018-10-14T08:12:35Z</time>
      </trkpt>
      <trkpt lat="45.66275" lon="4.61307">
        <ele>664</ele>
        <time>2018-10-14T08:12:36Z</time>
      </trkpt>
      <trkpt lat="45.66274" lon="4.61307">
        <ele>664</ele>
        <time>2018-10-14T08:12:37Z</time>
      </trkpt>
      <trkpt lat="45.66272" lon="4.61306">
        <ele>665</ele>
        <time>2018-10-14T08:12:38Z</time>
      </trkpt>
      <trkpt lat="45.6627" lon="4.61305">
        <ele>665</ele>
        <time>2018-10-14T08:12:39Z</time>
      </trkpt>
      <trkpt lat="45.66269" lon="4.61303">
        <ele>665</ele>
        <time>2018-10-14T08:12:40Z</time>
      </trkpt>
      <trkpt lat="45.66267" lon="4.61302">
        <ele>665</ele>
        <time>2018-10-14T08:12:41Z</time>
      </trkpt>
      <trkpt lat="45.66265" lon="4.613">
        <ele>665</ele>
        <time>2018-10-14T08:12:42Z</time>
      </trkpt>
      <trkpt lat="45.66264" lon="4.61299">
        <ele>665</ele>
        <time>2018-10-14T08:12:43Z</time>
      </trkpt>
      <trkpt lat="45.66262" lon="4.61298">
        <ele>665</ele>
        <time>2018-10-14T08:12:44Z</time>
      </trkpt>
      <trkpt lat="45.66261" lon="4.61297">
        <ele>666</ele>
        <time>2018-10-14T08:12:45Z</time>
      </trkpt>
      <trkpt lat="45.66259" lon="4.61296">
        <ele>666</ele>
        <time>2018-10-14T08:12:46Z</time>
      </trkpt>
      <trkpt lat="45.66258" lon="4.61295">
        <ele>666</ele>
        <time>2018-10-14T08:12:47Z</time>
      </trkpt>
      <trkpt lat="45.66256" lon="4.61294">
        <ele>667</ele>
        <time>2018-10-14T08:12:48Z</time>
      </trkpt>
      <trkpt lat="45.66255" lon="4.61293">
        <ele>667</ele>
        <time>2018-10-14T08:12:49Z</time>
      </trkpt>
      <trkpt lat="45.66253" lon="4.61292">
        <ele>668</ele>
        <time>2018-10-14T08:12:50Z</time>
      </trkpt>
      <trkpt lat="45.66252" lon="4.6129">
        <ele>669</ele>
        <time>2018-10-14T08:12:51Z</time>
      </trkpt>
      <trkpt lat="45.6625" lon="4.61289">
        <ele>669</ele>
        <time>2018-10-14T08:12:52Z</time>
      </trkpt>
      <trkpt lat="45.66249" lon="4.61287">
        <ele>669</ele>
        <time>2018-10-14T08:12:53Z</time>
      </trkpt>
      <trkpt lat="45.66248" lon="4.61286">
        <ele>670</ele>
        <time>2018-10-14T08:12:54Z</time>
      </trkpt>
      <trkpt lat="45.66247" lon="4.61284">
        <ele>669</ele>
        <time>2018-10-14T08:12:55Z</time>
      </trkpt>
      <trkpt lat="45.66246" lon="4.61282">
        <ele>670</ele>
        <time>2018-10-14T08:12:56Z</time>
      </trkpt>
      <trkpt lat="45.66245" lon="4.61281">
        <ele>669</ele>
        <time>2018-10-14T08:12:57Z</time>
      </trkpt>
      <trkpt lat="45.66244" lon="4.61279">
        <ele>670</ele>
        <time>2018-10-14T08:12:58Z</time>
      </trkpt>
      <trkpt lat="45.66242" lon="4.61277">
        <ele>670</ele>
        <time>2018-10-14T08:12:59Z</time>
      </trkpt>
      <trkpt lat="45.66241" lon="4.61275">
        <ele>671</ele>
        <time>2018-10-14T08:13:00Z</time>
      </trkpt>
      <trkpt lat="45.6624" lon="4.61273">
        <ele>671</ele>
        <time>2018-10-14T08:13:01Z</time>
      </trkpt>
      <trkpt lat="45.66238" lon="4.61271">
        <ele>671</ele>
        <time>2018-10-14T08:13:02Z</time>
      </trkpt>
      <trkpt lat="45.66237" lon="4.61268">
        <ele>671</ele>
        <time>2018-10-14T08:13:03Z</time>
      </trkpt>
      <trkpt lat="45.66236" lon="4.61266">
        <ele>671</ele>
        <time>2018-10-14T08:13:04Z</time>
      </trkpt>
      <trkpt lat="45.66235" lon="4.61264">
        <ele>671</ele>
        <time>2018-10-14T08:13:05Z</time>
      </trkpt>
      <trkpt lat="45.66234" lon="4.61262">
        <ele>671</ele>
        <time>2018-10-14T08:13:06Z</time>
      </trkpt>
      <trkpt lat="45.66232" lon="4.6126">
        <ele>671</ele>
        <time>2018-10-14T08:13:07Z</time>
      </trkpt>
      <trkpt lat="45.66231" lon="4.61258">
        <ele>671</ele>
        <time>2018-10-14T08:13:08Z</time>
      </trkpt>
      <trkpt lat="45.6623" lon="4.61256">
        <ele>671</ele>
        <time>2018-10-14T08:13:09Z</time>
      </trkpt>
      <trkpt lat="45.66229" lon="4.61254">
        <ele>671</ele>
        <time>2018-10-14T08:13:10Z</time>
      </trkpt>
      <trkpt lat="45.66227" lon="4.61253">
        <ele>672</ele>
        <time>2018-10-14T08:13:11Z</time>
      </trkpt>
      <trkpt lat="45.66225" lon="4.61251">
        <ele>672</ele>
        <time>2018-10-14T08:13:12Z</time>
      </trkpt>
      <trkpt lat="45.66225" lon="4.61249">
        <ele>672</ele>
        <time>2018-10-14T08:13:13Z</time>
      </trkpt>
      <trkpt lat="45.66224" lon="4.61248">
        <ele>672</ele>
        <time>2018-10-14T08:13:14Z</time>
      </trkpt>
      <trkpt lat="45.66223" lon="4.61246">
        <ele>671</ele>
        <time>2018-10-14T08:13:15Z</time>
      </trkpt>
      <trkpt lat="45.66222" lon="4.61244">
        <ele>671</ele>
        <time>2018-10-14T08:13:16Z</time>
      </trkpt>
      <trkpt lat="45.66221" lon="4.61242">
        <ele>671</ele>
        <time>2018-10-14T08:13:17Z</time>
      </trkpt>
      <trkpt lat="45.66219" lon="4.61241">
        <ele>671</ele>
        <time>2018-10-14T08:13:18Z</time>
      </trkpt>
      <trkpt lat="45.66218" lon="4.61239">
        <ele>672</ele>
        <time>2018-10-14T08:13:19Z</time>
      </trkpt>
      <trkpt lat="45.66217" lon="4.61237">
        <ele>672</ele>
        <time>2018-10-14T08:13:20Z</time>
      </trkpt>
      <trkpt lat="45.66216" lon="4.61235">
        <ele>672</ele>
        <time>2018-10-14T08:13:22Z</time>
      </trkpt>
      <trkpt lat="45.66214" lon="4.61232">
        <ele>673</ele>
        <time>2018-10-14T08:13:23Z</time>
      </trkpt>
      <trkpt lat="45.66213" lon="4.6123">
        <ele>673</ele>
        <time>2018-10-14T08:13:24Z</time>
      </trkpt>
      <trkpt lat="45.66212" lon="4.61228">
        <ele>673</ele>
        <time>2018-10-14T08:13:25Z</time>
      </trkpt>
      <trkpt lat="45.66211" lon="4.61227">
        <ele>673</ele>
        <time>2018-10-14T08:13:26Z</time>
      </trkpt>
      <trkpt lat="45.66209" lon="4.61225">
        <ele>674</ele>
        <time>2018-10-14T08:13:27Z</time>
      </trkpt>
      <trkpt lat="45.66208" lon="4.61223">
        <ele>674</ele>
        <time>2018-10-14T08:13:28Z</time>
      </trkpt>
      <trkpt lat="45.66206" lon="4.61222">
        <ele>674</ele>
        <time>2018-10-14T08:13:29Z</time>
      </trkpt>
      <trkpt lat="45.66205" lon="4.6122">
        <ele>674</ele>
        <time>2018-10-14T08:13:30Z</time>
      </trkpt>
      <trkpt lat="45.66203" lon="4.61218">
        <ele>674</ele>
        <time>2018-10-14T08:13:31Z</time>
      </trkpt>
      <trkpt lat="45.66201" lon="4.61216">
        <ele>674</ele>
        <time>2018-10-14T08:13:32Z</time>
      </trkpt>
      <trkpt lat="45.662" lon="4.61214">
        <ele>675</ele>
        <time>2018-10-14T08:13:33Z</time>
      </trkpt>
      <trkpt lat="45.66199" lon="4.61212">
        <ele>675</ele>
        <time>2018-10-14T08:13:34Z</time>
      </trkpt>
      <trkpt lat="45.66198" lon="4.61211">
        <ele>675</ele>
        <time>2018-10-14T08:13:35Z</time>
      </trkpt>
      <trkpt lat="45.66196" lon="4.61209">
        <ele>675</ele>
        <time>2018-10-14T08:13:36Z</time>
      </trkpt>
      <trkpt lat="45.66195" lon="4.61208">
        <ele>675</ele>
        <time>2018-10-14T08:13:37Z</time>
      </trkpt>
      <trkpt lat="45.66193" lon="4.61206">
        <ele>675</ele>
        <time>2018-10-14T08:13:38Z</time>
      </trkpt>
      <trkpt lat="45.66192" lon="4.61205">
        <ele>675</ele>
        <time>2018-10-14T08:13:39Z</time>
      </trkpt>
      <trkpt lat="45.6619" lon="4.61203">
        <ele>675</ele>
        <time>2018-10-14T08:13:40Z</time>
      </trkpt>
      <trkpt lat="45.66188" lon="4.61201">
        <ele>675</ele>
        <time>2018-10-14T08:13:41Z</time>
      </trkpt>
      <trkpt lat="45.66187" lon="4.612">
        <ele>675</ele>
        <time>2018-10-14T08:13:42Z</time>
      </trkpt>
      <trkpt lat="45.66185" lon="4.61198">
        <ele>675</ele>
        <time>2018-10-14T08:13:43Z</time>
      </trkpt>
      <trkpt lat="45.66184" lon="4.61196">
        <ele>675</ele>
        <time>2018-10-14T08:13:44Z</time>
      </trkpt>
      <trkpt lat="45.66182" lon="4.61195">
        <ele>675</ele>
        <time>2018-10-14T08:13:45Z</time>
      </trkpt>
      <trkpt lat="45.6618" lon="4.61193">
        <ele>675</ele>
        <time>2018-10-14T08:13:46Z</time>
      </trkpt>
      <trkpt lat="45.66179" lon="4.61192">
        <ele>675</ele>
        <time>2018-10-14T08:13:47Z</time>
      </trkpt>
      <trkpt lat="45.66178" lon="4.6119">
        <ele>675</ele>
        <time>2018-10-14T08:13:48Z</time>
      </trkpt>
      <trkpt lat="45.66176" lon="4.61188">
        <ele>675</ele>
        <time>2018-10-14T08:13:49Z</time>
      </trkpt>
      <trkpt lat="45.66175" lon="4.61186">
        <ele>676</ele>
        <time>2018-10-14T08:13:50Z</time>
      </trkpt>
      <trkpt lat="45.66174" lon="4.61185">
        <ele>675</ele>
        <time>2018-10-14T08:13:51Z</time>
      </trkpt>
      <trkpt lat="45.66172" lon="4.61183">
        <ele>676</ele>
        <time>2018-10-14T08:13:52Z</time>
      </trkpt>
      <trkpt lat="45.66171" lon="4.61181">
        <ele>676</ele>
        <time>2018-10-14T08:13:53Z</time>
      </trkpt>
      <trkpt lat="45.66169" lon="4.61179">
        <ele>676</ele>
        <time>2018-10-14T08:13:54Z</time>
      </trkpt>
      <trkpt lat="45.66168" lon="4.61178">
        <ele>677</ele>
        <time>2018-10-14T08:13:55Z</time>
      </trkpt>
      <trkpt lat="45.66166" lon="4.61176">
        <ele>677</ele>
        <time>2018-10-14T08:13:56Z</time>
      </trkpt>
      <trkpt lat="45.66165" lon="4.61175">
        <ele>677</ele>
        <time>2018-10-14T08:13:57Z</time>
      </trkpt>
      <trkpt lat="45.66163" lon="4.61174">
        <ele>677</ele>
        <time>2018-10-14T08:13:58Z</time>
      </trkpt>
      <trkpt lat="45.66162" lon="4.61172">
        <ele>677</ele>
        <time>2018-10-14T08:13:59Z</time>
      </trkpt>
      <trkpt lat="45.66161" lon="4.6117">
        <ele>677</ele>
        <time>2018-10-14T08:14:00Z</time>
      </trkpt>
      <trkpt lat="45.6616" lon="4.61168">
        <ele>678</ele>
        <time>2018-10-14T08:14:01Z</time>
      </trkpt>
      <trkpt lat="45.66159" lon="4.61166">
        <ele>678</ele>
        <time>2018-10-14T08:14:02Z</time>
      </trkpt>
      <trkpt lat="45.66158" lon="4.61164">
        <ele>678</ele>
        <time>2018-10-14T08:14:03Z</time>
      </trkpt>
      <trkpt lat="45.66157" lon="4.61162">
        <ele>677</ele>
        <time>2018-10-14T08:14:04Z</time>
      </trkpt>
      <trkpt lat="45.66156" lon="4.6116">
        <ele>678</ele>
        <time>2018-10-14T08:14:05Z</time>
      </trkpt>
      <trkpt lat="45.66155" lon="4.61159">
        <ele>678</ele>
        <time>2018-10-14T08:14:06Z</time>
      </trkpt>
      <trkpt lat="45.66153" lon="4.61158">
        <ele>678</ele>
        <time>2018-10-14T08:14:07Z</time>
      </trkpt>
      <trkpt lat="45.66151" lon="4.61157">
        <ele>678</ele>
        <time>2018-10-14T08:14:08Z</time>
      </trkpt>
      <trkpt lat="45.6615" lon="4.61155">
        <ele>679</ele>
        <time>2018-10-14T08:14:09Z</time>
      </trkpt>
      <trkpt lat="45.66149" lon="4.61154">
        <ele>679</ele>
        <time>2018-10-14T08:14:10Z</time>
      </trkpt>
      <trkpt lat="45.66148" lon="4.61152">
        <ele>680</ele>
        <time>2018-10-14T08:14:11Z</time>
      </trkpt>
      <trkpt lat="45.66147" lon="4.6115">
        <ele>680</ele>
        <time>2018-10-14T08:14:12Z</time>
      </trkpt>
      <trkpt lat="45.66147" lon="4.61148">
        <ele>680</ele>
        <time>2018-10-14T08:14:13Z</time>
      </trkpt>
      <trkpt lat="45.66147" lon="4.61145">
        <ele>680</ele>
        <time>2018-10-14T08:14:14Z</time>
      </trkpt>
      <trkpt lat="45.66147" lon="4.61142">
        <ele>680</ele>
        <time>2018-10-14T08:14:15Z</time>
      </trkpt>
      <trkpt lat="45.66147" lon="4.61139">
        <ele>679</ele>
        <time>2018-10-14T08:14:16Z</time>
      </trkpt>
      <trkpt lat="45.66146" lon="4.61136">
        <ele>680</ele>
        <time>2018-10-14T08:14:17Z</time>
      </trkpt>
      <trkpt lat="45.66146" lon="4.61133">
        <ele>680</ele>
        <time>2018-10-14T08:14:18Z</time>
      </trkpt>
      <trkpt lat="45.66146" lon="4.6113">
        <ele>679</ele>
        <time>2018-10-14T08:14:19Z</time>
      </trkpt>
      <trkpt lat="45.66145" lon="4.61127">
        <ele>679</ele>
        <time>2018-10-14T08:14:20Z</time>
      </trkpt>
      <trkpt lat="45.66145" lon="4.61122">
        <ele>680</ele>
        <time>2018-10-14T08:14:21Z</time>
      </trkpt>
      <trkpt lat="45.66144" lon="4.61116">
        <ele>680</ele>
        <time>2018-10-14T08:14:22Z</time>
      </trkpt>
      <trkpt lat="45.66142" lon="4.61105">
        <ele>680</ele>
        <time>2018-10-14T08:14:23Z</time>
      </trkpt>
      <trkpt lat="45.66142" lon="4.611">
        <ele>680</ele>
        <time>2018-10-14T08:14:24Z</time>
      </trkpt>
      <trkpt lat="45.66141" lon="4.61095">
        <ele>680</ele>
        <time>2018-10-14T08:14:25Z</time>
      </trkpt>
      <trkpt lat="45.6614" lon="4.6109">
        <ele>680</ele>
        <time>2018-10-14T08:14:26Z</time>
      </trkpt>
      <trkpt lat="45.66139" lon="4.61085">
        <ele>679</ele>
        <time>2018-10-14T08:14:27Z</time>
      </trkpt>
      <trkpt lat="45.66138" lon="4.6108">
        <ele>679</ele>
        <time>2018-10-14T08:14:28Z</time>
      </trkpt>
      <trkpt lat="45.66137" lon="4.61075">
        <ele>679</ele>
        <time>2018-10-14T08:14:29Z</time>
      </trkpt>
      <trkpt lat="45.66136" lon="4.61069">
        <ele>679</ele>
        <time>2018-10-14T08:14:30Z</time>
      </trkpt>
      <trkpt lat="45.66135" lon="4.61064">
        <ele>679</ele>
        <time>2018-10-14T08:14:31Z</time>
      </trkpt>
      <trkpt lat="45.66134" lon="4.61059">
        <ele>679</ele>
        <time>2018-10-14T08:14:32Z</time>
      </trkpt>
      <trkpt lat="45.66133" lon="4.61053">
        <ele>679</ele>
        <time>2018-10-14T08:14:33Z</time>
      </trkpt>
      <trkpt lat="45.66132" lon="4.61048">
        <ele>679</ele>
        <time>2018-10-14T08:14:34Z</time>
      </trkpt>
      <trkpt lat="45.6613" lon="4.61043">
        <ele>679</ele>
        <time>2018-10-14T08:14:35Z</time>
      </trkpt>
      <trkpt lat="45.66129" lon="4.61038">
        <ele>679</ele>
        <time>2018-10-14T08:14:36Z</time>
      </trkpt>
      <trkpt lat="45.66128" lon="4.61033">
        <ele>679</ele>
        <time>2018-10-14T08:14:37Z</time>
      </trkpt>
      <trkpt lat="45.66126" lon="4.61027">
        <ele>679</ele>
        <time>2018-10-14T08:14:38Z</time>
      </trkpt>
      <trkpt lat="45.66125" lon="4.61022">
        <ele>680</ele>
        <time>2018-10-14T08:14:39Z</time>
      </trkpt>
      <trkpt lat="45.66123" lon="4.61016">
        <ele>680</ele>
        <time>2018-10-14T08:14:40Z</time>
      </trkpt>
      <trkpt lat="45.66122" lon="4.61012">
        <ele>680</ele>
        <time>2018-10-14T08:14:41Z</time>
      </trkpt>
      <trkpt lat="45.6612" lon="4.61007">
        <ele>680</ele>
        <time>2018-10-14T08:14:42Z</time>
      </trkpt>
      <trkpt lat="45.6612" lon="4.61002">
        <ele>680</ele>
        <time>2018-10-14T08:14:43Z</time>
      </trkpt>
      <trkpt lat="45.66119" lon="4.60999">
        <ele>680</ele>
        <time>2018-10-14T08:14:44Z</time>
      </trkpt>
      <trkpt lat="45.66119" lon="4.60997">
        <ele>680</ele>
        <time>2018-10-14T08:14:45Z</time>
      </trkpt>
      <trkpt lat="45.66116" lon="4.6099">
        <ele>679</ele>
        <time>2018-10-14T08:14:47Z</time>
      </trkpt>
      <trkpt lat="45.66114" lon="4.60982">
        <ele>680</ele>
        <time>2018-10-14T08:14:48Z</time>
      </trkpt>
      <trkpt lat="45.66112" lon="4.60977">
        <ele>680</ele>
        <time>2018-10-14T08:14:49Z</time>
      </trkpt>
      <trkpt lat="45.6611" lon="4.60973">
        <ele>680</ele>
        <time>2018-10-14T08:14:50Z</time>
      </trkpt>
      <trkpt lat="45.66108" lon="4.60969">
        <ele>680</ele>
        <time>2018-10-14T08:14:51Z</time>
      </trkpt>
      <trkpt lat="45.66106" lon="4.60965">
        <ele>681</ele>
        <time>2018-10-14T08:14:52Z</time>
      </trkpt>
      <trkpt lat="45.66104" lon="4.60963">
        <ele>681</ele>
        <time>2018-10-14T08:14:53Z</time>
      </trkpt>
      <trkpt lat="45.66103" lon="4.60959">
        <ele>682</ele>
        <time>2018-10-14T08:14:54Z</time>
      </trkpt>
      <trkpt lat="45.661" lon="4.60957">
        <ele>681</ele>
        <time>2018-10-14T08:14:55Z</time>
      </trkpt>
      <trkpt lat="45.66099" lon="4.60955">
        <ele>681</ele>
        <time>2018-10-14T08:14:56Z</time>
      </trkpt>
      <trkpt lat="45.66098" lon="4.60953">
        <ele>681</ele>
        <time>2018-10-14T08:14:57Z</time>
      </trkpt>
      <trkpt lat="45.66098" lon="4.60951">
        <ele>681</ele>
        <time>2018-10-14T08:14:58Z</time>
      </trkpt>
      <trkpt lat="45.66097" lon="4.60949">
        <ele>681</ele>
        <time>2018-10-14T08:14:59Z</time>
      </trkpt>
      <trkpt lat="45.66096" lon="4.60947">
        <ele>682</ele>
        <time>2018-10-14T08:15:00Z</time>
      </trkpt>
      <trkpt lat="45.66094" lon="4.60946">
        <ele>682</ele>
        <time>2018-10-14T08:15:01Z</time>
      </trkpt>
      <trkpt lat="45.66093" lon="4.60944">
        <ele>682</ele>
        <time>2018-10-14T08:15:02Z</time>
      </trkpt>
      <trkpt lat="45.6609" lon="4.6094">
        <ele>682</ele>
        <time>2018-10-14T08:15:04Z</time>
      </trkpt>
      <trkpt lat="45.66087" lon="4.60937">
        <ele>682</ele>
        <time>2018-10-14T08:15:05Z</time>
      </trkpt>
      <trkpt lat="45.66084" lon="4.60933">
        <ele>681</ele>
        <time>2018-10-14T08:15:06Z</time>
      </trkpt>
      <trkpt lat="45.66081" lon="4.60929">
        <ele>681</ele>
        <time>2018-10-14T08:15:07Z</time>
      </trkpt>
      <trkpt lat="45.66079" lon="4.60925">
        <ele>681</ele>
        <time>2018-10-14T08:15:08Z</time>
      </trkpt>
      <trkpt lat="45.66072" lon="4.60919">
        <ele>682</ele>
        <time>2018-10-14T08:15:09Z</time>
      </trkpt>
      <trkpt lat="45.66069" lon="4.60915">
        <ele>682</ele>
        <time>2018-10-14T08:15:10Z</time>
      </trkpt>
      <trkpt lat="45.66067" lon="4.60912">
        <ele>683</ele>
        <time>2018-10-14T08:15:11Z</time>
      </trkpt>
      <trkpt lat="45.66065" lon="4.60908">
        <ele>684</ele>
        <time>2018-10-14T08:15:12Z</time>
      </trkpt>
      <trkpt lat="45.66063" lon="4.60905">
        <ele>684</ele>
        <time>2018-10-14T08:15:13Z</time>
      </trkpt>
      <trkpt lat="45.66061" lon="4.60901">
        <ele>684</ele>
        <time>2018-10-14T08:15:14Z</time>
      </trkpt>
      <trkpt lat="45.66059" lon="4.60898">
        <ele>684</ele>
        <time>2018-10-14T08:15:15Z</time>
      </trkpt>
      <trkpt lat="45.66057" lon="4.60894">
        <ele>683</ele>
        <time>2018-10-14T08:15:16Z</time>
      </trkpt>
      <trkpt lat="45.66055" lon="4.60892">
        <ele>683</ele>
        <time>2018-10-14T08:15:17Z</time>
      </trkpt>
      <trkpt lat="45.66054" lon="4.60891">
        <ele>682</ele>
        <time>2018-10-14T08:15:18Z</time>
      </trkpt>
      <trkpt lat="45.66052" lon="4.6089">
        <ele>682</ele>
        <time>2018-10-14T08:15:19Z</time>
      </trkpt>
      <trkpt lat="45.66044" lon="4.60878">
        <ele>681</ele>
        <time>2018-10-14T08:15:21Z</time>
      </trkpt>
      <trkpt lat="45.66042" lon="4.60874">
        <ele>681</ele>
        <time>2018-10-14T08:15:22Z</time>
      </trkpt>
      <trkpt lat="45.66041" lon="4.6087">
        <ele>681</ele>
        <time>2018-10-14T08:15:23Z</time>
      </trkpt>
      <trkpt lat="45.66039" lon="4.60866">
        <ele>679</ele>
        <time>2018-10-14T08:15:24Z</time>
      </trkpt>
      <trkpt lat="45.66038" lon="4.60862">
        <ele>677</ele>
        <time>2018-10-14T08:15:25Z</time>
      </trkpt>
      <trkpt lat="45.66037" lon="4.60856">
        <ele>678</ele>
        <time>2018-10-14T08:15:26Z</time>
      </trkpt>
      <trkpt lat="45.66036" lon="4.60851">
        <ele>678</ele>
        <time>2018-10-14T08:15:27Z</time>
      </trkpt>
      <trkpt lat="45.66035" lon="4.60848">
        <ele>678</ele>
        <time>2018-10-14T08:15:28Z</time>
      </trkpt>
      <trkpt lat="45.66034" lon="4.60845">
        <ele>678</ele>
        <time>2018-10-14T08:15:29Z</time>
      </trkpt>
      <trkpt lat="45.66031" lon="4.60838">
        <ele>678</ele>
        <time>2018-10-14T08:15:31Z</time>
      </trkpt>
      <trkpt lat="45.66024" lon="4.60827">
        <ele>678</ele>
        <time>2018-10-14T08:15:32Z</time>
      </trkpt>
      <trkpt lat="45.66021" lon="4.60823">
        <ele>678</ele>
        <time>2018-10-14T08:15:33Z</time>
      </trkpt>
      <trkpt lat="45.66018" lon="4.60818">
        <ele>678</ele>
        <time>2018-10-14T08:15:34Z</time>
      </trkpt>
      <trkpt lat="45.66015" lon="4.60814">
        <ele>679</ele>
        <time>2018-10-14T08:15:35Z</time>
      </trkpt>
      <trkpt lat="45.6601" lon="4.60809">
        <ele>680</ele>
        <time>2018-10-14T08:15:36Z</time>
      </trkpt>
      <trkpt lat="45.66007" lon="4.60805">
        <ele>680</ele>
        <time>2018-10-14T08:15:37Z</time>
      </trkpt>
      <trkpt lat="45.66004" lon="4.60802">
        <ele>681</ele>
        <time>2018-10-14T08:15:38Z</time>
      </trkpt>
      <trkpt lat="45.66002" lon="4.60797">
        <ele>681</ele>
        <time>2018-10-14T08:15:39Z</time>
      </trkpt>
      <trkpt lat="45.65999" lon="4.60791">
        <ele>681</ele>
        <time>2018-10-14T08:15:40Z</time>
      </trkpt>
      <trkpt lat="45.65996" lon="4.60787">
        <ele>680</ele>
        <time>2018-10-14T08:15:41Z</time>
      </trkpt>
      <trkpt lat="45.65993" lon="4.60782">
        <ele>680</ele>
        <time>2018-10-14T08:15:42Z</time>
      </trkpt>
      <trkpt lat="45.6599" lon="4.60776">
        <ele>680</ele>
        <time>2018-10-14T08:15:43Z</time>
      </trkpt>
      <trkpt lat="45.65987" lon="4.60771">
        <ele>680</ele>
        <time>2018-10-14T08:15:44Z</time>
      </trkpt>
      <trkpt lat="45.65984" lon="4.60765">
        <ele>680</ele>
        <time>2018-10-14T08:15:45Z</time>
      </trkpt>
      <trkpt lat="45.6598" lon="4.60758">
        <ele>679</ele>
        <time>2018-10-14T08:15:46Z</time>
      </trkpt>
      <trkpt lat="45.65977" lon="4.6075">
        <ele>679</ele>
        <time>2018-10-14T08:15:47Z</time>
      </trkpt>
      <trkpt lat="45.65975" lon="4.60742">
        <ele>678</ele>
        <time>2018-10-14T08:15:48Z</time>
      </trkpt>
      <trkpt lat="45.65973" lon="4.60735">
        <ele>677</ele>
        <time>2018-10-14T08:15:49Z</time>
      </trkpt>
      <trkpt lat="45.6597" lon="4.60726">
        <ele>677</ele>
        <time>2018-10-14T08:15:50Z</time>
      </trkpt>
      <trkpt lat="45.65968" lon="4.60717">
        <ele>677</ele>
        <time>2018-10-14T08:15:51Z</time>
      </trkpt>
      <trkpt lat="45.65966" lon="4.60707">
        <ele>677</ele>
        <time>2018-10-14T08:15:52Z</time>
      </trkpt>
      <trkpt lat="45.65963" lon="4.60696">
        <ele>677</ele>
        <time>2018-10-14T08:15:53Z</time>
      </trkpt>
      <trkpt lat="45.65963" lon="4.60685">
        <ele>676</ele>
        <time>2018-10-14T08:15:54Z</time>
      </trkpt>
      <trkpt lat="45.6596" lon="4.60676">
        <ele>676</ele>
        <time>2018-10-14T08:15:55Z</time>
      </trkpt>
      <trkpt lat="45.65957" lon="4.60667">
        <ele>676</ele>
        <time>2018-10-14T08:15:56Z</time>
      </trkpt>
      <trkpt lat="45.65955" lon="4.60658">
        <ele>677</ele>
        <time>2018-10-14T08:15:57Z</time>
      </trkpt>
      <trkpt lat="45.65952" lon="4.60649">
        <ele>676</ele>
        <time>2018-10-14T08:15:58Z</time>
      </trkpt>
      <trkpt lat="45.6595" lon="4.6064">
        <ele>676</ele>
        <time>2018-10-14T08:15:59Z</time>
      </trkpt>
      <trkpt lat="45.65947" lon="4.60631">
        <ele>677</ele>
        <time>2018-10-14T08:16:00Z</time>
      </trkpt>
      <trkpt lat="45.65944" lon="4.60622">
        <ele>677</ele>
        <time>2018-10-14T08:16:01Z</time>
      </trkpt>
      <trkpt lat="45.65941" lon="4.60614">
        <ele>676</ele>
        <time>2018-10-14T08:16:02Z</time>
      </trkpt>
      <trkpt lat="45.65937" lon="4.60605">
        <ele>677</ele>
        <time>2018-10-14T08:16:03Z</time>
      </trkpt>
      <trkpt lat="45.65933" lon="4.60596">
        <ele>677</ele>
        <time>2018-10-14T08:16:04Z</time>
      </trkpt>
      <trkpt lat="45.65929" lon="4.60587">
        <ele>677</ele>
        <time>2018-10-14T08:16:05Z</time>
      </trkpt>
      <trkpt lat="45.65927" lon="4.60576">
        <ele>676</ele>
        <time>2018-10-14T08:16:06Z</time>
      </trkpt>
      <trkpt lat="45.65926" lon="4.60567">
        <ele>675</ele>
        <time>2018-10-14T08:16:07Z</time>
      </trkpt>
      <trkpt lat="45.65925" lon="4.60556">
        <ele>677</ele>
        <time>2018-10-14T08:16:08Z</time>
      </trkpt>
      <trkpt lat="45.65922" lon="4.60547">
        <ele>677</ele>
        <time>2018-10-14T08:16:09Z</time>
      </trkpt>
      <trkpt lat="45.65913" lon="4.60539">
        <ele>676</ele>
        <time>2018-10-14T08:16:10Z</time>
      </trkpt>
      <trkpt lat="45.65909" lon="4.60531">
        <ele>677</ele>
        <time>2018-10-14T08:16:11Z</time>
      </trkpt>
      <trkpt lat="45.65905" lon="4.60524">
        <ele>647</ele>
        <time>2018-10-14T08:16:12Z</time>
      </trkpt>
      <trkpt lat="45.65902" lon="4.60515">
        <ele>647</ele>
        <time>2018-10-14T08:16:13Z</time>
      </trkpt>
      <trkpt lat="45.65899" lon="4.60504">
        <ele>648</ele>
        <time>2018-10-14T08:16:14Z</time>
      </trkpt>
      <trkpt lat="45.65896" lon="4.60496">
        <ele>649</ele>
        <time>2018-10-14T08:16:15Z</time>
      </trkpt>
      <trkpt lat="45.65894" lon="4.60487">
        <ele>656</ele>
        <time>2018-10-14T08:16:16Z</time>
      </trkpt>
      <trkpt lat="45.6589" lon="4.60478">
        <ele>659</ele>
        <time>2018-10-14T08:16:17Z</time>
      </trkpt>
      <trkpt lat="45.65887" lon="4.6047">
        <ele>662</ele>
        <time>2018-10-14T08:16:18Z</time>
      </trkpt>
      <trkpt lat="45.65883" lon="4.60462">
        <ele>648</ele>
        <time>2018-10-14T08:16:19Z</time>
      </trkpt>
      <trkpt lat="45.6588" lon="4.60452">
        <ele>649</ele>
        <time>2018-10-14T08:16:20Z</time>
      </trkpt>
      <trkpt lat="45.65877" lon="4.60444">
        <ele>655</ele>
        <time>2018-10-14T08:16:21Z</time>
      </trkpt>
      <trkpt lat="45.65875" lon="4.60435">
        <ele>650</ele>
        <time>2018-10-14T08:16:22Z</time>
      </trkpt>
      <trkpt lat="45.65871" lon="4.60426">
        <ele>656</ele>
        <time>2018-10-14T08:16:23Z</time>
      </trkpt>
      <trkpt lat="45.6587" lon="4.60416">
        <ele>651</ele>
        <time>2018-10-14T08:16:24Z</time>
      </trkpt>
      <trkpt lat="45.65868" lon="4.60408">
        <ele>657</ele>
        <time>2018-10-14T08:16:25Z</time>
      </trkpt>
      <trkpt lat="45.65868" lon="4.60399">
        <ele>651</ele>
        <time>2018-10-14T08:16:26Z</time>
      </trkpt>
      <trkpt lat="45.65867" lon="4.60391">
        <ele>651</ele>
        <time>2018-10-14T08:16:27Z</time>
      </trkpt>
      <trkpt lat="45.65865" lon="4.60383">
        <ele>648</ele>
        <time>2018-10-14T08:16:28Z</time>
      </trkpt>
      <trkpt lat="45.65863" lon="4.60375">
        <ele>655</ele>
        <time>2018-10-14T08:16:29Z</time>
      </trkpt>
      <trkpt lat="45.65861" lon="4.60367">
        <ele>661</ele>
        <time>2018-10-14T08:16:30Z</time>
      </trkpt>
      <trkpt lat="45.65859" lon="4.60361">
        <ele>651</ele>
        <time>2018-10-14T08:16:31Z</time>
      </trkpt>
      <trkpt lat="45.65857" lon="4.60355">
        <ele>651</ele>
        <time>2018-10-14T08:16:32Z</time>
      </trkpt>
      <trkpt lat="45.65856" lon="4.60347">
        <ele>659</ele>
        <time>2018-10-14T08:16:33Z</time>
      </trkpt>
      <trkpt lat="45.65854" lon="4.6034">
        <ele>662</ele>
        <time>2018-10-14T08:16:34Z</time>
      </trkpt>
      <trkpt lat="45.65854" lon="4.60333">
        <ele>667</ele>
        <time>2018-10-14T08:16:35Z</time>
      </trkpt>
      <trkpt lat="45.65853" lon="4.60325">
        <ele>671</ele>
        <time>2018-10-14T08:16:36Z</time>
      </trkpt>
      <trkpt lat="45.65852" lon="4.60319">
        <ele>674</ele>
        <time>2018-10-14T08:16:37Z</time>
      </trkpt>
      <trkpt lat="45.65851" lon="4.60314">
        <ele>673</ele>
        <time>2018-10-14T08:16:38Z</time>
      </trkpt>
      <trkpt lat="45.6585" lon="4.60307">
        <ele>674</ele>
        <time>2018-10-14T08:16:39Z</time>
      </trkpt>
      <trkpt lat="45.65848" lon="4.603">
        <ele>674</ele>
        <time>2018-10-14T08:16:40Z</time>
      </trkpt>
      <trkpt lat="45.65847" lon="4.60295">
        <ele>674</ele>
        <time>2018-10-14T08:16:41Z</time>
      </trkpt>
      <trkpt lat="45.65846" lon="4.60292">
        <ele>673</ele>
        <time>2018-10-14T08:16:42Z</time>
      </trkpt>
      <trkpt lat="45.65845" lon="4.60287">
        <ele>673</ele>
        <time>2018-10-14T08:16:43Z</time>
      </trkpt>
      <trkpt lat="45.65843" lon="4.60281">
        <ele>673</ele>
        <time>2018-10-14T08:16:44Z</time>
      </trkpt>
      <trkpt lat="45.65842" lon="4.60277">
        <ele>674</ele>
        <time>2018-10-14T08:16:45Z</time>
      </trkpt>
      <trkpt lat="45.65844" lon="4.60272">
        <ele>673</ele>
        <time>2018-10-14T08:16:46Z</time>
      </trkpt>
      <trkpt lat="45.65842" lon="4.60266">
        <ele>673</ele>
        <time>2018-10-14T08:16:47Z</time>
      </trkpt>
      <trkpt lat="45.65841" lon="4.60262">
        <ele>673</ele>
        <time>2018-10-14T08:16:48Z</time>
      </trkpt>
      <trkpt lat="45.65842" lon="4.60259">
        <ele>673</ele>
        <time>2018-10-14T08:16:49Z</time>
      </trkpt>
      <trkpt lat="45.65844" lon="4.60256">
        <ele>673</ele>
        <time>2018-10-14T08:16:50Z</time>
      </trkpt>
      <trkpt lat="45.65847" lon="4.60252">
        <ele>673</ele>
        <time>2018-10-14T08:16:51Z</time>
      </trkpt>
      <trkpt lat="45.65849" lon="4.60249">
        <ele>673</ele>
        <time>2018-10-14T08:16:52Z</time>
      </trkpt>
      <trkpt lat="45.65851" lon="4.60246">
        <ele>673</ele>
        <time>2018-10-14T08:16:53Z</time>
      </trkpt>
      <trkpt lat="45.65854" lon="4.60243">
        <ele>673</ele>
        <time>2018-10-14T08:16:54Z</time>
      </trkpt>
      <trkpt lat="45.65858" lon="4.60239">
        <ele>674</ele>
        <time>2018-10-14T08:16:55Z</time>
      </trkpt>
      <trkpt lat="45.65861" lon="4.60237">
        <ele>674</ele>
        <time>2018-10-14T08:16:56Z</time>
      </trkpt>
      <trkpt lat="45.65862" lon="4.60236">
        <ele>674</ele>
        <time>2018-10-14T08:16:57Z</time>
      </trkpt>
      <trkpt lat="45.65864" lon="4.60234">
        <ele>674</ele>
        <time>2018-10-14T08:16:58Z</time>
      </trkpt>
      <trkpt lat="45.65865" lon="4.60233">
        <ele>675</ele>
        <time>2018-10-14T08:16:59Z</time>
      </trkpt>
      <trkpt lat="45.65867" lon="4.60231">
        <ele>675</ele>
        <time>2018-10-14T08:17:00Z</time>
      </trkpt>
      <trkpt lat="45.65869" lon="4.6023">
        <ele>675</ele>
        <time>2018-10-14T08:17:01Z</time>
      </trkpt>
      <trkpt lat="45.65871" lon="4.60227">
        <ele>675</ele>
        <time>2018-10-14T08:17:02Z</time>
      </trkpt>
      <trkpt lat="45.65873" lon="4.60225">
        <ele>676</ele>
        <time>2018-10-14T08:17:03Z</time>
      </trkpt>
      <trkpt lat="45.65876" lon="4.60223">
        <ele>676</ele>
        <time>2018-10-14T08:17:04Z</time>
      </trkpt>
      <trkpt lat="45.65891" lon="4.6021">
        <ele>679</ele>
        <time>2018-10-14T08:17:05Z</time>
      </trkpt>
      <trkpt lat="45.65894" lon="4.60207">
        <ele>679</ele>
        <time>2018-10-14T08:17:06Z</time>
      </trkpt>
      <trkpt lat="45.65898" lon="4.60203">
        <ele>679</ele>
        <time>2018-10-14T08:17:07Z</time>
      </trkpt>
      <trkpt lat="45.65903" lon="4.60201">
        <ele>679</ele>
        <time>2018-10-14T08:17:08Z</time>
      </trkpt>
      <trkpt lat="45.65907" lon="4.60197">
        <ele>680</ele>
        <time>2018-10-14T08:17:09Z</time>
      </trkpt>
      <trkpt lat="45.6591" lon="4.60194">
        <ele>680</ele>
        <time>2018-10-14T08:17:10Z</time>
      </trkpt>
      <trkpt lat="45.65915" lon="4.6019">
        <ele>680</ele>
        <time>2018-10-14T08:17:11Z</time>
      </trkpt>
      <trkpt lat="45.65918" lon="4.60186">
        <ele>680</ele>
        <time>2018-10-14T08:17:12Z</time>
      </trkpt>
      <trkpt lat="45.65921" lon="4.60182">
        <ele>681</ele>
        <time>2018-10-14T08:17:13Z</time>
      </trkpt>
      <trkpt lat="45.65925" lon="4.60179">
        <ele>681</ele>
        <time>2018-10-14T08:17:14Z</time>
      </trkpt>
      <trkpt lat="45.65928" lon="4.60176">
        <ele>682</ele>
        <time>2018-10-14T08:17:15Z</time>
      </trkpt>
      <trkpt lat="45.65931" lon="4.60173">
        <ele>682</ele>
        <time>2018-10-14T08:17:16Z</time>
      </trkpt>
      <trkpt lat="45.65935" lon="4.60169">
        <ele>683</ele>
        <time>2018-10-14T08:17:17Z</time>
      </trkpt>
      <trkpt lat="45.65939" lon="4.60165">
        <ele>683</ele>
        <time>2018-10-14T08:17:18Z</time>
      </trkpt>
      <trkpt lat="45.65942" lon="4.60161">
        <ele>684</ele>
        <time>2018-10-14T08:17:19Z</time>
      </trkpt>
      <trkpt lat="45.65946" lon="4.60156">
        <ele>683</ele>
        <time>2018-10-14T08:17:20Z</time>
      </trkpt>
      <trkpt lat="45.6595" lon="4.60152">
        <ele>683</ele>
        <time>2018-10-14T08:17:21Z</time>
      </trkpt>
      <trkpt lat="45.65955" lon="4.60147">
        <ele>683</ele>
        <time>2018-10-14T08:17:22Z</time>
      </trkpt>
      <trkpt lat="45.65958" lon="4.60142">
        <ele>684</ele>
        <time>2018-10-14T08:17:23Z</time>
      </trkpt>
      <trkpt lat="45.65962" lon="4.60138">
        <ele>684</ele>
        <time>2018-10-14T08:17:24Z</time>
      </trkpt>
      <trkpt lat="45.65965" lon="4.60133">
        <ele>684</ele>
        <time>2018-10-14T08:17:25Z</time>
      </trkpt>
      <trkpt lat="45.65968" lon="4.60129">
        <ele>685</ele>
        <time>2018-10-14T08:17:26Z</time>
      </trkpt>
      <trkpt lat="45.65971" lon="4.60125">
        <ele>686</ele>
        <time>2018-10-14T08:17:27Z</time>
      </trkpt>
      <trkpt lat="45.65974" lon="4.60121">
        <ele>687</ele>
        <time>2018-10-14T08:17:28Z</time>
      </trkpt>
      <trkpt lat="45.65976" lon="4.60117">
        <ele>687</ele>
        <time>2018-10-14T08:17:29Z</time>
      </trkpt>
      <trkpt lat="45.65978" lon="4.60113">
        <ele>687</ele>
        <time>2018-10-14T08:17:30Z</time>
      </trkpt>
      <trkpt lat="45.65981" lon="4.6011">
        <ele>688</ele>
        <time>2018-10-14T08:17:31Z</time>
      </trkpt>
      <trkpt lat="45.65983" lon="4.60106">
        <ele>688</ele>
        <time>2018-10-14T08:17:32Z</time>
      </trkpt>
      <trkpt lat="45.65986" lon="4.60103">
        <ele>688</ele>
        <time>2018-10-14T08:17:33Z</time>
      </trkpt>
      <trkpt lat="45.65987" lon="4.60103">
        <ele>689</ele>
        <time>2018-10-14T08:17:34Z</time>
      </trkpt>
      <trkpt lat="45.65988" lon="4.60101">
        <ele>689</ele>
        <time>2018-10-14T08:17:35Z</time>
      </trkpt>
      <trkpt lat="45.65989" lon="4.601">
        <ele>689</ele>
        <time>2018-10-14T08:17:36Z</time>
      </trkpt>
      <trkpt lat="45.65992" lon="4.60097">
        <ele>690</ele>
        <time>2018-10-14T08:17:38Z</time>
      </trkpt>
      <trkpt lat="45.65997" lon="4.60092">
        <ele>691</ele>
        <time>2018-10-14T08:17:39Z</time>
      </trkpt>
      <trkpt lat="45.66002" lon="4.60086">
        <ele>691</ele>
        <time>2018-10-14T08:17:40Z</time>
      </trkpt>
      <trkpt lat="45.66005" lon="4.60084">
        <ele>691</ele>
        <time>2018-10-14T08:17:41Z</time>
      </trkpt>
      <trkpt lat="45.66008" lon="4.6008">
        <ele>690</ele>
        <time>2018-10-14T08:17:42Z</time>
      </trkpt>
      <trkpt lat="45.66011" lon="4.60076">
        <ele>690</ele>
        <time>2018-10-14T08:17:43Z</time>
      </trkpt>
      <trkpt lat="45.66015" lon="4.60072">
        <ele>690</ele>
        <time>2018-10-14T08:17:44Z</time>
      </trkpt>
      <trkpt lat="45.66018" lon="4.60068">
        <ele>690</ele>
        <time>2018-10-14T08:17:45Z</time>
      </trkpt>
      <trkpt lat="45.66022" lon="4.60064">
        <ele>690</ele>
        <time>2018-10-14T08:17:46Z</time>
      </trkpt>
      <trkpt lat="45.66026" lon="4.6006">
        <ele>690</ele>
        <time>2018-10-14T08:17:47Z</time>
      </trkpt>
      <trkpt lat="45.66031" lon="4.60056">
        <ele>690</ele>
        <time>2018-10-14T08:17:48Z</time>
      </trkpt>
      <trkpt lat="45.66035" lon="4.60051">
        <ele>689</ele>
        <time>2018-10-14T08:17:49Z</time>
      </trkpt>
      <trkpt lat="45.66039" lon="4.60046">
        <ele>690</ele>
        <time>2018-10-14T08:17:50Z</time>
      </trkpt>
      <trkpt lat="45.66042" lon="4.60043">
        <ele>690</ele>
        <time>2018-10-14T08:17:51Z</time>
      </trkpt>
      <trkpt lat="45.66046" lon="4.60039">
        <ele>690</ele>
        <time>2018-10-14T08:17:52Z</time>
      </trkpt>
      <trkpt lat="45.6605" lon="4.60034">
        <ele>690</ele>
        <time>2018-10-14T08:17:53Z</time>
      </trkpt>
      <trkpt lat="45.66053" lon="4.60028">
        <ele>690</ele>
        <time>2018-10-14T08:17:54Z</time>
      </trkpt>
      <trkpt lat="45.66057" lon="4.60023">
        <ele>690</ele>
        <time>2018-10-14T08:17:55Z</time>
      </trkpt>
      <trkpt lat="45.66059" lon="4.60021">
        <ele>690</ele>
        <time>2018-10-14T08:17:56Z</time>
      </trkpt>
      <trkpt lat="45.66063" lon="4.60019">
        <ele>691</ele>
        <time>2018-10-14T08:17:57Z</time>
      </trkpt>
      <trkpt lat="45.66067" lon="4.60016">
        <ele>691</ele>
        <time>2018-10-14T08:17:58Z</time>
      </trkpt>
      <trkpt lat="45.66071" lon="4.60014">
        <ele>690</ele>
        <time>2018-10-14T08:17:59Z</time>
      </trkpt>
      <trkpt lat="45.66076" lon="4.60011">
        <ele>691</ele>
        <time>2018-10-14T08:18:00Z</time>
      </trkpt>
      <trkpt lat="45.66079" lon="4.60007">
        <ele>690</ele>
        <time>2018-10-14T08:18:01Z</time>
      </trkpt>
      <trkpt lat="45.66082" lon="4.60003">
        <ele>691</ele>
        <time>2018-10-14T08:18:02Z</time>
      </trkpt>
      <trkpt lat="45.66085" lon="4.59998">
        <ele>690</ele>
        <time>2018-10-14T08:18:03Z</time>
      </trkpt>
      <trkpt lat="45.66088" lon="4.59994">
        <ele>690</ele>
        <time>2018-10-14T08:18:04Z</time>
      </trkpt>
      <trkpt lat="45.6609" lon="4.59991">
        <ele>690</ele>
        <time>2018-10-14T08:18:05Z</time>
      </trkpt>
      <trkpt lat="45.66093" lon="4.59986">
        <ele>690</ele>
        <time>2018-10-14T08:18:06Z</time>
      </trkpt>
      <trkpt lat="45.66096" lon="4.59981">
        <ele>689</ele>
        <time>2018-10-14T08:18:07Z</time>
      </trkpt>
      <trkpt lat="45.66098" lon="4.59977">
        <ele>689</ele>
        <time>2018-10-14T08:18:08Z</time>
      </trkpt>
      <trkpt lat="45.661" lon="4.59975">
        <ele>689</ele>
        <time>2018-10-14T08:18:09Z</time>
      </trkpt>
      <trkpt lat="45.66101" lon="4.59973">
        <ele>688</ele>
        <time>2018-10-14T08:18:10Z</time>
      </trkpt>
      <trkpt lat="45.66102" lon="4.59972">
        <ele>688</ele>
        <time>2018-10-14T08:18:11Z</time>
      </trkpt>
      <trkpt lat="45.66102" lon="4.59969">
        <ele>688</ele>
        <time>2018-10-14T08:18:12Z</time>
      </trkpt>
      <trkpt lat="45.66112" lon="4.59957">
        <ele>688</ele>
        <time>2018-10-14T08:18:13Z</time>
      </trkpt>
      <trkpt lat="45.66114" lon="4.59953">
        <ele>688</ele>
        <time>2018-10-14T08:18:14Z</time>
      </trkpt>
      <trkpt lat="45.66117" lon="4.59949">
        <ele>688</ele>
        <time>2018-10-14T08:18:15Z</time>
      </trkpt>
      <trkpt lat="45.66119" lon="4.59946">
        <ele>688</ele>
        <time>2018-10-14T08:18:16Z</time>
      </trkpt>
      <trkpt lat="45.66123" lon="4.59942">
        <ele>688</ele>
        <time>2018-10-14T08:18:17Z</time>
      </trkpt>
      <trkpt lat="45.66124" lon="4.59938">
        <ele>688</ele>
        <time>2018-10-14T08:18:18Z</time>
      </trkpt>
      <trkpt lat="45.66127" lon="4.59933">
        <ele>689</ele>
        <time>2018-10-14T08:18:19Z</time>
      </trkpt>
      <trkpt lat="45.66129" lon="4.5993">
        <ele>690</ele>
        <time>2018-10-14T08:18:20Z</time>
      </trkpt>
      <trkpt lat="45.6613" lon="4.59927">
        <ele>690</ele>
        <time>2018-10-14T08:18:21Z</time>
      </trkpt>
      <trkpt lat="45.66131" lon="4.59925">
        <ele>690</ele>
        <time>2018-10-14T08:18:22Z</time>
      </trkpt>
      <trkpt lat="45.66131" lon="4.59923">
        <ele>691</ele>
        <time>2018-10-14T08:18:23Z</time>
      </trkpt>
      <trkpt lat="45.66134" lon="4.59919">
        <ele>691</ele>
        <time>2018-10-14T08:18:24Z</time>
      </trkpt>
      <trkpt lat="45.66139" lon="4.59911">
        <ele>693</ele>
        <time>2018-10-14T08:18:25Z</time>
      </trkpt>
      <trkpt lat="45.66142" lon="4.59906">
        <ele>692</ele>
        <time>2018-10-14T08:18:26Z</time>
      </trkpt>
      <trkpt lat="45.66144" lon="4.59902">
        <ele>692</ele>
        <time>2018-10-14T08:18:27Z</time>
      </trkpt>
      <trkpt lat="45.66147" lon="4.59898">
        <ele>692</ele>
        <time>2018-10-14T08:18:28Z</time>
      </trkpt>
      <trkpt lat="45.6615" lon="4.59894">
        <ele>691</ele>
        <time>2018-10-14T08:18:29Z</time>
      </trkpt>
      <trkpt lat="45.66152" lon="4.5989">
        <ele>691</ele>
        <time>2018-10-14T08:18:30Z</time>
      </trkpt>
      <trkpt lat="45.66153" lon="4.59887">
        <ele>692</ele>
        <time>2018-10-14T08:18:31Z</time>
      </trkpt>
      <trkpt lat="45.66157" lon="4.59883">
        <ele>692</ele>
        <time>2018-10-14T08:18:32Z</time>
      </trkpt>
      <trkpt lat="45.66161" lon="4.59877">
        <ele>690</ele>
        <time>2018-10-14T08:18:33Z</time>
      </trkpt>
      <trkpt lat="45.66163" lon="4.59873">
        <ele>690</ele>
        <time>2018-10-14T08:18:34Z</time>
      </trkpt>
      <trkpt lat="45.66165" lon="4.5987">
        <ele>690</ele>
        <time>2018-10-14T08:18:35Z</time>
      </trkpt>
      <trkpt lat="45.66169" lon="4.59866">
        <ele>689</ele>
        <time>2018-10-14T08:18:36Z</time>
      </trkpt>
      <trkpt lat="45.6617" lon="4.59864">
        <ele>689</ele>
        <time>2018-10-14T08:18:37Z</time>
      </trkpt>
      <trkpt lat="45.66171" lon="4.59863">
        <ele>689</ele>
        <time>2018-10-14T08:18:38Z</time>
      </trkpt>
      <trkpt lat="45.66172" lon="4.59861">
        <ele>689</ele>
        <time>2018-10-14T08:18:39Z</time>
      </trkpt>
      <trkpt lat="45.66174" lon="4.59856">
        <ele>690</ele>
        <time>2018-10-14T08:18:40Z</time>
      </trkpt>
      <trkpt lat="45.6618" lon="4.5985">
        <ele>693</ele>
        <time>2018-10-14T08:18:41Z</time>
      </trkpt>
      <trkpt lat="45.66182" lon="4.59846">
        <ele>693</ele>
        <time>2018-10-14T08:18:42Z</time>
      </trkpt>
      <trkpt lat="45.66184" lon="4.59843">
        <ele>694</ele>
        <time>2018-10-14T08:18:43Z</time>
      </trkpt>
      <trkpt lat="45.66186" lon="4.5984">
        <ele>695</ele>
        <time>2018-10-14T08:18:44Z</time>
      </trkpt>
      <trkpt lat="45.66189" lon="4.59835">
        <ele>695</ele>
        <time>2018-10-14T08:18:45Z</time>
      </trkpt>
      <trkpt lat="45.66192" lon="4.59831">
        <ele>695</ele>
        <time>2018-10-14T08:18:46Z</time>
      </trkpt>
      <trkpt lat="45.66194" lon="4.59826">
        <ele>695</ele>
        <time>2018-10-14T08:18:47Z</time>
      </trkpt>
      <trkpt lat="45.66197" lon="4.59823">
        <ele>696</ele>
        <time>2018-10-14T08:18:48Z</time>
      </trkpt>
      <trkpt lat="45.66199" lon="4.59819">
        <ele>696</ele>
        <time>2018-10-14T08:18:49Z</time>
      </trkpt>
      <trkpt lat="45.66201" lon="4.59817">
        <ele>696</ele>
        <time>2018-10-14T08:18:50Z</time>
      </trkpt>
      <trkpt lat="45.66201" lon="4.59815">
        <ele>696</ele>
        <time>2018-10-14T08:18:51Z</time>
      </trkpt>
      <trkpt lat="45.66202" lon="4.59812">
        <ele>696</ele>
        <time>2018-10-14T08:18:52Z</time>
      </trkpt>
      <trkpt lat="45.66203" lon="4.5981">
        <ele>697</ele>
        <time>2018-10-14T08:18:53Z</time>
      </trkpt>
      <trkpt lat="45.66205" lon="4.59804">
        <ele>697</ele>
        <time>2018-10-14T08:18:55Z</time>
      </trkpt>
      <trkpt lat="45.66208" lon="4.59792">
        <ele>696</ele>
        <time>2018-10-14T08:18:56Z</time>
      </trkpt>
      <trkpt lat="45.66211" lon="4.59784">
        <ele>696</ele>
        <time>2018-10-14T08:18:57Z</time>
      </trkpt>
      <trkpt lat="45.66213" lon="4.5978">
        <ele>696</ele>
        <time>2018-10-14T08:18:58Z</time>
      </trkpt>
      <trkpt lat="45.66213" lon="4.59776">
        <ele>696</ele>
        <time>2018-10-14T08:18:59Z</time>
      </trkpt>
      <trkpt lat="45.66213" lon="4.59772">
        <ele>697</ele>
        <time>2018-10-14T08:19:00Z</time>
      </trkpt>
      <trkpt lat="45.66216" lon="4.59766">
        <ele>697</ele>
        <time>2018-10-14T08:19:01Z</time>
      </trkpt>
      <trkpt lat="45.66217" lon="4.59762">
        <ele>697</ele>
        <time>2018-10-14T08:19:02Z</time>
      </trkpt>
      <trkpt lat="45.66218" lon="4.59757">
        <ele>696</ele>
        <time>2018-10-14T08:19:03Z</time>
      </trkpt>
      <trkpt lat="45.66219" lon="4.59754">
        <ele>697</ele>
        <time>2018-10-14T08:19:04Z</time>
      </trkpt>
      <trkpt lat="45.66221" lon="4.59749">
        <ele>696</ele>
        <time>2018-10-14T08:19:05Z</time>
      </trkpt>
      <trkpt lat="45.66222" lon="4.59744">
        <ele>695</ele>
        <time>2018-10-14T08:19:06Z</time>
      </trkpt>
      <trkpt lat="45.66222" lon="4.5974">
        <ele>696</ele>
        <time>2018-10-14T08:19:07Z</time>
      </trkpt>
      <trkpt lat="45.66223" lon="4.59737">
        <ele>696</ele>
        <time>2018-10-14T08:19:08Z</time>
      </trkpt>
      <trkpt lat="45.66224" lon="4.59734">
        <ele>698</ele>
        <time>2018-10-14T08:19:09Z</time>
      </trkpt>
      <trkpt lat="45.66227" lon="4.59725">
        <ele>698</ele>
        <time>2018-10-14T08:19:11Z</time>
      </trkpt>
      <trkpt lat="45.6623" lon="4.59718">
        <ele>698</ele>
        <time>2018-10-14T08:19:12Z</time>
      </trkpt>
      <trkpt lat="45.6623" lon="4.59714">
        <ele>698</ele>
        <time>2018-10-14T08:19:13Z</time>
      </trkpt>
      <trkpt lat="45.66229" lon="4.5971">
        <ele>698</ele>
        <time>2018-10-14T08:19:14Z</time>
      </trkpt>
      <trkpt lat="45.66229" lon="4.59705">
        <ele>698</ele>
        <time>2018-10-14T08:19:15Z</time>
      </trkpt>
      <trkpt lat="45.66229" lon="4.59701">
        <ele>698</ele>
        <time>2018-10-14T08:19:16Z</time>
      </trkpt>
      <trkpt lat="45.66228" lon="4.59698">
        <ele>698</ele>
        <time>2018-10-14T08:19:17Z</time>
      </trkpt>
      <trkpt lat="45.66227" lon="4.59695">
        <ele>698</ele>
        <time>2018-10-14T08:19:18Z</time>
      </trkpt>
      <trkpt lat="45.66229" lon="4.59691">
        <ele>697</ele>
        <time>2018-10-14T08:19:19Z</time>
      </trkpt>
      <trkpt lat="45.66229" lon="4.59689">
        <ele>698</ele>
        <time>2018-10-14T08:19:20Z</time>
      </trkpt>
      <trkpt lat="45.66229" lon="4.59687">
        <ele>698</ele>
        <time>2018-10-14T08:19:21Z</time>
      </trkpt>
      <trkpt lat="45.66229" lon="4.59685">
        <ele>698</ele>
        <time>2018-10-14T08:19:22Z</time>
      </trkpt>
      <trkpt lat="45.66228" lon="4.59683">
        <ele>697</ele>
        <time>2018-10-14T08:19:23Z</time>
      </trkpt>
      <trkpt lat="45.66227" lon="4.59677">
        <ele>697</ele>
        <time>2018-10-14T08:19:25Z</time>
      </trkpt>
      <trkpt lat="45.66222" lon="4.59666">
        <ele>697</ele>
        <time>2018-10-14T08:19:26Z</time>
      </trkpt>
      <trkpt lat="45.66222" lon="4.59657">
        <ele>699</ele>
        <time>2018-10-14T08:19:27Z</time>
      </trkpt>
      <trkpt lat="45.66221" lon="4.59652">
        <ele>699</ele>
        <time>2018-10-14T08:19:28Z</time>
      </trkpt>
      <trkpt lat="45.66219" lon="4.59646">
        <ele>698</ele>
        <time>2018-10-14T08:19:29Z</time>
      </trkpt>
      <trkpt lat="45.66218" lon="4.59642">
        <ele>698</ele>
        <time>2018-10-14T08:19:30Z</time>
      </trkpt>
      <trkpt lat="45.66217" lon="4.59637">
        <ele>697</ele>
        <time>2018-10-14T08:19:31Z</time>
      </trkpt>
      <trkpt lat="45.66217" lon="4.59632">
        <ele>697</ele>
        <time>2018-10-14T08:19:32Z</time>
      </trkpt>
      <trkpt lat="45.66216" lon="4.59628">
        <ele>697</ele>
        <time>2018-10-14T08:19:33Z</time>
      </trkpt>
      <trkpt lat="45.66216" lon="4.59623">
        <ele>697</ele>
        <time>2018-10-14T08:19:34Z</time>
      </trkpt>
      <trkpt lat="45.66215" lon="4.5962">
        <ele>698</ele>
        <time>2018-10-14T08:19:35Z</time>
      </trkpt>
      <trkpt lat="45.66216" lon="4.59618">
        <ele>696</ele>
        <time>2018-10-14T08:19:36Z</time>
      </trkpt>
      <trkpt lat="45.66216" lon="4.59615">
        <ele>695</ele>
        <time>2018-10-14T08:19:37Z</time>
      </trkpt>
      <trkpt lat="45.66214" lon="4.59598">
        <ele>698</ele>
        <time>2018-10-14T08:19:39Z</time>
      </trkpt>
      <trkpt lat="45.66211" lon="4.59593">
        <ele>701</ele>
        <time>2018-10-14T08:19:40Z</time>
      </trkpt>
      <trkpt lat="45.66209" lon="4.59589">
        <ele>701</ele>
        <time>2018-10-14T08:19:41Z</time>
      </trkpt>
      <trkpt lat="45.66206" lon="4.59586">
        <ele>700</ele>
        <time>2018-10-14T08:19:42Z</time>
      </trkpt>
      <trkpt lat="45.66203" lon="4.59583">
        <ele>701</ele>
        <time>2018-10-14T08:19:43Z</time>
      </trkpt>
      <trkpt lat="45.66204" lon="4.59576">
        <ele>702</ele>
        <time>2018-10-14T08:19:44Z</time>
      </trkpt>
      <trkpt lat="45.66205" lon="4.59572">
        <ele>702</ele>
        <time>2018-10-14T08:19:45Z</time>
      </trkpt>
      <trkpt lat="45.66204" lon="4.59567">
        <ele>702</ele>
        <time>2018-10-14T08:19:46Z</time>
      </trkpt>
      <trkpt lat="45.66204" lon="4.59566">
        <ele>702</ele>
        <time>2018-10-14T08:19:47Z</time>
      </trkpt>
      <trkpt lat="45.66204" lon="4.59564">
        <ele>701</ele>
        <time>2018-10-14T08:19:48Z</time>
      </trkpt>
      <trkpt lat="45.66204" lon="4.59561">
        <ele>700</ele>
        <time>2018-10-14T08:19:49Z</time>
      </trkpt>
      <trkpt lat="45.66203" lon="4.59558">
        <ele>700</ele>
        <time>2018-10-14T08:19:50Z</time>
      </trkpt>
      <trkpt lat="45.66202" lon="4.59556">
        <ele>700</ele>
        <time>2018-10-14T08:19:51Z</time>
      </trkpt>
      <trkpt lat="45.66202" lon="4.59553">
        <ele>699</ele>
        <time>2018-10-14T08:19:52Z</time>
      </trkpt>
      <trkpt lat="45.66201" lon="4.59549">
        <ele>699</ele>
        <time>2018-10-14T08:19:53Z</time>
      </trkpt>
      <trkpt lat="45.66197" lon="4.5954">
        <ele>699</ele>
        <time>2018-10-14T08:19:54Z</time>
      </trkpt>
      <trkpt lat="45.66191" lon="4.59526">
        <ele>702</ele>
        <time>2018-10-14T08:19:55Z</time>
      </trkpt>
      <trkpt lat="45.66188" lon="4.59522">
        <ele>702</ele>
        <time>2018-10-14T08:19:56Z</time>
      </trkpt>
      <trkpt lat="45.66188" lon="4.59517">
        <ele>700</ele>
        <time>2018-10-14T08:19:57Z</time>
      </trkpt>
      <trkpt lat="45.66183" lon="4.59514">
        <ele>700</ele>
        <time>2018-10-14T08:19:58Z</time>
      </trkpt>
      <trkpt lat="45.6618" lon="4.59511">
        <ele>699</ele>
        <time>2018-10-14T08:19:59Z</time>
      </trkpt>
      <trkpt lat="45.66176" lon="4.59508">
        <ele>699</ele>
        <time>2018-10-14T08:20:00Z</time>
      </trkpt>
      <trkpt lat="45.66173" lon="4.59504">
        <ele>698</ele>
        <time>2018-10-14T08:20:01Z</time>
      </trkpt>
      <trkpt lat="45.66172" lon="4.59501">
        <ele>699</ele>
        <time>2018-10-14T08:20:02Z</time>
      </trkpt>
      <trkpt lat="45.66166" lon="4.59496">
        <ele>700</ele>
        <time>2018-10-14T08:20:03Z</time>
      </trkpt>
      <trkpt lat="45.66166" lon="4.59495">
        <ele>700</ele>
        <time>2018-10-14T08:20:04Z</time>
      </trkpt>
      <trkpt lat="45.66165" lon="4.59493">
        <ele>700</ele>
        <time>2018-10-14T08:20:05Z</time>
      </trkpt>
      <trkpt lat="45.66164" lon="4.59491">
        <ele>699</ele>
        <time>2018-10-14T08:20:06Z</time>
      </trkpt>
      <trkpt lat="45.66164" lon="4.59487">
        <ele>699</ele>
        <time>2018-10-14T08:20:07Z</time>
      </trkpt>
      <trkpt lat="45.66152" lon="4.59474">
        <ele>699</ele>
        <time>2018-10-14T08:20:08Z</time>
      </trkpt>
      <trkpt lat="45.66151" lon="4.59468">
        <ele>701</ele>
        <time>2018-10-14T08:20:09Z</time>
      </trkpt>
      <trkpt lat="45.66149" lon="4.59464">
        <ele>701</ele>
        <time>2018-10-14T08:20:10Z</time>
      </trkpt>
      <trkpt lat="45.66146" lon="4.5946">
        <ele>700</ele>
        <time>2018-10-14T08:20:11Z</time>
      </trkpt>
      <trkpt lat="45.66143" lon="4.59455">
        <ele>701</ele>
        <time>2018-10-14T08:20:12Z</time>
      </trkpt>
      <trkpt lat="45.66137" lon="4.59453">
        <ele>701</ele>
        <time>2018-10-14T08:20:13Z</time>
      </trkpt>
      <trkpt lat="45.66135" lon="4.5945">
        <ele>702</ele>
        <time>2018-10-14T08:20:14Z</time>
      </trkpt>
      <trkpt lat="45.66134" lon="4.59448">
        <ele>701</ele>
        <time>2018-10-14T08:20:15Z</time>
      </trkpt>
      <trkpt lat="45.66132" lon="4.59446">
        <ele>701</ele>
        <time>2018-10-14T08:20:16Z</time>
      </trkpt>
      <trkpt lat="45.66131" lon="4.59444">
        <ele>700</ele>
        <time>2018-10-14T08:20:17Z</time>
      </trkpt>
      <trkpt lat="45.6613" lon="4.59442">
        <ele>700</ele>
        <time>2018-10-14T08:20:18Z</time>
      </trkpt>
      <trkpt lat="45.66127" lon="4.59439">
        <ele>699</ele>
        <time>2018-10-14T08:20:19Z</time>
      </trkpt>
      <trkpt lat="45.66126" lon="4.59437">
        <ele>699</ele>
        <time>2018-10-14T08:20:20Z</time>
      </trkpt>
      <trkpt lat="45.66125" lon="4.59434">
        <ele>698</ele>
        <time>2018-10-14T08:20:21Z</time>
      </trkpt>
      <trkpt lat="45.66118" lon="4.59424">
        <ele>698</ele>
        <time>2018-10-14T08:20:22Z</time>
      </trkpt>
      <trkpt lat="45.66107" lon="4.59412">
        <ele>697</ele>
        <time>2018-10-14T08:20:23Z</time>
      </trkpt>
      <trkpt lat="45.66102" lon="4.59408">
        <ele>697</ele>
        <time>2018-10-14T08:20:24Z</time>
      </trkpt>
      <trkpt lat="45.66098" lon="4.59403">
        <ele>698</ele>
        <time>2018-10-14T08:20:25Z</time>
      </trkpt>
      <trkpt lat="45.66095" lon="4.59401">
        <ele>698</ele>
        <time>2018-10-14T08:20:26Z</time>
      </trkpt>
      <trkpt lat="45.66092" lon="4.59401">
        <ele>698</ele>
        <time>2018-10-14T08:20:27Z</time>
      </trkpt>
      <trkpt lat="45.66087" lon="4.594">
        <ele>699</ele>
        <time>2018-10-14T08:20:28Z</time>
      </trkpt>
      <trkpt lat="45.66082" lon="4.59397">
        <ele>699</ele>
        <time>2018-10-14T08:20:29Z</time>
      </trkpt>
      <trkpt lat="45.6608" lon="4.59396">
        <ele>699</ele>
        <time>2018-10-14T08:20:30Z</time>
      </trkpt>
      <trkpt lat="45.66077" lon="4.59396">
        <ele>700</ele>
        <time>2018-10-14T08:20:31Z</time>
      </trkpt>
      <trkpt lat="45.66075" lon="4.59395">
        <ele>700</ele>
        <time>2018-10-14T08:20:32Z</time>
      </trkpt>
      <trkpt lat="45.66073" lon="4.59394">
        <ele>700</ele>
        <time>2018-10-14T08:20:33Z</time>
      </trkpt>
      <trkpt lat="45.66071" lon="4.59393">
        <ele>700</ele>
        <time>2018-10-14T08:20:34Z</time>
      </trkpt>
      <trkpt lat="45.66068" lon="4.59393">
        <ele>699</ele>
        <time>2018-10-14T08:20:35Z</time>
      </trkpt>
      <trkpt lat="45.66066" lon="4.59393">
        <ele>699</ele>
        <time>2018-10-14T08:20:36Z</time>
      </trkpt>
      <trkpt lat="45.66054" lon="4.59396">
        <ele>698</ele>
        <time>2018-10-14T08:20:37Z</time>
      </trkpt>
      <trkpt lat="45.66039" lon="4.59394">
        <ele>703</ele>
        <time>2018-10-14T08:20:38Z</time>
      </trkpt>
      <trkpt lat="45.66035" lon="4.59394">
        <ele>703</ele>
        <time>2018-10-14T08:20:39Z</time>
      </trkpt>
      <trkpt lat="45.66032" lon="4.59398">
        <ele>703</ele>
        <time>2018-10-14T08:20:40Z</time>
      </trkpt>
      <trkpt lat="45.66027" lon="4.59399">
        <ele>703</ele>
        <time>2018-10-14T08:20:41Z</time>
      </trkpt>
      <trkpt lat="45.66021" lon="4.59398">
        <ele>703</ele>
        <time>2018-10-14T08:20:42Z</time>
      </trkpt>
      <trkpt lat="45.66021" lon="4.59405">
        <ele>702</ele>
        <time>2018-10-14T08:20:43Z</time>
      </trkpt>
      <trkpt lat="45.66017" lon="4.59407">
        <ele>702</ele>
        <time>2018-10-14T08:20:44Z</time>
      </trkpt>
      <trkpt lat="45.66013" lon="4.59411">
        <ele>702</ele>
        <time>2018-10-14T08:20:45Z</time>
      </trkpt>
      <trkpt lat="45.6601" lon="4.59414">
        <ele>702</ele>
        <time>2018-10-14T08:20:46Z</time>
      </trkpt>
      <trkpt lat="45.66007" lon="4.59417">
        <ele>702</ele>
        <time>2018-10-14T08:20:47Z</time>
      </trkpt>
      <trkpt lat="45.66004" lon="4.5942">
        <ele>703</ele>
        <time>2018-10-14T08:20:48Z</time>
      </trkpt>
      <trkpt lat="45.66" lon="4.59423">
        <ele>704</ele>
        <time>2018-10-14T08:20:49Z</time>
      </trkpt>
      <trkpt lat="45.65998" lon="4.59425">
        <ele>702</ele>
        <time>2018-10-14T08:20:51Z</time>
      </trkpt>
      <trkpt lat="45.65997" lon="4.59427">
        <ele>703</ele>
        <time>2018-10-14T08:20:52Z</time>
      </trkpt>
      <trkpt lat="45.65993" lon="4.59431">
        <ele>703</ele>
        <time>2018-10-14T08:20:53Z</time>
      </trkpt>
      <trkpt lat="45.65984" lon="4.59438">
        <ele>703</ele>
        <time>2018-10-14T08:20:54Z</time>
      </trkpt>
      <trkpt lat="45.6598" lon="4.5944">
        <ele>703</ele>
        <time>2018-10-14T08:20:55Z</time>
      </trkpt>
      <trkpt lat="45.65976" lon="4.59443">
        <ele>703</ele>
        <time>2018-10-14T08:20:56Z</time>
      </trkpt>
      <trkpt lat="45.65973" lon="4.59446">
        <ele>703</ele>
        <time>2018-10-14T08:20:57Z</time>
      </trkpt>
      <trkpt lat="45.65969" lon="4.59448">
        <ele>704</ele>
        <time>2018-10-14T08:20:58Z</time>
      </trkpt>
      <trkpt lat="45.65966" lon="4.59451">
        <ele>704</ele>
        <time>2018-10-14T08:20:59Z</time>
      </trkpt>
      <trkpt lat="45.65963" lon="4.59454">
        <ele>704</ele>
        <time>2018-10-14T08:21:00Z</time>
      </trkpt>
      <trkpt lat="45.65961" lon="4.59456">
        <ele>704</ele>
        <time>2018-10-14T08:21:01Z</time>
      </trkpt>
      <trkpt lat="45.6596" lon="4.59458">
        <ele>702</ele>
        <time>2018-10-14T08:21:02Z</time>
      </trkpt>
      <trkpt lat="45.65959" lon="4.59461">
        <ele>702</ele>
        <time>2018-10-14T08:21:03Z</time>
      </trkpt>
      <trkpt lat="45.65957" lon="4.59463">
        <ele>701</ele>
        <time>2018-10-14T08:21:04Z</time>
      </trkpt>
      <trkpt lat="45.65956" lon="4.59465">
        <ele>701</ele>
        <time>2018-10-14T08:21:05Z</time>
      </trkpt>
      <trkpt lat="45.65953" lon="4.59468">
        <ele>701</ele>
        <time>2018-10-14T08:21:07Z</time>
      </trkpt>
      <trkpt lat="45.65948" lon="4.59474">
        <ele>702</ele>
        <time>2018-10-14T08:21:08Z</time>
      </trkpt>
      <trkpt lat="45.65939" lon="4.59481">
        <ele>702</ele>
        <time>2018-10-14T08:21:09Z</time>
      </trkpt>
      <trkpt lat="45.65936" lon="4.59484">
        <ele>703</ele>
        <time>2018-10-14T08:21:10Z</time>
      </trkpt>
      <trkpt lat="45.65933" lon="4.59486">
        <ele>703</ele>
        <time>2018-10-14T08:21:11Z</time>
      </trkpt>
      <trkpt lat="45.65929" lon="4.59488">
        <ele>704</ele>
        <time>2018-10-14T08:21:12Z</time>
      </trkpt>
      <trkpt lat="45.65926" lon="4.59491">
        <ele>704</ele>
        <time>2018-10-14T08:21:13Z</time>
      </trkpt>
      <trkpt lat="45.65924" lon="4.59494">
        <ele>704</ele>
        <time>2018-10-14T08:21:14Z</time>
      </trkpt>
      <trkpt lat="45.6592" lon="4.59497">
        <ele>704</ele>
        <time>2018-10-14T08:21:15Z</time>
      </trkpt>
      <trkpt lat="45.65918" lon="4.59499">
        <ele>705</ele>
        <time>2018-10-14T08:21:16Z</time>
      </trkpt>
      <trkpt lat="45.65915" lon="4.595">
        <ele>705</ele>
        <time>2018-10-14T08:21:17Z</time>
      </trkpt>
      <trkpt lat="45.65914" lon="4.59501">
        <ele>705</ele>
        <time>2018-10-14T08:21:18Z</time>
      </trkpt>
      <trkpt lat="45.65912" lon="4.59503">
        <ele>704</ele>
        <time>2018-10-14T08:21:19Z</time>
      </trkpt>
      <trkpt lat="45.65911" lon="4.59505">
        <ele>704</ele>
        <time>2018-10-14T08:21:20Z</time>
      </trkpt>
      <trkpt lat="45.65909" lon="4.59507">
        <ele>705</ele>
        <time>2018-10-14T08:21:21Z</time>
      </trkpt>
      <trkpt lat="45.65907" lon="4.59508">
        <ele>706</ele>
        <time>2018-10-14T08:21:22Z</time>
      </trkpt>
      <trkpt lat="45.65906" lon="4.59509">
        <ele>706</ele>
        <time>2018-10-14T08:21:23Z</time>
      </trkpt>
      <trkpt lat="45.65898" lon="4.59515">
        <ele>706</ele>
        <time>2018-10-14T08:21:24Z</time>
      </trkpt>
      <trkpt lat="45.65889" lon="4.59522">
        <ele>708</ele>
        <time>2018-10-14T08:21:25Z</time>
      </trkpt>
      <trkpt lat="45.65886" lon="4.59524">
        <ele>709</ele>
        <time>2018-10-14T08:21:26Z</time>
      </trkpt>
      <trkpt lat="45.65883" lon="4.59526">
        <ele>710</ele>
        <time>2018-10-14T08:21:27Z</time>
      </trkpt>
      <trkpt lat="45.65879" lon="4.59529">
        <ele>710</ele>
        <time>2018-10-14T08:21:28Z</time>
      </trkpt>
      <trkpt lat="45.65876" lon="4.59533">
        <ele>710</ele>
        <time>2018-10-14T08:21:29Z</time>
      </trkpt>
      <trkpt lat="45.65873" lon="4.59535">
        <ele>710</ele>
        <time>2018-10-14T08:21:30Z</time>
      </trkpt>
      <trkpt lat="45.65869" lon="4.59537">
        <ele>710</ele>
        <time>2018-10-14T08:21:31Z</time>
      </trkpt>
      <trkpt lat="45.65865" lon="4.59539">
        <ele>711</ele>
        <time>2018-10-14T08:21:32Z</time>
      </trkpt>
      <trkpt lat="45.65863" lon="4.5954">
        <ele>711</ele>
        <time>2018-10-14T08:21:33Z</time>
      </trkpt>
      <trkpt lat="45.65862" lon="4.59542">
        <ele>710</ele>
        <time>2018-10-14T08:21:34Z</time>
      </trkpt>
      <trkpt lat="45.65861" lon="4.59543">
        <ele>711</ele>
        <time>2018-10-14T08:21:35Z</time>
      </trkpt>
      <trkpt lat="45.65859" lon="4.59544">
        <ele>711</ele>
        <time>2018-10-14T08:21:36Z</time>
      </trkpt>
      <trkpt lat="45.65856" lon="4.59548">
        <ele>710</ele>
        <time>2018-10-14T08:21:38Z</time>
      </trkpt>
      <trkpt lat="45.65852" lon="4.59552">
        <ele>710</ele>
        <time>2018-10-14T08:21:39Z</time>
      </trkpt>
      <trkpt lat="45.65846" lon="4.59561">
        <ele>710</ele>
        <time>2018-10-14T08:21:40Z</time>
      </trkpt>
      <trkpt lat="45.6584" lon="4.59566">
        <ele>710</ele>
        <time>2018-10-14T08:21:41Z</time>
      </trkpt>
      <trkpt lat="45.65837" lon="4.59567">
        <ele>712</ele>
        <time>2018-10-14T08:21:42Z</time>
      </trkpt>
      <trkpt lat="45.65834" lon="4.59569">
        <ele>712</ele>
        <time>2018-10-14T08:21:43Z</time>
      </trkpt>
      <trkpt lat="45.65832" lon="4.59571">
        <ele>712</ele>
        <time>2018-10-14T08:21:44Z</time>
      </trkpt>
      <trkpt lat="45.65829" lon="4.59574">
        <ele>713</ele>
        <time>2018-10-14T08:21:45Z</time>
      </trkpt>
      <trkpt lat="45.65826" lon="4.59577">
        <ele>713</ele>
        <time>2018-10-14T08:21:46Z</time>
      </trkpt>
      <trkpt lat="45.65824" lon="4.59579">
        <ele>713</ele>
        <time>2018-10-14T08:21:47Z</time>
      </trkpt>
      <trkpt lat="45.65821" lon="4.59581">
        <ele>713</ele>
        <time>2018-10-14T08:21:48Z</time>
      </trkpt>
      <trkpt lat="45.6582" lon="4.59583">
        <ele>713</ele>
        <time>2018-10-14T08:21:49Z</time>
      </trkpt>
      <trkpt lat="45.65818" lon="4.59584">
        <ele>714</ele>
        <time>2018-10-14T08:21:50Z</time>
      </trkpt>
      <trkpt lat="45.65817" lon="4.59586">
        <ele>714</ele>
        <time>2018-10-14T08:21:51Z</time>
      </trkpt>
      <trkpt lat="45.65815" lon="4.59587">
        <ele>714</ele>
        <time>2018-10-14T08:21:52Z</time>
      </trkpt>
      <trkpt lat="45.65814" lon="4.59589">
        <ele>714</ele>
        <time>2018-10-14T08:21:53Z</time>
      </trkpt>
      <trkpt lat="45.65812" lon="4.59591">
        <ele>715</ele>
        <time>2018-10-14T08:21:55Z</time>
      </trkpt>
      <trkpt lat="45.65811" lon="4.59592">
        <ele>714</ele>
        <time>2018-10-14T08:21:56Z</time>
      </trkpt>
      <trkpt lat="45.6581" lon="4.59593">
        <ele>714</ele>
        <time>2018-10-14T08:21:57Z</time>
      </trkpt>
      <trkpt lat="45.65809" lon="4.59594">
        <ele>713</ele>
        <time>2018-10-14T08:22:02Z</time>
      </trkpt>
      <trkpt lat="45.65808" lon="4.59593">
        <ele>715</ele>
        <time>2018-10-14T08:22:04Z</time>
      </trkpt>
      <trkpt lat="45.65807" lon="4.59593">
        <ele>716</ele>
        <time>2018-10-14T08:22:05Z</time>
      </trkpt>
      <trkpt lat="45.65807" lon="4.59592">
        <ele>717</ele>
        <time>2018-10-14T08:22:08Z</time>
      </trkpt>
      <trkpt lat="45.65807" lon="4.59593">
        <ele>716</ele>
        <time>2018-10-14T08:22:09Z</time>
      </trkpt>
      <trkpt lat="45.65808" lon="4.59594">
        <ele>716</ele>
        <time>2018-10-14T08:22:13Z</time>
      </trkpt>
      <trkpt lat="45.65808" lon="4.59595">
        <ele>716</ele>
        <time>2018-10-14T08:22:14Z</time>
      </trkpt>
      <trkpt lat="45.65807" lon="4.59596">
        <ele>717</ele>
        <time>2018-10-14T08:22:15Z</time>
      </trkpt>
      <trkpt lat="45.65806" lon="4.59597">
        <ele>716</ele>
        <time>2018-10-14T08:22:16Z</time>
      </trkpt>
      <trkpt lat="45.65804" lon="4.59599">
        <ele>717</ele>
        <time>2018-10-14T08:22:17Z</time>
      </trkpt>
      <trkpt lat="45.65802" lon="4.596">
        <ele>717</ele>
        <time>2018-10-14T08:22:18Z</time>
      </trkpt>
      <trkpt lat="45.65801" lon="4.59602">
        <ele>717</ele>
        <time>2018-10-14T08:22:19Z</time>
      </trkpt>
      <trkpt lat="45.65799" lon="4.59604">
        <ele>717</ele>
        <time>2018-10-14T08:22:20Z</time>
      </trkpt>
      <trkpt lat="45.65797" lon="4.59605">
        <ele>717</ele>
        <time>2018-10-14T08:22:21Z</time>
      </trkpt>
      <trkpt lat="45.65796" lon="4.59607">
        <ele>716</ele>
        <time>2018-10-14T08:22:22Z</time>
      </trkpt>
      <trkpt lat="45.65793" lon="4.59608">
        <ele>715</ele>
        <time>2018-10-14T08:22:23Z</time>
      </trkpt>
      <trkpt lat="45.65791" lon="4.5961">
        <ele>715</ele>
        <time>2018-10-14T08:22:24Z</time>
      </trkpt>
      <trkpt lat="45.65789" lon="4.59612">
        <ele>715</ele>
        <time>2018-10-14T08:22:25Z</time>
      </trkpt>
      <trkpt lat="45.65787" lon="4.59613">
        <ele>715</ele>
        <time>2018-10-14T08:22:26Z</time>
      </trkpt>
      <trkpt lat="45.65785" lon="4.59615">
        <ele>715</ele>
        <time>2018-10-14T08:22:27Z</time>
      </trkpt>
      <trkpt lat="45.65782" lon="4.59616">
        <ele>715</ele>
        <time>2018-10-14T08:22:28Z</time>
      </trkpt>
      <trkpt lat="45.6578" lon="4.59618">
        <ele>715</ele>
        <time>2018-10-14T08:22:29Z</time>
      </trkpt>
      <trkpt lat="45.65777" lon="4.59619">
        <ele>716</ele>
        <time>2018-10-14T08:22:30Z</time>
      </trkpt>
      <trkpt lat="45.65775" lon="4.59621">
        <ele>715</ele>
        <time>2018-10-14T08:22:31Z</time>
      </trkpt>
      <trkpt lat="45.65772" lon="4.59622">
        <ele>715</ele>
        <time>2018-10-14T08:22:32Z</time>
      </trkpt>
      <trkpt lat="45.65769" lon="4.59623">
        <ele>716</ele>
        <time>2018-10-14T08:22:33Z</time>
      </trkpt>
      <trkpt lat="45.65766" lon="4.59624">
        <ele>716</ele>
        <time>2018-10-14T08:22:34Z</time>
      </trkpt>
      <trkpt lat="45.65763" lon="4.59625">
        <ele>715</ele>
        <time>2018-10-14T08:22:35Z</time>
      </trkpt>
      <trkpt lat="45.6576" lon="4.59626">
        <ele>715</ele>
        <time>2018-10-14T08:22:36Z</time>
      </trkpt>
      <trkpt lat="45.65757" lon="4.59626">
        <ele>715</ele>
        <time>2018-10-14T08:22:37Z</time>
      </trkpt>
      <trkpt lat="45.65754" lon="4.59627">
        <ele>715</ele>
        <time>2018-10-14T08:22:38Z</time>
      </trkpt>
      <trkpt lat="45.65751" lon="4.59627">
        <ele>715</ele>
        <time>2018-10-14T08:22:39Z</time>
      </trkpt>
      <trkpt lat="45.65748" lon="4.59627">
        <ele>715</ele>
        <time>2018-10-14T08:22:40Z</time>
      </trkpt>
      <trkpt lat="45.65742" lon="4.59628">
        <ele>716</ele>
        <time>2018-10-14T08:22:41Z</time>
      </trkpt>
      <trkpt lat="45.65739" lon="4.59628">
        <ele>715</ele>
        <time>2018-10-14T08:22:42Z</time>
      </trkpt>
      <trkpt lat="45.65736" lon="4.59628">
        <ele>714</ele>
        <time>2018-10-14T08:22:43Z</time>
      </trkpt>
      <trkpt lat="45.65733" lon="4.59626">
        <ele>714</ele>
        <time>2018-10-14T08:22:44Z</time>
      </trkpt>
      <trkpt lat="45.6573" lon="4.59626">
        <ele>715</ele>
        <time>2018-10-14T08:22:45Z</time>
      </trkpt>
      <trkpt lat="45.65727" lon="4.59625">
        <ele>715</ele>
        <time>2018-10-14T08:22:46Z</time>
      </trkpt>
      <trkpt lat="45.65724" lon="4.59623">
        <ele>715</ele>
        <time>2018-10-14T08:22:47Z</time>
      </trkpt>
      <trkpt lat="45.65721" lon="4.59621">
        <ele>716</ele>
        <time>2018-10-14T08:22:48Z</time>
      </trkpt>
      <trkpt lat="45.65718" lon="4.59621">
        <ele>716</ele>
        <time>2018-10-14T08:22:49Z</time>
      </trkpt>
      <trkpt lat="45.65714" lon="4.59619">
        <ele>717</ele>
        <time>2018-10-14T08:22:50Z</time>
      </trkpt>
      <trkpt lat="45.65712" lon="4.59618">
        <ele>717</ele>
        <time>2018-10-14T08:22:51Z</time>
      </trkpt>
      <trkpt lat="45.6571" lon="4.59616">
        <ele>718</ele>
        <time>2018-10-14T08:22:53Z</time>
      </trkpt>
      <trkpt lat="45.65707" lon="4.59613">
        <ele>718</ele>
        <time>2018-10-14T08:22:54Z</time>
      </trkpt>
      <trkpt lat="45.65702" lon="4.59612">
        <ele>720</ele>
        <time>2018-10-14T08:22:55Z</time>
      </trkpt>
      <trkpt lat="45.657" lon="4.5961">
        <ele>720</ele>
        <time>2018-10-14T08:22:56Z</time>
      </trkpt>
      <trkpt lat="45.65696" lon="4.59609">
        <ele>720</ele>
        <time>2018-10-14T08:22:57Z</time>
      </trkpt>
      <trkpt lat="45.65694" lon="4.59607">
        <ele>719</ele>
        <time>2018-10-14T08:22:58Z</time>
      </trkpt>
      <trkpt lat="45.65693" lon="4.59605">
        <ele>719</ele>
        <time>2018-10-14T08:22:59Z</time>
      </trkpt>
      <trkpt lat="45.65691" lon="4.59604">
        <ele>719</ele>
        <time>2018-10-14T08:23:00Z</time>
      </trkpt>
      <trkpt lat="45.6569" lon="4.59603">
        <ele>719</ele>
        <time>2018-10-14T08:23:01Z</time>
      </trkpt>
      <trkpt lat="45.6569" lon="4.59602">
        <ele>718</ele>
        <time>2018-10-14T08:23:08Z</time>
      </trkpt>
      <trkpt lat="45.65689" lon="4.596">
        <ele>718</ele>
        <time>2018-10-14T08:23:09Z</time>
      </trkpt>
      <trkpt lat="45.65688" lon="4.596">
        <ele>718</ele>
        <time>2018-10-14T08:23:10Z</time>
      </trkpt>
      <trkpt lat="45.65687" lon="4.596">
        <ele>718</ele>
        <time>2018-10-14T08:23:11Z</time>
      </trkpt>
      <trkpt lat="45.65687" lon="4.596">
        <ele>718</ele>
        <time>2018-10-14T08:23:12Z</time>
      </trkpt>
      <trkpt lat="45.65685" lon="4.596">
        <ele>718</ele>
        <time>2018-10-14T08:23:13Z</time>
      </trkpt>
      <trkpt lat="45.65683" lon="4.59601">
        <ele>717</ele>
        <time>2018-10-14T08:23:14Z</time>
      </trkpt>
      <trkpt lat="45.65682" lon="4.59601">
        <ele>717</ele>
        <time>2018-10-14T08:23:15Z</time>
      </trkpt>
      <trkpt lat="45.65682" lon="4.59602">
        <ele>715</ele>
        <time>2018-10-14T08:23:16Z</time>
      </trkpt>
      <trkpt lat="45.6568" lon="4.59604">
        <ele>714</ele>
        <time>2018-10-14T08:23:17Z</time>
      </trkpt>
      <trkpt lat="45.65677" lon="4.59606">
        <ele>713</ele>
        <time>2018-10-14T08:23:18Z</time>
      </trkpt>
      <trkpt lat="45.65674" lon="4.59608">
        <ele>712</ele>
        <time>2018-10-14T08:23:19Z</time>
      </trkpt>
      <trkpt lat="45.65672" lon="4.5961">
        <ele>711</ele>
        <time>2018-10-14T08:23:20Z</time>
      </trkpt>
      <trkpt lat="45.65671" lon="4.59611">
        <ele>714</ele>
        <time>2018-10-14T08:23:21Z</time>
      </trkpt>
      <trkpt lat="45.6567" lon="4.59612">
        <ele>714</ele>
        <time>2018-10-14T08:23:22Z</time>
      </trkpt>
      <trkpt lat="45.65671" lon="4.59615">
        <ele>712</ele>
        <time>2018-10-14T08:23:23Z</time>
      </trkpt>
      <trkpt lat="45.65672" lon="4.59618">
        <ele>712</ele>
        <time>2018-10-14T08:23:24Z</time>
      </trkpt>
      <trkpt lat="45.65673" lon="4.5962">
        <ele>712</ele>
        <time>2018-10-14T08:23:25Z</time>
      </trkpt>
      <trkpt lat="45.65675" lon="4.5962">
        <ele>712</ele>
        <time>2018-10-14T08:23:26Z</time>
      </trkpt>
      <trkpt lat="45.65677" lon="4.5962">
        <ele>712</ele>
        <time>2018-10-14T08:23:27Z</time>
      </trkpt>
      <trkpt lat="45.65678" lon="4.5962">
        <ele>712</ele>
        <time>2018-10-14T08:23:28Z</time>
      </trkpt>
      <trkpt lat="45.6568" lon="4.5962">
        <ele>712</ele>
        <time>2018-10-14T08:23:29Z</time>
      </trkpt>
      <trkpt lat="45.65682" lon="4.5962">
        <ele>712</ele>
        <time>2018-10-14T08:23:30Z</time>
      </trkpt>
      <trkpt lat="45.65683" lon="4.5962">
        <ele>712</ele>
        <time>2018-10-14T08:23:31Z</time>
      </trkpt>
      <trkpt lat="45.65684" lon="4.5962">
        <ele>712</ele>
        <time>2018-10-14T08:23:32Z</time>
      </trkpt>
      <trkpt lat="45.65685" lon="4.5962">
        <ele>712</ele>
        <time>2018-10-14T08:23:33Z</time>
      </trkpt>
      <trkpt lat="45.65685" lon="4.59619">
        <ele>712</ele>
        <time>2018-10-14T08:23:35Z</time>
      </trkpt>
      <trkpt lat="45.65682" lon="4.59618">
        <ele>710</ele>
        <time>2018-10-14T08:27:02Z</time>
      </trkpt>
      <trkpt lat="45.65683" lon="4.59618">
        <ele>709</ele>
        <time>2018-10-14T08:27:09Z</time>
      </trkpt>
      <trkpt lat="45.65682" lon="4.59618">
        <ele>709</ele>
        <time>2018-10-14T08:27:10Z</time>
      </trkpt>
      <trkpt lat="45.65681" lon="4.59618">
        <ele>709</ele>
        <time>2018-10-14T08:27:23Z</time>
      </trkpt>
      <trkpt lat="45.6568" lon="4.59617">
        <ele>710</ele>
        <time>2018-10-14T08:27:24Z</time>
      </trkpt>
      <trkpt lat="45.65679" lon="4.59617">
        <ele>711</ele>
        <time>2018-10-14T08:27:25Z</time>
      </trkpt>
      <trkpt lat="45.65678" lon="4.59617">
        <ele>712</ele>
        <time>2018-10-14T08:27:26Z</time>
      </trkpt>
      <trkpt lat="45.65677" lon="4.59618">
        <ele>713</ele>
        <time>2018-10-14T08:27:27Z</time>
      </trkpt>
      <trkpt lat="45.65675" lon="4.59619">
        <ele>713</ele>
        <time>2018-10-14T08:27:28Z</time>
      </trkpt>
      <trkpt lat="45.65674" lon="4.59618">
        <ele>712</ele>
        <time>2018-10-14T08:27:29Z</time>
      </trkpt>
      <trkpt lat="45.65672" lon="4.59618">
        <ele>712</ele>
        <time>2018-10-14T08:27:30Z</time>
      </trkpt>
      <trkpt lat="45.6567" lon="4.59618">
        <ele>713</ele>
        <time>2018-10-14T08:27:31Z</time>
      </trkpt>
      <trkpt lat="45.65668" lon="4.59619">
        <ele>713</ele>
        <time>2018-10-14T08:27:32Z</time>
      </trkpt>
      <trkpt lat="45.65667" lon="4.59619">
        <ele>713</ele>
        <time>2018-10-14T08:27:33Z</time>
      </trkpt>
      <trkpt lat="45.65665" lon="4.5962">
        <ele>714</ele>
        <time>2018-10-14T08:27:34Z</time>
      </trkpt>
      <trkpt lat="45.65663" lon="4.59621">
        <ele>713</ele>
        <time>2018-10-14T08:27:35Z</time>
      </trkpt>
      <trkpt lat="45.65661" lon="4.59622">
        <ele>713</ele>
        <time>2018-10-14T08:27:36Z</time>
      </trkpt>
      <trkpt lat="45.6566" lon="4.59624">
        <ele>714</ele>
        <time>2018-10-14T08:27:37Z</time>
      </trkpt>
      <trkpt lat="45.65659" lon="4.59624">
        <ele>714</ele>
        <time>2018-10-14T08:27:38Z</time>
      </trkpt>
      <trkpt lat="45.65657" lon="4.59626">
        <ele>713</ele>
        <time>2018-10-14T08:27:39Z</time>
      </trkpt>
      <trkpt lat="45.65656" lon="4.59627">
        <ele>713</ele>
        <time>2018-10-14T08:27:40Z</time>
      </trkpt>
      <trkpt lat="45.65655" lon="4.59628">
        <ele>713</ele>
        <time>2018-10-14T08:27:41Z</time>
      </trkpt>
      <trkpt lat="45.65654" lon="4.59629">
        <ele>712</ele>
        <time>2018-10-14T08:27:42Z</time>
      </trkpt>
      <trkpt lat="45.65652" lon="4.59631">
        <ele>712</ele>
        <time>2018-10-14T08:27:43Z</time>
      </trkpt>
      <trkpt lat="45.65651" lon="4.59632">
        <ele>712</ele>
        <time>2018-10-14T08:27:44Z</time>
      </trkpt>
      <trkpt lat="45.65649" lon="4.59633">
        <ele>712</ele>
        <time>2018-10-14T08:27:45Z</time>
      </trkpt>
      <trkpt lat="45.65648" lon="4.59634">
        <ele>711</ele>
        <time>2018-10-14T08:27:46Z</time>
      </trkpt>
      <trkpt lat="45.65646" lon="4.59635">
        <ele>710</ele>
        <time>2018-10-14T08:27:47Z</time>
      </trkpt>
      <trkpt lat="45.65644" lon="4.59636">
        <ele>711</ele>
        <time>2018-10-14T08:27:48Z</time>
      </trkpt>
      <trkpt lat="45.65643" lon="4.59637">
        <ele>711</ele>
        <time>2018-10-14T08:27:49Z</time>
      </trkpt>
      <trkpt lat="45.65641" lon="4.59638">
        <ele>711</ele>
        <time>2018-10-14T08:27:50Z</time>
      </trkpt>
      <trkpt lat="45.6564" lon="4.59639">
        <ele>711</ele>
        <time>2018-10-14T08:27:51Z</time>
      </trkpt>
      <trkpt lat="45.65638" lon="4.5964">
        <ele>711</ele>
        <time>2018-10-14T08:27:52Z</time>
      </trkpt>
      <trkpt lat="45.65636" lon="4.59642">
        <ele>711</ele>
        <time>2018-10-14T08:27:53Z</time>
      </trkpt>
      <trkpt lat="45.65635" lon="4.59643">
        <ele>711</ele>
        <time>2018-10-14T08:27:54Z</time>
      </trkpt>
      <trkpt lat="45.65634" lon="4.59644">
        <ele>711</ele>
        <time>2018-10-14T08:27:55Z</time>
      </trkpt>
      <trkpt lat="45.65633" lon="4.59646">
        <ele>711</ele>
        <time>2018-10-14T08:27:56Z</time>
      </trkpt>
      <trkpt lat="45.65632" lon="4.59646">
        <ele>711</ele>
        <time>2018-10-14T08:27:57Z</time>
      </trkpt>
      <trkpt lat="45.65629" lon="4.59647">
        <ele>711</ele>
        <time>2018-10-14T08:27:59Z</time>
      </trkpt>
      <trkpt lat="45.65628" lon="4.59648">
        <ele>712</ele>
        <time>2018-10-14T08:28:00Z</time>
      </trkpt>
      <trkpt lat="45.65626" lon="4.59649">
        <ele>712</ele>
        <time>2018-10-14T08:28:01Z</time>
      </trkpt>
      <trkpt lat="45.65624" lon="4.59649">
        <ele>713</ele>
        <time>2018-10-14T08:28:02Z</time>
      </trkpt>
      <trkpt lat="45.65622" lon="4.59649">
        <ele>713</ele>
        <time>2018-10-14T08:28:03Z</time>
      </trkpt>
      <trkpt lat="45.6562" lon="4.59649">
        <ele>715</ele>
        <time>2018-10-14T08:28:05Z</time>
      </trkpt>
      <trkpt lat="45.65617" lon="4.59649">
        <ele>715</ele>
        <time>2018-10-14T08:28:06Z</time>
      </trkpt>
      <trkpt lat="45.65616" lon="4.59648">
        <ele>715</ele>
        <time>2018-10-14T08:28:07Z</time>
      </trkpt>
      <trkpt lat="45.65614" lon="4.59647">
        <ele>715</ele>
        <time>2018-10-14T08:28:08Z</time>
      </trkpt>
      <trkpt lat="45.65613" lon="4.59646">
        <ele>716</ele>
        <time>2018-10-14T08:28:09Z</time>
      </trkpt>
      <trkpt lat="45.65612" lon="4.59644">
        <ele>717</ele>
        <time>2018-10-14T08:28:10Z</time>
      </trkpt>
      <trkpt lat="45.65611" lon="4.59642">
        <ele>717</ele>
        <time>2018-10-14T08:28:11Z</time>
      </trkpt>
      <trkpt lat="45.6561" lon="4.5964">
        <ele>717</ele>
        <time>2018-10-14T08:28:12Z</time>
      </trkpt>
      <trkpt lat="45.65609" lon="4.59638">
        <ele>718</ele>
        <time>2018-10-14T08:28:13Z</time>
      </trkpt>
      <trkpt lat="45.65608" lon="4.59636">
        <ele>719</ele>
        <time>2018-10-14T08:28:14Z</time>
      </trkpt>
      <trkpt lat="45.65608" lon="4.59634">
        <ele>720</ele>
        <time>2018-10-14T08:28:15Z</time>
      </trkpt>
      <trkpt lat="45.65607" lon="4.59632">
        <ele>720</ele>
        <time>2018-10-14T08:28:16Z</time>
      </trkpt>
      <trkpt lat="45.65607" lon="4.5963">
        <ele>720</ele>
        <time>2018-10-14T08:28:17Z</time>
      </trkpt>
      <trkpt lat="45.65606" lon="4.59628">
        <ele>720</ele>
        <time>2018-10-14T08:28:18Z</time>
      </trkpt>
      <trkpt lat="45.65604" lon="4.59627">
        <ele>720</ele>
        <time>2018-10-14T08:28:19Z</time>
      </trkpt>
      <trkpt lat="45.65603" lon="4.59626">
        <ele>720</ele>
        <time>2018-10-14T08:28:20Z</time>
      </trkpt>
      <trkpt lat="45.65601" lon="4.59625">
        <ele>720</ele>
        <time>2018-10-14T08:28:21Z</time>
      </trkpt>
      <trkpt lat="45.656" lon="4.59623">
        <ele>720</ele>
        <time>2018-10-14T08:28:23Z</time>
      </trkpt>
      <trkpt lat="45.656" lon="4.59621">
        <ele>720</ele>
        <time>2018-10-14T08:28:24Z</time>
      </trkpt>
      <trkpt lat="45.65599" lon="4.5962">
        <ele>719</ele>
        <time>2018-10-14T08:28:25Z</time>
      </trkpt>
      <trkpt lat="45.65599" lon="4.59618">
        <ele>721</ele>
        <time>2018-10-14T08:28:27Z</time>
      </trkpt>
      <trkpt lat="45.65599" lon="4.59618">
        <ele>720</ele>
        <time>2018-10-14T08:28:29Z</time>
      </trkpt>
      <trkpt lat="45.65598" lon="4.59617">
        <ele>722</ele>
        <time>2018-10-14T08:28:33Z</time>
      </trkpt>
      <trkpt lat="45.65598" lon="4.59616">
        <ele>723</ele>
        <time>2018-10-14T08:28:34Z</time>
      </trkpt>
      <trkpt lat="45.65597" lon="4.59614">
        <ele>723</ele>
        <time>2018-10-14T08:28:35Z</time>
      </trkpt>
      <trkpt lat="45.65596" lon="4.59612">
        <ele>723</ele>
        <time>2018-10-14T08:28:36Z</time>
      </trkpt>
      <trkpt lat="45.65595" lon="4.5961">
        <ele>724</ele>
        <time>2018-10-14T08:28:37Z</time>
      </trkpt>
      <trkpt lat="45.65595" lon="4.59609">
        <ele>724</ele>
        <time>2018-10-14T08:28:38Z</time>
      </trkpt>
      <trkpt lat="45.65594" lon="4.59607">
        <ele>724</ele>
        <time>2018-10-14T08:28:39Z</time>
      </trkpt>
      <trkpt lat="45.65594" lon="4.59605">
        <ele>725</ele>
        <time>2018-10-14T08:28:40Z</time>
      </trkpt>
      <trkpt lat="45.65593" lon="4.59604">
        <ele>725</ele>
        <time>2018-10-14T08:28:41Z</time>
      </trkpt>
      <trkpt lat="45.65593" lon="4.59602">
        <ele>726</ele>
        <time>2018-10-14T08:28:42Z</time>
      </trkpt>
      <trkpt lat="45.65593" lon="4.59602">
        <ele>726</ele>
        <time>2018-10-14T08:28:43Z</time>
      </trkpt>
      <trkpt lat="45.65593" lon="4.59601">
        <ele>726</ele>
        <time>2018-10-14T08:28:44Z</time>
      </trkpt>
      <trkpt lat="45.65592" lon="4.596">
        <ele>727</ele>
        <time>2018-10-14T08:28:45Z</time>
      </trkpt>
      <trkpt lat="45.65591" lon="4.59599">
        <ele>728</ele>
        <time>2018-10-14T08:28:46Z</time>
      </trkpt>
      <trkpt lat="45.6559" lon="4.59598">
        <ele>728</ele>
        <time>2018-10-14T08:28:47Z</time>
      </trkpt>
      <trkpt lat="45.65589" lon="4.59598">
        <ele>728</ele>
        <time>2018-10-14T08:28:48Z</time>
      </trkpt>
      <trkpt lat="45.65588" lon="4.59597">
        <ele>728</ele>
        <time>2018-10-14T08:28:49Z</time>
      </trkpt>
      <trkpt lat="45.65587" lon="4.59595">
        <ele>728</ele>
        <time>2018-10-14T08:28:50Z</time>
      </trkpt>
      <trkpt lat="45.65585" lon="4.59594">
        <ele>728</ele>
        <time>2018-10-14T08:28:51Z</time>
      </trkpt>
      <trkpt lat="45.65584" lon="4.59593">
        <ele>728</ele>
        <time>2018-10-14T08:28:52Z</time>
      </trkpt>
      <trkpt lat="45.65582" lon="4.59592">
        <ele>728</ele>
        <time>2018-10-14T08:28:53Z</time>
      </trkpt>
      <trkpt lat="45.6558" lon="4.59592">
        <ele>728</ele>
        <time>2018-10-14T08:28:54Z</time>
      </trkpt>
      <trkpt lat="45.65579" lon="4.59591">
        <ele>728</ele>
        <time>2018-10-14T08:28:55Z</time>
      </trkpt>
      <trkpt lat="45.65577" lon="4.59591">
        <ele>728</ele>
        <time>2018-10-14T08:28:56Z</time>
      </trkpt>
      <trkpt lat="45.65576" lon="4.5959">
        <ele>728</ele>
        <time>2018-10-14T08:28:57Z</time>
      </trkpt>
      <trkpt lat="45.65575" lon="4.5959">
        <ele>728</ele>
        <time>2018-10-14T08:28:58Z</time>
      </trkpt>
      <trkpt lat="45.65574" lon="4.59589">
        <ele>728</ele>
        <time>2018-10-14T08:28:59Z</time>
      </trkpt>
      <trkpt lat="45.65572" lon="4.59588">
        <ele>728</ele>
        <time>2018-10-14T08:29:00Z</time>
      </trkpt>
      <trkpt lat="45.65572" lon="4.59587">
        <ele>728</ele>
        <time>2018-10-14T08:29:01Z</time>
      </trkpt>
      <trkpt lat="45.65571" lon="4.59586">
        <ele>728</ele>
        <time>2018-10-14T08:29:02Z</time>
      </trkpt>
      <trkpt lat="45.6557" lon="4.59585">
        <ele>728</ele>
        <time>2018-10-14T08:29:03Z</time>
      </trkpt>
      <trkpt lat="45.65569" lon="4.59585">
        <ele>728</ele>
        <time>2018-10-14T08:29:04Z</time>
      </trkpt>
      <trkpt lat="45.65568" lon="4.59584">
        <ele>728</ele>
        <time>2018-10-14T08:29:05Z</time>
      </trkpt>
      <trkpt lat="45.65567" lon="4.59583">
        <ele>728</ele>
        <time>2018-10-14T08:29:06Z</time>
      </trkpt>
      <trkpt lat="45.65566" lon="4.59582">
        <ele>728</ele>
        <time>2018-10-14T08:29:08Z</time>
      </trkpt>
      <trkpt lat="45.65564" lon="4.59581">
        <ele>728</ele>
        <time>2018-10-14T08:29:09Z</time>
      </trkpt>
      <trkpt lat="45.65564" lon="4.5958">
        <ele>729</ele>
        <time>2018-10-14T08:29:10Z</time>
      </trkpt>
      <trkpt lat="45.65562" lon="4.5958">
        <ele>729</ele>
        <time>2018-10-14T08:29:11Z</time>
      </trkpt>
      <trkpt lat="45.65561" lon="4.59579">
        <ele>729</ele>
        <time>2018-10-14T08:29:12Z</time>
      </trkpt>
      <trkpt lat="45.6556" lon="4.59579">
        <ele>729</ele>
        <time>2018-10-14T08:29:13Z</time>
      </trkpt>
      <trkpt lat="45.65558" lon="4.59578">
        <ele>729</ele>
        <time>2018-10-14T08:29:14Z</time>
      </trkpt>
      <trkpt lat="45.65557" lon="4.59578">
        <ele>729</ele>
        <time>2018-10-14T08:29:15Z</time>
      </trkpt>
      <trkpt lat="45.65556" lon="4.59578">
        <ele>729</ele>
        <time>2018-10-14T08:29:16Z</time>
      </trkpt>
      <trkpt lat="45.65554" lon="4.59577">
        <ele>729</ele>
        <time>2018-10-14T08:29:17Z</time>
      </trkpt>
      <trkpt lat="45.65553" lon="4.59577">
        <ele>729</ele>
        <time>2018-10-14T08:29:18Z</time>
      </trkpt>
      <trkpt lat="45.65552" lon="4.59576">
        <ele>729</ele>
        <time>2018-10-14T08:29:19Z</time>
      </trkpt>
      <trkpt lat="45.6555" lon="4.59575">
        <ele>729</ele>
        <time>2018-10-14T08:29:20Z</time>
      </trkpt>
      <trkpt lat="45.65548" lon="4.59575">
        <ele>729</ele>
        <time>2018-10-14T08:29:21Z</time>
      </trkpt>
      <trkpt lat="45.65547" lon="4.59575">
        <ele>729</ele>
        <time>2018-10-14T08:29:22Z</time>
      </trkpt>
      <trkpt lat="45.65545" lon="4.59574">
        <ele>729</ele>
        <time>2018-10-14T08:29:23Z</time>
      </trkpt>
      <trkpt lat="45.65543" lon="4.59573">
        <ele>729</ele>
        <time>2018-10-14T08:29:24Z</time>
      </trkpt>
      <trkpt lat="45.65542" lon="4.59573">
        <ele>730</ele>
        <time>2018-10-14T08:29:25Z</time>
      </trkpt>
      <trkpt lat="45.6554" lon="4.59572">
        <ele>729</ele>
        <time>2018-10-14T08:29:26Z</time>
      </trkpt>
      <trkpt lat="45.6554" lon="4.59572">
        <ele>729</ele>
        <time>2018-10-14T08:29:27Z</time>
      </trkpt>
      <trkpt lat="45.65538" lon="4.59571">
        <ele>730</ele>
        <time>2018-10-14T08:29:29Z</time>
      </trkpt>
      <trkpt lat="45.65537" lon="4.5957">
        <ele>729</ele>
        <time>2018-10-14T08:29:30Z</time>
      </trkpt>
      <trkpt lat="45.65535" lon="4.59569">
        <ele>730</ele>
        <time>2018-10-14T08:29:31Z</time>
      </trkpt>
      <trkpt lat="45.65533" lon="4.59569">
        <ele>730</ele>
        <time>2018-10-14T08:29:32Z</time>
      </trkpt>
      <trkpt lat="45.65532" lon="4.59568">
        <ele>731</ele>
        <time>2018-10-14T08:29:33Z</time>
      </trkpt>
      <trkpt lat="45.6553" lon="4.59567">
        <ele>731</ele>
        <time>2018-10-14T08:29:34Z</time>
      </trkpt>
      <trkpt lat="45.65529" lon="4.59567">
        <ele>730</ele>
        <time>2018-10-14T08:29:35Z</time>
      </trkpt>
      <trkpt lat="45.65528" lon="4.59565">
        <ele>731</ele>
        <time>2018-10-14T08:29:36Z</time>
      </trkpt>
      <trkpt lat="45.65527" lon="4.59564">
        <ele>732</ele>
        <time>2018-10-14T08:29:38Z</time>
      </trkpt>
      <trkpt lat="45.65527" lon="4.59562">
        <ele>732</ele>
        <time>2018-10-14T08:29:39Z</time>
      </trkpt>
      <trkpt lat="45.65527" lon="4.59561">
        <ele>733</ele>
        <time>2018-10-14T08:29:40Z</time>
      </trkpt>
      <trkpt lat="45.65526" lon="4.5956">
        <ele>734</ele>
        <time>2018-10-14T08:29:41Z</time>
      </trkpt>
      <trkpt lat="45.65526" lon="4.59559">
        <ele>734</ele>
        <time>2018-10-14T08:29:42Z</time>
      </trkpt>
      <trkpt lat="45.65525" lon="4.59558">
        <ele>735</ele>
        <time>2018-10-14T08:29:43Z</time>
      </trkpt>
      <trkpt lat="45.65525" lon="4.59556">
        <ele>735</ele>
        <time>2018-10-14T08:29:44Z</time>
      </trkpt>
      <trkpt lat="45.65524" lon="4.59555">
        <ele>736</ele>
        <time>2018-10-14T08:29:45Z</time>
      </trkpt>
      <trkpt lat="45.65524" lon="4.59553">
        <ele>736</ele>
        <time>2018-10-14T08:29:46Z</time>
      </trkpt>
      <trkpt lat="45.65523" lon="4.5955">
        <ele>736</ele>
        <time>2018-10-14T08:29:47Z</time>
      </trkpt>
      <trkpt lat="45.65522" lon="4.59549">
        <ele>737</ele>
        <time>2018-10-14T08:29:48Z</time>
      </trkpt>
      <trkpt lat="45.65522" lon="4.59547">
        <ele>737</ele>
        <time>2018-10-14T08:29:49Z</time>
      </trkpt>
      <trkpt lat="45.65521" lon="4.59546">
        <ele>738</ele>
        <time>2018-10-14T08:29:50Z</time>
      </trkpt>
      <trkpt lat="45.6552" lon="4.59545">
        <ele>738</ele>
        <time>2018-10-14T08:29:51Z</time>
      </trkpt>
      <trkpt lat="45.65519" lon="4.59544">
        <ele>740</ele>
        <time>2018-10-14T08:29:52Z</time>
      </trkpt>
      <trkpt lat="45.65518" lon="4.59543">
        <ele>741</ele>
        <time>2018-10-14T08:29:53Z</time>
      </trkpt>
      <trkpt lat="45.65516" lon="4.59542">
        <ele>741</ele>
        <time>2018-10-14T08:29:54Z</time>
      </trkpt>
      <trkpt lat="45.65515" lon="4.59541">
        <ele>741</ele>
        <time>2018-10-14T08:29:55Z</time>
      </trkpt>
      <trkpt lat="45.65513" lon="4.59539">
        <ele>741</ele>
        <time>2018-10-14T08:29:57Z</time>
      </trkpt>
      <trkpt lat="45.65512" lon="4.59538">
        <ele>741</ele>
        <time>2018-10-14T08:29:58Z</time>
      </trkpt>
      <trkpt lat="45.65511" lon="4.59537">
        <ele>742</ele>
        <time>2018-10-14T08:29:59Z</time>
      </trkpt>
      <trkpt lat="45.65511" lon="4.59536">
        <ele>742</ele>
        <time>2018-10-14T08:30:00Z</time>
      </trkpt>
      <trkpt lat="45.65509" lon="4.59535">
        <ele>742</ele>
        <time>2018-10-14T08:30:01Z</time>
      </trkpt>
      <trkpt lat="45.65508" lon="4.59533">
        <ele>742</ele>
        <time>2018-10-14T08:30:02Z</time>
      </trkpt>
      <trkpt lat="45.65507" lon="4.59532">
        <ele>742</ele>
        <time>2018-10-14T08:30:03Z</time>
      </trkpt>
      <trkpt lat="45.65506" lon="4.5953">
        <ele>743</ele>
        <time>2018-10-14T08:30:04Z</time>
      </trkpt>
      <trkpt lat="45.65505" lon="4.59529">
        <ele>743</ele>
        <time>2018-10-14T08:30:05Z</time>
      </trkpt>
      <trkpt lat="45.65503" lon="4.59527">
        <ele>743</ele>
        <time>2018-10-14T08:30:06Z</time>
      </trkpt>
      <trkpt lat="45.65502" lon="4.59526">
        <ele>744</ele>
        <time>2018-10-14T08:30:07Z</time>
      </trkpt>
      <trkpt lat="45.65501" lon="4.59525">
        <ele>744</ele>
        <time>2018-10-14T08:30:08Z</time>
      </trkpt>
      <trkpt lat="45.655" lon="4.59523">
        <ele>744</ele>
        <time>2018-10-14T08:30:09Z</time>
      </trkpt>
      <trkpt lat="45.65498" lon="4.59522">
        <ele>744</ele>
        <time>2018-10-14T08:30:10Z</time>
      </trkpt>
      <trkpt lat="45.65498" lon="4.5952">
        <ele>744</ele>
        <time>2018-10-14T08:30:11Z</time>
      </trkpt>
      <trkpt lat="45.65497" lon="4.59518">
        <ele>744</ele>
        <time>2018-10-14T08:30:12Z</time>
      </trkpt>
      <trkpt lat="45.65496" lon="4.59516">
        <ele>744</ele>
        <time>2018-10-14T08:30:13Z</time>
      </trkpt>
      <trkpt lat="45.65496" lon="4.59516">
        <ele>744</ele>
        <time>2018-10-14T08:30:14Z</time>
      </trkpt>
      <trkpt lat="45.65495" lon="4.59515">
        <ele>744</ele>
        <time>2018-10-14T08:30:15Z</time>
      </trkpt>
      <trkpt lat="45.65494" lon="4.59514">
        <ele>744</ele>
        <time>2018-10-14T08:30:16Z</time>
      </trkpt>
      <trkpt lat="45.65493" lon="4.59513">
        <ele>744</ele>
        <time>2018-10-14T08:30:17Z</time>
      </trkpt>
      <trkpt lat="45.65492" lon="4.59512">
        <ele>745</ele>
        <time>2018-10-14T08:30:18Z</time>
      </trkpt>
      <trkpt lat="45.65492" lon="4.5951">
        <ele>744</ele>
        <time>2018-10-14T08:30:19Z</time>
      </trkpt>
      <trkpt lat="45.65491" lon="4.59508">
        <ele>745</ele>
        <time>2018-10-14T08:30:20Z</time>
      </trkpt>
      <trkpt lat="45.6549" lon="4.59507">
        <ele>744</ele>
        <time>2018-10-14T08:30:21Z</time>
      </trkpt>
      <trkpt lat="45.65489" lon="4.59506">
        <ele>744</ele>
        <time>2018-10-14T08:30:22Z</time>
      </trkpt>
      <trkpt lat="45.65488" lon="4.59506">
        <ele>744</ele>
        <time>2018-10-14T08:30:23Z</time>
      </trkpt>
      <trkpt lat="45.65486" lon="4.59503">
        <ele>744</ele>
        <time>2018-10-14T08:30:25Z</time>
      </trkpt>
      <trkpt lat="45.65484" lon="4.59501">
        <ele>745</ele>
        <time>2018-10-14T08:30:26Z</time>
      </trkpt>
      <trkpt lat="45.65483" lon="4.59498">
        <ele>745</ele>
        <time>2018-10-14T08:30:27Z</time>
      </trkpt>
      <trkpt lat="45.65482" lon="4.59495">
        <ele>745</ele>
        <time>2018-10-14T08:30:28Z</time>
      </trkpt>
      <trkpt lat="45.65482" lon="4.59493">
        <ele>745</ele>
        <time>2018-10-14T08:30:29Z</time>
      </trkpt>
      <trkpt lat="45.65482" lon="4.59491">
        <ele>745</ele>
        <time>2018-10-14T08:30:30Z</time>
      </trkpt>
      <trkpt lat="45.65483" lon="4.59489">
        <ele>745</ele>
        <time>2018-10-14T08:30:31Z</time>
      </trkpt>
      <trkpt lat="45.65483" lon="4.59487">
        <ele>746</ele>
        <time>2018-10-14T08:30:32Z</time>
      </trkpt>
      <trkpt lat="45.65483" lon="4.59485">
        <ele>747</ele>
        <time>2018-10-14T08:30:33Z</time>
      </trkpt>
      <trkpt lat="45.65483" lon="4.59483">
        <ele>746</ele>
        <time>2018-10-14T08:30:34Z</time>
      </trkpt>
      <trkpt lat="45.65484" lon="4.5948">
        <ele>746</ele>
        <time>2018-10-14T08:30:35Z</time>
      </trkpt>
      <trkpt lat="45.65485" lon="4.59477">
        <ele>746</ele>
        <time>2018-10-14T08:30:36Z</time>
      </trkpt>
      <trkpt lat="45.65485" lon="4.59475">
        <ele>746</ele>
        <time>2018-10-14T08:30:37Z</time>
      </trkpt>
      <trkpt lat="45.65486" lon="4.59473">
        <ele>746</ele>
        <time>2018-10-14T08:30:38Z</time>
      </trkpt>
      <trkpt lat="45.65487" lon="4.59471">
        <ele>745</ele>
        <time>2018-10-14T08:30:39Z</time>
      </trkpt>
      <trkpt lat="45.65487" lon="4.5947">
        <ele>746</ele>
        <time>2018-10-14T08:30:40Z</time>
      </trkpt>
      <trkpt lat="45.65487" lon="4.59467">
        <ele>746</ele>
        <time>2018-10-14T08:30:41Z</time>
      </trkpt>
      <trkpt lat="45.65485" lon="4.59465">
        <ele>746</ele>
        <time>2018-10-14T08:30:42Z</time>
      </trkpt>
      <trkpt lat="45.65482" lon="4.59463">
        <ele>746</ele>
        <time>2018-10-14T08:30:44Z</time>
      </trkpt>
      <trkpt lat="45.6548" lon="4.5946">
        <ele>747</ele>
        <time>2018-10-14T08:30:45Z</time>
      </trkpt>
      <trkpt lat="45.65479" lon="4.59457">
        <ele>747</ele>
        <time>2018-10-14T08:30:46Z</time>
      </trkpt>
      <trkpt lat="45.65477" lon="4.59455">
        <ele>747</ele>
        <time>2018-10-14T08:30:47Z</time>
      </trkpt>
      <trkpt lat="45.65476" lon="4.59452">
        <ele>747</ele>
        <time>2018-10-14T08:30:48Z</time>
      </trkpt>
      <trkpt lat="45.65476" lon="4.59448">
        <ele>747</ele>
        <time>2018-10-14T08:30:49Z</time>
      </trkpt>
      <trkpt lat="45.65473" lon="4.59446">
        <ele>748</ele>
        <time>2018-10-14T08:30:50Z</time>
      </trkpt>
      <trkpt lat="45.65471" lon="4.59444">
        <ele>749</ele>
        <time>2018-10-14T08:30:51Z</time>
      </trkpt>
      <trkpt lat="45.6547" lon="4.59442">
        <ele>749</ele>
        <time>2018-10-14T08:30:53Z</time>
      </trkpt>
      <trkpt lat="45.65468" lon="4.59439">
        <ele>749</ele>
        <time>2018-10-14T08:30:55Z</time>
      </trkpt>
      <trkpt lat="45.65466" lon="4.59437">
        <ele>749</ele>
        <time>2018-10-14T08:30:56Z</time>
      </trkpt>
      <trkpt lat="45.65465" lon="4.59434">
        <ele>750</ele>
        <time>2018-10-14T08:30:57Z</time>
      </trkpt>
      <trkpt lat="45.65463" lon="4.59431">
        <ele>750</ele>
        <time>2018-10-14T08:30:58Z</time>
      </trkpt>
      <trkpt lat="45.65461" lon="4.59427">
        <ele>750</ele>
        <time>2018-10-14T08:30:59Z</time>
      </trkpt>
      <trkpt lat="45.65459" lon="4.59424">
        <ele>750</ele>
        <time>2018-10-14T08:31:00Z</time>
      </trkpt>
      <trkpt lat="45.65458" lon="4.59421">
        <ele>751</ele>
        <time>2018-10-14T08:31:01Z</time>
      </trkpt>
      <trkpt lat="45.65456" lon="4.59419">
        <ele>750</ele>
        <time>2018-10-14T08:31:02Z</time>
      </trkpt>
      <trkpt lat="45.65455" lon="4.59416">
        <ele>750</ele>
        <time>2018-10-14T08:31:03Z</time>
      </trkpt>
      <trkpt lat="45.65454" lon="4.59413">
        <ele>750</ele>
        <time>2018-10-14T08:31:04Z</time>
      </trkpt>
      <trkpt lat="45.65453" lon="4.59411">
        <ele>751</ele>
        <time>2018-10-14T08:31:05Z</time>
      </trkpt>
      <trkpt lat="45.65451" lon="4.59409">
        <ele>751</ele>
        <time>2018-10-14T08:31:06Z</time>
      </trkpt>
      <trkpt lat="45.65449" lon="4.59407">
        <ele>751</ele>
        <time>2018-10-14T08:31:07Z</time>
      </trkpt>
      <trkpt lat="45.65448" lon="4.59406">
        <ele>752</ele>
        <time>2018-10-14T08:31:08Z</time>
      </trkpt>
      <trkpt lat="45.65447" lon="4.59404">
        <ele>752</ele>
        <time>2018-10-14T08:31:09Z</time>
      </trkpt>
      <trkpt lat="45.65446" lon="4.59402">
        <ele>751</ele>
        <time>2018-10-14T08:31:10Z</time>
      </trkpt>
      <trkpt lat="45.65445" lon="4.594">
        <ele>752</ele>
        <time>2018-10-14T08:31:11Z</time>
      </trkpt>
      <trkpt lat="45.65444" lon="4.59398">
        <ele>751</ele>
        <time>2018-10-14T08:31:12Z</time>
      </trkpt>
      <trkpt lat="45.65443" lon="4.59396">
        <ele>751</ele>
        <time>2018-10-14T08:31:13Z</time>
      </trkpt>
      <trkpt lat="45.65442" lon="4.59393">
        <ele>751</ele>
        <time>2018-10-14T08:31:14Z</time>
      </trkpt>
      <trkpt lat="45.6544" lon="4.59391">
        <ele>751</ele>
        <time>2018-10-14T08:31:15Z</time>
      </trkpt>
      <trkpt lat="45.65439" lon="4.59388">
        <ele>752</ele>
        <time>2018-10-14T08:31:16Z</time>
      </trkpt>
      <trkpt lat="45.65438" lon="4.59385">
        <ele>752</ele>
        <time>2018-10-14T08:31:17Z</time>
      </trkpt>
      <trkpt lat="45.65436" lon="4.59383">
        <ele>752</ele>
        <time>2018-10-14T08:31:18Z</time>
      </trkpt>
      <trkpt lat="45.65434" lon="4.59381">
        <ele>752</ele>
        <time>2018-10-14T08:31:19Z</time>
      </trkpt>
      <trkpt lat="45.65432" lon="4.59379">
        <ele>751</ele>
        <time>2018-10-14T08:31:20Z</time>
      </trkpt>
      <trkpt lat="45.65431" lon="4.59377">
        <ele>751</ele>
        <time>2018-10-14T08:31:21Z</time>
      </trkpt>
      <trkpt lat="45.6543" lon="4.59374">
        <ele>752</ele>
        <time>2018-10-14T08:31:22Z</time>
      </trkpt>
      <trkpt lat="45.65429" lon="4.59372">
        <ele>754</ele>
        <time>2018-10-14T08:31:23Z</time>
      </trkpt>
      <trkpt lat="45.65427" lon="4.59369">
        <ele>754</ele>
        <time>2018-10-14T08:31:24Z</time>
      </trkpt>
      <trkpt lat="45.65425" lon="4.59367">
        <ele>755</ele>
        <time>2018-10-14T08:31:25Z</time>
      </trkpt>
      <trkpt lat="45.65423" lon="4.59366">
        <ele>755</ele>
        <time>2018-10-14T08:31:27Z</time>
      </trkpt>
      <trkpt lat="45.65422" lon="4.59364">
        <ele>756</ele>
        <time>2018-10-14T08:31:28Z</time>
      </trkpt>
      <trkpt lat="45.65421" lon="4.59362">
        <ele>757</ele>
        <time>2018-10-14T08:31:29Z</time>
      </trkpt>
      <trkpt lat="45.6542" lon="4.5936">
        <ele>758</ele>
        <time>2018-10-14T08:31:30Z</time>
      </trkpt>
      <trkpt lat="45.6542" lon="4.59358">
        <ele>758</ele>
        <time>2018-10-14T08:31:32Z</time>
      </trkpt>
      <trkpt lat="45.65419" lon="4.59357">
        <ele>758</ele>
        <time>2018-10-14T08:31:33Z</time>
      </trkpt>
      <trkpt lat="45.65419" lon="4.59355">
        <ele>758</ele>
        <time>2018-10-14T08:31:34Z</time>
      </trkpt>
      <trkpt lat="45.65418" lon="4.59354">
        <ele>759</ele>
        <time>2018-10-14T08:31:35Z</time>
      </trkpt>
      <trkpt lat="45.65416" lon="4.59352">
        <ele>759</ele>
        <time>2018-10-14T08:31:36Z</time>
      </trkpt>
      <trkpt lat="45.65416" lon="4.5935">
        <ele>758</ele>
        <time>2018-10-14T08:31:37Z</time>
      </trkpt>
      <trkpt lat="45.65416" lon="4.59348">
        <ele>758</ele>
        <time>2018-10-14T08:31:38Z</time>
      </trkpt>
      <trkpt lat="45.65416" lon="4.59346">
        <ele>759</ele>
        <time>2018-10-14T08:31:40Z</time>
      </trkpt>
      <trkpt lat="45.65414" lon="4.59344">
        <ele>760</ele>
        <time>2018-10-14T08:31:41Z</time>
      </trkpt>
      <trkpt lat="45.65413" lon="4.59343">
        <ele>760</ele>
        <time>2018-10-14T08:31:42Z</time>
      </trkpt>
      <trkpt lat="45.65411" lon="4.59342">
        <ele>760</ele>
        <time>2018-10-14T08:31:43Z</time>
      </trkpt>
      <trkpt lat="45.65409" lon="4.59341">
        <ele>758</ele>
        <time>2018-10-14T08:31:44Z</time>
      </trkpt>
      <trkpt lat="45.65406" lon="4.59339">
        <ele>758</ele>
        <time>2018-10-14T08:31:45Z</time>
      </trkpt>
      <trkpt lat="45.65403" lon="4.59336">
        <ele>758</ele>
        <time>2018-10-14T08:31:46Z</time>
      </trkpt>
      <trkpt lat="45.65399" lon="4.59334">
        <ele>757</ele>
        <time>2018-10-14T08:31:47Z</time>
      </trkpt>
      <trkpt lat="45.65397" lon="4.59333">
        <ele>755</ele>
        <time>2018-10-14T08:31:48Z</time>
      </trkpt>
      <trkpt lat="45.65394" lon="4.59331">
        <ele>754</ele>
        <time>2018-10-14T08:31:49Z</time>
      </trkpt>
      <trkpt lat="45.65392" lon="4.59329">
        <ele>754</ele>
        <time>2018-10-14T08:31:50Z</time>
      </trkpt>
      <trkpt lat="45.6539" lon="4.59327">
        <ele>755</ele>
        <time>2018-10-14T08:31:51Z</time>
      </trkpt>
      <trkpt lat="45.65389" lon="4.59326">
        <ele>755</ele>
        <time>2018-10-14T08:31:52Z</time>
      </trkpt>
      <trkpt lat="45.65387" lon="4.59323">
        <ele>755</ele>
        <time>2018-10-14T08:31:53Z</time>
      </trkpt>
      <trkpt lat="45.65386" lon="4.59322">
        <ele>756</ele>
        <time>2018-10-14T08:31:54Z</time>
      </trkpt>
      <trkpt lat="45.65385" lon="4.5932">
        <ele>757</ele>
        <time>2018-10-14T08:31:55Z</time>
      </trkpt>
      <trkpt lat="45.65383" lon="4.59318">
        <ele>757</ele>
        <time>2018-10-14T08:31:56Z</time>
      </trkpt>
      <trkpt lat="45.65382" lon="4.59315">
        <ele>756</ele>
        <time>2018-10-14T08:31:57Z</time>
      </trkpt>
      <trkpt lat="45.6538" lon="4.59313">
        <ele>756</ele>
        <time>2018-10-14T08:31:58Z</time>
      </trkpt>
      <trkpt lat="45.65379" lon="4.59311">
        <ele>757</ele>
        <time>2018-10-14T08:31:59Z</time>
      </trkpt>
      <trkpt lat="45.65378" lon="4.59308">
        <ele>757</ele>
        <time>2018-10-14T08:32:00Z</time>
      </trkpt>
      <trkpt lat="45.65377" lon="4.59306">
        <ele>757</ele>
        <time>2018-10-14T08:32:01Z</time>
      </trkpt>
      <trkpt lat="45.65375" lon="4.59305">
        <ele>758</ele>
        <time>2018-10-14T08:32:02Z</time>
      </trkpt>
      <trkpt lat="45.65374" lon="4.59303">
        <ele>757</ele>
        <time>2018-10-14T08:32:03Z</time>
      </trkpt>
      <trkpt lat="45.65372" lon="4.59302">
        <ele>757</ele>
        <time>2018-10-14T08:32:04Z</time>
      </trkpt>
      <trkpt lat="45.65369" lon="4.59302">
        <ele>757</ele>
        <time>2018-10-14T08:32:05Z</time>
      </trkpt>
      <trkpt lat="45.65367" lon="4.593">
        <ele>758</ele>
        <time>2018-10-14T08:32:06Z</time>
      </trkpt>
      <trkpt lat="45.65365" lon="4.59297">
        <ele>758</ele>
        <time>2018-10-14T08:32:07Z</time>
      </trkpt>
      <trkpt lat="45.65364" lon="4.59294">
        <ele>758</ele>
        <time>2018-10-14T08:32:08Z</time>
      </trkpt>
      <trkpt lat="45.65363" lon="4.59291">
        <ele>758</ele>
        <time>2018-10-14T08:32:09Z</time>
      </trkpt>
      <trkpt lat="45.65361" lon="4.59289">
        <ele>758</ele>
        <time>2018-10-14T08:32:10Z</time>
      </trkpt>
      <trkpt lat="45.6536" lon="4.59287">
        <ele>759</ele>
        <time>2018-10-14T08:32:11Z</time>
      </trkpt>
      <trkpt lat="45.65358" lon="4.59286">
        <ele>759</ele>
        <time>2018-10-14T08:32:12Z</time>
      </trkpt>
      <trkpt lat="45.65356" lon="4.59283">
        <ele>759</ele>
        <time>2018-10-14T08:32:13Z</time>
      </trkpt>
      <trkpt lat="45.65353" lon="4.59281">
        <ele>759</ele>
        <time>2018-10-14T08:32:15Z</time>
      </trkpt>
      <trkpt lat="45.65352" lon="4.5928">
        <ele>759</ele>
        <time>2018-10-14T08:32:16Z</time>
      </trkpt>
      <trkpt lat="45.6535" lon="4.5928">
        <ele>759</ele>
        <time>2018-10-14T08:32:17Z</time>
      </trkpt>
      <trkpt lat="45.65348" lon="4.59279">
        <ele>759</ele>
        <time>2018-10-14T08:32:18Z</time>
      </trkpt>
      <trkpt lat="45.65346" lon="4.59277">
        <ele>759</ele>
        <time>2018-10-14T08:32:19Z</time>
      </trkpt>
      <trkpt lat="45.65344" lon="4.59275">
        <ele>759</ele>
        <time>2018-10-14T08:32:20Z</time>
      </trkpt>
      <trkpt lat="45.65341" lon="4.59273">
        <ele>760</ele>
        <time>2018-10-14T08:32:21Z</time>
      </trkpt>
      <trkpt lat="45.65339" lon="4.59273">
        <ele>759</ele>
        <time>2018-10-14T08:32:22Z</time>
      </trkpt>
      <trkpt lat="45.65336" lon="4.59274">
        <ele>759</ele>
        <time>2018-10-14T08:32:23Z</time>
      </trkpt>
      <trkpt lat="45.65333" lon="4.59273">
        <ele>759</ele>
        <time>2018-10-14T08:32:24Z</time>
      </trkpt>
      <trkpt lat="45.65331" lon="4.59273">
        <ele>759</ele>
        <time>2018-10-14T08:32:25Z</time>
      </trkpt>
      <trkpt lat="45.65323" lon="4.59269">
        <ele>762</ele>
        <time>2018-10-14T08:32:26Z</time>
      </trkpt>
      <trkpt lat="45.65321" lon="4.59267">
        <ele>764</ele>
        <time>2018-10-14T08:32:27Z</time>
      </trkpt>
      <trkpt lat="45.6532" lon="4.59268">
        <ele>764</ele>
        <time>2018-10-14T08:32:28Z</time>
      </trkpt>
      <trkpt lat="45.65318" lon="4.59266">
        <ele>765</ele>
        <time>2018-10-14T08:32:29Z</time>
      </trkpt>
      <trkpt lat="45.65315" lon="4.59266">
        <ele>766</ele>
        <time>2018-10-14T08:32:30Z</time>
      </trkpt>
      <trkpt lat="45.65313" lon="4.59265">
        <ele>765</ele>
        <time>2018-10-14T08:32:31Z</time>
      </trkpt>
      <trkpt lat="45.65312" lon="4.59265">
        <ele>766</ele>
        <time>2018-10-14T08:32:32Z</time>
      </trkpt>
      <trkpt lat="45.65311" lon="4.59264">
        <ele>767</ele>
        <time>2018-10-14T08:32:33Z</time>
      </trkpt>
      <trkpt lat="45.65309" lon="4.59263">
        <ele>767</ele>
        <time>2018-10-14T08:32:34Z</time>
      </trkpt>
      <trkpt lat="45.65307" lon="4.59263">
        <ele>767</ele>
        <time>2018-10-14T08:32:35Z</time>
      </trkpt>
      <trkpt lat="45.65305" lon="4.59262">
        <ele>766</ele>
        <time>2018-10-14T08:32:36Z</time>
      </trkpt>
      <trkpt lat="45.65303" lon="4.59262">
        <ele>766</ele>
        <time>2018-10-14T08:32:37Z</time>
      </trkpt>
      <trkpt lat="45.65302" lon="4.59262">
        <ele>767</ele>
        <time>2018-10-14T08:32:38Z</time>
      </trkpt>
      <trkpt lat="45.65299" lon="4.59261">
        <ele>767</ele>
        <time>2018-10-14T08:32:40Z</time>
      </trkpt>
      <trkpt lat="45.65297" lon="4.5926">
        <ele>767</ele>
        <time>2018-10-14T08:32:41Z</time>
      </trkpt>
      <trkpt lat="45.65295" lon="4.59259">
        <ele>767</ele>
        <time>2018-10-14T08:32:42Z</time>
      </trkpt>
      <trkpt lat="45.65293" lon="4.59258">
        <ele>766</ele>
        <time>2018-10-14T08:32:43Z</time>
      </trkpt>
      <trkpt lat="45.65291" lon="4.59257">
        <ele>766</ele>
        <time>2018-10-14T08:32:44Z</time>
      </trkpt>
      <trkpt lat="45.65289" lon="4.59257">
        <ele>766</ele>
        <time>2018-10-14T08:32:45Z</time>
      </trkpt>
      <trkpt lat="45.65288" lon="4.59256">
        <ele>766</ele>
        <time>2018-10-14T08:32:46Z</time>
      </trkpt>
      <trkpt lat="45.65286" lon="4.59256">
        <ele>765</ele>
        <time>2018-10-14T08:32:47Z</time>
      </trkpt>
      <trkpt lat="45.65284" lon="4.59256">
        <ele>765</ele>
        <time>2018-10-14T08:32:48Z</time>
      </trkpt>
      <trkpt lat="45.65282" lon="4.59256">
        <ele>766</ele>
        <time>2018-10-14T08:32:49Z</time>
      </trkpt>
      <trkpt lat="45.65279" lon="4.59256">
        <ele>766</ele>
        <time>2018-10-14T08:32:50Z</time>
      </trkpt>
      <trkpt lat="45.65277" lon="4.59256">
        <ele>767</ele>
        <time>2018-10-14T08:32:51Z</time>
      </trkpt>
      <trkpt lat="45.65275" lon="4.59256">
        <ele>767</ele>
        <time>2018-10-14T08:32:52Z</time>
      </trkpt>
      <trkpt lat="45.65273" lon="4.59255">
        <ele>767</ele>
        <time>2018-10-14T08:32:53Z</time>
      </trkpt>
      <trkpt lat="45.65271" lon="4.59255">
        <ele>768</ele>
        <time>2018-10-14T08:32:54Z</time>
      </trkpt>
      <trkpt lat="45.6527" lon="4.59255">
        <ele>768</ele>
        <time>2018-10-14T08:32:55Z</time>
      </trkpt>
      <trkpt lat="45.65267" lon="4.59256">
        <ele>768</ele>
        <time>2018-10-14T08:32:56Z</time>
      </trkpt>
      <trkpt lat="45.65265" lon="4.59256">
        <ele>767</ele>
        <time>2018-10-14T08:32:57Z</time>
      </trkpt>
      <trkpt lat="45.65263" lon="4.59256">
        <ele>767</ele>
        <time>2018-10-14T08:32:58Z</time>
      </trkpt>
      <trkpt lat="45.6526" lon="4.59257">
        <ele>768</ele>
        <time>2018-10-14T08:32:59Z</time>
      </trkpt>
      <trkpt lat="45.65258" lon="4.59257">
        <ele>768</ele>
        <time>2018-10-14T08:33:00Z</time>
      </trkpt>
      <trkpt lat="45.65257" lon="4.59258">
        <ele>769</ele>
        <time>2018-10-14T08:33:01Z</time>
      </trkpt>
      <trkpt lat="45.65255" lon="4.59258">
        <ele>768</ele>
        <time>2018-10-14T08:33:02Z</time>
      </trkpt>
      <trkpt lat="45.65253" lon="4.59258">
        <ele>769</ele>
        <time>2018-10-14T08:33:03Z</time>
      </trkpt>
      <trkpt lat="45.65251" lon="4.59258">
        <ele>769</ele>
        <time>2018-10-14T08:33:04Z</time>
      </trkpt>
      <trkpt lat="45.65249" lon="4.59257">
        <ele>770</ele>
        <time>2018-10-14T08:33:05Z</time>
      </trkpt>
      <trkpt lat="45.65247" lon="4.59257">
        <ele>770</ele>
        <time>2018-10-14T08:33:06Z</time>
      </trkpt>
      <trkpt lat="45.65245" lon="4.59257">
        <ele>770</ele>
        <time>2018-10-14T08:33:07Z</time>
      </trkpt>
      <trkpt lat="45.65244" lon="4.59258">
        <ele>771</ele>
        <time>2018-10-14T08:33:08Z</time>
      </trkpt>
      <trkpt lat="45.65242" lon="4.59258">
        <ele>771</ele>
        <time>2018-10-14T08:33:09Z</time>
      </trkpt>
      <trkpt lat="45.6524" lon="4.59259">
        <ele>771</ele>
        <time>2018-10-14T08:33:10Z</time>
      </trkpt>
      <trkpt lat="45.65237" lon="4.5926">
        <ele>770</ele>
        <time>2018-10-14T08:33:11Z</time>
      </trkpt>
      <trkpt lat="45.65236" lon="4.5926">
        <ele>770</ele>
        <time>2018-10-14T08:33:12Z</time>
      </trkpt>
      <trkpt lat="45.65233" lon="4.5926">
        <ele>771</ele>
        <time>2018-10-14T08:33:13Z</time>
      </trkpt>
      <trkpt lat="45.65231" lon="4.59259">
        <ele>770</ele>
        <time>2018-10-14T08:33:14Z</time>
      </trkpt>
      <trkpt lat="45.65229" lon="4.59259">
        <ele>770</ele>
        <time>2018-10-14T08:33:15Z</time>
      </trkpt>
      <trkpt lat="45.65228" lon="4.59258">
        <ele>771</ele>
        <time>2018-10-14T08:33:16Z</time>
      </trkpt>
      <trkpt lat="45.65226" lon="4.59258">
        <ele>771</ele>
        <time>2018-10-14T08:33:17Z</time>
      </trkpt>
      <trkpt lat="45.65225" lon="4.59258">
        <ele>771</ele>
        <time>2018-10-14T08:33:18Z</time>
      </trkpt>
      <trkpt lat="45.65223" lon="4.59258">
        <ele>771</ele>
        <time>2018-10-14T08:33:19Z</time>
      </trkpt>
      <trkpt lat="45.65221" lon="4.59258">
        <ele>772</ele>
        <time>2018-10-14T08:33:20Z</time>
      </trkpt>
      <trkpt lat="45.65219" lon="4.59257">
        <ele>772</ele>
        <time>2018-10-14T08:33:21Z</time>
      </trkpt>
      <trkpt lat="45.65217" lon="4.59257">
        <ele>772</ele>
        <time>2018-10-14T08:33:22Z</time>
      </trkpt>
      <trkpt lat="45.65215" lon="4.59255">
        <ele>772</ele>
        <time>2018-10-14T08:33:23Z</time>
      </trkpt>
      <trkpt lat="45.65213" lon="4.59254">
        <ele>772</ele>
        <time>2018-10-14T08:33:24Z</time>
      </trkpt>
      <trkpt lat="45.65212" lon="4.59252">
        <ele>772</ele>
        <time>2018-10-14T08:33:25Z</time>
      </trkpt>
      <trkpt lat="45.65211" lon="4.59251">
        <ele>773</ele>
        <time>2018-10-14T08:33:26Z</time>
      </trkpt>
      <trkpt lat="45.65209" lon="4.59249">
        <ele>773</ele>
        <time>2018-10-14T08:33:27Z</time>
      </trkpt>
      <trkpt lat="45.65208" lon="4.59245">
        <ele>773</ele>
        <time>2018-10-14T08:33:28Z</time>
      </trkpt>
      <trkpt lat="45.65207" lon="4.59242">
        <ele>773</ele>
        <time>2018-10-14T08:33:29Z</time>
      </trkpt>
      <trkpt lat="45.65206" lon="4.59239">
        <ele>773</ele>
        <time>2018-10-14T08:33:30Z</time>
      </trkpt>
      <trkpt lat="45.65205" lon="4.59236">
        <ele>774</ele>
        <time>2018-10-14T08:33:31Z</time>
      </trkpt>
      <trkpt lat="45.65204" lon="4.59233">
        <ele>775</ele>
        <time>2018-10-14T08:33:32Z</time>
      </trkpt>
      <trkpt lat="45.65203" lon="4.5923">
        <ele>775</ele>
        <time>2018-10-14T08:33:33Z</time>
      </trkpt>
      <trkpt lat="45.65202" lon="4.59228">
        <ele>775</ele>
        <time>2018-10-14T08:33:34Z</time>
      </trkpt>
      <trkpt lat="45.652" lon="4.59225">
        <ele>775</ele>
        <time>2018-10-14T08:33:35Z</time>
      </trkpt>
      <trkpt lat="45.65199" lon="4.59224">
        <ele>775</ele>
        <time>2018-10-14T08:33:36Z</time>
      </trkpt>
      <trkpt lat="45.65197" lon="4.59223">
        <ele>775</ele>
        <time>2018-10-14T08:33:37Z</time>
      </trkpt>
      <trkpt lat="45.65195" lon="4.59223">
        <ele>775</ele>
        <time>2018-10-14T08:33:38Z</time>
      </trkpt>
      <trkpt lat="45.65193" lon="4.59224">
        <ele>775</ele>
        <time>2018-10-14T08:33:39Z</time>
      </trkpt>
      <trkpt lat="45.6519" lon="4.59225">
        <ele>775</ele>
        <time>2018-10-14T08:33:40Z</time>
      </trkpt>
      <trkpt lat="45.65188" lon="4.59225">
        <ele>775</ele>
        <time>2018-10-14T08:33:41Z</time>
      </trkpt>
      <trkpt lat="45.65179" lon="4.59224">
        <ele>774</ele>
        <time>2018-10-14T08:33:42Z</time>
      </trkpt>
      <trkpt lat="45.65176" lon="4.59225">
        <ele>775</ele>
        <time>2018-10-14T08:33:43Z</time>
      </trkpt>
      <trkpt lat="45.65174" lon="4.59224">
        <ele>776</ele>
        <time>2018-10-14T08:33:44Z</time>
      </trkpt>
      <trkpt lat="45.65171" lon="4.59224">
        <ele>777</ele>
        <time>2018-10-14T08:33:45Z</time>
      </trkpt>
      <trkpt lat="45.65167" lon="4.59224">
        <ele>777</ele>
        <time>2018-10-14T08:33:46Z</time>
      </trkpt>
      <trkpt lat="45.65163" lon="4.59224">
        <ele>776</ele>
        <time>2018-10-14T08:33:47Z</time>
      </trkpt>
      <trkpt lat="45.6516" lon="4.59226">
        <ele>778</ele>
        <time>2018-10-14T08:33:48Z</time>
      </trkpt>
      <trkpt lat="45.65156" lon="4.59227">
        <ele>777</ele>
        <time>2018-10-14T08:33:49Z</time>
      </trkpt>
      <trkpt lat="45.65152" lon="4.59228">
        <ele>776</ele>
        <time>2018-10-14T08:33:50Z</time>
      </trkpt>
      <trkpt lat="45.65147" lon="4.59228">
        <ele>776</ele>
        <time>2018-10-14T08:33:51Z</time>
      </trkpt>
      <trkpt lat="45.65142" lon="4.59228">
        <ele>776</ele>
        <time>2018-10-14T08:33:52Z</time>
      </trkpt>
      <trkpt lat="45.65138" lon="4.59228">
        <ele>776</ele>
        <time>2018-10-14T08:33:53Z</time>
      </trkpt>
      <trkpt lat="45.65133" lon="4.59227">
        <ele>776</ele>
        <time>2018-10-14T08:33:54Z</time>
      </trkpt>
      <trkpt lat="45.65128" lon="4.59227">
        <ele>776</ele>
        <time>2018-10-14T08:33:55Z</time>
      </trkpt>
      <trkpt lat="45.65122" lon="4.59226">
        <ele>775</ele>
        <time>2018-10-14T08:33:56Z</time>
      </trkpt>
      <trkpt lat="45.65116" lon="4.59229">
        <ele>776</ele>
        <time>2018-10-14T08:33:57Z</time>
      </trkpt>
      <trkpt lat="45.6511" lon="4.5923">
        <ele>776</ele>
        <time>2018-10-14T08:33:58Z</time>
      </trkpt>
      <trkpt lat="45.65106" lon="4.59232">
        <ele>776</ele>
        <time>2018-10-14T08:33:59Z</time>
      </trkpt>
      <trkpt lat="45.65101" lon="4.59232">
        <ele>776</ele>
        <time>2018-10-14T08:34:00Z</time>
      </trkpt>
      <trkpt lat="45.65097" lon="4.59235">
        <ele>775</ele>
        <time>2018-10-14T08:34:01Z</time>
      </trkpt>
      <trkpt lat="45.65094" lon="4.59237">
        <ele>775</ele>
        <time>2018-10-14T08:34:02Z</time>
      </trkpt>
      <trkpt lat="45.6509" lon="4.5924">
        <ele>776</ele>
        <time>2018-10-14T08:34:03Z</time>
      </trkpt>
      <trkpt lat="45.65087" lon="4.59242">
        <ele>776</ele>
        <time>2018-10-14T08:34:04Z</time>
      </trkpt>
      <trkpt lat="45.65084" lon="4.59245">
        <ele>776</ele>
        <time>2018-10-14T08:34:05Z</time>
      </trkpt>
      <trkpt lat="45.65081" lon="4.59246">
        <ele>776</ele>
        <time>2018-10-14T08:34:06Z</time>
      </trkpt>
      <trkpt lat="45.65078" lon="4.59246">
        <ele>777</ele>
        <time>2018-10-14T08:34:07Z</time>
      </trkpt>
      <trkpt lat="45.65076" lon="4.59247">
        <ele>776</ele>
        <time>2018-10-14T08:34:08Z</time>
      </trkpt>
      <trkpt lat="45.65075" lon="4.59248">
        <ele>777</ele>
        <time>2018-10-14T08:34:09Z</time>
      </trkpt>
      <trkpt lat="45.65073" lon="4.59249">
        <ele>777</ele>
        <time>2018-10-14T08:34:10Z</time>
      </trkpt>
      <trkpt lat="45.65072" lon="4.5925">
        <ele>778</ele>
        <time>2018-10-14T08:34:11Z</time>
      </trkpt>
      <trkpt lat="45.6507" lon="4.59251">
        <ele>778</ele>
        <time>2018-10-14T08:34:12Z</time>
      </trkpt>
      <trkpt lat="45.65069" lon="4.59251">
        <ele>779</ele>
        <time>2018-10-14T08:34:13Z</time>
      </trkpt>
      <trkpt lat="45.65068" lon="4.59252">
        <ele>780</ele>
        <time>2018-10-14T08:34:14Z</time>
      </trkpt>
      <trkpt lat="45.65067" lon="4.59252">
        <ele>780</ele>
        <time>2018-10-14T08:34:15Z</time>
      </trkpt>
      <trkpt lat="45.65065" lon="4.59253">
        <ele>780</ele>
        <time>2018-10-14T08:34:16Z</time>
      </trkpt>
      <trkpt lat="45.65064" lon="4.59254">
        <ele>780</ele>
        <time>2018-10-14T08:34:17Z</time>
      </trkpt>
      <trkpt lat="45.65061" lon="4.59255">
        <ele>780</ele>
        <time>2018-10-14T08:34:18Z</time>
      </trkpt>
      <trkpt lat="45.65059" lon="4.59255">
        <ele>781</ele>
        <time>2018-10-14T08:34:19Z</time>
      </trkpt>
      <trkpt lat="45.65057" lon="4.59255">
        <ele>781</ele>
        <time>2018-10-14T08:34:20Z</time>
      </trkpt>
      <trkpt lat="45.65055" lon="4.59254">
        <ele>782</ele>
        <time>2018-10-14T08:34:21Z</time>
      </trkpt>
      <trkpt lat="45.65053" lon="4.59254">
        <ele>781</ele>
        <time>2018-10-14T08:34:22Z</time>
      </trkpt>
      <trkpt lat="45.65051" lon="4.59254">
        <ele>781</ele>
        <time>2018-10-14T08:34:23Z</time>
      </trkpt>
      <trkpt lat="45.65049" lon="4.59253">
        <ele>781</ele>
        <time>2018-10-14T08:34:24Z</time>
      </trkpt>
      <trkpt lat="45.65047" lon="4.59253">
        <ele>782</ele>
        <time>2018-10-14T08:34:25Z</time>
      </trkpt>
      <trkpt lat="45.65044" lon="4.59252">
        <ele>782</ele>
        <time>2018-10-14T08:34:26Z</time>
      </trkpt>
      <trkpt lat="45.65043" lon="4.59251">
        <ele>782</ele>
        <time>2018-10-14T08:34:27Z</time>
      </trkpt>
      <trkpt lat="45.65041" lon="4.5925">
        <ele>781</ele>
        <time>2018-10-14T08:34:28Z</time>
      </trkpt>
      <trkpt lat="45.65039" lon="4.59249">
        <ele>781</ele>
        <time>2018-10-14T08:34:29Z</time>
      </trkpt>
      <trkpt lat="45.65037" lon="4.59248">
        <ele>782</ele>
        <time>2018-10-14T08:34:30Z</time>
      </trkpt>
      <trkpt lat="45.65036" lon="4.59246">
        <ele>781</ele>
        <time>2018-10-14T08:34:31Z</time>
      </trkpt>
      <trkpt lat="45.65033" lon="4.59244">
        <ele>781</ele>
        <time>2018-10-14T08:34:32Z</time>
      </trkpt>
      <trkpt lat="45.65031" lon="4.59243">
        <ele>780</ele>
        <time>2018-10-14T08:34:33Z</time>
      </trkpt>
      <trkpt lat="45.65029" lon="4.59241">
        <ele>779</ele>
        <time>2018-10-14T08:34:34Z</time>
      </trkpt>
      <trkpt lat="45.65027" lon="4.5924">
        <ele>779</ele>
        <time>2018-10-14T08:34:35Z</time>
      </trkpt>
      <trkpt lat="45.65025" lon="4.59239">
        <ele>779</ele>
        <time>2018-10-14T08:34:36Z</time>
      </trkpt>
      <trkpt lat="45.65023" lon="4.59237">
        <ele>779</ele>
        <time>2018-10-14T08:34:37Z</time>
      </trkpt>
      <trkpt lat="45.6502" lon="4.59234">
        <ele>779</ele>
        <time>2018-10-14T08:34:38Z</time>
      </trkpt>
      <trkpt lat="45.65017" lon="4.59231">
        <ele>779</ele>
        <time>2018-10-14T08:34:39Z</time>
      </trkpt>
      <trkpt lat="45.65014" lon="4.59228">
        <ele>779</ele>
        <time>2018-10-14T08:34:40Z</time>
      </trkpt>
      <trkpt lat="45.65011" lon="4.59225">
        <ele>778</ele>
        <time>2018-10-14T08:34:41Z</time>
      </trkpt>
      <trkpt lat="45.65007" lon="4.59221">
        <ele>778</ele>
        <time>2018-10-14T08:34:42Z</time>
      </trkpt>
      <trkpt lat="45.65003" lon="4.59216">
        <ele>778</ele>
        <time>2018-10-14T08:34:43Z</time>
      </trkpt>
      <trkpt lat="45.64999" lon="4.5921">
        <ele>778</ele>
        <time>2018-10-14T08:34:44Z</time>
      </trkpt>
      <trkpt lat="45.64978" lon="4.59188">
        <ele>777</ele>
        <time>2018-10-14T08:34:45Z</time>
      </trkpt>
      <trkpt lat="45.64975" lon="4.59182">
        <ele>776</ele>
        <time>2018-10-14T08:34:46Z</time>
      </trkpt>
      <trkpt lat="45.6497" lon="4.59176">
        <ele>777</ele>
        <time>2018-10-14T08:34:47Z</time>
      </trkpt>
      <trkpt lat="45.64967" lon="4.5917">
        <ele>776</ele>
        <time>2018-10-14T08:34:48Z</time>
      </trkpt>
      <trkpt lat="45.64965" lon="4.59163">
        <ele>775</ele>
        <time>2018-10-14T08:34:49Z</time>
      </trkpt>
      <trkpt lat="45.64961" lon="4.59156">
        <ele>775</ele>
        <time>2018-10-14T08:34:50Z</time>
      </trkpt>
      <trkpt lat="45.64957" lon="4.59149">
        <ele>775</ele>
        <time>2018-10-14T08:34:51Z</time>
      </trkpt>
      <trkpt lat="45.64954" lon="4.59145">
        <ele>774</ele>
        <time>2018-10-14T08:34:52Z</time>
      </trkpt>
      <trkpt lat="45.64951" lon="4.59139">
        <ele>774</ele>
        <time>2018-10-14T08:34:53Z</time>
      </trkpt>
      <trkpt lat="45.64947" lon="4.59132">
        <ele>773</ele>
        <time>2018-10-14T08:34:54Z</time>
      </trkpt>
      <trkpt lat="45.64945" lon="4.59126">
        <ele>772</ele>
        <time>2018-10-14T08:34:55Z</time>
      </trkpt>
      <trkpt lat="45.64941" lon="4.59121">
        <ele>771</ele>
        <time>2018-10-14T08:34:56Z</time>
      </trkpt>
      <trkpt lat="45.64936" lon="4.59117">
        <ele>772</ele>
        <time>2018-10-14T08:34:57Z</time>
      </trkpt>
      <trkpt lat="45.64931" lon="4.59114">
        <ele>772</ele>
        <time>2018-10-14T08:34:58Z</time>
      </trkpt>
      <trkpt lat="45.64927" lon="4.59112">
        <ele>773</ele>
        <time>2018-10-14T08:34:59Z</time>
      </trkpt>
      <trkpt lat="45.64921" lon="4.59117">
        <ele>774</ele>
        <time>2018-10-14T08:35:00Z</time>
      </trkpt>
      <trkpt lat="45.64915" lon="4.59117">
        <ele>774</ele>
        <time>2018-10-14T08:35:01Z</time>
      </trkpt>
      <trkpt lat="45.64909" lon="4.59121">
        <ele>774</ele>
        <time>2018-10-14T08:35:02Z</time>
      </trkpt>
      <trkpt lat="45.64904" lon="4.59124">
        <ele>774</ele>
        <time>2018-10-14T08:35:03Z</time>
      </trkpt>
      <trkpt lat="45.64896" lon="4.59128">
        <ele>774</ele>
        <time>2018-10-14T08:35:04Z</time>
      </trkpt>
      <trkpt lat="45.64892" lon="4.5913">
        <ele>775</ele>
        <time>2018-10-14T08:35:05Z</time>
      </trkpt>
      <trkpt lat="45.64888" lon="4.59133">
        <ele>776</ele>
        <time>2018-10-14T08:35:06Z</time>
      </trkpt>
      <trkpt lat="45.64883" lon="4.59137">
        <ele>776</ele>
        <time>2018-10-14T08:35:07Z</time>
      </trkpt>
      <trkpt lat="45.64877" lon="4.59137">
        <ele>777</ele>
        <time>2018-10-14T08:35:08Z</time>
      </trkpt>
      <trkpt lat="45.64873" lon="4.5914">
        <ele>777</ele>
        <time>2018-10-14T08:35:09Z</time>
      </trkpt>
      <trkpt lat="45.6487" lon="4.59142">
        <ele>774</ele>
        <time>2018-10-14T08:35:10Z</time>
      </trkpt>
      <trkpt lat="45.64868" lon="4.59148">
        <ele>771</ele>
        <time>2018-10-14T08:35:11Z</time>
      </trkpt>
      <trkpt lat="45.64864" lon="4.59149">
        <ele>772</ele>
        <time>2018-10-14T08:35:12Z</time>
      </trkpt>
      <trkpt lat="45.64861" lon="4.59148">
        <ele>773</ele>
        <time>2018-10-14T08:35:13Z</time>
      </trkpt>
      <trkpt lat="45.64858" lon="4.59148">
        <ele>773</ele>
        <time>2018-10-14T08:35:14Z</time>
      </trkpt>
      <trkpt lat="45.64853" lon="4.59148">
        <ele>773</ele>
        <time>2018-10-14T08:35:15Z</time>
      </trkpt>
      <trkpt lat="45.64851" lon="4.59148">
        <ele>774</ele>
        <time>2018-10-14T08:35:16Z</time>
      </trkpt>
      <trkpt lat="45.64851" lon="4.59148">
        <ele>774</ele>
        <time>2018-10-14T08:35:17Z</time>
      </trkpt>
      <trkpt lat="45.6485" lon="4.59148">
        <ele>774</ele>
        <time>2018-10-14T08:35:18Z</time>
      </trkpt>
      <trkpt lat="45.64848" lon="4.59149">
        <ele>774</ele>
        <time>2018-10-14T08:35:19Z</time>
      </trkpt>
      <trkpt lat="45.64846" lon="4.59149">
        <ele>775</ele>
        <time>2018-10-14T08:35:20Z</time>
      </trkpt>
      <trkpt lat="45.64845" lon="4.59148">
        <ele>776</ele>
        <time>2018-10-14T08:35:21Z</time>
      </trkpt>
      <trkpt lat="45.64844" lon="4.59149">
        <ele>776</ele>
        <time>2018-10-14T08:35:22Z</time>
      </trkpt>
      <trkpt lat="45.64841" lon="4.5915">
        <ele>776</ele>
        <time>2018-10-14T08:35:24Z</time>
      </trkpt>
      <trkpt lat="45.64838" lon="4.5915">
        <ele>777</ele>
        <time>2018-10-14T08:35:25Z</time>
      </trkpt>
      <trkpt lat="45.64835" lon="4.5915">
        <ele>777</ele>
        <time>2018-10-14T08:35:26Z</time>
      </trkpt>
      <trkpt lat="45.64833" lon="4.59151">
        <ele>778</ele>
        <time>2018-10-14T08:35:27Z</time>
      </trkpt>
      <trkpt lat="45.6483" lon="4.59151">
        <ele>777</ele>
        <time>2018-10-14T08:35:28Z</time>
      </trkpt>
      <trkpt lat="45.64829" lon="4.59152">
        <ele>777</ele>
        <time>2018-10-14T08:35:29Z</time>
      </trkpt>
      <trkpt lat="45.64827" lon="4.59152">
        <ele>777</ele>
        <time>2018-10-14T08:35:30Z</time>
      </trkpt>
      <trkpt lat="45.64824" lon="4.59154">
        <ele>777</ele>
        <time>2018-10-14T08:35:32Z</time>
      </trkpt>
      <trkpt lat="45.64821" lon="4.59156">
        <ele>778</ele>
        <time>2018-10-14T08:35:33Z</time>
      </trkpt>
      <trkpt lat="45.64818" lon="4.59157">
        <ele>778</ele>
        <time>2018-10-14T08:35:34Z</time>
      </trkpt>
      <trkpt lat="45.64816" lon="4.59159">
        <ele>776</ele>
        <time>2018-10-14T08:35:35Z</time>
      </trkpt>
      <trkpt lat="45.64815" lon="4.59161">
        <ele>778</ele>
        <time>2018-10-14T08:35:36Z</time>
      </trkpt>
      <trkpt lat="45.64813" lon="4.59163">
        <ele>778</ele>
        <time>2018-10-14T08:35:37Z</time>
      </trkpt>
      <trkpt lat="45.64811" lon="4.59165">
        <ele>779</ele>
        <time>2018-10-14T08:35:38Z</time>
      </trkpt>
      <trkpt lat="45.64809" lon="4.59167">
        <ele>779</ele>
        <time>2018-10-14T08:35:39Z</time>
      </trkpt>
      <trkpt lat="45.64807" lon="4.59168">
        <ele>779</ele>
        <time>2018-10-14T08:35:40Z</time>
      </trkpt>
      <trkpt lat="45.64806" lon="4.5917">
        <ele>780</ele>
        <time>2018-10-14T08:35:41Z</time>
      </trkpt>
      <trkpt lat="45.64804" lon="4.59173">
        <ele>780</ele>
        <time>2018-10-14T08:35:42Z</time>
      </trkpt>
      <trkpt lat="45.64803" lon="4.59176">
        <ele>781</ele>
        <time>2018-10-14T08:35:43Z</time>
      </trkpt>
      <trkpt lat="45.64801" lon="4.59179">
        <ele>781</ele>
        <time>2018-10-14T08:35:44Z</time>
      </trkpt>
      <trkpt lat="45.64801" lon="4.59181">
        <ele>780</ele>
        <time>2018-10-14T08:35:45Z</time>
      </trkpt>
      <trkpt lat="45.648" lon="4.59184">
        <ele>781</ele>
        <time>2018-10-14T08:35:46Z</time>
      </trkpt>
      <trkpt lat="45.648" lon="4.59188">
        <ele>782</ele>
        <time>2018-10-14T08:35:47Z</time>
      </trkpt>
      <trkpt lat="45.648" lon="4.59191">
        <ele>782</ele>
        <time>2018-10-14T08:35:48Z</time>
      </trkpt>
      <trkpt lat="45.648" lon="4.59194">
        <ele>782</ele>
        <time>2018-10-14T08:35:49Z</time>
      </trkpt>
      <trkpt lat="45.64799" lon="4.59197">
        <ele>783</ele>
        <time>2018-10-14T08:35:50Z</time>
      </trkpt>
      <trkpt lat="45.64798" lon="4.59198">
        <ele>783</ele>
        <time>2018-10-14T08:35:51Z</time>
      </trkpt>
      <trkpt lat="45.64798" lon="4.59199">
        <ele>783</ele>
        <time>2018-10-14T08:35:52Z</time>
      </trkpt>
      <trkpt lat="45.64797" lon="4.59202">
        <ele>783</ele>
        <time>2018-10-14T08:35:53Z</time>
      </trkpt>
      <trkpt lat="45.64796" lon="4.59204">
        <ele>783</ele>
        <time>2018-10-14T08:35:54Z</time>
      </trkpt>
      <trkpt lat="45.64795" lon="4.59207">
        <ele>783</ele>
        <time>2018-10-14T08:35:55Z</time>
      </trkpt>
      <trkpt lat="45.64794" lon="4.59208">
        <ele>783</ele>
        <time>2018-10-14T08:35:56Z</time>
      </trkpt>
      <trkpt lat="45.64793" lon="4.5921">
        <ele>784</ele>
        <time>2018-10-14T08:35:57Z</time>
      </trkpt>
      <trkpt lat="45.64792" lon="4.59212">
        <ele>785</ele>
        <time>2018-10-14T08:35:58Z</time>
      </trkpt>
      <trkpt lat="45.64792" lon="4.59213">
        <ele>785</ele>
        <time>2018-10-14T08:35:59Z</time>
      </trkpt>
      <trkpt lat="45.64791" lon="4.59216">
        <ele>785</ele>
        <time>2018-10-14T08:36:00Z</time>
      </trkpt>
      <trkpt lat="45.6479" lon="4.59218">
        <ele>786</ele>
        <time>2018-10-14T08:36:01Z</time>
      </trkpt>
      <trkpt lat="45.64789" lon="4.59221">
        <ele>786</ele>
        <time>2018-10-14T08:36:02Z</time>
      </trkpt>
      <trkpt lat="45.64788" lon="4.59222">
        <ele>786</ele>
        <time>2018-10-14T08:36:03Z</time>
      </trkpt>
      <trkpt lat="45.64788" lon="4.59224">
        <ele>786</ele>
        <time>2018-10-14T08:36:04Z</time>
      </trkpt>
      <trkpt lat="45.64787" lon="4.59226">
        <ele>786</ele>
        <time>2018-10-14T08:36:05Z</time>
      </trkpt>
      <trkpt lat="45.64786" lon="4.59227">
        <ele>787</ele>
        <time>2018-10-14T08:36:06Z</time>
      </trkpt>
      <trkpt lat="45.64785" lon="4.59229">
        <ele>787</ele>
        <time>2018-10-14T08:36:07Z</time>
      </trkpt>
      <trkpt lat="45.64784" lon="4.59231">
        <ele>788</ele>
        <time>2018-10-14T08:36:08Z</time>
      </trkpt>
      <trkpt lat="45.64784" lon="4.59232">
        <ele>788</ele>
        <time>2018-10-14T08:36:09Z</time>
      </trkpt>
      <trkpt lat="45.64783" lon="4.59234">
        <ele>789</ele>
        <time>2018-10-14T08:36:10Z</time>
      </trkpt>
      <trkpt lat="45.64782" lon="4.59236">
        <ele>788</ele>
        <time>2018-10-14T08:36:11Z</time>
      </trkpt>
      <trkpt lat="45.64782" lon="4.59237">
        <ele>788</ele>
        <time>2018-10-14T08:36:12Z</time>
      </trkpt>
      <trkpt lat="45.64781" lon="4.59239">
        <ele>788</ele>
        <time>2018-10-14T08:36:13Z</time>
      </trkpt>
      <trkpt lat="45.64781" lon="4.59241">
        <ele>788</ele>
        <time>2018-10-14T08:36:14Z</time>
      </trkpt>
      <trkpt lat="45.64781" lon="4.59243">
        <ele>788</ele>
        <time>2018-10-14T08:36:15Z</time>
      </trkpt>
      <trkpt lat="45.6478" lon="4.59246">
        <ele>787</ele>
        <time>2018-10-14T08:36:16Z</time>
      </trkpt>
      <trkpt lat="45.64779" lon="4.59247">
        <ele>788</ele>
        <time>2018-10-14T08:36:17Z</time>
      </trkpt>
      <trkpt lat="45.64779" lon="4.59249">
        <ele>789</ele>
        <time>2018-10-14T08:36:18Z</time>
      </trkpt>
      <trkpt lat="45.64777" lon="4.59251">
        <ele>789</ele>
        <time>2018-10-14T08:36:19Z</time>
      </trkpt>
      <trkpt lat="45.64777" lon="4.59253">
        <ele>789</ele>
        <time>2018-10-14T08:36:20Z</time>
      </trkpt>
      <trkpt lat="45.64776" lon="4.59255">
        <ele>789</ele>
        <time>2018-10-14T08:36:21Z</time>
      </trkpt>
      <trkpt lat="45.64774" lon="4.59256">
        <ele>789</ele>
        <time>2018-10-14T08:36:22Z</time>
      </trkpt>
      <trkpt lat="45.64774" lon="4.59257">
        <ele>788</ele>
        <time>2018-10-14T08:36:23Z</time>
      </trkpt>
      <trkpt lat="45.64772" lon="4.59258">
        <ele>789</ele>
        <time>2018-10-14T08:36:24Z</time>
      </trkpt>
      <trkpt lat="45.64771" lon="4.59258">
        <ele>789</ele>
        <time>2018-10-14T08:36:25Z</time>
      </trkpt>
      <trkpt lat="45.6477" lon="4.59259">
        <ele>789</ele>
        <time>2018-10-14T08:36:26Z</time>
      </trkpt>
      <trkpt lat="45.64768" lon="4.5926">
        <ele>790</ele>
        <time>2018-10-14T08:36:27Z</time>
      </trkpt>
      <trkpt lat="45.64767" lon="4.59261">
        <ele>790</ele>
        <time>2018-10-14T08:36:28Z</time>
      </trkpt>
      <trkpt lat="45.64765" lon="4.59262">
        <ele>790</ele>
        <time>2018-10-14T08:36:29Z</time>
      </trkpt>
      <trkpt lat="45.64764" lon="4.59263">
        <ele>790</ele>
        <time>2018-10-14T08:36:30Z</time>
      </trkpt>
      <trkpt lat="45.64763" lon="4.59264">
        <ele>791</ele>
        <time>2018-10-14T08:36:31Z</time>
      </trkpt>
      <trkpt lat="45.64761" lon="4.59264">
        <ele>791</ele>
        <time>2018-10-14T08:36:32Z</time>
      </trkpt>
      <trkpt lat="45.64759" lon="4.59264">
        <ele>791</ele>
        <time>2018-10-14T08:36:33Z</time>
      </trkpt>
      <trkpt lat="45.64758" lon="4.59264">
        <ele>791</ele>
        <time>2018-10-14T08:36:34Z</time>
      </trkpt>
      <trkpt lat="45.64756" lon="4.59264">
        <ele>792</ele>
        <time>2018-10-14T08:36:35Z</time>
      </trkpt>
      <trkpt lat="45.64755" lon="4.59263">
        <ele>791</ele>
        <time>2018-10-14T08:36:36Z</time>
      </trkpt>
      <trkpt lat="45.64753" lon="4.59262">
        <ele>792</ele>
        <time>2018-10-14T08:36:37Z</time>
      </trkpt>
      <trkpt lat="45.64752" lon="4.59262">
        <ele>792</ele>
        <time>2018-10-14T08:36:38Z</time>
      </trkpt>
      <trkpt lat="45.64751" lon="4.59261">
        <ele>792</ele>
        <time>2018-10-14T08:36:39Z</time>
      </trkpt>
      <trkpt lat="45.6475" lon="4.5926">
        <ele>793</ele>
        <time>2018-10-14T08:36:40Z</time>
      </trkpt>
      <trkpt lat="45.64749" lon="4.5926">
        <ele>793</ele>
        <time>2018-10-14T08:36:41Z</time>
      </trkpt>
      <trkpt lat="45.64748" lon="4.59259">
        <ele>793</ele>
        <time>2018-10-14T08:36:42Z</time>
      </trkpt>
      <trkpt lat="45.64747" lon="4.59258">
        <ele>793</ele>
        <time>2018-10-14T08:36:44Z</time>
      </trkpt>
      <trkpt lat="45.64745" lon="4.59257">
        <ele>793</ele>
        <time>2018-10-14T08:36:45Z</time>
      </trkpt>
      <trkpt lat="45.64744" lon="4.59256">
        <ele>793</ele>
        <time>2018-10-14T08:36:46Z</time>
      </trkpt>
      <trkpt lat="45.64743" lon="4.59254">
        <ele>794</ele>
        <time>2018-10-14T08:36:47Z</time>
      </trkpt>
      <trkpt lat="45.64742" lon="4.59253">
        <ele>794</ele>
        <time>2018-10-14T08:36:48Z</time>
      </trkpt>
      <trkpt lat="45.64741" lon="4.59251">
        <ele>794</ele>
        <time>2018-10-14T08:36:49Z</time>
      </trkpt>
      <trkpt lat="45.6474" lon="4.5925">
        <ele>794</ele>
        <time>2018-10-14T08:36:50Z</time>
      </trkpt>
      <trkpt lat="45.6474" lon="4.59249">
        <ele>794</ele>
        <time>2018-10-14T08:36:51Z</time>
      </trkpt>
      <trkpt lat="45.64739" lon="4.59248">
        <ele>795</ele>
        <time>2018-10-14T08:36:52Z</time>
      </trkpt>
      <trkpt lat="45.64739" lon="4.59246">
        <ele>795</ele>
        <time>2018-10-14T08:36:53Z</time>
      </trkpt>
      <trkpt lat="45.64738" lon="4.59246">
        <ele>795</ele>
        <time>2018-10-14T08:36:54Z</time>
      </trkpt>
      <trkpt lat="45.64738" lon="4.59245">
        <ele>796</ele>
        <time>2018-10-14T08:36:55Z</time>
      </trkpt>
      <trkpt lat="45.64737" lon="4.59244">
        <ele>796</ele>
        <time>2018-10-14T08:36:56Z</time>
      </trkpt>
      <trkpt lat="45.64737" lon="4.59243">
        <ele>797</ele>
        <time>2018-10-14T08:36:57Z</time>
      </trkpt>
      <trkpt lat="45.64735" lon="4.59242">
        <ele>797</ele>
        <time>2018-10-14T08:36:58Z</time>
      </trkpt>
      <trkpt lat="45.64734" lon="4.59241">
        <ele>798</ele>
        <time>2018-10-14T08:36:59Z</time>
      </trkpt>
      <trkpt lat="45.64733" lon="4.59241">
        <ele>799</ele>
        <time>2018-10-14T08:37:00Z</time>
      </trkpt>
      <trkpt lat="45.64732" lon="4.59239">
        <ele>799</ele>
        <time>2018-10-14T08:37:01Z</time>
      </trkpt>
      <trkpt lat="45.64731" lon="4.59238">
        <ele>799</ele>
        <time>2018-10-14T08:37:02Z</time>
      </trkpt>
      <trkpt lat="45.64729" lon="4.59237">
        <ele>799</ele>
        <time>2018-10-14T08:37:03Z</time>
      </trkpt>
      <trkpt lat="45.64727" lon="4.59235">
        <ele>800</ele>
        <time>2018-10-14T08:37:04Z</time>
      </trkpt>
      <trkpt lat="45.64727" lon="4.59234">
        <ele>800</ele>
        <time>2018-10-14T08:37:05Z</time>
      </trkpt>
      <trkpt lat="45.64726" lon="4.59234">
        <ele>800</ele>
        <time>2018-10-14T08:37:06Z</time>
      </trkpt>
      <trkpt lat="45.64724" lon="4.59233">
        <ele>799</ele>
        <time>2018-10-14T08:37:07Z</time>
      </trkpt>
      <trkpt lat="45.64723" lon="4.59231">
        <ele>799</ele>
        <time>2018-10-14T08:37:08Z</time>
      </trkpt>
      <trkpt lat="45.64721" lon="4.5923">
        <ele>800</ele>
        <time>2018-10-14T08:37:09Z</time>
      </trkpt>
      <trkpt lat="45.6472" lon="4.59229">
        <ele>800</ele>
        <time>2018-10-14T08:37:10Z</time>
      </trkpt>
      <trkpt lat="45.64719" lon="4.59227">
        <ele>800</ele>
        <time>2018-10-14T08:37:11Z</time>
      </trkpt>
      <trkpt lat="45.64717" lon="4.59225">
        <ele>800</ele>
        <time>2018-10-14T08:37:12Z</time>
      </trkpt>
      <trkpt lat="45.64716" lon="4.59224">
        <ele>801</ele>
        <time>2018-10-14T08:37:13Z</time>
      </trkpt>
      <trkpt lat="45.64715" lon="4.59222">
        <ele>801</ele>
        <time>2018-10-14T08:37:14Z</time>
      </trkpt>
      <trkpt lat="45.64714" lon="4.59221">
        <ele>801</ele>
        <time>2018-10-14T08:37:15Z</time>
      </trkpt>
      <trkpt lat="45.64713" lon="4.59221">
        <ele>802</ele>
        <time>2018-10-14T08:37:16Z</time>
      </trkpt>
      <trkpt lat="45.64712" lon="4.5922">
        <ele>802</ele>
        <time>2018-10-14T08:37:17Z</time>
      </trkpt>
      <trkpt lat="45.64711" lon="4.59218">
        <ele>802</ele>
        <time>2018-10-14T08:37:18Z</time>
      </trkpt>
      <trkpt lat="45.6471" lon="4.59217">
        <ele>802</ele>
        <time>2018-10-14T08:37:19Z</time>
      </trkpt>
      <trkpt lat="45.64708" lon="4.59215">
        <ele>803</ele>
        <time>2018-10-14T08:37:21Z</time>
      </trkpt>
      <trkpt lat="45.64707" lon="4.59213">
        <ele>803</ele>
        <time>2018-10-14T08:37:22Z</time>
      </trkpt>
      <trkpt lat="45.64706" lon="4.59212">
        <ele>803</ele>
        <time>2018-10-14T08:37:23Z</time>
      </trkpt>
      <trkpt lat="45.64705" lon="4.5921">
        <ele>803</ele>
        <time>2018-10-14T08:37:24Z</time>
      </trkpt>
      <trkpt lat="45.64703" lon="4.59208">
        <ele>803</ele>
        <time>2018-10-14T08:37:25Z</time>
      </trkpt>
      <trkpt lat="45.64703" lon="4.59207">
        <ele>803</ele>
        <time>2018-10-14T08:37:26Z</time>
      </trkpt>
      <trkpt lat="45.64702" lon="4.59206">
        <ele>804</ele>
        <time>2018-10-14T08:37:27Z</time>
      </trkpt>
      <trkpt lat="45.64701" lon="4.59205">
        <ele>805</ele>
        <time>2018-10-14T08:37:28Z</time>
      </trkpt>
      <trkpt lat="45.647" lon="4.59203">
        <ele>804</ele>
        <time>2018-10-14T08:37:29Z</time>
      </trkpt>
      <trkpt lat="45.64698" lon="4.59201">
        <ele>804</ele>
        <time>2018-10-14T08:37:30Z</time>
      </trkpt>
      <trkpt lat="45.64697" lon="4.59199">
        <ele>804</ele>
        <time>2018-10-14T08:37:31Z</time>
      </trkpt>
      <trkpt lat="45.64696" lon="4.59197">
        <ele>804</ele>
        <time>2018-10-14T08:37:32Z</time>
      </trkpt>
      <trkpt lat="45.64695" lon="4.59196">
        <ele>804</ele>
        <time>2018-10-14T08:37:33Z</time>
      </trkpt>
      <trkpt lat="45.64694" lon="4.59194">
        <ele>805</ele>
        <time>2018-10-14T08:37:35Z</time>
      </trkpt>
      <trkpt lat="45.64692" lon="4.59193">
        <ele>805</ele>
        <time>2018-10-14T08:37:36Z</time>
      </trkpt>
      <trkpt lat="45.64691" lon="4.59191">
        <ele>805</ele>
        <time>2018-10-14T08:37:37Z</time>
      </trkpt>
      <trkpt lat="45.6469" lon="4.59189">
        <ele>805</ele>
        <time>2018-10-14T08:37:38Z</time>
      </trkpt>
      <trkpt lat="45.64689" lon="4.59187">
        <ele>806</ele>
        <time>2018-10-14T08:37:39Z</time>
      </trkpt>
      <trkpt lat="45.64688" lon="4.59185">
        <ele>806</ele>
        <time>2018-10-14T08:37:40Z</time>
      </trkpt>
      <trkpt lat="45.64687" lon="4.59183">
        <ele>806</ele>
        <time>2018-10-14T08:37:41Z</time>
      </trkpt>
      <trkpt lat="45.64687" lon="4.59181">
        <ele>807</ele>
        <time>2018-10-14T08:37:42Z</time>
      </trkpt>
      <trkpt lat="45.64686" lon="4.5918">
        <ele>806</ele>
        <time>2018-10-14T08:37:43Z</time>
      </trkpt>
      <trkpt lat="45.64686" lon="4.59179">
        <ele>807</ele>
        <time>2018-10-14T08:37:44Z</time>
      </trkpt>
      <trkpt lat="45.64685" lon="4.59177">
        <ele>808</ele>
        <time>2018-10-14T08:37:45Z</time>
      </trkpt>
      <trkpt lat="45.64685" lon="4.59176">
        <ele>808</ele>
        <time>2018-10-14T08:37:46Z</time>
      </trkpt>
      <trkpt lat="45.64684" lon="4.59174">
        <ele>808</ele>
        <time>2018-10-14T08:37:47Z</time>
      </trkpt>
      <trkpt lat="45.64682" lon="4.59172">
        <ele>809</ele>
        <time>2018-10-14T08:37:48Z</time>
      </trkpt>
      <trkpt lat="45.64681" lon="4.59171">
        <ele>808</ele>
        <time>2018-10-14T08:37:49Z</time>
      </trkpt>
      <trkpt lat="45.64679" lon="4.59169">
        <ele>808</ele>
        <time>2018-10-14T08:37:50Z</time>
      </trkpt>
      <trkpt lat="45.64678" lon="4.59169">
        <ele>808</ele>
        <time>2018-10-14T08:37:51Z</time>
      </trkpt>
      <trkpt lat="45.64677" lon="4.59168">
        <ele>808</ele>
        <time>2018-10-14T08:37:52Z</time>
      </trkpt>
      <trkpt lat="45.64676" lon="4.59167">
        <ele>808</ele>
        <time>2018-10-14T08:37:53Z</time>
      </trkpt>
      <trkpt lat="45.64674" lon="4.59166">
        <ele>808</ele>
        <time>2018-10-14T08:37:54Z</time>
      </trkpt>
      <trkpt lat="45.64673" lon="4.59165">
        <ele>809</ele>
        <time>2018-10-14T08:37:55Z</time>
      </trkpt>
      <trkpt lat="45.64672" lon="4.59165">
        <ele>809</ele>
        <time>2018-10-14T08:37:56Z</time>
      </trkpt>
      <trkpt lat="45.64671" lon="4.59164">
        <ele>809</ele>
        <time>2018-10-14T08:37:57Z</time>
      </trkpt>
      <trkpt lat="45.64669" lon="4.59163">
        <ele>810</ele>
        <time>2018-10-14T08:37:58Z</time>
      </trkpt>
      <trkpt lat="45.64669" lon="4.59163">
        <ele>810</ele>
        <time>2018-10-14T08:37:59Z</time>
      </trkpt>
      <trkpt lat="45.64668" lon="4.59163">
        <ele>810</ele>
        <time>2018-10-14T08:38:00Z</time>
      </trkpt>
      <trkpt lat="45.64667" lon="4.59163">
        <ele>811</ele>
        <time>2018-10-14T08:38:01Z</time>
      </trkpt>
      <trkpt lat="45.64666" lon="4.59162">
        <ele>812</ele>
        <time>2018-10-14T08:38:02Z</time>
      </trkpt>
      <trkpt lat="45.64665" lon="4.59162">
        <ele>812</ele>
        <time>2018-10-14T08:38:03Z</time>
      </trkpt>
      <trkpt lat="45.64663" lon="4.59161">
        <ele>812</ele>
        <time>2018-10-14T08:38:04Z</time>
      </trkpt>
      <trkpt lat="45.64663" lon="4.59159">
        <ele>812</ele>
        <time>2018-10-14T08:38:05Z</time>
      </trkpt>
      <trkpt lat="45.64662" lon="4.59157">
        <ele>812</ele>
        <time>2018-10-14T08:38:06Z</time>
      </trkpt>
      <trkpt lat="45.64661" lon="4.59154">
        <ele>812</ele>
        <time>2018-10-14T08:38:07Z</time>
      </trkpt>
      <trkpt lat="45.64661" lon="4.59152">
        <ele>812</ele>
        <time>2018-10-14T08:38:08Z</time>
      </trkpt>
      <trkpt lat="45.64661" lon="4.5915">
        <ele>812</ele>
        <time>2018-10-14T08:38:09Z</time>
      </trkpt>
      <trkpt lat="45.64661" lon="4.59147">
        <ele>812</ele>
        <time>2018-10-14T08:38:10Z</time>
      </trkpt>
      <trkpt lat="45.64661" lon="4.59144">
        <ele>813</ele>
        <time>2018-10-14T08:38:12Z</time>
      </trkpt>
      <trkpt lat="45.64661" lon="4.59142">
        <ele>813</ele>
        <time>2018-10-14T08:38:13Z</time>
      </trkpt>
      <trkpt lat="45.6466" lon="4.59141">
        <ele>813</ele>
        <time>2018-10-14T08:38:14Z</time>
      </trkpt>
      <trkpt lat="45.64658" lon="4.5914">
        <ele>812</ele>
        <time>2018-10-14T08:38:15Z</time>
      </trkpt>
      <trkpt lat="45.64656" lon="4.5914">
        <ele>813</ele>
        <time>2018-10-14T08:38:16Z</time>
      </trkpt>
      <trkpt lat="45.64654" lon="4.5914">
        <ele>814</ele>
        <time>2018-10-14T08:38:17Z</time>
      </trkpt>
      <trkpt lat="45.64653" lon="4.59142">
        <ele>814</ele>
        <time>2018-10-14T08:38:18Z</time>
      </trkpt>
      <trkpt lat="45.64651" lon="4.59144">
        <ele>814</ele>
        <time>2018-10-14T08:38:19Z</time>
      </trkpt>
      <trkpt lat="45.6465" lon="4.59146">
        <ele>813</ele>
        <time>2018-10-14T08:38:20Z</time>
      </trkpt>
      <trkpt lat="45.64648" lon="4.59148">
        <ele>814</ele>
        <time>2018-10-14T08:38:21Z</time>
      </trkpt>
      <trkpt lat="45.64648" lon="4.5915">
        <ele>814</ele>
        <time>2018-10-14T08:38:22Z</time>
      </trkpt>
      <trkpt lat="45.64647" lon="4.59152">
        <ele>813</ele>
        <time>2018-10-14T08:38:23Z</time>
      </trkpt>
      <trkpt lat="45.64646" lon="4.59153">
        <ele>813</ele>
        <time>2018-10-14T08:38:24Z</time>
      </trkpt>
      <trkpt lat="45.64645" lon="4.59155">
        <ele>813</ele>
        <time>2018-10-14T08:38:25Z</time>
      </trkpt>
      <trkpt lat="45.64644" lon="4.59158">
        <ele>813</ele>
        <time>2018-10-14T08:38:26Z</time>
      </trkpt>
      <trkpt lat="45.64644" lon="4.5916">
        <ele>813</ele>
        <time>2018-10-14T08:38:27Z</time>
      </trkpt>
      <trkpt lat="45.64642" lon="4.59163">
        <ele>813</ele>
        <time>2018-10-14T08:38:28Z</time>
      </trkpt>
      <trkpt lat="45.64642" lon="4.59165">
        <ele>814</ele>
        <time>2018-10-14T08:38:29Z</time>
      </trkpt>
      <trkpt lat="45.6464" lon="4.59168">
        <ele>814</ele>
        <time>2018-10-14T08:38:30Z</time>
      </trkpt>
      <trkpt lat="45.64639" lon="4.59172">
        <ele>813</ele>
        <time>2018-10-14T08:38:31Z</time>
      </trkpt>
      <trkpt lat="45.64638" lon="4.59176">
        <ele>814</ele>
        <time>2018-10-14T08:38:32Z</time>
      </trkpt>
      <trkpt lat="45.64637" lon="4.5918">
        <ele>814</ele>
        <time>2018-10-14T08:38:34Z</time>
      </trkpt>
      <trkpt lat="45.64637" lon="4.59185">
        <ele>814</ele>
        <time>2018-10-14T08:38:35Z</time>
      </trkpt>
      <trkpt lat="45.64637" lon="4.5919">
        <ele>814</ele>
        <time>2018-10-14T08:38:36Z</time>
      </trkpt>
      <trkpt lat="45.64637" lon="4.59195">
        <ele>815</ele>
        <time>2018-10-14T08:38:37Z</time>
      </trkpt>
      <trkpt lat="45.64637" lon="4.59199">
        <ele>814</ele>
        <time>2018-10-14T08:38:38Z</time>
      </trkpt>
      <trkpt lat="45.64636" lon="4.59204">
        <ele>815</ele>
        <time>2018-10-14T08:38:39Z</time>
      </trkpt>
      <trkpt lat="45.64636" lon="4.59208">
        <ele>815</ele>
        <time>2018-10-14T08:38:40Z</time>
      </trkpt>
      <trkpt lat="45.64636" lon="4.59212">
        <ele>816</ele>
        <time>2018-10-14T08:38:41Z</time>
      </trkpt>
      <trkpt lat="45.64636" lon="4.59216">
        <ele>815</ele>
        <time>2018-10-14T08:38:42Z</time>
      </trkpt>
      <trkpt lat="45.64636" lon="4.5922">
        <ele>815</ele>
        <time>2018-10-14T08:38:43Z</time>
      </trkpt>
      <trkpt lat="45.64636" lon="4.59225">
        <ele>816</ele>
        <time>2018-10-14T08:38:44Z</time>
      </trkpt>
      <trkpt lat="45.64637" lon="4.59229">
        <ele>816</ele>
        <time>2018-10-14T08:38:45Z</time>
      </trkpt>
      <trkpt lat="45.64637" lon="4.59233">
        <ele>816</ele>
        <time>2018-10-14T08:38:46Z</time>
      </trkpt>
      <trkpt lat="45.64637" lon="4.59236">
        <ele>816</ele>
        <time>2018-10-14T08:38:47Z</time>
      </trkpt>
      <trkpt lat="45.64637" lon="4.5924">
        <ele>816</ele>
        <time>2018-10-14T08:38:48Z</time>
      </trkpt>
      <trkpt lat="45.64637" lon="4.59242">
        <ele>817</ele>
        <time>2018-10-14T08:38:49Z</time>
      </trkpt>
      <trkpt lat="45.64637" lon="4.59245">
        <ele>817</ele>
        <time>2018-10-14T08:38:50Z</time>
      </trkpt>
      <trkpt lat="45.64637" lon="4.59248">
        <ele>817</ele>
        <time>2018-10-14T08:38:51Z</time>
      </trkpt>
      <trkpt lat="45.64637" lon="4.59251">
        <ele>818</ele>
        <time>2018-10-14T08:38:52Z</time>
      </trkpt>
      <trkpt lat="45.64637" lon="4.59253">
        <ele>819</ele>
        <time>2018-10-14T08:38:53Z</time>
      </trkpt>
      <trkpt lat="45.64636" lon="4.59256">
        <ele>818</ele>
        <time>2018-10-14T08:38:54Z</time>
      </trkpt>
      <trkpt lat="45.64636" lon="4.5926">
        <ele>819</ele>
        <time>2018-10-14T08:38:55Z</time>
      </trkpt>
      <trkpt lat="45.64635" lon="4.59263">
        <ele>819</ele>
        <time>2018-10-14T08:38:56Z</time>
      </trkpt>
      <trkpt lat="45.64634" lon="4.59266">
        <ele>820</ele>
        <time>2018-10-14T08:38:57Z</time>
      </trkpt>
      <trkpt lat="45.64633" lon="4.59269">
        <ele>821</ele>
        <time>2018-10-14T08:38:58Z</time>
      </trkpt>
      <trkpt lat="45.64632" lon="4.59272">
        <ele>821</ele>
        <time>2018-10-14T08:38:59Z</time>
      </trkpt>
      <trkpt lat="45.64632" lon="4.59274">
        <ele>822</ele>
        <time>2018-10-14T08:39:00Z</time>
      </trkpt>
      <trkpt lat="45.64631" lon="4.59277">
        <ele>822</ele>
        <time>2018-10-14T08:39:01Z</time>
      </trkpt>
      <trkpt lat="45.6463" lon="4.5928">
        <ele>822</ele>
        <time>2018-10-14T08:39:02Z</time>
      </trkpt>
      <trkpt lat="45.64629" lon="4.59284">
        <ele>823</ele>
        <time>2018-10-14T08:39:03Z</time>
      </trkpt>
      <trkpt lat="45.64629" lon="4.59288">
        <ele>823</ele>
        <time>2018-10-14T08:39:04Z</time>
      </trkpt>
      <trkpt lat="45.64628" lon="4.59291">
        <ele>823</ele>
        <time>2018-10-14T08:39:05Z</time>
      </trkpt>
      <trkpt lat="45.64628" lon="4.59294">
        <ele>823</ele>
        <time>2018-10-14T08:39:06Z</time>
      </trkpt>
      <trkpt lat="45.64627" lon="4.59298">
        <ele>824</ele>
        <time>2018-10-14T08:39:07Z</time>
      </trkpt>
      <trkpt lat="45.64626" lon="4.59301">
        <ele>824</ele>
        <time>2018-10-14T08:39:08Z</time>
      </trkpt>
      <trkpt lat="45.64625" lon="4.59304">
        <ele>825</ele>
        <time>2018-10-14T08:39:09Z</time>
      </trkpt>
      <trkpt lat="45.64624" lon="4.59307">
        <ele>825</ele>
        <time>2018-10-14T08:39:10Z</time>
      </trkpt>
      <trkpt lat="45.64623" lon="4.59309">
        <ele>826</ele>
        <time>2018-10-14T08:39:11Z</time>
      </trkpt>
      <trkpt lat="45.64622" lon="4.59311">
        <ele>825</ele>
        <time>2018-10-14T08:39:12Z</time>
      </trkpt>
      <trkpt lat="45.64621" lon="4.59313">
        <ele>826</ele>
        <time>2018-10-14T08:39:13Z</time>
      </trkpt>
      <trkpt lat="45.6462" lon="4.59316">
        <ele>826</ele>
        <time>2018-10-14T08:39:14Z</time>
      </trkpt>
      <trkpt lat="45.64619" lon="4.59319">
        <ele>826</ele>
        <time>2018-10-14T08:39:15Z</time>
      </trkpt>
      <trkpt lat="45.64618" lon="4.59321">
        <ele>826</ele>
        <time>2018-10-14T08:39:16Z</time>
      </trkpt>
      <trkpt lat="45.64617" lon="4.59323">
        <ele>827</ele>
        <time>2018-10-14T08:39:17Z</time>
      </trkpt>
      <trkpt lat="45.64616" lon="4.59324">
        <ele>826</ele>
        <time>2018-10-14T08:39:18Z</time>
      </trkpt>
      <trkpt lat="45.64616" lon="4.59326">
        <ele>826</ele>
        <time>2018-10-14T08:39:19Z</time>
      </trkpt>
      <trkpt lat="45.64615" lon="4.59328">
        <ele>826</ele>
        <time>2018-10-14T08:39:20Z</time>
      </trkpt>
      <trkpt lat="45.64613" lon="4.59331">
        <ele>826</ele>
        <time>2018-10-14T08:39:21Z</time>
      </trkpt>
      <trkpt lat="45.64611" lon="4.59333">
        <ele>827</ele>
        <time>2018-10-14T08:39:22Z</time>
      </trkpt>
      <trkpt lat="45.6461" lon="4.59335">
        <ele>827</ele>
        <time>2018-10-14T08:39:23Z</time>
      </trkpt>
      <trkpt lat="45.6461" lon="4.59336">
        <ele>827</ele>
        <time>2018-10-14T08:39:24Z</time>
      </trkpt>
      <trkpt lat="45.64608" lon="4.59337">
        <ele>828</ele>
        <time>2018-10-14T08:39:25Z</time>
      </trkpt>
      <trkpt lat="45.64607" lon="4.59339">
        <ele>828</ele>
        <time>2018-10-14T08:39:26Z</time>
      </trkpt>
      <trkpt lat="45.64605" lon="4.59341">
        <ele>828</ele>
        <time>2018-10-14T08:39:27Z</time>
      </trkpt>
      <trkpt lat="45.64603" lon="4.59342">
        <ele>829</ele>
        <time>2018-10-14T08:39:28Z</time>
      </trkpt>
      <trkpt lat="45.64602" lon="4.59343">
        <ele>829</ele>
        <time>2018-10-14T08:39:29Z</time>
      </trkpt>
      <trkpt lat="45.64601" lon="4.59344">
        <ele>829</ele>
        <time>2018-10-14T08:39:30Z</time>
      </trkpt>
      <trkpt lat="45.64599" lon="4.59345">
        <ele>830</ele>
        <time>2018-10-14T08:39:31Z</time>
      </trkpt>
      <trkpt lat="45.64597" lon="4.59346">
        <ele>829</ele>
        <time>2018-10-14T08:39:32Z</time>
      </trkpt>
      <trkpt lat="45.64596" lon="4.59347">
        <ele>829</ele>
        <time>2018-10-14T08:39:33Z</time>
      </trkpt>
      <trkpt lat="45.64595" lon="4.59349">
        <ele>829</ele>
        <time>2018-10-14T08:39:34Z</time>
      </trkpt>
      <trkpt lat="45.64593" lon="4.59349">
        <ele>830</ele>
        <time>2018-10-14T08:39:35Z</time>
      </trkpt>
      <trkpt lat="45.64591" lon="4.5935">
        <ele>830</ele>
        <time>2018-10-14T08:39:36Z</time>
      </trkpt>
      <trkpt lat="45.64589" lon="4.59351">
        <ele>830</ele>
        <time>2018-10-14T08:39:37Z</time>
      </trkpt>
      <trkpt lat="45.64587" lon="4.59352">
        <ele>831</ele>
        <time>2018-10-14T08:39:38Z</time>
      </trkpt>
      <trkpt lat="45.64586" lon="4.59353">
        <ele>831</ele>
        <time>2018-10-14T08:39:39Z</time>
      </trkpt>
      <trkpt lat="45.64584" lon="4.59353">
        <ele>832</ele>
        <time>2018-10-14T08:39:40Z</time>
      </trkpt>
      <trkpt lat="45.64582" lon="4.59354">
        <ele>832</ele>
        <time>2018-10-14T08:39:41Z</time>
      </trkpt>
      <trkpt lat="45.64581" lon="4.59355">
        <ele>832</ele>
        <time>2018-10-14T08:39:42Z</time>
      </trkpt>
      <trkpt lat="45.64579" lon="4.59356">
        <ele>833</ele>
        <time>2018-10-14T08:39:43Z</time>
      </trkpt>
      <trkpt lat="45.64578" lon="4.59357">
        <ele>833</ele>
        <time>2018-10-14T08:39:44Z</time>
      </trkpt>
      <trkpt lat="45.64577" lon="4.59357">
        <ele>833</ele>
        <time>2018-10-14T08:39:45Z</time>
      </trkpt>
      <trkpt lat="45.64576" lon="4.59358">
        <ele>833</ele>
        <time>2018-10-14T08:39:46Z</time>
      </trkpt>
      <trkpt lat="45.64574" lon="4.59359">
        <ele>833</ele>
        <time>2018-10-14T08:39:47Z</time>
      </trkpt>
      <trkpt lat="45.64573" lon="4.5936">
        <ele>834</ele>
        <time>2018-10-14T08:39:48Z</time>
      </trkpt>
      <trkpt lat="45.64572" lon="4.5936">
        <ele>834</ele>
        <time>2018-10-14T08:39:49Z</time>
      </trkpt>
      <trkpt lat="45.64571" lon="4.59362">
        <ele>834</ele>
        <time>2018-10-14T08:39:50Z</time>
      </trkpt>
      <trkpt lat="45.64569" lon="4.59363">
        <ele>835</ele>
        <time>2018-10-14T08:39:51Z</time>
      </trkpt>
      <trkpt lat="45.64568" lon="4.59365">
        <ele>834</ele>
        <time>2018-10-14T08:39:52Z</time>
      </trkpt>
      <trkpt lat="45.64567" lon="4.59366">
        <ele>835</ele>
        <time>2018-10-14T08:39:53Z</time>
      </trkpt>
      <trkpt lat="45.64566" lon="4.59367">
        <ele>834</ele>
        <time>2018-10-14T08:39:54Z</time>
      </trkpt>
      <trkpt lat="45.64565" lon="4.59369">
        <ele>834</ele>
        <time>2018-10-14T08:39:55Z</time>
      </trkpt>
      <trkpt lat="45.64563" lon="4.5937">
        <ele>834</ele>
        <time>2018-10-14T08:39:56Z</time>
      </trkpt>
      <trkpt lat="45.64562" lon="4.59371">
        <ele>834</ele>
        <time>2018-10-14T08:39:57Z</time>
      </trkpt>
      <trkpt lat="45.64562" lon="4.59372">
        <ele>835</ele>
        <time>2018-10-14T08:39:58Z</time>
      </trkpt>
      <trkpt lat="45.6456" lon="4.59372">
        <ele>835</ele>
        <time>2018-10-14T08:39:59Z</time>
      </trkpt>
      <trkpt lat="45.64558" lon="4.59373">
        <ele>835</ele>
        <time>2018-10-14T08:40:00Z</time>
      </trkpt>
      <trkpt lat="45.64557" lon="4.59373">
        <ele>836</ele>
        <time>2018-10-14T08:40:01Z</time>
      </trkpt>
      <trkpt lat="45.64555" lon="4.59373">
        <ele>837</ele>
        <time>2018-10-14T08:40:02Z</time>
      </trkpt>
      <trkpt lat="45.64553" lon="4.59373">
        <ele>836</ele>
        <time>2018-10-14T08:40:03Z</time>
      </trkpt>
      <trkpt lat="45.64552" lon="4.59374">
        <ele>837</ele>
        <time>2018-10-14T08:40:04Z</time>
      </trkpt>
      <trkpt lat="45.6455" lon="4.59374">
        <ele>837</ele>
        <time>2018-10-14T08:40:06Z</time>
      </trkpt>
      <trkpt lat="45.64548" lon="4.59375">
        <ele>837</ele>
        <time>2018-10-14T08:40:07Z</time>
      </trkpt>
      <trkpt lat="45.64546" lon="4.59375">
        <ele>837</ele>
        <time>2018-10-14T08:40:08Z</time>
      </trkpt>
      <trkpt lat="45.64544" lon="4.59376">
        <ele>837</ele>
        <time>2018-10-14T08:40:09Z</time>
      </trkpt>
      <trkpt lat="45.64542" lon="4.59376">
        <ele>837</ele>
        <time>2018-10-14T08:40:10Z</time>
      </trkpt>
      <trkpt lat="45.64541" lon="4.59376">
        <ele>837</ele>
        <time>2018-10-14T08:40:11Z</time>
      </trkpt>
      <trkpt lat="45.6454" lon="4.59376">
        <ele>837</ele>
        <time>2018-10-14T08:40:12Z</time>
      </trkpt>
      <trkpt lat="45.64537" lon="4.59375">
        <ele>838</ele>
        <time>2018-10-14T08:40:15Z</time>
      </trkpt>
      <trkpt lat="45.64535" lon="4.59374">
        <ele>838</ele>
        <time>2018-10-14T08:40:16Z</time>
      </trkpt>
      <trkpt lat="45.64533" lon="4.59373">
        <ele>837</ele>
        <time>2018-10-14T08:40:17Z</time>
      </trkpt>
      <trkpt lat="45.64531" lon="4.59372">
        <ele>837</ele>
        <time>2018-10-14T08:40:18Z</time>
      </trkpt>
      <trkpt lat="45.64529" lon="4.59371">
        <ele>837</ele>
        <time>2018-10-14T08:40:19Z</time>
      </trkpt>
      <trkpt lat="45.64528" lon="4.5937">
        <ele>838</ele>
        <time>2018-10-14T08:40:21Z</time>
      </trkpt>
      <trkpt lat="45.64526" lon="4.5937">
        <ele>838</ele>
        <time>2018-10-14T08:40:22Z</time>
      </trkpt>
      <trkpt lat="45.64525" lon="4.5937">
        <ele>839</ele>
        <time>2018-10-14T08:40:23Z</time>
      </trkpt>
      <trkpt lat="45.64523" lon="4.5937">
        <ele>839</ele>
        <time>2018-10-14T08:40:24Z</time>
      </trkpt>
      <trkpt lat="45.64522" lon="4.5937">
        <ele>839</ele>
        <time>2018-10-14T08:40:25Z</time>
      </trkpt>
      <trkpt lat="45.6452" lon="4.59371">
        <ele>840</ele>
        <time>2018-10-14T08:40:26Z</time>
      </trkpt>
      <trkpt lat="45.64519" lon="4.59371">
        <ele>840</ele>
        <time>2018-10-14T08:40:27Z</time>
      </trkpt>
      <trkpt lat="45.64517" lon="4.59372">
        <ele>840</ele>
        <time>2018-10-14T08:40:28Z</time>
      </trkpt>
      <trkpt lat="45.64516" lon="4.59372">
        <ele>840</ele>
        <time>2018-10-14T08:40:29Z</time>
      </trkpt>
      <trkpt lat="45.64514" lon="4.59372">
        <ele>840</ele>
        <time>2018-10-14T08:40:30Z</time>
      </trkpt>
      <trkpt lat="45.64513" lon="4.59373">
        <ele>840</ele>
        <time>2018-10-14T08:40:31Z</time>
      </trkpt>
      <trkpt lat="45.64511" lon="4.59374">
        <ele>840</ele>
        <time>2018-10-14T08:40:32Z</time>
      </trkpt>
      <trkpt lat="45.6451" lon="4.59375">
        <ele>841</ele>
        <time>2018-10-14T08:40:33Z</time>
      </trkpt>
      <trkpt lat="45.64508" lon="4.59376">
        <ele>840</ele>
        <time>2018-10-14T08:40:34Z</time>
      </trkpt>
      <trkpt lat="45.64506" lon="4.59377">
        <ele>840</ele>
        <time>2018-10-14T08:40:35Z</time>
      </trkpt>
      <trkpt lat="45.64504" lon="4.59378">
        <ele>840</ele>
        <time>2018-10-14T08:40:36Z</time>
      </trkpt>
      <trkpt lat="45.64502" lon="4.59379">
        <ele>840</ele>
        <time>2018-10-14T08:40:37Z</time>
      </trkpt>
      <trkpt lat="45.64501" lon="4.5938">
        <ele>840</ele>
        <time>2018-10-14T08:40:38Z</time>
      </trkpt>
      <trkpt lat="45.64499" lon="4.5938">
        <ele>840</ele>
        <time>2018-10-14T08:40:39Z</time>
      </trkpt>
      <trkpt lat="45.64497" lon="4.5938">
        <ele>840</ele>
        <time>2018-10-14T08:40:40Z</time>
      </trkpt>
      <trkpt lat="45.64495" lon="4.5938">
        <ele>839</ele>
        <time>2018-10-14T08:40:41Z</time>
      </trkpt>
      <trkpt lat="45.64493" lon="4.59382">
        <ele>839</ele>
        <time>2018-10-14T08:40:42Z</time>
      </trkpt>
      <trkpt lat="45.64492" lon="4.59383">
        <ele>839</ele>
        <time>2018-10-14T08:40:43Z</time>
      </trkpt>
      <trkpt lat="45.6449" lon="4.59385">
        <ele>840</ele>
        <time>2018-10-14T08:40:44Z</time>
      </trkpt>
      <trkpt lat="45.64489" lon="4.59387">
        <ele>840</ele>
        <time>2018-10-14T08:40:45Z</time>
      </trkpt>
      <trkpt lat="45.64487" lon="4.59389">
        <ele>840</ele>
        <time>2018-10-14T08:40:46Z</time>
      </trkpt>
      <trkpt lat="45.64485" lon="4.5939">
        <ele>839</ele>
        <time>2018-10-14T08:40:47Z</time>
      </trkpt>
      <trkpt lat="45.64483" lon="4.59392">
        <ele>839</ele>
        <time>2018-10-14T08:40:48Z</time>
      </trkpt>
      <trkpt lat="45.64482" lon="4.59394">
        <ele>840</ele>
        <time>2018-10-14T08:40:49Z</time>
      </trkpt>
      <trkpt lat="45.6448" lon="4.59397">
        <ele>840</ele>
        <time>2018-10-14T08:40:50Z</time>
      </trkpt>
      <trkpt lat="45.64479" lon="4.59399">
        <ele>840</ele>
        <time>2018-10-14T08:40:51Z</time>
      </trkpt>
      <trkpt lat="45.64478" lon="4.59401">
        <ele>841</ele>
        <time>2018-10-14T08:40:52Z</time>
      </trkpt>
      <trkpt lat="45.64477" lon="4.59402">
        <ele>841</ele>
        <time>2018-10-14T08:40:53Z</time>
      </trkpt>
      <trkpt lat="45.64475" lon="4.59404">
        <ele>841</ele>
        <time>2018-10-14T08:40:54Z</time>
      </trkpt>
      <trkpt lat="45.64473" lon="4.59405">
        <ele>841</ele>
        <time>2018-10-14T08:40:55Z</time>
      </trkpt>
      <trkpt lat="45.64472" lon="4.59407">
        <ele>841</ele>
        <time>2018-10-14T08:40:56Z</time>
      </trkpt>
      <trkpt lat="45.6447" lon="4.59408">
        <ele>842</ele>
        <time>2018-10-14T08:40:57Z</time>
      </trkpt>
      <trkpt lat="45.64469" lon="4.5941">
        <ele>842</ele>
        <time>2018-10-14T08:40:58Z</time>
      </trkpt>
      <trkpt lat="45.64468" lon="4.59411">
        <ele>842</ele>
        <time>2018-10-14T08:40:59Z</time>
      </trkpt>
      <trkpt lat="45.64466" lon="4.59413">
        <ele>842</ele>
        <time>2018-10-14T08:41:00Z</time>
      </trkpt>
      <trkpt lat="45.64465" lon="4.59415">
        <ele>842</ele>
        <time>2018-10-14T08:41:01Z</time>
      </trkpt>
      <trkpt lat="45.64463" lon="4.59417">
        <ele>841</ele>
        <time>2018-10-14T08:41:02Z</time>
      </trkpt>
      <trkpt lat="45.64462" lon="4.59419">
        <ele>842</ele>
        <time>2018-10-14T08:41:03Z</time>
      </trkpt>
      <trkpt lat="45.6446" lon="4.59421">
        <ele>842</ele>
        <time>2018-10-14T08:41:04Z</time>
      </trkpt>
      <trkpt lat="45.64459" lon="4.59422">
        <ele>841</ele>
        <time>2018-10-14T08:41:05Z</time>
      </trkpt>
      <trkpt lat="45.64457" lon="4.59424">
        <ele>841</ele>
        <time>2018-10-14T08:41:06Z</time>
      </trkpt>
      <trkpt lat="45.64456" lon="4.59425">
        <ele>841</ele>
        <time>2018-10-14T08:41:07Z</time>
      </trkpt>
      <trkpt lat="45.64455" lon="4.59427">
        <ele>842</ele>
        <time>2018-10-14T08:41:08Z</time>
      </trkpt>
      <trkpt lat="45.64454" lon="4.59428">
        <ele>842</ele>
        <time>2018-10-14T08:41:09Z</time>
      </trkpt>
      <trkpt lat="45.64454" lon="4.5943">
        <ele>842</ele>
        <time>2018-10-14T08:41:10Z</time>
      </trkpt>
      <trkpt lat="45.64452" lon="4.59432">
        <ele>843</ele>
        <time>2018-10-14T08:41:11Z</time>
      </trkpt>
      <trkpt lat="45.64451" lon="4.59433">
        <ele>842</ele>
        <time>2018-10-14T08:41:12Z</time>
      </trkpt>
      <trkpt lat="45.64449" lon="4.59434">
        <ele>843</ele>
        <time>2018-10-14T08:41:13Z</time>
      </trkpt>
      <trkpt lat="45.64447" lon="4.59434">
        <ele>845</ele>
        <time>2018-10-14T08:41:14Z</time>
      </trkpt>
      <trkpt lat="45.64446" lon="4.59435">
        <ele>845</ele>
        <time>2018-10-14T08:41:15Z</time>
      </trkpt>
      <trkpt lat="45.64445" lon="4.59436">
        <ele>845</ele>
        <time>2018-10-14T08:41:16Z</time>
      </trkpt>
      <trkpt lat="45.64444" lon="4.59437">
        <ele>847</ele>
        <time>2018-10-14T08:41:17Z</time>
      </trkpt>
      <trkpt lat="45.64442" lon="4.59438">
        <ele>847</ele>
        <time>2018-10-14T08:41:18Z</time>
      </trkpt>
      <trkpt lat="45.64441" lon="4.59439">
        <ele>847</ele>
        <time>2018-10-14T08:41:19Z</time>
      </trkpt>
      <trkpt lat="45.6444" lon="4.5944">
        <ele>847</ele>
        <time>2018-10-14T08:41:20Z</time>
      </trkpt>
      <trkpt lat="45.64439" lon="4.59442">
        <ele>847</ele>
        <time>2018-10-14T08:41:21Z</time>
      </trkpt>
      <trkpt lat="45.64439" lon="4.59443">
        <ele>847</ele>
        <time>2018-10-14T08:41:22Z</time>
      </trkpt>
      <trkpt lat="45.64438" lon="4.59445">
        <ele>847</ele>
        <time>2018-10-14T08:41:23Z</time>
      </trkpt>
      <trkpt lat="45.64437" lon="4.59447">
        <ele>847</ele>
        <time>2018-10-14T08:41:24Z</time>
      </trkpt>
      <trkpt lat="45.64436" lon="4.59448">
        <ele>847</ele>
        <time>2018-10-14T08:41:25Z</time>
      </trkpt>
      <trkpt lat="45.64436" lon="4.5945">
        <ele>848</ele>
        <time>2018-10-14T08:41:26Z</time>
      </trkpt>
      <trkpt lat="45.64435" lon="4.59451">
        <ele>848</ele>
        <time>2018-10-14T08:41:27Z</time>
      </trkpt>
      <trkpt lat="45.64434" lon="4.59453">
        <ele>848</ele>
        <time>2018-10-14T08:41:28Z</time>
      </trkpt>
      <trkpt lat="45.64434" lon="4.59455">
        <ele>848</ele>
        <time>2018-10-14T08:41:29Z</time>
      </trkpt>
      <trkpt lat="45.64433" lon="4.59456">
        <ele>848</ele>
        <time>2018-10-14T08:41:30Z</time>
      </trkpt>
      <trkpt lat="45.64433" lon="4.59457">
        <ele>848</ele>
        <time>2018-10-14T08:41:31Z</time>
      </trkpt>
      <trkpt lat="45.64431" lon="4.59458">
        <ele>849</ele>
        <time>2018-10-14T08:41:32Z</time>
      </trkpt>
      <trkpt lat="45.6443" lon="4.59458">
        <ele>849</ele>
        <time>2018-10-14T08:41:33Z</time>
      </trkpt>
      <trkpt lat="45.64429" lon="4.59459">
        <ele>850</ele>
        <time>2018-10-14T08:41:34Z</time>
      </trkpt>
      <trkpt lat="45.64428" lon="4.5946">
        <ele>850</ele>
        <time>2018-10-14T08:41:36Z</time>
      </trkpt>
      <trkpt lat="45.64427" lon="4.59461">
        <ele>850</ele>
        <time>2018-10-14T08:41:37Z</time>
      </trkpt>
      <trkpt lat="45.64426" lon="4.59462">
        <ele>850</ele>
        <time>2018-10-14T08:41:38Z</time>
      </trkpt>
      <trkpt lat="45.64425" lon="4.59463">
        <ele>850</ele>
        <time>2018-10-14T08:41:39Z</time>
      </trkpt>
      <trkpt lat="45.64424" lon="4.59464">
        <ele>851</ele>
        <time>2018-10-14T08:41:40Z</time>
      </trkpt>
      <trkpt lat="45.64423" lon="4.59464">
        <ele>851</ele>
        <time>2018-10-14T08:41:41Z</time>
      </trkpt>
      <trkpt lat="45.64422" lon="4.59465">
        <ele>851</ele>
        <time>2018-10-14T08:41:42Z</time>
      </trkpt>
      <trkpt lat="45.64421" lon="4.59466">
        <ele>852</ele>
        <time>2018-10-14T08:41:43Z</time>
      </trkpt>
      <trkpt lat="45.6442" lon="4.59466">
        <ele>852</ele>
        <time>2018-10-14T08:41:44Z</time>
      </trkpt>
      <trkpt lat="45.64418" lon="4.59467">
        <ele>852</ele>
        <time>2018-10-14T08:41:45Z</time>
      </trkpt>
      <trkpt lat="45.64417" lon="4.59467">
        <ele>852</ele>
        <time>2018-10-14T08:41:46Z</time>
      </trkpt>
      <trkpt lat="45.64416" lon="4.59468">
        <ele>852</ele>
        <time>2018-10-14T08:41:47Z</time>
      </trkpt>
      <trkpt lat="45.64415" lon="4.59469">
        <ele>853</ele>
        <time>2018-10-14T08:41:48Z</time>
      </trkpt>
      <trkpt lat="45.64414" lon="4.5947">
        <ele>853</ele>
        <time>2018-10-14T08:41:49Z</time>
      </trkpt>
      <trkpt lat="45.64414" lon="4.59471">
        <ele>853</ele>
        <time>2018-10-14T08:41:50Z</time>
      </trkpt>
      <trkpt lat="45.64413" lon="4.59472">
        <ele>853</ele>
        <time>2018-10-14T08:41:51Z</time>
      </trkpt>
      <trkpt lat="45.64413" lon="4.59472">
        <ele>853</ele>
        <time>2018-10-14T08:41:52Z</time>
      </trkpt>
      <trkpt lat="45.64412" lon="4.59473">
        <ele>854</ele>
        <time>2018-10-14T08:41:53Z</time>
      </trkpt>
      <trkpt lat="45.64412" lon="4.59474">
        <ele>853</ele>
        <time>2018-10-14T08:41:54Z</time>
      </trkpt>
      <trkpt lat="45.64412" lon="4.59476">
        <ele>855</ele>
        <time>2018-10-14T08:41:56Z</time>
      </trkpt>
      <trkpt lat="45.64412" lon="4.59477">
        <ele>856</ele>
        <time>2018-10-14T08:41:57Z</time>
      </trkpt>
      <trkpt lat="45.64412" lon="4.59479">
        <ele>856</ele>
        <time>2018-10-14T08:41:58Z</time>
      </trkpt>
      <trkpt lat="45.64412" lon="4.59481">
        <ele>855</ele>
        <time>2018-10-14T08:41:59Z</time>
      </trkpt>
      <trkpt lat="45.64412" lon="4.59483">
        <ele>856</ele>
        <time>2018-10-14T08:42:00Z</time>
      </trkpt>
      <trkpt lat="45.64411" lon="4.59484">
        <ele>855</ele>
        <time>2018-10-14T08:42:01Z</time>
      </trkpt>
      <trkpt lat="45.6441" lon="4.59486">
        <ele>855</ele>
        <time>2018-10-14T08:42:02Z</time>
      </trkpt>
      <trkpt lat="45.6441" lon="4.59487">
        <ele>856</ele>
        <time>2018-10-14T08:42:03Z</time>
      </trkpt>
      <trkpt lat="45.64409" lon="4.59488">
        <ele>857</ele>
        <time>2018-10-14T08:42:04Z</time>
      </trkpt>
      <trkpt lat="45.64409" lon="4.5949">
        <ele>857</ele>
        <time>2018-10-14T08:42:05Z</time>
      </trkpt>
      <trkpt lat="45.64409" lon="4.59494">
        <ele>857</ele>
        <time>2018-10-14T08:42:06Z</time>
      </trkpt>
      <trkpt lat="45.64409" lon="4.59497">
        <ele>856</ele>
        <time>2018-10-14T08:42:07Z</time>
      </trkpt>
      <trkpt lat="45.64408" lon="4.595">
        <ele>856</ele>
        <time>2018-10-14T08:42:08Z</time>
      </trkpt>
      <trkpt lat="45.64408" lon="4.59502">
        <ele>857</ele>
        <time>2018-10-14T08:42:09Z</time>
      </trkpt>
      <trkpt lat="45.64407" lon="4.59504">
        <ele>856</ele>
        <time>2018-10-14T08:42:11Z</time>
      </trkpt>
      <trkpt lat="45.64406" lon="4.59506">
        <ele>859</ele>
        <time>2018-10-14T08:42:12Z</time>
      </trkpt>
      <trkpt lat="45.64405" lon="4.59508">
        <ele>858</ele>
        <time>2018-10-14T08:42:13Z</time>
      </trkpt>
      <trkpt lat="45.64404" lon="4.59509">
        <ele>859</ele>
        <time>2018-10-14T08:42:14Z</time>
      </trkpt>
      <trkpt lat="45.64404" lon="4.5951">
        <ele>860</ele>
        <time>2018-10-14T08:42:15Z</time>
      </trkpt>
      <trkpt lat="45.64402" lon="4.59511">
        <ele>859</ele>
        <time>2018-10-14T08:42:16Z</time>
      </trkpt>
      <trkpt lat="45.64402" lon="4.59512">
        <ele>860</ele>
        <time>2018-10-14T08:42:17Z</time>
      </trkpt>
      <trkpt lat="45.64401" lon="4.59513">
        <ele>859</ele>
        <time>2018-10-14T08:42:18Z</time>
      </trkpt>
      <trkpt lat="45.644" lon="4.59516">
        <ele>858</ele>
        <time>2018-10-14T08:42:19Z</time>
      </trkpt>
      <trkpt lat="45.64399" lon="4.59518">
        <ele>858</ele>
        <time>2018-10-14T08:42:21Z</time>
      </trkpt>
      <trkpt lat="45.64398" lon="4.5952">
        <ele>859</ele>
        <time>2018-10-14T08:42:22Z</time>
      </trkpt>
      <trkpt lat="45.64397" lon="4.59521">
        <ele>860</ele>
        <time>2018-10-14T08:42:23Z</time>
      </trkpt>
      <trkpt lat="45.64396" lon="4.59523">
        <ele>861</ele>
        <time>2018-10-14T08:42:24Z</time>
      </trkpt>
      <trkpt lat="45.64395" lon="4.59524">
        <ele>861</ele>
        <time>2018-10-14T08:42:25Z</time>
      </trkpt>
      <trkpt lat="45.64394" lon="4.59526">
        <ele>861</ele>
        <time>2018-10-14T08:42:26Z</time>
      </trkpt>
      <trkpt lat="45.64394" lon="4.59529">
        <ele>861</ele>
        <time>2018-10-14T08:42:27Z</time>
      </trkpt>
      <trkpt lat="45.64393" lon="4.59531">
        <ele>860</ele>
        <time>2018-10-14T08:42:28Z</time>
      </trkpt>
      <trkpt lat="45.64393" lon="4.59533">
        <ele>860</ele>
        <time>2018-10-14T08:42:29Z</time>
      </trkpt>
      <trkpt lat="45.64391" lon="4.59535">
        <ele>861</ele>
        <time>2018-10-14T08:42:30Z</time>
      </trkpt>
      <trkpt lat="45.6439" lon="4.59536">
        <ele>861</ele>
        <time>2018-10-14T08:42:31Z</time>
      </trkpt>
      <trkpt lat="45.64389" lon="4.59537">
        <ele>862</ele>
        <time>2018-10-14T08:42:32Z</time>
      </trkpt>
      <trkpt lat="45.64388" lon="4.59538">
        <ele>862</ele>
        <time>2018-10-14T08:42:33Z</time>
      </trkpt>
      <trkpt lat="45.64386" lon="4.59539">
        <ele>862</ele>
        <time>2018-10-14T08:42:34Z</time>
      </trkpt>
      <trkpt lat="45.64386" lon="4.5954">
        <ele>862</ele>
        <time>2018-10-14T08:42:35Z</time>
      </trkpt>
      <trkpt lat="45.64385" lon="4.59541">
        <ele>865</ele>
        <time>2018-10-14T08:42:37Z</time>
      </trkpt>
      <trkpt lat="45.64385" lon="4.59543">
        <ele>865</ele>
        <time>2018-10-14T08:42:38Z</time>
      </trkpt>
      <trkpt lat="45.64385" lon="4.59545">
        <ele>864</ele>
        <time>2018-10-14T08:42:39Z</time>
      </trkpt>
      <trkpt lat="45.64385" lon="4.59547">
        <ele>865</ele>
        <time>2018-10-14T08:42:40Z</time>
      </trkpt>
      <trkpt lat="45.64384" lon="4.59548">
        <ele>866</ele>
        <time>2018-10-14T08:42:41Z</time>
      </trkpt>
      <trkpt lat="45.64383" lon="4.5955">
        <ele>866</ele>
        <time>2018-10-14T08:42:42Z</time>
      </trkpt>
      <trkpt lat="45.64383" lon="4.59551">
        <ele>866</ele>
        <time>2018-10-14T08:42:43Z</time>
      </trkpt>
      <trkpt lat="45.64383" lon="4.59552">
        <ele>866</ele>
        <time>2018-10-14T08:42:44Z</time>
      </trkpt>
      <trkpt lat="45.64382" lon="4.59553">
        <ele>866</ele>
        <time>2018-10-14T08:42:45Z</time>
      </trkpt>
      <trkpt lat="45.64381" lon="4.59556">
        <ele>867</ele>
        <time>2018-10-14T08:42:46Z</time>
      </trkpt>
      <trkpt lat="45.64381" lon="4.59558">
        <ele>867</ele>
        <time>2018-10-14T08:42:47Z</time>
      </trkpt>
      <trkpt lat="45.6438" lon="4.59561">
        <ele>866</ele>
        <time>2018-10-14T08:42:48Z</time>
      </trkpt>
      <trkpt lat="45.64378" lon="4.59563">
        <ele>867</ele>
        <time>2018-10-14T08:42:49Z</time>
      </trkpt>
      <trkpt lat="45.64377" lon="4.59565">
        <ele>868</ele>
        <time>2018-10-14T08:42:50Z</time>
      </trkpt>
      <trkpt lat="45.64376" lon="4.59567">
        <ele>868</ele>
        <time>2018-10-14T08:42:51Z</time>
      </trkpt>
      <trkpt lat="45.64375" lon="4.59569">
        <ele>868</ele>
        <time>2018-10-14T08:42:52Z</time>
      </trkpt>
      <trkpt lat="45.64374" lon="4.59571">
        <ele>868</ele>
        <time>2018-10-14T08:42:53Z</time>
      </trkpt>
      <trkpt lat="45.64374" lon="4.59573">
        <ele>868</ele>
        <time>2018-10-14T08:42:54Z</time>
      </trkpt>
      <trkpt lat="45.64373" lon="4.59575">
        <ele>868</ele>
        <time>2018-10-14T08:42:55Z</time>
      </trkpt>
      <trkpt lat="45.64373" lon="4.59577">
        <ele>868</ele>
        <time>2018-10-14T08:42:56Z</time>
      </trkpt>
      <trkpt lat="45.64373" lon="4.59579">
        <ele>869</ele>
        <time>2018-10-14T08:42:57Z</time>
      </trkpt>
      <trkpt lat="45.64373" lon="4.59581">
        <ele>869</ele>
        <time>2018-10-14T08:42:58Z</time>
      </trkpt>
      <trkpt lat="45.64373" lon="4.59584">
        <ele>868</ele>
        <time>2018-10-14T08:42:59Z</time>
      </trkpt>
      <trkpt lat="45.64372" lon="4.59586">
        <ele>869</ele>
        <time>2018-10-14T08:43:00Z</time>
      </trkpt>
      <trkpt lat="45.64372" lon="4.59588">
        <ele>869</ele>
        <time>2018-10-14T08:43:01Z</time>
      </trkpt>
      <trkpt lat="45.64371" lon="4.5959">
        <ele>869</ele>
        <time>2018-10-14T08:43:02Z</time>
      </trkpt>
      <trkpt lat="45.6437" lon="4.59592">
        <ele>870</ele>
        <time>2018-10-14T08:43:03Z</time>
      </trkpt>
      <trkpt lat="45.6437" lon="4.59594">
        <ele>870</ele>
        <time>2018-10-14T08:43:04Z</time>
      </trkpt>
      <trkpt lat="45.6437" lon="4.59596">
        <ele>870</ele>
        <time>2018-10-14T08:43:05Z</time>
      </trkpt>
      <trkpt lat="45.6437" lon="4.59598">
        <ele>870</ele>
        <time>2018-10-14T08:43:06Z</time>
      </trkpt>
      <trkpt lat="45.6437" lon="4.596">
        <ele>870</ele>
        <time>2018-10-14T08:43:07Z</time>
      </trkpt>
      <trkpt lat="45.6437" lon="4.59603">
        <ele>870</ele>
        <time>2018-10-14T08:43:08Z</time>
      </trkpt>
      <trkpt lat="45.6437" lon="4.59604">
        <ele>870</ele>
        <time>2018-10-14T08:43:09Z</time>
      </trkpt>
      <trkpt lat="45.64369" lon="4.59606">
        <ele>871</ele>
        <time>2018-10-14T08:43:10Z</time>
      </trkpt>
      <trkpt lat="45.64368" lon="4.59608">
        <ele>870</ele>
        <time>2018-10-14T08:43:11Z</time>
      </trkpt>
      <trkpt lat="45.64367" lon="4.59611">
        <ele>870</ele>
        <time>2018-10-14T08:43:13Z</time>
      </trkpt>
      <trkpt lat="45.64367" lon="4.59614">
        <ele>870</ele>
        <time>2018-10-14T08:43:14Z</time>
      </trkpt>
      <trkpt lat="45.64366" lon="4.59616">
        <ele>871</ele>
        <time>2018-10-14T08:43:15Z</time>
      </trkpt>
      <trkpt lat="45.64364" lon="4.59618">
        <ele>871</ele>
        <time>2018-10-14T08:43:16Z</time>
      </trkpt>
      <trkpt lat="45.64363" lon="4.59619">
        <ele>871</ele>
        <time>2018-10-14T08:43:17Z</time>
      </trkpt>
      <trkpt lat="45.64361" lon="4.5962">
        <ele>871</ele>
        <time>2018-10-14T08:43:18Z</time>
      </trkpt>
      <trkpt lat="45.6436" lon="4.59622">
        <ele>871</ele>
        <time>2018-10-14T08:43:19Z</time>
      </trkpt>
      <trkpt lat="45.64359" lon="4.59623">
        <ele>871</ele>
        <time>2018-10-14T08:43:20Z</time>
      </trkpt>
      <trkpt lat="45.64358" lon="4.59625">
        <ele>871</ele>
        <time>2018-10-14T08:43:21Z</time>
      </trkpt>
      <trkpt lat="45.64359" lon="4.59627">
        <ele>871</ele>
        <time>2018-10-14T08:43:22Z</time>
      </trkpt>
      <trkpt lat="45.64359" lon="4.5963">
        <ele>871</ele>
        <time>2018-10-14T08:43:23Z</time>
      </trkpt>
      <trkpt lat="45.6436" lon="4.59632">
        <ele>871</ele>
        <time>2018-10-14T08:43:24Z</time>
      </trkpt>
      <trkpt lat="45.64361" lon="4.59633">
        <ele>872</ele>
        <time>2018-10-14T08:43:25Z</time>
      </trkpt>
      <trkpt lat="45.64361" lon="4.59636">
        <ele>872</ele>
        <time>2018-10-14T08:43:26Z</time>
      </trkpt>
      <trkpt lat="45.64361" lon="4.59638">
        <ele>872</ele>
        <time>2018-10-14T08:43:27Z</time>
      </trkpt>
      <trkpt lat="45.6436" lon="4.59641">
        <ele>872</ele>
        <time>2018-10-14T08:43:28Z</time>
      </trkpt>
      <trkpt lat="45.64359" lon="4.59643">
        <ele>872</ele>
        <time>2018-10-14T08:43:29Z</time>
      </trkpt>
      <trkpt lat="45.64359" lon="4.59645">
        <ele>872</ele>
        <time>2018-10-14T08:43:30Z</time>
      </trkpt>
      <trkpt lat="45.64357" lon="4.59647">
        <ele>872</ele>
        <time>2018-10-14T08:43:31Z</time>
      </trkpt>
      <trkpt lat="45.64356" lon="4.59649">
        <ele>873</ele>
        <time>2018-10-14T08:43:32Z</time>
      </trkpt>
      <trkpt lat="45.64355" lon="4.59652">
        <ele>874</ele>
        <time>2018-10-14T08:43:33Z</time>
      </trkpt>
      <trkpt lat="45.64354" lon="4.59654">
        <ele>875</ele>
        <time>2018-10-14T08:43:34Z</time>
      </trkpt>
      <trkpt lat="45.64353" lon="4.59655">
        <ele>875</ele>
        <time>2018-10-14T08:43:35Z</time>
      </trkpt>
      <trkpt lat="45.64353" lon="4.59657">
        <ele>875</ele>
        <time>2018-10-14T08:43:36Z</time>
      </trkpt>
      <trkpt lat="45.64352" lon="4.59659">
        <ele>875</ele>
        <time>2018-10-14T08:43:37Z</time>
      </trkpt>
      <trkpt lat="45.64352" lon="4.59662">
        <ele>875</ele>
        <time>2018-10-14T08:43:38Z</time>
      </trkpt>
      <trkpt lat="45.64352" lon="4.59665">
        <ele>875</ele>
        <time>2018-10-14T08:43:39Z</time>
      </trkpt>
      <trkpt lat="45.64352" lon="4.59668">
        <ele>875</ele>
        <time>2018-10-14T08:43:40Z</time>
      </trkpt>
      <trkpt lat="45.64351" lon="4.5967">
        <ele>876</ele>
        <time>2018-10-14T08:43:41Z</time>
      </trkpt>
      <trkpt lat="45.64351" lon="4.59673">
        <ele>876</ele>
        <time>2018-10-14T08:43:42Z</time>
      </trkpt>
      <trkpt lat="45.64351" lon="4.59675">
        <ele>876</ele>
        <time>2018-10-14T08:43:43Z</time>
      </trkpt>
      <trkpt lat="45.64351" lon="4.59677">
        <ele>876</ele>
        <time>2018-10-14T08:43:44Z</time>
      </trkpt>
      <trkpt lat="45.64351" lon="4.5968">
        <ele>876</ele>
        <time>2018-10-14T08:43:45Z</time>
      </trkpt>
      <trkpt lat="45.64351" lon="4.59682">
        <ele>876</ele>
        <time>2018-10-14T08:43:46Z</time>
      </trkpt>
      <trkpt lat="45.64349" lon="4.59684">
        <ele>875</ele>
        <time>2018-10-14T08:43:48Z</time>
      </trkpt>
      <trkpt lat="45.64348" lon="4.59686">
        <ele>876</ele>
        <time>2018-10-14T08:43:49Z</time>
      </trkpt>
      <trkpt lat="45.64346" lon="4.59687">
        <ele>876</ele>
        <time>2018-10-14T08:43:50Z</time>
      </trkpt>
      <trkpt lat="45.64345" lon="4.59689">
        <ele>876</ele>
        <time>2018-10-14T08:43:51Z</time>
      </trkpt>
      <trkpt lat="45.64344" lon="4.5969">
        <ele>875</ele>
        <time>2018-10-14T08:43:52Z</time>
      </trkpt>
      <trkpt lat="45.64341" lon="4.59691">
        <ele>875</ele>
        <time>2018-10-14T08:43:53Z</time>
      </trkpt>
      <trkpt lat="45.64339" lon="4.59692">
        <ele>875</ele>
        <time>2018-10-14T08:43:54Z</time>
      </trkpt>
      <trkpt lat="45.64336" lon="4.59692">
        <ele>876</ele>
        <time>2018-10-14T08:43:55Z</time>
      </trkpt>
      <trkpt lat="45.64335" lon="4.59692">
        <ele>876</ele>
        <time>2018-10-14T08:43:56Z</time>
      </trkpt>
      <trkpt lat="45.64333" lon="4.59693">
        <ele>875</ele>
        <time>2018-10-14T08:43:57Z</time>
      </trkpt>
      <trkpt lat="45.6433" lon="4.59693">
        <ele>875</ele>
        <time>2018-10-14T08:43:58Z</time>
      </trkpt>
      <trkpt lat="45.64329" lon="4.59693">
        <ele>875</ele>
        <time>2018-10-14T08:43:59Z</time>
      </trkpt>
      <trkpt lat="45.64328" lon="4.59694">
        <ele>875</ele>
        <time>2018-10-14T08:44:00Z</time>
      </trkpt>
      <trkpt lat="45.64326" lon="4.59695">
        <ele>875</ele>
        <time>2018-10-14T08:44:01Z</time>
      </trkpt>
      <trkpt lat="45.64324" lon="4.59696">
        <ele>876</ele>
        <time>2018-10-14T08:44:02Z</time>
      </trkpt>
      <trkpt lat="45.64323" lon="4.59697">
        <ele>876</ele>
        <time>2018-10-14T08:44:03Z</time>
      </trkpt>
      <trkpt lat="45.64322" lon="4.59698">
        <ele>877</ele>
        <time>2018-10-14T08:44:04Z</time>
      </trkpt>
      <trkpt lat="45.6432" lon="4.597">
        <ele>877</ele>
        <time>2018-10-14T08:44:05Z</time>
      </trkpt>
      <trkpt lat="45.64319" lon="4.59701">
        <ele>877</ele>
        <time>2018-10-14T08:44:06Z</time>
      </trkpt>
      <trkpt lat="45.64317" lon="4.59703">
        <ele>877</ele>
        <time>2018-10-14T08:44:07Z</time>
      </trkpt>
      <trkpt lat="45.64314" lon="4.59704">
        <ele>877</ele>
        <time>2018-10-14T08:44:08Z</time>
      </trkpt>
      <trkpt lat="45.64312" lon="4.59704">
        <ele>877</ele>
        <time>2018-10-14T08:44:09Z</time>
      </trkpt>
      <trkpt lat="45.64311" lon="4.59705">
        <ele>877</ele>
        <time>2018-10-14T08:44:10Z</time>
      </trkpt>
      <trkpt lat="45.64309" lon="4.59707">
        <ele>878</ele>
        <time>2018-10-14T08:44:11Z</time>
      </trkpt>
      <trkpt lat="45.64307" lon="4.59708">
        <ele>879</ele>
        <time>2018-10-14T08:44:12Z</time>
      </trkpt>
      <trkpt lat="45.64306" lon="4.59709">
        <ele>879</ele>
        <time>2018-10-14T08:44:13Z</time>
      </trkpt>
      <trkpt lat="45.64305" lon="4.5971">
        <ele>879</ele>
        <time>2018-10-14T08:44:14Z</time>
      </trkpt>
      <trkpt lat="45.64304" lon="4.59711">
        <ele>881</ele>
        <time>2018-10-14T08:44:15Z</time>
      </trkpt>
      <trkpt lat="45.64303" lon="4.59713">
        <ele>882</ele>
        <time>2018-10-14T08:44:16Z</time>
      </trkpt>
      <trkpt lat="45.64301" lon="4.59714">
        <ele>883</ele>
        <time>2018-10-14T08:44:17Z</time>
      </trkpt>
      <trkpt lat="45.64299" lon="4.59715">
        <ele>883</ele>
        <time>2018-10-14T08:44:19Z</time>
      </trkpt>
      <trkpt lat="45.64298" lon="4.59717">
        <ele>882</ele>
        <time>2018-10-14T08:44:20Z</time>
      </trkpt>
      <trkpt lat="45.64296" lon="4.59718">
        <ele>882</ele>
        <time>2018-10-14T08:44:21Z</time>
      </trkpt>
      <trkpt lat="45.64295" lon="4.59719">
        <ele>882</ele>
        <time>2018-10-14T08:44:22Z</time>
      </trkpt>
      <trkpt lat="45.64293" lon="4.5972">
        <ele>882</ele>
        <time>2018-10-14T08:44:23Z</time>
      </trkpt>
      <trkpt lat="45.64292" lon="4.59721">
        <ele>882</ele>
        <time>2018-10-14T08:44:24Z</time>
      </trkpt>
      <trkpt lat="45.64291" lon="4.59722">
        <ele>883</ele>
        <time>2018-10-14T08:44:25Z</time>
      </trkpt>
      <trkpt lat="45.64288" lon="4.59723">
        <ele>882</ele>
        <time>2018-10-14T08:44:26Z</time>
      </trkpt>
      <trkpt lat="45.64286" lon="4.59725">
        <ele>882</ele>
        <time>2018-10-14T08:44:27Z</time>
      </trkpt>
      <trkpt lat="45.64283" lon="4.59727">
        <ele>881</ele>
        <time>2018-10-14T08:44:28Z</time>
      </trkpt>
      <trkpt lat="45.6428" lon="4.59729">
        <ele>881</ele>
        <time>2018-10-14T08:44:29Z</time>
      </trkpt>
      <trkpt lat="45.64276" lon="4.5973">
        <ele>881</ele>
        <time>2018-10-14T08:44:30Z</time>
      </trkpt>
      <trkpt lat="45.64272" lon="4.59731">
        <ele>881</ele>
        <time>2018-10-14T08:44:31Z</time>
      </trkpt>
      <trkpt lat="45.64267" lon="4.59731">
        <ele>881</ele>
        <time>2018-10-14T08:44:32Z</time>
      </trkpt>
      <trkpt lat="45.64257" lon="4.59728">
        <ele>882</ele>
        <time>2018-10-14T08:44:33Z</time>
      </trkpt>
      <trkpt lat="45.64253" lon="4.59728">
        <ele>884</ele>
        <time>2018-10-14T08:44:34Z</time>
      </trkpt>
      <trkpt lat="45.64248" lon="4.59728">
        <ele>882</ele>
        <time>2018-10-14T08:44:35Z</time>
      </trkpt>
      <trkpt lat="45.64243" lon="4.59727">
        <ele>882</ele>
        <time>2018-10-14T08:44:36Z</time>
      </trkpt>
      <trkpt lat="45.64238" lon="4.59726">
        <ele>883</ele>
        <time>2018-10-14T08:44:37Z</time>
      </trkpt>
      <trkpt lat="45.64234" lon="4.59725">
        <ele>883</ele>
        <time>2018-10-14T08:44:38Z</time>
      </trkpt>
      <trkpt lat="45.64228" lon="4.59723">
        <ele>882</ele>
        <time>2018-10-14T08:44:39Z</time>
      </trkpt>
      <trkpt lat="45.64224" lon="4.59724">
        <ele>881</ele>
        <time>2018-10-14T08:44:40Z</time>
      </trkpt>
      <trkpt lat="45.6422" lon="4.59724">
        <ele>881</ele>
        <time>2018-10-14T08:44:41Z</time>
      </trkpt>
      <trkpt lat="45.64215" lon="4.59722">
        <ele>882</ele>
        <time>2018-10-14T08:44:42Z</time>
      </trkpt>
      <trkpt lat="45.64211" lon="4.59723">
        <ele>882</ele>
        <time>2018-10-14T08:44:43Z</time>
      </trkpt>
      <trkpt lat="45.64208" lon="4.59725">
        <ele>880</ele>
        <time>2018-10-14T08:44:44Z</time>
      </trkpt>
      <trkpt lat="45.64204" lon="4.59725">
        <ele>881</ele>
        <time>2018-10-14T08:44:45Z</time>
      </trkpt>
      <trkpt lat="45.64204" lon="4.59725">
        <ele>879</ele>
        <time>2018-10-14T08:44:46Z</time>
      </trkpt>
      <trkpt lat="45.64202" lon="4.59726">
        <ele>879</ele>
        <time>2018-10-14T08:44:47Z</time>
      </trkpt>
      <trkpt lat="45.642" lon="4.59727">
        <ele>880</ele>
        <time>2018-10-14T08:44:48Z</time>
      </trkpt>
      <trkpt lat="45.64197" lon="4.59728">
        <ele>879</ele>
        <time>2018-10-14T08:44:49Z</time>
      </trkpt>
      <trkpt lat="45.64195" lon="4.59728">
        <ele>879</ele>
        <time>2018-10-14T08:44:50Z</time>
      </trkpt>
      <trkpt lat="45.6419" lon="4.59729">
        <ele>879</ele>
        <time>2018-10-14T08:44:51Z</time>
      </trkpt>
      <trkpt lat="45.64177" lon="4.59729">
        <ele>879</ele>
        <time>2018-10-14T08:44:52Z</time>
      </trkpt>
      <trkpt lat="45.64148" lon="4.59732">
        <ele>878</ele>
        <time>2018-10-14T08:44:53Z</time>
      </trkpt>
      <trkpt lat="45.64145" lon="4.59731">
        <ele>879</ele>
        <time>2018-10-14T08:44:54Z</time>
      </trkpt>
      <trkpt lat="45.64142" lon="4.59731">
        <ele>879</ele>
        <time>2018-10-14T08:44:55Z</time>
      </trkpt>
      <trkpt lat="45.64139" lon="4.59729">
        <ele>878</ele>
        <time>2018-10-14T08:44:56Z</time>
      </trkpt>
      <trkpt lat="45.64136" lon="4.5973">
        <ele>877</ele>
        <time>2018-10-14T08:44:57Z</time>
      </trkpt>
      <trkpt lat="45.64135" lon="4.59731">
        <ele>877</ele>
        <time>2018-10-14T08:44:58Z</time>
      </trkpt>
      <trkpt lat="45.64135" lon="4.59734">
        <ele>878</ele>
        <time>2018-10-14T08:44:59Z</time>
      </trkpt>
      <trkpt lat="45.64135" lon="4.59733">
        <ele>878</ele>
        <time>2018-10-14T08:45:00Z</time>
      </trkpt>
      <trkpt lat="45.64134" lon="4.59732">
        <ele>879</ele>
        <time>2018-10-14T08:45:01Z</time>
      </trkpt>
      <trkpt lat="45.64132" lon="4.59732">
        <ele>879</ele>
        <time>2018-10-14T08:45:02Z</time>
      </trkpt>
      <trkpt lat="45.6413" lon="4.59731">
        <ele>879</ele>
        <time>2018-10-14T08:45:03Z</time>
      </trkpt>
      <trkpt lat="45.64129" lon="4.59731">
        <ele>879</ele>
        <time>2018-10-14T08:45:04Z</time>
      </trkpt>
      <trkpt lat="45.64127" lon="4.5973">
        <ele>878</ele>
        <time>2018-10-14T08:45:05Z</time>
      </trkpt>
      <trkpt lat="45.64125" lon="4.5973">
        <ele>879</ele>
        <time>2018-10-14T08:45:06Z</time>
      </trkpt>
      <trkpt lat="45.64123" lon="4.59729">
        <ele>880</ele>
        <time>2018-10-14T08:45:07Z</time>
      </trkpt>
      <trkpt lat="45.64121" lon="4.59729">
        <ele>880</ele>
        <time>2018-10-14T08:45:08Z</time>
      </trkpt>
      <trkpt lat="45.64119" lon="4.59728">
        <ele>880</ele>
        <time>2018-10-14T08:45:09Z</time>
      </trkpt>
      <trkpt lat="45.64117" lon="4.59727">
        <ele>880</ele>
        <time>2018-10-14T08:45:10Z</time>
      </trkpt>
      <trkpt lat="45.64116" lon="4.59726">
        <ele>881</ele>
        <time>2018-10-14T08:45:11Z</time>
      </trkpt>
      <trkpt lat="45.64114" lon="4.59726">
        <ele>881</ele>
        <time>2018-10-14T08:45:12Z</time>
      </trkpt>
      <trkpt lat="45.64112" lon="4.59726">
        <ele>882</ele>
        <time>2018-10-14T08:45:13Z</time>
      </trkpt>
      <trkpt lat="45.6411" lon="4.59726">
        <ele>882</ele>
        <time>2018-10-14T08:45:14Z</time>
      </trkpt>
      <trkpt lat="45.64108" lon="4.59725">
        <ele>882</ele>
        <time>2018-10-14T08:45:15Z</time>
      </trkpt>
      <trkpt lat="45.64106" lon="4.59725">
        <ele>882</ele>
        <time>2018-10-14T08:45:16Z</time>
      </trkpt>
      <trkpt lat="45.64103" lon="4.59725">
        <ele>883</ele>
        <time>2018-10-14T08:45:17Z</time>
      </trkpt>
      <trkpt lat="45.64101" lon="4.59725">
        <ele>883</ele>
        <time>2018-10-14T08:45:18Z</time>
      </trkpt>
      <trkpt lat="45.64099" lon="4.59725">
        <ele>884</ele>
        <time>2018-10-14T08:45:19Z</time>
      </trkpt>
      <trkpt lat="45.64096" lon="4.59725">
        <ele>884</ele>
        <time>2018-10-14T08:45:20Z</time>
      </trkpt>
      <trkpt lat="45.64094" lon="4.59726">
        <ele>885</ele>
        <time>2018-10-14T08:45:21Z</time>
      </trkpt>
      <trkpt lat="45.64092" lon="4.59726">
        <ele>885</ele>
        <time>2018-10-14T08:45:22Z</time>
      </trkpt>
      <trkpt lat="45.64089" lon="4.59725">
        <ele>885</ele>
        <time>2018-10-14T08:45:23Z</time>
      </trkpt>
      <trkpt lat="45.64087" lon="4.59725">
        <ele>886</ele>
        <time>2018-10-14T08:45:24Z</time>
      </trkpt>
      <trkpt lat="45.64084" lon="4.59725">
        <ele>886</ele>
        <time>2018-10-14T08:45:25Z</time>
      </trkpt>
      <trkpt lat="45.64082" lon="4.59725">
        <ele>886</ele>
        <time>2018-10-14T08:45:26Z</time>
      </trkpt>
      <trkpt lat="45.64079" lon="4.59725">
        <ele>885</ele>
        <time>2018-10-14T08:45:27Z</time>
      </trkpt>
      <trkpt lat="45.64077" lon="4.59725">
        <ele>884</ele>
        <time>2018-10-14T08:45:28Z</time>
      </trkpt>
      <trkpt lat="45.64074" lon="4.59725">
        <ele>884</ele>
        <time>2018-10-14T08:45:29Z</time>
      </trkpt>
      <trkpt lat="45.64072" lon="4.59725">
        <ele>886</ele>
        <time>2018-10-14T08:45:30Z</time>
      </trkpt>
      <trkpt lat="45.6407" lon="4.59725">
        <ele>885</ele>
        <time>2018-10-14T08:45:31Z</time>
      </trkpt>
      <trkpt lat="45.64068" lon="4.59725">
        <ele>886</ele>
        <time>2018-10-14T08:45:32Z</time>
      </trkpt>
      <trkpt lat="45.64065" lon="4.59725">
        <ele>886</ele>
        <time>2018-10-14T08:45:33Z</time>
      </trkpt>
      <trkpt lat="45.64062" lon="4.59725">
        <ele>886</ele>
        <time>2018-10-14T08:45:34Z</time>
      </trkpt>
      <trkpt lat="45.6406" lon="4.59725">
        <ele>886</ele>
        <time>2018-10-14T08:45:35Z</time>
      </trkpt>
      <trkpt lat="45.64058" lon="4.59726">
        <ele>886</ele>
        <time>2018-10-14T08:45:36Z</time>
      </trkpt>
      <trkpt lat="45.64055" lon="4.59726">
        <ele>887</ele>
        <time>2018-10-14T08:45:37Z</time>
      </trkpt>
      <trkpt lat="45.64053" lon="4.59726">
        <ele>887</ele>
        <time>2018-10-14T08:45:38Z</time>
      </trkpt>
      <trkpt lat="45.64051" lon="4.59726">
        <ele>887</ele>
        <time>2018-10-14T08:45:39Z</time>
      </trkpt>
      <trkpt lat="45.64049" lon="4.59727">
        <ele>887</ele>
        <time>2018-10-14T08:45:40Z</time>
      </trkpt>
      <trkpt lat="45.64048" lon="4.59728">
        <ele>887</ele>
        <time>2018-10-14T08:45:41Z</time>
      </trkpt>
      <trkpt lat="45.64047" lon="4.59728">
        <ele>887</ele>
        <time>2018-10-14T08:45:42Z</time>
      </trkpt>
      <trkpt lat="45.64044" lon="4.59729">
        <ele>887</ele>
        <time>2018-10-14T08:45:43Z</time>
      </trkpt>
      <trkpt lat="45.64042" lon="4.59728">
        <ele>888</ele>
        <time>2018-10-14T08:45:44Z</time>
      </trkpt>
      <trkpt lat="45.6404" lon="4.59728">
        <ele>888</ele>
        <time>2018-10-14T08:45:45Z</time>
      </trkpt>
      <trkpt lat="45.64038" lon="4.59728">
        <ele>889</ele>
        <time>2018-10-14T08:45:46Z</time>
      </trkpt>
      <trkpt lat="45.64036" lon="4.59728">
        <ele>889</ele>
        <time>2018-10-14T08:45:47Z</time>
      </trkpt>
      <trkpt lat="45.64033" lon="4.59728">
        <ele>889</ele>
        <time>2018-10-14T08:45:48Z</time>
      </trkpt>
      <trkpt lat="45.64031" lon="4.59728">
        <ele>889</ele>
        <time>2018-10-14T08:45:49Z</time>
      </trkpt>
      <trkpt lat="45.64028" lon="4.59729">
        <ele>888</ele>
        <time>2018-10-14T08:45:50Z</time>
      </trkpt>
      <trkpt lat="45.64026" lon="4.59729">
        <ele>888</ele>
        <time>2018-10-14T08:45:51Z</time>
      </trkpt>
      <trkpt lat="45.64023" lon="4.5973">
        <ele>889</ele>
        <time>2018-10-14T08:45:52Z</time>
      </trkpt>
      <trkpt lat="45.64021" lon="4.59731">
        <ele>889</ele>
        <time>2018-10-14T08:45:53Z</time>
      </trkpt>
      <trkpt lat="45.64018" lon="4.59732">
        <ele>889</ele>
        <time>2018-10-14T08:45:54Z</time>
      </trkpt>
      <trkpt lat="45.64015" lon="4.59732">
        <ele>889</ele>
        <time>2018-10-14T08:45:55Z</time>
      </trkpt>
      <trkpt lat="45.64013" lon="4.59732">
        <ele>890</ele>
        <time>2018-10-14T08:45:56Z</time>
      </trkpt>
      <trkpt lat="45.6401" lon="4.59732">
        <ele>890</ele>
        <time>2018-10-14T08:45:57Z</time>
      </trkpt>
      <trkpt lat="45.64006" lon="4.59733">
        <ele>889</ele>
        <time>2018-10-14T08:45:58Z</time>
      </trkpt>
      <trkpt lat="45.64003" lon="4.59733">
        <ele>889</ele>
        <time>2018-10-14T08:45:59Z</time>
      </trkpt>
      <trkpt lat="45.64" lon="4.59734">
        <ele>889</ele>
        <time>2018-10-14T08:46:00Z</time>
      </trkpt>
      <trkpt lat="45.63997" lon="4.59734">
        <ele>889</ele>
        <time>2018-10-14T08:46:01Z</time>
      </trkpt>
      <trkpt lat="45.63992" lon="4.59735">
        <ele>889</ele>
        <time>2018-10-14T08:46:02Z</time>
      </trkpt>
      <trkpt lat="45.63978" lon="4.59737">
        <ele>889</ele>
        <time>2018-10-14T08:46:03Z</time>
      </trkpt>
      <trkpt lat="45.63965" lon="4.59737">
        <ele>886</ele>
        <time>2018-10-14T08:46:04Z</time>
      </trkpt>
      <trkpt lat="45.6396" lon="4.59735">
        <ele>885</ele>
        <time>2018-10-14T08:46:05Z</time>
      </trkpt>
      <trkpt lat="45.63957" lon="4.59734">
        <ele>884</ele>
        <time>2018-10-14T08:46:06Z</time>
      </trkpt>
      <trkpt lat="45.63953" lon="4.59733">
        <ele>885</ele>
        <time>2018-10-14T08:46:07Z</time>
      </trkpt>
      <trkpt lat="45.6395" lon="4.59732">
        <ele>885</ele>
        <time>2018-10-14T08:46:08Z</time>
      </trkpt>
      <trkpt lat="45.63945" lon="4.59731">
        <ele>885</ele>
        <time>2018-10-14T08:46:09Z</time>
      </trkpt>
      <trkpt lat="45.63942" lon="4.5973">
        <ele>886</ele>
        <time>2018-10-14T08:46:10Z</time>
      </trkpt>
      <trkpt lat="45.63938" lon="4.59729">
        <ele>886</ele>
        <time>2018-10-14T08:46:11Z</time>
      </trkpt>
      <trkpt lat="45.63936" lon="4.59729">
        <ele>887</ele>
        <time>2018-10-14T08:46:12Z</time>
      </trkpt>
      <trkpt lat="45.63934" lon="4.59729">
        <ele>888</ele>
        <time>2018-10-14T08:46:13Z</time>
      </trkpt>
      <trkpt lat="45.63933" lon="4.59728">
        <ele>887</ele>
        <time>2018-10-14T08:46:14Z</time>
      </trkpt>
      <trkpt lat="45.63932" lon="4.59727">
        <ele>888</ele>
        <time>2018-10-14T08:46:15Z</time>
      </trkpt>
      <trkpt lat="45.6393" lon="4.59726">
        <ele>886</ele>
        <time>2018-10-14T08:46:17Z</time>
      </trkpt>
      <trkpt lat="45.63927" lon="4.59725">
        <ele>885</ele>
        <time>2018-10-14T08:46:18Z</time>
      </trkpt>
      <trkpt lat="45.63918" lon="4.59722">
        <ele>886</ele>
        <time>2018-10-14T08:46:19Z</time>
      </trkpt>
      <trkpt lat="45.63905" lon="4.59723">
        <ele>886</ele>
        <time>2018-10-14T08:46:20Z</time>
      </trkpt>
      <trkpt lat="45.63902" lon="4.59721">
        <ele>886</ele>
        <time>2018-10-14T08:46:21Z</time>
      </trkpt>
      <trkpt lat="45.63899" lon="4.5972">
        <ele>887</ele>
        <time>2018-10-14T08:46:22Z</time>
      </trkpt>
      <trkpt lat="45.63895" lon="4.5972">
        <ele>888</ele>
        <time>2018-10-14T08:46:23Z</time>
      </trkpt>
      <trkpt lat="45.63892" lon="4.59719">
        <ele>888</ele>
        <time>2018-10-14T08:46:24Z</time>
      </trkpt>
      <trkpt lat="45.63887" lon="4.59718">
        <ele>888</ele>
        <time>2018-10-14T08:46:25Z</time>
      </trkpt>
      <trkpt lat="45.63881" lon="4.59719">
        <ele>888</ele>
        <time>2018-10-14T08:46:26Z</time>
      </trkpt>
      <trkpt lat="45.63878" lon="4.59717">
        <ele>886</ele>
        <time>2018-10-14T08:46:27Z</time>
      </trkpt>
      <trkpt lat="45.63874" lon="4.59715">
        <ele>886</ele>
        <time>2018-10-14T08:46:28Z</time>
      </trkpt>
      <trkpt lat="45.63871" lon="4.59713">
        <ele>886</ele>
        <time>2018-10-14T08:46:29Z</time>
      </trkpt>
      <trkpt lat="45.63867" lon="4.59713">
        <ele>886</ele>
        <time>2018-10-14T08:46:30Z</time>
      </trkpt>
      <trkpt lat="45.63864" lon="4.59711">
        <ele>887</ele>
        <time>2018-10-14T08:46:31Z</time>
      </trkpt>
      <trkpt lat="45.6386" lon="4.59711">
        <ele>887</ele>
        <time>2018-10-14T08:46:32Z</time>
      </trkpt>
      <trkpt lat="45.63857" lon="4.59708">
        <ele>887</ele>
        <time>2018-10-14T08:46:33Z</time>
      </trkpt>
      <trkpt lat="45.63852" lon="4.59706">
        <ele>887</ele>
        <time>2018-10-14T08:46:34Z</time>
      </trkpt>
      <trkpt lat="45.63848" lon="4.59705">
        <ele>887</ele>
        <time>2018-10-14T08:46:35Z</time>
      </trkpt>
      <trkpt lat="45.63846" lon="4.59705">
        <ele>887</ele>
        <time>2018-10-14T08:46:36Z</time>
      </trkpt>
      <trkpt lat="45.63845" lon="4.59704">
        <ele>887</ele>
        <time>2018-10-14T08:46:37Z</time>
      </trkpt>
      <trkpt lat="45.63843" lon="4.59703">
        <ele>887</ele>
        <time>2018-10-14T08:46:38Z</time>
      </trkpt>
      <trkpt lat="45.63837" lon="4.59703">
        <ele>888</ele>
        <time>2018-10-14T08:46:39Z</time>
      </trkpt>
      <trkpt lat="45.63829" lon="4.59703">
        <ele>887</ele>
        <time>2018-10-14T08:46:40Z</time>
      </trkpt>
      <trkpt lat="45.63825" lon="4.59702">
        <ele>887</ele>
        <time>2018-10-14T08:46:41Z</time>
      </trkpt>
      <trkpt lat="45.63821" lon="4.59701">
        <ele>888</ele>
        <time>2018-10-14T08:46:42Z</time>
      </trkpt>
      <trkpt lat="45.63818" lon="4.59699">
        <ele>887</ele>
        <time>2018-10-14T08:46:43Z</time>
      </trkpt>
      <trkpt lat="45.63815" lon="4.59699">
        <ele>888</ele>
        <time>2018-10-14T08:46:44Z</time>
      </trkpt>
      <trkpt lat="45.63812" lon="4.59698">
        <ele>888</ele>
        <time>2018-10-14T08:46:45Z</time>
      </trkpt>
      <trkpt lat="45.63809" lon="4.59697">
        <ele>888</ele>
        <time>2018-10-14T08:46:46Z</time>
      </trkpt>
      <trkpt lat="45.63806" lon="4.59697">
        <ele>888</ele>
        <time>2018-10-14T08:46:47Z</time>
      </trkpt>
      <trkpt lat="45.63804" lon="4.59696">
        <ele>887</ele>
        <time>2018-10-14T08:46:48Z</time>
      </trkpt>
      <trkpt lat="45.63802" lon="4.59696">
        <ele>887</ele>
        <time>2018-10-14T08:46:49Z</time>
      </trkpt>
      <trkpt lat="45.63801" lon="4.59696">
        <ele>888</ele>
        <time>2018-10-14T08:46:50Z</time>
      </trkpt>
      <trkpt lat="45.63799" lon="4.59696">
        <ele>888</ele>
        <time>2018-10-14T08:46:51Z</time>
      </trkpt>
      <trkpt lat="45.63798" lon="4.59695">
        <ele>889</ele>
        <time>2018-10-14T08:46:52Z</time>
      </trkpt>
      <trkpt lat="45.63797" lon="4.59695">
        <ele>890</ele>
        <time>2018-10-14T08:46:53Z</time>
      </trkpt>
      <trkpt lat="45.63793" lon="4.59694">
        <ele>889</ele>
        <time>2018-10-14T08:46:54Z</time>
      </trkpt>
      <trkpt lat="45.63787" lon="4.59693">
        <ele>890</ele>
        <time>2018-10-14T08:46:55Z</time>
      </trkpt>
      <trkpt lat="45.63779" lon="4.59692">
        <ele>892</ele>
        <time>2018-10-14T08:46:56Z</time>
      </trkpt>
      <trkpt lat="45.63777" lon="4.59691">
        <ele>892</ele>
        <time>2018-10-14T08:46:57Z</time>
      </trkpt>
      <trkpt lat="45.63774" lon="4.5969">
        <ele>892</ele>
        <time>2018-10-14T08:46:58Z</time>
      </trkpt>
      <trkpt lat="45.63772" lon="4.5969">
        <ele>892</ele>
        <time>2018-10-14T08:46:59Z</time>
      </trkpt>
      <trkpt lat="45.63771" lon="4.59689">
        <ele>893</ele>
        <time>2018-10-14T08:47:00Z</time>
      </trkpt>
      <trkpt lat="45.63768" lon="4.59688">
        <ele>893</ele>
        <time>2018-10-14T08:47:01Z</time>
      </trkpt>
      <trkpt lat="45.63766" lon="4.59689">
        <ele>892</ele>
        <time>2018-10-14T08:47:02Z</time>
      </trkpt>
      <trkpt lat="45.63763" lon="4.59688">
        <ele>892</ele>
        <time>2018-10-14T08:47:03Z</time>
      </trkpt>
      <trkpt lat="45.63761" lon="4.59689">
        <ele>892</ele>
        <time>2018-10-14T08:47:04Z</time>
      </trkpt>
      <trkpt lat="45.63759" lon="4.59689">
        <ele>892</ele>
        <time>2018-10-14T08:47:05Z</time>
      </trkpt>
      <trkpt lat="45.63757" lon="4.59689">
        <ele>891</ele>
        <time>2018-10-14T08:47:06Z</time>
      </trkpt>
      <trkpt lat="45.63755" lon="4.59689">
        <ele>891</ele>
        <time>2018-10-14T08:47:08Z</time>
      </trkpt>
      <trkpt lat="45.63754" lon="4.59688">
        <ele>892</ele>
        <time>2018-10-14T08:47:09Z</time>
      </trkpt>
      <trkpt lat="45.63753" lon="4.59688">
        <ele>892</ele>
        <time>2018-10-14T08:47:10Z</time>
      </trkpt>
      <trkpt lat="45.63751" lon="4.59686">
        <ele>892</ele>
        <time>2018-10-14T08:47:11Z</time>
      </trkpt>
      <trkpt lat="45.63749" lon="4.59685">
        <ele>893</ele>
        <time>2018-10-14T08:47:12Z</time>
      </trkpt>
      <trkpt lat="45.63747" lon="4.59684">
        <ele>892</ele>
        <time>2018-10-14T08:47:13Z</time>
      </trkpt>
      <trkpt lat="45.63745" lon="4.59683">
        <ele>892</ele>
        <time>2018-10-14T08:47:14Z</time>
      </trkpt>
      <trkpt lat="45.63743" lon="4.59683">
        <ele>893</ele>
        <time>2018-10-14T08:47:15Z</time>
      </trkpt>
      <trkpt lat="45.63742" lon="4.59682">
        <ele>892</ele>
        <time>2018-10-14T08:47:16Z</time>
      </trkpt>
      <trkpt lat="45.63741" lon="4.59681">
        <ele>892</ele>
        <time>2018-10-14T08:47:17Z</time>
      </trkpt>
      <trkpt lat="45.63739" lon="4.5968">
        <ele>892</ele>
        <time>2018-10-14T08:47:18Z</time>
      </trkpt>
      <trkpt lat="45.63737" lon="4.5968">
        <ele>893</ele>
        <time>2018-10-14T08:47:19Z</time>
      </trkpt>
      <trkpt lat="45.63735" lon="4.59679">
        <ele>894</ele>
        <time>2018-10-14T08:47:20Z</time>
      </trkpt>
      <trkpt lat="45.63733" lon="4.59679">
        <ele>894</ele>
        <time>2018-10-14T08:47:21Z</time>
      </trkpt>
      <trkpt lat="45.63732" lon="4.59679">
        <ele>894</ele>
        <time>2018-10-14T08:47:22Z</time>
      </trkpt>
      <trkpt lat="45.63731" lon="4.59679">
        <ele>894</ele>
        <time>2018-10-14T08:47:23Z</time>
      </trkpt>
      <trkpt lat="45.6373" lon="4.59679">
        <ele>895</ele>
        <time>2018-10-14T08:47:24Z</time>
      </trkpt>
      <trkpt lat="45.63728" lon="4.59679">
        <ele>896</ele>
        <time>2018-10-14T08:47:25Z</time>
      </trkpt>
      <trkpt lat="45.63727" lon="4.59679">
        <ele>896</ele>
        <time>2018-10-14T08:47:26Z</time>
      </trkpt>
      <trkpt lat="45.63725" lon="4.59679">
        <ele>897</ele>
        <time>2018-10-14T08:47:27Z</time>
      </trkpt>
      <trkpt lat="45.63724" lon="4.59679">
        <ele>898</ele>
        <time>2018-10-14T08:47:28Z</time>
      </trkpt>
      <trkpt lat="45.63722" lon="4.59679">
        <ele>899</ele>
        <time>2018-10-14T08:47:29Z</time>
      </trkpt>
      <trkpt lat="45.6372" lon="4.59679">
        <ele>899</ele>
        <time>2018-10-14T08:47:30Z</time>
      </trkpt>
      <trkpt lat="45.63718" lon="4.59678">
        <ele>900</ele>
        <time>2018-10-14T08:47:31Z</time>
      </trkpt>
      <trkpt lat="45.63716" lon="4.59678">
        <ele>900</ele>
        <time>2018-10-14T08:47:32Z</time>
      </trkpt>
      <trkpt lat="45.63714" lon="4.59677">
        <ele>901</ele>
        <time>2018-10-14T08:47:33Z</time>
      </trkpt>
      <trkpt lat="45.63712" lon="4.59676">
        <ele>901</ele>
        <time>2018-10-14T08:47:34Z</time>
      </trkpt>
      <trkpt lat="45.6371" lon="4.59676">
        <ele>901</ele>
        <time>2018-10-14T08:47:35Z</time>
      </trkpt>
      <trkpt lat="45.63709" lon="4.59677">
        <ele>902</ele>
        <time>2018-10-14T08:47:36Z</time>
      </trkpt>
      <trkpt lat="45.63707" lon="4.59677">
        <ele>902</ele>
        <time>2018-10-14T08:47:37Z</time>
      </trkpt>
      <trkpt lat="45.63705" lon="4.59677">
        <ele>901</ele>
        <time>2018-10-14T08:47:38Z</time>
      </trkpt>
      <trkpt lat="45.63703" lon="4.59677">
        <ele>901</ele>
        <time>2018-10-14T08:47:39Z</time>
      </trkpt>
      <trkpt lat="45.63702" lon="4.59677">
        <ele>901</ele>
        <time>2018-10-14T08:47:40Z</time>
      </trkpt>
      <trkpt lat="45.637" lon="4.59677">
        <ele>901</ele>
        <time>2018-10-14T08:47:41Z</time>
      </trkpt>
      <trkpt lat="45.63697" lon="4.59676">
        <ele>901</ele>
        <time>2018-10-14T08:47:42Z</time>
      </trkpt>
      <trkpt lat="45.63695" lon="4.59676">
        <ele>901</ele>
        <time>2018-10-14T08:47:43Z</time>
      </trkpt>
      <trkpt lat="45.63693" lon="4.59675">
        <ele>901</ele>
        <time>2018-10-14T08:47:44Z</time>
      </trkpt>
      <trkpt lat="45.63691" lon="4.59675">
        <ele>901</ele>
        <time>2018-10-14T08:47:45Z</time>
      </trkpt>
      <trkpt lat="45.63688" lon="4.59675">
        <ele>900</ele>
        <time>2018-10-14T08:47:47Z</time>
      </trkpt>
      <trkpt lat="45.63685" lon="4.59675">
        <ele>900</ele>
        <time>2018-10-14T08:47:48Z</time>
      </trkpt>
      <trkpt lat="45.63682" lon="4.59675">
        <ele>900</ele>
        <time>2018-10-14T08:47:49Z</time>
      </trkpt>
      <trkpt lat="45.63679" lon="4.59676">
        <ele>900</ele>
        <time>2018-10-14T08:47:50Z</time>
      </trkpt>
      <trkpt lat="45.63676" lon="4.59676">
        <ele>901</ele>
        <time>2018-10-14T08:47:51Z</time>
      </trkpt>
      <trkpt lat="45.63673" lon="4.59677">
        <ele>900</ele>
        <time>2018-10-14T08:47:52Z</time>
      </trkpt>
      <trkpt lat="45.6367" lon="4.59678">
        <ele>901</ele>
        <time>2018-10-14T08:47:53Z</time>
      </trkpt>
      <trkpt lat="45.63668" lon="4.59678">
        <ele>902</ele>
        <time>2018-10-14T08:47:54Z</time>
      </trkpt>
      <trkpt lat="45.63665" lon="4.5968">
        <ele>901</ele>
        <time>2018-10-14T08:47:55Z</time>
      </trkpt>
      <trkpt lat="45.63663" lon="4.59681">
        <ele>900</ele>
        <time>2018-10-14T08:47:56Z</time>
      </trkpt>
      <trkpt lat="45.63659" lon="4.59683">
        <ele>900</ele>
        <time>2018-10-14T08:47:57Z</time>
      </trkpt>
      <trkpt lat="45.63656" lon="4.59685">
        <ele>900</ele>
        <time>2018-10-14T08:47:58Z</time>
      </trkpt>
      <trkpt lat="45.63653" lon="4.59686">
        <ele>899</ele>
        <time>2018-10-14T08:47:59Z</time>
      </trkpt>
      <trkpt lat="45.63651" lon="4.59688">
        <ele>899</ele>
        <time>2018-10-14T08:48:00Z</time>
      </trkpt>
      <trkpt lat="45.63648" lon="4.59689">
        <ele>899</ele>
        <time>2018-10-14T08:48:01Z</time>
      </trkpt>
      <trkpt lat="45.63646" lon="4.59691">
        <ele>899</ele>
        <time>2018-10-14T08:48:02Z</time>
      </trkpt>
      <trkpt lat="45.63643" lon="4.59692">
        <ele>899</ele>
        <time>2018-10-14T08:48:03Z</time>
      </trkpt>
      <trkpt lat="45.63639" lon="4.59693">
        <ele>898</ele>
        <time>2018-10-14T08:48:04Z</time>
      </trkpt>
      <trkpt lat="45.63634" lon="4.59693">
        <ele>899</ele>
        <time>2018-10-14T08:48:05Z</time>
      </trkpt>
      <trkpt lat="45.63631" lon="4.59694">
        <ele>899</ele>
        <time>2018-10-14T08:48:06Z</time>
      </trkpt>
      <trkpt lat="45.63629" lon="4.59695">
        <ele>900</ele>
        <time>2018-10-14T08:48:07Z</time>
      </trkpt>
      <trkpt lat="45.63627" lon="4.59696">
        <ele>900</ele>
        <time>2018-10-14T08:48:08Z</time>
      </trkpt>
      <trkpt lat="45.63624" lon="4.59697">
        <ele>901</ele>
        <time>2018-10-14T08:48:09Z</time>
      </trkpt>
      <trkpt lat="45.63622" lon="4.59699">
        <ele>901</ele>
        <time>2018-10-14T08:48:10Z</time>
      </trkpt>
      <trkpt lat="45.6362" lon="4.59699">
        <ele>902</ele>
        <time>2018-10-14T08:48:11Z</time>
      </trkpt>
      <trkpt lat="45.63618" lon="4.597">
        <ele>902</ele>
        <time>2018-10-14T08:48:12Z</time>
      </trkpt>
      <trkpt lat="45.63616" lon="4.59702">
        <ele>902</ele>
        <time>2018-10-14T08:48:13Z</time>
      </trkpt>
      <trkpt lat="45.63615" lon="4.59703">
        <ele>903</ele>
        <time>2018-10-14T08:48:14Z</time>
      </trkpt>
      <trkpt lat="45.63614" lon="4.59703">
        <ele>904</ele>
        <time>2018-10-14T08:48:15Z</time>
      </trkpt>
      <trkpt lat="45.63612" lon="4.59704">
        <ele>904</ele>
        <time>2018-10-14T08:48:16Z</time>
      </trkpt>
      <trkpt lat="45.63611" lon="4.59705">
        <ele>904</ele>
        <time>2018-10-14T08:48:17Z</time>
      </trkpt>
      <trkpt lat="45.63609" lon="4.59705">
        <ele>904</ele>
        <time>2018-10-14T08:48:18Z</time>
      </trkpt>
      <trkpt lat="45.63608" lon="4.59704">
        <ele>904</ele>
        <time>2018-10-14T08:48:19Z</time>
      </trkpt>
      <trkpt lat="45.63607" lon="4.59704">
        <ele>904</ele>
        <time>2018-10-14T08:48:20Z</time>
      </trkpt>
      <trkpt lat="45.63606" lon="4.59704">
        <ele>903</ele>
        <time>2018-10-14T08:48:22Z</time>
      </trkpt>
      <trkpt lat="45.63605" lon="4.59707">
        <ele>902</ele>
        <time>2018-10-14T08:48:23Z</time>
      </trkpt>
      <trkpt lat="45.63606" lon="4.5971">
        <ele>902</ele>
        <time>2018-10-14T08:48:24Z</time>
      </trkpt>
      <trkpt lat="45.63606" lon="4.59714">
        <ele>899</ele>
        <time>2018-10-14T08:48:25Z</time>
      </trkpt>
      <trkpt lat="45.63607" lon="4.59718">
        <ele>899</ele>
        <time>2018-10-14T08:48:26Z</time>
      </trkpt>
      <trkpt lat="45.63608" lon="4.5972">
        <ele>899</ele>
        <time>2018-10-14T08:48:27Z</time>
      </trkpt>
      <trkpt lat="45.63609" lon="4.59723">
        <ele>898</ele>
        <time>2018-10-14T08:48:28Z</time>
      </trkpt>
      <trkpt lat="45.63611" lon="4.59726">
        <ele>898</ele>
        <time>2018-10-14T08:48:29Z</time>
      </trkpt>
      <trkpt lat="45.63612" lon="4.5973">
        <ele>899</ele>
        <time>2018-10-14T08:48:30Z</time>
      </trkpt>
      <trkpt lat="45.63612" lon="4.59733">
        <ele>899</ele>
        <time>2018-10-14T08:48:31Z</time>
      </trkpt>
      <trkpt lat="45.63613" lon="4.59737">
        <ele>899</ele>
        <time>2018-10-14T08:48:32Z</time>
      </trkpt>
      <trkpt lat="45.63612" lon="4.59738">
        <ele>899</ele>
        <time>2018-10-14T08:48:39Z</time>
      </trkpt>
      <trkpt lat="45.63612" lon="4.59738">
        <ele>899</ele>
        <time>2018-10-14T08:48:42Z</time>
      </trkpt>
      <trkpt lat="45.63613" lon="4.59739">
        <ele>899</ele>
        <time>2018-10-14T08:48:51Z</time>
      </trkpt>
      <trkpt lat="45.63612" lon="4.5974">
        <ele>900</ele>
        <time>2018-10-14T08:49:00Z</time>
      </trkpt>
      <trkpt lat="45.63612" lon="4.5974">
        <ele>899</ele>
        <time>2018-10-14T08:49:03Z</time>
      </trkpt>
      <trkpt lat="45.63613" lon="4.59739">
        <ele>898</ele>
        <time>2018-10-14T08:49:08Z</time>
      </trkpt>
      <trkpt lat="45.63613" lon="4.59741">
        <ele>899</ele>
        <time>2018-10-14T08:49:09Z</time>
      </trkpt>
      <trkpt lat="45.63614" lon="4.59745">
        <ele>898</ele>
        <time>2018-10-14T08:49:10Z</time>
      </trkpt>
      <trkpt lat="45.63614" lon="4.59749">
        <ele>898</ele>
        <time>2018-10-14T08:49:11Z</time>
      </trkpt>
      <trkpt lat="45.63614" lon="4.59753">
        <ele>898</ele>
        <time>2018-10-14T08:49:12Z</time>
      </trkpt>
      <trkpt lat="45.63614" lon="4.59756">
        <ele>898</ele>
        <time>2018-10-14T08:49:13Z</time>
      </trkpt>
      <trkpt lat="45.63614" lon="4.59759">
        <ele>898</ele>
        <time>2018-10-14T08:49:14Z</time>
      </trkpt>
      <trkpt lat="45.63614" lon="4.59762">
        <ele>899</ele>
        <time>2018-10-14T08:49:15Z</time>
      </trkpt>
      <trkpt lat="45.63614" lon="4.59766">
        <ele>898</ele>
        <time>2018-10-14T08:49:16Z</time>
      </trkpt>
      <trkpt lat="45.63615" lon="4.59769">
        <ele>898</ele>
        <time>2018-10-14T08:49:17Z</time>
      </trkpt>
      <trkpt lat="45.63615" lon="4.59773">
        <ele>898</ele>
        <time>2018-10-14T08:49:18Z</time>
      </trkpt>
      <trkpt lat="45.63616" lon="4.59791">
        <ele>897</ele>
        <time>2018-10-14T08:49:19Z</time>
      </trkpt>
      <trkpt lat="45.63617" lon="4.59798">
        <ele>897</ele>
        <time>2018-10-14T08:49:20Z</time>
      </trkpt>
      <trkpt lat="45.63618" lon="4.59804">
        <ele>897</ele>
        <time>2018-10-14T08:49:21Z</time>
      </trkpt>
      <trkpt lat="45.63619" lon="4.5981">
        <ele>897</ele>
        <time>2018-10-14T08:49:22Z</time>
      </trkpt>
      <trkpt lat="45.6362" lon="4.59817">
        <ele>897</ele>
        <time>2018-10-14T08:49:23Z</time>
      </trkpt>
      <trkpt lat="45.63622" lon="4.59824">
        <ele>897</ele>
        <time>2018-10-14T08:49:24Z</time>
      </trkpt>
      <trkpt lat="45.63623" lon="4.5983">
        <ele>896</ele>
        <time>2018-10-14T08:49:25Z</time>
      </trkpt>
      <trkpt lat="45.63624" lon="4.59837">
        <ele>896</ele>
        <time>2018-10-14T08:49:26Z</time>
      </trkpt>
      <trkpt lat="45.63625" lon="4.59844">
        <ele>896</ele>
        <time>2018-10-14T08:49:27Z</time>
      </trkpt>
      <trkpt lat="45.63627" lon="4.59851">
        <ele>897</ele>
        <time>2018-10-14T08:49:28Z</time>
      </trkpt>
      <trkpt lat="45.63628" lon="4.59858">
        <ele>897</ele>
        <time>2018-10-14T08:49:29Z</time>
      </trkpt>
      <trkpt lat="45.6363" lon="4.59864">
        <ele>898</ele>
        <time>2018-10-14T08:49:30Z</time>
      </trkpt>
      <trkpt lat="45.63631" lon="4.59872">
        <ele>897</ele>
        <time>2018-10-14T08:49:31Z</time>
      </trkpt>
      <trkpt lat="45.63633" lon="4.5988">
        <ele>896</ele>
        <time>2018-10-14T08:49:32Z</time>
      </trkpt>
      <trkpt lat="45.63635" lon="4.59887">
        <ele>896</ele>
        <time>2018-10-14T08:49:33Z</time>
      </trkpt>
      <trkpt lat="45.63639" lon="4.59895">
        <ele>895</ele>
        <time>2018-10-14T08:49:34Z</time>
      </trkpt>
      <trkpt lat="45.63642" lon="4.59902">
        <ele>895</ele>
        <time>2018-10-14T08:49:35Z</time>
      </trkpt>
      <trkpt lat="45.63645" lon="4.59909">
        <ele>895</ele>
        <time>2018-10-14T08:49:36Z</time>
      </trkpt>
      <trkpt lat="45.63648" lon="4.59916">
        <ele>895</ele>
        <time>2018-10-14T08:49:37Z</time>
      </trkpt>
      <trkpt lat="45.63652" lon="4.59923">
        <ele>895</ele>
        <time>2018-10-14T08:49:38Z</time>
      </trkpt>
      <trkpt lat="45.63657" lon="4.59931">
        <ele>895</ele>
        <time>2018-10-14T08:49:39Z</time>
      </trkpt>
      <trkpt lat="45.63663" lon="4.59936">
        <ele>894</ele>
        <time>2018-10-14T08:49:40Z</time>
      </trkpt>
      <trkpt lat="45.63669" lon="4.59944">
        <ele>893</ele>
        <time>2018-10-14T08:49:41Z</time>
      </trkpt>
      <trkpt lat="45.63677" lon="4.59952">
        <ele>892</ele>
        <time>2018-10-14T08:49:42Z</time>
      </trkpt>
      <trkpt lat="45.63683" lon="4.5996">
        <ele>891</ele>
        <time>2018-10-14T08:49:43Z</time>
      </trkpt>
      <trkpt lat="45.63688" lon="4.59968">
        <ele>891</ele>
        <time>2018-10-14T08:49:44Z</time>
      </trkpt>
      <trkpt lat="45.63692" lon="4.59975">
        <ele>890</ele>
        <time>2018-10-14T08:49:45Z</time>
      </trkpt>
      <trkpt lat="45.63696" lon="4.59982">
        <ele>890</ele>
        <time>2018-10-14T08:49:46Z</time>
      </trkpt>
      <trkpt lat="45.63702" lon="4.5999">
        <ele>890</ele>
        <time>2018-10-14T08:49:47Z</time>
      </trkpt>
      <trkpt lat="45.63706" lon="4.59998">
        <ele>889</ele>
        <time>2018-10-14T08:49:48Z</time>
      </trkpt>
      <trkpt lat="45.6371" lon="4.60005">
        <ele>889</ele>
        <time>2018-10-14T08:49:49Z</time>
      </trkpt>
      <trkpt lat="45.63713" lon="4.60012">
        <ele>889</ele>
        <time>2018-10-14T08:49:50Z</time>
      </trkpt>
      <trkpt lat="45.63717" lon="4.60018">
        <ele>889</ele>
        <time>2018-10-14T08:49:51Z</time>
      </trkpt>
      <trkpt lat="45.63719" lon="4.60022">
        <ele>888</ele>
        <time>2018-10-14T08:49:52Z</time>
      </trkpt>
      <trkpt lat="45.63723" lon="4.60025">
        <ele>888</ele>
        <time>2018-10-14T08:49:53Z</time>
      </trkpt>
      <trkpt lat="45.63725" lon="4.60028">
        <ele>888</ele>
        <time>2018-10-14T08:49:54Z</time>
      </trkpt>
      <trkpt lat="45.63728" lon="4.60031">
        <ele>888</ele>
        <time>2018-10-14T08:49:55Z</time>
      </trkpt>
      <trkpt lat="45.63731" lon="4.60036">
        <ele>887</ele>
        <time>2018-10-14T08:49:56Z</time>
      </trkpt>
      <trkpt lat="45.63735" lon="4.6004">
        <ele>887</ele>
        <time>2018-10-14T08:49:57Z</time>
      </trkpt>
      <trkpt lat="45.63738" lon="4.60043">
        <ele>888</ele>
        <time>2018-10-14T08:49:58Z</time>
      </trkpt>
      <trkpt lat="45.63743" lon="4.60048">
        <ele>887</ele>
        <time>2018-10-14T08:49:59Z</time>
      </trkpt>
      <trkpt lat="45.63746" lon="4.60052">
        <ele>887</ele>
        <time>2018-10-14T08:50:00Z</time>
      </trkpt>
      <trkpt lat="45.63748" lon="4.60057">
        <ele>886</ele>
        <time>2018-10-14T08:50:01Z</time>
      </trkpt>
      <trkpt lat="45.63752" lon="4.60064">
        <ele>884</ele>
        <time>2018-10-14T08:50:02Z</time>
      </trkpt>
      <trkpt lat="45.63757" lon="4.60072">
        <ele>886</ele>
        <time>2018-10-14T08:50:03Z</time>
      </trkpt>
      <trkpt lat="45.63759" lon="4.60079">
        <ele>885</ele>
        <time>2018-10-14T08:50:04Z</time>
      </trkpt>
      <trkpt lat="45.63763" lon="4.60084">
        <ele>882</ele>
        <time>2018-10-14T08:50:05Z</time>
      </trkpt>
      <trkpt lat="45.63765" lon="4.60089">
        <ele>881</ele>
        <time>2018-10-14T08:50:06Z</time>
      </trkpt>
      <trkpt lat="45.63768" lon="4.60095">
        <ele>881</ele>
        <time>2018-10-14T08:50:07Z</time>
      </trkpt>
      <trkpt lat="45.6377" lon="4.60102">
        <ele>878</ele>
        <time>2018-10-14T08:50:08Z</time>
      </trkpt>
      <trkpt lat="45.63771" lon="4.60106">
        <ele>879</ele>
        <time>2018-10-14T08:50:09Z</time>
      </trkpt>
      <trkpt lat="45.63774" lon="4.60111">
        <ele>878</ele>
        <time>2018-10-14T08:50:10Z</time>
      </trkpt>
      <trkpt lat="45.63778" lon="4.60117">
        <ele>878</ele>
        <time>2018-10-14T08:50:11Z</time>
      </trkpt>
      <trkpt lat="45.6378" lon="4.60123">
        <ele>878</ele>
        <time>2018-10-14T08:50:12Z</time>
      </trkpt>
      <trkpt lat="45.63783" lon="4.60129">
        <ele>877</ele>
        <time>2018-10-14T08:50:13Z</time>
      </trkpt>
      <trkpt lat="45.63786" lon="4.60131">
        <ele>876</ele>
        <time>2018-10-14T08:50:14Z</time>
      </trkpt>
      <trkpt lat="45.63789" lon="4.60135">
        <ele>876</ele>
        <time>2018-10-14T08:50:15Z</time>
      </trkpt>
      <trkpt lat="45.63791" lon="4.60136">
        <ele>872</ele>
        <time>2018-10-14T08:50:16Z</time>
      </trkpt>
      <trkpt lat="45.63793" lon="4.6014">
        <ele>871</ele>
        <time>2018-10-14T08:50:17Z</time>
      </trkpt>
      <trkpt lat="45.63793" lon="4.60143">
        <ele>870</ele>
        <time>2018-10-14T08:50:18Z</time>
      </trkpt>
      <trkpt lat="45.63794" lon="4.60145">
        <ele>870</ele>
        <time>2018-10-14T08:50:19Z</time>
      </trkpt>
      <trkpt lat="45.63792" lon="4.60148">
        <ele>870</ele>
        <time>2018-10-14T08:50:20Z</time>
      </trkpt>
      <trkpt lat="45.63792" lon="4.6015">
        <ele>875</ele>
        <time>2018-10-14T08:50:21Z</time>
      </trkpt>
      <trkpt lat="45.63791" lon="4.60153">
        <ele>875</ele>
        <time>2018-10-14T08:50:22Z</time>
      </trkpt>
      <trkpt lat="45.63796" lon="4.60157">
        <ele>872</ele>
        <time>2018-10-14T08:50:44Z</time>
      </trkpt>
      <trkpt lat="45.63796" lon="4.60158">
        <ele>873</ele>
        <time>2018-10-14T08:50:45Z</time>
      </trkpt>
      <trkpt lat="45.63796" lon="4.60159">
        <ele>873</ele>
        <time>2018-10-14T08:50:46Z</time>
      </trkpt>
      <trkpt lat="45.63796" lon="4.60159">
        <ele>873</ele>
        <time>2018-10-14T08:50:50Z</time>
      </trkpt>
      <trkpt lat="45.63795" lon="4.6016">
        <ele>874</ele>
        <time>2018-10-14T08:50:52Z</time>
      </trkpt>
      <trkpt lat="45.63796" lon="4.60159">
        <ele>874</ele>
        <time>2018-10-14T08:51:33Z</time>
      </trkpt>
      <trkpt lat="45.63796" lon="4.60159">
        <ele>874</ele>
        <time>2018-10-14T08:51:35Z</time>
      </trkpt>
      <trkpt lat="45.63794" lon="4.60159">
        <ele>874</ele>
        <time>2018-10-14T08:51:36Z</time>
      </trkpt>
      <trkpt lat="45.63794" lon="4.60159">
        <ele>874</ele>
        <time>2018-10-14T08:51:37Z</time>
      </trkpt>
      <trkpt lat="45.63794" lon="4.60161">
        <ele>875</ele>
        <time>2018-10-14T08:51:42Z</time>
      </trkpt>
      <trkpt lat="45.63792" lon="4.60161">
        <ele>875</ele>
        <time>2018-10-14T08:51:43Z</time>
      </trkpt>
      <trkpt lat="45.63791" lon="4.60162">
        <ele>875</ele>
        <time>2018-10-14T08:51:44Z</time>
      </trkpt>
      <trkpt lat="45.63789" lon="4.60163">
        <ele>876</ele>
        <time>2018-10-14T08:51:45Z</time>
      </trkpt>
      <trkpt lat="45.63789" lon="4.60165">
        <ele>877</ele>
        <time>2018-10-14T08:51:46Z</time>
      </trkpt>
      <trkpt lat="45.63789" lon="4.60167">
        <ele>877</ele>
        <time>2018-10-14T08:51:47Z</time>
      </trkpt>
      <trkpt lat="45.63788" lon="4.6017">
        <ele>876</ele>
        <time>2018-10-14T08:51:48Z</time>
      </trkpt>
      <trkpt lat="45.63787" lon="4.60172">
        <ele>875</ele>
        <time>2018-10-14T08:51:49Z</time>
      </trkpt>
      <trkpt lat="45.63786" lon="4.60173">
        <ele>874</ele>
        <time>2018-10-14T08:51:50Z</time>
      </trkpt>
      <trkpt lat="45.63784" lon="4.60175">
        <ele>874</ele>
        <time>2018-10-14T08:51:51Z</time>
      </trkpt>
      <trkpt lat="45.63782" lon="4.60177">
        <ele>875</ele>
        <time>2018-10-14T08:51:52Z</time>
      </trkpt>
      <trkpt lat="45.63781" lon="4.6018">
        <ele>876</ele>
        <time>2018-10-14T08:51:53Z</time>
      </trkpt>
      <trkpt lat="45.63779" lon="4.60182">
        <ele>875</ele>
        <time>2018-10-14T08:51:54Z</time>
      </trkpt>
      <trkpt lat="45.63778" lon="4.60184">
        <ele>873</ele>
        <time>2018-10-14T08:51:55Z</time>
      </trkpt>
      <trkpt lat="45.63775" lon="4.60186">
        <ele>872</ele>
        <time>2018-10-14T08:51:57Z</time>
      </trkpt>
      <trkpt lat="45.63772" lon="4.60189">
        <ele>870</ele>
        <time>2018-10-14T08:51:58Z</time>
      </trkpt>
      <trkpt lat="45.63768" lon="4.60191">
        <ele>870</ele>
        <time>2018-10-14T08:51:59Z</time>
      </trkpt>
      <trkpt lat="45.6376" lon="4.60196">
        <ele>870</ele>
        <time>2018-10-14T08:52:00Z</time>
      </trkpt>
      <trkpt lat="45.63757" lon="4.602">
        <ele>871</ele>
        <time>2018-10-14T08:52:01Z</time>
      </trkpt>
      <trkpt lat="45.63752" lon="4.60203">
        <ele>870</ele>
        <time>2018-10-14T08:52:02Z</time>
      </trkpt>
      <trkpt lat="45.63747" lon="4.60207">
        <ele>870</ele>
        <time>2018-10-14T08:52:03Z</time>
      </trkpt>
      <trkpt lat="45.63742" lon="4.60212">
        <ele>867</ele>
        <time>2018-10-14T08:52:04Z</time>
      </trkpt>
      <trkpt lat="45.63736" lon="4.60215">
        <ele>868</ele>
        <time>2018-10-14T08:52:05Z</time>
      </trkpt>
      <trkpt lat="45.6373" lon="4.6022">
        <ele>866</ele>
        <time>2018-10-14T08:52:06Z</time>
      </trkpt>
      <trkpt lat="45.63725" lon="4.60223">
        <ele>866</ele>
        <time>2018-10-14T08:52:07Z</time>
      </trkpt>
      <trkpt lat="45.6372" lon="4.60228">
        <ele>865</ele>
        <time>2018-10-14T08:52:08Z</time>
      </trkpt>
      <trkpt lat="45.63715" lon="4.60233">
        <ele>864</ele>
        <time>2018-10-14T08:52:09Z</time>
      </trkpt>
      <trkpt lat="45.63712" lon="4.60238">
        <ele>864</ele>
        <time>2018-10-14T08:52:10Z</time>
      </trkpt>
      <trkpt lat="45.63708" lon="4.60243">
        <ele>864</ele>
        <time>2018-10-14T08:52:11Z</time>
      </trkpt>
      <trkpt lat="45.63704" lon="4.60251">
        <ele>865</ele>
        <time>2018-10-14T08:52:12Z</time>
      </trkpt>
      <trkpt lat="45.63702" lon="4.60257">
        <ele>867</ele>
        <time>2018-10-14T08:52:13Z</time>
      </trkpt>
      <trkpt lat="45.63697" lon="4.60262">
        <ele>868</ele>
        <time>2018-10-14T08:52:14Z</time>
      </trkpt>
      <trkpt lat="45.63694" lon="4.60266">
        <ele>868</ele>
        <time>2018-10-14T08:52:15Z</time>
      </trkpt>
      <trkpt lat="45.6369" lon="4.6027">
        <ele>867</ele>
        <time>2018-10-14T08:52:16Z</time>
      </trkpt>
      <trkpt lat="45.63686" lon="4.60273">
        <ele>865</ele>
        <time>2018-10-14T08:52:17Z</time>
      </trkpt>
      <trkpt lat="45.63681" lon="4.60276">
        <ele>865</ele>
        <time>2018-10-14T08:52:18Z</time>
      </trkpt>
      <trkpt lat="45.63675" lon="4.60278">
        <ele>867</ele>
        <time>2018-10-14T08:52:19Z</time>
      </trkpt>
      <trkpt lat="45.63673" lon="4.60283">
        <ele>867</ele>
        <time>2018-10-14T08:52:20Z</time>
      </trkpt>
      <trkpt lat="45.63668" lon="4.60287">
        <ele>867</ele>
        <time>2018-10-14T08:52:21Z</time>
      </trkpt>
      <trkpt lat="45.63664" lon="4.60291">
        <ele>867</ele>
        <time>2018-10-14T08:52:22Z</time>
      </trkpt>
      <trkpt lat="45.63656" lon="4.60295">
        <ele>865</ele>
        <time>2018-10-14T08:52:23Z</time>
      </trkpt>
      <trkpt lat="45.6365" lon="4.60296">
        <ele>864</ele>
        <time>2018-10-14T08:52:24Z</time>
      </trkpt>
      <trkpt lat="45.63648" lon="4.60296">
        <ele>863</ele>
        <time>2018-10-14T08:52:25Z</time>
      </trkpt>
      <trkpt lat="45.63643" lon="4.60299">
        <ele>863</ele>
        <time>2018-10-14T08:52:26Z</time>
      </trkpt>
      <trkpt lat="45.63636" lon="4.60303">
        <ele>862</ele>
        <time>2018-10-14T08:52:27Z</time>
      </trkpt>
      <trkpt lat="45.6363" lon="4.60306">
        <ele>861</ele>
        <time>2018-10-14T08:52:28Z</time>
      </trkpt>
      <trkpt lat="45.63625" lon="4.60311">
        <ele>860</ele>
        <time>2018-10-14T08:52:29Z</time>
      </trkpt>
      <trkpt lat="45.6362" lon="4.60316">
        <ele>860</ele>
        <time>2018-10-14T08:52:30Z</time>
      </trkpt>
      <trkpt lat="45.63611" lon="4.6032">
        <ele>860</ele>
        <time>2018-10-14T08:52:31Z</time>
      </trkpt>
      <trkpt lat="45.63606" lon="4.60326">
        <ele>860</ele>
        <time>2018-10-14T08:52:32Z</time>
      </trkpt>
      <trkpt lat="45.636" lon="4.6033">
        <ele>861</ele>
        <time>2018-10-14T08:52:33Z</time>
      </trkpt>
      <trkpt lat="45.63594" lon="4.60335">
        <ele>861</ele>
        <time>2018-10-14T08:52:34Z</time>
      </trkpt>
      <trkpt lat="45.63586" lon="4.60342">
        <ele>861</ele>
        <time>2018-10-14T08:52:35Z</time>
      </trkpt>
      <trkpt lat="45.6358" lon="4.60349">
        <ele>861</ele>
        <time>2018-10-14T08:52:36Z</time>
      </trkpt>
      <trkpt lat="45.63573" lon="4.60355">
        <ele>861</ele>
        <time>2018-10-14T08:52:37Z</time>
      </trkpt>
      <trkpt lat="45.63566" lon="4.60366">
        <ele>862</ele>
        <time>2018-10-14T08:52:38Z</time>
      </trkpt>
      <trkpt lat="45.63557" lon="4.60373">
        <ele>858</ele>
        <time>2018-10-14T08:52:39Z</time>
      </trkpt>
      <trkpt lat="45.63553" lon="4.60375">
        <ele>858</ele>
        <time>2018-10-14T08:52:40Z</time>
      </trkpt>
      <trkpt lat="45.63551" lon="4.60374">
        <ele>858</ele>
        <time>2018-10-14T08:52:41Z</time>
      </trkpt>
      <trkpt lat="45.63546" lon="4.60377">
        <ele>859</ele>
        <time>2018-10-14T08:52:42Z</time>
      </trkpt>
      <trkpt lat="45.63541" lon="4.60383">
        <ele>859</ele>
        <time>2018-10-14T08:52:43Z</time>
      </trkpt>
      <trkpt lat="45.63534" lon="4.60388">
        <ele>859</ele>
        <time>2018-10-14T08:52:44Z</time>
      </trkpt>
      <trkpt lat="45.63527" lon="4.60394">
        <ele>860</ele>
        <time>2018-10-14T08:52:45Z</time>
      </trkpt>
      <trkpt lat="45.63522" lon="4.60398">
        <ele>860</ele>
        <time>2018-10-14T08:52:46Z</time>
      </trkpt>
      <trkpt lat="45.63514" lon="4.60402">
        <ele>861</ele>
        <time>2018-10-14T08:52:47Z</time>
      </trkpt>
      <trkpt lat="45.63508" lon="4.60403">
        <ele>862</ele>
        <time>2018-10-14T08:52:48Z</time>
      </trkpt>
      <trkpt lat="45.63503" lon="4.60407">
        <ele>862</ele>
        <time>2018-10-14T08:52:49Z</time>
      </trkpt>
      <trkpt lat="45.63498" lon="4.60409">
        <ele>862</ele>
        <time>2018-10-14T08:52:50Z</time>
      </trkpt>
      <trkpt lat="45.63498" lon="4.60406">
        <ele>863</ele>
        <time>2018-10-14T08:52:51Z</time>
      </trkpt>
      <trkpt lat="45.63495" lon="4.60406">
        <ele>864</ele>
        <time>2018-10-14T08:52:52Z</time>
      </trkpt>
      <trkpt lat="45.63494" lon="4.60407">
        <ele>866</ele>
        <time>2018-10-14T08:52:53Z</time>
      </trkpt>
      <trkpt lat="45.63493" lon="4.60406">
        <ele>866</ele>
        <time>2018-10-14T08:52:54Z</time>
      </trkpt>
      <trkpt lat="45.6349" lon="4.60408">
        <ele>867</ele>
        <time>2018-10-14T08:52:55Z</time>
      </trkpt>
      <trkpt lat="45.63488" lon="4.60406">
        <ele>866</ele>
        <time>2018-10-14T08:52:56Z</time>
      </trkpt>
      <trkpt lat="45.63487" lon="4.60406">
        <ele>866</ele>
        <time>2018-10-14T08:52:57Z</time>
      </trkpt>
      <trkpt lat="45.63485" lon="4.60405">
        <ele>866</ele>
        <time>2018-10-14T08:52:58Z</time>
      </trkpt>
      <trkpt lat="45.63484" lon="4.60404">
        <ele>866</ele>
        <time>2018-10-14T08:52:59Z</time>
      </trkpt>
      <trkpt lat="45.63482" lon="4.60404">
        <ele>867</ele>
        <time>2018-10-14T08:53:00Z</time>
      </trkpt>
      <trkpt lat="45.63481" lon="4.60404">
        <ele>867</ele>
        <time>2018-10-14T08:53:01Z</time>
      </trkpt>
      <trkpt lat="45.6348" lon="4.60403">
        <ele>868</ele>
        <time>2018-10-14T08:53:02Z</time>
      </trkpt>
      <trkpt lat="45.63479" lon="4.60402">
        <ele>866</ele>
        <time>2018-10-14T08:53:03Z</time>
      </trkpt>
      <trkpt lat="45.63478" lon="4.60402">
        <ele>867</ele>
        <time>2018-10-14T08:53:04Z</time>
      </trkpt>
      <trkpt lat="45.63476" lon="4.60402">
        <ele>867</ele>
        <time>2018-10-14T08:53:05Z</time>
      </trkpt>
      <trkpt lat="45.63475" lon="4.60403">
        <ele>866</ele>
        <time>2018-10-14T08:53:06Z</time>
      </trkpt>
      <trkpt lat="45.63474" lon="4.60404">
        <ele>866</ele>
        <time>2018-10-14T08:53:07Z</time>
      </trkpt>
      <trkpt lat="45.63472" lon="4.60406">
        <ele>867</ele>
        <time>2018-10-14T08:53:08Z</time>
      </trkpt>
      <trkpt lat="45.63471" lon="4.60406">
        <ele>867</ele>
        <time>2018-10-14T08:53:09Z</time>
      </trkpt>
      <trkpt lat="45.63469" lon="4.60407">
        <ele>867</ele>
        <time>2018-10-14T08:53:10Z</time>
      </trkpt>
      <trkpt lat="45.63468" lon="4.60407">
        <ele>867</ele>
        <time>2018-10-14T08:53:11Z</time>
      </trkpt>
      <trkpt lat="45.63467" lon="4.60407">
        <ele>867</ele>
        <time>2018-10-14T08:53:12Z</time>
      </trkpt>
      <trkpt lat="45.63466" lon="4.60407">
        <ele>868</ele>
        <time>2018-10-14T08:53:13Z</time>
      </trkpt>
      <trkpt lat="45.63464" lon="4.60408">
        <ele>868</ele>
        <time>2018-10-14T08:53:14Z</time>
      </trkpt>
      <trkpt lat="45.63463" lon="4.6041">
        <ele>869</ele>
        <time>2018-10-14T08:53:15Z</time>
      </trkpt>
      <trkpt lat="45.63461" lon="4.60411">
        <ele>869</ele>
        <time>2018-10-14T08:53:16Z</time>
      </trkpt>
      <trkpt lat="45.63459" lon="4.60413">
        <ele>869</ele>
        <time>2018-10-14T08:53:17Z</time>
      </trkpt>
      <trkpt lat="45.63458" lon="4.60413">
        <ele>869</ele>
        <time>2018-10-14T08:53:18Z</time>
      </trkpt>
      <trkpt lat="45.63456" lon="4.60414">
        <ele>869</ele>
        <time>2018-10-14T08:53:19Z</time>
      </trkpt>
      <trkpt lat="45.63454" lon="4.60414">
        <ele>870</ele>
        <time>2018-10-14T08:53:20Z</time>
      </trkpt>
      <trkpt lat="45.63451" lon="4.60416">
        <ele>872</ele>
        <time>2018-10-14T08:53:21Z</time>
      </trkpt>
      <trkpt lat="45.6345" lon="4.60418">
        <ele>873</ele>
        <time>2018-10-14T08:53:22Z</time>
      </trkpt>
      <trkpt lat="45.63448" lon="4.60419">
        <ele>874</ele>
        <time>2018-10-14T08:53:23Z</time>
      </trkpt>
      <trkpt lat="45.63446" lon="4.60421">
        <ele>875</ele>
        <time>2018-10-14T08:53:24Z</time>
      </trkpt>
      <trkpt lat="45.63445" lon="4.60423">
        <ele>875</ele>
        <time>2018-10-14T08:53:25Z</time>
      </trkpt>
      <trkpt lat="45.63443" lon="4.60425">
        <ele>875</ele>
        <time>2018-10-14T08:53:26Z</time>
      </trkpt>
      <trkpt lat="45.63442" lon="4.60426">
        <ele>875</ele>
        <time>2018-10-14T08:53:27Z</time>
      </trkpt>
      <trkpt lat="45.6344" lon="4.60427">
        <ele>875</ele>
        <time>2018-10-14T08:53:28Z</time>
      </trkpt>
      <trkpt lat="45.63439" lon="4.60428">
        <ele>876</ele>
        <time>2018-10-14T08:53:29Z</time>
      </trkpt>
      <trkpt lat="45.63437" lon="4.6043">
        <ele>877</ele>
        <time>2018-10-14T08:53:30Z</time>
      </trkpt>
      <trkpt lat="45.63434" lon="4.60432">
        <ele>877</ele>
        <time>2018-10-14T08:53:31Z</time>
      </trkpt>
      <trkpt lat="45.63432" lon="4.60433">
        <ele>878</ele>
        <time>2018-10-14T08:53:32Z</time>
      </trkpt>
      <trkpt lat="45.6343" lon="4.60435">
        <ele>877</ele>
        <time>2018-10-14T08:53:33Z</time>
      </trkpt>
      <trkpt lat="45.63428" lon="4.60436">
        <ele>878</ele>
        <time>2018-10-14T08:53:34Z</time>
      </trkpt>
      <trkpt lat="45.63426" lon="4.60438">
        <ele>877</ele>
        <time>2018-10-14T08:53:35Z</time>
      </trkpt>
      <trkpt lat="45.63424" lon="4.6044">
        <ele>878</ele>
        <time>2018-10-14T08:53:36Z</time>
      </trkpt>
      <trkpt lat="45.63422" lon="4.60443">
        <ele>878</ele>
        <time>2018-10-14T08:53:37Z</time>
      </trkpt>
      <trkpt lat="45.63421" lon="4.60444">
        <ele>878</ele>
        <time>2018-10-14T08:53:38Z</time>
      </trkpt>
      <trkpt lat="45.6342" lon="4.60446">
        <ele>877</ele>
        <time>2018-10-14T08:53:39Z</time>
      </trkpt>
      <trkpt lat="45.63417" lon="4.60448">
        <ele>878</ele>
        <time>2018-10-14T08:53:40Z</time>
      </trkpt>
      <trkpt lat="45.63416" lon="4.60451">
        <ele>879</ele>
        <time>2018-10-14T08:53:41Z</time>
      </trkpt>
      <trkpt lat="45.63414" lon="4.60453">
        <ele>878</ele>
        <time>2018-10-14T08:53:42Z</time>
      </trkpt>
      <trkpt lat="45.63414" lon="4.60455">
        <ele>879</ele>
        <time>2018-10-14T08:53:43Z</time>
      </trkpt>
      <trkpt lat="45.63414" lon="4.60457">
        <ele>878</ele>
        <time>2018-10-14T08:53:44Z</time>
      </trkpt>
      <trkpt lat="45.63413" lon="4.6046">
        <ele>879</ele>
        <time>2018-10-14T08:53:45Z</time>
      </trkpt>
      <trkpt lat="45.63411" lon="4.60462">
        <ele>878</ele>
        <time>2018-10-14T08:53:46Z</time>
      </trkpt>
      <trkpt lat="45.63409" lon="4.60465">
        <ele>879</ele>
        <time>2018-10-14T08:53:47Z</time>
      </trkpt>
      <trkpt lat="45.63408" lon="4.60467">
        <ele>878</ele>
        <time>2018-10-14T08:53:48Z</time>
      </trkpt>
      <trkpt lat="45.63406" lon="4.60469">
        <ele>879</ele>
        <time>2018-10-14T08:53:49Z</time>
      </trkpt>
      <trkpt lat="45.63405" lon="4.60472">
        <ele>880</ele>
        <time>2018-10-14T08:53:50Z</time>
      </trkpt>
      <trkpt lat="45.63404" lon="4.60474">
        <ele>880</ele>
        <time>2018-10-14T08:53:51Z</time>
      </trkpt>
      <trkpt lat="45.63403" lon="4.60476">
        <ele>880</ele>
        <time>2018-10-14T08:53:52Z</time>
      </trkpt>
      <trkpt lat="45.63402" lon="4.60478">
        <ele>879</ele>
        <time>2018-10-14T08:53:53Z</time>
      </trkpt>
      <trkpt lat="45.63401" lon="4.60479">
        <ele>879</ele>
        <time>2018-10-14T08:53:54Z</time>
      </trkpt>
      <trkpt lat="45.63401" lon="4.60481">
        <ele>878</ele>
        <time>2018-10-14T08:53:55Z</time>
      </trkpt>
      <trkpt lat="45.634" lon="4.60482">
        <ele>879</ele>
        <time>2018-10-14T08:53:56Z</time>
      </trkpt>
      <trkpt lat="45.63398" lon="4.60484">
        <ele>879</ele>
        <time>2018-10-14T08:53:57Z</time>
      </trkpt>
      <trkpt lat="45.63397" lon="4.60487">
        <ele>879</ele>
        <time>2018-10-14T08:53:58Z</time>
      </trkpt>
      <trkpt lat="45.63396" lon="4.6049">
        <ele>879</ele>
        <time>2018-10-14T08:53:59Z</time>
      </trkpt>
      <trkpt lat="45.63395" lon="4.60492">
        <ele>879</ele>
        <time>2018-10-14T08:54:00Z</time>
      </trkpt>
      <trkpt lat="45.63394" lon="4.60495">
        <ele>880</ele>
        <time>2018-10-14T08:54:01Z</time>
      </trkpt>
      <trkpt lat="45.63393" lon="4.60497">
        <ele>880</ele>
        <time>2018-10-14T08:54:02Z</time>
      </trkpt>
      <trkpt lat="45.63393" lon="4.60498">
        <ele>881</ele>
        <time>2018-10-14T08:54:03Z</time>
      </trkpt>
      <trkpt lat="45.63391" lon="4.60499">
        <ele>882</ele>
        <time>2018-10-14T08:54:04Z</time>
      </trkpt>
      <trkpt lat="45.6339" lon="4.605">
        <ele>882</ele>
        <time>2018-10-14T08:54:05Z</time>
      </trkpt>
      <trkpt lat="45.63389" lon="4.605">
        <ele>882</ele>
        <time>2018-10-14T08:54:06Z</time>
      </trkpt>
      <trkpt lat="45.63388" lon="4.60501">
        <ele>882</ele>
        <time>2018-10-14T08:54:07Z</time>
      </trkpt>
      <trkpt lat="45.63386" lon="4.60502">
        <ele>882</ele>
        <time>2018-10-14T08:54:08Z</time>
      </trkpt>
      <trkpt lat="45.63384" lon="4.60504">
        <ele>882</ele>
        <time>2018-10-14T08:54:09Z</time>
      </trkpt>
      <trkpt lat="45.63381" lon="4.60505">
        <ele>882</ele>
        <time>2018-10-14T08:54:10Z</time>
      </trkpt>
      <trkpt lat="45.63379" lon="4.60506">
        <ele>882</ele>
        <time>2018-10-14T08:54:11Z</time>
      </trkpt>
      <trkpt lat="45.63377" lon="4.60506">
        <ele>882</ele>
        <time>2018-10-14T08:54:12Z</time>
      </trkpt>
      <trkpt lat="45.63376" lon="4.60506">
        <ele>883</ele>
        <time>2018-10-14T08:54:13Z</time>
      </trkpt>
      <trkpt lat="45.63374" lon="4.60506">
        <ele>884</ele>
        <time>2018-10-14T08:54:14Z</time>
      </trkpt>
      <trkpt lat="45.63372" lon="4.60506">
        <ele>883</ele>
        <time>2018-10-14T08:54:15Z</time>
      </trkpt>
      <trkpt lat="45.6337" lon="4.60506">
        <ele>883</ele>
        <time>2018-10-14T08:54:16Z</time>
      </trkpt>
      <trkpt lat="45.63368" lon="4.60506">
        <ele>883</ele>
        <time>2018-10-14T08:54:17Z</time>
      </trkpt>
      <trkpt lat="45.63366" lon="4.60506">
        <ele>884</ele>
        <time>2018-10-14T08:54:18Z</time>
      </trkpt>
      <trkpt lat="45.63363" lon="4.60505">
        <ele>885</ele>
        <time>2018-10-14T08:54:19Z</time>
      </trkpt>
      <trkpt lat="45.6336" lon="4.60505">
        <ele>886</ele>
        <time>2018-10-14T08:54:20Z</time>
      </trkpt>
      <trkpt lat="45.63358" lon="4.60504">
        <ele>886</ele>
        <time>2018-10-14T08:54:21Z</time>
      </trkpt>
      <trkpt lat="45.63355" lon="4.60504">
        <ele>887</ele>
        <time>2018-10-14T08:54:22Z</time>
      </trkpt>
      <trkpt lat="45.63353" lon="4.60504">
        <ele>887</ele>
        <time>2018-10-14T08:54:23Z</time>
      </trkpt>
      <trkpt lat="45.6335" lon="4.60503">
        <ele>887</ele>
        <time>2018-10-14T08:54:24Z</time>
      </trkpt>
      <trkpt lat="45.63347" lon="4.60503">
        <ele>888</ele>
        <time>2018-10-14T08:54:25Z</time>
      </trkpt>
      <trkpt lat="45.63345" lon="4.60502">
        <ele>888</ele>
        <time>2018-10-14T08:54:26Z</time>
      </trkpt>
      <trkpt lat="45.63343" lon="4.605">
        <ele>889</ele>
        <time>2018-10-14T08:54:27Z</time>
      </trkpt>
      <trkpt lat="45.6334" lon="4.60498">
        <ele>889</ele>
        <time>2018-10-14T08:54:28Z</time>
      </trkpt>
      <trkpt lat="45.63336" lon="4.60496">
        <ele>889</ele>
        <time>2018-10-14T08:54:29Z</time>
      </trkpt>
      <trkpt lat="45.63333" lon="4.60494">
        <ele>888</ele>
        <time>2018-10-14T08:54:30Z</time>
      </trkpt>
      <trkpt lat="45.63328" lon="4.6049">
        <ele>888</ele>
        <time>2018-10-14T08:54:31Z</time>
      </trkpt>
      <trkpt lat="45.63324" lon="4.60487">
        <ele>889</ele>
        <time>2018-10-14T08:54:32Z</time>
      </trkpt>
      <trkpt lat="45.63322" lon="4.60484">
        <ele>888</ele>
        <time>2018-10-14T08:54:33Z</time>
      </trkpt>
      <trkpt lat="45.63319" lon="4.60481">
        <ele>888</ele>
        <time>2018-10-14T08:54:34Z</time>
      </trkpt>
      <trkpt lat="45.63316" lon="4.60478">
        <ele>888</ele>
        <time>2018-10-14T08:54:35Z</time>
      </trkpt>
      <trkpt lat="45.63314" lon="4.60474">
        <ele>887</ele>
        <time>2018-10-14T08:54:36Z</time>
      </trkpt>
      <trkpt lat="45.63311" lon="4.60469">
        <ele>887</ele>
        <time>2018-10-14T08:54:37Z</time>
      </trkpt>
      <trkpt lat="45.63308" lon="4.60464">
        <ele>886</ele>
        <time>2018-10-14T08:54:38Z</time>
      </trkpt>
      <trkpt lat="45.63303" lon="4.6046">
        <ele>886</ele>
        <time>2018-10-14T08:54:39Z</time>
      </trkpt>
      <trkpt lat="45.63297" lon="4.60459">
        <ele>886</ele>
        <time>2018-10-14T08:54:40Z</time>
      </trkpt>
      <trkpt lat="45.63292" lon="4.60455">
        <ele>885</ele>
        <time>2018-10-14T08:54:41Z</time>
      </trkpt>
      <trkpt lat="45.63287" lon="4.60451">
        <ele>885</ele>
        <time>2018-10-14T08:54:42Z</time>
      </trkpt>
      <trkpt lat="45.63279" lon="4.60447">
        <ele>883</ele>
        <time>2018-10-14T08:54:43Z</time>
      </trkpt>
      <trkpt lat="45.63272" lon="4.60445">
        <ele>882</ele>
        <time>2018-10-14T08:54:44Z</time>
      </trkpt>
      <trkpt lat="45.63266" lon="4.6044">
        <ele>881</ele>
        <time>2018-10-14T08:54:45Z</time>
      </trkpt>
      <trkpt lat="45.6326" lon="4.60436">
        <ele>884</ele>
        <time>2018-10-14T08:54:46Z</time>
      </trkpt>
      <trkpt lat="45.63255" lon="4.60431">
        <ele>883</ele>
        <time>2018-10-14T08:54:47Z</time>
      </trkpt>
      <trkpt lat="45.6325" lon="4.60431">
        <ele>883</ele>
        <time>2018-10-14T08:54:48Z</time>
      </trkpt>
      <trkpt lat="45.63245" lon="4.60429">
        <ele>883</ele>
        <time>2018-10-14T08:54:49Z</time>
      </trkpt>
      <trkpt lat="45.63241" lon="4.60428">
        <ele>883</ele>
        <time>2018-10-14T08:54:50Z</time>
      </trkpt>
      <trkpt lat="45.63237" lon="4.60427">
        <ele>883</ele>
        <time>2018-10-14T08:54:51Z</time>
      </trkpt>
      <trkpt lat="45.63235" lon="4.60426">
        <ele>884</ele>
        <time>2018-10-14T08:54:52Z</time>
      </trkpt>
      <trkpt lat="45.63232" lon="4.60425">
        <ele>886</ele>
        <time>2018-10-14T08:54:53Z</time>
      </trkpt>
      <trkpt lat="45.6323" lon="4.60423">
        <ele>886</ele>
        <time>2018-10-14T08:54:54Z</time>
      </trkpt>
      <trkpt lat="45.63229" lon="4.60422">
        <ele>886</ele>
        <time>2018-10-14T08:54:55Z</time>
      </trkpt>
      <trkpt lat="45.63226" lon="4.6042">
        <ele>886</ele>
        <time>2018-10-14T08:54:56Z</time>
      </trkpt>
      <trkpt lat="45.63223" lon="4.60419">
        <ele>886</ele>
        <time>2018-10-14T08:54:57Z</time>
      </trkpt>
      <trkpt lat="45.63222" lon="4.60417">
        <ele>887</ele>
        <time>2018-10-14T08:54:58Z</time>
      </trkpt>
      <trkpt lat="45.63219" lon="4.60415">
        <ele>887</ele>
        <time>2018-10-14T08:54:59Z</time>
      </trkpt>
      <trkpt lat="45.63216" lon="4.60413">
        <ele>886</ele>
        <time>2018-10-14T08:55:00Z</time>
      </trkpt>
      <trkpt lat="45.63214" lon="4.60411">
        <ele>886</ele>
        <time>2018-10-14T08:55:01Z</time>
      </trkpt>
      <trkpt lat="45.63212" lon="4.60408">
        <ele>885</ele>
        <time>2018-10-14T08:55:02Z</time>
      </trkpt>
      <trkpt lat="45.6321" lon="4.60405">
        <ele>885</ele>
        <time>2018-10-14T08:55:03Z</time>
      </trkpt>
      <trkpt lat="45.63207" lon="4.60402">
        <ele>887</ele>
        <time>2018-10-14T08:55:04Z</time>
      </trkpt>
      <trkpt lat="45.63204" lon="4.60399">
        <ele>887</ele>
        <time>2018-10-14T08:55:05Z</time>
      </trkpt>
      <trkpt lat="45.63202" lon="4.60395">
        <ele>887</ele>
        <time>2018-10-14T08:55:06Z</time>
      </trkpt>
      <trkpt lat="45.632" lon="4.60392">
        <ele>886</ele>
        <time>2018-10-14T08:55:07Z</time>
      </trkpt>
      <trkpt lat="45.63197" lon="4.60388">
        <ele>887</ele>
        <time>2018-10-14T08:55:08Z</time>
      </trkpt>
      <trkpt lat="45.63194" lon="4.60385">
        <ele>886</ele>
        <time>2018-10-14T08:55:09Z</time>
      </trkpt>
      <trkpt lat="45.63191" lon="4.60381">
        <ele>886</ele>
        <time>2018-10-14T08:55:10Z</time>
      </trkpt>
      <trkpt lat="45.63188" lon="4.60378">
        <ele>886</ele>
        <time>2018-10-14T08:55:11Z</time>
      </trkpt>
      <trkpt lat="45.63185" lon="4.60373">
        <ele>885</ele>
        <time>2018-10-14T08:55:12Z</time>
      </trkpt>
      <trkpt lat="45.63182" lon="4.60369">
        <ele>885</ele>
        <time>2018-10-14T08:55:13Z</time>
      </trkpt>
      <trkpt lat="45.6318" lon="4.60362">
        <ele>884</ele>
        <time>2018-10-14T08:55:14Z</time>
      </trkpt>
      <trkpt lat="45.63179" lon="4.60357">
        <ele>883</ele>
        <time>2018-10-14T08:55:15Z</time>
      </trkpt>
      <trkpt lat="45.63178" lon="4.60354">
        <ele>883</ele>
        <time>2018-10-14T08:55:16Z</time>
      </trkpt>
      <trkpt lat="45.63175" lon="4.6035">
        <ele>885</ele>
        <time>2018-10-14T08:55:17Z</time>
      </trkpt>
      <trkpt lat="45.63173" lon="4.60346">
        <ele>885</ele>
        <time>2018-10-14T08:55:18Z</time>
      </trkpt>
      <trkpt lat="45.6317" lon="4.60342">
        <ele>884</ele>
        <time>2018-10-14T08:55:19Z</time>
      </trkpt>
      <trkpt lat="45.63168" lon="4.60339">
        <ele>885</ele>
        <time>2018-10-14T08:55:20Z</time>
      </trkpt>
      <trkpt lat="45.63166" lon="4.60336">
        <ele>885</ele>
        <time>2018-10-14T08:55:21Z</time>
      </trkpt>
      <trkpt lat="45.63164" lon="4.60333">
        <ele>885</ele>
        <time>2018-10-14T08:55:22Z</time>
      </trkpt>
      <trkpt lat="45.63162" lon="4.60331">
        <ele>885</ele>
        <time>2018-10-14T08:55:23Z</time>
      </trkpt>
      <trkpt lat="45.6316" lon="4.60328">
        <ele>886</ele>
        <time>2018-10-14T08:55:24Z</time>
      </trkpt>
      <trkpt lat="45.63158" lon="4.60327">
        <ele>887</ele>
        <time>2018-10-14T08:55:25Z</time>
      </trkpt>
      <trkpt lat="45.63155" lon="4.60325">
        <ele>887</ele>
        <time>2018-10-14T08:55:26Z</time>
      </trkpt>
      <trkpt lat="45.63153" lon="4.60324">
        <ele>886</ele>
        <time>2018-10-14T08:55:27Z</time>
      </trkpt>
      <trkpt lat="45.63151" lon="4.60322">
        <ele>885</ele>
        <time>2018-10-14T08:55:28Z</time>
      </trkpt>
      <trkpt lat="45.63149" lon="4.60319">
        <ele>885</ele>
        <time>2018-10-14T08:55:29Z</time>
      </trkpt>
      <trkpt lat="45.63146" lon="4.60317">
        <ele>884</ele>
        <time>2018-10-14T08:55:30Z</time>
      </trkpt>
      <trkpt lat="45.63144" lon="4.60315">
        <ele>885</ele>
        <time>2018-10-14T08:55:31Z</time>
      </trkpt>
      <trkpt lat="45.63142" lon="4.60312">
        <ele>885</ele>
        <time>2018-10-14T08:55:32Z</time>
      </trkpt>
      <trkpt lat="45.6314" lon="4.60309">
        <ele>885</ele>
        <time>2018-10-14T08:55:33Z</time>
      </trkpt>
      <trkpt lat="45.63138" lon="4.60305">
        <ele>884</ele>
        <time>2018-10-14T08:55:34Z</time>
      </trkpt>
      <trkpt lat="45.63136" lon="4.60302">
        <ele>884</ele>
        <time>2018-10-14T08:55:35Z</time>
      </trkpt>
      <trkpt lat="45.63135" lon="4.60299">
        <ele>885</ele>
        <time>2018-10-14T08:55:36Z</time>
      </trkpt>
      <trkpt lat="45.63134" lon="4.60296">
        <ele>886</ele>
        <time>2018-10-14T08:55:37Z</time>
      </trkpt>
      <trkpt lat="45.63133" lon="4.60293">
        <ele>887</ele>
        <time>2018-10-14T08:55:38Z</time>
      </trkpt>
      <trkpt lat="45.63131" lon="4.6029">
        <ele>887</ele>
        <time>2018-10-14T08:55:39Z</time>
      </trkpt>
      <trkpt lat="45.63131" lon="4.60287">
        <ele>888</ele>
        <time>2018-10-14T08:55:40Z</time>
      </trkpt>
      <trkpt lat="45.6313" lon="4.60283">
        <ele>888</ele>
        <time>2018-10-14T08:55:41Z</time>
      </trkpt>
      <trkpt lat="45.63129" lon="4.6028">
        <ele>888</ele>
        <time>2018-10-14T08:55:42Z</time>
      </trkpt>
      <trkpt lat="45.63127" lon="4.60278">
        <ele>888</ele>
        <time>2018-10-14T08:55:43Z</time>
      </trkpt>
      <trkpt lat="45.63125" lon="4.60276">
        <ele>889</ele>
        <time>2018-10-14T08:55:44Z</time>
      </trkpt>
      <trkpt lat="45.63123" lon="4.60273">
        <ele>889</ele>
        <time>2018-10-14T08:55:45Z</time>
      </trkpt>
      <trkpt lat="45.63121" lon="4.60271">
        <ele>889</ele>
        <time>2018-10-14T08:55:46Z</time>
      </trkpt>
      <trkpt lat="45.6312" lon="4.60269">
        <ele>889</ele>
        <time>2018-10-14T08:55:47Z</time>
      </trkpt>
      <trkpt lat="45.63118" lon="4.60266">
        <ele>889</ele>
        <time>2018-10-14T08:55:48Z</time>
      </trkpt>
      <trkpt lat="45.63117" lon="4.60264">
        <ele>889</ele>
        <time>2018-10-14T08:55:49Z</time>
      </trkpt>
      <trkpt lat="45.63113" lon="4.60262">
        <ele>889</ele>
        <time>2018-10-14T08:55:50Z</time>
      </trkpt>
      <trkpt lat="45.63112" lon="4.60259">
        <ele>889</ele>
        <time>2018-10-14T08:55:51Z</time>
      </trkpt>
      <trkpt lat="45.6311" lon="4.60256">
        <ele>889</ele>
        <time>2018-10-14T08:55:52Z</time>
      </trkpt>
      <trkpt lat="45.63109" lon="4.60253">
        <ele>890</ele>
        <time>2018-10-14T08:55:53Z</time>
      </trkpt>
      <trkpt lat="45.63108" lon="4.60249">
        <ele>890</ele>
        <time>2018-10-14T08:55:54Z</time>
      </trkpt>
      <trkpt lat="45.63107" lon="4.60246">
        <ele>890</ele>
        <time>2018-10-14T08:55:55Z</time>
      </trkpt>
      <trkpt lat="45.63105" lon="4.60241">
        <ele>890</ele>
        <time>2018-10-14T08:55:56Z</time>
      </trkpt>
      <trkpt lat="45.63103" lon="4.60237">
        <ele>890</ele>
        <time>2018-10-14T08:55:57Z</time>
      </trkpt>
      <trkpt lat="45.63102" lon="4.60231">
        <ele>890</ele>
        <time>2018-10-14T08:55:58Z</time>
      </trkpt>
      <trkpt lat="45.631" lon="4.60226">
        <ele>889</ele>
        <time>2018-10-14T08:55:59Z</time>
      </trkpt>
      <trkpt lat="45.63097" lon="4.6022">
        <ele>889</ele>
        <time>2018-10-14T08:56:00Z</time>
      </trkpt>
      <trkpt lat="45.63093" lon="4.60214">
        <ele>889</ele>
        <time>2018-10-14T08:56:01Z</time>
      </trkpt>
      <trkpt lat="45.63091" lon="4.60208">
        <ele>889</ele>
        <time>2018-10-14T08:56:02Z</time>
      </trkpt>
      <trkpt lat="45.63087" lon="4.60201">
        <ele>889</ele>
        <time>2018-10-14T08:56:03Z</time>
      </trkpt>
      <trkpt lat="45.63083" lon="4.60193">
        <ele>888</ele>
        <time>2018-10-14T08:56:04Z</time>
      </trkpt>
      <trkpt lat="45.63079" lon="4.60185">
        <ele>888</ele>
        <time>2018-10-14T08:56:05Z</time>
      </trkpt>
      <trkpt lat="45.63076" lon="4.60178">
        <ele>887</ele>
        <time>2018-10-14T08:56:06Z</time>
      </trkpt>
      <trkpt lat="45.63071" lon="4.60169">
        <ele>887</ele>
        <time>2018-10-14T08:56:07Z</time>
      </trkpt>
      <trkpt lat="45.63067" lon="4.60162">
        <ele>887</ele>
        <time>2018-10-14T08:56:08Z</time>
      </trkpt>
      <trkpt lat="45.63064" lon="4.60156">
        <ele>887</ele>
        <time>2018-10-14T08:56:09Z</time>
      </trkpt>
      <trkpt lat="45.63059" lon="4.60151">
        <ele>886</ele>
        <time>2018-10-14T08:56:10Z</time>
      </trkpt>
      <trkpt lat="45.63055" lon="4.60146">
        <ele>887</ele>
        <time>2018-10-14T08:56:11Z</time>
      </trkpt>
      <trkpt lat="45.63051" lon="4.60145">
        <ele>886</ele>
        <time>2018-10-14T08:56:12Z</time>
      </trkpt>
      <trkpt lat="45.63046" lon="4.60144">
        <ele>885</ele>
        <time>2018-10-14T08:56:13Z</time>
      </trkpt>
      <trkpt lat="45.63041" lon="4.60142">
        <ele>884</ele>
        <time>2018-10-14T08:56:14Z</time>
      </trkpt>
      <trkpt lat="45.63036" lon="4.60141">
        <ele>887</ele>
        <time>2018-10-14T08:56:15Z</time>
      </trkpt>
      <trkpt lat="45.63033" lon="4.60143">
        <ele>886</ele>
        <time>2018-10-14T08:56:16Z</time>
      </trkpt>
      <trkpt lat="45.6303" lon="4.60146">
        <ele>886</ele>
        <time>2018-10-14T08:56:17Z</time>
      </trkpt>
      <trkpt lat="45.63027" lon="4.60149">
        <ele>885</ele>
        <time>2018-10-14T08:56:18Z</time>
      </trkpt>
      <trkpt lat="45.63023" lon="4.60152">
        <ele>885</ele>
        <time>2018-10-14T08:56:19Z</time>
      </trkpt>
      <trkpt lat="45.63018" lon="4.60153">
        <ele>884</ele>
        <time>2018-10-14T08:56:20Z</time>
      </trkpt>
      <trkpt lat="45.63013" lon="4.60154">
        <ele>883</ele>
        <time>2018-10-14T08:56:21Z</time>
      </trkpt>
      <trkpt lat="45.63008" lon="4.60155">
        <ele>883</ele>
        <time>2018-10-14T08:56:22Z</time>
      </trkpt>
      <trkpt lat="45.63003" lon="4.60156">
        <ele>883</ele>
        <time>2018-10-14T08:56:23Z</time>
      </trkpt>
      <trkpt lat="45.62999" lon="4.60158">
        <ele>881</ele>
        <time>2018-10-14T08:56:24Z</time>
      </trkpt>
      <trkpt lat="45.62994" lon="4.60163">
        <ele>881</ele>
        <time>2018-10-14T08:56:25Z</time>
      </trkpt>
      <trkpt lat="45.62989" lon="4.60169">
        <ele>881</ele>
        <time>2018-10-14T08:56:26Z</time>
      </trkpt>
      <trkpt lat="45.62985" lon="4.60175">
        <ele>881</ele>
        <time>2018-10-14T08:56:27Z</time>
      </trkpt>
      <trkpt lat="45.62982" lon="4.6018">
        <ele>881</ele>
        <time>2018-10-14T08:56:28Z</time>
      </trkpt>
      <trkpt lat="45.62978" lon="4.60183">
        <ele>882</ele>
        <time>2018-10-14T08:56:29Z</time>
      </trkpt>
      <trkpt lat="45.62975" lon="4.60187">
        <ele>882</ele>
        <time>2018-10-14T08:56:30Z</time>
      </trkpt>
      <trkpt lat="45.62969" lon="4.60198">
        <ele>881</ele>
        <time>2018-10-14T08:56:31Z</time>
      </trkpt>
      <trkpt lat="45.62965" lon="4.60205">
        <ele>881</ele>
        <time>2018-10-14T08:56:32Z</time>
      </trkpt>
      <trkpt lat="45.62961" lon="4.60211">
        <ele>881</ele>
        <time>2018-10-14T08:56:33Z</time>
      </trkpt>
      <trkpt lat="45.62958" lon="4.60219">
        <ele>882</ele>
        <time>2018-10-14T08:56:34Z</time>
      </trkpt>
      <trkpt lat="45.62954" lon="4.60229">
        <ele>884</ele>
        <time>2018-10-14T08:56:35Z</time>
      </trkpt>
      <trkpt lat="45.6295" lon="4.60234">
        <ele>883</ele>
        <time>2018-10-14T08:56:36Z</time>
      </trkpt>
      <trkpt lat="45.62946" lon="4.60241">
        <ele>884</ele>
        <time>2018-10-14T08:56:37Z</time>
      </trkpt>
      <trkpt lat="45.62943" lon="4.60246">
        <ele>883</ele>
        <time>2018-10-14T08:56:38Z</time>
      </trkpt>
      <trkpt lat="45.6294" lon="4.60251">
        <ele>882</ele>
        <time>2018-10-14T08:56:39Z</time>
      </trkpt>
      <trkpt lat="45.62938" lon="4.60256">
        <ele>881</ele>
        <time>2018-10-14T08:56:40Z</time>
      </trkpt>
      <trkpt lat="45.62935" lon="4.60262">
        <ele>882</ele>
        <time>2018-10-14T08:56:41Z</time>
      </trkpt>
      <trkpt lat="45.62931" lon="4.60268">
        <ele>882</ele>
        <time>2018-10-14T08:56:42Z</time>
      </trkpt>
      <trkpt lat="45.6293" lon="4.60274">
        <ele>881</ele>
        <time>2018-10-14T08:56:43Z</time>
      </trkpt>
      <trkpt lat="45.62927" lon="4.60279">
        <ele>881</ele>
        <time>2018-10-14T08:56:44Z</time>
      </trkpt>
      <trkpt lat="45.62924" lon="4.60285">
        <ele>879</ele>
        <time>2018-10-14T08:56:45Z</time>
      </trkpt>
      <trkpt lat="45.62922" lon="4.60291">
        <ele>878</ele>
        <time>2018-10-14T08:56:46Z</time>
      </trkpt>
      <trkpt lat="45.62919" lon="4.60296">
        <ele>877</ele>
        <time>2018-10-14T08:56:47Z</time>
      </trkpt>
      <trkpt lat="45.62917" lon="4.60302">
        <ele>877</ele>
        <time>2018-10-14T08:56:48Z</time>
      </trkpt>
      <trkpt lat="45.62914" lon="4.60308">
        <ele>875</ele>
        <time>2018-10-14T08:56:49Z</time>
      </trkpt>
      <trkpt lat="45.62911" lon="4.60315">
        <ele>875</ele>
        <time>2018-10-14T08:56:50Z</time>
      </trkpt>
      <trkpt lat="45.62907" lon="4.60322">
        <ele>872</ele>
        <time>2018-10-14T08:56:51Z</time>
      </trkpt>
      <trkpt lat="45.62906" lon="4.6033">
        <ele>872</ele>
        <time>2018-10-14T08:56:52Z</time>
      </trkpt>
      <trkpt lat="45.62903" lon="4.60336">
        <ele>872</ele>
        <time>2018-10-14T08:56:53Z</time>
      </trkpt>
      <trkpt lat="45.62899" lon="4.60343">
        <ele>872</ele>
        <time>2018-10-14T08:56:54Z</time>
      </trkpt>
      <trkpt lat="45.62897" lon="4.60351">
        <ele>872</ele>
        <time>2018-10-14T08:56:55Z</time>
      </trkpt>
      <trkpt lat="45.62895" lon="4.6036">
        <ele>871</ele>
        <time>2018-10-14T08:56:56Z</time>
      </trkpt>
      <trkpt lat="45.62893" lon="4.6037">
        <ele>870</ele>
        <time>2018-10-14T08:56:57Z</time>
      </trkpt>
      <trkpt lat="45.62891" lon="4.6038">
        <ele>870</ele>
        <time>2018-10-14T08:56:58Z</time>
      </trkpt>
      <trkpt lat="45.6289" lon="4.60392">
        <ele>869</ele>
        <time>2018-10-14T08:56:59Z</time>
      </trkpt>
      <trkpt lat="45.62885" lon="4.604">
        <ele>869</ele>
        <time>2018-10-14T08:57:00Z</time>
      </trkpt>
      <trkpt lat="45.6288" lon="4.60411">
        <ele>869</ele>
        <time>2018-10-14T08:57:01Z</time>
      </trkpt>
      <trkpt lat="45.62877" lon="4.60422">
        <ele>868</ele>
        <time>2018-10-14T08:57:02Z</time>
      </trkpt>
      <trkpt lat="45.62873" lon="4.60433">
        <ele>867</ele>
        <time>2018-10-14T08:57:03Z</time>
      </trkpt>
      <trkpt lat="45.62871" lon="4.60443">
        <ele>866</ele>
        <time>2018-10-14T08:57:04Z</time>
      </trkpt>
      <trkpt lat="45.62867" lon="4.60451">
        <ele>866</ele>
        <time>2018-10-14T08:57:05Z</time>
      </trkpt>
      <trkpt lat="45.62865" lon="4.60462">
        <ele>867</ele>
        <time>2018-10-14T08:57:06Z</time>
      </trkpt>
      <trkpt lat="45.62862" lon="4.60473">
        <ele>866</ele>
        <time>2018-10-14T08:57:07Z</time>
      </trkpt>
      <trkpt lat="45.62858" lon="4.60481">
        <ele>865</ele>
        <time>2018-10-14T08:57:08Z</time>
      </trkpt>
      <trkpt lat="45.62853" lon="4.60489">
        <ele>864</ele>
        <time>2018-10-14T08:57:09Z</time>
      </trkpt>
      <trkpt lat="45.62849" lon="4.60498">
        <ele>862</ele>
        <time>2018-10-14T08:57:10Z</time>
      </trkpt>
      <trkpt lat="45.62843" lon="4.60507">
        <ele>860</ele>
        <time>2018-10-14T08:57:11Z</time>
      </trkpt>
      <trkpt lat="45.62836" lon="4.60512">
        <ele>859</ele>
        <time>2018-10-14T08:57:12Z</time>
      </trkpt>
      <trkpt lat="45.62831" lon="4.60516">
        <ele>859</ele>
        <time>2018-10-14T08:57:13Z</time>
      </trkpt>
      <trkpt lat="45.62825" lon="4.6052">
        <ele>859</ele>
        <time>2018-10-14T08:57:14Z</time>
      </trkpt>
      <trkpt lat="45.62819" lon="4.60524">
        <ele>858</ele>
        <time>2018-10-14T08:57:15Z</time>
      </trkpt>
      <trkpt lat="45.62812" lon="4.60526">
        <ele>857</ele>
        <time>2018-10-14T08:57:16Z</time>
      </trkpt>
      <trkpt lat="45.62808" lon="4.60528">
        <ele>856</ele>
        <time>2018-10-14T08:57:17Z</time>
      </trkpt>
      <trkpt lat="45.62801" lon="4.6053">
        <ele>857</ele>
        <time>2018-10-14T08:57:18Z</time>
      </trkpt>
      <trkpt lat="45.62798" lon="4.60531">
        <ele>856</ele>
        <time>2018-10-14T08:57:19Z</time>
      </trkpt>
      <trkpt lat="45.62792" lon="4.60532">
        <ele>855</ele>
        <time>2018-10-14T08:57:20Z</time>
      </trkpt>
      <trkpt lat="45.62792" lon="4.60536">
        <ele>856</ele>
        <time>2018-10-14T08:57:21Z</time>
      </trkpt>
      <trkpt lat="45.62791" lon="4.60536">
        <ele>853</ele>
        <time>2018-10-14T08:57:22Z</time>
      </trkpt>
      <trkpt lat="45.6279" lon="4.60537">
        <ele>865</ele>
        <time>2018-10-14T08:57:23Z</time>
      </trkpt>
      <trkpt lat="45.62788" lon="4.60539">
        <ele>862</ele>
        <time>2018-10-14T08:57:24Z</time>
      </trkpt>
      <trkpt lat="45.62787" lon="4.60537">
        <ele>859</ele>
        <time>2018-10-14T08:57:25Z</time>
      </trkpt>
      <trkpt lat="45.62783" lon="4.60539">
        <ele>857</ele>
        <time>2018-10-14T08:57:26Z</time>
      </trkpt>
      <trkpt lat="45.6278" lon="4.60539">
        <ele>855</ele>
        <time>2018-10-14T08:57:27Z</time>
      </trkpt>
      <trkpt lat="45.6278" lon="4.60538">
        <ele>852</ele>
        <time>2018-10-14T08:57:28Z</time>
      </trkpt>
      <trkpt lat="45.62778" lon="4.60538">
        <ele>865</ele>
        <time>2018-10-14T08:57:29Z</time>
      </trkpt>
      <trkpt lat="45.62776" lon="4.60539">
        <ele>861</ele>
        <time>2018-10-14T08:57:30Z</time>
      </trkpt>
      <trkpt lat="45.62774" lon="4.6054">
        <ele>855</ele>
        <time>2018-10-14T08:57:32Z</time>
      </trkpt>
      <trkpt lat="45.62772" lon="4.60542">
        <ele>853</ele>
        <time>2018-10-14T08:57:33Z</time>
      </trkpt>
      <trkpt lat="45.6277" lon="4.60546">
        <ele>850</ele>
        <time>2018-10-14T08:57:34Z</time>
      </trkpt>
      <trkpt lat="45.62769" lon="4.60549">
        <ele>849</ele>
        <time>2018-10-14T08:57:35Z</time>
      </trkpt>
      <trkpt lat="45.62767" lon="4.60552">
        <ele>848</ele>
        <time>2018-10-14T08:57:36Z</time>
      </trkpt>
      <trkpt lat="45.62764" lon="4.60554">
        <ele>847</ele>
        <time>2018-10-14T08:57:37Z</time>
      </trkpt>
      <trkpt lat="45.62762" lon="4.60556">
        <ele>847</ele>
        <time>2018-10-14T08:57:38Z</time>
      </trkpt>
      <trkpt lat="45.62759" lon="4.60559">
        <ele>847</ele>
        <time>2018-10-14T08:57:39Z</time>
      </trkpt>
      <trkpt lat="45.62756" lon="4.60563">
        <ele>846</ele>
        <time>2018-10-14T08:57:40Z</time>
      </trkpt>
      <trkpt lat="45.62754" lon="4.60567">
        <ele>846</ele>
        <time>2018-10-14T08:57:41Z</time>
      </trkpt>
      <trkpt lat="45.62752" lon="4.60571">
        <ele>847</ele>
        <time>2018-10-14T08:57:42Z</time>
      </trkpt>
      <trkpt lat="45.62751" lon="4.60574">
        <ele>847</ele>
        <time>2018-10-14T08:57:43Z</time>
      </trkpt>
      <trkpt lat="45.6275" lon="4.60575">
        <ele>847</ele>
        <time>2018-10-14T08:57:44Z</time>
      </trkpt>
      <trkpt lat="45.62748" lon="4.60577">
        <ele>845</ele>
        <time>2018-10-14T08:57:55Z</time>
      </trkpt>
      <trkpt lat="45.62747" lon="4.60578">
        <ele>845</ele>
        <time>2018-10-14T08:57:56Z</time>
      </trkpt>
      <trkpt lat="45.62746" lon="4.6058">
        <ele>845</ele>
        <time>2018-10-14T08:57:57Z</time>
      </trkpt>
      <trkpt lat="45.62745" lon="4.60581">
        <ele>845</ele>
        <time>2018-10-14T08:57:58Z</time>
      </trkpt>
      <trkpt lat="45.62743" lon="4.60583">
        <ele>845</ele>
        <time>2018-10-14T08:57:59Z</time>
      </trkpt>
      <trkpt lat="45.62742" lon="4.60586">
        <ele>846</ele>
        <time>2018-10-14T08:58:01Z</time>
      </trkpt>
      <trkpt lat="45.62741" lon="4.60588">
        <ele>847</ele>
        <time>2018-10-14T08:58:02Z</time>
      </trkpt>
      <trkpt lat="45.6274" lon="4.6059">
        <ele>847</ele>
        <time>2018-10-14T08:58:04Z</time>
      </trkpt>
      <trkpt lat="45.6274" lon="4.60591">
        <ele>847</ele>
        <time>2018-10-14T08:58:05Z</time>
      </trkpt>
      <trkpt lat="45.62743" lon="4.60589">
        <ele>851</ele>
        <time>2018-10-14T08:58:12Z</time>
      </trkpt>
      <trkpt lat="45.62743" lon="4.60589">
        <ele>846</ele>
        <time>2018-10-14T08:58:20Z</time>
      </trkpt>
      <trkpt lat="45.62742" lon="4.60587">
        <ele>846</ele>
        <time>2018-10-14T08:58:21Z</time>
      </trkpt>
      <trkpt lat="45.62742" lon="4.60586">
        <ele>845</ele>
        <time>2018-10-14T08:58:22Z</time>
      </trkpt>
      <trkpt lat="45.6274" lon="4.60587">
        <ele>845</ele>
        <time>2018-10-14T08:58:31Z</time>
      </trkpt>
      <trkpt lat="45.62739" lon="4.60588">
        <ele>844</ele>
        <time>2018-10-14T08:58:32Z</time>
      </trkpt>
      <trkpt lat="45.62738" lon="4.60589">
        <ele>844</ele>
        <time>2018-10-14T08:58:33Z</time>
      </trkpt>
      <trkpt lat="45.62736" lon="4.60591">
        <ele>843</ele>
        <time>2018-10-14T08:58:34Z</time>
      </trkpt>
      <trkpt lat="45.62735" lon="4.60593">
        <ele>843</ele>
        <time>2018-10-14T08:58:35Z</time>
      </trkpt>
      <trkpt lat="45.62733" lon="4.60594">
        <ele>842</ele>
        <time>2018-10-14T08:58:36Z</time>
      </trkpt>
      <trkpt lat="45.62732" lon="4.60597">
        <ele>842</ele>
        <time>2018-10-14T08:58:37Z</time>
      </trkpt>
      <trkpt lat="45.62729" lon="4.606">
        <ele>842</ele>
        <time>2018-10-14T08:58:39Z</time>
      </trkpt>
      <trkpt lat="45.62728" lon="4.60607">
        <ele>842</ele>
        <time>2018-10-14T08:58:41Z</time>
      </trkpt>
      <trkpt lat="45.62729" lon="4.60612">
        <ele>843</ele>
        <time>2018-10-14T08:58:42Z</time>
      </trkpt>
      <trkpt lat="45.62728" lon="4.60617">
        <ele>843</ele>
        <time>2018-10-14T08:58:43Z</time>
      </trkpt>
      <trkpt lat="45.6271" lon="4.60621">
        <ele>838</ele>
        <time>2018-10-14T08:58:44Z</time>
      </trkpt>
      <trkpt lat="45.62709" lon="4.60624">
        <ele>839</ele>
        <time>2018-10-14T08:58:45Z</time>
      </trkpt>
      <trkpt lat="45.62708" lon="4.60627">
        <ele>838</ele>
        <time>2018-10-14T08:58:46Z</time>
      </trkpt>
      <trkpt lat="45.62705" lon="4.60631">
        <ele>838</ele>
        <time>2018-10-14T08:58:47Z</time>
      </trkpt>
      <trkpt lat="45.62703" lon="4.60637">
        <ele>837</ele>
        <time>2018-10-14T08:58:48Z</time>
      </trkpt>
      <trkpt lat="45.62704" lon="4.60648">
        <ele>837</ele>
        <time>2018-10-14T08:58:49Z</time>
      </trkpt>
      <trkpt lat="45.62702" lon="4.60653">
        <ele>837</ele>
        <time>2018-10-14T08:58:50Z</time>
      </trkpt>
      <trkpt lat="45.62702" lon="4.60657">
        <ele>838</ele>
        <time>2018-10-14T08:58:51Z</time>
      </trkpt>
      <trkpt lat="45.62701" lon="4.60662">
        <ele>840</ele>
        <time>2018-10-14T08:58:52Z</time>
      </trkpt>
      <trkpt lat="45.627" lon="4.60666">
        <ele>844</ele>
        <time>2018-10-14T08:58:53Z</time>
      </trkpt>
      <trkpt lat="45.62698" lon="4.60668">
        <ele>843</ele>
        <time>2018-10-14T08:58:54Z</time>
      </trkpt>
      <trkpt lat="45.62697" lon="4.60672">
        <ele>843</ele>
        <time>2018-10-14T08:58:55Z</time>
      </trkpt>
      <trkpt lat="45.62695" lon="4.60676">
        <ele>841</ele>
        <time>2018-10-14T08:58:56Z</time>
      </trkpt>
      <trkpt lat="45.62698" lon="4.60684">
        <ele>841</ele>
        <time>2018-10-14T08:58:57Z</time>
      </trkpt>
      <trkpt lat="45.62695" lon="4.60688">
        <ele>841</ele>
        <time>2018-10-14T08:58:58Z</time>
      </trkpt>
      <trkpt lat="45.62696" lon="4.60697">
        <ele>841</ele>
        <time>2018-10-14T08:58:59Z</time>
      </trkpt>
      <trkpt lat="45.62696" lon="4.60706">
        <ele>842</ele>
        <time>2018-10-14T08:59:00Z</time>
      </trkpt>
      <trkpt lat="45.62696" lon="4.60713">
        <ele>841</ele>
        <time>2018-10-14T08:59:01Z</time>
      </trkpt>
      <trkpt lat="45.62695" lon="4.60719">
        <ele>845</ele>
        <time>2018-10-14T08:59:02Z</time>
      </trkpt>
      <trkpt lat="45.62695" lon="4.60728">
        <ele>845</ele>
        <time>2018-10-14T08:59:03Z</time>
      </trkpt>
      <trkpt lat="45.62695" lon="4.60735">
        <ele>844</ele>
        <time>2018-10-14T08:59:04Z</time>
      </trkpt>
      <trkpt lat="45.62693" lon="4.60739">
        <ele>844</ele>
        <time>2018-10-14T08:59:05Z</time>
      </trkpt>
      <trkpt lat="45.62693" lon="4.60745">
        <ele>844</ele>
        <time>2018-10-14T08:59:06Z</time>
      </trkpt>
      <trkpt lat="45.62694" lon="4.60751">
        <ele>843</ele>
        <time>2018-10-14T08:59:07Z</time>
      </trkpt>
      <trkpt lat="45.62694" lon="4.60755">
        <ele>843</ele>
        <time>2018-10-14T08:59:08Z</time>
      </trkpt>
      <trkpt lat="45.62694" lon="4.60768">
        <ele>842</ele>
        <time>2018-10-14T08:59:09Z</time>
      </trkpt>
      <trkpt lat="45.62697" lon="4.60778">
        <ele>842</ele>
        <time>2018-10-14T08:59:10Z</time>
      </trkpt>
      <trkpt lat="45.62699" lon="4.60791">
        <ele>842</ele>
        <time>2018-10-14T08:59:11Z</time>
      </trkpt>
      <trkpt lat="45.62701" lon="4.60801">
        <ele>839</ele>
        <time>2018-10-14T08:59:12Z</time>
      </trkpt>
      <trkpt lat="45.62704" lon="4.60811">
        <ele>844</ele>
        <time>2018-10-14T08:59:13Z</time>
      </trkpt>
      <trkpt lat="45.62707" lon="4.6082">
        <ele>844</ele>
        <time>2018-10-14T08:59:14Z</time>
      </trkpt>
      <trkpt lat="45.62708" lon="4.60823">
        <ele>842</ele>
        <time>2018-10-14T08:59:15Z</time>
      </trkpt>
      <trkpt lat="45.62709" lon="4.60826">
        <ele>840</ele>
        <time>2018-10-14T08:59:16Z</time>
      </trkpt>
      <trkpt lat="45.62711" lon="4.60829">
        <ele>838</ele>
        <time>2018-10-14T08:59:17Z</time>
      </trkpt>
      <trkpt lat="45.62713" lon="4.60835">
        <ele>837</ele>
        <time>2018-10-14T08:59:18Z</time>
      </trkpt>
      <trkpt lat="45.62717" lon="4.60841">
        <ele>836</ele>
        <time>2018-10-14T08:59:19Z</time>
      </trkpt>
      <trkpt lat="45.62719" lon="4.60846">
        <ele>835</ele>
        <time>2018-10-14T08:59:20Z</time>
      </trkpt>
      <trkpt lat="45.62722" lon="4.60852">
        <ele>833</ele>
        <time>2018-10-14T08:59:21Z</time>
      </trkpt>
      <trkpt lat="45.62724" lon="4.60861">
        <ele>832</ele>
        <time>2018-10-14T08:59:22Z</time>
      </trkpt>
      <trkpt lat="45.62725" lon="4.60868">
        <ele>832</ele>
        <time>2018-10-14T08:59:23Z</time>
      </trkpt>
      <trkpt lat="45.62728" lon="4.60874">
        <ele>831</ele>
        <time>2018-10-14T08:59:24Z</time>
      </trkpt>
      <trkpt lat="45.62729" lon="4.60879">
        <ele>829</ele>
        <time>2018-10-14T08:59:25Z</time>
      </trkpt>
      <trkpt lat="45.62732" lon="4.60885">
        <ele>827</ele>
        <time>2018-10-14T08:59:26Z</time>
      </trkpt>
      <trkpt lat="45.62736" lon="4.60893">
        <ele>826</ele>
        <time>2018-10-14T08:59:27Z</time>
      </trkpt>
      <trkpt lat="45.62739" lon="4.60901">
        <ele>824</ele>
        <time>2018-10-14T08:59:28Z</time>
      </trkpt>
      <trkpt lat="45.6274" lon="4.60907">
        <ele>826</ele>
        <time>2018-10-14T08:59:29Z</time>
      </trkpt>
      <trkpt lat="45.62742" lon="4.60914">
        <ele>825</ele>
        <time>2018-10-14T08:59:30Z</time>
      </trkpt>
      <trkpt lat="45.62743" lon="4.6092">
        <ele>825</ele>
        <time>2018-10-14T08:59:31Z</time>
      </trkpt>
      <trkpt lat="45.62742" lon="4.60928">
        <ele>826</ele>
        <time>2018-10-14T08:59:32Z</time>
      </trkpt>
      <trkpt lat="45.62741" lon="4.60936">
        <ele>824</ele>
        <time>2018-10-14T08:59:33Z</time>
      </trkpt>
      <trkpt lat="45.62738" lon="4.60945">
        <ele>825</ele>
        <time>2018-10-14T08:59:34Z</time>
      </trkpt>
      <trkpt lat="45.62736" lon="4.60954">
        <ele>824</ele>
        <time>2018-10-14T08:59:35Z</time>
      </trkpt>
      <trkpt lat="45.62733" lon="4.60963">
        <ele>824</ele>
        <time>2018-10-14T08:59:36Z</time>
      </trkpt>
      <trkpt lat="45.62731" lon="4.60974">
        <ele>823</ele>
        <time>2018-10-14T08:59:37Z</time>
      </trkpt>
      <trkpt lat="45.62728" lon="4.60982">
        <ele>821</ele>
        <time>2018-10-14T08:59:38Z</time>
      </trkpt>
      <trkpt lat="45.62725" lon="4.60992">
        <ele>820</ele>
        <time>2018-10-14T08:59:39Z</time>
      </trkpt>
      <trkpt lat="45.62724" lon="4.61">
        <ele>817</ele>
        <time>2018-10-14T08:59:40Z</time>
      </trkpt>
      <trkpt lat="45.62721" lon="4.61008">
        <ele>816</ele>
        <time>2018-10-14T08:59:41Z</time>
      </trkpt>
      <trkpt lat="45.62716" lon="4.61015">
        <ele>815</ele>
        <time>2018-10-14T08:59:42Z</time>
      </trkpt>
      <trkpt lat="45.62714" lon="4.61023">
        <ele>815</ele>
        <time>2018-10-14T08:59:43Z</time>
      </trkpt>
      <trkpt lat="45.62711" lon="4.61028">
        <ele>814</ele>
        <time>2018-10-14T08:59:44Z</time>
      </trkpt>
      <trkpt lat="45.62709" lon="4.61035">
        <ele>814</ele>
        <time>2018-10-14T08:59:45Z</time>
      </trkpt>
      <trkpt lat="45.62705" lon="4.6104">
        <ele>809</ele>
        <time>2018-10-14T08:59:46Z</time>
      </trkpt>
      <trkpt lat="45.62705" lon="4.61047">
        <ele>808</ele>
        <time>2018-10-14T08:59:47Z</time>
      </trkpt>
      <trkpt lat="45.62701" lon="4.61053">
        <ele>809</ele>
        <time>2018-10-14T08:59:48Z</time>
      </trkpt>
      <trkpt lat="45.62697" lon="4.61056">
        <ele>808</ele>
        <time>2018-10-14T08:59:49Z</time>
      </trkpt>
      <trkpt lat="45.62693" lon="4.6106">
        <ele>807</ele>
        <time>2018-10-14T08:59:50Z</time>
      </trkpt>
      <trkpt lat="45.62689" lon="4.61063">
        <ele>807</ele>
        <time>2018-10-14T08:59:51Z</time>
      </trkpt>
      <trkpt lat="45.62688" lon="4.61068">
        <ele>806</ele>
        <time>2018-10-14T08:59:52Z</time>
      </trkpt>
      <trkpt lat="45.62686" lon="4.61072">
        <ele>806</ele>
        <time>2018-10-14T08:59:53Z</time>
      </trkpt>
      <trkpt lat="45.62684" lon="4.61074">
        <ele>805</ele>
        <time>2018-10-14T08:59:54Z</time>
      </trkpt>
      <trkpt lat="45.62682" lon="4.61078">
        <ele>804</ele>
        <time>2018-10-14T08:59:55Z</time>
      </trkpt>
      <trkpt lat="45.6268" lon="4.61083">
        <ele>803</ele>
        <time>2018-10-14T08:59:56Z</time>
      </trkpt>
      <trkpt lat="45.62679" lon="4.61089">
        <ele>800</ele>
        <time>2018-10-14T08:59:57Z</time>
      </trkpt>
      <trkpt lat="45.62676" lon="4.61093">
        <ele>800</ele>
        <time>2018-10-14T08:59:58Z</time>
      </trkpt>
      <trkpt lat="45.62674" lon="4.61096">
        <ele>800</ele>
        <time>2018-10-14T08:59:59Z</time>
      </trkpt>
      <trkpt lat="45.62674" lon="4.611">
        <ele>799</ele>
        <time>2018-10-14T09:00:00Z</time>
      </trkpt>
      <trkpt lat="45.62671" lon="4.61102">
        <ele>798</ele>
        <time>2018-10-14T09:00:01Z</time>
      </trkpt>
      <trkpt lat="45.62669" lon="4.61104">
        <ele>798</ele>
        <time>2018-10-14T09:00:02Z</time>
      </trkpt>
      <trkpt lat="45.62668" lon="4.61106">
        <ele>798</ele>
        <time>2018-10-14T09:00:03Z</time>
      </trkpt>
      <trkpt lat="45.62668" lon="4.61108">
        <ele>798</ele>
        <time>2018-10-14T09:00:04Z</time>
      </trkpt>
      <trkpt lat="45.62666" lon="4.61109">
        <ele>798</ele>
        <time>2018-10-14T09:00:05Z</time>
      </trkpt>
      <trkpt lat="45.62664" lon="4.61111">
        <ele>799</ele>
        <time>2018-10-14T09:00:06Z</time>
      </trkpt>
      <trkpt lat="45.62663" lon="4.61112">
        <ele>799</ele>
        <time>2018-10-14T09:00:07Z</time>
      </trkpt>
      <trkpt lat="45.62659" lon="4.61114">
        <ele>799</ele>
        <time>2018-10-14T09:00:09Z</time>
      </trkpt>
      <trkpt lat="45.62655" lon="4.61117">
        <ele>798</ele>
        <time>2018-10-14T09:00:10Z</time>
      </trkpt>
      <trkpt lat="45.62647" lon="4.61123">
        <ele>798</ele>
        <time>2018-10-14T09:00:11Z</time>
      </trkpt>
      <trkpt lat="45.6264" lon="4.61125">
        <ele>794</ele>
        <time>2018-10-14T09:00:12Z</time>
      </trkpt>
      <trkpt lat="45.62637" lon="4.61128">
        <ele>793</ele>
        <time>2018-10-14T09:00:13Z</time>
      </trkpt>
      <trkpt lat="45.62637" lon="4.61136">
        <ele>793</ele>
        <time>2018-10-14T09:00:14Z</time>
      </trkpt>
      <trkpt lat="45.62634" lon="4.61138">
        <ele>793</ele>
        <time>2018-10-14T09:00:15Z</time>
      </trkpt>
      <trkpt lat="45.62632" lon="4.61141">
        <ele>795</ele>
        <time>2018-10-14T09:00:16Z</time>
      </trkpt>
      <trkpt lat="45.62628" lon="4.61141">
        <ele>794</ele>
        <time>2018-10-14T09:00:17Z</time>
      </trkpt>
      <trkpt lat="45.62624" lon="4.61143">
        <ele>793</ele>
        <time>2018-10-14T09:00:18Z</time>
      </trkpt>
      <trkpt lat="45.62624" lon="4.61148">
        <ele>792</ele>
        <time>2018-10-14T09:00:19Z</time>
      </trkpt>
      <trkpt lat="45.62622" lon="4.61153">
        <ele>790</ele>
        <time>2018-10-14T09:00:20Z</time>
      </trkpt>
      <trkpt lat="45.62618" lon="4.61154">
        <ele>790</ele>
        <time>2018-10-14T09:00:21Z</time>
      </trkpt>
      <trkpt lat="45.62615" lon="4.61156">
        <ele>791</ele>
        <time>2018-10-14T09:00:22Z</time>
      </trkpt>
      <trkpt lat="45.62611" lon="4.6116">
        <ele>791</ele>
        <time>2018-10-14T09:00:23Z</time>
      </trkpt>
      <trkpt lat="45.62608" lon="4.61162">
        <ele>792</ele>
        <time>2018-10-14T09:00:24Z</time>
      </trkpt>
      <trkpt lat="45.62606" lon="4.61167">
        <ele>792</ele>
        <time>2018-10-14T09:00:25Z</time>
      </trkpt>
      <trkpt lat="45.62601" lon="4.61169">
        <ele>790</ele>
        <time>2018-10-14T09:00:26Z</time>
      </trkpt>
      <trkpt lat="45.62597" lon="4.61173">
        <ele>790</ele>
        <time>2018-10-14T09:00:27Z</time>
      </trkpt>
      <trkpt lat="45.62595" lon="4.61176">
        <ele>790</ele>
        <time>2018-10-14T09:00:28Z</time>
      </trkpt>
      <trkpt lat="45.62592" lon="4.61179">
        <ele>792</ele>
        <time>2018-10-14T09:00:29Z</time>
      </trkpt>
      <trkpt lat="45.62588" lon="4.61182">
        <ele>791</ele>
        <time>2018-10-14T09:00:30Z</time>
      </trkpt>
      <trkpt lat="45.62586" lon="4.61185">
        <ele>791</ele>
        <time>2018-10-14T09:00:31Z</time>
      </trkpt>
      <trkpt lat="45.62584" lon="4.61188">
        <ele>791</ele>
        <time>2018-10-14T09:00:32Z</time>
      </trkpt>
      <trkpt lat="45.62583" lon="4.61189">
        <ele>790</ele>
        <time>2018-10-14T09:00:33Z</time>
      </trkpt>
      <trkpt lat="45.62581" lon="4.61191">
        <ele>790</ele>
        <time>2018-10-14T09:00:34Z</time>
      </trkpt>
      <trkpt lat="45.6258" lon="4.61192">
        <ele>790</ele>
        <time>2018-10-14T09:00:35Z</time>
      </trkpt>
      <trkpt lat="45.62579" lon="4.61193">
        <ele>788</ele>
        <time>2018-10-14T09:00:36Z</time>
      </trkpt>
      <trkpt lat="45.62578" lon="4.61194">
        <ele>788</ele>
        <time>2018-10-14T09:00:37Z</time>
      </trkpt>
      <trkpt lat="45.62576" lon="4.61196">
        <ele>787</ele>
        <time>2018-10-14T09:00:38Z</time>
      </trkpt>
      <trkpt lat="45.62566" lon="4.61202">
        <ele>785</ele>
        <time>2018-10-14T09:00:39Z</time>
      </trkpt>
      <trkpt lat="45.62549" lon="4.61212">
        <ele>780</ele>
        <time>2018-10-14T09:00:40Z</time>
      </trkpt>
      <trkpt lat="45.62545" lon="4.61212">
        <ele>781</ele>
        <time>2018-10-14T09:00:41Z</time>
      </trkpt>
      <trkpt lat="45.62542" lon="4.61212">
        <ele>783</ele>
        <time>2018-10-14T09:00:42Z</time>
      </trkpt>
      <trkpt lat="45.62539" lon="4.61212">
        <ele>783</ele>
        <time>2018-10-14T09:00:43Z</time>
      </trkpt>
      <trkpt lat="45.62535" lon="4.61212">
        <ele>782</ele>
        <time>2018-10-14T09:00:44Z</time>
      </trkpt>
      <trkpt lat="45.62531" lon="4.61214">
        <ele>782</ele>
        <time>2018-10-14T09:00:45Z</time>
      </trkpt>
      <trkpt lat="45.62524" lon="4.61213">
        <ele>779</ele>
        <time>2018-10-14T09:00:46Z</time>
      </trkpt>
      <trkpt lat="45.62521" lon="4.61214">
        <ele>780</ele>
        <time>2018-10-14T09:00:47Z</time>
      </trkpt>
      <trkpt lat="45.62518" lon="4.61216">
        <ele>780</ele>
        <time>2018-10-14T09:00:48Z</time>
      </trkpt>
      <trkpt lat="45.62516" lon="4.61218">
        <ele>780</ele>
        <time>2018-10-14T09:00:49Z</time>
      </trkpt>
      <trkpt lat="45.62515" lon="4.61219">
        <ele>780</ele>
        <time>2018-10-14T09:00:50Z</time>
      </trkpt>
      <trkpt lat="45.62513" lon="4.6122">
        <ele>780</ele>
        <time>2018-10-14T09:00:51Z</time>
      </trkpt>
      <trkpt lat="45.62511" lon="4.6122">
        <ele>779</ele>
        <time>2018-10-14T09:00:53Z</time>
      </trkpt>
      <trkpt lat="45.62507" lon="4.6122">
        <ele>778</ele>
        <time>2018-10-14T09:00:54Z</time>
      </trkpt>
      <trkpt lat="45.62497" lon="4.61224">
        <ele>776</ele>
        <time>2018-10-14T09:00:55Z</time>
      </trkpt>
      <trkpt lat="45.62484" lon="4.61231">
        <ele>773</ele>
        <time>2018-10-14T09:00:56Z</time>
      </trkpt>
      <trkpt lat="45.62482" lon="4.61233">
        <ele>774</ele>
        <time>2018-10-14T09:00:57Z</time>
      </trkpt>
      <trkpt lat="45.62478" lon="4.61233">
        <ele>773</ele>
        <time>2018-10-14T09:00:58Z</time>
      </trkpt>
      <trkpt lat="45.62473" lon="4.61234">
        <ele>771</ele>
        <time>2018-10-14T09:00:59Z</time>
      </trkpt>
      <trkpt lat="45.62469" lon="4.61235">
        <ele>771</ele>
        <time>2018-10-14T09:01:00Z</time>
      </trkpt>
      <trkpt lat="45.62465" lon="4.61238">
        <ele>771</ele>
        <time>2018-10-14T09:01:01Z</time>
      </trkpt>
      <trkpt lat="45.62463" lon="4.61241">
        <ele>772</ele>
        <time>2018-10-14T09:01:02Z</time>
      </trkpt>
      <trkpt lat="45.6246" lon="4.61243">
        <ele>771</ele>
        <time>2018-10-14T09:01:03Z</time>
      </trkpt>
      <trkpt lat="45.62458" lon="4.61245">
        <ele>780</ele>
        <time>2018-10-14T09:01:04Z</time>
      </trkpt>
      <trkpt lat="45.62456" lon="4.61246">
        <ele>776</ele>
        <time>2018-10-14T09:01:05Z</time>
      </trkpt>
      <trkpt lat="45.62455" lon="4.61248">
        <ele>773</ele>
        <time>2018-10-14T09:01:06Z</time>
      </trkpt>
      <trkpt lat="45.62454" lon="4.6125">
        <ele>771</ele>
        <time>2018-10-14T09:01:07Z</time>
      </trkpt>
      <trkpt lat="45.62452" lon="4.61252">
        <ele>769</ele>
        <time>2018-10-14T09:01:08Z</time>
      </trkpt>
      <trkpt lat="45.62451" lon="4.61253">
        <ele>767</ele>
        <time>2018-10-14T09:01:09Z</time>
      </trkpt>
      <trkpt lat="45.6245" lon="4.61255">
        <ele>767</ele>
        <time>2018-10-14T09:01:10Z</time>
      </trkpt>
      <trkpt lat="45.62448" lon="4.61256">
        <ele>764</ele>
        <time>2018-10-14T09:01:11Z</time>
      </trkpt>
      <trkpt lat="45.62445" lon="4.61258">
        <ele>761</ele>
        <time>2018-10-14T09:01:13Z</time>
      </trkpt>
      <trkpt lat="45.62442" lon="4.61258">
        <ele>759</ele>
        <time>2018-10-14T09:01:14Z</time>
      </trkpt>
      <trkpt lat="45.6244" lon="4.61257">
        <ele>758</ele>
        <time>2018-10-14T09:01:15Z</time>
      </trkpt>
      <trkpt lat="45.62436" lon="4.61257">
        <ele>756</ele>
        <time>2018-10-14T09:01:16Z</time>
      </trkpt>
      <trkpt lat="45.62433" lon="4.61256">
        <ele>756</ele>
        <time>2018-10-14T09:01:17Z</time>
      </trkpt>
      <trkpt lat="45.62429" lon="4.61256">
        <ele>756</ele>
        <time>2018-10-14T09:01:18Z</time>
      </trkpt>
      <trkpt lat="45.62426" lon="4.61256">
        <ele>756</ele>
        <time>2018-10-14T09:01:19Z</time>
      </trkpt>
      <trkpt lat="45.62418" lon="4.61255">
        <ele>755</ele>
        <time>2018-10-14T09:01:21Z</time>
      </trkpt>
      <trkpt lat="45.62413" lon="4.61255">
        <ele>754</ele>
        <time>2018-10-14T09:01:22Z</time>
      </trkpt>
      <trkpt lat="45.62408" lon="4.61254">
        <ele>755</ele>
        <time>2018-10-14T09:01:23Z</time>
      </trkpt>
      <trkpt lat="45.62403" lon="4.61256">
        <ele>754</ele>
        <time>2018-10-14T09:01:24Z</time>
      </trkpt>
      <trkpt lat="45.62398" lon="4.61256">
        <ele>753</ele>
        <time>2018-10-14T09:01:25Z</time>
      </trkpt>
      <trkpt lat="45.62393" lon="4.61257">
        <ele>753</ele>
        <time>2018-10-14T09:01:26Z</time>
      </trkpt>
      <trkpt lat="45.62388" lon="4.61258">
        <ele>753</ele>
        <time>2018-10-14T09:01:27Z</time>
      </trkpt>
      <trkpt lat="45.62383" lon="4.61261">
        <ele>753</ele>
        <time>2018-10-14T09:01:28Z</time>
      </trkpt>
      <trkpt lat="45.62378" lon="4.61263">
        <ele>752</ele>
        <time>2018-10-14T09:01:29Z</time>
      </trkpt>
      <trkpt lat="45.62373" lon="4.61264">
        <ele>751</ele>
        <time>2018-10-14T09:01:30Z</time>
      </trkpt>
      <trkpt lat="45.62368" lon="4.61265">
        <ele>751</ele>
        <time>2018-10-14T09:01:31Z</time>
      </trkpt>
      <trkpt lat="45.62362" lon="4.61267">
        <ele>751</ele>
        <time>2018-10-14T09:01:32Z</time>
      </trkpt>
      <trkpt lat="45.62357" lon="4.61268">
        <ele>751</ele>
        <time>2018-10-14T09:01:33Z</time>
      </trkpt>
      <trkpt lat="45.62352" lon="4.61269">
        <ele>760</ele>
        <time>2018-10-14T09:01:34Z</time>
      </trkpt>
      <trkpt lat="45.62346" lon="4.61272">
        <ele>756</ele>
        <time>2018-10-14T09:01:35Z</time>
      </trkpt>
      <trkpt lat="45.62341" lon="4.61275">
        <ele>754</ele>
        <time>2018-10-14T09:01:36Z</time>
      </trkpt>
      <trkpt lat="45.62336" lon="4.61278">
        <ele>752</ele>
        <time>2018-10-14T09:01:37Z</time>
      </trkpt>
      <trkpt lat="45.62333" lon="4.61283">
        <ele>751</ele>
        <time>2018-10-14T09:01:38Z</time>
      </trkpt>
      <trkpt lat="45.6233" lon="4.61289">
        <ele>750</ele>
        <time>2018-10-14T09:01:39Z</time>
      </trkpt>
      <trkpt lat="45.62326" lon="4.61294">
        <ele>749</ele>
        <time>2018-10-14T09:01:40Z</time>
      </trkpt>
      <trkpt lat="45.62322" lon="4.61299">
        <ele>749</ele>
        <time>2018-10-14T09:01:41Z</time>
      </trkpt>
      <trkpt lat="45.62318" lon="4.61302">
        <ele>747</ele>
        <time>2018-10-14T09:01:42Z</time>
      </trkpt>
      <trkpt lat="45.62315" lon="4.61304">
        <ele>744</ele>
        <time>2018-10-14T09:01:43Z</time>
      </trkpt>
      <trkpt lat="45.62311" lon="4.61307">
        <ele>753</ele>
        <time>2018-10-14T09:01:44Z</time>
      </trkpt>
      <trkpt lat="45.62307" lon="4.61309">
        <ele>748</ele>
        <time>2018-10-14T09:01:45Z</time>
      </trkpt>
      <trkpt lat="45.62303" lon="4.61311">
        <ele>745</ele>
        <time>2018-10-14T09:01:46Z</time>
      </trkpt>
      <trkpt lat="45.62299" lon="4.61312">
        <ele>744</ele>
        <time>2018-10-14T09:01:47Z</time>
      </trkpt>
      <trkpt lat="45.62294" lon="4.61313">
        <ele>742</ele>
        <time>2018-10-14T09:01:48Z</time>
      </trkpt>
      <trkpt lat="45.62289" lon="4.61316">
        <ele>741</ele>
        <time>2018-10-14T09:01:49Z</time>
      </trkpt>
      <trkpt lat="45.6229" lon="4.61314">
        <ele>728</ele>
        <time>2018-10-14T09:01:50Z</time>
      </trkpt>
      <trkpt lat="45.62286" lon="4.6132">
        <ele>727</ele>
        <time>2018-10-14T09:01:51Z</time>
      </trkpt>
      <trkpt lat="45.62283" lon="4.61322">
        <ele>726</ele>
        <time>2018-10-14T09:01:52Z</time>
      </trkpt>
      <trkpt lat="45.62281" lon="4.61323">
        <ele>725</ele>
        <time>2018-10-14T09:01:53Z</time>
      </trkpt>
      <trkpt lat="45.62281" lon="4.61321">
        <ele>724</ele>
        <time>2018-10-14T09:01:54Z</time>
      </trkpt>
      <trkpt lat="45.62278" lon="4.61323">
        <ele>722</ele>
        <time>2018-10-14T09:01:55Z</time>
      </trkpt>
      <trkpt lat="45.62275" lon="4.61324">
        <ele>722</ele>
        <time>2018-10-14T09:01:56Z</time>
      </trkpt>
      <trkpt lat="45.62272" lon="4.61325">
        <ele>723</ele>
        <time>2018-10-14T09:01:57Z</time>
      </trkpt>
      <trkpt lat="45.62267" lon="4.61326">
        <ele>721</ele>
        <time>2018-10-14T09:01:58Z</time>
      </trkpt>
      <trkpt lat="45.62261" lon="4.6133">
        <ele>720</ele>
        <time>2018-10-14T09:01:59Z</time>
      </trkpt>
      <trkpt lat="45.62258" lon="4.6133">
        <ele>719</ele>
        <time>2018-10-14T09:02:00Z</time>
      </trkpt>
      <trkpt lat="45.62255" lon="4.61337">
        <ele>717</ele>
        <time>2018-10-14T09:02:01Z</time>
      </trkpt>
      <trkpt lat="45.62251" lon="4.6134">
        <ele>717</ele>
        <time>2018-10-14T09:02:02Z</time>
      </trkpt>
      <trkpt lat="45.62249" lon="4.61342">
        <ele>753</ele>
        <time>2018-10-14T09:02:03Z</time>
      </trkpt>
      <trkpt lat="45.62247" lon="4.61342">
        <ele>744</ele>
        <time>2018-10-14T09:02:04Z</time>
      </trkpt>
      <trkpt lat="45.62245" lon="4.61344">
        <ele>738</ele>
        <time>2018-10-14T09:02:05Z</time>
      </trkpt>
      <trkpt lat="45.62243" lon="4.61345">
        <ele>733</ele>
        <time>2018-10-14T09:02:06Z</time>
      </trkpt>
      <trkpt lat="45.62241" lon="4.61347">
        <ele>729</ele>
        <time>2018-10-14T09:02:07Z</time>
      </trkpt>
      <trkpt lat="45.62238" lon="4.61347">
        <ele>727</ele>
        <time>2018-10-14T09:02:08Z</time>
      </trkpt>
      <trkpt lat="45.62235" lon="4.61348">
        <ele>724</ele>
        <time>2018-10-14T09:02:09Z</time>
      </trkpt>
      <trkpt lat="45.62231" lon="4.61348">
        <ele>722</ele>
        <time>2018-10-14T09:02:10Z</time>
      </trkpt>
      <trkpt lat="45.62227" lon="4.6135">
        <ele>722</ele>
        <time>2018-10-14T09:02:11Z</time>
      </trkpt>
      <trkpt lat="45.62221" lon="4.61352">
        <ele>718</ele>
        <time>2018-10-14T09:02:12Z</time>
      </trkpt>
      <trkpt lat="45.62215" lon="4.61353">
        <ele>717</ele>
        <time>2018-10-14T09:02:13Z</time>
      </trkpt>
      <trkpt lat="45.6221" lon="4.61355">
        <ele>717</ele>
        <time>2018-10-14T09:02:14Z</time>
      </trkpt>
      <trkpt lat="45.62205" lon="4.61355">
        <ele>716</ele>
        <time>2018-10-14T09:02:15Z</time>
      </trkpt>
      <trkpt lat="45.62199" lon="4.61354">
        <ele>714</ele>
        <time>2018-10-14T09:02:16Z</time>
      </trkpt>
      <trkpt lat="45.62193" lon="4.61355">
        <ele>713</ele>
        <time>2018-10-14T09:02:17Z</time>
      </trkpt>
      <trkpt lat="45.62188" lon="4.61357">
        <ele>712</ele>
        <time>2018-10-14T09:02:18Z</time>
      </trkpt>
      <trkpt lat="45.62186" lon="4.61363">
        <ele>712</ele>
        <time>2018-10-14T09:02:19Z</time>
      </trkpt>
      <trkpt lat="45.62186" lon="4.61368">
        <ele>709</ele>
        <time>2018-10-14T09:02:20Z</time>
      </trkpt>
      <trkpt lat="45.62187" lon="4.61373">
        <ele>708</ele>
        <time>2018-10-14T09:02:21Z</time>
      </trkpt>
      <trkpt lat="45.62188" lon="4.61377">
        <ele>708</ele>
        <time>2018-10-14T09:02:22Z</time>
      </trkpt>
      <trkpt lat="45.62191" lon="4.61381">
        <ele>707</ele>
        <time>2018-10-14T09:02:23Z</time>
      </trkpt>
      <trkpt lat="45.62195" lon="4.61387">
        <ele>706</ele>
        <time>2018-10-14T09:02:24Z</time>
      </trkpt>
      <trkpt lat="45.62199" lon="4.61391">
        <ele>706</ele>
        <time>2018-10-14T09:02:25Z</time>
      </trkpt>
      <trkpt lat="45.62203" lon="4.61396">
        <ele>705</ele>
        <time>2018-10-14T09:02:26Z</time>
      </trkpt>
      <trkpt lat="45.62208" lon="4.614">
        <ele>705</ele>
        <time>2018-10-14T09:02:27Z</time>
      </trkpt>
      <trkpt lat="45.62213" lon="4.61404">
        <ele>705</ele>
        <time>2018-10-14T09:02:28Z</time>
      </trkpt>
      <trkpt lat="45.62218" lon="4.61409">
        <ele>704</ele>
        <time>2018-10-14T09:02:29Z</time>
      </trkpt>
      <trkpt lat="45.62224" lon="4.61413">
        <ele>704</ele>
        <time>2018-10-14T09:02:30Z</time>
      </trkpt>
      <trkpt lat="45.6223" lon="4.61418">
        <ele>704</ele>
        <time>2018-10-14T09:02:31Z</time>
      </trkpt>
      <trkpt lat="45.62235" lon="4.61422">
        <ele>703</ele>
        <time>2018-10-14T09:02:32Z</time>
      </trkpt>
      <trkpt lat="45.62241" lon="4.61425">
        <ele>720</ele>
        <time>2018-10-14T09:02:33Z</time>
      </trkpt>
      <trkpt lat="45.62246" lon="4.61429">
        <ele>713</ele>
        <time>2018-10-14T09:02:34Z</time>
      </trkpt>
      <trkpt lat="45.62251" lon="4.61433">
        <ele>708</ele>
        <time>2018-10-14T09:02:35Z</time>
      </trkpt>
      <trkpt lat="45.62255" lon="4.61439">
        <ele>705</ele>
        <time>2018-10-14T09:02:36Z</time>
      </trkpt>
      <trkpt lat="45.6226" lon="4.61444">
        <ele>702</ele>
        <time>2018-10-14T09:02:37Z</time>
      </trkpt>
      <trkpt lat="45.62264" lon="4.6145">
        <ele>701</ele>
        <time>2018-10-14T09:02:38Z</time>
      </trkpt>
      <trkpt lat="45.62268" lon="4.61455">
        <ele>699</ele>
        <time>2018-10-14T09:02:39Z</time>
      </trkpt>
      <trkpt lat="45.62273" lon="4.61459">
        <ele>698</ele>
        <time>2018-10-14T09:02:40Z</time>
      </trkpt>
      <trkpt lat="45.62277" lon="4.61464">
        <ele>697</ele>
        <time>2018-10-14T09:02:41Z</time>
      </trkpt>
      <trkpt lat="45.6228" lon="4.61469">
        <ele>696</ele>
        <time>2018-10-14T09:02:42Z</time>
      </trkpt>
      <trkpt lat="45.62283" lon="4.61474">
        <ele>695</ele>
        <time>2018-10-14T09:02:43Z</time>
      </trkpt>
      <trkpt lat="45.62286" lon="4.61479">
        <ele>693</ele>
        <time>2018-10-14T09:02:44Z</time>
      </trkpt>
      <trkpt lat="45.62288" lon="4.61484">
        <ele>693</ele>
        <time>2018-10-14T09:02:45Z</time>
      </trkpt>
      <trkpt lat="45.6229" lon="4.61488">
        <ele>692</ele>
        <time>2018-10-14T09:02:46Z</time>
      </trkpt>
      <trkpt lat="45.62291" lon="4.61491">
        <ele>692</ele>
        <time>2018-10-14T09:02:47Z</time>
      </trkpt>
      <trkpt lat="45.62291" lon="4.61491">
        <ele>692</ele>
        <time>2018-10-14T09:02:48Z</time>
      </trkpt>
      <trkpt lat="45.62292" lon="4.61494">
        <ele>690</ele>
        <time>2018-10-14T09:02:49Z</time>
      </trkpt>
      <trkpt lat="45.62294" lon="4.61498">
        <ele>690</ele>
        <time>2018-10-14T09:02:50Z</time>
      </trkpt>
      <trkpt lat="45.62297" lon="4.61503">
        <ele>689</ele>
        <time>2018-10-14T09:02:51Z</time>
      </trkpt>
      <trkpt lat="45.623" lon="4.61507">
        <ele>688</ele>
        <time>2018-10-14T09:02:52Z</time>
      </trkpt>
      <trkpt lat="45.62303" lon="4.61512">
        <ele>687</ele>
        <time>2018-10-14T09:02:53Z</time>
      </trkpt>
      <trkpt lat="45.62307" lon="4.61516">
        <ele>686</ele>
        <time>2018-10-14T09:02:54Z</time>
      </trkpt>
      <trkpt lat="45.62309" lon="4.61521">
        <ele>686</ele>
        <time>2018-10-14T09:02:55Z</time>
      </trkpt>
      <trkpt lat="45.62312" lon="4.61527">
        <ele>685</ele>
        <time>2018-10-14T09:02:56Z</time>
      </trkpt>
      <trkpt lat="45.62314" lon="4.61533">
        <ele>685</ele>
        <time>2018-10-14T09:02:57Z</time>
      </trkpt>
      <trkpt lat="45.62317" lon="4.61539">
        <ele>683</ele>
        <time>2018-10-14T09:02:58Z</time>
      </trkpt>
      <trkpt lat="45.62318" lon="4.61544">
        <ele>682</ele>
        <time>2018-10-14T09:02:59Z</time>
      </trkpt>
      <trkpt lat="45.6232" lon="4.6155">
        <ele>682</ele>
        <time>2018-10-14T09:03:00Z</time>
      </trkpt>
      <trkpt lat="45.62322" lon="4.61556">
        <ele>682</ele>
        <time>2018-10-14T09:03:01Z</time>
      </trkpt>
      <trkpt lat="45.62323" lon="4.61561">
        <ele>681</ele>
        <time>2018-10-14T09:03:02Z</time>
      </trkpt>
      <trkpt lat="45.62325" lon="4.61567">
        <ele>681</ele>
        <time>2018-10-14T09:03:03Z</time>
      </trkpt>
      <trkpt lat="45.62329" lon="4.61565">
        <ele>680</ele>
        <time>2018-10-14T09:03:04Z</time>
      </trkpt>
      <trkpt lat="45.62335" lon="4.61569">
        <ele>674</ele>
        <time>2018-10-14T09:03:05Z</time>
      </trkpt>
      <trkpt lat="45.6234" lon="4.61572">
        <ele>673</ele>
        <time>2018-10-14T09:03:06Z</time>
      </trkpt>
      <trkpt lat="45.62346" lon="4.61576">
        <ele>672</ele>
        <time>2018-10-14T09:03:07Z</time>
      </trkpt>
      <trkpt lat="45.62351" lon="4.6158">
        <ele>672</ele>
        <time>2018-10-14T09:03:08Z</time>
      </trkpt>
      <trkpt lat="45.62357" lon="4.61584">
        <ele>671</ele>
        <time>2018-10-14T09:03:09Z</time>
      </trkpt>
      <trkpt lat="45.62364" lon="4.61588">
        <ele>670</ele>
        <time>2018-10-14T09:03:10Z</time>
      </trkpt>
      <trkpt lat="45.62371" lon="4.61591">
        <ele>669</ele>
        <time>2018-10-14T09:03:11Z</time>
      </trkpt>
      <trkpt lat="45.62379" lon="4.61592">
        <ele>669</ele>
        <time>2018-10-14T09:03:12Z</time>
      </trkpt>
      <trkpt lat="45.62387" lon="4.61594">
        <ele>669</ele>
        <time>2018-10-14T09:03:13Z</time>
      </trkpt>
      <trkpt lat="45.62395" lon="4.61595">
        <ele>667</ele>
        <time>2018-10-14T09:03:14Z</time>
      </trkpt>
      <trkpt lat="45.62402" lon="4.61596">
        <ele>668</ele>
        <time>2018-10-14T09:03:15Z</time>
      </trkpt>
      <trkpt lat="45.6241" lon="4.61597">
        <ele>667</ele>
        <time>2018-10-14T09:03:16Z</time>
      </trkpt>
      <trkpt lat="45.62417" lon="4.61599">
        <ele>666</ele>
        <time>2018-10-14T09:03:17Z</time>
      </trkpt>
      <trkpt lat="45.62425" lon="4.61599">
        <ele>665</ele>
        <time>2018-10-14T09:03:18Z</time>
      </trkpt>
      <trkpt lat="45.62433" lon="4.61595">
        <ele>664</ele>
        <time>2018-10-14T09:03:19Z</time>
      </trkpt>
      <trkpt lat="45.62441" lon="4.6159">
        <ele>664</ele>
        <time>2018-10-14T09:03:20Z</time>
      </trkpt>
      <trkpt lat="45.62449" lon="4.61585">
        <ele>664</ele>
        <time>2018-10-14T09:03:21Z</time>
      </trkpt>
      <trkpt lat="45.62456" lon="4.61581">
        <ele>664</ele>
        <time>2018-10-14T09:03:22Z</time>
      </trkpt>
      <trkpt lat="45.62463" lon="4.61576">
        <ele>664</ele>
        <time>2018-10-14T09:03:23Z</time>
      </trkpt>
      <trkpt lat="45.62469" lon="4.61574">
        <ele>664</ele>
        <time>2018-10-14T09:03:24Z</time>
      </trkpt>
      <trkpt lat="45.62476" lon="4.61571">
        <ele>664</ele>
        <time>2018-10-14T09:03:25Z</time>
      </trkpt>
      <trkpt lat="45.62482" lon="4.61567">
        <ele>664</ele>
        <time>2018-10-14T09:03:26Z</time>
      </trkpt>
      <trkpt lat="45.62487" lon="4.61563">
        <ele>665</ele>
        <time>2018-10-14T09:03:27Z</time>
      </trkpt>
      <trkpt lat="45.62492" lon="4.6156">
        <ele>664</ele>
        <time>2018-10-14T09:03:28Z</time>
      </trkpt>
      <trkpt lat="45.62497" lon="4.61557">
        <ele>664</ele>
        <time>2018-10-14T09:03:29Z</time>
      </trkpt>
      <trkpt lat="45.62502" lon="4.61555">
        <ele>664</ele>
        <time>2018-10-14T09:03:30Z</time>
      </trkpt>
      <trkpt lat="45.62506" lon="4.61552">
        <ele>664</ele>
        <time>2018-10-14T09:03:31Z</time>
      </trkpt>
      <trkpt lat="45.6251" lon="4.6155">
        <ele>663</ele>
        <time>2018-10-14T09:03:32Z</time>
      </trkpt>
      <trkpt lat="45.62515" lon="4.61547">
        <ele>663</ele>
        <time>2018-10-14T09:03:33Z</time>
      </trkpt>
      <trkpt lat="45.62519" lon="4.61545">
        <ele>664</ele>
        <time>2018-10-14T09:03:34Z</time>
      </trkpt>
      <trkpt lat="45.62523" lon="4.61542">
        <ele>664</ele>
        <time>2018-10-14T09:03:35Z</time>
      </trkpt>
      <trkpt lat="45.62529" lon="4.6154">
        <ele>665</ele>
        <time>2018-10-14T09:03:36Z</time>
      </trkpt>
      <trkpt lat="45.62532" lon="4.61539">
        <ele>664</ele>
        <time>2018-10-14T09:03:37Z</time>
      </trkpt>
      <trkpt lat="45.62536" lon="4.61537">
        <ele>664</ele>
        <time>2018-10-14T09:03:38Z</time>
      </trkpt>
      <trkpt lat="45.62539" lon="4.61535">
        <ele>664</ele>
        <time>2018-10-14T09:03:39Z</time>
      </trkpt>
      <trkpt lat="45.62545" lon="4.61534">
        <ele>664</ele>
        <time>2018-10-14T09:03:40Z</time>
      </trkpt>
      <trkpt lat="45.62549" lon="4.61533">
        <ele>663</ele>
        <time>2018-10-14T09:03:41Z</time>
      </trkpt>
      <trkpt lat="45.62554" lon="4.61533">
        <ele>664</ele>
        <time>2018-10-14T09:03:42Z</time>
      </trkpt>
      <trkpt lat="45.6256" lon="4.61532">
        <ele>664</ele>
        <time>2018-10-14T09:03:43Z</time>
      </trkpt>
      <trkpt lat="45.62566" lon="4.61532">
        <ele>664</ele>
        <time>2018-10-14T09:03:44Z</time>
      </trkpt>
      <trkpt lat="45.62572" lon="4.61532">
        <ele>664</ele>
        <time>2018-10-14T09:03:45Z</time>
      </trkpt>
      <trkpt lat="45.62578" lon="4.61532">
        <ele>664</ele>
        <time>2018-10-14T09:03:46Z</time>
      </trkpt>
      <trkpt lat="45.62585" lon="4.61536">
        <ele>664</ele>
        <time>2018-10-14T09:03:47Z</time>
      </trkpt>
      <trkpt lat="45.62591" lon="4.61541">
        <ele>664</ele>
        <time>2018-10-14T09:03:48Z</time>
      </trkpt>
      <trkpt lat="45.62597" lon="4.61548">
        <ele>666</ele>
        <time>2018-10-14T09:03:49Z</time>
      </trkpt>
      <trkpt lat="45.62602" lon="4.61553">
        <ele>666</ele>
        <time>2018-10-14T09:03:50Z</time>
      </trkpt>
      <trkpt lat="45.62606" lon="4.61561">
        <ele>666</ele>
        <time>2018-10-14T09:03:51Z</time>
      </trkpt>
      <trkpt lat="45.6261" lon="4.61567">
        <ele>667</ele>
        <time>2018-10-14T09:03:52Z</time>
      </trkpt>
      <trkpt lat="45.62616" lon="4.61572">
        <ele>667</ele>
        <time>2018-10-14T09:03:53Z</time>
      </trkpt>
      <trkpt lat="45.62621" lon="4.61577">
        <ele>667</ele>
        <time>2018-10-14T09:03:54Z</time>
      </trkpt>
      <trkpt lat="45.62626" lon="4.6158">
        <ele>668</ele>
        <time>2018-10-14T09:03:55Z</time>
      </trkpt>
      <trkpt lat="45.6263" lon="4.61586">
        <ele>668</ele>
        <time>2018-10-14T09:03:56Z</time>
      </trkpt>
      <trkpt lat="45.62633" lon="4.61593">
        <ele>668</ele>
        <time>2018-10-14T09:03:57Z</time>
      </trkpt>
      <trkpt lat="45.62636" lon="4.61599">
        <ele>668</ele>
        <time>2018-10-14T09:03:58Z</time>
      </trkpt>
      <trkpt lat="45.62638" lon="4.61606">
        <ele>667</ele>
        <time>2018-10-14T09:03:59Z</time>
      </trkpt>
      <trkpt lat="45.62639" lon="4.61614">
        <ele>667</ele>
        <time>2018-10-14T09:04:00Z</time>
      </trkpt>
      <trkpt lat="45.62638" lon="4.61623">
        <ele>666</ele>
        <time>2018-10-14T09:04:01Z</time>
      </trkpt>
      <trkpt lat="45.62637" lon="4.61632">
        <ele>666</ele>
        <time>2018-10-14T09:04:02Z</time>
      </trkpt>
      <trkpt lat="45.62635" lon="4.61643">
        <ele>664</ele>
        <time>2018-10-14T09:04:03Z</time>
      </trkpt>
      <trkpt lat="45.62638" lon="4.61652">
        <ele>663</ele>
        <time>2018-10-14T09:04:04Z</time>
      </trkpt>
      <trkpt lat="45.6264" lon="4.61662">
        <ele>662</ele>
        <time>2018-10-14T09:04:05Z</time>
      </trkpt>
      <trkpt lat="45.62642" lon="4.6167">
        <ele>662</ele>
        <time>2018-10-14T09:04:06Z</time>
      </trkpt>
      <trkpt lat="45.62645" lon="4.61677">
        <ele>662</ele>
        <time>2018-10-14T09:04:07Z</time>
      </trkpt>
      <trkpt lat="45.62647" lon="4.61685">
        <ele>662</ele>
        <time>2018-10-14T09:04:08Z</time>
      </trkpt>
      <trkpt lat="45.62651" lon="4.61691">
        <ele>662</ele>
        <time>2018-10-14T09:04:09Z</time>
      </trkpt>
      <trkpt lat="45.62654" lon="4.61697">
        <ele>661</ele>
        <time>2018-10-14T09:04:10Z</time>
      </trkpt>
      <trkpt lat="45.62656" lon="4.61703">
        <ele>661</ele>
        <time>2018-10-14T09:04:11Z</time>
      </trkpt>
      <trkpt lat="45.62659" lon="4.61708">
        <ele>661</ele>
        <time>2018-10-14T09:04:12Z</time>
      </trkpt>
      <trkpt lat="45.62662" lon="4.61713">
        <ele>662</ele>
        <time>2018-10-14T09:04:13Z</time>
      </trkpt>
      <trkpt lat="45.62664" lon="4.61719">
        <ele>662</ele>
        <time>2018-10-14T09:04:14Z</time>
      </trkpt>
      <trkpt lat="45.62667" lon="4.61723">
        <ele>662</ele>
        <time>2018-10-14T09:04:15Z</time>
      </trkpt>
      <trkpt lat="45.6267" lon="4.61728">
        <ele>661</ele>
        <time>2018-10-14T09:04:16Z</time>
      </trkpt>
      <trkpt lat="45.62673" lon="4.61733">
        <ele>662</ele>
        <time>2018-10-14T09:04:17Z</time>
      </trkpt>
      <trkpt lat="45.62675" lon="4.6174">
        <ele>662</ele>
        <time>2018-10-14T09:04:18Z</time>
      </trkpt>
      <trkpt lat="45.62675" lon="4.61747">
        <ele>662</ele>
        <time>2018-10-14T09:04:19Z</time>
      </trkpt>
      <trkpt lat="45.62677" lon="4.61753">
        <ele>661</ele>
        <time>2018-10-14T09:04:20Z</time>
      </trkpt>
      <trkpt lat="45.62679" lon="4.61758">
        <ele>661</ele>
        <time>2018-10-14T09:04:21Z</time>
      </trkpt>
      <trkpt lat="45.62681" lon="4.61766">
        <ele>659</ele>
        <time>2018-10-14T09:04:22Z</time>
      </trkpt>
      <trkpt lat="45.62683" lon="4.61772">
        <ele>659</ele>
        <time>2018-10-14T09:04:23Z</time>
      </trkpt>
      <trkpt lat="45.62684" lon="4.6178">
        <ele>659</ele>
        <time>2018-10-14T09:04:24Z</time>
      </trkpt>
      <trkpt lat="45.62686" lon="4.61787">
        <ele>657</ele>
        <time>2018-10-14T09:04:25Z</time>
      </trkpt>
      <trkpt lat="45.62688" lon="4.61793">
        <ele>657</ele>
        <time>2018-10-14T09:04:26Z</time>
      </trkpt>
      <trkpt lat="45.62691" lon="4.61802">
        <ele>657</ele>
        <time>2018-10-14T09:04:27Z</time>
      </trkpt>
      <trkpt lat="45.62694" lon="4.61813">
        <ele>657</ele>
        <time>2018-10-14T09:04:28Z</time>
      </trkpt>
      <trkpt lat="45.62697" lon="4.61823">
        <ele>656</ele>
        <time>2018-10-14T09:04:29Z</time>
      </trkpt>
      <trkpt lat="45.627" lon="4.61833">
        <ele>656</ele>
        <time>2018-10-14T09:04:30Z</time>
      </trkpt>
      <trkpt lat="45.62703" lon="4.61841">
        <ele>655</ele>
        <time>2018-10-14T09:04:31Z</time>
      </trkpt>
      <trkpt lat="45.62706" lon="4.6185">
        <ele>655</ele>
        <time>2018-10-14T09:04:32Z</time>
      </trkpt>
      <trkpt lat="45.6271" lon="4.61859">
        <ele>654</ele>
        <time>2018-10-14T09:04:33Z</time>
      </trkpt>
      <trkpt lat="45.62714" lon="4.6187">
        <ele>653</ele>
        <time>2018-10-14T09:04:34Z</time>
      </trkpt>
      <trkpt lat="45.62717" lon="4.6188">
        <ele>652</ele>
        <time>2018-10-14T09:04:35Z</time>
      </trkpt>
      <trkpt lat="45.62721" lon="4.61888">
        <ele>652</ele>
        <time>2018-10-14T09:04:36Z</time>
      </trkpt>
      <trkpt lat="45.62727" lon="4.61896">
        <ele>652</ele>
        <time>2018-10-14T09:04:37Z</time>
      </trkpt>
      <trkpt lat="45.62734" lon="4.61903">
        <ele>652</ele>
        <time>2018-10-14T09:04:38Z</time>
      </trkpt>
      <trkpt lat="45.6274" lon="4.6191">
        <ele>651</ele>
        <time>2018-10-14T09:04:39Z</time>
      </trkpt>
      <trkpt lat="45.62748" lon="4.61919">
        <ele>650</ele>
        <time>2018-10-14T09:04:40Z</time>
      </trkpt>
      <trkpt lat="45.62756" lon="4.61925">
        <ele>649</ele>
        <time>2018-10-14T09:04:41Z</time>
      </trkpt>
      <trkpt lat="45.62763" lon="4.61933">
        <ele>648</ele>
        <time>2018-10-14T09:04:42Z</time>
      </trkpt>
      <trkpt lat="45.6277" lon="4.6194">
        <ele>647</ele>
        <time>2018-10-14T09:04:43Z</time>
      </trkpt>
      <trkpt lat="45.62778" lon="4.61946">
        <ele>646</ele>
        <time>2018-10-14T09:04:44Z</time>
      </trkpt>
      <trkpt lat="45.62785" lon="4.61952">
        <ele>645</ele>
        <time>2018-10-14T09:04:45Z</time>
      </trkpt>
      <trkpt lat="45.62791" lon="4.61957">
        <ele>644</ele>
        <time>2018-10-14T09:04:46Z</time>
      </trkpt>
      <trkpt lat="45.62799" lon="4.61963">
        <ele>643</ele>
        <time>2018-10-14T09:04:47Z</time>
      </trkpt>
      <trkpt lat="45.62806" lon="4.61971">
        <ele>640</ele>
        <time>2018-10-14T09:04:48Z</time>
      </trkpt>
      <trkpt lat="45.62814" lon="4.61975">
        <ele>638</ele>
        <time>2018-10-14T09:04:49Z</time>
      </trkpt>
      <trkpt lat="45.6282" lon="4.61978">
        <ele>637</ele>
        <time>2018-10-14T09:04:50Z</time>
      </trkpt>
      <trkpt lat="45.62827" lon="4.61981">
        <ele>635</ele>
        <time>2018-10-14T09:04:51Z</time>
      </trkpt>
      <trkpt lat="45.62835" lon="4.6198">
        <ele>633</ele>
        <time>2018-10-14T09:04:52Z</time>
      </trkpt>
      <trkpt lat="45.62843" lon="4.61977">
        <ele>630</ele>
        <time>2018-10-14T09:04:53Z</time>
      </trkpt>
      <trkpt lat="45.62853" lon="4.61973">
        <ele>627</ele>
        <time>2018-10-14T09:04:54Z</time>
      </trkpt>
      <trkpt lat="45.62863" lon="4.61968">
        <ele>625</ele>
        <time>2018-10-14T09:04:55Z</time>
      </trkpt>
      <trkpt lat="45.62871" lon="4.61964">
        <ele>625</ele>
        <time>2018-10-14T09:04:56Z</time>
      </trkpt>
      <trkpt lat="45.62878" lon="4.61958">
        <ele>623</ele>
        <time>2018-10-14T09:04:57Z</time>
      </trkpt>
      <trkpt lat="45.62884" lon="4.61952">
        <ele>622</ele>
        <time>2018-10-14T09:04:58Z</time>
      </trkpt>
      <trkpt lat="45.6289" lon="4.61945">
        <ele>622</ele>
        <time>2018-10-14T09:04:59Z</time>
      </trkpt>
      <trkpt lat="45.62894" lon="4.61938">
        <ele>621</ele>
        <time>2018-10-14T09:05:00Z</time>
      </trkpt>
      <trkpt lat="45.62898" lon="4.61928">
        <ele>620</ele>
        <time>2018-10-14T09:05:01Z</time>
      </trkpt>
      <trkpt lat="45.62903" lon="4.61919">
        <ele>619</ele>
        <time>2018-10-14T09:05:02Z</time>
      </trkpt>
      <trkpt lat="45.62907" lon="4.6191">
        <ele>620</ele>
        <time>2018-10-14T09:05:03Z</time>
      </trkpt>
      <trkpt lat="45.62912" lon="4.61902">
        <ele>619</ele>
        <time>2018-10-14T09:05:04Z</time>
      </trkpt>
      <trkpt lat="45.62919" lon="4.61894">
        <ele>619</ele>
        <time>2018-10-14T09:05:05Z</time>
      </trkpt>
      <trkpt lat="45.62924" lon="4.61885">
        <ele>619</ele>
        <time>2018-10-14T09:05:06Z</time>
      </trkpt>
      <trkpt lat="45.6293" lon="4.61876">
        <ele>618</ele>
        <time>2018-10-14T09:05:07Z</time>
      </trkpt>
      <trkpt lat="45.62935" lon="4.61867">
        <ele>617</ele>
        <time>2018-10-14T09:05:08Z</time>
      </trkpt>
      <trkpt lat="45.62939" lon="4.61858">
        <ele>617</ele>
        <time>2018-10-14T09:05:09Z</time>
      </trkpt>
      <trkpt lat="45.62944" lon="4.61848">
        <ele>615</ele>
        <time>2018-10-14T09:05:10Z</time>
      </trkpt>
      <trkpt lat="45.62949" lon="4.61838">
        <ele>615</ele>
        <time>2018-10-14T09:05:11Z</time>
      </trkpt>
      <trkpt lat="45.62953" lon="4.61829">
        <ele>614</ele>
        <time>2018-10-14T09:05:12Z</time>
      </trkpt>
      <trkpt lat="45.62957" lon="4.61818">
        <ele>614</ele>
        <time>2018-10-14T09:05:13Z</time>
      </trkpt>
      <trkpt lat="45.6296" lon="4.61809">
        <ele>614</ele>
        <time>2018-10-14T09:05:14Z</time>
      </trkpt>
      <trkpt lat="45.62963" lon="4.61799">
        <ele>613</ele>
        <time>2018-10-14T09:05:15Z</time>
      </trkpt>
      <trkpt lat="45.62966" lon="4.61787">
        <ele>613</ele>
        <time>2018-10-14T09:05:16Z</time>
      </trkpt>
      <trkpt lat="45.62969" lon="4.61777">
        <ele>613</ele>
        <time>2018-10-14T09:05:17Z</time>
      </trkpt>
      <trkpt lat="45.62973" lon="4.61767">
        <ele>613</ele>
        <time>2018-10-14T09:05:18Z</time>
      </trkpt>
      <trkpt lat="45.62975" lon="4.61757">
        <ele>612</ele>
        <time>2018-10-14T09:05:19Z</time>
      </trkpt>
      <trkpt lat="45.6298" lon="4.61748">
        <ele>613</ele>
        <time>2018-10-14T09:05:20Z</time>
      </trkpt>
      <trkpt lat="45.62984" lon="4.61739">
        <ele>613</ele>
        <time>2018-10-14T09:05:21Z</time>
      </trkpt>
      <trkpt lat="45.62988" lon="4.61729">
        <ele>612</ele>
        <time>2018-10-14T09:05:22Z</time>
      </trkpt>
      <trkpt lat="45.6299" lon="4.61719">
        <ele>611</ele>
        <time>2018-10-14T09:05:23Z</time>
      </trkpt>
      <trkpt lat="45.62993" lon="4.61709">
        <ele>610</ele>
        <time>2018-10-14T09:05:24Z</time>
      </trkpt>
      <trkpt lat="45.62996" lon="4.61699">
        <ele>610</ele>
        <time>2018-10-14T09:05:25Z</time>
      </trkpt>
      <trkpt lat="45.62999" lon="4.6169">
        <ele>611</ele>
        <time>2018-10-14T09:05:26Z</time>
      </trkpt>
      <trkpt lat="45.63005" lon="4.61683">
        <ele>611</ele>
        <time>2018-10-14T09:05:27Z</time>
      </trkpt>
      <trkpt lat="45.63011" lon="4.61674">
        <ele>611</ele>
        <time>2018-10-14T09:05:28Z</time>
      </trkpt>
      <trkpt lat="45.63016" lon="4.61668">
        <ele>609</ele>
        <time>2018-10-14T09:05:29Z</time>
      </trkpt>
      <trkpt lat="45.63025" lon="4.61663">
        <ele>628</ele>
        <time>2018-10-14T09:05:30Z</time>
      </trkpt>
      <trkpt lat="45.63031" lon="4.61659">
        <ele>628</ele>
        <time>2018-10-14T09:05:31Z</time>
      </trkpt>
      <trkpt lat="45.63038" lon="4.61656">
        <ele>629</ele>
        <time>2018-10-14T09:05:32Z</time>
      </trkpt>
      <trkpt lat="45.63043" lon="4.61654">
        <ele>623</ele>
        <time>2018-10-14T09:05:33Z</time>
      </trkpt>
      <trkpt lat="45.63049" lon="4.61654">
        <ele>619</ele>
        <time>2018-10-14T09:05:34Z</time>
      </trkpt>
      <trkpt lat="45.63054" lon="4.61656">
        <ele>628</ele>
        <time>2018-10-14T09:05:35Z</time>
      </trkpt>
      <trkpt lat="45.63059" lon="4.61659">
        <ele>628</ele>
        <time>2018-10-14T09:05:36Z</time>
      </trkpt>
      <trkpt lat="45.63064" lon="4.6166">
        <ele>621</ele>
        <time>2018-10-14T09:05:37Z</time>
      </trkpt>
      <trkpt lat="45.6307" lon="4.61663">
        <ele>616</ele>
        <time>2018-10-14T09:05:38Z</time>
      </trkpt>
      <trkpt lat="45.63075" lon="4.61666">
        <ele>614</ele>
        <time>2018-10-14T09:05:39Z</time>
      </trkpt>
      <trkpt lat="45.63079" lon="4.61669">
        <ele>612</ele>
        <time>2018-10-14T09:05:40Z</time>
      </trkpt>
      <trkpt lat="45.63082" lon="4.61672">
        <ele>611</ele>
        <time>2018-10-14T09:05:41Z</time>
      </trkpt>
      <trkpt lat="45.63086" lon="4.61675">
        <ele>610</ele>
        <time>2018-10-14T09:05:42Z</time>
      </trkpt>
      <trkpt lat="45.63091" lon="4.61678">
        <ele>610</ele>
        <time>2018-10-14T09:05:43Z</time>
      </trkpt>
      <trkpt lat="45.63094" lon="4.61683">
        <ele>611</ele>
        <time>2018-10-14T09:05:44Z</time>
      </trkpt>
      <trkpt lat="45.63096" lon="4.61687">
        <ele>611</ele>
        <time>2018-10-14T09:05:45Z</time>
      </trkpt>
      <trkpt lat="45.63096" lon="4.61688">
        <ele>612</ele>
        <time>2018-10-14T09:05:46Z</time>
      </trkpt>
      <trkpt lat="45.63097" lon="4.6169">
        <ele>612</ele>
        <time>2018-10-14T09:05:47Z</time>
      </trkpt>
      <trkpt lat="45.63099" lon="4.61693">
        <ele>611</ele>
        <time>2018-10-14T09:05:48Z</time>
      </trkpt>
      <trkpt lat="45.63101" lon="4.61699">
        <ele>611</ele>
        <time>2018-10-14T09:05:49Z</time>
      </trkpt>
      <trkpt lat="45.63107" lon="4.61708">
        <ele>612</ele>
        <time>2018-10-14T09:05:50Z</time>
      </trkpt>
      <trkpt lat="45.63109" lon="4.61711">
        <ele>612</ele>
        <time>2018-10-14T09:05:51Z</time>
      </trkpt>
      <trkpt lat="45.63112" lon="4.61715">
        <ele>611</ele>
        <time>2018-10-14T09:05:52Z</time>
      </trkpt>
      <trkpt lat="45.63114" lon="4.61718">
        <ele>612</ele>
        <time>2018-10-14T09:05:53Z</time>
      </trkpt>
      <trkpt lat="45.63116" lon="4.6172">
        <ele>620</ele>
        <time>2018-10-14T09:05:54Z</time>
      </trkpt>
      <trkpt lat="45.6312" lon="4.61722">
        <ele>618</ele>
        <time>2018-10-14T09:05:55Z</time>
      </trkpt>
      <trkpt lat="45.63122" lon="4.61725">
        <ele>612</ele>
        <time>2018-10-14T09:05:56Z</time>
      </trkpt>
      <trkpt lat="45.63123" lon="4.61728">
        <ele>612</ele>
        <time>2018-10-14T09:05:57Z</time>
      </trkpt>
      <trkpt lat="45.63125" lon="4.6173">
        <ele>612</ele>
        <time>2018-10-14T09:05:58Z</time>
      </trkpt>
      <trkpt lat="45.63125" lon="4.61732">
        <ele>613</ele>
        <time>2018-10-14T09:05:59Z</time>
      </trkpt>
      <trkpt lat="45.63126" lon="4.61734">
        <ele>613</ele>
        <time>2018-10-14T09:06:00Z</time>
      </trkpt>
      <trkpt lat="45.63126" lon="4.61736">
        <ele>613</ele>
        <time>2018-10-14T09:06:01Z</time>
      </trkpt>
      <trkpt lat="45.63127" lon="4.61739">
        <ele>613</ele>
        <time>2018-10-14T09:06:02Z</time>
      </trkpt>
      <trkpt lat="45.6313" lon="4.61753">
        <ele>613</ele>
        <time>2018-10-14T09:06:04Z</time>
      </trkpt>
      <trkpt lat="45.63131" lon="4.61759">
        <ele>614</ele>
        <time>2018-10-14T09:06:05Z</time>
      </trkpt>
      <trkpt lat="45.63133" lon="4.61765">
        <ele>614</ele>
        <time>2018-10-14T09:06:06Z</time>
      </trkpt>
      <trkpt lat="45.63139" lon="4.61769">
        <ele>613</ele>
        <time>2018-10-14T09:06:07Z</time>
      </trkpt>
      <trkpt lat="45.63141" lon="4.61772">
        <ele>612</ele>
        <time>2018-10-14T09:06:08Z</time>
      </trkpt>
      <trkpt lat="45.63145" lon="4.61775">
        <ele>612</ele>
        <time>2018-10-14T09:06:09Z</time>
      </trkpt>
      <trkpt lat="45.63148" lon="4.61779">
        <ele>613</ele>
        <time>2018-10-14T09:06:10Z</time>
      </trkpt>
      <trkpt lat="45.63152" lon="4.61782">
        <ele>613</ele>
        <time>2018-10-14T09:06:11Z</time>
      </trkpt>
      <trkpt lat="45.63155" lon="4.61781">
        <ele>613</ele>
        <time>2018-10-14T09:06:12Z</time>
      </trkpt>
      <trkpt lat="45.63157" lon="4.6178">
        <ele>613</ele>
        <time>2018-10-14T09:06:13Z</time>
      </trkpt>
      <trkpt lat="45.63157" lon="4.61777">
        <ele>613</ele>
        <time>2018-10-14T09:06:14Z</time>
      </trkpt>
      <trkpt lat="45.63157" lon="4.61774">
        <ele>613</ele>
        <time>2018-10-14T09:06:15Z</time>
      </trkpt>
      <trkpt lat="45.63156" lon="4.61771">
        <ele>613</ele>
        <time>2018-10-14T09:06:16Z</time>
      </trkpt>
      <trkpt lat="45.63155" lon="4.61769">
        <ele>613</ele>
        <time>2018-10-14T09:06:17Z</time>
      </trkpt>
      <trkpt lat="45.63155" lon="4.61767">
        <ele>614</ele>
        <time>2018-10-14T09:06:18Z</time>
      </trkpt>
      <trkpt lat="45.63154" lon="4.61764">
        <ele>614</ele>
        <time>2018-10-14T09:06:19Z</time>
      </trkpt>
      <trkpt lat="45.63154" lon="4.61762">
        <ele>615</ele>
        <time>2018-10-14T09:06:20Z</time>
      </trkpt>
      <trkpt lat="45.63154" lon="4.61759">
        <ele>615</ele>
        <time>2018-10-14T09:06:21Z</time>
      </trkpt>
      <trkpt lat="45.63153" lon="4.61757">
        <ele>615</ele>
        <time>2018-10-14T09:06:22Z</time>
      </trkpt>
      <trkpt lat="45.63153" lon="4.61754">
        <ele>616</ele>
        <time>2018-10-14T09:06:23Z</time>
      </trkpt>
      <trkpt lat="45.63152" lon="4.61751">
        <ele>616</ele>
        <time>2018-10-14T09:06:24Z</time>
      </trkpt>
      <trkpt lat="45.63152" lon="4.61749">
        <ele>616</ele>
        <time>2018-10-14T09:06:25Z</time>
      </trkpt>
      <trkpt lat="45.63151" lon="4.61746">
        <ele>617</ele>
        <time>2018-10-14T09:06:26Z</time>
      </trkpt>
      <trkpt lat="45.63151" lon="4.61743">
        <ele>617</ele>
        <time>2018-10-14T09:06:27Z</time>
      </trkpt>
      <trkpt lat="45.6315" lon="4.6174">
        <ele>617</ele>
        <time>2018-10-14T09:06:28Z</time>
      </trkpt>
      <trkpt lat="45.6315" lon="4.61735">
        <ele>618</ele>
        <time>2018-10-14T09:06:30Z</time>
      </trkpt>
      <trkpt lat="45.6315" lon="4.61732">
        <ele>619</ele>
        <time>2018-10-14T09:06:31Z</time>
      </trkpt>
      <trkpt lat="45.6315" lon="4.61729">
        <ele>618</ele>
        <time>2018-10-14T09:06:32Z</time>
      </trkpt>
      <trkpt lat="45.6315" lon="4.61725">
        <ele>618</ele>
        <time>2018-10-14T09:06:33Z</time>
      </trkpt>
      <trkpt lat="45.6315" lon="4.61722">
        <ele>618</ele>
        <time>2018-10-14T09:06:34Z</time>
      </trkpt>
      <trkpt lat="45.63151" lon="4.61719">
        <ele>619</ele>
        <time>2018-10-14T09:06:35Z</time>
      </trkpt>
      <trkpt lat="45.63151" lon="4.61716">
        <ele>618</ele>
        <time>2018-10-14T09:06:36Z</time>
      </trkpt>
      <trkpt lat="45.63152" lon="4.61714">
        <ele>618</ele>
        <time>2018-10-14T09:06:37Z</time>
      </trkpt>
      <trkpt lat="45.63152" lon="4.61711">
        <ele>619</ele>
        <time>2018-10-14T09:06:38Z</time>
      </trkpt>
      <trkpt lat="45.63152" lon="4.61708">
        <ele>620</ele>
        <time>2018-10-14T09:06:39Z</time>
      </trkpt>
      <trkpt lat="45.63152" lon="4.61706">
        <ele>620</ele>
        <time>2018-10-14T09:06:40Z</time>
      </trkpt>
      <trkpt lat="45.63152" lon="4.61702">
        <ele>622</ele>
        <time>2018-10-14T09:06:42Z</time>
      </trkpt>
      <trkpt lat="45.63151" lon="4.61699">
        <ele>622</ele>
        <time>2018-10-14T09:06:43Z</time>
      </trkpt>
      <trkpt lat="45.63151" lon="4.61696">
        <ele>623</ele>
        <time>2018-10-14T09:06:44Z</time>
      </trkpt>
      <trkpt lat="45.63151" lon="4.61693">
        <ele>623</ele>
        <time>2018-10-14T09:06:45Z</time>
      </trkpt>
      <trkpt lat="45.63152" lon="4.6169">
        <ele>623</ele>
        <time>2018-10-14T09:06:46Z</time>
      </trkpt>
      <trkpt lat="45.63152" lon="4.61688">
        <ele>623</ele>
        <time>2018-10-14T09:06:47Z</time>
      </trkpt>
      <trkpt lat="45.63152" lon="4.61685">
        <ele>624</ele>
        <time>2018-10-14T09:06:48Z</time>
      </trkpt>
      <trkpt lat="45.63153" lon="4.61683">
        <ele>624</ele>
        <time>2018-10-14T09:06:49Z</time>
      </trkpt>
      <trkpt lat="45.63154" lon="4.6168">
        <ele>624</ele>
        <time>2018-10-14T09:06:50Z</time>
      </trkpt>
      <trkpt lat="45.63154" lon="4.61678">
        <ele>624</ele>
        <time>2018-10-14T09:06:51Z</time>
      </trkpt>
      <trkpt lat="45.63154" lon="4.61676">
        <ele>624</ele>
        <time>2018-10-14T09:06:52Z</time>
      </trkpt>
      <trkpt lat="45.63154" lon="4.61674">
        <ele>625</ele>
        <time>2018-10-14T09:06:53Z</time>
      </trkpt>
      <trkpt lat="45.63155" lon="4.61672">
        <ele>624</ele>
        <time>2018-10-14T09:06:54Z</time>
      </trkpt>
      <trkpt lat="45.63155" lon="4.61669">
        <ele>624</ele>
        <time>2018-10-14T09:06:55Z</time>
      </trkpt>
      <trkpt lat="45.63156" lon="4.61667">
        <ele>624</ele>
        <time>2018-10-14T09:06:56Z</time>
      </trkpt>
      <trkpt lat="45.63157" lon="4.61665">
        <ele>624</ele>
        <time>2018-10-14T09:06:57Z</time>
      </trkpt>
      <trkpt lat="45.63159" lon="4.61664">
        <ele>625</ele>
        <time>2018-10-14T09:06:58Z</time>
      </trkpt>
      <trkpt lat="45.6316" lon="4.61663">
        <ele>625</ele>
        <time>2018-10-14T09:06:59Z</time>
      </trkpt>
      <trkpt lat="45.63162" lon="4.61663">
        <ele>626</ele>
        <time>2018-10-14T09:07:00Z</time>
      </trkpt>
      <trkpt lat="45.63164" lon="4.61662">
        <ele>626</ele>
        <time>2018-10-14T09:07:01Z</time>
      </trkpt>
      <trkpt lat="45.63166" lon="4.61662">
        <ele>626</ele>
        <time>2018-10-14T09:07:02Z</time>
      </trkpt>
      <trkpt lat="45.63169" lon="4.61661">
        <ele>626</ele>
        <time>2018-10-14T09:07:03Z</time>
      </trkpt>
      <trkpt lat="45.63171" lon="4.6166">
        <ele>627</ele>
        <time>2018-10-14T09:07:04Z</time>
      </trkpt>
      <trkpt lat="45.63173" lon="4.6166">
        <ele>627</ele>
        <time>2018-10-14T09:07:05Z</time>
      </trkpt>
      <trkpt lat="45.63174" lon="4.6166">
        <ele>627</ele>
        <time>2018-10-14T09:07:06Z</time>
      </trkpt>
      <trkpt lat="45.63176" lon="4.61659">
        <ele>627</ele>
        <time>2018-10-14T09:07:07Z</time>
      </trkpt>
      <trkpt lat="45.63178" lon="4.61659">
        <ele>627</ele>
        <time>2018-10-14T09:07:08Z</time>
      </trkpt>
      <trkpt lat="45.6318" lon="4.61659">
        <ele>628</ele>
        <time>2018-10-14T09:07:09Z</time>
      </trkpt>
      <trkpt lat="45.63181" lon="4.61659">
        <ele>628</ele>
        <time>2018-10-14T09:07:10Z</time>
      </trkpt>
      <trkpt lat="45.63183" lon="4.61659">
        <ele>628</ele>
        <time>2018-10-14T09:07:11Z</time>
      </trkpt>
      <trkpt lat="45.63185" lon="4.61659">
        <ele>629</ele>
        <time>2018-10-14T09:07:12Z</time>
      </trkpt>
      <trkpt lat="45.63186" lon="4.61658">
        <ele>629</ele>
        <time>2018-10-14T09:07:13Z</time>
      </trkpt>
      <trkpt lat="45.63187" lon="4.61657">
        <ele>629</ele>
        <time>2018-10-14T09:07:14Z</time>
      </trkpt>
      <trkpt lat="45.63189" lon="4.61656">
        <ele>629</ele>
        <time>2018-10-14T09:07:15Z</time>
      </trkpt>
      <trkpt lat="45.63191" lon="4.61654">
        <ele>629</ele>
        <time>2018-10-14T09:07:16Z</time>
      </trkpt>
      <trkpt lat="45.63193" lon="4.61652">
        <ele>629</ele>
        <time>2018-10-14T09:07:17Z</time>
      </trkpt>
      <trkpt lat="45.63194" lon="4.61651">
        <ele>629</ele>
        <time>2018-10-14T09:07:18Z</time>
      </trkpt>
      <trkpt lat="45.63195" lon="4.61649">
        <ele>629</ele>
        <time>2018-10-14T09:07:19Z</time>
      </trkpt>
      <trkpt lat="45.63197" lon="4.61646">
        <ele>629</ele>
        <time>2018-10-14T09:07:20Z</time>
      </trkpt>
      <trkpt lat="45.63198" lon="4.61644">
        <ele>630</ele>
        <time>2018-10-14T09:07:21Z</time>
      </trkpt>
      <trkpt lat="45.632" lon="4.61642">
        <ele>629</ele>
        <time>2018-10-14T09:07:22Z</time>
      </trkpt>
      <trkpt lat="45.63202" lon="4.6164">
        <ele>629</ele>
        <time>2018-10-14T09:07:23Z</time>
      </trkpt>
      <trkpt lat="45.63204" lon="4.61638">
        <ele>629</ele>
        <time>2018-10-14T09:07:24Z</time>
      </trkpt>
      <trkpt lat="45.63206" lon="4.61636">
        <ele>630</ele>
        <time>2018-10-14T09:07:25Z</time>
      </trkpt>
      <trkpt lat="45.63207" lon="4.61634">
        <ele>630</ele>
        <time>2018-10-14T09:07:26Z</time>
      </trkpt>
      <trkpt lat="45.63209" lon="4.61631">
        <ele>631</ele>
        <time>2018-10-14T09:07:27Z</time>
      </trkpt>
      <trkpt lat="45.6321" lon="4.61629">
        <ele>631</ele>
        <time>2018-10-14T09:07:28Z</time>
      </trkpt>
      <trkpt lat="45.63212" lon="4.61627">
        <ele>631</ele>
        <time>2018-10-14T09:07:29Z</time>
      </trkpt>
      <trkpt lat="45.63213" lon="4.61624">
        <ele>632</ele>
        <time>2018-10-14T09:07:30Z</time>
      </trkpt>
      <trkpt lat="45.63214" lon="4.61622">
        <ele>632</ele>
        <time>2018-10-14T09:07:31Z</time>
      </trkpt>
      <trkpt lat="45.63215" lon="4.6162">
        <ele>632</ele>
        <time>2018-10-14T09:07:32Z</time>
      </trkpt>
      <trkpt lat="45.63216" lon="4.61617">
        <ele>631</ele>
        <time>2018-10-14T09:07:33Z</time>
      </trkpt>
      <trkpt lat="45.63217" lon="4.61614">
        <ele>632</ele>
        <time>2018-10-14T09:07:34Z</time>
      </trkpt>
      <trkpt lat="45.63218" lon="4.61612">
        <ele>632</ele>
        <time>2018-10-14T09:07:35Z</time>
      </trkpt>
      <trkpt lat="45.6322" lon="4.61609">
        <ele>632</ele>
        <time>2018-10-14T09:07:36Z</time>
      </trkpt>
      <trkpt lat="45.6322" lon="4.61607">
        <ele>632</ele>
        <time>2018-10-14T09:07:37Z</time>
      </trkpt>
      <trkpt lat="45.63221" lon="4.61605">
        <ele>632</ele>
        <time>2018-10-14T09:07:38Z</time>
      </trkpt>
      <trkpt lat="45.63222" lon="4.61603">
        <ele>632</ele>
        <time>2018-10-14T09:07:39Z</time>
      </trkpt>
      <trkpt lat="45.63223" lon="4.616">
        <ele>632</ele>
        <time>2018-10-14T09:07:40Z</time>
      </trkpt>
      <trkpt lat="45.63224" lon="4.61598">
        <ele>632</ele>
        <time>2018-10-14T09:07:41Z</time>
      </trkpt>
      <trkpt lat="45.63225" lon="4.61595">
        <ele>632</ele>
        <time>2018-10-14T09:07:42Z</time>
      </trkpt>
      <trkpt lat="45.63226" lon="4.61592">
        <ele>632</ele>
        <time>2018-10-14T09:07:43Z</time>
      </trkpt>
      <trkpt lat="45.63227" lon="4.6159">
        <ele>633</ele>
        <time>2018-10-14T09:07:44Z</time>
      </trkpt>
      <trkpt lat="45.63228" lon="4.61588">
        <ele>632</ele>
        <time>2018-10-14T09:07:45Z</time>
      </trkpt>
      <trkpt lat="45.6323" lon="4.61585">
        <ele>633</ele>
        <time>2018-10-14T09:07:46Z</time>
      </trkpt>
      <trkpt lat="45.63231" lon="4.61583">
        <ele>633</ele>
        <time>2018-10-14T09:07:47Z</time>
      </trkpt>
      <trkpt lat="45.63232" lon="4.6158">
        <ele>633</ele>
        <time>2018-10-14T09:07:48Z</time>
      </trkpt>
      <trkpt lat="45.63234" lon="4.61579">
        <ele>634</ele>
        <time>2018-10-14T09:07:49Z</time>
      </trkpt>
      <trkpt lat="45.63235" lon="4.61577">
        <ele>634</ele>
        <time>2018-10-14T09:07:50Z</time>
      </trkpt>
      <trkpt lat="45.63236" lon="4.61575">
        <ele>635</ele>
        <time>2018-10-14T09:07:51Z</time>
      </trkpt>
      <trkpt lat="45.63238" lon="4.61573">
        <ele>635</ele>
        <time>2018-10-14T09:07:52Z</time>
      </trkpt>
      <trkpt lat="45.63239" lon="4.61571">
        <ele>635</ele>
        <time>2018-10-14T09:07:53Z</time>
      </trkpt>
      <trkpt lat="45.6324" lon="4.61569">
        <ele>635</ele>
        <time>2018-10-14T09:07:54Z</time>
      </trkpt>
      <trkpt lat="45.63242" lon="4.61568">
        <ele>635</ele>
        <time>2018-10-14T09:07:55Z</time>
      </trkpt>
      <trkpt lat="45.63243" lon="4.61565">
        <ele>635</ele>
        <time>2018-10-14T09:07:56Z</time>
      </trkpt>
      <trkpt lat="45.63244" lon="4.61564">
        <ele>635</ele>
        <time>2018-10-14T09:07:57Z</time>
      </trkpt>
      <trkpt lat="45.63245" lon="4.61562">
        <ele>635</ele>
        <time>2018-10-14T09:07:58Z</time>
      </trkpt>
      <trkpt lat="45.63247" lon="4.6156">
        <ele>636</ele>
        <time>2018-10-14T09:07:59Z</time>
      </trkpt>
      <trkpt lat="45.63249" lon="4.61558">
        <ele>636</ele>
        <time>2018-10-14T09:08:00Z</time>
      </trkpt>
      <trkpt lat="45.63251" lon="4.61556">
        <ele>636</ele>
        <time>2018-10-14T09:08:01Z</time>
      </trkpt>
      <trkpt lat="45.63253" lon="4.61554">
        <ele>636</ele>
        <time>2018-10-14T09:08:02Z</time>
      </trkpt>
      <trkpt lat="45.63254" lon="4.61552">
        <ele>636</ele>
        <time>2018-10-14T09:08:03Z</time>
      </trkpt>
      <trkpt lat="45.63256" lon="4.61549">
        <ele>637</ele>
        <time>2018-10-14T09:08:05Z</time>
      </trkpt>
      <trkpt lat="45.63257" lon="4.61547">
        <ele>637</ele>
        <time>2018-10-14T09:08:06Z</time>
      </trkpt>
      <trkpt lat="45.63258" lon="4.61545">
        <ele>638</ele>
        <time>2018-10-14T09:08:07Z</time>
      </trkpt>
      <trkpt lat="45.6326" lon="4.61542">
        <ele>638</ele>
        <time>2018-10-14T09:08:08Z</time>
      </trkpt>
      <trkpt lat="45.63261" lon="4.6154">
        <ele>638</ele>
        <time>2018-10-14T09:08:09Z</time>
      </trkpt>
      <trkpt lat="45.63263" lon="4.61537">
        <ele>638</ele>
        <time>2018-10-14T09:08:10Z</time>
      </trkpt>
      <trkpt lat="45.63265" lon="4.61535">
        <ele>638</ele>
        <time>2018-10-14T09:08:11Z</time>
      </trkpt>
      <trkpt lat="45.63266" lon="4.61533">
        <ele>639</ele>
        <time>2018-10-14T09:08:12Z</time>
      </trkpt>
      <trkpt lat="45.63268" lon="4.6153">
        <ele>639</ele>
        <time>2018-10-14T09:08:13Z</time>
      </trkpt>
      <trkpt lat="45.6327" lon="4.61528">
        <ele>640</ele>
        <time>2018-10-14T09:08:14Z</time>
      </trkpt>
      <trkpt lat="45.63271" lon="4.61526">
        <ele>640</ele>
        <time>2018-10-14T09:08:15Z</time>
      </trkpt>
      <trkpt lat="45.63273" lon="4.61524">
        <ele>639</ele>
        <time>2018-10-14T09:08:16Z</time>
      </trkpt>
      <trkpt lat="45.63274" lon="4.61523">
        <ele>639</ele>
        <time>2018-10-14T09:08:17Z</time>
      </trkpt>
      <trkpt lat="45.63276" lon="4.61521">
        <ele>639</ele>
        <time>2018-10-14T09:08:18Z</time>
      </trkpt>
      <trkpt lat="45.63278" lon="4.61519">
        <ele>639</ele>
        <time>2018-10-14T09:08:19Z</time>
      </trkpt>
      <trkpt lat="45.6328" lon="4.61516">
        <ele>639</ele>
        <time>2018-10-14T09:08:20Z</time>
      </trkpt>
      <trkpt lat="45.63282" lon="4.61514">
        <ele>639</ele>
        <time>2018-10-14T09:08:21Z</time>
      </trkpt>
      <trkpt lat="45.63282" lon="4.61511">
        <ele>639</ele>
        <time>2018-10-14T09:08:22Z</time>
      </trkpt>
      <trkpt lat="45.63283" lon="4.61509">
        <ele>640</ele>
        <time>2018-10-14T09:08:23Z</time>
      </trkpt>
      <trkpt lat="45.63284" lon="4.61507">
        <ele>641</ele>
        <time>2018-10-14T09:08:24Z</time>
      </trkpt>
      <trkpt lat="45.63285" lon="4.61506">
        <ele>641</ele>
        <time>2018-10-14T09:08:25Z</time>
      </trkpt>
      <trkpt lat="45.63287" lon="4.61505">
        <ele>641</ele>
        <time>2018-10-14T09:08:26Z</time>
      </trkpt>
      <trkpt lat="45.63288" lon="4.61505">
        <ele>640</ele>
        <time>2018-10-14T09:08:27Z</time>
      </trkpt>
      <trkpt lat="45.63288" lon="4.61503">
        <ele>640</ele>
        <time>2018-10-14T09:08:28Z</time>
      </trkpt>
      <trkpt lat="45.63289" lon="4.61502">
        <ele>640</ele>
        <time>2018-10-14T09:08:29Z</time>
      </trkpt>
      <trkpt lat="45.63291" lon="4.615">
        <ele>641</ele>
        <time>2018-10-14T09:08:30Z</time>
      </trkpt>
      <trkpt lat="45.63293" lon="4.61499">
        <ele>641</ele>
        <time>2018-10-14T09:08:31Z</time>
      </trkpt>
      <trkpt lat="45.63295" lon="4.61498">
        <ele>642</ele>
        <time>2018-10-14T09:08:32Z</time>
      </trkpt>
      <trkpt lat="45.63297" lon="4.61498">
        <ele>642</ele>
        <time>2018-10-14T09:08:33Z</time>
      </trkpt>
      <trkpt lat="45.63299" lon="4.61498">
        <ele>642</ele>
        <time>2018-10-14T09:08:34Z</time>
      </trkpt>
      <trkpt lat="45.63301" lon="4.61498">
        <ele>642</ele>
        <time>2018-10-14T09:08:35Z</time>
      </trkpt>
      <trkpt lat="45.63303" lon="4.61498">
        <ele>642</ele>
        <time>2018-10-14T09:08:36Z</time>
      </trkpt>
      <trkpt lat="45.63305" lon="4.61499">
        <ele>642</ele>
        <time>2018-10-14T09:08:37Z</time>
      </trkpt>
      <trkpt lat="45.63308" lon="4.61499">
        <ele>643</ele>
        <time>2018-10-14T09:08:38Z</time>
      </trkpt>
      <trkpt lat="45.6331" lon="4.61499">
        <ele>643</ele>
        <time>2018-10-14T09:08:39Z</time>
      </trkpt>
      <trkpt lat="45.63312" lon="4.615">
        <ele>643</ele>
        <time>2018-10-14T09:08:40Z</time>
      </trkpt>
      <trkpt lat="45.63314" lon="4.615">
        <ele>643</ele>
        <time>2018-10-14T09:08:41Z</time>
      </trkpt>
      <trkpt lat="45.63317" lon="4.61501">
        <ele>643</ele>
        <time>2018-10-14T09:08:42Z</time>
      </trkpt>
      <trkpt lat="45.63319" lon="4.61501">
        <ele>644</ele>
        <time>2018-10-14T09:08:43Z</time>
      </trkpt>
      <trkpt lat="45.63321" lon="4.61502">
        <ele>644</ele>
        <time>2018-10-14T09:08:44Z</time>
      </trkpt>
      <trkpt lat="45.63323" lon="4.61503">
        <ele>645</ele>
        <time>2018-10-14T09:08:45Z</time>
      </trkpt>
      <trkpt lat="45.63326" lon="4.61505">
        <ele>646</ele>
        <time>2018-10-14T09:08:46Z</time>
      </trkpt>
      <trkpt lat="45.63328" lon="4.61506">
        <ele>646</ele>
        <time>2018-10-14T09:08:47Z</time>
      </trkpt>
      <trkpt lat="45.6333" lon="4.61508">
        <ele>648</ele>
        <time>2018-10-14T09:08:48Z</time>
      </trkpt>
      <trkpt lat="45.63332" lon="4.6151">
        <ele>650</ele>
        <time>2018-10-14T09:08:49Z</time>
      </trkpt>
      <trkpt lat="45.63334" lon="4.61513">
        <ele>650</ele>
        <time>2018-10-14T09:08:50Z</time>
      </trkpt>
      <trkpt lat="45.63336" lon="4.61515">
        <ele>650</ele>
        <time>2018-10-14T09:08:51Z</time>
      </trkpt>
      <trkpt lat="45.63338" lon="4.61518">
        <ele>650</ele>
        <time>2018-10-14T09:08:52Z</time>
      </trkpt>
      <trkpt lat="45.6334" lon="4.6152">
        <ele>650</ele>
        <time>2018-10-14T09:08:53Z</time>
      </trkpt>
      <trkpt lat="45.63341" lon="4.61522">
        <ele>651</ele>
        <time>2018-10-14T09:08:54Z</time>
      </trkpt>
      <trkpt lat="45.63343" lon="4.61524">
        <ele>651</ele>
        <time>2018-10-14T09:08:55Z</time>
      </trkpt>
      <trkpt lat="45.63345" lon="4.61526">
        <ele>651</ele>
        <time>2018-10-14T09:08:56Z</time>
      </trkpt>
      <trkpt lat="45.63347" lon="4.61528">
        <ele>651</ele>
        <time>2018-10-14T09:08:57Z</time>
      </trkpt>
      <trkpt lat="45.63348" lon="4.61529">
        <ele>650</ele>
        <time>2018-10-14T09:08:58Z</time>
      </trkpt>
      <trkpt lat="45.63349" lon="4.61532">
        <ele>652</ele>
        <time>2018-10-14T09:08:59Z</time>
      </trkpt>
      <trkpt lat="45.63351" lon="4.61534">
        <ele>653</ele>
        <time>2018-10-14T09:09:00Z</time>
      </trkpt>
      <trkpt lat="45.63352" lon="4.61536">
        <ele>653</ele>
        <time>2018-10-14T09:09:01Z</time>
      </trkpt>
      <trkpt lat="45.63354" lon="4.61537">
        <ele>654</ele>
        <time>2018-10-14T09:09:02Z</time>
      </trkpt>
      <trkpt lat="45.63355" lon="4.61539">
        <ele>654</ele>
        <time>2018-10-14T09:09:03Z</time>
      </trkpt>
      <trkpt lat="45.63357" lon="4.6154">
        <ele>655</ele>
        <time>2018-10-14T09:09:04Z</time>
      </trkpt>
      <trkpt lat="45.63358" lon="4.61542">
        <ele>654</ele>
        <time>2018-10-14T09:09:05Z</time>
      </trkpt>
      <trkpt lat="45.6336" lon="4.61543">
        <ele>656</ele>
        <time>2018-10-14T09:09:06Z</time>
      </trkpt>
      <trkpt lat="45.63361" lon="4.61545">
        <ele>656</ele>
        <time>2018-10-14T09:09:07Z</time>
      </trkpt>
      <trkpt lat="45.63363" lon="4.61546">
        <ele>656</ele>
        <time>2018-10-14T09:09:08Z</time>
      </trkpt>
      <trkpt lat="45.63364" lon="4.61547">
        <ele>656</ele>
        <time>2018-10-14T09:09:09Z</time>
      </trkpt>
      <trkpt lat="45.63366" lon="4.61549">
        <ele>657</ele>
        <time>2018-10-14T09:09:10Z</time>
      </trkpt>
      <trkpt lat="45.63368" lon="4.6155">
        <ele>657</ele>
        <time>2018-10-14T09:09:11Z</time>
      </trkpt>
      <trkpt lat="45.6337" lon="4.61551">
        <ele>658</ele>
        <time>2018-10-14T09:09:12Z</time>
      </trkpt>
      <trkpt lat="45.63371" lon="4.61553">
        <ele>658</ele>
        <time>2018-10-14T09:09:13Z</time>
      </trkpt>
      <trkpt lat="45.63373" lon="4.61554">
        <ele>658</ele>
        <time>2018-10-14T09:09:14Z</time>
      </trkpt>
      <trkpt lat="45.63374" lon="4.61555">
        <ele>659</ele>
        <time>2018-10-14T09:09:15Z</time>
      </trkpt>
      <trkpt lat="45.63376" lon="4.61557">
        <ele>659</ele>
        <time>2018-10-14T09:09:16Z</time>
      </trkpt>
      <trkpt lat="45.63377" lon="4.61557">
        <ele>659</ele>
        <time>2018-10-14T09:09:17Z</time>
      </trkpt>
      <trkpt lat="45.63379" lon="4.61558">
        <ele>659</ele>
        <time>2018-10-14T09:09:18Z</time>
      </trkpt>
      <trkpt lat="45.63381" lon="4.6156">
        <ele>659</ele>
        <time>2018-10-14T09:09:19Z</time>
      </trkpt>
      <trkpt lat="45.63383" lon="4.61562">
        <ele>659</ele>
        <time>2018-10-14T09:09:20Z</time>
      </trkpt>
      <trkpt lat="45.63385" lon="4.61563">
        <ele>659</ele>
        <time>2018-10-14T09:09:21Z</time>
      </trkpt>
      <trkpt lat="45.63387" lon="4.61563">
        <ele>659</ele>
        <time>2018-10-14T09:09:22Z</time>
      </trkpt>
      <trkpt lat="45.63389" lon="4.61564">
        <ele>659</ele>
        <time>2018-10-14T09:09:23Z</time>
      </trkpt>
      <trkpt lat="45.63391" lon="4.61566">
        <ele>658</ele>
        <time>2018-10-14T09:09:24Z</time>
      </trkpt>
      <trkpt lat="45.63393" lon="4.61567">
        <ele>658</ele>
        <time>2018-10-14T09:09:25Z</time>
      </trkpt>
      <trkpt lat="45.63395" lon="4.61569">
        <ele>658</ele>
        <time>2018-10-14T09:09:26Z</time>
      </trkpt>
      <trkpt lat="45.63398" lon="4.61571">
        <ele>657</ele>
        <time>2018-10-14T09:09:27Z</time>
      </trkpt>
      <trkpt lat="45.634" lon="4.61574">
        <ele>656</ele>
        <time>2018-10-14T09:09:28Z</time>
      </trkpt>
      <trkpt lat="45.63403" lon="4.61576">
        <ele>655</ele>
        <time>2018-10-14T09:09:29Z</time>
      </trkpt>
      <trkpt lat="45.63407" lon="4.61578">
        <ele>655</ele>
        <time>2018-10-14T09:09:30Z</time>
      </trkpt>
      <trkpt lat="45.63411" lon="4.6158">
        <ele>654</ele>
        <time>2018-10-14T09:09:31Z</time>
      </trkpt>
      <trkpt lat="45.63414" lon="4.61582">
        <ele>654</ele>
        <time>2018-10-14T09:09:32Z</time>
      </trkpt>
      <trkpt lat="45.63419" lon="4.61584">
        <ele>654</ele>
        <time>2018-10-14T09:09:33Z</time>
      </trkpt>
      <trkpt lat="45.63423" lon="4.61585">
        <ele>654</ele>
        <time>2018-10-14T09:09:34Z</time>
      </trkpt>
      <trkpt lat="45.63428" lon="4.61587">
        <ele>653</ele>
        <time>2018-10-14T09:09:35Z</time>
      </trkpt>
      <trkpt lat="45.63433" lon="4.61588">
        <ele>653</ele>
        <time>2018-10-14T09:09:36Z</time>
      </trkpt>
      <trkpt lat="45.63438" lon="4.61588">
        <ele>652</ele>
        <time>2018-10-14T09:09:37Z</time>
      </trkpt>
      <trkpt lat="45.63443" lon="4.61588">
        <ele>651</ele>
        <time>2018-10-14T09:09:38Z</time>
      </trkpt>
      <trkpt lat="45.63447" lon="4.61587">
        <ele>651</ele>
        <time>2018-10-14T09:09:39Z</time>
      </trkpt>
      <trkpt lat="45.63453" lon="4.61585">
        <ele>649</ele>
        <time>2018-10-14T09:09:40Z</time>
      </trkpt>
      <trkpt lat="45.63473" lon="4.61578">
        <ele>648</ele>
        <time>2018-10-14T09:09:41Z</time>
      </trkpt>
      <trkpt lat="45.63477" lon="4.61574">
        <ele>647</ele>
        <time>2018-10-14T09:09:42Z</time>
      </trkpt>
      <trkpt lat="45.63491" lon="4.61563">
        <ele>643</ele>
        <time>2018-10-14T09:09:43Z</time>
      </trkpt>
      <trkpt lat="45.63495" lon="4.61556">
        <ele>642</ele>
        <time>2018-10-14T09:09:44Z</time>
      </trkpt>
      <trkpt lat="45.63499" lon="4.6155">
        <ele>641</ele>
        <time>2018-10-14T09:09:45Z</time>
      </trkpt>
      <trkpt lat="45.63502" lon="4.61542">
        <ele>640</ele>
        <time>2018-10-14T09:09:46Z</time>
      </trkpt>
      <trkpt lat="45.63506" lon="4.61535">
        <ele>640</ele>
        <time>2018-10-14T09:09:47Z</time>
      </trkpt>
      <trkpt lat="45.6351" lon="4.61527">
        <ele>639</ele>
        <time>2018-10-14T09:09:48Z</time>
      </trkpt>
      <trkpt lat="45.63516" lon="4.61516">
        <ele>637</ele>
        <time>2018-10-14T09:09:49Z</time>
      </trkpt>
      <trkpt lat="45.6352" lon="4.61506">
        <ele>638</ele>
        <time>2018-10-14T09:09:50Z</time>
      </trkpt>
      <trkpt lat="45.63524" lon="4.61496">
        <ele>639</ele>
        <time>2018-10-14T09:09:51Z</time>
      </trkpt>
      <trkpt lat="45.63527" lon="4.61487">
        <ele>639</ele>
        <time>2018-10-14T09:09:52Z</time>
      </trkpt>
      <trkpt lat="45.63531" lon="4.61478">
        <ele>639</ele>
        <time>2018-10-14T09:09:53Z</time>
      </trkpt>
      <trkpt lat="45.63536" lon="4.61471">
        <ele>640</ele>
        <time>2018-10-14T09:09:54Z</time>
      </trkpt>
      <trkpt lat="45.63541" lon="4.61466">
        <ele>640</ele>
        <time>2018-10-14T09:09:55Z</time>
      </trkpt>
      <trkpt lat="45.63548" lon="4.61464">
        <ele>639</ele>
        <time>2018-10-14T09:09:56Z</time>
      </trkpt>
      <trkpt lat="45.63554" lon="4.61462">
        <ele>639</ele>
        <time>2018-10-14T09:09:57Z</time>
      </trkpt>
      <trkpt lat="45.63561" lon="4.61461">
        <ele>639</ele>
        <time>2018-10-14T09:09:58Z</time>
      </trkpt>
      <trkpt lat="45.63568" lon="4.61459">
        <ele>639</ele>
        <time>2018-10-14T09:09:59Z</time>
      </trkpt>
      <trkpt lat="45.63573" lon="4.61457">
        <ele>639</ele>
        <time>2018-10-14T09:10:00Z</time>
      </trkpt>
      <trkpt lat="45.63578" lon="4.61455">
        <ele>637</ele>
        <time>2018-10-14T09:10:01Z</time>
      </trkpt>
      <trkpt lat="45.63583" lon="4.61455">
        <ele>638</ele>
        <time>2018-10-14T09:10:02Z</time>
      </trkpt>
      <trkpt lat="45.63589" lon="4.61456">
        <ele>639</ele>
        <time>2018-10-14T09:10:03Z</time>
      </trkpt>
      <trkpt lat="45.63593" lon="4.61457">
        <ele>639</ele>
        <time>2018-10-14T09:10:04Z</time>
      </trkpt>
      <trkpt lat="45.63596" lon="4.61458">
        <ele>638</ele>
        <time>2018-10-14T09:10:05Z</time>
      </trkpt>
      <trkpt lat="45.63599" lon="4.61459">
        <ele>637</ele>
        <time>2018-10-14T09:10:06Z</time>
      </trkpt>
      <trkpt lat="45.63601" lon="4.61461">
        <ele>638</ele>
        <time>2018-10-14T09:10:07Z</time>
      </trkpt>
      <trkpt lat="45.63604" lon="4.61462">
        <ele>639</ele>
        <time>2018-10-14T09:10:08Z</time>
      </trkpt>
      <trkpt lat="45.63607" lon="4.61462">
        <ele>638</ele>
        <time>2018-10-14T09:10:09Z</time>
      </trkpt>
      <trkpt lat="45.6361" lon="4.61463">
        <ele>638</ele>
        <time>2018-10-14T09:10:10Z</time>
      </trkpt>
      <trkpt lat="45.63612" lon="4.61463">
        <ele>637</ele>
        <time>2018-10-14T09:10:11Z</time>
      </trkpt>
      <trkpt lat="45.63612" lon="4.61463">
        <ele>637</ele>
        <time>2018-10-14T09:10:12Z</time>
      </trkpt>
      <trkpt lat="45.63614" lon="4.61465">
        <ele>637</ele>
        <time>2018-10-14T09:10:13Z</time>
      </trkpt>
      <trkpt lat="45.63615" lon="4.61467">
        <ele>637</ele>
        <time>2018-10-14T09:10:14Z</time>
      </trkpt>
      <trkpt lat="45.63616" lon="4.61468">
        <ele>637</ele>
        <time>2018-10-14T09:10:15Z</time>
      </trkpt>
      <trkpt lat="45.63617" lon="4.6147">
        <ele>637</ele>
        <time>2018-10-14T09:10:16Z</time>
      </trkpt>
      <trkpt lat="45.63619" lon="4.61472">
        <ele>636</ele>
        <time>2018-10-14T09:10:17Z</time>
      </trkpt>
      <trkpt lat="45.63621" lon="4.61476">
        <ele>637</ele>
        <time>2018-10-14T09:10:18Z</time>
      </trkpt>
      <trkpt lat="45.63623" lon="4.6148">
        <ele>636</ele>
        <time>2018-10-14T09:10:19Z</time>
      </trkpt>
      <trkpt lat="45.63625" lon="4.61484">
        <ele>635</ele>
        <time>2018-10-14T09:10:20Z</time>
      </trkpt>
      <trkpt lat="45.63627" lon="4.61489">
        <ele>635</ele>
        <time>2018-10-14T09:10:21Z</time>
      </trkpt>
      <trkpt lat="45.6363" lon="4.61497">
        <ele>635</ele>
        <time>2018-10-14T09:10:22Z</time>
      </trkpt>
      <trkpt lat="45.63633" lon="4.61503">
        <ele>634</ele>
        <time>2018-10-14T09:10:23Z</time>
      </trkpt>
      <trkpt lat="45.63636" lon="4.61506">
        <ele>635</ele>
        <time>2018-10-14T09:10:24Z</time>
      </trkpt>
      <trkpt lat="45.6364" lon="4.61507">
        <ele>636</ele>
        <time>2018-10-14T09:10:25Z</time>
      </trkpt>
      <trkpt lat="45.63642" lon="4.61507">
        <ele>639</ele>
        <time>2018-10-14T09:10:26Z</time>
      </trkpt>
      <trkpt lat="45.63646" lon="4.61506">
        <ele>638</ele>
        <time>2018-10-14T09:10:27Z</time>
      </trkpt>
      <trkpt lat="45.6365" lon="4.61504">
        <ele>639</ele>
        <time>2018-10-14T09:10:28Z</time>
      </trkpt>
      <trkpt lat="45.63654" lon="4.61502">
        <ele>638</ele>
        <time>2018-10-14T09:10:29Z</time>
      </trkpt>
      <trkpt lat="45.63659" lon="4.61499">
        <ele>638</ele>
        <time>2018-10-14T09:10:30Z</time>
      </trkpt>
      <trkpt lat="45.63664" lon="4.61497">
        <ele>638</ele>
        <time>2018-10-14T09:10:31Z</time>
      </trkpt>
      <trkpt lat="45.63668" lon="4.61495">
        <ele>638</ele>
        <time>2018-10-14T09:10:32Z</time>
      </trkpt>
      <trkpt lat="45.63672" lon="4.61492">
        <ele>637</ele>
        <time>2018-10-14T09:10:33Z</time>
      </trkpt>
      <trkpt lat="45.63677" lon="4.6149">
        <ele>637</ele>
        <time>2018-10-14T09:10:34Z</time>
      </trkpt>
      <trkpt lat="45.6368" lon="4.61489">
        <ele>637</ele>
        <time>2018-10-14T09:10:35Z</time>
      </trkpt>
      <trkpt lat="45.63684" lon="4.61487">
        <ele>636</ele>
        <time>2018-10-14T09:10:36Z</time>
      </trkpt>
      <trkpt lat="45.63688" lon="4.61486">
        <ele>637</ele>
        <time>2018-10-14T09:10:37Z</time>
      </trkpt>
      <trkpt lat="45.63691" lon="4.61484">
        <ele>637</ele>
        <time>2018-10-14T09:10:38Z</time>
      </trkpt>
      <trkpt lat="45.63693" lon="4.61483">
        <ele>637</ele>
        <time>2018-10-14T09:10:39Z</time>
      </trkpt>
      <trkpt lat="45.63695" lon="4.61482">
        <ele>637</ele>
        <time>2018-10-14T09:10:40Z</time>
      </trkpt>
      <trkpt lat="45.63697" lon="4.61481">
        <ele>637</ele>
        <time>2018-10-14T09:10:41Z</time>
      </trkpt>
      <trkpt lat="45.63698" lon="4.61481">
        <ele>638</ele>
        <time>2018-10-14T09:10:42Z</time>
      </trkpt>
      <trkpt lat="45.637" lon="4.6148">
        <ele>638</ele>
        <time>2018-10-14T09:10:43Z</time>
      </trkpt>
      <trkpt lat="45.63704" lon="4.61478">
        <ele>638</ele>
        <time>2018-10-14T09:10:44Z</time>
      </trkpt>
      <trkpt lat="45.63708" lon="4.61476">
        <ele>639</ele>
        <time>2018-10-14T09:10:45Z</time>
      </trkpt>
      <trkpt lat="45.63714" lon="4.61474">
        <ele>640</ele>
        <time>2018-10-14T09:10:46Z</time>
      </trkpt>
      <trkpt lat="45.63717" lon="4.61473">
        <ele>641</ele>
        <time>2018-10-14T09:10:47Z</time>
      </trkpt>
      <trkpt lat="45.6372" lon="4.61472">
        <ele>641</ele>
        <time>2018-10-14T09:10:48Z</time>
      </trkpt>
      <trkpt lat="45.63723" lon="4.61472">
        <ele>640</ele>
        <time>2018-10-14T09:10:49Z</time>
      </trkpt>
      <trkpt lat="45.63726" lon="4.61471">
        <ele>641</ele>
        <time>2018-10-14T09:10:50Z</time>
      </trkpt>
      <trkpt lat="45.63728" lon="4.61471">
        <ele>641</ele>
        <time>2018-10-14T09:10:51Z</time>
      </trkpt>
      <trkpt lat="45.63731" lon="4.61471">
        <ele>641</ele>
        <time>2018-10-14T09:10:52Z</time>
      </trkpt>
      <trkpt lat="45.63734" lon="4.6147">
        <ele>641</ele>
        <time>2018-10-14T09:10:53Z</time>
      </trkpt>
      <trkpt lat="45.63736" lon="4.6147">
        <ele>642</ele>
        <time>2018-10-14T09:10:54Z</time>
      </trkpt>
      <trkpt lat="45.63739" lon="4.61471">
        <ele>642</ele>
        <time>2018-10-14T09:10:56Z</time>
      </trkpt>
      <trkpt lat="45.6374" lon="4.61471">
        <ele>642</ele>
        <time>2018-10-14T09:10:57Z</time>
      </trkpt>
      <trkpt lat="45.63742" lon="4.61472">
        <ele>642</ele>
        <time>2018-10-14T09:10:58Z</time>
      </trkpt>
      <trkpt lat="45.63744" lon="4.61473">
        <ele>643</ele>
        <time>2018-10-14T09:10:59Z</time>
      </trkpt>
      <trkpt lat="45.63746" lon="4.61475">
        <ele>643</ele>
        <time>2018-10-14T09:11:00Z</time>
      </trkpt>
      <trkpt lat="45.63748" lon="4.61477">
        <ele>644</ele>
        <time>2018-10-14T09:11:01Z</time>
      </trkpt>
      <trkpt lat="45.63749" lon="4.6148">
        <ele>644</ele>
        <time>2018-10-14T09:11:02Z</time>
      </trkpt>
      <trkpt lat="45.63751" lon="4.61482">
        <ele>644</ele>
        <time>2018-10-14T09:11:03Z</time>
      </trkpt>
      <trkpt lat="45.63753" lon="4.61485">
        <ele>645</ele>
        <time>2018-10-14T09:11:04Z</time>
      </trkpt>
      <trkpt lat="45.63754" lon="4.61488">
        <ele>645</ele>
        <time>2018-10-14T09:11:05Z</time>
      </trkpt>
      <trkpt lat="45.63756" lon="4.6149">
        <ele>646</ele>
        <time>2018-10-14T09:11:06Z</time>
      </trkpt>
      <trkpt lat="45.63757" lon="4.61493">
        <ele>646</ele>
        <time>2018-10-14T09:11:07Z</time>
      </trkpt>
      <trkpt lat="45.63759" lon="4.61495">
        <ele>646</ele>
        <time>2018-10-14T09:11:08Z</time>
      </trkpt>
      <trkpt lat="45.6376" lon="4.61497">
        <ele>646</ele>
        <time>2018-10-14T09:11:09Z</time>
      </trkpt>
      <trkpt lat="45.63761" lon="4.61499">
        <ele>646</ele>
        <time>2018-10-14T09:11:10Z</time>
      </trkpt>
      <trkpt lat="45.63762" lon="4.61501">
        <ele>647</ele>
        <time>2018-10-14T09:11:11Z</time>
      </trkpt>
      <trkpt lat="45.63763" lon="4.61504">
        <ele>647</ele>
        <time>2018-10-14T09:11:12Z</time>
      </trkpt>
      <trkpt lat="45.63765" lon="4.61507">
        <ele>647</ele>
        <time>2018-10-14T09:11:13Z</time>
      </trkpt>
      <trkpt lat="45.63767" lon="4.6151">
        <ele>647</ele>
        <time>2018-10-14T09:11:14Z</time>
      </trkpt>
      <trkpt lat="45.63768" lon="4.61512">
        <ele>647</ele>
        <time>2018-10-14T09:11:15Z</time>
      </trkpt>
      <trkpt lat="45.63769" lon="4.61515">
        <ele>648</ele>
        <time>2018-10-14T09:11:16Z</time>
      </trkpt>
      <trkpt lat="45.6377" lon="4.61518">
        <ele>648</ele>
        <time>2018-10-14T09:11:17Z</time>
      </trkpt>
      <trkpt lat="45.63771" lon="4.6152">
        <ele>648</ele>
        <time>2018-10-14T09:11:18Z</time>
      </trkpt>
      <trkpt lat="45.63771" lon="4.61523">
        <ele>648</ele>
        <time>2018-10-14T09:11:19Z</time>
      </trkpt>
      <trkpt lat="45.63772" lon="4.61525">
        <ele>649</ele>
        <time>2018-10-14T09:11:20Z</time>
      </trkpt>
      <trkpt lat="45.63772" lon="4.61528">
        <ele>649</ele>
        <time>2018-10-14T09:11:21Z</time>
      </trkpt>
      <trkpt lat="45.63772" lon="4.61531">
        <ele>649</ele>
        <time>2018-10-14T09:11:22Z</time>
      </trkpt>
      <trkpt lat="45.63773" lon="4.61534">
        <ele>649</ele>
        <time>2018-10-14T09:11:23Z</time>
      </trkpt>
      <trkpt lat="45.63773" lon="4.61536">
        <ele>650</ele>
        <time>2018-10-14T09:11:24Z</time>
      </trkpt>
      <trkpt lat="45.63774" lon="4.61539">
        <ele>651</ele>
        <time>2018-10-14T09:11:25Z</time>
      </trkpt>
      <trkpt lat="45.63775" lon="4.61544">
        <ele>651</ele>
        <time>2018-10-14T09:11:27Z</time>
      </trkpt>
      <trkpt lat="45.63776" lon="4.61546">
        <ele>652</ele>
        <time>2018-10-14T09:11:28Z</time>
      </trkpt>
      <trkpt lat="45.63776" lon="4.61549">
        <ele>652</ele>
        <time>2018-10-14T09:11:29Z</time>
      </trkpt>
      <trkpt lat="45.63777" lon="4.61552">
        <ele>652</ele>
        <time>2018-10-14T09:11:30Z</time>
      </trkpt>
      <trkpt lat="45.63777" lon="4.61554">
        <ele>652</ele>
        <time>2018-10-14T09:11:31Z</time>
      </trkpt>
      <trkpt lat="45.63777" lon="4.61556">
        <ele>653</ele>
        <time>2018-10-14T09:11:32Z</time>
      </trkpt>
      <trkpt lat="45.63778" lon="4.6156">
        <ele>654</ele>
        <time>2018-10-14T09:11:33Z</time>
      </trkpt>
      <trkpt lat="45.63778" lon="4.61563">
        <ele>655</ele>
        <time>2018-10-14T09:11:34Z</time>
      </trkpt>
      <trkpt lat="45.63779" lon="4.61565">
        <ele>655</ele>
        <time>2018-10-14T09:11:35Z</time>
      </trkpt>
      <trkpt lat="45.6378" lon="4.61568">
        <ele>655</ele>
        <time>2018-10-14T09:11:36Z</time>
      </trkpt>
      <trkpt lat="45.63781" lon="4.6157">
        <ele>656</ele>
        <time>2018-10-14T09:11:37Z</time>
      </trkpt>
      <trkpt lat="45.63782" lon="4.61572">
        <ele>656</ele>
        <time>2018-10-14T09:11:38Z</time>
      </trkpt>
      <trkpt lat="45.63784" lon="4.61574">
        <ele>656</ele>
        <time>2018-10-14T09:11:39Z</time>
      </trkpt>
      <trkpt lat="45.63786" lon="4.61576">
        <ele>656</ele>
        <time>2018-10-14T09:11:40Z</time>
      </trkpt>
      <trkpt lat="45.63787" lon="4.61578">
        <ele>656</ele>
        <time>2018-10-14T09:11:41Z</time>
      </trkpt>
      <trkpt lat="45.63788" lon="4.6158">
        <ele>657</ele>
        <time>2018-10-14T09:11:42Z</time>
      </trkpt>
      <trkpt lat="45.63789" lon="4.61583">
        <ele>657</ele>
        <time>2018-10-14T09:11:43Z</time>
      </trkpt>
      <trkpt lat="45.6379" lon="4.61585">
        <ele>658</ele>
        <time>2018-10-14T09:11:44Z</time>
      </trkpt>
      <trkpt lat="45.63791" lon="4.61587">
        <ele>658</ele>
        <time>2018-10-14T09:11:45Z</time>
      </trkpt>
      <trkpt lat="45.63792" lon="4.61589">
        <ele>659</ele>
        <time>2018-10-14T09:11:46Z</time>
      </trkpt>
      <trkpt lat="45.63793" lon="4.61591">
        <ele>659</ele>
        <time>2018-10-14T09:11:47Z</time>
      </trkpt>
      <trkpt lat="45.63794" lon="4.61593">
        <ele>659</ele>
        <time>2018-10-14T09:11:48Z</time>
      </trkpt>
      <trkpt lat="45.63795" lon="4.61595">
        <ele>659</ele>
        <time>2018-10-14T09:11:49Z</time>
      </trkpt>
      <trkpt lat="45.63797" lon="4.61595">
        <ele>660</ele>
        <time>2018-10-14T09:11:50Z</time>
      </trkpt>
      <trkpt lat="45.63798" lon="4.61594">
        <ele>660</ele>
        <time>2018-10-14T09:11:51Z</time>
      </trkpt>
      <trkpt lat="45.63799" lon="4.61592">
        <ele>660</ele>
        <time>2018-10-14T09:11:52Z</time>
      </trkpt>
      <trkpt lat="45.638" lon="4.61591">
        <ele>660</ele>
        <time>2018-10-14T09:11:53Z</time>
      </trkpt>
      <trkpt lat="45.63801" lon="4.61589">
        <ele>660</ele>
        <time>2018-10-14T09:11:54Z</time>
      </trkpt>
      <trkpt lat="45.63803" lon="4.61588">
        <ele>661</ele>
        <time>2018-10-14T09:11:55Z</time>
      </trkpt>
      <trkpt lat="45.63804" lon="4.61587">
        <ele>661</ele>
        <time>2018-10-14T09:11:56Z</time>
      </trkpt>
      <trkpt lat="45.63805" lon="4.61585">
        <ele>661</ele>
        <time>2018-10-14T09:11:57Z</time>
      </trkpt>
      <trkpt lat="45.63807" lon="4.61583">
        <ele>661</ele>
        <time>2018-10-14T09:11:58Z</time>
      </trkpt>
      <trkpt lat="45.63808" lon="4.61581">
        <ele>661</ele>
        <time>2018-10-14T09:11:59Z</time>
      </trkpt>
      <trkpt lat="45.63809" lon="4.61579">
        <ele>661</ele>
        <time>2018-10-14T09:12:00Z</time>
      </trkpt>
      <trkpt lat="45.6381" lon="4.61577">
        <ele>662</ele>
        <time>2018-10-14T09:12:01Z</time>
      </trkpt>
      <trkpt lat="45.63812" lon="4.61575">
        <ele>662</ele>
        <time>2018-10-14T09:12:02Z</time>
      </trkpt>
      <trkpt lat="45.63813" lon="4.61573">
        <ele>662</ele>
        <time>2018-10-14T09:12:03Z</time>
      </trkpt>
      <trkpt lat="45.63814" lon="4.61571">
        <ele>663</ele>
        <time>2018-10-14T09:12:04Z</time>
      </trkpt>
      <trkpt lat="45.63815" lon="4.61569">
        <ele>663</ele>
        <time>2018-10-14T09:12:05Z</time>
      </trkpt>
      <trkpt lat="45.63817" lon="4.61567">
        <ele>664</ele>
        <time>2018-10-14T09:12:06Z</time>
      </trkpt>
      <trkpt lat="45.63818" lon="4.61566">
        <ele>664</ele>
        <time>2018-10-14T09:12:07Z</time>
      </trkpt>
      <trkpt lat="45.63819" lon="4.61564">
        <ele>664</ele>
        <time>2018-10-14T09:12:08Z</time>
      </trkpt>
      <trkpt lat="45.63821" lon="4.61562">
        <ele>665</ele>
        <time>2018-10-14T09:12:09Z</time>
      </trkpt>
      <trkpt lat="45.63822" lon="4.61561">
        <ele>665</ele>
        <time>2018-10-14T09:12:10Z</time>
      </trkpt>
      <trkpt lat="45.63823" lon="4.61559">
        <ele>666</ele>
        <time>2018-10-14T09:12:11Z</time>
      </trkpt>
      <trkpt lat="45.63825" lon="4.61557">
        <ele>666</ele>
        <time>2018-10-14T09:12:12Z</time>
      </trkpt>
      <trkpt lat="45.63826" lon="4.61555">
        <ele>666</ele>
        <time>2018-10-14T09:12:13Z</time>
      </trkpt>
      <trkpt lat="45.63828" lon="4.61553">
        <ele>666</ele>
        <time>2018-10-14T09:12:14Z</time>
      </trkpt>
      <trkpt lat="45.63828" lon="4.61551">
        <ele>666</ele>
        <time>2018-10-14T09:12:15Z</time>
      </trkpt>
      <trkpt lat="45.6383" lon="4.61549">
        <ele>667</ele>
        <time>2018-10-14T09:12:16Z</time>
      </trkpt>
      <trkpt lat="45.63831" lon="4.61547">
        <ele>667</ele>
        <time>2018-10-14T09:12:17Z</time>
      </trkpt>
      <trkpt lat="45.63832" lon="4.61545">
        <ele>667</ele>
        <time>2018-10-14T09:12:18Z</time>
      </trkpt>
      <trkpt lat="45.63833" lon="4.61544">
        <ele>667</ele>
        <time>2018-10-14T09:12:19Z</time>
      </trkpt>
      <trkpt lat="45.63834" lon="4.61542">
        <ele>667</ele>
        <time>2018-10-14T09:12:20Z</time>
      </trkpt>
      <trkpt lat="45.63836" lon="4.6154">
        <ele>668</ele>
        <time>2018-10-14T09:12:21Z</time>
      </trkpt>
      <trkpt lat="45.63837" lon="4.61539">
        <ele>668</ele>
        <time>2018-10-14T09:12:22Z</time>
      </trkpt>
      <trkpt lat="45.63838" lon="4.61538">
        <ele>668</ele>
        <time>2018-10-14T09:12:23Z</time>
      </trkpt>
      <trkpt lat="45.63839" lon="4.61537">
        <ele>669</ele>
        <time>2018-10-14T09:12:24Z</time>
      </trkpt>
      <trkpt lat="45.63841" lon="4.61535">
        <ele>670</ele>
        <time>2018-10-14T09:12:25Z</time>
      </trkpt>
      <trkpt lat="45.63842" lon="4.61533">
        <ele>670</ele>
        <time>2018-10-14T09:12:26Z</time>
      </trkpt>
      <trkpt lat="45.63844" lon="4.61531">
        <ele>671</ele>
        <time>2018-10-14T09:12:27Z</time>
      </trkpt>
      <trkpt lat="45.63845" lon="4.6153">
        <ele>670</ele>
        <time>2018-10-14T09:12:28Z</time>
      </trkpt>
      <trkpt lat="45.63847" lon="4.61529">
        <ele>671</ele>
        <time>2018-10-14T09:12:29Z</time>
      </trkpt>
      <trkpt lat="45.63848" lon="4.61528">
        <ele>671</ele>
        <time>2018-10-14T09:12:30Z</time>
      </trkpt>
      <trkpt lat="45.63849" lon="4.61527">
        <ele>672</ele>
        <time>2018-10-14T09:12:31Z</time>
      </trkpt>
      <trkpt lat="45.63849" lon="4.61526">
        <ele>672</ele>
        <time>2018-10-14T09:12:32Z</time>
      </trkpt>
      <trkpt lat="45.6385" lon="4.61525">
        <ele>672</ele>
        <time>2018-10-14T09:12:33Z</time>
      </trkpt>
      <trkpt lat="45.63852" lon="4.61523">
        <ele>672</ele>
        <time>2018-10-14T09:12:34Z</time>
      </trkpt>
      <trkpt lat="45.63854" lon="4.61522">
        <ele>672</ele>
        <time>2018-10-14T09:12:35Z</time>
      </trkpt>
      <trkpt lat="45.63855" lon="4.6152">
        <ele>672</ele>
        <time>2018-10-14T09:12:36Z</time>
      </trkpt>
      <trkpt lat="45.63857" lon="4.61518">
        <ele>672</ele>
        <time>2018-10-14T09:12:37Z</time>
      </trkpt>
      <trkpt lat="45.63859" lon="4.61517">
        <ele>672</ele>
        <time>2018-10-14T09:12:38Z</time>
      </trkpt>
      <trkpt lat="45.63861" lon="4.61514">
        <ele>673</ele>
        <time>2018-10-14T09:12:39Z</time>
      </trkpt>
      <trkpt lat="45.63863" lon="4.61513">
        <ele>673</ele>
        <time>2018-10-14T09:12:40Z</time>
      </trkpt>
      <trkpt lat="45.63864" lon="4.61511">
        <ele>673</ele>
        <time>2018-10-14T09:12:41Z</time>
      </trkpt>
      <trkpt lat="45.63866" lon="4.6151">
        <ele>673</ele>
        <time>2018-10-14T09:12:42Z</time>
      </trkpt>
      <trkpt lat="45.63868" lon="4.61508">
        <ele>673</ele>
        <time>2018-10-14T09:12:43Z</time>
      </trkpt>
      <trkpt lat="45.6387" lon="4.61506">
        <ele>673</ele>
        <time>2018-10-14T09:12:44Z</time>
      </trkpt>
      <trkpt lat="45.63871" lon="4.61504">
        <ele>674</ele>
        <time>2018-10-14T09:12:45Z</time>
      </trkpt>
      <trkpt lat="45.63873" lon="4.61503">
        <ele>673</ele>
        <time>2018-10-14T09:12:46Z</time>
      </trkpt>
      <trkpt lat="45.63874" lon="4.61501">
        <ele>674</ele>
        <time>2018-10-14T09:12:47Z</time>
      </trkpt>
      <trkpt lat="45.63875" lon="4.615">
        <ele>675</ele>
        <time>2018-10-14T09:12:48Z</time>
      </trkpt>
      <trkpt lat="45.63877" lon="4.61498">
        <ele>675</ele>
        <time>2018-10-14T09:12:49Z</time>
      </trkpt>
      <trkpt lat="45.63879" lon="4.61498">
        <ele>676</ele>
        <time>2018-10-14T09:12:50Z</time>
      </trkpt>
      <trkpt lat="45.6388" lon="4.61497">
        <ele>676</ele>
        <time>2018-10-14T09:12:51Z</time>
      </trkpt>
      <trkpt lat="45.63882" lon="4.61495">
        <ele>677</ele>
        <time>2018-10-14T09:12:52Z</time>
      </trkpt>
      <trkpt lat="45.63883" lon="4.61494">
        <ele>677</ele>
        <time>2018-10-14T09:12:53Z</time>
      </trkpt>
      <trkpt lat="45.63885" lon="4.61492">
        <ele>676</ele>
        <time>2018-10-14T09:12:54Z</time>
      </trkpt>
      <trkpt lat="45.63887" lon="4.6149">
        <ele>677</ele>
        <time>2018-10-14T09:12:55Z</time>
      </trkpt>
      <trkpt lat="45.6389" lon="4.61489">
        <ele>677</ele>
        <time>2018-10-14T09:12:56Z</time>
      </trkpt>
      <trkpt lat="45.63892" lon="4.61488">
        <ele>677</ele>
        <time>2018-10-14T09:12:57Z</time>
      </trkpt>
      <trkpt lat="45.63894" lon="4.61487">
        <ele>677</ele>
        <time>2018-10-14T09:12:58Z</time>
      </trkpt>
      <trkpt lat="45.63897" lon="4.61486">
        <ele>677</ele>
        <time>2018-10-14T09:12:59Z</time>
      </trkpt>
      <trkpt lat="45.63899" lon="4.61485">
        <ele>676</ele>
        <time>2018-10-14T09:13:00Z</time>
      </trkpt>
      <trkpt lat="45.63902" lon="4.61485">
        <ele>676</ele>
        <time>2018-10-14T09:13:01Z</time>
      </trkpt>
      <trkpt lat="45.63904" lon="4.61484">
        <ele>675</ele>
        <time>2018-10-14T09:13:02Z</time>
      </trkpt>
      <trkpt lat="45.63907" lon="4.61483">
        <ele>675</ele>
        <time>2018-10-14T09:13:03Z</time>
      </trkpt>
      <trkpt lat="45.6391" lon="4.61482">
        <ele>674</ele>
        <time>2018-10-14T09:13:04Z</time>
      </trkpt>
      <trkpt lat="45.63913" lon="4.6148">
        <ele>674</ele>
        <time>2018-10-14T09:13:05Z</time>
      </trkpt>
      <trkpt lat="45.63916" lon="4.61479">
        <ele>674</ele>
        <time>2018-10-14T09:13:06Z</time>
      </trkpt>
      <trkpt lat="45.63919" lon="4.61478">
        <ele>674</ele>
        <time>2018-10-14T09:13:07Z</time>
      </trkpt>
      <trkpt lat="45.63923" lon="4.61477">
        <ele>674</ele>
        <time>2018-10-14T09:13:08Z</time>
      </trkpt>
      <trkpt lat="45.63926" lon="4.61476">
        <ele>673</ele>
        <time>2018-10-14T09:13:09Z</time>
      </trkpt>
      <trkpt lat="45.6393" lon="4.61475">
        <ele>674</ele>
        <time>2018-10-14T09:13:10Z</time>
      </trkpt>
      <trkpt lat="45.63934" lon="4.61474">
        <ele>673</ele>
        <time>2018-10-14T09:13:11Z</time>
      </trkpt>
      <trkpt lat="45.63937" lon="4.61473">
        <ele>673</ele>
        <time>2018-10-14T09:13:12Z</time>
      </trkpt>
      <trkpt lat="45.63939" lon="4.61473">
        <ele>673</ele>
        <time>2018-10-14T09:13:13Z</time>
      </trkpt>
      <trkpt lat="45.63944" lon="4.6147">
        <ele>669</ele>
        <time>2018-10-14T09:13:15Z</time>
      </trkpt>
      <trkpt lat="45.63945" lon="4.61467">
        <ele>671</ele>
        <time>2018-10-14T09:13:16Z</time>
      </trkpt>
      <trkpt lat="45.63947" lon="4.61464">
        <ele>672</ele>
        <time>2018-10-14T09:13:17Z</time>
      </trkpt>
      <trkpt lat="45.63949" lon="4.61461">
        <ele>672</ele>
        <time>2018-10-14T09:13:18Z</time>
      </trkpt>
      <trkpt lat="45.6395" lon="4.61456">
        <ele>671</ele>
        <time>2018-10-14T09:13:19Z</time>
      </trkpt>
      <trkpt lat="45.63956" lon="4.61442">
        <ele>670</ele>
        <time>2018-10-14T09:13:20Z</time>
      </trkpt>
      <trkpt lat="45.63959" lon="4.61437">
        <ele>670</ele>
        <time>2018-10-14T09:13:21Z</time>
      </trkpt>
      <trkpt lat="45.63961" lon="4.61432">
        <ele>669</ele>
        <time>2018-10-14T09:13:22Z</time>
      </trkpt>
      <trkpt lat="45.63963" lon="4.61427">
        <ele>668</ele>
        <time>2018-10-14T09:13:23Z</time>
      </trkpt>
      <trkpt lat="45.63965" lon="4.61422">
        <ele>666</ele>
        <time>2018-10-14T09:13:24Z</time>
      </trkpt>
      <trkpt lat="45.63969" lon="4.61414">
        <ele>666</ele>
        <time>2018-10-14T09:13:25Z</time>
      </trkpt>
      <trkpt lat="45.63973" lon="4.61408">
        <ele>665</ele>
        <time>2018-10-14T09:13:26Z</time>
      </trkpt>
      <trkpt lat="45.63976" lon="4.61404">
        <ele>664</ele>
        <time>2018-10-14T09:13:27Z</time>
      </trkpt>
      <trkpt lat="45.63979" lon="4.61399">
        <ele>664</ele>
        <time>2018-10-14T09:13:28Z</time>
      </trkpt>
      <trkpt lat="45.63984" lon="4.61394">
        <ele>664</ele>
        <time>2018-10-14T09:13:29Z</time>
      </trkpt>
      <trkpt lat="45.63988" lon="4.6139">
        <ele>664</ele>
        <time>2018-10-14T09:13:30Z</time>
      </trkpt>
      <trkpt lat="45.63993" lon="4.61386">
        <ele>663</ele>
        <time>2018-10-14T09:13:31Z</time>
      </trkpt>
      <trkpt lat="45.63997" lon="4.61384">
        <ele>662</ele>
        <time>2018-10-14T09:13:32Z</time>
      </trkpt>
      <trkpt lat="45.64002" lon="4.61383">
        <ele>663</ele>
        <time>2018-10-14T09:13:33Z</time>
      </trkpt>
      <trkpt lat="45.64008" lon="4.6138">
        <ele>662</ele>
        <time>2018-10-14T09:13:34Z</time>
      </trkpt>
      <trkpt lat="45.64012" lon="4.61377">
        <ele>661</ele>
        <time>2018-10-14T09:13:35Z</time>
      </trkpt>
      <trkpt lat="45.64016" lon="4.61374">
        <ele>661</ele>
        <time>2018-10-14T09:13:36Z</time>
      </trkpt>
      <trkpt lat="45.64021" lon="4.61372">
        <ele>661</ele>
        <time>2018-10-14T09:13:37Z</time>
      </trkpt>
      <trkpt lat="45.64024" lon="4.6137">
        <ele>660</ele>
        <time>2018-10-14T09:13:38Z</time>
      </trkpt>
      <trkpt lat="45.64027" lon="4.61368">
        <ele>659</ele>
        <time>2018-10-14T09:13:39Z</time>
      </trkpt>
      <trkpt lat="45.64032" lon="4.61365">
        <ele>658</ele>
        <time>2018-10-14T09:13:40Z</time>
      </trkpt>
      <trkpt lat="45.64038" lon="4.61363">
        <ele>657</ele>
        <time>2018-10-14T09:13:41Z</time>
      </trkpt>
      <trkpt lat="45.64042" lon="4.6136">
        <ele>655</ele>
        <time>2018-10-14T09:13:42Z</time>
      </trkpt>
      <trkpt lat="45.64045" lon="4.61359">
        <ele>655</ele>
        <time>2018-10-14T09:13:43Z</time>
      </trkpt>
      <trkpt lat="45.64049" lon="4.61358">
        <ele>653</ele>
        <time>2018-10-14T09:13:44Z</time>
      </trkpt>
      <trkpt lat="45.64053" lon="4.61356">
        <ele>652</ele>
        <time>2018-10-14T09:13:45Z</time>
      </trkpt>
      <trkpt lat="45.64058" lon="4.61353">
        <ele>652</ele>
        <time>2018-10-14T09:13:46Z</time>
      </trkpt>
      <trkpt lat="45.64063" lon="4.61352">
        <ele>651</ele>
        <time>2018-10-14T09:13:47Z</time>
      </trkpt>
      <trkpt lat="45.64067" lon="4.61351">
        <ele>651</ele>
        <time>2018-10-14T09:13:48Z</time>
      </trkpt>
      <trkpt lat="45.64072" lon="4.61351">
        <ele>651</ele>
        <time>2018-10-14T09:13:49Z</time>
      </trkpt>
      <trkpt lat="45.64076" lon="4.61351">
        <ele>650</ele>
        <time>2018-10-14T09:13:50Z</time>
      </trkpt>
      <trkpt lat="45.64079" lon="4.61352">
        <ele>651</ele>
        <time>2018-10-14T09:13:51Z</time>
      </trkpt>
      <trkpt lat="45.64082" lon="4.61353">
        <ele>650</ele>
        <time>2018-10-14T09:13:52Z</time>
      </trkpt>
      <trkpt lat="45.64088" lon="4.61352">
        <ele>648</ele>
        <time>2018-10-14T09:13:53Z</time>
      </trkpt>
      <trkpt lat="45.64093" lon="4.61353">
        <ele>647</ele>
        <time>2018-10-14T09:13:54Z</time>
      </trkpt>
      <trkpt lat="45.641" lon="4.61354">
        <ele>646</ele>
        <time>2018-10-14T09:13:55Z</time>
      </trkpt>
      <trkpt lat="45.64106" lon="4.61354">
        <ele>646</ele>
        <time>2018-10-14T09:13:56Z</time>
      </trkpt>
      <trkpt lat="45.64111" lon="4.61355">
        <ele>645</ele>
        <time>2018-10-14T09:13:57Z</time>
      </trkpt>
      <trkpt lat="45.64115" lon="4.61355">
        <ele>646</ele>
        <time>2018-10-14T09:13:58Z</time>
      </trkpt>
      <trkpt lat="45.64121" lon="4.61355">
        <ele>645</ele>
        <time>2018-10-14T09:13:59Z</time>
      </trkpt>
      <trkpt lat="45.64124" lon="4.61355">
        <ele>646</ele>
        <time>2018-10-14T09:14:00Z</time>
      </trkpt>
      <trkpt lat="45.64127" lon="4.61355">
        <ele>646</ele>
        <time>2018-10-14T09:14:01Z</time>
      </trkpt>
      <trkpt lat="45.6413" lon="4.61355">
        <ele>646</ele>
        <time>2018-10-14T09:14:02Z</time>
      </trkpt>
      <trkpt lat="45.64134" lon="4.61355">
        <ele>647</ele>
        <time>2018-10-14T09:14:03Z</time>
      </trkpt>
      <trkpt lat="45.6414" lon="4.61354">
        <ele>646</ele>
        <time>2018-10-14T09:14:04Z</time>
      </trkpt>
      <trkpt lat="45.64146" lon="4.61353">
        <ele>644</ele>
        <time>2018-10-14T09:14:05Z</time>
      </trkpt>
      <trkpt lat="45.64151" lon="4.61352">
        <ele>642</ele>
        <time>2018-10-14T09:14:06Z</time>
      </trkpt>
      <trkpt lat="45.64155" lon="4.61351">
        <ele>640</ele>
        <time>2018-10-14T09:14:07Z</time>
      </trkpt>
      <trkpt lat="45.64158" lon="4.61351">
        <ele>640</ele>
        <time>2018-10-14T09:14:08Z</time>
      </trkpt>
      <trkpt lat="45.64162" lon="4.61351">
        <ele>639</ele>
        <time>2018-10-14T09:14:09Z</time>
      </trkpt>
      <trkpt lat="45.64167" lon="4.61351">
        <ele>639</ele>
        <time>2018-10-14T09:14:10Z</time>
      </trkpt>
      <trkpt lat="45.64173" lon="4.61354">
        <ele>638</ele>
        <time>2018-10-14T09:14:11Z</time>
      </trkpt>
      <trkpt lat="45.6418" lon="4.61356">
        <ele>638</ele>
        <time>2018-10-14T09:14:12Z</time>
      </trkpt>
      <trkpt lat="45.64186" lon="4.61357">
        <ele>638</ele>
        <time>2018-10-14T09:14:13Z</time>
      </trkpt>
      <trkpt lat="45.64191" lon="4.61357">
        <ele>638</ele>
        <time>2018-10-14T09:14:14Z</time>
      </trkpt>
      <trkpt lat="45.64198" lon="4.61357">
        <ele>636</ele>
        <time>2018-10-14T09:14:15Z</time>
      </trkpt>
      <trkpt lat="45.64202" lon="4.61357">
        <ele>635</ele>
        <time>2018-10-14T09:14:16Z</time>
      </trkpt>
      <trkpt lat="45.64205" lon="4.61358">
        <ele>635</ele>
        <time>2018-10-14T09:14:17Z</time>
      </trkpt>
      <trkpt lat="45.64207" lon="4.6136">
        <ele>635</ele>
        <time>2018-10-14T09:14:18Z</time>
      </trkpt>
      <trkpt lat="45.6421" lon="4.61361">
        <ele>635</ele>
        <time>2018-10-14T09:14:19Z</time>
      </trkpt>
      <trkpt lat="45.64212" lon="4.61361">
        <ele>635</ele>
        <time>2018-10-14T09:14:20Z</time>
      </trkpt>
      <trkpt lat="45.64214" lon="4.6136">
        <ele>634</ele>
        <time>2018-10-14T09:14:21Z</time>
      </trkpt>
      <trkpt lat="45.64215" lon="4.6136">
        <ele>633</ele>
        <time>2018-10-14T09:14:22Z</time>
      </trkpt>
      <trkpt lat="45.64217" lon="4.6136">
        <ele>633</ele>
        <time>2018-10-14T09:14:23Z</time>
      </trkpt>
      <trkpt lat="45.64218" lon="4.61361">
        <ele>633</ele>
        <time>2018-10-14T09:14:24Z</time>
      </trkpt>
      <trkpt lat="45.6422" lon="4.61361">
        <ele>634</ele>
        <time>2018-10-14T09:14:26Z</time>
      </trkpt>
      <trkpt lat="45.64224" lon="4.61361">
        <ele>634</ele>
        <time>2018-10-14T09:14:27Z</time>
      </trkpt>
      <trkpt lat="45.64227" lon="4.61362">
        <ele>633</ele>
        <time>2018-10-14T09:14:28Z</time>
      </trkpt>
      <trkpt lat="45.64231" lon="4.61362">
        <ele>633</ele>
        <time>2018-10-14T09:14:29Z</time>
      </trkpt>
      <trkpt lat="45.64235" lon="4.61363">
        <ele>633</ele>
        <time>2018-10-14T09:14:30Z</time>
      </trkpt>
      <trkpt lat="45.64239" lon="4.61365">
        <ele>633</ele>
        <time>2018-10-14T09:14:31Z</time>
      </trkpt>
      <trkpt lat="45.64242" lon="4.61368">
        <ele>633</ele>
        <time>2018-10-14T09:14:32Z</time>
      </trkpt>
      <trkpt lat="45.64252" lon="4.61373">
        <ele>631</ele>
        <time>2018-10-14T09:14:33Z</time>
      </trkpt>
      <trkpt lat="45.64253" lon="4.61376">
        <ele>632</ele>
        <time>2018-10-14T09:14:34Z</time>
      </trkpt>
      <trkpt lat="45.64254" lon="4.61379">
        <ele>632</ele>
        <time>2018-10-14T09:14:35Z</time>
      </trkpt>
      <trkpt lat="45.64256" lon="4.61381">
        <ele>632</ele>
        <time>2018-10-14T09:14:36Z</time>
      </trkpt>
      <trkpt lat="45.64255" lon="4.61381">
        <ele>632</ele>
        <time>2018-10-14T09:14:37Z</time>
      </trkpt>
      <trkpt lat="45.64255" lon="4.61383">
        <ele>632</ele>
        <time>2018-10-14T09:14:38Z</time>
      </trkpt>
      <trkpt lat="45.64258" lon="4.61384">
        <ele>633</ele>
        <time>2018-10-14T09:14:39Z</time>
      </trkpt>
      <trkpt lat="45.64259" lon="4.61386">
        <ele>633</ele>
        <time>2018-10-14T09:14:40Z</time>
      </trkpt>
      <trkpt lat="45.6426" lon="4.61388">
        <ele>633</ele>
        <time>2018-10-14T09:14:41Z</time>
      </trkpt>
      <trkpt lat="45.64261" lon="4.6139">
        <ele>633</ele>
        <time>2018-10-14T09:14:42Z</time>
      </trkpt>
      <trkpt lat="45.64262" lon="4.61391">
        <ele>632</ele>
        <time>2018-10-14T09:14:43Z</time>
      </trkpt>
      <trkpt lat="45.64264" lon="4.61392">
        <ele>633</ele>
        <time>2018-10-14T09:14:44Z</time>
      </trkpt>
      <trkpt lat="45.64264" lon="4.61394">
        <ele>632</ele>
        <time>2018-10-14T09:14:45Z</time>
      </trkpt>
      <trkpt lat="45.64265" lon="4.61395">
        <ele>632</ele>
        <time>2018-10-14T09:14:46Z</time>
      </trkpt>
      <trkpt lat="45.64265" lon="4.61399">
        <ele>632</ele>
        <time>2018-10-14T09:14:48Z</time>
      </trkpt>
      <trkpt lat="45.64265" lon="4.61401">
        <ele>633</ele>
        <time>2018-10-14T09:14:49Z</time>
      </trkpt>
      <trkpt lat="45.64266" lon="4.61402">
        <ele>632</ele>
        <time>2018-10-14T09:14:50Z</time>
      </trkpt>
      <trkpt lat="45.64267" lon="4.61404">
        <ele>632</ele>
        <time>2018-10-14T09:14:51Z</time>
      </trkpt>
      <trkpt lat="45.64267" lon="4.61405">
        <ele>632</ele>
        <time>2018-10-14T09:14:52Z</time>
      </trkpt>
      <trkpt lat="45.64268" lon="4.61407">
        <ele>632</ele>
        <time>2018-10-14T09:14:53Z</time>
      </trkpt>
      <trkpt lat="45.64269" lon="4.61408">
        <ele>632</ele>
        <time>2018-10-14T09:14:54Z</time>
      </trkpt>
      <trkpt lat="45.6427" lon="4.6141">
        <ele>632</ele>
        <time>2018-10-14T09:14:55Z</time>
      </trkpt>
      <trkpt lat="45.64271" lon="4.61411">
        <ele>632</ele>
        <time>2018-10-14T09:14:56Z</time>
      </trkpt>
      <trkpt lat="45.64272" lon="4.61413">
        <ele>633</ele>
        <time>2018-10-14T09:14:57Z</time>
      </trkpt>
      <trkpt lat="45.64273" lon="4.61414">
        <ele>634</ele>
        <time>2018-10-14T09:14:58Z</time>
      </trkpt>
      <trkpt lat="45.64274" lon="4.61416">
        <ele>634</ele>
        <time>2018-10-14T09:14:59Z</time>
      </trkpt>
      <trkpt lat="45.64275" lon="4.61417">
        <ele>634</ele>
        <time>2018-10-14T09:15:00Z</time>
      </trkpt>
      <trkpt lat="45.64276" lon="4.61419">
        <ele>634</ele>
        <time>2018-10-14T09:15:01Z</time>
      </trkpt>
      <trkpt lat="45.64277" lon="4.61421">
        <ele>634</ele>
        <time>2018-10-14T09:15:02Z</time>
      </trkpt>
      <trkpt lat="45.64277" lon="4.61422">
        <ele>635</ele>
        <time>2018-10-14T09:15:03Z</time>
      </trkpt>
      <trkpt lat="45.64278" lon="4.61424">
        <ele>635</ele>
        <time>2018-10-14T09:15:04Z</time>
      </trkpt>
      <trkpt lat="45.64278" lon="4.61426">
        <ele>635</ele>
        <time>2018-10-14T09:15:05Z</time>
      </trkpt>
      <trkpt lat="45.64278" lon="4.61428">
        <ele>635</ele>
        <time>2018-10-14T09:15:06Z</time>
      </trkpt>
      <trkpt lat="45.64278" lon="4.6143">
        <ele>635</ele>
        <time>2018-10-14T09:15:07Z</time>
      </trkpt>
      <trkpt lat="45.64278" lon="4.61432">
        <ele>636</ele>
        <time>2018-10-14T09:15:08Z</time>
      </trkpt>
      <trkpt lat="45.64278" lon="4.61434">
        <ele>636</ele>
        <time>2018-10-14T09:15:09Z</time>
      </trkpt>
      <trkpt lat="45.64278" lon="4.61436">
        <ele>636</ele>
        <time>2018-10-14T09:15:10Z</time>
      </trkpt>
      <trkpt lat="45.64279" lon="4.61438">
        <ele>636</ele>
        <time>2018-10-14T09:15:11Z</time>
      </trkpt>
      <trkpt lat="45.64279" lon="4.61439">
        <ele>637</ele>
        <time>2018-10-14T09:15:12Z</time>
      </trkpt>
      <trkpt lat="45.6428" lon="4.61441">
        <ele>637</ele>
        <time>2018-10-14T09:15:13Z</time>
      </trkpt>
      <trkpt lat="45.6428" lon="4.61442">
        <ele>638</ele>
        <time>2018-10-14T09:15:14Z</time>
      </trkpt>
      <trkpt lat="45.64282" lon="4.61443">
        <ele>638</ele>
        <time>2018-10-14T09:15:15Z</time>
      </trkpt>
      <trkpt lat="45.64282" lon="4.61444">
        <ele>639</ele>
        <time>2018-10-14T09:15:16Z</time>
      </trkpt>
      <trkpt lat="45.64283" lon="4.61445">
        <ele>639</ele>
        <time>2018-10-14T09:15:17Z</time>
      </trkpt>
      <trkpt lat="45.64284" lon="4.61447">
        <ele>639</ele>
        <time>2018-10-14T09:15:18Z</time>
      </trkpt>
      <trkpt lat="45.64285" lon="4.61448">
        <ele>640</ele>
        <time>2018-10-14T09:15:19Z</time>
      </trkpt>
      <trkpt lat="45.64286" lon="4.61449">
        <ele>640</ele>
        <time>2018-10-14T09:15:20Z</time>
      </trkpt>
      <trkpt lat="45.64287" lon="4.6145">
        <ele>641</ele>
        <time>2018-10-14T09:15:21Z</time>
      </trkpt>
      <trkpt lat="45.64288" lon="4.61451">
        <ele>641</ele>
        <time>2018-10-14T09:15:22Z</time>
      </trkpt>
      <trkpt lat="45.64288" lon="4.61453">
        <ele>641</ele>
        <time>2018-10-14T09:15:23Z</time>
      </trkpt>
      <trkpt lat="45.6429" lon="4.61453">
        <ele>641</ele>
        <time>2018-10-14T09:15:24Z</time>
      </trkpt>
      <trkpt lat="45.64291" lon="4.61453">
        <ele>642</ele>
        <time>2018-10-14T09:15:25Z</time>
      </trkpt>
      <trkpt lat="45.64292" lon="4.61454">
        <ele>642</ele>
        <time>2018-10-14T09:15:26Z</time>
      </trkpt>
      <trkpt lat="45.64293" lon="4.61455">
        <ele>643</ele>
        <time>2018-10-14T09:15:27Z</time>
      </trkpt>
      <trkpt lat="45.64293" lon="4.61456">
        <ele>643</ele>
        <time>2018-10-14T09:15:28Z</time>
      </trkpt>
      <trkpt lat="45.64293" lon="4.61458">
        <ele>646</ele>
        <time>2018-10-14T09:15:29Z</time>
      </trkpt>
      <trkpt lat="45.64293" lon="4.6146">
        <ele>645</ele>
        <time>2018-10-14T09:15:30Z</time>
      </trkpt>
      <trkpt lat="45.64294" lon="4.61462">
        <ele>644</ele>
        <time>2018-10-14T09:15:31Z</time>
      </trkpt>
      <trkpt lat="45.64295" lon="4.61463">
        <ele>644</ele>
        <time>2018-10-14T09:15:32Z</time>
      </trkpt>
      <trkpt lat="45.64296" lon="4.61464">
        <ele>644</ele>
        <time>2018-10-14T09:15:33Z</time>
      </trkpt>
      <trkpt lat="45.64296" lon="4.61465">
        <ele>644</ele>
        <time>2018-10-14T09:15:34Z</time>
      </trkpt>
      <trkpt lat="45.64297" lon="4.61467">
        <ele>645</ele>
        <time>2018-10-14T09:15:35Z</time>
      </trkpt>
      <trkpt lat="45.64298" lon="4.61468">
        <ele>645</ele>
        <time>2018-10-14T09:15:36Z</time>
      </trkpt>
      <trkpt lat="45.64298" lon="4.61469">
        <ele>645</ele>
        <time>2018-10-14T09:15:37Z</time>
      </trkpt>
      <trkpt lat="45.64299" lon="4.6147">
        <ele>645</ele>
        <time>2018-10-14T09:15:38Z</time>
      </trkpt>
      <trkpt lat="45.64299" lon="4.61472">
        <ele>646</ele>
        <time>2018-10-14T09:15:40Z</time>
      </trkpt>
      <trkpt lat="45.643" lon="4.61473">
        <ele>647</ele>
        <time>2018-10-14T09:15:41Z</time>
      </trkpt>
      <trkpt lat="45.643" lon="4.61474">
        <ele>648</ele>
        <time>2018-10-14T09:15:42Z</time>
      </trkpt>
      <trkpt lat="45.64301" lon="4.61476">
        <ele>648</ele>
        <time>2018-10-14T09:15:43Z</time>
      </trkpt>
      <trkpt lat="45.64302" lon="4.61478">
        <ele>648</ele>
        <time>2018-10-14T09:15:44Z</time>
      </trkpt>
      <trkpt lat="45.64302" lon="4.6148">
        <ele>647</ele>
        <time>2018-10-14T09:15:45Z</time>
      </trkpt>
      <trkpt lat="45.64303" lon="4.61481">
        <ele>648</ele>
        <time>2018-10-14T09:15:46Z</time>
      </trkpt>
      <trkpt lat="45.64303" lon="4.61483">
        <ele>647</ele>
        <time>2018-10-14T09:15:47Z</time>
      </trkpt>
      <trkpt lat="45.64303" lon="4.61485">
        <ele>647</ele>
        <time>2018-10-14T09:15:48Z</time>
      </trkpt>
      <trkpt lat="45.64304" lon="4.61487">
        <ele>648</ele>
        <time>2018-10-14T09:15:49Z</time>
      </trkpt>
      <trkpt lat="45.64304" lon="4.61489">
        <ele>648</ele>
        <time>2018-10-14T09:15:50Z</time>
      </trkpt>
      <trkpt lat="45.64304" lon="4.6149">
        <ele>648</ele>
        <time>2018-10-14T09:15:51Z</time>
      </trkpt>
      <trkpt lat="45.64304" lon="4.61491">
        <ele>648</ele>
        <time>2018-10-14T09:15:52Z</time>
      </trkpt>
      <trkpt lat="45.64305" lon="4.61491">
        <ele>649</ele>
        <time>2018-10-14T09:15:53Z</time>
      </trkpt>
      <trkpt lat="45.64305" lon="4.61492">
        <ele>650</ele>
        <time>2018-10-14T09:15:54Z</time>
      </trkpt>
      <trkpt lat="45.64306" lon="4.61493">
        <ele>650</ele>
        <time>2018-10-14T09:15:55Z</time>
      </trkpt>
      <trkpt lat="45.64306" lon="4.61494">
        <ele>650</ele>
        <time>2018-10-14T09:15:56Z</time>
      </trkpt>
      <trkpt lat="45.64306" lon="4.61496">
        <ele>650</ele>
        <time>2018-10-14T09:15:57Z</time>
      </trkpt>
      <trkpt lat="45.64305" lon="4.61497">
        <ele>651</ele>
        <time>2018-10-14T09:15:58Z</time>
      </trkpt>
      <trkpt lat="45.64304" lon="4.61497">
        <ele>652</ele>
        <time>2018-10-14T09:15:59Z</time>
      </trkpt>
      <trkpt lat="45.64303" lon="4.61497">
        <ele>653</ele>
        <time>2018-10-14T09:16:00Z</time>
      </trkpt>
      <trkpt lat="45.64302" lon="4.61493">
        <ele>653</ele>
        <time>2018-10-14T09:16:02Z</time>
      </trkpt>
      <trkpt lat="45.64304" lon="4.61493">
        <ele>653</ele>
        <time>2018-10-14T09:16:03Z</time>
      </trkpt>
      <trkpt lat="45.64306" lon="4.61494">
        <ele>654</ele>
        <time>2018-10-14T09:16:04Z</time>
      </trkpt>
      <trkpt lat="45.64307" lon="4.61495">
        <ele>653</ele>
        <time>2018-10-14T09:16:05Z</time>
      </trkpt>
      <trkpt lat="45.64309" lon="4.61498">
        <ele>653</ele>
        <time>2018-10-14T09:16:06Z</time>
      </trkpt>
      <trkpt lat="45.6431" lon="4.615">
        <ele>654</ele>
        <time>2018-10-14T09:16:07Z</time>
      </trkpt>
      <trkpt lat="45.64311" lon="4.61502">
        <ele>654</ele>
        <time>2018-10-14T09:16:08Z</time>
      </trkpt>
      <trkpt lat="45.64313" lon="4.61504">
        <ele>653</ele>
        <time>2018-10-14T09:16:10Z</time>
      </trkpt>
      <trkpt lat="45.64314" lon="4.61505">
        <ele>654</ele>
        <time>2018-10-14T09:16:11Z</time>
      </trkpt>
      <trkpt lat="45.64315" lon="4.61507">
        <ele>653</ele>
        <time>2018-10-14T09:16:12Z</time>
      </trkpt>
      <trkpt lat="45.64316" lon="4.61508">
        <ele>654</ele>
        <time>2018-10-14T09:16:13Z</time>
      </trkpt>
      <trkpt lat="45.64317" lon="4.6151">
        <ele>656</ele>
        <time>2018-10-14T09:16:14Z</time>
      </trkpt>
      <trkpt lat="45.64318" lon="4.61511">
        <ele>656</ele>
        <time>2018-10-14T09:16:15Z</time>
      </trkpt>
      <trkpt lat="45.64319" lon="4.61513">
        <ele>657</ele>
        <time>2018-10-14T09:16:16Z</time>
      </trkpt>
      <trkpt lat="45.6432" lon="4.61514">
        <ele>658</ele>
        <time>2018-10-14T09:16:17Z</time>
      </trkpt>
      <trkpt lat="45.64322" lon="4.61516">
        <ele>657</ele>
        <time>2018-10-14T09:16:18Z</time>
      </trkpt>
      <trkpt lat="45.64323" lon="4.61517">
        <ele>657</ele>
        <time>2018-10-14T09:16:19Z</time>
      </trkpt>
      <trkpt lat="45.64324" lon="4.61518">
        <ele>658</ele>
        <time>2018-10-14T09:16:20Z</time>
      </trkpt>
      <trkpt lat="45.64325" lon="4.61519">
        <ele>658</ele>
        <time>2018-10-14T09:16:21Z</time>
      </trkpt>
      <trkpt lat="45.64326" lon="4.6152">
        <ele>660</ele>
        <time>2018-10-14T09:16:22Z</time>
      </trkpt>
      <trkpt lat="45.64327" lon="4.61522">
        <ele>660</ele>
        <time>2018-10-14T09:16:23Z</time>
      </trkpt>
      <trkpt lat="45.64328" lon="4.61523">
        <ele>660</ele>
        <time>2018-10-14T09:16:24Z</time>
      </trkpt>
      <trkpt lat="45.64328" lon="4.61523">
        <ele>660</ele>
        <time>2018-10-14T09:16:25Z</time>
      </trkpt>
      <trkpt lat="45.64329" lon="4.61524">
        <ele>660</ele>
        <time>2018-10-14T09:16:26Z</time>
      </trkpt>
      <trkpt lat="45.6433" lon="4.61525">
        <ele>660</ele>
        <time>2018-10-14T09:16:27Z</time>
      </trkpt>
      <trkpt lat="45.6433" lon="4.61527">
        <ele>660</ele>
        <time>2018-10-14T09:16:28Z</time>
      </trkpt>
      <trkpt lat="45.64331" lon="4.61528">
        <ele>660</ele>
        <time>2018-10-14T09:16:29Z</time>
      </trkpt>
      <trkpt lat="45.64331" lon="4.61529">
        <ele>660</ele>
        <time>2018-10-14T09:16:30Z</time>
      </trkpt>
      <trkpt lat="45.64331" lon="4.6153">
        <ele>662</ele>
        <time>2018-10-14T09:16:31Z</time>
      </trkpt>
      <trkpt lat="45.64331" lon="4.61532">
        <ele>662</ele>
        <time>2018-10-14T09:16:32Z</time>
      </trkpt>
      <trkpt lat="45.64331" lon="4.61533">
        <ele>662</ele>
        <time>2018-10-14T09:16:33Z</time>
      </trkpt>
      <trkpt lat="45.64332" lon="4.61534">
        <ele>663</ele>
        <time>2018-10-14T09:16:34Z</time>
      </trkpt>
      <trkpt lat="45.64333" lon="4.61536">
        <ele>663</ele>
        <time>2018-10-14T09:16:35Z</time>
      </trkpt>
      <trkpt lat="45.64333" lon="4.61538">
        <ele>663</ele>
        <time>2018-10-14T09:16:36Z</time>
      </trkpt>
      <trkpt lat="45.64334" lon="4.61539">
        <ele>663</ele>
        <time>2018-10-14T09:16:37Z</time>
      </trkpt>
      <trkpt lat="45.64335" lon="4.6154">
        <ele>663</ele>
        <time>2018-10-14T09:16:38Z</time>
      </trkpt>
      <trkpt lat="45.64336" lon="4.61542">
        <ele>663</ele>
        <time>2018-10-14T09:16:39Z</time>
      </trkpt>
      <trkpt lat="45.64336" lon="4.61543">
        <ele>663</ele>
        <time>2018-10-14T09:16:40Z</time>
      </trkpt>
      <trkpt lat="45.64337" lon="4.61545">
        <ele>663</ele>
        <time>2018-10-14T09:16:41Z</time>
      </trkpt>
      <trkpt lat="45.64337" lon="4.61546">
        <ele>663</ele>
        <time>2018-10-14T09:16:42Z</time>
      </trkpt>
      <trkpt lat="45.64337" lon="4.61548">
        <ele>664</ele>
        <time>2018-10-14T09:16:43Z</time>
      </trkpt>
      <trkpt lat="45.64338" lon="4.61549">
        <ele>664</ele>
        <time>2018-10-14T09:16:44Z</time>
      </trkpt>
      <trkpt lat="45.64338" lon="4.61551">
        <ele>664</ele>
        <time>2018-10-14T09:16:45Z</time>
      </trkpt>
      <trkpt lat="45.64339" lon="4.61552">
        <ele>664</ele>
        <time>2018-10-14T09:16:46Z</time>
      </trkpt>
      <trkpt lat="45.64339" lon="4.61553">
        <ele>664</ele>
        <time>2018-10-14T09:16:47Z</time>
      </trkpt>
      <trkpt lat="45.6434" lon="4.61554">
        <ele>664</ele>
        <time>2018-10-14T09:16:48Z</time>
      </trkpt>
      <trkpt lat="45.64341" lon="4.61555">
        <ele>664</ele>
        <time>2018-10-14T09:16:49Z</time>
      </trkpt>
      <trkpt lat="45.64342" lon="4.61556">
        <ele>665</ele>
        <time>2018-10-14T09:16:50Z</time>
      </trkpt>
      <trkpt lat="45.64343" lon="4.61558">
        <ele>664</ele>
        <time>2018-10-14T09:16:51Z</time>
      </trkpt>
      <trkpt lat="45.64344" lon="4.61559">
        <ele>664</ele>
        <time>2018-10-14T09:16:53Z</time>
      </trkpt>
      <trkpt lat="45.64344" lon="4.6156">
        <ele>664</ele>
        <time>2018-10-14T09:16:54Z</time>
      </trkpt>
      <trkpt lat="45.64345" lon="4.61562">
        <ele>664</ele>
        <time>2018-10-14T09:16:55Z</time>
      </trkpt>
      <trkpt lat="45.64346" lon="4.61564">
        <ele>664</ele>
        <time>2018-10-14T09:16:56Z</time>
      </trkpt>
      <trkpt lat="45.64347" lon="4.61565">
        <ele>664</ele>
        <time>2018-10-14T09:16:57Z</time>
      </trkpt>
      <trkpt lat="45.64348" lon="4.61566">
        <ele>665</ele>
        <time>2018-10-14T09:16:58Z</time>
      </trkpt>
      <trkpt lat="45.64348" lon="4.61568">
        <ele>665</ele>
        <time>2018-10-14T09:16:59Z</time>
      </trkpt>
      <trkpt lat="45.64349" lon="4.61569">
        <ele>665</ele>
        <time>2018-10-14T09:17:00Z</time>
      </trkpt>
      <trkpt lat="45.6435" lon="4.61571">
        <ele>666</ele>
        <time>2018-10-14T09:17:01Z</time>
      </trkpt>
      <trkpt lat="45.64351" lon="4.61573">
        <ele>666</ele>
        <time>2018-10-14T09:17:02Z</time>
      </trkpt>
      <trkpt lat="45.64351" lon="4.61574">
        <ele>663</ele>
        <time>2018-10-14T09:17:03Z</time>
      </trkpt>
      <trkpt lat="45.64351" lon="4.61577">
        <ele>664</ele>
        <time>2018-10-14T09:17:05Z</time>
      </trkpt>
      <trkpt lat="45.64351" lon="4.61579">
        <ele>664</ele>
        <time>2018-10-14T09:17:06Z</time>
      </trkpt>
      <trkpt lat="45.64351" lon="4.6158">
        <ele>664</ele>
        <time>2018-10-14T09:17:07Z</time>
      </trkpt>
      <trkpt lat="45.64351" lon="4.61582">
        <ele>664</ele>
        <time>2018-10-14T09:17:08Z</time>
      </trkpt>
      <trkpt lat="45.64352" lon="4.61583">
        <ele>664</ele>
        <time>2018-10-14T09:17:09Z</time>
      </trkpt>
      <trkpt lat="45.64353" lon="4.61584">
        <ele>665</ele>
        <time>2018-10-14T09:17:10Z</time>
      </trkpt>
      <trkpt lat="45.64354" lon="4.61584">
        <ele>665</ele>
        <time>2018-10-14T09:17:11Z</time>
      </trkpt>
      <trkpt lat="45.64355" lon="4.61585">
        <ele>665</ele>
        <time>2018-10-14T09:17:12Z</time>
      </trkpt>
      <trkpt lat="45.64356" lon="4.61586">
        <ele>665</ele>
        <time>2018-10-14T09:17:13Z</time>
      </trkpt>
      <trkpt lat="45.64357" lon="4.61587">
        <ele>665</ele>
        <time>2018-10-14T09:17:14Z</time>
      </trkpt>
      <trkpt lat="45.64357" lon="4.61588">
        <ele>665</ele>
        <time>2018-10-14T09:17:15Z</time>
      </trkpt>
      <trkpt lat="45.64358" lon="4.61589">
        <ele>666</ele>
        <time>2018-10-14T09:17:16Z</time>
      </trkpt>
      <trkpt lat="45.64359" lon="4.6159">
        <ele>667</ele>
        <time>2018-10-14T09:17:17Z</time>
      </trkpt>
      <trkpt lat="45.6436" lon="4.61592">
        <ele>667</ele>
        <time>2018-10-14T09:17:18Z</time>
      </trkpt>
      <trkpt lat="45.64361" lon="4.61593">
        <ele>667</ele>
        <time>2018-10-14T09:17:19Z</time>
      </trkpt>
      <trkpt lat="45.64362" lon="4.61594">
        <ele>667</ele>
        <time>2018-10-14T09:17:20Z</time>
      </trkpt>
      <trkpt lat="45.64362" lon="4.61596">
        <ele>666</ele>
        <time>2018-10-14T09:17:21Z</time>
      </trkpt>
      <trkpt lat="45.64363" lon="4.61597">
        <ele>666</ele>
        <time>2018-10-14T09:17:22Z</time>
      </trkpt>
      <trkpt lat="45.64363" lon="4.61599">
        <ele>667</ele>
        <time>2018-10-14T09:17:23Z</time>
      </trkpt>
      <trkpt lat="45.64364" lon="4.61601">
        <ele>667</ele>
        <time>2018-10-14T09:17:24Z</time>
      </trkpt>
      <trkpt lat="45.64365" lon="4.61603">
        <ele>667</ele>
        <time>2018-10-14T09:17:25Z</time>
      </trkpt>
      <trkpt lat="45.64365" lon="4.61604">
        <ele>667</ele>
        <time>2018-10-14T09:17:26Z</time>
      </trkpt>
      <trkpt lat="45.64366" lon="4.61606">
        <ele>668</ele>
        <time>2018-10-14T09:17:27Z</time>
      </trkpt>
      <trkpt lat="45.64367" lon="4.61608">
        <ele>668</ele>
        <time>2018-10-14T09:17:28Z</time>
      </trkpt>
      <trkpt lat="45.64368" lon="4.6161">
        <ele>668</ele>
        <time>2018-10-14T09:17:29Z</time>
      </trkpt>
      <trkpt lat="45.64369" lon="4.61611">
        <ele>668</ele>
        <time>2018-10-14T09:17:30Z</time>
      </trkpt>
      <trkpt lat="45.6437" lon="4.61612">
        <ele>668</ele>
        <time>2018-10-14T09:17:31Z</time>
      </trkpt>
      <trkpt lat="45.64371" lon="4.61614">
        <ele>668</ele>
        <time>2018-10-14T09:17:32Z</time>
      </trkpt>
      <trkpt lat="45.64372" lon="4.61615">
        <ele>668</ele>
        <time>2018-10-14T09:17:33Z</time>
      </trkpt>
      <trkpt lat="45.64372" lon="4.61616">
        <ele>668</ele>
        <time>2018-10-14T09:17:34Z</time>
      </trkpt>
      <trkpt lat="45.64373" lon="4.61617">
        <ele>668</ele>
        <time>2018-10-14T09:17:35Z</time>
      </trkpt>
      <trkpt lat="45.64374" lon="4.61618">
        <ele>668</ele>
        <time>2018-10-14T09:17:36Z</time>
      </trkpt>
      <trkpt lat="45.64375" lon="4.6162">
        <ele>668</ele>
        <time>2018-10-14T09:17:37Z</time>
      </trkpt>
      <trkpt lat="45.64375" lon="4.61622">
        <ele>668</ele>
        <time>2018-10-14T09:17:38Z</time>
      </trkpt>
      <trkpt lat="45.64376" lon="4.61623">
        <ele>666</ele>
        <time>2018-10-14T09:17:39Z</time>
      </trkpt>
      <trkpt lat="45.64377" lon="4.61625">
        <ele>667</ele>
        <time>2018-10-14T09:17:40Z</time>
      </trkpt>
      <trkpt lat="45.64378" lon="4.61626">
        <ele>668</ele>
        <time>2018-10-14T09:17:41Z</time>
      </trkpt>
      <trkpt lat="45.64378" lon="4.61627">
        <ele>668</ele>
        <time>2018-10-14T09:17:42Z</time>
      </trkpt>
      <trkpt lat="45.64379" lon="4.61629">
        <ele>669</ele>
        <time>2018-10-14T09:17:43Z</time>
      </trkpt>
      <trkpt lat="45.6438" lon="4.61631">
        <ele>670</ele>
        <time>2018-10-14T09:17:44Z</time>
      </trkpt>
      <trkpt lat="45.6438" lon="4.61632">
        <ele>670</ele>
        <time>2018-10-14T09:17:45Z</time>
      </trkpt>
      <trkpt lat="45.6438" lon="4.61634">
        <ele>670</ele>
        <time>2018-10-14T09:17:46Z</time>
      </trkpt>
      <trkpt lat="45.64381" lon="4.61635">
        <ele>672</ele>
        <time>2018-10-14T09:17:47Z</time>
      </trkpt>
      <trkpt lat="45.64381" lon="4.61637">
        <ele>672</ele>
        <time>2018-10-14T09:17:48Z</time>
      </trkpt>
      <trkpt lat="45.64382" lon="4.61638">
        <ele>672</ele>
        <time>2018-10-14T09:17:49Z</time>
      </trkpt>
      <trkpt lat="45.64383" lon="4.61639">
        <ele>673</ele>
        <time>2018-10-14T09:17:50Z</time>
      </trkpt>
      <trkpt lat="45.64384" lon="4.6164">
        <ele>673</ele>
        <time>2018-10-14T09:17:51Z</time>
      </trkpt>
      <trkpt lat="45.64385" lon="4.61641">
        <ele>674</ele>
        <time>2018-10-14T09:17:52Z</time>
      </trkpt>
      <trkpt lat="45.64385" lon="4.61643">
        <ele>674</ele>
        <time>2018-10-14T09:17:53Z</time>
      </trkpt>
      <trkpt lat="45.64386" lon="4.61644">
        <ele>674</ele>
        <time>2018-10-14T09:17:54Z</time>
      </trkpt>
      <trkpt lat="45.64388" lon="4.61647">
        <ele>674</ele>
        <time>2018-10-14T09:17:56Z</time>
      </trkpt>
      <trkpt lat="45.64389" lon="4.61649">
        <ele>674</ele>
        <time>2018-10-14T09:17:57Z</time>
      </trkpt>
      <trkpt lat="45.64389" lon="4.61651">
        <ele>674</ele>
        <time>2018-10-14T09:17:58Z</time>
      </trkpt>
      <trkpt lat="45.6439" lon="4.61654">
        <ele>675</ele>
        <time>2018-10-14T09:17:59Z</time>
      </trkpt>
      <trkpt lat="45.64391" lon="4.61656">
        <ele>674</ele>
        <time>2018-10-14T09:18:00Z</time>
      </trkpt>
      <trkpt lat="45.64393" lon="4.61658">
        <ele>674</ele>
        <time>2018-10-14T09:18:01Z</time>
      </trkpt>
      <trkpt lat="45.64393" lon="4.61659">
        <ele>675</ele>
        <time>2018-10-14T09:18:02Z</time>
      </trkpt>
      <trkpt lat="45.64394" lon="4.6166">
        <ele>675</ele>
        <time>2018-10-14T09:18:03Z</time>
      </trkpt>
      <trkpt lat="45.64396" lon="4.61661">
        <ele>675</ele>
        <time>2018-10-14T09:18:04Z</time>
      </trkpt>
      <trkpt lat="45.64396" lon="4.61662">
        <ele>676</ele>
        <time>2018-10-14T09:18:05Z</time>
      </trkpt>
      <trkpt lat="45.64397" lon="4.61663">
        <ele>676</ele>
        <time>2018-10-14T09:18:06Z</time>
      </trkpt>
      <trkpt lat="45.64398" lon="4.61665">
        <ele>676</ele>
        <time>2018-10-14T09:18:07Z</time>
      </trkpt>
      <trkpt lat="45.64399" lon="4.61666">
        <ele>676</ele>
        <time>2018-10-14T09:18:08Z</time>
      </trkpt>
      <trkpt lat="45.644" lon="4.61668">
        <ele>672</ele>
        <time>2018-10-14T09:18:09Z</time>
      </trkpt>
      <trkpt lat="45.64401" lon="4.6167">
        <ele>673</ele>
        <time>2018-10-14T09:18:10Z</time>
      </trkpt>
      <trkpt lat="45.64402" lon="4.61672">
        <ele>674</ele>
        <time>2018-10-14T09:18:11Z</time>
      </trkpt>
      <trkpt lat="45.64403" lon="4.61674">
        <ele>675</ele>
        <time>2018-10-14T09:18:12Z</time>
      </trkpt>
      <trkpt lat="45.64404" lon="4.61677">
        <ele>675</ele>
        <time>2018-10-14T09:18:13Z</time>
      </trkpt>
      <trkpt lat="45.64405" lon="4.61679">
        <ele>676</ele>
        <time>2018-10-14T09:18:14Z</time>
      </trkpt>
      <trkpt lat="45.64405" lon="4.61682">
        <ele>676</ele>
        <time>2018-10-14T09:18:15Z</time>
      </trkpt>
      <trkpt lat="45.64406" lon="4.61684">
        <ele>676</ele>
        <time>2018-10-14T09:18:16Z</time>
      </trkpt>
      <trkpt lat="45.64407" lon="4.61685">
        <ele>677</ele>
        <time>2018-10-14T09:18:17Z</time>
      </trkpt>
      <trkpt lat="45.64407" lon="4.61687">
        <ele>677</ele>
        <time>2018-10-14T09:18:18Z</time>
      </trkpt>
      <trkpt lat="45.64409" lon="4.61689">
        <ele>678</ele>
        <time>2018-10-14T09:18:19Z</time>
      </trkpt>
      <trkpt lat="45.64411" lon="4.61691">
        <ele>678</ele>
        <time>2018-10-14T09:18:20Z</time>
      </trkpt>
      <trkpt lat="45.64413" lon="4.61694">
        <ele>678</ele>
        <time>2018-10-14T09:18:21Z</time>
      </trkpt>
      <trkpt lat="45.64415" lon="4.61696">
        <ele>678</ele>
        <time>2018-10-14T09:18:22Z</time>
      </trkpt>
      <trkpt lat="45.64417" lon="4.61699">
        <ele>677</ele>
        <time>2018-10-14T09:18:23Z</time>
      </trkpt>
      <trkpt lat="45.64419" lon="4.61702">
        <ele>678</ele>
        <time>2018-10-14T09:18:24Z</time>
      </trkpt>
      <trkpt lat="45.64422" lon="4.61704">
        <ele>677</ele>
        <time>2018-10-14T09:18:25Z</time>
      </trkpt>
      <trkpt lat="45.64424" lon="4.61706">
        <ele>677</ele>
        <time>2018-10-14T09:18:26Z</time>
      </trkpt>
      <trkpt lat="45.64427" lon="4.61708">
        <ele>677</ele>
        <time>2018-10-14T09:18:27Z</time>
      </trkpt>
      <trkpt lat="45.6443" lon="4.6171">
        <ele>677</ele>
        <time>2018-10-14T09:18:28Z</time>
      </trkpt>
      <trkpt lat="45.64433" lon="4.61712">
        <ele>677</ele>
        <time>2018-10-14T09:18:29Z</time>
      </trkpt>
      <trkpt lat="45.64434" lon="4.61713">
        <ele>677</ele>
        <time>2018-10-14T09:18:30Z</time>
      </trkpt>
      <trkpt lat="45.64436" lon="4.61715">
        <ele>677</ele>
        <time>2018-10-14T09:18:31Z</time>
      </trkpt>
      <trkpt lat="45.64439" lon="4.61716">
        <ele>676</ele>
        <time>2018-10-14T09:18:32Z</time>
      </trkpt>
      <trkpt lat="45.64441" lon="4.61717">
        <ele>676</ele>
        <time>2018-10-14T09:18:33Z</time>
      </trkpt>
      <trkpt lat="45.64443" lon="4.61718">
        <ele>676</ele>
        <time>2018-10-14T09:18:34Z</time>
      </trkpt>
      <trkpt lat="45.64446" lon="4.6172">
        <ele>676</ele>
        <time>2018-10-14T09:18:35Z</time>
      </trkpt>
      <trkpt lat="45.64448" lon="4.61721">
        <ele>677</ele>
        <time>2018-10-14T09:18:36Z</time>
      </trkpt>
      <trkpt lat="45.64451" lon="4.61722">
        <ele>676</ele>
        <time>2018-10-14T09:18:37Z</time>
      </trkpt>
      <trkpt lat="45.64454" lon="4.61724">
        <ele>676</ele>
        <time>2018-10-14T09:18:38Z</time>
      </trkpt>
      <trkpt lat="45.64456" lon="4.61725">
        <ele>676</ele>
        <time>2018-10-14T09:18:39Z</time>
      </trkpt>
      <trkpt lat="45.64459" lon="4.61725">
        <ele>676</ele>
        <time>2018-10-14T09:18:40Z</time>
      </trkpt>
      <trkpt lat="45.64462" lon="4.61726">
        <ele>676</ele>
        <time>2018-10-14T09:18:41Z</time>
      </trkpt>
      <trkpt lat="45.64465" lon="4.61728">
        <ele>677</ele>
        <time>2018-10-14T09:18:42Z</time>
      </trkpt>
      <trkpt lat="45.64467" lon="4.61729">
        <ele>677</ele>
        <time>2018-10-14T09:18:43Z</time>
      </trkpt>
      <trkpt lat="45.64468" lon="4.6173">
        <ele>678</ele>
        <time>2018-10-14T09:18:44Z</time>
      </trkpt>
      <trkpt lat="45.64469" lon="4.61731">
        <ele>678</ele>
        <time>2018-10-14T09:18:45Z</time>
      </trkpt>
      <trkpt lat="45.6447" lon="4.61731">
        <ele>679</ele>
        <time>2018-10-14T09:18:46Z</time>
      </trkpt>
      <trkpt lat="45.64471" lon="4.61732">
        <ele>680</ele>
        <time>2018-10-14T09:18:47Z</time>
      </trkpt>
      <trkpt lat="45.64473" lon="4.61734">
        <ele>680</ele>
        <time>2018-10-14T09:18:48Z</time>
      </trkpt>
      <trkpt lat="45.64476" lon="4.61736">
        <ele>681</ele>
        <time>2018-10-14T09:18:49Z</time>
      </trkpt>
      <trkpt lat="45.64478" lon="4.61738">
        <ele>681</ele>
        <time>2018-10-14T09:18:50Z</time>
      </trkpt>
      <trkpt lat="45.64481" lon="4.6174">
        <ele>683</ele>
        <time>2018-10-14T09:18:51Z</time>
      </trkpt>
      <trkpt lat="45.64483" lon="4.61742">
        <ele>684</ele>
        <time>2018-10-14T09:18:52Z</time>
      </trkpt>
      <trkpt lat="45.64486" lon="4.61744">
        <ele>684</ele>
        <time>2018-10-14T09:18:53Z</time>
      </trkpt>
      <trkpt lat="45.64487" lon="4.61746">
        <ele>684</ele>
        <time>2018-10-14T09:18:54Z</time>
      </trkpt>
      <trkpt lat="45.64489" lon="4.61748">
        <ele>685</ele>
        <time>2018-10-14T09:18:55Z</time>
      </trkpt>
      <trkpt lat="45.64491" lon="4.6175">
        <ele>685</ele>
        <time>2018-10-14T09:18:56Z</time>
      </trkpt>
      <trkpt lat="45.64492" lon="4.61753">
        <ele>685</ele>
        <time>2018-10-14T09:18:57Z</time>
      </trkpt>
      <trkpt lat="45.64494" lon="4.61754">
        <ele>685</ele>
        <time>2018-10-14T09:18:58Z</time>
      </trkpt>
      <trkpt lat="45.64494" lon="4.61755">
        <ele>686</ele>
        <time>2018-10-14T09:18:59Z</time>
      </trkpt>
      <trkpt lat="45.64496" lon="4.61757">
        <ele>687</ele>
        <time>2018-10-14T09:19:00Z</time>
      </trkpt>
      <trkpt lat="45.64497" lon="4.61759">
        <ele>687</ele>
        <time>2018-10-14T09:19:01Z</time>
      </trkpt>
      <trkpt lat="45.64499" lon="4.61761">
        <ele>686</ele>
        <time>2018-10-14T09:19:02Z</time>
      </trkpt>
      <trkpt lat="45.645" lon="4.61763">
        <ele>686</ele>
        <time>2018-10-14T09:19:03Z</time>
      </trkpt>
      <trkpt lat="45.64502" lon="4.61766">
        <ele>685</ele>
        <time>2018-10-14T09:19:04Z</time>
      </trkpt>
      <trkpt lat="45.64504" lon="4.61768">
        <ele>685</ele>
        <time>2018-10-14T09:19:05Z</time>
      </trkpt>
      <trkpt lat="45.64506" lon="4.61771">
        <ele>684</ele>
        <time>2018-10-14T09:19:06Z</time>
      </trkpt>
      <trkpt lat="45.64508" lon="4.61774">
        <ele>684</ele>
        <time>2018-10-14T09:19:07Z</time>
      </trkpt>
      <trkpt lat="45.6451" lon="4.61777">
        <ele>685</ele>
        <time>2018-10-14T09:19:08Z</time>
      </trkpt>
      <trkpt lat="45.64511" lon="4.6178">
        <ele>684</ele>
        <time>2018-10-14T09:19:09Z</time>
      </trkpt>
      <trkpt lat="45.64513" lon="4.61784">
        <ele>686</ele>
        <time>2018-10-14T09:19:10Z</time>
      </trkpt>
      <trkpt lat="45.64514" lon="4.61788">
        <ele>686</ele>
        <time>2018-10-14T09:19:11Z</time>
      </trkpt>
      <trkpt lat="45.64516" lon="4.61791">
        <ele>687</ele>
        <time>2018-10-14T09:19:12Z</time>
      </trkpt>
      <trkpt lat="45.64516" lon="4.61793">
        <ele>687</ele>
        <time>2018-10-14T09:19:13Z</time>
      </trkpt>
      <trkpt lat="45.64516" lon="4.61795">
        <ele>688</ele>
        <time>2018-10-14T09:19:14Z</time>
      </trkpt>
      <trkpt lat="45.64516" lon="4.61798">
        <ele>688</ele>
        <time>2018-10-14T09:19:15Z</time>
      </trkpt>
      <trkpt lat="45.64516" lon="4.61801">
        <ele>688</ele>
        <time>2018-10-14T09:19:16Z</time>
      </trkpt>
      <trkpt lat="45.64516" lon="4.61802">
        <ele>688</ele>
        <time>2018-10-14T09:19:17Z</time>
      </trkpt>
      <trkpt lat="45.64516" lon="4.61804">
        <ele>688</ele>
        <time>2018-10-14T09:19:18Z</time>
      </trkpt>
      <trkpt lat="45.64515" lon="4.61805">
        <ele>688</ele>
        <time>2018-10-14T09:19:19Z</time>
      </trkpt>
      <trkpt lat="45.64513" lon="4.61807">
        <ele>689</ele>
        <time>2018-10-14T09:19:20Z</time>
      </trkpt>
      <trkpt lat="45.64511" lon="4.61809">
        <ele>689</ele>
        <time>2018-10-14T09:19:21Z</time>
      </trkpt>
      <trkpt lat="45.64509" lon="4.61811">
        <ele>689</ele>
        <time>2018-10-14T09:19:22Z</time>
      </trkpt>
      <trkpt lat="45.64508" lon="4.61813">
        <ele>689</ele>
        <time>2018-10-14T09:19:23Z</time>
      </trkpt>
      <trkpt lat="45.64506" lon="4.61816">
        <ele>689</ele>
        <time>2018-10-14T09:19:24Z</time>
      </trkpt>
      <trkpt lat="45.64505" lon="4.61818">
        <ele>682</ele>
        <time>2018-10-14T09:19:25Z</time>
      </trkpt>
      <trkpt lat="45.64503" lon="4.6182">
        <ele>685</ele>
        <time>2018-10-14T09:19:26Z</time>
      </trkpt>
      <trkpt lat="45.64502" lon="4.61821">
        <ele>689</ele>
        <time>2018-10-14T09:19:28Z</time>
      </trkpt>
      <trkpt lat="45.645" lon="4.61822">
        <ele>690</ele>
        <time>2018-10-14T09:19:29Z</time>
      </trkpt>
      <trkpt lat="45.64498" lon="4.61823">
        <ele>689</ele>
        <time>2018-10-14T09:19:30Z</time>
      </trkpt>
      <trkpt lat="45.64496" lon="4.61824">
        <ele>689</ele>
        <time>2018-10-14T09:19:31Z</time>
      </trkpt>
      <trkpt lat="45.64494" lon="4.61825">
        <ele>688</ele>
        <time>2018-10-14T09:19:32Z</time>
      </trkpt>
      <trkpt lat="45.64491" lon="4.61825">
        <ele>690</ele>
        <time>2018-10-14T09:19:33Z</time>
      </trkpt>
      <trkpt lat="45.64489" lon="4.61824">
        <ele>690</ele>
        <time>2018-10-14T09:19:34Z</time>
      </trkpt>
      <trkpt lat="45.64487" lon="4.61824">
        <ele>690</ele>
        <time>2018-10-14T09:19:35Z</time>
      </trkpt>
      <trkpt lat="45.64484" lon="4.61823">
        <ele>690</ele>
        <time>2018-10-14T09:19:36Z</time>
      </trkpt>
      <trkpt lat="45.64483" lon="4.61823">
        <ele>692</ele>
        <time>2018-10-14T09:19:37Z</time>
      </trkpt>
      <trkpt lat="45.64481" lon="4.61823">
        <ele>692</ele>
        <time>2018-10-14T09:19:38Z</time>
      </trkpt>
      <trkpt lat="45.64479" lon="4.61823">
        <ele>692</ele>
        <time>2018-10-14T09:19:39Z</time>
      </trkpt>
      <trkpt lat="45.64478" lon="4.61823">
        <ele>692</ele>
        <time>2018-10-14T09:19:40Z</time>
      </trkpt>
      <trkpt lat="45.64476" lon="4.61823">
        <ele>693</ele>
        <time>2018-10-14T09:19:41Z</time>
      </trkpt>
      <trkpt lat="45.64473" lon="4.61823">
        <ele>694</ele>
        <time>2018-10-14T09:19:43Z</time>
      </trkpt>
      <trkpt lat="45.64471" lon="4.61824">
        <ele>694</ele>
        <time>2018-10-14T09:19:44Z</time>
      </trkpt>
      <trkpt lat="45.64468" lon="4.61824">
        <ele>693</ele>
        <time>2018-10-14T09:19:45Z</time>
      </trkpt>
      <trkpt lat="45.64466" lon="4.61824">
        <ele>693</ele>
        <time>2018-10-14T09:19:46Z</time>
      </trkpt>
      <trkpt lat="45.64463" lon="4.61825">
        <ele>691</ele>
        <time>2018-10-14T09:19:47Z</time>
      </trkpt>
      <trkpt lat="45.64461" lon="4.61825">
        <ele>690</ele>
        <time>2018-10-14T09:19:48Z</time>
      </trkpt>
      <trkpt lat="45.64458" lon="4.61825">
        <ele>690</ele>
        <time>2018-10-14T09:19:49Z</time>
      </trkpt>
      <trkpt lat="45.64455" lon="4.61826">
        <ele>689</ele>
        <time>2018-10-14T09:19:50Z</time>
      </trkpt>
      <trkpt lat="45.64453" lon="4.61827">
        <ele>689</ele>
        <time>2018-10-14T09:19:51Z</time>
      </trkpt>
      <trkpt lat="45.64451" lon="4.61828">
        <ele>689</ele>
        <time>2018-10-14T09:19:52Z</time>
      </trkpt>
      <trkpt lat="45.64448" lon="4.61831">
        <ele>688</ele>
        <time>2018-10-14T09:19:53Z</time>
      </trkpt>
      <trkpt lat="45.64447" lon="4.61833">
        <ele>688</ele>
        <time>2018-10-14T09:19:54Z</time>
      </trkpt>
      <trkpt lat="45.64446" lon="4.61836">
        <ele>688</ele>
        <time>2018-10-14T09:19:55Z</time>
      </trkpt>
      <trkpt lat="45.64444" lon="4.6184">
        <ele>688</ele>
        <time>2018-10-14T09:19:56Z</time>
      </trkpt>
      <trkpt lat="45.64441" lon="4.61845">
        <ele>689</ele>
        <time>2018-10-14T09:19:57Z</time>
      </trkpt>
      <trkpt lat="45.64439" lon="4.61849">
        <ele>689</ele>
        <time>2018-10-14T09:19:58Z</time>
      </trkpt>
      <trkpt lat="45.64437" lon="4.61854">
        <ele>690</ele>
        <time>2018-10-14T09:19:59Z</time>
      </trkpt>
      <trkpt lat="45.64431" lon="4.61861">
        <ele>690</ele>
        <time>2018-10-14T09:20:00Z</time>
      </trkpt>
      <trkpt lat="45.64428" lon="4.61866">
        <ele>690</ele>
        <time>2018-10-14T09:20:01Z</time>
      </trkpt>
      <trkpt lat="45.64426" lon="4.6187">
        <ele>690</ele>
        <time>2018-10-14T09:20:02Z</time>
      </trkpt>
      <trkpt lat="45.64425" lon="4.61874">
        <ele>691</ele>
        <time>2018-10-14T09:20:03Z</time>
      </trkpt>
      <trkpt lat="45.64423" lon="4.61879">
        <ele>691</ele>
        <time>2018-10-14T09:20:04Z</time>
      </trkpt>
      <trkpt lat="45.64422" lon="4.61883">
        <ele>691</ele>
        <time>2018-10-14T09:20:05Z</time>
      </trkpt>
      <trkpt lat="45.64418" lon="4.61885">
        <ele>692</ele>
        <time>2018-10-14T09:20:06Z</time>
      </trkpt>
      <trkpt lat="45.64417" lon="4.61891">
        <ele>692</ele>
        <time>2018-10-14T09:20:07Z</time>
      </trkpt>
      <trkpt lat="45.64417" lon="4.61897">
        <ele>692</ele>
        <time>2018-10-14T09:20:08Z</time>
      </trkpt>
      <trkpt lat="45.64417" lon="4.619">
        <ele>693</ele>
        <time>2018-10-14T09:20:09Z</time>
      </trkpt>
      <trkpt lat="45.64417" lon="4.61903">
        <ele>693</ele>
        <time>2018-10-14T09:20:10Z</time>
      </trkpt>
      <trkpt lat="45.64417" lon="4.61905">
        <ele>695</ele>
        <time>2018-10-14T09:20:11Z</time>
      </trkpt>
      <trkpt lat="45.64417" lon="4.61907">
        <ele>694</ele>
        <time>2018-10-14T09:20:12Z</time>
      </trkpt>
      <trkpt lat="45.64416" lon="4.61915">
        <ele>694</ele>
        <time>2018-10-14T09:20:13Z</time>
      </trkpt>
      <trkpt lat="45.64416" lon="4.61925">
        <ele>694</ele>
        <time>2018-10-14T09:20:14Z</time>
      </trkpt>
      <trkpt lat="45.64415" lon="4.61928">
        <ele>692</ele>
        <time>2018-10-14T09:20:15Z</time>
      </trkpt>
      <trkpt lat="45.64415" lon="4.61933">
        <ele>693</ele>
        <time>2018-10-14T09:20:16Z</time>
      </trkpt>
      <trkpt lat="45.64415" lon="4.61936">
        <ele>692</ele>
        <time>2018-10-14T09:20:17Z</time>
      </trkpt>
      <trkpt lat="45.64417" lon="4.61942">
        <ele>694</ele>
        <time>2018-10-14T09:20:18Z</time>
      </trkpt>
      <trkpt lat="45.64417" lon="4.61945">
        <ele>695</ele>
        <time>2018-10-14T09:20:19Z</time>
      </trkpt>
      <trkpt lat="45.64418" lon="4.6195">
        <ele>694</ele>
        <time>2018-10-14T09:20:20Z</time>
      </trkpt>
      <trkpt lat="45.64419" lon="4.61954">
        <ele>695</ele>
        <time>2018-10-14T09:20:21Z</time>
      </trkpt>
      <trkpt lat="45.6442" lon="4.61958">
        <ele>695</ele>
        <time>2018-10-14T09:20:22Z</time>
      </trkpt>
      <trkpt lat="45.64421" lon="4.61961">
        <ele>696</ele>
        <time>2018-10-14T09:20:23Z</time>
      </trkpt>
      <trkpt lat="45.64422" lon="4.61965">
        <ele>696</ele>
        <time>2018-10-14T09:20:24Z</time>
      </trkpt>
      <trkpt lat="45.64423" lon="4.61967">
        <ele>696</ele>
        <time>2018-10-14T09:20:25Z</time>
      </trkpt>
      <trkpt lat="45.64424" lon="4.61969">
        <ele>696</ele>
        <time>2018-10-14T09:20:26Z</time>
      </trkpt>
      <trkpt lat="45.64425" lon="4.61971">
        <ele>696</ele>
        <time>2018-10-14T09:20:27Z</time>
      </trkpt>
      <trkpt lat="45.64425" lon="4.61974">
        <ele>696</ele>
        <time>2018-10-14T09:20:28Z</time>
      </trkpt>
      <trkpt lat="45.64426" lon="4.61976">
        <ele>696</ele>
        <time>2018-10-14T09:20:29Z</time>
      </trkpt>
      <trkpt lat="45.64426" lon="4.61979">
        <ele>696</ele>
        <time>2018-10-14T09:20:30Z</time>
      </trkpt>
      <trkpt lat="45.64426" lon="4.61983">
        <ele>697</ele>
        <time>2018-10-14T09:20:32Z</time>
      </trkpt>
      <trkpt lat="45.64427" lon="4.61987">
        <ele>698</ele>
        <time>2018-10-14T09:20:33Z</time>
      </trkpt>
      <trkpt lat="45.64428" lon="4.61991">
        <ele>697</ele>
        <time>2018-10-14T09:20:34Z</time>
      </trkpt>
      <trkpt lat="45.64429" lon="4.61995">
        <ele>698</ele>
        <time>2018-10-14T09:20:35Z</time>
      </trkpt>
      <trkpt lat="45.6443" lon="4.61998">
        <ele>698</ele>
        <time>2018-10-14T09:20:36Z</time>
      </trkpt>
      <trkpt lat="45.64431" lon="4.62001">
        <ele>698</ele>
        <time>2018-10-14T09:20:37Z</time>
      </trkpt>
      <trkpt lat="45.64432" lon="4.62005">
        <ele>698</ele>
        <time>2018-10-14T09:20:38Z</time>
      </trkpt>
      <trkpt lat="45.64434" lon="4.62008">
        <ele>698</ele>
        <time>2018-10-14T09:20:39Z</time>
      </trkpt>
      <trkpt lat="45.64435" lon="4.62011">
        <ele>700</ele>
        <time>2018-10-14T09:20:40Z</time>
      </trkpt>
      <trkpt lat="45.64436" lon="4.62015">
        <ele>700</ele>
        <time>2018-10-14T09:20:41Z</time>
      </trkpt>
      <trkpt lat="45.64438" lon="4.62018">
        <ele>701</ele>
        <time>2018-10-14T09:20:42Z</time>
      </trkpt>
      <trkpt lat="45.64439" lon="4.62022">
        <ele>701</ele>
        <time>2018-10-14T09:20:43Z</time>
      </trkpt>
      <trkpt lat="45.6444" lon="4.62026">
        <ele>701</ele>
        <time>2018-10-14T09:20:44Z</time>
      </trkpt>
      <trkpt lat="45.64441" lon="4.62029">
        <ele>701</ele>
        <time>2018-10-14T09:20:45Z</time>
      </trkpt>
      <trkpt lat="45.64442" lon="4.62032">
        <ele>701</ele>
        <time>2018-10-14T09:20:46Z</time>
      </trkpt>
      <trkpt lat="45.64443" lon="4.62036">
        <ele>700</ele>
        <time>2018-10-14T09:20:47Z</time>
      </trkpt>
      <trkpt lat="45.64444" lon="4.62039">
        <ele>701</ele>
        <time>2018-10-14T09:20:48Z</time>
      </trkpt>
      <trkpt lat="45.64446" lon="4.62042">
        <ele>701</ele>
        <time>2018-10-14T09:20:49Z</time>
      </trkpt>
      <trkpt lat="45.64447" lon="4.62045">
        <ele>701</ele>
        <time>2018-10-14T09:20:50Z</time>
      </trkpt>
      <trkpt lat="45.64448" lon="4.62049">
        <ele>701</ele>
        <time>2018-10-14T09:20:51Z</time>
      </trkpt>
      <trkpt lat="45.64449" lon="4.62052">
        <ele>701</ele>
        <time>2018-10-14T09:20:52Z</time>
      </trkpt>
      <trkpt lat="45.64451" lon="4.62056">
        <ele>700</ele>
        <time>2018-10-14T09:20:53Z</time>
      </trkpt>
      <trkpt lat="45.64452" lon="4.62059">
        <ele>700</ele>
        <time>2018-10-14T09:20:54Z</time>
      </trkpt>
      <trkpt lat="45.64453" lon="4.62063">
        <ele>701</ele>
        <time>2018-10-14T09:20:55Z</time>
      </trkpt>
      <trkpt lat="45.64454" lon="4.62066">
        <ele>702</ele>
        <time>2018-10-14T09:20:56Z</time>
      </trkpt>
      <trkpt lat="45.64455" lon="4.6207">
        <ele>703</ele>
        <time>2018-10-14T09:20:57Z</time>
      </trkpt>
      <trkpt lat="45.64455" lon="4.62073">
        <ele>702</ele>
        <time>2018-10-14T09:20:58Z</time>
      </trkpt>
      <trkpt lat="45.64457" lon="4.62077">
        <ele>702</ele>
        <time>2018-10-14T09:20:59Z</time>
      </trkpt>
      <trkpt lat="45.64457" lon="4.62081">
        <ele>701</ele>
        <time>2018-10-14T09:21:00Z</time>
      </trkpt>
      <trkpt lat="45.64458" lon="4.62084">
        <ele>702</ele>
        <time>2018-10-14T09:21:01Z</time>
      </trkpt>
      <trkpt lat="45.64459" lon="4.62088">
        <ele>702</ele>
        <time>2018-10-14T09:21:02Z</time>
      </trkpt>
      <trkpt lat="45.6446" lon="4.62092">
        <ele>702</ele>
        <time>2018-10-14T09:21:03Z</time>
      </trkpt>
      <trkpt lat="45.6446" lon="4.62095">
        <ele>702</ele>
        <time>2018-10-14T09:21:04Z</time>
      </trkpt>
      <trkpt lat="45.6446" lon="4.62099">
        <ele>702</ele>
        <time>2018-10-14T09:21:05Z</time>
      </trkpt>
      <trkpt lat="45.64461" lon="4.62102">
        <ele>702</ele>
        <time>2018-10-14T09:21:06Z</time>
      </trkpt>
      <trkpt lat="45.64461" lon="4.62106">
        <ele>702</ele>
        <time>2018-10-14T09:21:07Z</time>
      </trkpt>
      <trkpt lat="45.64462" lon="4.6211">
        <ele>702</ele>
        <time>2018-10-14T09:21:08Z</time>
      </trkpt>
      <trkpt lat="45.64462" lon="4.62115">
        <ele>702</ele>
        <time>2018-10-14T09:21:09Z</time>
      </trkpt>
      <trkpt lat="45.64462" lon="4.6212">
        <ele>704</ele>
        <time>2018-10-14T09:21:10Z</time>
      </trkpt>
      <trkpt lat="45.64463" lon="4.62123">
        <ele>704</ele>
        <time>2018-10-14T09:21:11Z</time>
      </trkpt>
      <trkpt lat="45.64463" lon="4.62127">
        <ele>704</ele>
        <time>2018-10-14T09:21:12Z</time>
      </trkpt>
      <trkpt lat="45.64463" lon="4.62131">
        <ele>704</ele>
        <time>2018-10-14T09:21:13Z</time>
      </trkpt>
      <trkpt lat="45.64464" lon="4.62135">
        <ele>704</ele>
        <time>2018-10-14T09:21:14Z</time>
      </trkpt>
      <trkpt lat="45.64465" lon="4.62138">
        <ele>704</ele>
        <time>2018-10-14T09:21:15Z</time>
      </trkpt>
      <trkpt lat="45.64465" lon="4.62142">
        <ele>704</ele>
        <time>2018-10-14T09:21:16Z</time>
      </trkpt>
      <trkpt lat="45.64465" lon="4.62146">
        <ele>705</ele>
        <time>2018-10-14T09:21:17Z</time>
      </trkpt>
      <trkpt lat="45.64465" lon="4.62149">
        <ele>704</ele>
        <time>2018-10-14T09:21:18Z</time>
      </trkpt>
      <trkpt lat="45.64465" lon="4.62151">
        <ele>704</ele>
        <time>2018-10-14T09:21:19Z</time>
      </trkpt>
      <trkpt lat="45.64466" lon="4.62154">
        <ele>705</ele>
        <time>2018-10-14T09:21:20Z</time>
      </trkpt>
      <trkpt lat="45.64466" lon="4.62166">
        <ele>705</ele>
        <time>2018-10-14T09:21:22Z</time>
      </trkpt>
      <trkpt lat="45.64466" lon="4.6217">
        <ele>705</ele>
        <time>2018-10-14T09:21:23Z</time>
      </trkpt>
      <trkpt lat="45.64466" lon="4.62174">
        <ele>705</ele>
        <time>2018-10-14T09:21:24Z</time>
      </trkpt>
      <trkpt lat="45.64466" lon="4.62177">
        <ele>705</ele>
        <time>2018-10-14T09:21:25Z</time>
      </trkpt>
      <trkpt lat="45.64466" lon="4.62181">
        <ele>705</ele>
        <time>2018-10-14T09:21:26Z</time>
      </trkpt>
      <trkpt lat="45.64467" lon="4.62185">
        <ele>705</ele>
        <time>2018-10-14T09:21:27Z</time>
      </trkpt>
      <trkpt lat="45.64467" lon="4.62188">
        <ele>705</ele>
        <time>2018-10-14T09:21:28Z</time>
      </trkpt>
      <trkpt lat="45.64468" lon="4.62193">
        <ele>705</ele>
        <time>2018-10-14T09:21:29Z</time>
      </trkpt>
      <trkpt lat="45.64468" lon="4.62196">
        <ele>705</ele>
        <time>2018-10-14T09:21:30Z</time>
      </trkpt>
      <trkpt lat="45.64469" lon="4.622">
        <ele>705</ele>
        <time>2018-10-14T09:21:31Z</time>
      </trkpt>
      <trkpt lat="45.64469" lon="4.62204">
        <ele>705</ele>
        <time>2018-10-14T09:21:32Z</time>
      </trkpt>
      <trkpt lat="45.6447" lon="4.62206">
        <ele>705</ele>
        <time>2018-10-14T09:21:33Z</time>
      </trkpt>
      <trkpt lat="45.6447" lon="4.6221">
        <ele>705</ele>
        <time>2018-10-14T09:21:35Z</time>
      </trkpt>
      <trkpt lat="45.64469" lon="4.62215">
        <ele>705</ele>
        <time>2018-10-14T09:21:36Z</time>
      </trkpt>
      <trkpt lat="45.64469" lon="4.6222">
        <ele>705</ele>
        <time>2018-10-14T09:21:37Z</time>
      </trkpt>
      <trkpt lat="45.64469" lon="4.62226">
        <ele>705</ele>
        <time>2018-10-14T09:21:38Z</time>
      </trkpt>
      <trkpt lat="45.64468" lon="4.62233">
        <ele>705</ele>
        <time>2018-10-14T09:21:39Z</time>
      </trkpt>
      <trkpt lat="45.64467" lon="4.62239">
        <ele>706</ele>
        <time>2018-10-14T09:21:40Z</time>
      </trkpt>
      <trkpt lat="45.64467" lon="4.62244">
        <ele>705</ele>
        <time>2018-10-14T09:21:41Z</time>
      </trkpt>
      <trkpt lat="45.64467" lon="4.6225">
        <ele>705</ele>
        <time>2018-10-14T09:21:42Z</time>
      </trkpt>
      <trkpt lat="45.64467" lon="4.62255">
        <ele>705</ele>
        <time>2018-10-14T09:21:43Z</time>
      </trkpt>
      <trkpt lat="45.64466" lon="4.6226">
        <ele>705</ele>
        <time>2018-10-14T09:21:44Z</time>
      </trkpt>
      <trkpt lat="45.64465" lon="4.62265">
        <ele>705</ele>
        <time>2018-10-14T09:21:45Z</time>
      </trkpt>
      <trkpt lat="45.64464" lon="4.6227">
        <ele>705</ele>
        <time>2018-10-14T09:21:46Z</time>
      </trkpt>
      <trkpt lat="45.64463" lon="4.62276">
        <ele>705</ele>
        <time>2018-10-14T09:21:47Z</time>
      </trkpt>
      <trkpt lat="45.64463" lon="4.62279">
        <ele>705</ele>
        <time>2018-10-14T09:21:48Z</time>
      </trkpt>
      <trkpt lat="45.64462" lon="4.62282">
        <ele>705</ele>
        <time>2018-10-14T09:21:49Z</time>
      </trkpt>
      <trkpt lat="45.64462" lon="4.62284">
        <ele>705</ele>
        <time>2018-10-14T09:21:50Z</time>
      </trkpt>
      <trkpt lat="45.64461" lon="4.62291">
        <ele>704</ele>
        <time>2018-10-14T09:21:51Z</time>
      </trkpt>
      <trkpt lat="45.64459" lon="4.62308">
        <ele>703</ele>
        <time>2018-10-14T09:21:52Z</time>
      </trkpt>
      <trkpt lat="45.64458" lon="4.62315">
        <ele>702</ele>
        <time>2018-10-14T09:21:53Z</time>
      </trkpt>
      <trkpt lat="45.64457" lon="4.62322">
        <ele>701</ele>
        <time>2018-10-14T09:21:54Z</time>
      </trkpt>
      <trkpt lat="45.64457" lon="4.6233">
        <ele>701</ele>
        <time>2018-10-14T09:21:55Z</time>
      </trkpt>
      <trkpt lat="45.64457" lon="4.62339">
        <ele>700</ele>
        <time>2018-10-14T09:21:56Z</time>
      </trkpt>
      <trkpt lat="45.64457" lon="4.62348">
        <ele>699</ele>
        <time>2018-10-14T09:21:57Z</time>
      </trkpt>
      <trkpt lat="45.64457" lon="4.62356">
        <ele>697</ele>
        <time>2018-10-14T09:21:58Z</time>
      </trkpt>
      <trkpt lat="45.64456" lon="4.62364">
        <ele>697</ele>
        <time>2018-10-14T09:21:59Z</time>
      </trkpt>
      <trkpt lat="45.64456" lon="4.62371">
        <ele>696</ele>
        <time>2018-10-14T09:22:00Z</time>
      </trkpt>
      <trkpt lat="45.64457" lon="4.62377">
        <ele>695</ele>
        <time>2018-10-14T09:22:01Z</time>
      </trkpt>
      <trkpt lat="45.64457" lon="4.62384">
        <ele>696</ele>
        <time>2018-10-14T09:22:02Z</time>
      </trkpt>
      <trkpt lat="45.64457" lon="4.62392">
        <ele>696</ele>
        <time>2018-10-14T09:22:03Z</time>
      </trkpt>
      <trkpt lat="45.64458" lon="4.624">
        <ele>695</ele>
        <time>2018-10-14T09:22:04Z</time>
      </trkpt>
      <trkpt lat="45.64459" lon="4.62409">
        <ele>695</ele>
        <time>2018-10-14T09:22:05Z</time>
      </trkpt>
      <trkpt lat="45.64459" lon="4.62419">
        <ele>694</ele>
        <time>2018-10-14T09:22:06Z</time>
      </trkpt>
      <trkpt lat="45.64461" lon="4.62429">
        <ele>693</ele>
        <time>2018-10-14T09:22:07Z</time>
      </trkpt>
      <trkpt lat="45.64464" lon="4.62439">
        <ele>692</ele>
        <time>2018-10-14T09:22:08Z</time>
      </trkpt>
      <trkpt lat="45.64466" lon="4.62447">
        <ele>692</ele>
        <time>2018-10-14T09:22:09Z</time>
      </trkpt>
      <trkpt lat="45.64468" lon="4.62452">
        <ele>692</ele>
        <time>2018-10-14T09:22:10Z</time>
      </trkpt>
      <trkpt lat="45.6447" lon="4.62457">
        <ele>691</ele>
        <time>2018-10-14T09:22:11Z</time>
      </trkpt>
      <trkpt lat="45.64471" lon="4.62462">
        <ele>690</ele>
        <time>2018-10-14T09:22:12Z</time>
      </trkpt>
      <trkpt lat="45.64471" lon="4.62467">
        <ele>689</ele>
        <time>2018-10-14T09:22:13Z</time>
      </trkpt>
      <trkpt lat="45.64468" lon="4.62473">
        <ele>689</ele>
        <time>2018-10-14T09:22:14Z</time>
      </trkpt>
      <trkpt lat="45.64463" lon="4.62478">
        <ele>689</ele>
        <time>2018-10-14T09:22:15Z</time>
      </trkpt>
      <trkpt lat="45.64457" lon="4.62482">
        <ele>687</ele>
        <time>2018-10-14T09:22:16Z</time>
      </trkpt>
      <trkpt lat="45.64451" lon="4.62483">
        <ele>686</ele>
        <time>2018-10-14T09:22:17Z</time>
      </trkpt>
      <trkpt lat="45.64444" lon="4.62484">
        <ele>685</ele>
        <time>2018-10-14T09:22:18Z</time>
      </trkpt>
      <trkpt lat="45.64437" lon="4.62484">
        <ele>686</ele>
        <time>2018-10-14T09:22:19Z</time>
      </trkpt>
      <trkpt lat="45.64428" lon="4.62484">
        <ele>684</ele>
        <time>2018-10-14T09:22:20Z</time>
      </trkpt>
      <trkpt lat="45.64422" lon="4.62487">
        <ele>684</ele>
        <time>2018-10-14T09:22:21Z</time>
      </trkpt>
      <trkpt lat="45.64414" lon="4.6249">
        <ele>683</ele>
        <time>2018-10-14T09:22:22Z</time>
      </trkpt>
      <trkpt lat="45.64407" lon="4.62497">
        <ele>680</ele>
        <time>2018-10-14T09:22:23Z</time>
      </trkpt>
      <trkpt lat="45.64403" lon="4.62504">
        <ele>680</ele>
        <time>2018-10-14T09:22:24Z</time>
      </trkpt>
      <trkpt lat="45.64402" lon="4.62516">
        <ele>679</ele>
        <time>2018-10-14T09:22:25Z</time>
      </trkpt>
      <trkpt lat="45.64401" lon="4.62528">
        <ele>678</ele>
        <time>2018-10-14T09:22:26Z</time>
      </trkpt>
      <trkpt lat="45.64402" lon="4.62541">
        <ele>676</ele>
        <time>2018-10-14T09:22:27Z</time>
      </trkpt>
      <trkpt lat="45.64402" lon="4.62554">
        <ele>675</ele>
        <time>2018-10-14T09:22:28Z</time>
      </trkpt>
      <trkpt lat="45.64401" lon="4.62566">
        <ele>674</ele>
        <time>2018-10-14T09:22:29Z</time>
      </trkpt>
      <trkpt lat="45.64399" lon="4.62579">
        <ele>673</ele>
        <time>2018-10-14T09:22:30Z</time>
      </trkpt>
      <trkpt lat="45.64396" lon="4.62591">
        <ele>673</ele>
        <time>2018-10-14T09:22:31Z</time>
      </trkpt>
      <trkpt lat="45.64391" lon="4.62602">
        <ele>672</ele>
        <time>2018-10-14T09:22:32Z</time>
      </trkpt>
      <trkpt lat="45.64386" lon="4.62613">
        <ele>672</ele>
        <time>2018-10-14T09:22:33Z</time>
      </trkpt>
      <trkpt lat="45.64381" lon="4.62622">
        <ele>671</ele>
        <time>2018-10-14T09:22:34Z</time>
      </trkpt>
      <trkpt lat="45.64376" lon="4.62631">
        <ele>671</ele>
        <time>2018-10-14T09:22:35Z</time>
      </trkpt>
      <trkpt lat="45.6437" lon="4.62638">
        <ele>670</ele>
        <time>2018-10-14T09:22:36Z</time>
      </trkpt>
      <trkpt lat="45.64365" lon="4.62645">
        <ele>668</ele>
        <time>2018-10-14T09:22:37Z</time>
      </trkpt>
      <trkpt lat="45.64359" lon="4.62653">
        <ele>666</ele>
        <time>2018-10-14T09:22:38Z</time>
      </trkpt>
      <trkpt lat="45.64354" lon="4.62662">
        <ele>665</ele>
        <time>2018-10-14T09:22:39Z</time>
      </trkpt>
      <trkpt lat="45.6435" lon="4.62673">
        <ele>664</ele>
        <time>2018-10-14T09:22:40Z</time>
      </trkpt>
      <trkpt lat="45.64346" lon="4.62682">
        <ele>663</ele>
        <time>2018-10-14T09:22:41Z</time>
      </trkpt>
      <trkpt lat="45.64344" lon="4.6269">
        <ele>662</ele>
        <time>2018-10-14T09:22:42Z</time>
      </trkpt>
      <trkpt lat="45.64342" lon="4.62698">
        <ele>662</ele>
        <time>2018-10-14T09:22:43Z</time>
      </trkpt>
      <trkpt lat="45.64339" lon="4.62703">
        <ele>662</ele>
        <time>2018-10-14T09:22:44Z</time>
      </trkpt>
      <trkpt lat="45.64338" lon="4.62707">
        <ele>662</ele>
        <time>2018-10-14T09:22:45Z</time>
      </trkpt>
      <trkpt lat="45.64337" lon="4.6271">
        <ele>661</ele>
        <time>2018-10-14T09:22:46Z</time>
      </trkpt>
      <trkpt lat="45.64338" lon="4.6271">
        <ele>660</ele>
        <time>2018-10-14T09:22:54Z</time>
      </trkpt>
      <trkpt lat="45.64336" lon="4.62709">
        <ele>664</ele>
        <time>2018-10-14T09:26:35Z</time>
      </trkpt>
      <trkpt lat="45.64336" lon="4.62713">
        <ele>663</ele>
        <time>2018-10-14T09:26:55Z</time>
      </trkpt>
      <trkpt lat="45.64336" lon="4.62715">
        <ele>662</ele>
        <time>2018-10-14T09:26:56Z</time>
      </trkpt>
      <trkpt lat="45.64336" lon="4.62716">
        <ele>664</ele>
        <time>2018-10-14T09:26:57Z</time>
      </trkpt>
      <trkpt lat="45.64337" lon="4.62719">
        <ele>664</ele>
        <time>2018-10-14T09:26:58Z</time>
      </trkpt>
      <trkpt lat="45.64337" lon="4.62721">
        <ele>663</ele>
        <time>2018-10-14T09:26:59Z</time>
      </trkpt>
      <trkpt lat="45.64338" lon="4.62723">
        <ele>662</ele>
        <time>2018-10-14T09:27:00Z</time>
      </trkpt>
      <trkpt lat="45.64339" lon="4.62726">
        <ele>662</ele>
        <time>2018-10-14T09:27:01Z</time>
      </trkpt>
      <trkpt lat="45.64339" lon="4.62729">
        <ele>661</ele>
        <time>2018-10-14T09:27:02Z</time>
      </trkpt>
      <trkpt lat="45.6434" lon="4.62732">
        <ele>661</ele>
        <time>2018-10-14T09:27:03Z</time>
      </trkpt>
      <trkpt lat="45.6434" lon="4.62736">
        <ele>660</ele>
        <time>2018-10-14T09:27:04Z</time>
      </trkpt>
      <trkpt lat="45.64341" lon="4.62739">
        <ele>661</ele>
        <time>2018-10-14T09:27:05Z</time>
      </trkpt>
      <trkpt lat="45.64341" lon="4.62741">
        <ele>661</ele>
        <time>2018-10-14T09:27:06Z</time>
      </trkpt>
      <trkpt lat="45.64342" lon="4.62745">
        <ele>661</ele>
        <time>2018-10-14T09:27:07Z</time>
      </trkpt>
      <trkpt lat="45.64343" lon="4.62748">
        <ele>661</ele>
        <time>2018-10-14T09:27:08Z</time>
      </trkpt>
      <trkpt lat="45.64343" lon="4.62752">
        <ele>661</ele>
        <time>2018-10-14T09:27:09Z</time>
      </trkpt>
      <trkpt lat="45.64343" lon="4.62756">
        <ele>662</ele>
        <time>2018-10-14T09:27:10Z</time>
      </trkpt>
      <trkpt lat="45.64344" lon="4.62761">
        <ele>663</ele>
        <time>2018-10-14T09:27:11Z</time>
      </trkpt>
      <trkpt lat="45.64345" lon="4.62765">
        <ele>663</ele>
        <time>2018-10-14T09:27:12Z</time>
      </trkpt>
      <trkpt lat="45.64345" lon="4.62769">
        <ele>663</ele>
        <time>2018-10-14T09:27:13Z</time>
      </trkpt>
      <trkpt lat="45.64345" lon="4.62773">
        <ele>664</ele>
        <time>2018-10-14T09:27:14Z</time>
      </trkpt>
      <trkpt lat="45.64344" lon="4.62777">
        <ele>664</ele>
        <time>2018-10-14T09:27:15Z</time>
      </trkpt>
      <trkpt lat="45.64343" lon="4.62781">
        <ele>664</ele>
        <time>2018-10-14T09:27:16Z</time>
      </trkpt>
      <trkpt lat="45.64342" lon="4.62785">
        <ele>665</ele>
        <time>2018-10-14T09:27:17Z</time>
      </trkpt>
      <trkpt lat="45.6434" lon="4.62789">
        <ele>665</ele>
        <time>2018-10-14T09:27:18Z</time>
      </trkpt>
      <trkpt lat="45.64338" lon="4.62793">
        <ele>666</ele>
        <time>2018-10-14T09:27:19Z</time>
      </trkpt>
      <trkpt lat="45.64335" lon="4.62796">
        <ele>667</ele>
        <time>2018-10-14T09:27:20Z</time>
      </trkpt>
      <trkpt lat="45.64332" lon="4.628">
        <ele>667</ele>
        <time>2018-10-14T09:27:21Z</time>
      </trkpt>
      <trkpt lat="45.6433" lon="4.62803">
        <ele>666</ele>
        <time>2018-10-14T09:27:22Z</time>
      </trkpt>
      <trkpt lat="45.64328" lon="4.62806">
        <ele>667</ele>
        <time>2018-10-14T09:27:23Z</time>
      </trkpt>
      <trkpt lat="45.64326" lon="4.62808">
        <ele>667</ele>
        <time>2018-10-14T09:27:24Z</time>
      </trkpt>
      <trkpt lat="45.64325" lon="4.62811">
        <ele>666</ele>
        <time>2018-10-14T09:27:25Z</time>
      </trkpt>
      <trkpt lat="45.64323" lon="4.62814">
        <ele>666</ele>
        <time>2018-10-14T09:27:26Z</time>
      </trkpt>
      <trkpt lat="45.6432" lon="4.62817">
        <ele>666</ele>
        <time>2018-10-14T09:27:27Z</time>
      </trkpt>
      <trkpt lat="45.64317" lon="4.6282">
        <ele>667</ele>
        <time>2018-10-14T09:27:28Z</time>
      </trkpt>
      <trkpt lat="45.64314" lon="4.62822">
        <ele>667</ele>
        <time>2018-10-14T09:27:29Z</time>
      </trkpt>
      <trkpt lat="45.64311" lon="4.62823">
        <ele>667</ele>
        <time>2018-10-14T09:27:30Z</time>
      </trkpt>
      <trkpt lat="45.64309" lon="4.62826">
        <ele>668</ele>
        <time>2018-10-14T09:27:31Z</time>
      </trkpt>
      <trkpt lat="45.64307" lon="4.6283">
        <ele>669</ele>
        <time>2018-10-14T09:27:32Z</time>
      </trkpt>
      <trkpt lat="45.64304" lon="4.62833">
        <ele>669</ele>
        <time>2018-10-14T09:27:33Z</time>
      </trkpt>
      <trkpt lat="45.64302" lon="4.62836">
        <ele>669</ele>
        <time>2018-10-14T09:27:34Z</time>
      </trkpt>
      <trkpt lat="45.64301" lon="4.62839">
        <ele>669</ele>
        <time>2018-10-14T09:27:35Z</time>
      </trkpt>
      <trkpt lat="45.64299" lon="4.62843">
        <ele>668</ele>
        <time>2018-10-14T09:27:36Z</time>
      </trkpt>
      <trkpt lat="45.64298" lon="4.62846">
        <ele>669</ele>
        <time>2018-10-14T09:27:37Z</time>
      </trkpt>
      <trkpt lat="45.64297" lon="4.62848">
        <ele>669</ele>
        <time>2018-10-14T09:27:38Z</time>
      </trkpt>
      <trkpt lat="45.64296" lon="4.6285">
        <ele>669</ele>
        <time>2018-10-14T09:27:39Z</time>
      </trkpt>
      <trkpt lat="45.64296" lon="4.62853">
        <ele>669</ele>
        <time>2018-10-14T09:27:40Z</time>
      </trkpt>
      <trkpt lat="45.64293" lon="4.62866">
        <ele>669</ele>
        <time>2018-10-14T09:27:41Z</time>
      </trkpt>
      <trkpt lat="45.64291" lon="4.62871">
        <ele>668</ele>
        <time>2018-10-14T09:27:42Z</time>
      </trkpt>
      <trkpt lat="45.64291" lon="4.62877">
        <ele>667</ele>
        <time>2018-10-14T09:27:43Z</time>
      </trkpt>
      <trkpt lat="45.64291" lon="4.62882">
        <ele>667</ele>
        <time>2018-10-14T09:27:44Z</time>
      </trkpt>
      <trkpt lat="45.64291" lon="4.62889">
        <ele>666</ele>
        <time>2018-10-14T09:27:45Z</time>
      </trkpt>
      <trkpt lat="45.64292" lon="4.62896">
        <ele>667</ele>
        <time>2018-10-14T09:27:46Z</time>
      </trkpt>
      <trkpt lat="45.64294" lon="4.62902">
        <ele>666</ele>
        <time>2018-10-14T09:27:47Z</time>
      </trkpt>
      <trkpt lat="45.64296" lon="4.62909">
        <ele>666</ele>
        <time>2018-10-14T09:27:48Z</time>
      </trkpt>
      <trkpt lat="45.64298" lon="4.62916">
        <ele>667</ele>
        <time>2018-10-14T09:27:49Z</time>
      </trkpt>
      <trkpt lat="45.643" lon="4.62922">
        <ele>667</ele>
        <time>2018-10-14T09:27:50Z</time>
      </trkpt>
      <trkpt lat="45.64303" lon="4.62929">
        <ele>666</ele>
        <time>2018-10-14T09:27:51Z</time>
      </trkpt>
      <trkpt lat="45.64305" lon="4.62936">
        <ele>666</ele>
        <time>2018-10-14T09:27:52Z</time>
      </trkpt>
      <trkpt lat="45.64309" lon="4.62949">
        <ele>664</ele>
        <time>2018-10-14T09:27:54Z</time>
      </trkpt>
      <trkpt lat="45.64312" lon="4.62955">
        <ele>663</ele>
        <time>2018-10-14T09:27:55Z</time>
      </trkpt>
      <trkpt lat="45.64316" lon="4.62961">
        <ele>664</ele>
        <time>2018-10-14T09:27:56Z</time>
      </trkpt>
      <trkpt lat="45.64318" lon="4.62968">
        <ele>664</ele>
        <time>2018-10-14T09:27:57Z</time>
      </trkpt>
      <trkpt lat="45.6432" lon="4.62976">
        <ele>665</ele>
        <time>2018-10-14T09:27:58Z</time>
      </trkpt>
      <trkpt lat="45.64322" lon="4.62983">
        <ele>665</ele>
        <time>2018-10-14T09:27:59Z</time>
      </trkpt>
      <trkpt lat="45.64323" lon="4.62992">
        <ele>666</ele>
        <time>2018-10-14T09:28:00Z</time>
      </trkpt>
      <trkpt lat="45.64324" lon="4.63001">
        <ele>664</ele>
        <time>2018-10-14T09:28:01Z</time>
      </trkpt>
      <trkpt lat="45.64325" lon="4.63008">
        <ele>663</ele>
        <time>2018-10-14T09:28:02Z</time>
      </trkpt>
      <trkpt lat="45.64325" lon="4.63017">
        <ele>661</ele>
        <time>2018-10-14T09:28:03Z</time>
      </trkpt>
      <trkpt lat="45.64325" lon="4.63023">
        <ele>663</ele>
        <time>2018-10-14T09:28:04Z</time>
      </trkpt>
      <trkpt lat="45.64326" lon="4.63031">
        <ele>663</ele>
        <time>2018-10-14T09:28:05Z</time>
      </trkpt>
      <trkpt lat="45.64327" lon="4.63039">
        <ele>662</ele>
        <time>2018-10-14T09:28:06Z</time>
      </trkpt>
      <trkpt lat="45.64328" lon="4.63046">
        <ele>662</ele>
        <time>2018-10-14T09:28:07Z</time>
      </trkpt>
      <trkpt lat="45.64328" lon="4.63053">
        <ele>662</ele>
        <time>2018-10-14T09:28:08Z</time>
      </trkpt>
      <trkpt lat="45.6433" lon="4.63059">
        <ele>662</ele>
        <time>2018-10-14T09:28:09Z</time>
      </trkpt>
      <trkpt lat="45.64332" lon="4.63065">
        <ele>663</ele>
        <time>2018-10-14T09:28:10Z</time>
      </trkpt>
      <trkpt lat="45.64334" lon="4.6307">
        <ele>663</ele>
        <time>2018-10-14T09:28:11Z</time>
      </trkpt>
      <trkpt lat="45.64335" lon="4.63074">
        <ele>663</ele>
        <time>2018-10-14T09:28:12Z</time>
      </trkpt>
      <trkpt lat="45.64338" lon="4.63078">
        <ele>662</ele>
        <time>2018-10-14T09:28:13Z</time>
      </trkpt>
      <trkpt lat="45.64339" lon="4.63082">
        <ele>662</ele>
        <time>2018-10-14T09:28:14Z</time>
      </trkpt>
      <trkpt lat="45.64339" lon="4.63086">
        <ele>663</ele>
        <time>2018-10-14T09:28:15Z</time>
      </trkpt>
      <trkpt lat="45.64339" lon="4.63091">
        <ele>663</ele>
        <time>2018-10-14T09:28:16Z</time>
      </trkpt>
      <trkpt lat="45.64338" lon="4.63095">
        <ele>662</ele>
        <time>2018-10-14T09:28:17Z</time>
      </trkpt>
      <trkpt lat="45.64336" lon="4.63101">
        <ele>661</ele>
        <time>2018-10-14T09:28:18Z</time>
      </trkpt>
      <trkpt lat="45.64335" lon="4.63107">
        <ele>660</ele>
        <time>2018-10-14T09:28:19Z</time>
      </trkpt>
      <trkpt lat="45.64333" lon="4.63112">
        <ele>659</ele>
        <time>2018-10-14T09:28:20Z</time>
      </trkpt>
      <trkpt lat="45.64332" lon="4.63118">
        <ele>659</ele>
        <time>2018-10-14T09:28:21Z</time>
      </trkpt>
      <trkpt lat="45.64331" lon="4.63124">
        <ele>658</ele>
        <time>2018-10-14T09:28:22Z</time>
      </trkpt>
      <trkpt lat="45.64331" lon="4.6313">
        <ele>658</ele>
        <time>2018-10-14T09:28:23Z</time>
      </trkpt>
      <trkpt lat="45.6433" lon="4.63136">
        <ele>658</ele>
        <time>2018-10-14T09:28:24Z</time>
      </trkpt>
      <trkpt lat="45.64329" lon="4.63142">
        <ele>657</ele>
        <time>2018-10-14T09:28:25Z</time>
      </trkpt>
      <trkpt lat="45.64328" lon="4.63148">
        <ele>657</ele>
        <time>2018-10-14T09:28:26Z</time>
      </trkpt>
      <trkpt lat="45.64327" lon="4.63157">
        <ele>655</ele>
        <time>2018-10-14T09:28:27Z</time>
      </trkpt>
      <trkpt lat="45.64326" lon="4.63166">
        <ele>654</ele>
        <time>2018-10-14T09:28:28Z</time>
      </trkpt>
      <trkpt lat="45.64327" lon="4.63176">
        <ele>653</ele>
        <time>2018-10-14T09:28:29Z</time>
      </trkpt>
      <trkpt lat="45.64327" lon="4.63185">
        <ele>651</ele>
        <time>2018-10-14T09:28:30Z</time>
      </trkpt>
      <trkpt lat="45.64327" lon="4.63196">
        <ele>649</ele>
        <time>2018-10-14T09:28:31Z</time>
      </trkpt>
      <trkpt lat="45.64329" lon="4.63207">
        <ele>653</ele>
        <time>2018-10-14T09:28:32Z</time>
      </trkpt>
      <trkpt lat="45.64331" lon="4.63217">
        <ele>651</ele>
        <time>2018-10-14T09:28:33Z</time>
      </trkpt>
      <trkpt lat="45.64333" lon="4.63226">
        <ele>649</ele>
        <time>2018-10-14T09:28:34Z</time>
      </trkpt>
      <trkpt lat="45.64334" lon="4.63237">
        <ele>646</ele>
        <time>2018-10-14T09:28:35Z</time>
      </trkpt>
      <trkpt lat="45.64333" lon="4.63246">
        <ele>645</ele>
        <time>2018-10-14T09:28:36Z</time>
      </trkpt>
      <trkpt lat="45.64332" lon="4.63254">
        <ele>644</ele>
        <time>2018-10-14T09:28:37Z</time>
      </trkpt>
      <trkpt lat="45.64331" lon="4.63262">
        <ele>642</ele>
        <time>2018-10-14T09:28:38Z</time>
      </trkpt>
      <trkpt lat="45.6433" lon="4.63269">
        <ele>642</ele>
        <time>2018-10-14T09:28:39Z</time>
      </trkpt>
      <trkpt lat="45.64329" lon="4.63274">
        <ele>642</ele>
        <time>2018-10-14T09:28:40Z</time>
      </trkpt>
      <trkpt lat="45.64328" lon="4.63276">
        <ele>642</ele>
        <time>2018-10-14T09:28:41Z</time>
      </trkpt>
      <trkpt lat="45.64327" lon="4.63278">
        <ele>642</ele>
        <time>2018-10-14T09:28:42Z</time>
      </trkpt>
      <trkpt lat="45.64325" lon="4.63281">
        <ele>642</ele>
        <time>2018-10-14T09:28:43Z</time>
      </trkpt>
      <trkpt lat="45.64322" lon="4.63283">
        <ele>641</ele>
        <time>2018-10-14T09:28:44Z</time>
      </trkpt>
      <trkpt lat="45.6432" lon="4.63286">
        <ele>641</ele>
        <time>2018-10-14T09:28:45Z</time>
      </trkpt>
      <trkpt lat="45.64319" lon="4.63289">
        <ele>641</ele>
        <time>2018-10-14T09:28:46Z</time>
      </trkpt>
      <trkpt lat="45.6432" lon="4.63291">
        <ele>640</ele>
        <time>2018-10-14T09:28:47Z</time>
      </trkpt>
      <trkpt lat="45.64319" lon="4.63294">
        <ele>640</ele>
        <time>2018-10-14T09:28:48Z</time>
      </trkpt>
      <trkpt lat="45.6432" lon="4.63297">
        <ele>640</ele>
        <time>2018-10-14T09:28:49Z</time>
      </trkpt>
      <trkpt lat="45.6432" lon="4.633">
        <ele>639</ele>
        <time>2018-10-14T09:28:50Z</time>
      </trkpt>
      <trkpt lat="45.6432" lon="4.63305">
        <ele>638</ele>
        <time>2018-10-14T09:28:51Z</time>
      </trkpt>
      <trkpt lat="45.64322" lon="4.63319">
        <ele>638</ele>
        <time>2018-10-14T09:28:52Z</time>
      </trkpt>
      <trkpt lat="45.64323" lon="4.6336">
        <ele>635</ele>
        <time>2018-10-14T09:28:53Z</time>
      </trkpt>
      <trkpt lat="45.64324" lon="4.63365">
        <ele>635</ele>
        <time>2018-10-14T09:28:54Z</time>
      </trkpt>
      <trkpt lat="45.64322" lon="4.6337">
        <ele>642</ele>
        <time>2018-10-14T09:28:55Z</time>
      </trkpt>
      <trkpt lat="45.6432" lon="4.63376">
        <ele>640</ele>
        <time>2018-10-14T09:28:56Z</time>
      </trkpt>
      <trkpt lat="45.64318" lon="4.63383">
        <ele>639</ele>
        <time>2018-10-14T09:28:57Z</time>
      </trkpt>
      <trkpt lat="45.64312" lon="4.63382">
        <ele>637</ele>
        <time>2018-10-14T09:28:58Z</time>
      </trkpt>
      <trkpt lat="45.64306" lon="4.63385">
        <ele>635</ele>
        <time>2018-10-14T09:28:59Z</time>
      </trkpt>
      <trkpt lat="45.64299" lon="4.63389">
        <ele>634</ele>
        <time>2018-10-14T09:29:00Z</time>
      </trkpt>
      <trkpt lat="45.64294" lon="4.63391">
        <ele>633</ele>
        <time>2018-10-14T09:29:01Z</time>
      </trkpt>
      <trkpt lat="45.64288" lon="4.63394">
        <ele>632</ele>
        <time>2018-10-14T09:29:02Z</time>
      </trkpt>
      <trkpt lat="45.64282" lon="4.63398">
        <ele>629</ele>
        <time>2018-10-14T09:29:03Z</time>
      </trkpt>
      <trkpt lat="45.6428" lon="4.63405">
        <ele>627</ele>
        <time>2018-10-14T09:29:04Z</time>
      </trkpt>
      <trkpt lat="45.64278" lon="4.63411">
        <ele>626</ele>
        <time>2018-10-14T09:29:05Z</time>
      </trkpt>
      <trkpt lat="45.64274" lon="4.63419">
        <ele>625</ele>
        <time>2018-10-14T09:29:06Z</time>
      </trkpt>
      <trkpt lat="45.64269" lon="4.63428">
        <ele>624</ele>
        <time>2018-10-14T09:29:07Z</time>
      </trkpt>
      <trkpt lat="45.64268" lon="4.63437">
        <ele>624</ele>
        <time>2018-10-14T09:29:08Z</time>
      </trkpt>
      <trkpt lat="45.64266" lon="4.63445">
        <ele>625</ele>
        <time>2018-10-14T09:29:09Z</time>
      </trkpt>
      <trkpt lat="45.64265" lon="4.63454">
        <ele>623</ele>
        <time>2018-10-14T09:29:10Z</time>
      </trkpt>
      <trkpt lat="45.64262" lon="4.63461">
        <ele>622</ele>
        <time>2018-10-14T09:29:11Z</time>
      </trkpt>
      <trkpt lat="45.64259" lon="4.63472">
        <ele>622</ele>
        <time>2018-10-14T09:29:12Z</time>
      </trkpt>
      <trkpt lat="45.64259" lon="4.63477">
        <ele>622</ele>
        <time>2018-10-14T09:29:13Z</time>
      </trkpt>
      <trkpt lat="45.64254" lon="4.6348">
        <ele>619</ele>
        <time>2018-10-14T09:29:14Z</time>
      </trkpt>
      <trkpt lat="45.64251" lon="4.63482">
        <ele>617</ele>
        <time>2018-10-14T09:29:15Z</time>
      </trkpt>
      <trkpt lat="45.64248" lon="4.63486">
        <ele>616</ele>
        <time>2018-10-14T09:29:16Z</time>
      </trkpt>
      <trkpt lat="45.64245" lon="4.63491">
        <ele>615</ele>
        <time>2018-10-14T09:29:17Z</time>
      </trkpt>
      <trkpt lat="45.64242" lon="4.63495">
        <ele>612</ele>
        <time>2018-10-14T09:29:18Z</time>
      </trkpt>
      <trkpt lat="45.64238" lon="4.635">
        <ele>611</ele>
        <time>2018-10-14T09:29:19Z</time>
      </trkpt>
      <trkpt lat="45.64232" lon="4.63508">
        <ele>609</ele>
        <time>2018-10-14T09:29:20Z</time>
      </trkpt>
      <trkpt lat="45.64227" lon="4.63518">
        <ele>608</ele>
        <time>2018-10-14T09:29:21Z</time>
      </trkpt>
      <trkpt lat="45.64225" lon="4.63527">
        <ele>605</ele>
        <time>2018-10-14T09:29:22Z</time>
      </trkpt>
      <trkpt lat="45.64222" lon="4.63533">
        <ele>603</ele>
        <time>2018-10-14T09:29:23Z</time>
      </trkpt>
      <trkpt lat="45.64219" lon="4.63542">
        <ele>599</ele>
        <time>2018-10-14T09:29:24Z</time>
      </trkpt>
      <trkpt lat="45.64214" lon="4.63551">
        <ele>599</ele>
        <time>2018-10-14T09:29:25Z</time>
      </trkpt>
      <trkpt lat="45.64212" lon="4.63558">
        <ele>599</ele>
        <time>2018-10-14T09:29:26Z</time>
      </trkpt>
      <trkpt lat="45.64207" lon="4.63561">
        <ele>604</ele>
        <time>2018-10-14T09:29:27Z</time>
      </trkpt>
      <trkpt lat="45.64204" lon="4.63564">
        <ele>601</ele>
        <time>2018-10-14T09:29:28Z</time>
      </trkpt>
      <trkpt lat="45.642" lon="4.63566">
        <ele>600</ele>
        <time>2018-10-14T09:29:29Z</time>
      </trkpt>
      <trkpt lat="45.64197" lon="4.63573">
        <ele>599</ele>
        <time>2018-10-14T09:29:30Z</time>
      </trkpt>
      <trkpt lat="45.6419" lon="4.63577">
        <ele>596</ele>
        <time>2018-10-14T09:29:31Z</time>
      </trkpt>
      <trkpt lat="45.64187" lon="4.63583">
        <ele>596</ele>
        <time>2018-10-14T09:29:32Z</time>
      </trkpt>
      <trkpt lat="45.64184" lon="4.63589">
        <ele>595</ele>
        <time>2018-10-14T09:29:33Z</time>
      </trkpt>
      <trkpt lat="45.64182" lon="4.63592">
        <ele>593</ele>
        <time>2018-10-14T09:29:34Z</time>
      </trkpt>
      <trkpt lat="45.64177" lon="4.63597">
        <ele>591</ele>
        <time>2018-10-14T09:29:35Z</time>
      </trkpt>
      <trkpt lat="45.64176" lon="4.63604">
        <ele>589</ele>
        <time>2018-10-14T09:29:36Z</time>
      </trkpt>
      <trkpt lat="45.64172" lon="4.63612">
        <ele>597</ele>
        <time>2018-10-14T09:29:37Z</time>
      </trkpt>
      <trkpt lat="45.64169" lon="4.63618">
        <ele>592</ele>
        <time>2018-10-14T09:29:38Z</time>
      </trkpt>
      <trkpt lat="45.64167" lon="4.63628">
        <ele>588</ele>
        <time>2018-10-14T09:29:39Z</time>
      </trkpt>
      <trkpt lat="45.64167" lon="4.63634">
        <ele>587</ele>
        <time>2018-10-14T09:29:40Z</time>
      </trkpt>
      <trkpt lat="45.64165" lon="4.6364">
        <ele>586</ele>
        <time>2018-10-14T09:29:41Z</time>
      </trkpt>
      <trkpt lat="45.64162" lon="4.63644">
        <ele>582</ele>
        <time>2018-10-14T09:29:42Z</time>
      </trkpt>
      <trkpt lat="45.6416" lon="4.63649">
        <ele>582</ele>
        <time>2018-10-14T09:29:43Z</time>
      </trkpt>
      <trkpt lat="45.64157" lon="4.63653">
        <ele>583</ele>
        <time>2018-10-14T09:29:44Z</time>
      </trkpt>
      <trkpt lat="45.64154" lon="4.63656">
        <ele>582</ele>
        <time>2018-10-14T09:29:45Z</time>
      </trkpt>
      <trkpt lat="45.6415" lon="4.6366">
        <ele>580</ele>
        <time>2018-10-14T09:29:46Z</time>
      </trkpt>
      <trkpt lat="45.64145" lon="4.63663">
        <ele>588</ele>
        <time>2018-10-14T09:29:47Z</time>
      </trkpt>
      <trkpt lat="45.6414" lon="4.63667">
        <ele>586</ele>
        <time>2018-10-14T09:29:48Z</time>
      </trkpt>
      <trkpt lat="45.64136" lon="4.63667">
        <ele>584</ele>
        <time>2018-10-14T09:29:49Z</time>
      </trkpt>
      <trkpt lat="45.6413" lon="4.63669">
        <ele>582</ele>
        <time>2018-10-14T09:29:50Z</time>
      </trkpt>
      <trkpt lat="45.64126" lon="4.63665">
        <ele>581</ele>
        <time>2018-10-14T09:29:51Z</time>
      </trkpt>
      <trkpt lat="45.64121" lon="4.6366">
        <ele>579</ele>
        <time>2018-10-14T09:29:52Z</time>
      </trkpt>
      <trkpt lat="45.64119" lon="4.63655">
        <ele>578</ele>
        <time>2018-10-14T09:29:53Z</time>
      </trkpt>
      <trkpt lat="45.64116" lon="4.63651">
        <ele>577</ele>
        <time>2018-10-14T09:29:54Z</time>
      </trkpt>
      <trkpt lat="45.64116" lon="4.63648">
        <ele>575</ele>
        <time>2018-10-14T09:29:55Z</time>
      </trkpt>
      <trkpt lat="45.64115" lon="4.63646">
        <ele>574</ele>
        <time>2018-10-14T09:29:56Z</time>
      </trkpt>
      <trkpt lat="45.64114" lon="4.63643">
        <ele>573</ele>
        <time>2018-10-14T09:29:57Z</time>
      </trkpt>
      <trkpt lat="45.64113" lon="4.63641">
        <ele>573</ele>
        <time>2018-10-14T09:29:58Z</time>
      </trkpt>
      <trkpt lat="45.64112" lon="4.63641">
        <ele>573</ele>
        <time>2018-10-14T09:29:59Z</time>
      </trkpt>
      <trkpt lat="45.64111" lon="4.63641">
        <ele>573</ele>
        <time>2018-10-14T09:30:00Z</time>
      </trkpt>
      <trkpt lat="45.64109" lon="4.63641">
        <ele>579</ele>
        <time>2018-10-14T09:30:01Z</time>
      </trkpt>
      <trkpt lat="45.64108" lon="4.63642">
        <ele>576</ele>
        <time>2018-10-14T09:30:02Z</time>
      </trkpt>
      <trkpt lat="45.64108" lon="4.63644">
        <ele>574</ele>
        <time>2018-10-14T09:30:03Z</time>
      </trkpt>
      <trkpt lat="45.64107" lon="4.63647">
        <ele>573</ele>
        <time>2018-10-14T09:30:04Z</time>
      </trkpt>
      <trkpt lat="45.64107" lon="4.63651">
        <ele>571</ele>
        <time>2018-10-14T09:30:05Z</time>
      </trkpt>
      <trkpt lat="45.64107" lon="4.63655">
        <ele>571</ele>
        <time>2018-10-14T09:30:06Z</time>
      </trkpt>
      <trkpt lat="45.64107" lon="4.6366">
        <ele>570</ele>
        <time>2018-10-14T09:30:08Z</time>
      </trkpt>
      <trkpt lat="45.64108" lon="4.63666">
        <ele>570</ele>
        <time>2018-10-14T09:30:09Z</time>
      </trkpt>
      <trkpt lat="45.64109" lon="4.63673">
        <ele>568</ele>
        <time>2018-10-14T09:30:10Z</time>
      </trkpt>
      <trkpt lat="45.64114" lon="4.63686">
        <ele>562</ele>
        <time>2018-10-14T09:30:11Z</time>
      </trkpt>
      <trkpt lat="45.64116" lon="4.63692">
        <ele>560</ele>
        <time>2018-10-14T09:30:12Z</time>
      </trkpt>
      <trkpt lat="45.64122" lon="4.63696">
        <ele>561</ele>
        <time>2018-10-14T09:30:13Z</time>
      </trkpt>
      <trkpt lat="45.64127" lon="4.63699">
        <ele>561</ele>
        <time>2018-10-14T09:30:14Z</time>
      </trkpt>
      <trkpt lat="45.64132" lon="4.63701">
        <ele>560</ele>
        <time>2018-10-14T09:30:15Z</time>
      </trkpt>
      <trkpt lat="45.64137" lon="4.63703">
        <ele>558</ele>
        <time>2018-10-14T09:30:16Z</time>
      </trkpt>
      <trkpt lat="45.64142" lon="4.63705">
        <ele>558</ele>
        <time>2018-10-14T09:30:17Z</time>
      </trkpt>
      <trkpt lat="45.64148" lon="4.6371">
        <ele>558</ele>
        <time>2018-10-14T09:30:18Z</time>
      </trkpt>
      <trkpt lat="45.64151" lon="4.63717">
        <ele>556</ele>
        <time>2018-10-14T09:30:19Z</time>
      </trkpt>
      <trkpt lat="45.64154" lon="4.63726">
        <ele>556</ele>
        <time>2018-10-14T09:30:20Z</time>
      </trkpt>
      <trkpt lat="45.64156" lon="4.6373">
        <ele>556</ele>
        <time>2018-10-14T09:30:21Z</time>
      </trkpt>
      <trkpt lat="45.64141" lon="4.63728">
        <ele>556</ele>
        <time>2018-10-14T09:30:22Z</time>
      </trkpt>
      <trkpt lat="45.64136" lon="4.63732">
        <ele>556</ele>
        <time>2018-10-14T09:30:23Z</time>
      </trkpt>
      <trkpt lat="45.64133" lon="4.63737">
        <ele>557</ele>
        <time>2018-10-14T09:30:24Z</time>
      </trkpt>
      <trkpt lat="45.64129" lon="4.63739">
        <ele>557</ele>
        <time>2018-10-14T09:30:25Z</time>
      </trkpt>
      <trkpt lat="45.64129" lon="4.63745">
        <ele>556</ele>
        <time>2018-10-14T09:30:26Z</time>
      </trkpt>
      <trkpt lat="45.64127" lon="4.63749">
        <ele>555</ele>
        <time>2018-10-14T09:30:27Z</time>
      </trkpt>
      <trkpt lat="45.64125" lon="4.63754">
        <ele>555</ele>
        <time>2018-10-14T09:30:28Z</time>
      </trkpt>
      <trkpt lat="45.64124" lon="4.63758">
        <ele>556</ele>
        <time>2018-10-14T09:30:29Z</time>
      </trkpt>
      <trkpt lat="45.64122" lon="4.63762">
        <ele>556</ele>
        <time>2018-10-14T09:30:30Z</time>
      </trkpt>
      <trkpt lat="45.64122" lon="4.63765">
        <ele>556</ele>
        <time>2018-10-14T09:30:31Z</time>
      </trkpt>
      <trkpt lat="45.64121" lon="4.63768">
        <ele>556</ele>
        <time>2018-10-14T09:30:32Z</time>
      </trkpt>
      <trkpt lat="45.64121" lon="4.6377">
        <ele>557</ele>
        <time>2018-10-14T09:30:33Z</time>
      </trkpt>
      <trkpt lat="45.64121" lon="4.63773">
        <ele>557</ele>
        <time>2018-10-14T09:30:34Z</time>
      </trkpt>
      <trkpt lat="45.64122" lon="4.63775">
        <ele>557</ele>
        <time>2018-10-14T09:30:35Z</time>
      </trkpt>
      <trkpt lat="45.64122" lon="4.63778">
        <ele>557</ele>
        <time>2018-10-14T09:30:36Z</time>
      </trkpt>
      <trkpt lat="45.64122" lon="4.63782">
        <ele>557</ele>
        <time>2018-10-14T09:30:38Z</time>
      </trkpt>
      <trkpt lat="45.64121" lon="4.63786">
        <ele>557</ele>
        <time>2018-10-14T09:30:40Z</time>
      </trkpt>
      <trkpt lat="45.64121" lon="4.6379">
        <ele>558</ele>
        <time>2018-10-14T09:30:41Z</time>
      </trkpt>
      <trkpt lat="45.64121" lon="4.63792">
        <ele>559</ele>
        <time>2018-10-14T09:30:42Z</time>
      </trkpt>
      <trkpt lat="45.64121" lon="4.63794">
        <ele>561</ele>
        <time>2018-10-14T09:30:43Z</time>
      </trkpt>
      <trkpt lat="45.6412" lon="4.63798">
        <ele>561</ele>
        <time>2018-10-14T09:30:44Z</time>
      </trkpt>
      <trkpt lat="45.64119" lon="4.63801">
        <ele>561</ele>
        <time>2018-10-14T09:30:45Z</time>
      </trkpt>
      <trkpt lat="45.64119" lon="4.63804">
        <ele>562</ele>
        <time>2018-10-14T09:30:46Z</time>
      </trkpt>
      <trkpt lat="45.64118" lon="4.63807">
        <ele>562</ele>
        <time>2018-10-14T09:30:47Z</time>
      </trkpt>
      <trkpt lat="45.64118" lon="4.6381">
        <ele>563</ele>
        <time>2018-10-14T09:30:48Z</time>
      </trkpt>
      <trkpt lat="45.64117" lon="4.63813">
        <ele>563</ele>
        <time>2018-10-14T09:30:49Z</time>
      </trkpt>
      <trkpt lat="45.64117" lon="4.63816">
        <ele>563</ele>
        <time>2018-10-14T09:30:50Z</time>
      </trkpt>
      <trkpt lat="45.64117" lon="4.63819">
        <ele>563</ele>
        <time>2018-10-14T09:30:51Z</time>
      </trkpt>
      <trkpt lat="45.64116" lon="4.63822">
        <ele>563</ele>
        <time>2018-10-14T09:30:52Z</time>
      </trkpt>
      <trkpt lat="45.64116" lon="4.63824">
        <ele>563</ele>
        <time>2018-10-14T09:30:53Z</time>
      </trkpt>
      <trkpt lat="45.64116" lon="4.63827">
        <ele>563</ele>
        <time>2018-10-14T09:30:54Z</time>
      </trkpt>
      <trkpt lat="45.64116" lon="4.6383">
        <ele>563</ele>
        <time>2018-10-14T09:30:55Z</time>
      </trkpt>
      <trkpt lat="45.64116" lon="4.63832">
        <ele>563</ele>
        <time>2018-10-14T09:30:56Z</time>
      </trkpt>
      <trkpt lat="45.64116" lon="4.63834">
        <ele>563</ele>
        <time>2018-10-14T09:30:57Z</time>
      </trkpt>
      <trkpt lat="45.64116" lon="4.63837">
        <ele>563</ele>
        <time>2018-10-14T09:30:58Z</time>
      </trkpt>
      <trkpt lat="45.64116" lon="4.63841">
        <ele>562</ele>
        <time>2018-10-14T09:30:59Z</time>
      </trkpt>
      <trkpt lat="45.64116" lon="4.63844">
        <ele>563</ele>
        <time>2018-10-14T09:31:00Z</time>
      </trkpt>
      <trkpt lat="45.64117" lon="4.63847">
        <ele>564</ele>
        <time>2018-10-14T09:31:01Z</time>
      </trkpt>
      <trkpt lat="45.64117" lon="4.6385">
        <ele>564</ele>
        <time>2018-10-14T09:31:02Z</time>
      </trkpt>
      <trkpt lat="45.64118" lon="4.63852">
        <ele>564</ele>
        <time>2018-10-14T09:31:03Z</time>
      </trkpt>
      <trkpt lat="45.64119" lon="4.63854">
        <ele>565</ele>
        <time>2018-10-14T09:31:04Z</time>
      </trkpt>
      <trkpt lat="45.64119" lon="4.63857">
        <ele>565</ele>
        <time>2018-10-14T09:31:05Z</time>
      </trkpt>
      <trkpt lat="45.6412" lon="4.63859">
        <ele>565</ele>
        <time>2018-10-14T09:31:06Z</time>
      </trkpt>
      <trkpt lat="45.6412" lon="4.63862">
        <ele>565</ele>
        <time>2018-10-14T09:31:07Z</time>
      </trkpt>
      <trkpt lat="45.64121" lon="4.63864">
        <ele>565</ele>
        <time>2018-10-14T09:31:08Z</time>
      </trkpt>
      <trkpt lat="45.64121" lon="4.63867">
        <ele>566</ele>
        <time>2018-10-14T09:31:09Z</time>
      </trkpt>
      <trkpt lat="45.64121" lon="4.6387">
        <ele>566</ele>
        <time>2018-10-14T09:31:10Z</time>
      </trkpt>
      <trkpt lat="45.64122" lon="4.63873">
        <ele>566</ele>
        <time>2018-10-14T09:31:11Z</time>
      </trkpt>
      <trkpt lat="45.64123" lon="4.63875">
        <ele>566</ele>
        <time>2018-10-14T09:31:12Z</time>
      </trkpt>
      <trkpt lat="45.64124" lon="4.63878">
        <ele>567</ele>
        <time>2018-10-14T09:31:13Z</time>
      </trkpt>
      <trkpt lat="45.64125" lon="4.63883">
        <ele>567</ele>
        <time>2018-10-14T09:31:15Z</time>
      </trkpt>
      <trkpt lat="45.64125" lon="4.63886">
        <ele>567</ele>
        <time>2018-10-14T09:31:16Z</time>
      </trkpt>
      <trkpt lat="45.64126" lon="4.6389">
        <ele>567</ele>
        <time>2018-10-14T09:31:17Z</time>
      </trkpt>
      <trkpt lat="45.64127" lon="4.63893">
        <ele>568</ele>
        <time>2018-10-14T09:31:18Z</time>
      </trkpt>
      <trkpt lat="45.64128" lon="4.63896">
        <ele>568</ele>
        <time>2018-10-14T09:31:19Z</time>
      </trkpt>
      <trkpt lat="45.64128" lon="4.63899">
        <ele>568</ele>
        <time>2018-10-14T09:31:20Z</time>
      </trkpt>
      <trkpt lat="45.64128" lon="4.63902">
        <ele>568</ele>
        <time>2018-10-14T09:31:21Z</time>
      </trkpt>
      <trkpt lat="45.64128" lon="4.63904">
        <ele>569</ele>
        <time>2018-10-14T09:31:22Z</time>
      </trkpt>
      <trkpt lat="45.64129" lon="4.63907">
        <ele>569</ele>
        <time>2018-10-14T09:31:23Z</time>
      </trkpt>
      <trkpt lat="45.64129" lon="4.63909">
        <ele>569</ele>
        <time>2018-10-14T09:31:24Z</time>
      </trkpt>
      <trkpt lat="45.64129" lon="4.63912">
        <ele>569</ele>
        <time>2018-10-14T09:31:25Z</time>
      </trkpt>
      <trkpt lat="45.6413" lon="4.63914">
        <ele>569</ele>
        <time>2018-10-14T09:31:26Z</time>
      </trkpt>
      <trkpt lat="45.6413" lon="4.63916">
        <ele>569</ele>
        <time>2018-10-14T09:31:27Z</time>
      </trkpt>
      <trkpt lat="45.64131" lon="4.63918">
        <ele>570</ele>
        <time>2018-10-14T09:31:28Z</time>
      </trkpt>
      <trkpt lat="45.64131" lon="4.6392">
        <ele>571</ele>
        <time>2018-10-14T09:31:29Z</time>
      </trkpt>
      <trkpt lat="45.64131" lon="4.63922">
        <ele>572</ele>
        <time>2018-10-14T09:31:30Z</time>
      </trkpt>
      <trkpt lat="45.64131" lon="4.63924">
        <ele>572</ele>
        <time>2018-10-14T09:31:31Z</time>
      </trkpt>
      <trkpt lat="45.64132" lon="4.63925">
        <ele>573</ele>
        <time>2018-10-14T09:31:32Z</time>
      </trkpt>
      <trkpt lat="45.64132" lon="4.63925">
        <ele>573</ele>
        <time>2018-10-14T09:31:33Z</time>
      </trkpt>
      <trkpt lat="45.64133" lon="4.63925">
        <ele>573</ele>
        <time>2018-10-14T09:31:34Z</time>
      </trkpt>
      <trkpt lat="45.64134" lon="4.63925">
        <ele>572</ele>
        <time>2018-10-14T09:31:35Z</time>
      </trkpt>
      <trkpt lat="45.64135" lon="4.63924">
        <ele>573</ele>
        <time>2018-10-14T09:31:36Z</time>
      </trkpt>
      <trkpt lat="45.64135" lon="4.63923">
        <ele>574</ele>
        <time>2018-10-14T09:31:37Z</time>
      </trkpt>
      <trkpt lat="45.64136" lon="4.63921">
        <ele>575</ele>
        <time>2018-10-14T09:31:39Z</time>
      </trkpt>
      <trkpt lat="45.64136" lon="4.6392">
        <ele>574</ele>
        <time>2018-10-14T09:31:41Z</time>
      </trkpt>
      <trkpt lat="45.64137" lon="4.63919">
        <ele>574</ele>
        <time>2018-10-14T09:31:44Z</time>
      </trkpt>
      <trkpt lat="45.64137" lon="4.63916">
        <ele>575</ele>
        <time>2018-10-14T09:31:45Z</time>
      </trkpt>
      <trkpt lat="45.64138" lon="4.63914">
        <ele>575</ele>
        <time>2018-10-14T09:31:46Z</time>
      </trkpt>
      <trkpt lat="45.64138" lon="4.63911">
        <ele>575</ele>
        <time>2018-10-14T09:31:47Z</time>
      </trkpt>
      <trkpt lat="45.64138" lon="4.63909">
        <ele>575</ele>
        <time>2018-10-14T09:31:48Z</time>
      </trkpt>
      <trkpt lat="45.64139" lon="4.63906">
        <ele>576</ele>
        <time>2018-10-14T09:31:49Z</time>
      </trkpt>
      <trkpt lat="45.6414" lon="4.63904">
        <ele>576</ele>
        <time>2018-10-14T09:31:50Z</time>
      </trkpt>
      <trkpt lat="45.6414" lon="4.63902">
        <ele>576</ele>
        <time>2018-10-14T09:31:51Z</time>
      </trkpt>
      <trkpt lat="45.64141" lon="4.63899">
        <ele>575</ele>
        <time>2018-10-14T09:31:52Z</time>
      </trkpt>
      <trkpt lat="45.64142" lon="4.63897">
        <ele>575</ele>
        <time>2018-10-14T09:31:53Z</time>
      </trkpt>
      <trkpt lat="45.64142" lon="4.63895">
        <ele>574</ele>
        <time>2018-10-14T09:31:54Z</time>
      </trkpt>
      <trkpt lat="45.64143" lon="4.63893">
        <ele>573</ele>
        <time>2018-10-14T09:31:55Z</time>
      </trkpt>
      <trkpt lat="45.64143" lon="4.6389">
        <ele>574</ele>
        <time>2018-10-14T09:31:56Z</time>
      </trkpt>
      <trkpt lat="45.64145" lon="4.63888">
        <ele>574</ele>
        <time>2018-10-14T09:31:57Z</time>
      </trkpt>
      <trkpt lat="45.64145" lon="4.63886">
        <ele>574</ele>
        <time>2018-10-14T09:31:58Z</time>
      </trkpt>
      <trkpt lat="45.64146" lon="4.63884">
        <ele>575</ele>
        <time>2018-10-14T09:31:59Z</time>
      </trkpt>
      <trkpt lat="45.64147" lon="4.63881">
        <ele>576</ele>
        <time>2018-10-14T09:32:00Z</time>
      </trkpt>
      <trkpt lat="45.64148" lon="4.63879">
        <ele>575</ele>
        <time>2018-10-14T09:32:01Z</time>
      </trkpt>
      <trkpt lat="45.6415" lon="4.63877">
        <ele>575</ele>
        <time>2018-10-14T09:32:02Z</time>
      </trkpt>
      <trkpt lat="45.64151" lon="4.63874">
        <ele>575</ele>
        <time>2018-10-14T09:32:03Z</time>
      </trkpt>
      <trkpt lat="45.64152" lon="4.63873">
        <ele>574</ele>
        <time>2018-10-14T09:32:04Z</time>
      </trkpt>
      <trkpt lat="45.64154" lon="4.63871">
        <ele>576</ele>
        <time>2018-10-14T09:32:05Z</time>
      </trkpt>
      <trkpt lat="45.64155" lon="4.63868">
        <ele>576</ele>
        <time>2018-10-14T09:32:06Z</time>
      </trkpt>
      <trkpt lat="45.64156" lon="4.63866">
        <ele>577</ele>
        <time>2018-10-14T09:32:07Z</time>
      </trkpt>
      <trkpt lat="45.64157" lon="4.63863">
        <ele>577</ele>
        <time>2018-10-14T09:32:08Z</time>
      </trkpt>
      <trkpt lat="45.64158" lon="4.63861">
        <ele>578</ele>
        <time>2018-10-14T09:32:09Z</time>
      </trkpt>
      <trkpt lat="45.64159" lon="4.63859">
        <ele>579</ele>
        <time>2018-10-14T09:32:10Z</time>
      </trkpt>
      <trkpt lat="45.64161" lon="4.63858">
        <ele>580</ele>
        <time>2018-10-14T09:32:11Z</time>
      </trkpt>
      <trkpt lat="45.64162" lon="4.63856">
        <ele>580</ele>
        <time>2018-10-14T09:32:12Z</time>
      </trkpt>
      <trkpt lat="45.64163" lon="4.63855">
        <ele>580</ele>
        <time>2018-10-14T09:32:13Z</time>
      </trkpt>
      <trkpt lat="45.64164" lon="4.63852">
        <ele>577</ele>
        <time>2018-10-14T09:32:14Z</time>
      </trkpt>
      <trkpt lat="45.64166" lon="4.6385">
        <ele>579</ele>
        <time>2018-10-14T09:32:15Z</time>
      </trkpt>
      <trkpt lat="45.64167" lon="4.63848">
        <ele>579</ele>
        <time>2018-10-14T09:32:16Z</time>
      </trkpt>
      <trkpt lat="45.64169" lon="4.63847">
        <ele>580</ele>
        <time>2018-10-14T09:32:17Z</time>
      </trkpt>
      <trkpt lat="45.6417" lon="4.63846">
        <ele>581</ele>
        <time>2018-10-14T09:32:18Z</time>
      </trkpt>
      <trkpt lat="45.64171" lon="4.63845">
        <ele>581</ele>
        <time>2018-10-14T09:32:19Z</time>
      </trkpt>
      <trkpt lat="45.64172" lon="4.63843">
        <ele>580</ele>
        <time>2018-10-14T09:32:20Z</time>
      </trkpt>
      <trkpt lat="45.64173" lon="4.63841">
        <ele>581</ele>
        <time>2018-10-14T09:32:21Z</time>
      </trkpt>
      <trkpt lat="45.64174" lon="4.63839">
        <ele>581</ele>
        <time>2018-10-14T09:32:22Z</time>
      </trkpt>
      <trkpt lat="45.64175" lon="4.63837">
        <ele>581</ele>
        <time>2018-10-14T09:32:23Z</time>
      </trkpt>
      <trkpt lat="45.64176" lon="4.63836">
        <ele>582</ele>
        <time>2018-10-14T09:32:24Z</time>
      </trkpt>
      <trkpt lat="45.64177" lon="4.63834">
        <ele>582</ele>
        <time>2018-10-14T09:32:25Z</time>
      </trkpt>
      <trkpt lat="45.64177" lon="4.63832">
        <ele>582</ele>
        <time>2018-10-14T09:32:26Z</time>
      </trkpt>
      <trkpt lat="45.64178" lon="4.63831">
        <ele>582</ele>
        <time>2018-10-14T09:32:27Z</time>
      </trkpt>
      <trkpt lat="45.6418" lon="4.63831">
        <ele>583</ele>
        <time>2018-10-14T09:32:28Z</time>
      </trkpt>
      <trkpt lat="45.64181" lon="4.63832">
        <ele>583</ele>
        <time>2018-10-14T09:32:29Z</time>
      </trkpt>
      <trkpt lat="45.64182" lon="4.63833">
        <ele>583</ele>
        <time>2018-10-14T09:32:30Z</time>
      </trkpt>
      <trkpt lat="45.64182" lon="4.63835">
        <ele>583</ele>
        <time>2018-10-14T09:32:31Z</time>
      </trkpt>
      <trkpt lat="45.64183" lon="4.63838">
        <ele>583</ele>
        <time>2018-10-14T09:32:32Z</time>
      </trkpt>
      <trkpt lat="45.64183" lon="4.6384">
        <ele>583</ele>
        <time>2018-10-14T09:32:33Z</time>
      </trkpt>
      <trkpt lat="45.64182" lon="4.63843">
        <ele>583</ele>
        <time>2018-10-14T09:32:34Z</time>
      </trkpt>
      <trkpt lat="45.64182" lon="4.63845">
        <ele>583</ele>
        <time>2018-10-14T09:32:35Z</time>
      </trkpt>
      <trkpt lat="45.64182" lon="4.63848">
        <ele>583</ele>
        <time>2018-10-14T09:32:36Z</time>
      </trkpt>
      <trkpt lat="45.64182" lon="4.6385">
        <ele>583</ele>
        <time>2018-10-14T09:32:37Z</time>
      </trkpt>
      <trkpt lat="45.64181" lon="4.63852">
        <ele>584</ele>
        <time>2018-10-14T09:32:38Z</time>
      </trkpt>
      <trkpt lat="45.64181" lon="4.63855">
        <ele>584</ele>
        <time>2018-10-14T09:32:39Z</time>
      </trkpt>
      <trkpt lat="45.64181" lon="4.63856">
        <ele>584</ele>
        <time>2018-10-14T09:32:40Z</time>
      </trkpt>
      <trkpt lat="45.64181" lon="4.63857">
        <ele>584</ele>
        <time>2018-10-14T09:32:41Z</time>
      </trkpt>
      <trkpt lat="45.64181" lon="4.63859">
        <ele>584</ele>
        <time>2018-10-14T09:32:42Z</time>
      </trkpt>
      <trkpt lat="45.64181" lon="4.63861">
        <ele>584</ele>
        <time>2018-10-14T09:32:43Z</time>
      </trkpt>
      <trkpt lat="45.64181" lon="4.63863">
        <ele>583</ele>
        <time>2018-10-14T09:32:44Z</time>
      </trkpt>
      <trkpt lat="45.64181" lon="4.63866">
        <ele>583</ele>
        <time>2018-10-14T09:32:45Z</time>
      </trkpt>
      <trkpt lat="45.64181" lon="4.63868">
        <ele>584</ele>
        <time>2018-10-14T09:32:46Z</time>
      </trkpt>
      <trkpt lat="45.64181" lon="4.6387">
        <ele>584</ele>
        <time>2018-10-14T09:32:47Z</time>
      </trkpt>
      <trkpt lat="45.6418" lon="4.63873">
        <ele>584</ele>
        <time>2018-10-14T09:32:48Z</time>
      </trkpt>
      <trkpt lat="45.6418" lon="4.63875">
        <ele>584</ele>
        <time>2018-10-14T09:32:49Z</time>
      </trkpt>
      <trkpt lat="45.6418" lon="4.63877">
        <ele>584</ele>
        <time>2018-10-14T09:32:50Z</time>
      </trkpt>
      <trkpt lat="45.6418" lon="4.6388">
        <ele>583</ele>
        <time>2018-10-14T09:32:51Z</time>
      </trkpt>
      <trkpt lat="45.6418" lon="4.63882">
        <ele>583</ele>
        <time>2018-10-14T09:32:52Z</time>
      </trkpt>
      <trkpt lat="45.6418" lon="4.63884">
        <ele>583</ele>
        <time>2018-10-14T09:32:53Z</time>
      </trkpt>
      <trkpt lat="45.64181" lon="4.63887">
        <ele>584</ele>
        <time>2018-10-14T09:32:54Z</time>
      </trkpt>
      <trkpt lat="45.64182" lon="4.63889">
        <ele>584</ele>
        <time>2018-10-14T09:32:55Z</time>
      </trkpt>
      <trkpt lat="45.64182" lon="4.63892">
        <ele>584</ele>
        <time>2018-10-14T09:32:56Z</time>
      </trkpt>
      <trkpt lat="45.64182" lon="4.63894">
        <ele>584</ele>
        <time>2018-10-14T09:32:57Z</time>
      </trkpt>
      <trkpt lat="45.64182" lon="4.63897">
        <ele>584</ele>
        <time>2018-10-14T09:32:58Z</time>
      </trkpt>
      <trkpt lat="45.64183" lon="4.639">
        <ele>584</ele>
        <time>2018-10-14T09:32:59Z</time>
      </trkpt>
      <trkpt lat="45.64183" lon="4.63903">
        <ele>584</ele>
        <time>2018-10-14T09:33:00Z</time>
      </trkpt>
      <trkpt lat="45.64183" lon="4.63904">
        <ele>585</ele>
        <time>2018-10-14T09:33:01Z</time>
      </trkpt>
      <trkpt lat="45.64183" lon="4.63905">
        <ele>585</ele>
        <time>2018-10-14T09:33:02Z</time>
      </trkpt>
      <trkpt lat="45.64183" lon="4.63907">
        <ele>583</ele>
        <time>2018-10-14T09:33:03Z</time>
      </trkpt>
      <trkpt lat="45.64184" lon="4.6391">
        <ele>584</ele>
        <time>2018-10-14T09:33:05Z</time>
      </trkpt>
      <trkpt lat="45.64185" lon="4.63913">
        <ele>585</ele>
        <time>2018-10-14T09:33:06Z</time>
      </trkpt>
      <trkpt lat="45.64186" lon="4.63916">
        <ele>586</ele>
        <time>2018-10-14T09:33:07Z</time>
      </trkpt>
      <trkpt lat="45.64187" lon="4.6392">
        <ele>585</ele>
        <time>2018-10-14T09:33:09Z</time>
      </trkpt>
      <trkpt lat="45.64188" lon="4.63923">
        <ele>586</ele>
        <time>2018-10-14T09:33:10Z</time>
      </trkpt>
      <trkpt lat="45.64188" lon="4.63925">
        <ele>586</ele>
        <time>2018-10-14T09:33:11Z</time>
      </trkpt>
      <trkpt lat="45.64189" lon="4.63928">
        <ele>587</ele>
        <time>2018-10-14T09:33:12Z</time>
      </trkpt>
      <trkpt lat="45.6419" lon="4.6393">
        <ele>587</ele>
        <time>2018-10-14T09:33:13Z</time>
      </trkpt>
      <trkpt lat="45.64191" lon="4.63932">
        <ele>588</ele>
        <time>2018-10-14T09:33:14Z</time>
      </trkpt>
      <trkpt lat="45.64193" lon="4.63934">
        <ele>588</ele>
        <time>2018-10-14T09:33:15Z</time>
      </trkpt>
      <trkpt lat="45.64194" lon="4.63936">
        <ele>589</ele>
        <time>2018-10-14T09:33:16Z</time>
      </trkpt>
      <trkpt lat="45.64196" lon="4.63937">
        <ele>589</ele>
        <time>2018-10-14T09:33:17Z</time>
      </trkpt>
      <trkpt lat="45.64198" lon="4.63939">
        <ele>589</ele>
        <time>2018-10-14T09:33:18Z</time>
      </trkpt>
      <trkpt lat="45.642" lon="4.6394">
        <ele>589</ele>
        <time>2018-10-14T09:33:19Z</time>
      </trkpt>
      <trkpt lat="45.64202" lon="4.63941">
        <ele>589</ele>
        <time>2018-10-14T09:33:20Z</time>
      </trkpt>
      <trkpt lat="45.64203" lon="4.63942">
        <ele>588</ele>
        <time>2018-10-14T09:33:21Z</time>
      </trkpt>
      <trkpt lat="45.64205" lon="4.63944">
        <ele>588</ele>
        <time>2018-10-14T09:33:22Z</time>
      </trkpt>
      <trkpt lat="45.64206" lon="4.63945">
        <ele>588</ele>
        <time>2018-10-14T09:33:23Z</time>
      </trkpt>
      <trkpt lat="45.64208" lon="4.63946">
        <ele>588</ele>
        <time>2018-10-14T09:33:24Z</time>
      </trkpt>
      <trkpt lat="45.64209" lon="4.63947">
        <ele>589</ele>
        <time>2018-10-14T09:33:25Z</time>
      </trkpt>
      <trkpt lat="45.6421" lon="4.63948">
        <ele>588</ele>
        <time>2018-10-14T09:33:26Z</time>
      </trkpt>
      <trkpt lat="45.64212" lon="4.6395">
        <ele>589</ele>
        <time>2018-10-14T09:33:27Z</time>
      </trkpt>
      <trkpt lat="45.64214" lon="4.63951">
        <ele>589</ele>
        <time>2018-10-14T09:33:28Z</time>
      </trkpt>
      <trkpt lat="45.64215" lon="4.63952">
        <ele>589</ele>
        <time>2018-10-14T09:33:29Z</time>
      </trkpt>
      <trkpt lat="45.64216" lon="4.63954">
        <ele>589</ele>
        <time>2018-10-14T09:33:30Z</time>
      </trkpt>
      <trkpt lat="45.64217" lon="4.63955">
        <ele>589</ele>
        <time>2018-10-14T09:33:31Z</time>
      </trkpt>
      <trkpt lat="45.64219" lon="4.63956">
        <ele>589</ele>
        <time>2018-10-14T09:33:32Z</time>
      </trkpt>
      <trkpt lat="45.64221" lon="4.63958">
        <ele>590</ele>
        <time>2018-10-14T09:33:33Z</time>
      </trkpt>
      <trkpt lat="45.64223" lon="4.63959">
        <ele>591</ele>
        <time>2018-10-14T09:33:34Z</time>
      </trkpt>
      <trkpt lat="45.64225" lon="4.63961">
        <ele>590</ele>
        <time>2018-10-14T09:33:35Z</time>
      </trkpt>
      <trkpt lat="45.64226" lon="4.63963">
        <ele>590</ele>
        <time>2018-10-14T09:33:36Z</time>
      </trkpt>
      <trkpt lat="45.64228" lon="4.63964">
        <ele>590</ele>
        <time>2018-10-14T09:33:37Z</time>
      </trkpt>
      <trkpt lat="45.6423" lon="4.63965">
        <ele>591</ele>
        <time>2018-10-14T09:33:38Z</time>
      </trkpt>
      <trkpt lat="45.64233" lon="4.63965">
        <ele>591</ele>
        <time>2018-10-14T09:33:39Z</time>
      </trkpt>
      <trkpt lat="45.64235" lon="4.63966">
        <ele>592</ele>
        <time>2018-10-14T09:33:40Z</time>
      </trkpt>
      <trkpt lat="45.64238" lon="4.63966">
        <ele>592</ele>
        <time>2018-10-14T09:33:41Z</time>
      </trkpt>
      <trkpt lat="45.6424" lon="4.63967">
        <ele>592</ele>
        <time>2018-10-14T09:33:42Z</time>
      </trkpt>
      <trkpt lat="45.64241" lon="4.63968">
        <ele>591</ele>
        <time>2018-10-14T09:33:43Z</time>
      </trkpt>
      <trkpt lat="45.64243" lon="4.63968">
        <ele>591</ele>
        <time>2018-10-14T09:33:44Z</time>
      </trkpt>
      <trkpt lat="45.64245" lon="4.63969">
        <ele>592</ele>
        <time>2018-10-14T09:33:45Z</time>
      </trkpt>
      <trkpt lat="45.64246" lon="4.63969">
        <ele>592</ele>
        <time>2018-10-14T09:33:46Z</time>
      </trkpt>
      <trkpt lat="45.64248" lon="4.6397">
        <ele>593</ele>
        <time>2018-10-14T09:33:47Z</time>
      </trkpt>
      <trkpt lat="45.64249" lon="4.63971">
        <ele>594</ele>
        <time>2018-10-14T09:33:48Z</time>
      </trkpt>
      <trkpt lat="45.64251" lon="4.63971">
        <ele>595</ele>
        <time>2018-10-14T09:33:49Z</time>
      </trkpt>
      <trkpt lat="45.64253" lon="4.63972">
        <ele>596</ele>
        <time>2018-10-14T09:33:50Z</time>
      </trkpt>
      <trkpt lat="45.64257" lon="4.63973">
        <ele>596</ele>
        <time>2018-10-14T09:33:52Z</time>
      </trkpt>
      <trkpt lat="45.6426" lon="4.63974">
        <ele>596</ele>
        <time>2018-10-14T09:33:53Z</time>
      </trkpt>
      <trkpt lat="45.64262" lon="4.63975">
        <ele>597</ele>
        <time>2018-10-14T09:33:54Z</time>
      </trkpt>
      <trkpt lat="45.64265" lon="4.63976">
        <ele>597</ele>
        <time>2018-10-14T09:33:55Z</time>
      </trkpt>
      <trkpt lat="45.64267" lon="4.63977">
        <ele>598</ele>
        <time>2018-10-14T09:33:56Z</time>
      </trkpt>
      <trkpt lat="45.6427" lon="4.63978">
        <ele>598</ele>
        <time>2018-10-14T09:33:57Z</time>
      </trkpt>
      <trkpt lat="45.64273" lon="4.63979">
        <ele>598</ele>
        <time>2018-10-14T09:33:58Z</time>
      </trkpt>
      <trkpt lat="45.64282" lon="4.63981">
        <ele>599</ele>
        <time>2018-10-14T09:33:59Z</time>
      </trkpt>
      <trkpt lat="45.64285" lon="4.63982">
        <ele>599</ele>
        <time>2018-10-14T09:34:00Z</time>
      </trkpt>
      <trkpt lat="45.64288" lon="4.63983">
        <ele>600</ele>
        <time>2018-10-14T09:34:01Z</time>
      </trkpt>
      <trkpt lat="45.64292" lon="4.63984">
        <ele>599</ele>
        <time>2018-10-14T09:34:02Z</time>
      </trkpt>
      <trkpt lat="45.64296" lon="4.63985">
        <ele>599</ele>
        <time>2018-10-14T09:34:03Z</time>
      </trkpt>
      <trkpt lat="45.643" lon="4.63985">
        <ele>599</ele>
        <time>2018-10-14T09:34:04Z</time>
      </trkpt>
      <trkpt lat="45.64304" lon="4.63986">
        <ele>599</ele>
        <time>2018-10-14T09:34:05Z</time>
      </trkpt>
      <trkpt lat="45.64306" lon="4.63986">
        <ele>599</ele>
        <time>2018-10-14T09:34:06Z</time>
      </trkpt>
      <trkpt lat="45.64308" lon="4.63987">
        <ele>600</ele>
        <time>2018-10-14T09:34:07Z</time>
      </trkpt>
      <trkpt lat="45.64311" lon="4.63987">
        <ele>600</ele>
        <time>2018-10-14T09:34:08Z</time>
      </trkpt>
      <trkpt lat="45.64313" lon="4.63987">
        <ele>600</ele>
        <time>2018-10-14T09:34:09Z</time>
      </trkpt>
      <trkpt lat="45.64315" lon="4.63987">
        <ele>600</ele>
        <time>2018-10-14T09:34:10Z</time>
      </trkpt>
      <trkpt lat="45.64321" lon="4.63988">
        <ele>601</ele>
        <time>2018-10-14T09:34:12Z</time>
      </trkpt>
      <trkpt lat="45.64332" lon="4.6399">
        <ele>601</ele>
        <time>2018-10-14T09:34:13Z</time>
      </trkpt>
      <trkpt lat="45.64341" lon="4.6399">
        <ele>601</ele>
        <time>2018-10-14T09:34:14Z</time>
      </trkpt>
      <trkpt lat="45.64346" lon="4.63991">
        <ele>601</ele>
        <time>2018-10-14T09:34:15Z</time>
      </trkpt>
      <trkpt lat="45.64351" lon="4.63991">
        <ele>601</ele>
        <time>2018-10-14T09:34:16Z</time>
      </trkpt>
      <trkpt lat="45.64356" lon="4.63991">
        <ele>601</ele>
        <time>2018-10-14T09:34:17Z</time>
      </trkpt>
      <trkpt lat="45.64361" lon="4.63992">
        <ele>601</ele>
        <time>2018-10-14T09:34:18Z</time>
      </trkpt>
      <trkpt lat="45.64366" lon="4.63992">
        <ele>600</ele>
        <time>2018-10-14T09:34:19Z</time>
      </trkpt>
      <trkpt lat="45.64372" lon="4.63993">
        <ele>600</ele>
        <time>2018-10-14T09:34:20Z</time>
      </trkpt>
      <trkpt lat="45.64378" lon="4.63994">
        <ele>600</ele>
        <time>2018-10-14T09:34:21Z</time>
      </trkpt>
      <trkpt lat="45.64384" lon="4.63993">
        <ele>600</ele>
        <time>2018-10-14T09:34:22Z</time>
      </trkpt>
      <trkpt lat="45.64391" lon="4.63993">
        <ele>599</ele>
        <time>2018-10-14T09:34:23Z</time>
      </trkpt>
      <trkpt lat="45.64397" lon="4.63993">
        <ele>599</ele>
        <time>2018-10-14T09:34:24Z</time>
      </trkpt>
      <trkpt lat="45.64405" lon="4.63994">
        <ele>599</ele>
        <time>2018-10-14T09:34:25Z</time>
      </trkpt>
      <trkpt lat="45.64412" lon="4.63994">
        <ele>599</ele>
        <time>2018-10-14T09:34:26Z</time>
      </trkpt>
      <trkpt lat="45.64418" lon="4.63995">
        <ele>599</ele>
        <time>2018-10-14T09:34:27Z</time>
      </trkpt>
      <trkpt lat="45.64426" lon="4.63996">
        <ele>599</ele>
        <time>2018-10-14T09:34:28Z</time>
      </trkpt>
      <trkpt lat="45.64433" lon="4.63998">
        <ele>598</ele>
        <time>2018-10-14T09:34:29Z</time>
      </trkpt>
      <trkpt lat="45.64439" lon="4.63999">
        <ele>598</ele>
        <time>2018-10-14T09:34:30Z</time>
      </trkpt>
      <trkpt lat="45.64447" lon="4.64002">
        <ele>598</ele>
        <time>2018-10-14T09:34:31Z</time>
      </trkpt>
      <trkpt lat="45.64453" lon="4.64005">
        <ele>597</ele>
        <time>2018-10-14T09:34:32Z</time>
      </trkpt>
      <trkpt lat="45.6446" lon="4.64007">
        <ele>597</ele>
        <time>2018-10-14T09:34:33Z</time>
      </trkpt>
      <trkpt lat="45.64466" lon="4.64009">
        <ele>597</ele>
        <time>2018-10-14T09:34:34Z</time>
      </trkpt>
      <trkpt lat="45.64473" lon="4.64013">
        <ele>596</ele>
        <time>2018-10-14T09:34:35Z</time>
      </trkpt>
      <trkpt lat="45.64478" lon="4.64017">
        <ele>597</ele>
        <time>2018-10-14T09:34:36Z</time>
      </trkpt>
      <trkpt lat="45.64483" lon="4.64022">
        <ele>595</ele>
        <time>2018-10-14T09:34:37Z</time>
      </trkpt>
      <trkpt lat="45.64488" lon="4.64029">
        <ele>594</ele>
        <time>2018-10-14T09:34:38Z</time>
      </trkpt>
      <trkpt lat="45.64492" lon="4.64037">
        <ele>594</ele>
        <time>2018-10-14T09:34:39Z</time>
      </trkpt>
      <trkpt lat="45.64494" lon="4.64046">
        <ele>592</ele>
        <time>2018-10-14T09:34:40Z</time>
      </trkpt>
      <trkpt lat="45.64496" lon="4.64057">
        <ele>593</ele>
        <time>2018-10-14T09:34:41Z</time>
      </trkpt>
      <trkpt lat="45.64497" lon="4.64068">
        <ele>592</ele>
        <time>2018-10-14T09:34:42Z</time>
      </trkpt>
      <trkpt lat="45.64497" lon="4.6408">
        <ele>591</ele>
        <time>2018-10-14T09:34:43Z</time>
      </trkpt>
      <trkpt lat="45.64498" lon="4.64091">
        <ele>591</ele>
        <time>2018-10-14T09:34:44Z</time>
      </trkpt>
      <trkpt lat="45.64498" lon="4.64102">
        <ele>592</ele>
        <time>2018-10-14T09:34:45Z</time>
      </trkpt>
      <trkpt lat="45.64498" lon="4.64113">
        <ele>593</ele>
        <time>2018-10-14T09:34:46Z</time>
      </trkpt>
      <trkpt lat="45.64497" lon="4.64124">
        <ele>593</ele>
        <time>2018-10-14T09:34:47Z</time>
      </trkpt>
      <trkpt lat="45.64497" lon="4.64135">
        <ele>592</ele>
        <time>2018-10-14T09:34:48Z</time>
      </trkpt>
      <trkpt lat="45.64496" lon="4.64146">
        <ele>593</ele>
        <time>2018-10-14T09:34:49Z</time>
      </trkpt>
      <trkpt lat="45.64494" lon="4.64156">
        <ele>592</ele>
        <time>2018-10-14T09:34:50Z</time>
      </trkpt>
      <trkpt lat="45.64493" lon="4.64165">
        <ele>591</ele>
        <time>2018-10-14T09:34:51Z</time>
      </trkpt>
      <trkpt lat="45.64493" lon="4.64176">
        <ele>591</ele>
        <time>2018-10-14T09:34:52Z</time>
      </trkpt>
      <trkpt lat="45.64492" lon="4.64185">
        <ele>591</ele>
        <time>2018-10-14T09:34:53Z</time>
      </trkpt>
      <trkpt lat="45.64492" lon="4.64195">
        <ele>591</ele>
        <time>2018-10-14T09:34:54Z</time>
      </trkpt>
      <trkpt lat="45.64491" lon="4.64204">
        <ele>591</ele>
        <time>2018-10-14T09:34:55Z</time>
      </trkpt>
      <trkpt lat="45.6449" lon="4.64214">
        <ele>590</ele>
        <time>2018-10-14T09:34:56Z</time>
      </trkpt>
      <trkpt lat="45.64489" lon="4.64223">
        <ele>591</ele>
        <time>2018-10-14T09:34:57Z</time>
      </trkpt>
      <trkpt lat="45.64489" lon="4.64232">
        <ele>591</ele>
        <time>2018-10-14T09:34:58Z</time>
      </trkpt>
      <trkpt lat="45.64488" lon="4.6424">
        <ele>592</ele>
        <time>2018-10-14T09:34:59Z</time>
      </trkpt>
      <trkpt lat="45.64489" lon="4.64245">
        <ele>591</ele>
        <time>2018-10-14T09:35:00Z</time>
      </trkpt>
      <trkpt lat="45.64492" lon="4.6425">
        <ele>592</ele>
        <time>2018-10-14T09:35:01Z</time>
      </trkpt>
      <trkpt lat="45.64496" lon="4.64252">
        <ele>591</ele>
        <time>2018-10-14T09:35:02Z</time>
      </trkpt>
      <trkpt lat="45.645" lon="4.64251">
        <ele>592</ele>
        <time>2018-10-14T09:35:03Z</time>
      </trkpt>
      <trkpt lat="45.64505" lon="4.6425">
        <ele>592</ele>
        <time>2018-10-14T09:35:04Z</time>
      </trkpt>
      <trkpt lat="45.64509" lon="4.64249">
        <ele>592</ele>
        <time>2018-10-14T09:35:05Z</time>
      </trkpt>
      <trkpt lat="45.64513" lon="4.64249">
        <ele>592</ele>
        <time>2018-10-14T09:35:06Z</time>
      </trkpt>
      <trkpt lat="45.64518" lon="4.64248">
        <ele>591</ele>
        <time>2018-10-14T09:35:07Z</time>
      </trkpt>
      <trkpt lat="45.64523" lon="4.64246">
        <ele>591</ele>
        <time>2018-10-14T09:35:08Z</time>
      </trkpt>
      <trkpt lat="45.64528" lon="4.64245">
        <ele>591</ele>
        <time>2018-10-14T09:35:09Z</time>
      </trkpt>
      <trkpt lat="45.64532" lon="4.64244">
        <ele>591</ele>
        <time>2018-10-14T09:35:10Z</time>
      </trkpt>
      <trkpt lat="45.64536" lon="4.64243">
        <ele>592</ele>
        <time>2018-10-14T09:35:11Z</time>
      </trkpt>
      <trkpt lat="45.6454" lon="4.64242">
        <ele>591</ele>
        <time>2018-10-14T09:35:12Z</time>
      </trkpt>
      <trkpt lat="45.64544" lon="4.6424">
        <ele>590</ele>
        <time>2018-10-14T09:35:13Z</time>
      </trkpt>
      <trkpt lat="45.64549" lon="4.64237">
        <ele>590</ele>
        <time>2018-10-14T09:35:14Z</time>
      </trkpt>
      <trkpt lat="45.64553" lon="4.64235">
        <ele>590</ele>
        <time>2018-10-14T09:35:15Z</time>
      </trkpt>
      <trkpt lat="45.64558" lon="4.64231">
        <ele>590</ele>
        <time>2018-10-14T09:35:16Z</time>
      </trkpt>
      <trkpt lat="45.64564" lon="4.64227">
        <ele>589</ele>
        <time>2018-10-14T09:35:17Z</time>
      </trkpt>
      <trkpt lat="45.64569" lon="4.6422">
        <ele>590</ele>
        <time>2018-10-14T09:35:18Z</time>
      </trkpt>
      <trkpt lat="45.64574" lon="4.64213">
        <ele>588</ele>
        <time>2018-10-14T09:35:19Z</time>
      </trkpt>
      <trkpt lat="45.6458" lon="4.64207">
        <ele>586</ele>
        <time>2018-10-14T09:35:20Z</time>
      </trkpt>
      <trkpt lat="45.64584" lon="4.64198">
        <ele>585</ele>
        <time>2018-10-14T09:35:21Z</time>
      </trkpt>
      <trkpt lat="45.64589" lon="4.64188">
        <ele>584</ele>
        <time>2018-10-14T09:35:22Z</time>
      </trkpt>
      <trkpt lat="45.64594" lon="4.64176">
        <ele>583</ele>
        <time>2018-10-14T09:35:23Z</time>
      </trkpt>
      <trkpt lat="45.64599" lon="4.64165">
        <ele>583</ele>
        <time>2018-10-14T09:35:24Z</time>
      </trkpt>
      <trkpt lat="45.64603" lon="4.64154">
        <ele>582</ele>
        <time>2018-10-14T09:35:25Z</time>
      </trkpt>
      <trkpt lat="45.64607" lon="4.64144">
        <ele>581</ele>
        <time>2018-10-14T09:35:26Z</time>
      </trkpt>
      <trkpt lat="45.64611" lon="4.64135">
        <ele>580</ele>
        <time>2018-10-14T09:35:27Z</time>
      </trkpt>
      <trkpt lat="45.64615" lon="4.64128">
        <ele>580</ele>
        <time>2018-10-14T09:35:28Z</time>
      </trkpt>
      <trkpt lat="45.6462" lon="4.64123">
        <ele>581</ele>
        <time>2018-10-14T09:35:29Z</time>
      </trkpt>
      <trkpt lat="45.64626" lon="4.64121">
        <ele>581</ele>
        <time>2018-10-14T09:35:30Z</time>
      </trkpt>
      <trkpt lat="45.64631" lon="4.64125">
        <ele>581</ele>
        <time>2018-10-14T09:35:31Z</time>
      </trkpt>
      <trkpt lat="45.64636" lon="4.64128">
        <ele>581</ele>
        <time>2018-10-14T09:35:32Z</time>
      </trkpt>
      <trkpt lat="45.6464" lon="4.64131">
        <ele>579</ele>
        <time>2018-10-14T09:35:33Z</time>
      </trkpt>
      <trkpt lat="45.64645" lon="4.64137">
        <ele>580</ele>
        <time>2018-10-14T09:35:34Z</time>
      </trkpt>
      <trkpt lat="45.64648" lon="4.64141">
        <ele>579</ele>
        <time>2018-10-14T09:35:35Z</time>
      </trkpt>
      <trkpt lat="45.64653" lon="4.64144">
        <ele>579</ele>
        <time>2018-10-14T09:35:36Z</time>
      </trkpt>
      <trkpt lat="45.64658" lon="4.64148">
        <ele>580</ele>
        <time>2018-10-14T09:35:37Z</time>
      </trkpt>
      <trkpt lat="45.64663" lon="4.6415">
        <ele>580</ele>
        <time>2018-10-14T09:35:38Z</time>
      </trkpt>
      <trkpt lat="45.64667" lon="4.64152">
        <ele>580</ele>
        <time>2018-10-14T09:35:39Z</time>
      </trkpt>
      <trkpt lat="45.6467" lon="4.64154">
        <ele>581</ele>
        <time>2018-10-14T09:35:40Z</time>
      </trkpt>
      <trkpt lat="45.64675" lon="4.64154">
        <ele>582</ele>
        <time>2018-10-14T09:35:41Z</time>
      </trkpt>
      <trkpt lat="45.64679" lon="4.64153">
        <ele>583</ele>
        <time>2018-10-14T09:35:42Z</time>
      </trkpt>
      <trkpt lat="45.64683" lon="4.64153">
        <ele>583</ele>
        <time>2018-10-14T09:35:43Z</time>
      </trkpt>
      <trkpt lat="45.64687" lon="4.64153">
        <ele>583</ele>
        <time>2018-10-14T09:35:44Z</time>
      </trkpt>
      <trkpt lat="45.64691" lon="4.64153">
        <ele>583</ele>
        <time>2018-10-14T09:35:45Z</time>
      </trkpt>
      <trkpt lat="45.64695" lon="4.64152">
        <ele>583</ele>
        <time>2018-10-14T09:35:46Z</time>
      </trkpt>
      <trkpt lat="45.64698" lon="4.64151">
        <ele>584</ele>
        <time>2018-10-14T09:35:47Z</time>
      </trkpt>
      <trkpt lat="45.64702" lon="4.6415">
        <ele>584</ele>
        <time>2018-10-14T09:35:48Z</time>
      </trkpt>
      <trkpt lat="45.64705" lon="4.64148">
        <ele>584</ele>
        <time>2018-10-14T09:35:49Z</time>
      </trkpt>
      <trkpt lat="45.64709" lon="4.64147">
        <ele>584</ele>
        <time>2018-10-14T09:35:50Z</time>
      </trkpt>
      <trkpt lat="45.64713" lon="4.64144">
        <ele>584</ele>
        <time>2018-10-14T09:35:51Z</time>
      </trkpt>
      <trkpt lat="45.64717" lon="4.64143">
        <ele>585</ele>
        <time>2018-10-14T09:35:52Z</time>
      </trkpt>
      <trkpt lat="45.64721" lon="4.6414">
        <ele>585</ele>
        <time>2018-10-14T09:35:53Z</time>
      </trkpt>
      <trkpt lat="45.64724" lon="4.64138">
        <ele>585</ele>
        <time>2018-10-14T09:35:54Z</time>
      </trkpt>
      <trkpt lat="45.64726" lon="4.64136">
        <ele>584</ele>
        <time>2018-10-14T09:35:55Z</time>
      </trkpt>
      <trkpt lat="45.6473" lon="4.64135">
        <ele>587</ele>
        <time>2018-10-14T09:35:56Z</time>
      </trkpt>
      <trkpt lat="45.64734" lon="4.64133">
        <ele>587</ele>
        <time>2018-10-14T09:35:57Z</time>
      </trkpt>
      <trkpt lat="45.64737" lon="4.64131">
        <ele>587</ele>
        <time>2018-10-14T09:35:58Z</time>
      </trkpt>
      <trkpt lat="45.64741" lon="4.64129">
        <ele>587</ele>
        <time>2018-10-14T09:35:59Z</time>
      </trkpt>
      <trkpt lat="45.64746" lon="4.64127">
        <ele>586</ele>
        <time>2018-10-14T09:36:00Z</time>
      </trkpt>
      <trkpt lat="45.64749" lon="4.64126">
        <ele>586</ele>
        <time>2018-10-14T09:36:01Z</time>
      </trkpt>
      <trkpt lat="45.64753" lon="4.64125">
        <ele>586</ele>
        <time>2018-10-14T09:36:02Z</time>
      </trkpt>
      <trkpt lat="45.64757" lon="4.64123">
        <ele>585</ele>
        <time>2018-10-14T09:36:03Z</time>
      </trkpt>
      <trkpt lat="45.6476" lon="4.64122">
        <ele>585</ele>
        <time>2018-10-14T09:36:04Z</time>
      </trkpt>
      <trkpt lat="45.64764" lon="4.6412">
        <ele>585</ele>
        <time>2018-10-14T09:36:05Z</time>
      </trkpt>
      <trkpt lat="45.64768" lon="4.64119">
        <ele>584</ele>
        <time>2018-10-14T09:36:06Z</time>
      </trkpt>
      <trkpt lat="45.64771" lon="4.64118">
        <ele>584</ele>
        <time>2018-10-14T09:36:07Z</time>
      </trkpt>
      <trkpt lat="45.64774" lon="4.64116">
        <ele>584</ele>
        <time>2018-10-14T09:36:08Z</time>
      </trkpt>
      <trkpt lat="45.64778" lon="4.64116">
        <ele>584</ele>
        <time>2018-10-14T09:36:09Z</time>
      </trkpt>
      <trkpt lat="45.64782" lon="4.64116">
        <ele>585</ele>
        <time>2018-10-14T09:36:10Z</time>
      </trkpt>
      <trkpt lat="45.64786" lon="4.64116">
        <ele>586</ele>
        <time>2018-10-14T09:36:11Z</time>
      </trkpt>
      <trkpt lat="45.64788" lon="4.64117">
        <ele>586</ele>
        <time>2018-10-14T09:36:12Z</time>
      </trkpt>
      <trkpt lat="45.6479" lon="4.64118">
        <ele>586</ele>
        <time>2018-10-14T09:36:13Z</time>
      </trkpt>
      <trkpt lat="45.64792" lon="4.64119">
        <ele>586</ele>
        <time>2018-10-14T09:36:14Z</time>
      </trkpt>
      <trkpt lat="45.64794" lon="4.6412">
        <ele>587</ele>
        <time>2018-10-14T09:36:15Z</time>
      </trkpt>
      <trkpt lat="45.64803" lon="4.64125">
        <ele>589</ele>
        <time>2018-10-14T09:36:16Z</time>
      </trkpt>
      <trkpt lat="45.64807" lon="4.64127">
        <ele>588</ele>
        <time>2018-10-14T09:36:17Z</time>
      </trkpt>
      <trkpt lat="45.64811" lon="4.64129">
        <ele>588</ele>
        <time>2018-10-14T09:36:18Z</time>
      </trkpt>
      <trkpt lat="45.64814" lon="4.64131">
        <ele>589</ele>
        <time>2018-10-14T09:36:19Z</time>
      </trkpt>
      <trkpt lat="45.64818" lon="4.64134">
        <ele>588</ele>
        <time>2018-10-14T09:36:20Z</time>
      </trkpt>
      <trkpt lat="45.64822" lon="4.64136">
        <ele>589</ele>
        <time>2018-10-14T09:36:21Z</time>
      </trkpt>
      <trkpt lat="45.64826" lon="4.64137">
        <ele>589</ele>
        <time>2018-10-14T09:36:22Z</time>
      </trkpt>
      <trkpt lat="45.6483" lon="4.64139">
        <ele>589</ele>
        <time>2018-10-14T09:36:23Z</time>
      </trkpt>
      <trkpt lat="45.64834" lon="4.64142">
        <ele>589</ele>
        <time>2018-10-14T09:36:24Z</time>
      </trkpt>
      <trkpt lat="45.64837" lon="4.64144">
        <ele>590</ele>
        <time>2018-10-14T09:36:25Z</time>
      </trkpt>
      <trkpt lat="45.64842" lon="4.64146">
        <ele>590</ele>
        <time>2018-10-14T09:36:26Z</time>
      </trkpt>
      <trkpt lat="45.64845" lon="4.64148">
        <ele>591</ele>
        <time>2018-10-14T09:36:27Z</time>
      </trkpt>
      <trkpt lat="45.64848" lon="4.64151">
        <ele>591</ele>
        <time>2018-10-14T09:36:28Z</time>
      </trkpt>
      <trkpt lat="45.64851" lon="4.64154">
        <ele>591</ele>
        <time>2018-10-14T09:36:29Z</time>
      </trkpt>
      <trkpt lat="45.64854" lon="4.64158">
        <ele>591</ele>
        <time>2018-10-14T09:36:30Z</time>
      </trkpt>
      <trkpt lat="45.64856" lon="4.64161">
        <ele>591</ele>
        <time>2018-10-14T09:36:31Z</time>
      </trkpt>
      <trkpt lat="45.64858" lon="4.64163">
        <ele>592</ele>
        <time>2018-10-14T09:36:32Z</time>
      </trkpt>
      <trkpt lat="45.64859" lon="4.64165">
        <ele>591</ele>
        <time>2018-10-14T09:36:33Z</time>
      </trkpt>
      <trkpt lat="45.6486" lon="4.64167">
        <ele>591</ele>
        <time>2018-10-14T09:36:34Z</time>
      </trkpt>
      <trkpt lat="45.64861" lon="4.64171">
        <ele>592</ele>
        <time>2018-10-14T09:36:35Z</time>
      </trkpt>
      <trkpt lat="45.64863" lon="4.64176">
        <ele>592</ele>
        <time>2018-10-14T09:36:36Z</time>
      </trkpt>
      <trkpt lat="45.64865" lon="4.64181">
        <ele>593</ele>
        <time>2018-10-14T09:36:37Z</time>
      </trkpt>
      <trkpt lat="45.64868" lon="4.64189">
        <ele>592</ele>
        <time>2018-10-14T09:36:38Z</time>
      </trkpt>
      <trkpt lat="45.64871" lon="4.64195">
        <ele>594</ele>
        <time>2018-10-14T09:36:39Z</time>
      </trkpt>
      <trkpt lat="45.64872" lon="4.64198">
        <ele>594</ele>
        <time>2018-10-14T09:36:40Z</time>
      </trkpt>
      <trkpt lat="45.64874" lon="4.64201">
        <ele>594</ele>
        <time>2018-10-14T09:36:41Z</time>
      </trkpt>
      <trkpt lat="45.64874" lon="4.64205">
        <ele>595</ele>
        <time>2018-10-14T09:36:42Z</time>
      </trkpt>
      <trkpt lat="45.64876" lon="4.6421">
        <ele>595</ele>
        <time>2018-10-14T09:36:43Z</time>
      </trkpt>
      <trkpt lat="45.64877" lon="4.64214">
        <ele>595</ele>
        <time>2018-10-14T09:36:44Z</time>
      </trkpt>
      <trkpt lat="45.64877" lon="4.64217">
        <ele>596</ele>
        <time>2018-10-14T09:36:45Z</time>
      </trkpt>
      <trkpt lat="45.64878" lon="4.64221">
        <ele>596</ele>
        <time>2018-10-14T09:36:46Z</time>
      </trkpt>
      <trkpt lat="45.6488" lon="4.64225">
        <ele>596</ele>
        <time>2018-10-14T09:36:47Z</time>
      </trkpt>
      <trkpt lat="45.64882" lon="4.64228">
        <ele>596</ele>
        <time>2018-10-14T09:36:48Z</time>
      </trkpt>
      <trkpt lat="45.64883" lon="4.64232">
        <ele>596</ele>
        <time>2018-10-14T09:36:49Z</time>
      </trkpt>
      <trkpt lat="45.64884" lon="4.64236">
        <ele>596</ele>
        <time>2018-10-14T09:36:50Z</time>
      </trkpt>
      <trkpt lat="45.64885" lon="4.64239">
        <ele>596</ele>
        <time>2018-10-14T09:36:51Z</time>
      </trkpt>
      <trkpt lat="45.64888" lon="4.64242">
        <ele>596</ele>
        <time>2018-10-14T09:36:52Z</time>
      </trkpt>
      <trkpt lat="45.64891" lon="4.64245">
        <ele>595</ele>
        <time>2018-10-14T09:36:53Z</time>
      </trkpt>
      <trkpt lat="45.64894" lon="4.64247">
        <ele>594</ele>
        <time>2018-10-14T09:36:54Z</time>
      </trkpt>
      <trkpt lat="45.64898" lon="4.64248">
        <ele>593</ele>
        <time>2018-10-14T09:36:55Z</time>
      </trkpt>
      <trkpt lat="45.649" lon="4.6425">
        <ele>594</ele>
        <time>2018-10-14T09:36:56Z</time>
      </trkpt>
      <trkpt lat="45.64903" lon="4.64249">
        <ele>595</ele>
        <time>2018-10-14T09:36:57Z</time>
      </trkpt>
      <trkpt lat="45.64906" lon="4.64249">
        <ele>595</ele>
        <time>2018-10-14T09:36:58Z</time>
      </trkpt>
      <trkpt lat="45.64908" lon="4.64249">
        <ele>595</ele>
        <time>2018-10-14T09:36:59Z</time>
      </trkpt>
      <trkpt lat="45.64909" lon="4.64249">
        <ele>595</ele>
        <time>2018-10-14T09:37:00Z</time>
      </trkpt>
      <trkpt lat="45.64911" lon="4.64248">
        <ele>596</ele>
        <time>2018-10-14T09:37:01Z</time>
      </trkpt>
      <trkpt lat="45.64912" lon="4.64247">
        <ele>596</ele>
        <time>2018-10-14T09:37:02Z</time>
      </trkpt>
      <trkpt lat="45.64914" lon="4.64247">
        <ele>596</ele>
        <time>2018-10-14T09:37:03Z</time>
      </trkpt>
      <trkpt lat="45.64918" lon="4.64246">
        <ele>597</ele>
        <time>2018-10-14T09:37:05Z</time>
      </trkpt>
      <trkpt lat="45.64922" lon="4.64245">
        <ele>597</ele>
        <time>2018-10-14T09:37:06Z</time>
      </trkpt>
      <trkpt lat="45.64931" lon="4.64243">
        <ele>602</ele>
        <time>2018-10-14T09:37:07Z</time>
      </trkpt>
      <trkpt lat="45.64935" lon="4.64242">
        <ele>601</ele>
        <time>2018-10-14T09:37:08Z</time>
      </trkpt>
      <trkpt lat="45.64937" lon="4.64241">
        <ele>602</ele>
        <time>2018-10-14T09:37:09Z</time>
      </trkpt>
      <trkpt lat="45.64939" lon="4.64241">
        <ele>600</ele>
        <time>2018-10-14T09:37:10Z</time>
      </trkpt>
      <trkpt lat="45.64943" lon="4.64243">
        <ele>601</ele>
        <time>2018-10-14T09:37:11Z</time>
      </trkpt>
      <trkpt lat="45.64945" lon="4.64247">
        <ele>602</ele>
        <time>2018-10-14T09:37:12Z</time>
      </trkpt>
      <trkpt lat="45.64948" lon="4.64251">
        <ele>602</ele>
        <time>2018-10-14T09:37:13Z</time>
      </trkpt>
      <trkpt lat="45.64951" lon="4.64257">
        <ele>602</ele>
        <time>2018-10-14T09:37:14Z</time>
      </trkpt>
      <trkpt lat="45.64954" lon="4.64263">
        <ele>603</ele>
        <time>2018-10-14T09:37:15Z</time>
      </trkpt>
      <trkpt lat="45.64957" lon="4.6427">
        <ele>603</ele>
        <time>2018-10-14T09:37:16Z</time>
      </trkpt>
      <trkpt lat="45.64962" lon="4.64277">
        <ele>603</ele>
        <time>2018-10-14T09:37:17Z</time>
      </trkpt>
      <trkpt lat="45.64966" lon="4.64285">
        <ele>602</ele>
        <time>2018-10-14T09:37:18Z</time>
      </trkpt>
      <trkpt lat="45.6497" lon="4.64294">
        <ele>602</ele>
        <time>2018-10-14T09:37:19Z</time>
      </trkpt>
      <trkpt lat="45.64974" lon="4.64304">
        <ele>602</ele>
        <time>2018-10-14T09:37:20Z</time>
      </trkpt>
      <trkpt lat="45.64978" lon="4.64314">
        <ele>600</ele>
        <time>2018-10-14T09:37:21Z</time>
      </trkpt>
      <trkpt lat="45.64983" lon="4.64325">
        <ele>600</ele>
        <time>2018-10-14T09:37:22Z</time>
      </trkpt>
      <trkpt lat="45.64988" lon="4.64337">
        <ele>600</ele>
        <time>2018-10-14T09:37:23Z</time>
      </trkpt>
      <trkpt lat="45.64994" lon="4.64349">
        <ele>600</ele>
        <time>2018-10-14T09:37:24Z</time>
      </trkpt>
      <trkpt lat="45.65001" lon="4.6436">
        <ele>598</ele>
        <time>2018-10-14T09:37:25Z</time>
      </trkpt>
      <trkpt lat="45.65007" lon="4.64371">
        <ele>597</ele>
        <time>2018-10-14T09:37:26Z</time>
      </trkpt>
      <trkpt lat="45.65014" lon="4.64382">
        <ele>596</ele>
        <time>2018-10-14T09:37:27Z</time>
      </trkpt>
      <trkpt lat="45.65021" lon="4.64392">
        <ele>594</ele>
        <time>2018-10-14T09:37:28Z</time>
      </trkpt>
      <trkpt lat="45.65028" lon="4.64403">
        <ele>593</ele>
        <time>2018-10-14T09:37:29Z</time>
      </trkpt>
      <trkpt lat="45.65036" lon="4.64415">
        <ele>593</ele>
        <time>2018-10-14T09:37:30Z</time>
      </trkpt>
      <trkpt lat="45.65042" lon="4.64426">
        <ele>593</ele>
        <time>2018-10-14T09:37:31Z</time>
      </trkpt>
      <trkpt lat="45.65048" lon="4.64436">
        <ele>592</ele>
        <time>2018-10-14T09:37:32Z</time>
      </trkpt>
      <trkpt lat="45.65052" lon="4.64445">
        <ele>592</ele>
        <time>2018-10-14T09:37:33Z</time>
      </trkpt>
      <trkpt lat="45.65056" lon="4.64453">
        <ele>592</ele>
        <time>2018-10-14T09:37:34Z</time>
      </trkpt>
      <trkpt lat="45.65059" lon="4.64462">
        <ele>592</ele>
        <time>2018-10-14T09:37:35Z</time>
      </trkpt>
      <trkpt lat="45.65063" lon="4.64471">
        <ele>592</ele>
        <time>2018-10-14T09:37:36Z</time>
      </trkpt>
      <trkpt lat="45.65067" lon="4.64479">
        <ele>592</ele>
        <time>2018-10-14T09:37:37Z</time>
      </trkpt>
      <trkpt lat="45.6507" lon="4.64487">
        <ele>592</ele>
        <time>2018-10-14T09:37:38Z</time>
      </trkpt>
      <trkpt lat="45.65074" lon="4.64496">
        <ele>592</ele>
        <time>2018-10-14T09:37:39Z</time>
      </trkpt>
      <trkpt lat="45.65078" lon="4.64504">
        <ele>592</ele>
        <time>2018-10-14T09:37:40Z</time>
      </trkpt>
      <trkpt lat="45.65081" lon="4.64511">
        <ele>592</ele>
        <time>2018-10-14T09:37:41Z</time>
      </trkpt>
      <trkpt lat="45.65085" lon="4.6452">
        <ele>592</ele>
        <time>2018-10-14T09:37:42Z</time>
      </trkpt>
      <trkpt lat="45.65089" lon="4.64528">
        <ele>592</ele>
        <time>2018-10-14T09:37:43Z</time>
      </trkpt>
      <trkpt lat="45.65094" lon="4.64536">
        <ele>593</ele>
        <time>2018-10-14T09:37:44Z</time>
      </trkpt>
      <trkpt lat="45.65098" lon="4.64544">
        <ele>593</ele>
        <time>2018-10-14T09:37:45Z</time>
      </trkpt>
      <trkpt lat="45.65103" lon="4.64552">
        <ele>593</ele>
        <time>2018-10-14T09:37:46Z</time>
      </trkpt>
      <trkpt lat="45.65107" lon="4.6456">
        <ele>593</ele>
        <time>2018-10-14T09:37:47Z</time>
      </trkpt>
      <trkpt lat="45.65111" lon="4.64568">
        <ele>593</ele>
        <time>2018-10-14T09:37:48Z</time>
      </trkpt>
      <trkpt lat="45.65115" lon="4.64576">
        <ele>593</ele>
        <time>2018-10-14T09:37:49Z</time>
      </trkpt>
      <trkpt lat="45.65119" lon="4.64585">
        <ele>593</ele>
        <time>2018-10-14T09:37:50Z</time>
      </trkpt>
      <trkpt lat="45.65124" lon="4.64594">
        <ele>594</ele>
        <time>2018-10-14T09:37:51Z</time>
      </trkpt>
      <trkpt lat="45.65128" lon="4.64604">
        <ele>595</ele>
        <time>2018-10-14T09:37:52Z</time>
      </trkpt>
      <trkpt lat="45.65132" lon="4.64613">
        <ele>596</ele>
        <time>2018-10-14T09:37:53Z</time>
      </trkpt>
      <trkpt lat="45.65136" lon="4.64622">
        <ele>595</ele>
        <time>2018-10-14T09:37:54Z</time>
      </trkpt>
      <trkpt lat="45.6514" lon="4.64631">
        <ele>595</ele>
        <time>2018-10-14T09:37:55Z</time>
      </trkpt>
      <trkpt lat="45.65144" lon="4.6464">
        <ele>595</ele>
        <time>2018-10-14T09:37:56Z</time>
      </trkpt>
      <trkpt lat="45.65149" lon="4.64648">
        <ele>595</ele>
        <time>2018-10-14T09:37:57Z</time>
      </trkpt>
      <trkpt lat="45.65152" lon="4.64656">
        <ele>596</ele>
        <time>2018-10-14T09:37:58Z</time>
      </trkpt>
      <trkpt lat="45.65156" lon="4.64666">
        <ele>597</ele>
        <time>2018-10-14T09:37:59Z</time>
      </trkpt>
      <trkpt lat="45.6516" lon="4.64674">
        <ele>596</ele>
        <time>2018-10-14T09:38:00Z</time>
      </trkpt>
      <trkpt lat="45.65163" lon="4.64683">
        <ele>597</ele>
        <time>2018-10-14T09:38:01Z</time>
      </trkpt>
      <trkpt lat="45.65166" lon="4.64691">
        <ele>596</ele>
        <time>2018-10-14T09:38:02Z</time>
      </trkpt>
      <trkpt lat="45.65169" lon="4.647">
        <ele>596</ele>
        <time>2018-10-14T09:38:03Z</time>
      </trkpt>
      <trkpt lat="45.65171" lon="4.64708">
        <ele>596</ele>
        <time>2018-10-14T09:38:04Z</time>
      </trkpt>
      <trkpt lat="45.65173" lon="4.64717">
        <ele>596</ele>
        <time>2018-10-14T09:38:05Z</time>
      </trkpt>
      <trkpt lat="45.65176" lon="4.64726">
        <ele>596</ele>
        <time>2018-10-14T09:38:06Z</time>
      </trkpt>
      <trkpt lat="45.65178" lon="4.64735">
        <ele>596</ele>
        <time>2018-10-14T09:38:07Z</time>
      </trkpt>
      <trkpt lat="45.6518" lon="4.64742">
        <ele>596</ele>
        <time>2018-10-14T09:38:08Z</time>
      </trkpt>
      <trkpt lat="45.65182" lon="4.6475">
        <ele>596</ele>
        <time>2018-10-14T09:38:09Z</time>
      </trkpt>
      <trkpt lat="45.65184" lon="4.64758">
        <ele>596</ele>
        <time>2018-10-14T09:38:10Z</time>
      </trkpt>
      <trkpt lat="45.65186" lon="4.64766">
        <ele>596</ele>
        <time>2018-10-14T09:38:11Z</time>
      </trkpt>
      <trkpt lat="45.6519" lon="4.64772">
        <ele>597</ele>
        <time>2018-10-14T09:38:12Z</time>
      </trkpt>
      <trkpt lat="45.65194" lon="4.64778">
        <ele>597</ele>
        <time>2018-10-14T09:38:13Z</time>
      </trkpt>
      <trkpt lat="45.65197" lon="4.64784">
        <ele>596</ele>
        <time>2018-10-14T09:38:14Z</time>
      </trkpt>
      <trkpt lat="45.65202" lon="4.6479">
        <ele>596</ele>
        <time>2018-10-14T09:38:15Z</time>
      </trkpt>
      <trkpt lat="45.65207" lon="4.64795">
        <ele>596</ele>
        <time>2018-10-14T09:38:16Z</time>
      </trkpt>
      <trkpt lat="45.65212" lon="4.64801">
        <ele>596</ele>
        <time>2018-10-14T09:38:17Z</time>
      </trkpt>
      <trkpt lat="45.65216" lon="4.64806">
        <ele>598</ele>
        <time>2018-10-14T09:38:18Z</time>
      </trkpt>
      <trkpt lat="45.65221" lon="4.64811">
        <ele>597</ele>
        <time>2018-10-14T09:38:19Z</time>
      </trkpt>
      <trkpt lat="45.65226" lon="4.64817">
        <ele>597</ele>
        <time>2018-10-14T09:38:20Z</time>
      </trkpt>
      <trkpt lat="45.6523" lon="4.64821">
        <ele>596</ele>
        <time>2018-10-14T09:38:21Z</time>
      </trkpt>
      <trkpt lat="45.65235" lon="4.64827">
        <ele>596</ele>
        <time>2018-10-14T09:38:22Z</time>
      </trkpt>
      <trkpt lat="45.6524" lon="4.64832">
        <ele>596</ele>
        <time>2018-10-14T09:38:23Z</time>
      </trkpt>
      <trkpt lat="45.65245" lon="4.64837">
        <ele>596</ele>
        <time>2018-10-14T09:38:24Z</time>
      </trkpt>
      <trkpt lat="45.65249" lon="4.64842">
        <ele>596</ele>
        <time>2018-10-14T09:38:25Z</time>
      </trkpt>
      <trkpt lat="45.65254" lon="4.64848">
        <ele>596</ele>
        <time>2018-10-14T09:38:26Z</time>
      </trkpt>
      <trkpt lat="45.65258" lon="4.64854">
        <ele>594</ele>
        <time>2018-10-14T09:38:27Z</time>
      </trkpt>
      <trkpt lat="45.65262" lon="4.64859">
        <ele>593</ele>
        <time>2018-10-14T09:38:28Z</time>
      </trkpt>
      <trkpt lat="45.65266" lon="4.64865">
        <ele>593</ele>
        <time>2018-10-14T09:38:29Z</time>
      </trkpt>
      <trkpt lat="45.65271" lon="4.6487">
        <ele>593</ele>
        <time>2018-10-14T09:38:30Z</time>
      </trkpt>
      <trkpt lat="45.65276" lon="4.64876">
        <ele>593</ele>
        <time>2018-10-14T09:38:31Z</time>
      </trkpt>
      <trkpt lat="45.65281" lon="4.64882">
        <ele>594</ele>
        <time>2018-10-14T09:38:32Z</time>
      </trkpt>
      <trkpt lat="45.65286" lon="4.64887">
        <ele>594</ele>
        <time>2018-10-14T09:38:33Z</time>
      </trkpt>
      <trkpt lat="45.65291" lon="4.64891">
        <ele>594</ele>
        <time>2018-10-14T09:38:34Z</time>
      </trkpt>
      <trkpt lat="45.65295" lon="4.64897">
        <ele>594</ele>
        <time>2018-10-14T09:38:35Z</time>
      </trkpt>
      <trkpt lat="45.653" lon="4.64901">
        <ele>595</ele>
        <time>2018-10-14T09:38:36Z</time>
      </trkpt>
      <trkpt lat="45.65304" lon="4.64907">
        <ele>596</ele>
        <time>2018-10-14T09:38:37Z</time>
      </trkpt>
      <trkpt lat="45.65309" lon="4.64912">
        <ele>596</ele>
        <time>2018-10-14T09:38:38Z</time>
      </trkpt>
      <trkpt lat="45.65313" lon="4.64917">
        <ele>596</ele>
        <time>2018-10-14T09:38:39Z</time>
      </trkpt>
      <trkpt lat="45.65318" lon="4.64921">
        <ele>596</ele>
        <time>2018-10-14T09:38:40Z</time>
      </trkpt>
      <trkpt lat="45.65323" lon="4.64927">
        <ele>597</ele>
        <time>2018-10-14T09:38:41Z</time>
      </trkpt>
      <trkpt lat="45.65327" lon="4.64931">
        <ele>598</ele>
        <time>2018-10-14T09:38:42Z</time>
      </trkpt>
      <trkpt lat="45.65331" lon="4.64936">
        <ele>598</ele>
        <time>2018-10-14T09:38:43Z</time>
      </trkpt>
      <trkpt lat="45.65335" lon="4.64941">
        <ele>599</ele>
        <time>2018-10-14T09:38:44Z</time>
      </trkpt>
      <trkpt lat="45.65338" lon="4.64946">
        <ele>600</ele>
        <time>2018-10-14T09:38:45Z</time>
      </trkpt>
      <trkpt lat="45.65342" lon="4.64951">
        <ele>601</ele>
        <time>2018-10-14T09:38:46Z</time>
      </trkpt>
      <trkpt lat="45.65346" lon="4.64956">
        <ele>600</ele>
        <time>2018-10-14T09:38:47Z</time>
      </trkpt>
      <trkpt lat="45.6535" lon="4.64961">
        <ele>599</ele>
        <time>2018-10-14T09:38:48Z</time>
      </trkpt>
      <trkpt lat="45.65355" lon="4.64965">
        <ele>598</ele>
        <time>2018-10-14T09:38:49Z</time>
      </trkpt>
      <trkpt lat="45.65359" lon="4.6497">
        <ele>599</ele>
        <time>2018-10-14T09:38:50Z</time>
      </trkpt>
      <trkpt lat="45.65363" lon="4.64975">
        <ele>600</ele>
        <time>2018-10-14T09:38:51Z</time>
      </trkpt>
      <trkpt lat="45.65367" lon="4.64979">
        <ele>599</ele>
        <time>2018-10-14T09:38:52Z</time>
      </trkpt>
      <trkpt lat="45.65371" lon="4.64984">
        <ele>599</ele>
        <time>2018-10-14T09:38:53Z</time>
      </trkpt>
      <trkpt lat="45.65376" lon="4.64988">
        <ele>600</ele>
        <time>2018-10-14T09:38:54Z</time>
      </trkpt>
      <trkpt lat="45.65381" lon="4.64992">
        <ele>600</ele>
        <time>2018-10-14T09:38:55Z</time>
      </trkpt>
      <trkpt lat="45.65386" lon="4.64998">
        <ele>600</ele>
        <time>2018-10-14T09:38:56Z</time>
      </trkpt>
      <trkpt lat="45.65391" lon="4.65005">
        <ele>598</ele>
        <time>2018-10-14T09:38:57Z</time>
      </trkpt>
      <trkpt lat="45.65396" lon="4.65011">
        <ele>598</ele>
        <time>2018-10-14T09:38:58Z</time>
      </trkpt>
      <trkpt lat="45.65402" lon="4.65018">
        <ele>596</ele>
        <time>2018-10-14T09:38:59Z</time>
      </trkpt>
      <trkpt lat="45.65405" lon="4.65026">
        <ele>594</ele>
        <time>2018-10-14T09:39:00Z</time>
      </trkpt>
      <trkpt lat="45.6541" lon="4.65034">
        <ele>594</ele>
        <time>2018-10-14T09:39:01Z</time>
      </trkpt>
      <trkpt lat="45.65417" lon="4.65043">
        <ele>595</ele>
        <time>2018-10-14T09:39:02Z</time>
      </trkpt>
      <trkpt lat="45.65422" lon="4.65051">
        <ele>595</ele>
        <time>2018-10-14T09:39:03Z</time>
      </trkpt>
      <trkpt lat="45.65429" lon="4.65059">
        <ele>593</ele>
        <time>2018-10-14T09:39:04Z</time>
      </trkpt>
      <trkpt lat="45.65434" lon="4.65068">
        <ele>592</ele>
        <time>2018-10-14T09:39:05Z</time>
      </trkpt>
      <trkpt lat="45.6544" lon="4.65079">
        <ele>591</ele>
        <time>2018-10-14T09:39:06Z</time>
      </trkpt>
      <trkpt lat="45.65447" lon="4.65089">
        <ele>591</ele>
        <time>2018-10-14T09:39:07Z</time>
      </trkpt>
      <trkpt lat="45.65453" lon="4.65098">
        <ele>590</ele>
        <time>2018-10-14T09:39:08Z</time>
      </trkpt>
      <trkpt lat="45.65459" lon="4.65106">
        <ele>590</ele>
        <time>2018-10-14T09:39:09Z</time>
      </trkpt>
      <trkpt lat="45.65467" lon="4.65115">
        <ele>589</ele>
        <time>2018-10-14T09:39:10Z</time>
      </trkpt>
      <trkpt lat="45.65474" lon="4.65124">
        <ele>587</ele>
        <time>2018-10-14T09:39:11Z</time>
      </trkpt>
      <trkpt lat="45.65482" lon="4.65134">
        <ele>587</ele>
        <time>2018-10-14T09:39:12Z</time>
      </trkpt>
      <trkpt lat="45.65491" lon="4.65144">
        <ele>586</ele>
        <time>2018-10-14T09:39:13Z</time>
      </trkpt>
      <trkpt lat="45.655" lon="4.65154">
        <ele>585</ele>
        <time>2018-10-14T09:39:14Z</time>
      </trkpt>
      <trkpt lat="45.65509" lon="4.65164">
        <ele>585</ele>
        <time>2018-10-14T09:39:15Z</time>
      </trkpt>
      <trkpt lat="45.65517" lon="4.65174">
        <ele>584</ele>
        <time>2018-10-14T09:39:16Z</time>
      </trkpt>
      <trkpt lat="45.65526" lon="4.65184">
        <ele>583</ele>
        <time>2018-10-14T09:39:17Z</time>
      </trkpt>
      <trkpt lat="45.65533" lon="4.65192">
        <ele>582</ele>
        <time>2018-10-14T09:39:18Z</time>
      </trkpt>
      <trkpt lat="45.6554" lon="4.652">
        <ele>581</ele>
        <time>2018-10-14T09:39:19Z</time>
      </trkpt>
      <trkpt lat="45.65546" lon="4.65207">
        <ele>580</ele>
        <time>2018-10-14T09:39:20Z</time>
      </trkpt>
      <trkpt lat="45.65551" lon="4.65212">
        <ele>579</ele>
        <time>2018-10-14T09:39:21Z</time>
      </trkpt>
      <trkpt lat="45.65553" lon="4.65217">
        <ele>580</ele>
        <time>2018-10-14T09:39:22Z</time>
      </trkpt>
      <trkpt lat="45.65553" lon="4.65222">
        <ele>578</ele>
        <time>2018-10-14T09:39:23Z</time>
      </trkpt>
      <trkpt lat="45.65553" lon="4.65228">
        <ele>576</ele>
        <time>2018-10-14T09:39:24Z</time>
      </trkpt>
      <trkpt lat="45.65552" lon="4.65233">
        <ele>576</ele>
        <time>2018-10-14T09:39:25Z</time>
      </trkpt>
      <trkpt lat="45.6555" lon="4.65236">
        <ele>577</ele>
        <time>2018-10-14T09:39:26Z</time>
      </trkpt>
      <trkpt lat="45.65548" lon="4.65241">
        <ele>576</ele>
        <time>2018-10-14T09:39:27Z</time>
      </trkpt>
      <trkpt lat="45.65546" lon="4.65244">
        <ele>576</ele>
        <time>2018-10-14T09:39:28Z</time>
      </trkpt>
      <trkpt lat="45.65544" lon="4.65248">
        <ele>576</ele>
        <time>2018-10-14T09:39:29Z</time>
      </trkpt>
      <trkpt lat="45.65543" lon="4.6525">
        <ele>576</ele>
        <time>2018-10-14T09:39:30Z</time>
      </trkpt>
      <trkpt lat="45.65542" lon="4.65252">
        <ele>576</ele>
        <time>2018-10-14T09:39:31Z</time>
      </trkpt>
      <trkpt lat="45.6554" lon="4.65254">
        <ele>577</ele>
        <time>2018-10-14T09:39:32Z</time>
      </trkpt>
      <trkpt lat="45.65533" lon="4.65264">
        <ele>578</ele>
        <time>2018-10-14T09:39:34Z</time>
      </trkpt>
      <trkpt lat="45.65531" lon="4.65268">
        <ele>578</ele>
        <time>2018-10-14T09:39:35Z</time>
      </trkpt>
      <trkpt lat="45.65529" lon="4.65272">
        <ele>580</ele>
        <time>2018-10-14T09:39:36Z</time>
      </trkpt>
      <trkpt lat="45.65528" lon="4.65276">
        <ele>579</ele>
        <time>2018-10-14T09:39:37Z</time>
      </trkpt>
      <trkpt lat="45.65526" lon="4.65278">
        <ele>579</ele>
        <time>2018-10-14T09:39:38Z</time>
      </trkpt>
      <trkpt lat="45.65524" lon="4.65282">
        <ele>580</ele>
        <time>2018-10-14T09:39:39Z</time>
      </trkpt>
      <trkpt lat="45.65522" lon="4.65284">
        <ele>580</ele>
        <time>2018-10-14T09:39:40Z</time>
      </trkpt>
      <trkpt lat="45.65519" lon="4.65286">
        <ele>580</ele>
        <time>2018-10-14T09:39:41Z</time>
      </trkpt>
      <trkpt lat="45.65517" lon="4.65289">
        <ele>580</ele>
        <time>2018-10-14T09:39:42Z</time>
      </trkpt>
      <trkpt lat="45.65516" lon="4.6529">
        <ele>580</ele>
        <time>2018-10-14T09:39:43Z</time>
      </trkpt>
      <trkpt lat="45.65515" lon="4.65292">
        <ele>581</ele>
        <time>2018-10-14T09:39:44Z</time>
      </trkpt>
      <trkpt lat="45.65515" lon="4.65296">
        <ele>579</ele>
        <time>2018-10-14T09:39:45Z</time>
      </trkpt>
      <trkpt lat="45.6551" lon="4.65301">
        <ele>582</ele>
        <time>2018-10-14T09:39:46Z</time>
      </trkpt>
      <trkpt lat="45.65506" lon="4.65302">
        <ele>584</ele>
        <time>2018-10-14T09:39:47Z</time>
      </trkpt>
      <trkpt lat="45.65504" lon="4.65305">
        <ele>584</ele>
        <time>2018-10-14T09:39:48Z</time>
      </trkpt>
      <trkpt lat="45.65501" lon="4.65307">
        <ele>585</ele>
        <time>2018-10-14T09:39:49Z</time>
      </trkpt>
      <trkpt lat="45.65498" lon="4.6531">
        <ele>585</ele>
        <time>2018-10-14T09:39:50Z</time>
      </trkpt>
      <trkpt lat="45.65495" lon="4.65313">
        <ele>586</ele>
        <time>2018-10-14T09:39:51Z</time>
      </trkpt>
      <trkpt lat="45.65492" lon="4.65317">
        <ele>586</ele>
        <time>2018-10-14T09:39:52Z</time>
      </trkpt>
      <trkpt lat="45.65488" lon="4.6532">
        <ele>586</ele>
        <time>2018-10-14T09:39:53Z</time>
      </trkpt>
      <trkpt lat="45.65485" lon="4.65323">
        <ele>586</ele>
        <time>2018-10-14T09:39:54Z</time>
      </trkpt>
      <trkpt lat="45.65484" lon="4.65325">
        <ele>587</ele>
        <time>2018-10-14T09:39:55Z</time>
      </trkpt>
      <trkpt lat="45.65482" lon="4.65327">
        <ele>588</ele>
        <time>2018-10-14T09:39:56Z</time>
      </trkpt>
      <trkpt lat="45.65481" lon="4.65329">
        <ele>588</ele>
        <time>2018-10-14T09:39:57Z</time>
      </trkpt>
      <trkpt lat="45.65477" lon="4.65335">
        <ele>588</ele>
        <time>2018-10-14T09:39:58Z</time>
      </trkpt>
      <trkpt lat="45.65472" lon="4.65349">
        <ele>589</ele>
        <time>2018-10-14T09:39:59Z</time>
      </trkpt>
      <trkpt lat="45.6547" lon="4.65357">
        <ele>590</ele>
        <time>2018-10-14T09:40:00Z</time>
      </trkpt>
      <trkpt lat="45.65469" lon="4.65364">
        <ele>589</ele>
        <time>2018-10-14T09:40:01Z</time>
      </trkpt>
      <trkpt lat="45.65465" lon="4.65371">
        <ele>590</ele>
        <time>2018-10-14T09:40:02Z</time>
      </trkpt>
      <trkpt lat="45.65463" lon="4.65377">
        <ele>590</ele>
        <time>2018-10-14T09:40:03Z</time>
      </trkpt>
      <trkpt lat="45.65461" lon="4.65383">
        <ele>589</ele>
        <time>2018-10-14T09:40:04Z</time>
      </trkpt>
      <trkpt lat="45.65459" lon="4.65389">
        <ele>587</ele>
        <time>2018-10-14T09:40:05Z</time>
      </trkpt>
      <trkpt lat="45.65454" lon="4.65393">
        <ele>586</ele>
        <time>2018-10-14T09:40:06Z</time>
      </trkpt>
      <trkpt lat="45.65447" lon="4.65395">
        <ele>586</ele>
        <time>2018-10-14T09:40:07Z</time>
      </trkpt>
      <trkpt lat="45.65439" lon="4.65393">
        <ele>587</ele>
        <time>2018-10-14T09:40:08Z</time>
      </trkpt>
      <trkpt lat="45.65434" lon="4.65391">
        <ele>586</ele>
        <time>2018-10-14T09:40:09Z</time>
      </trkpt>
      <trkpt lat="45.65428" lon="4.65388">
        <ele>585</ele>
        <time>2018-10-14T09:40:10Z</time>
      </trkpt>
      <trkpt lat="45.65421" lon="4.65385">
        <ele>584</ele>
        <time>2018-10-14T09:40:11Z</time>
      </trkpt>
      <trkpt lat="45.65416" lon="4.65381">
        <ele>581</ele>
        <time>2018-10-14T09:40:12Z</time>
      </trkpt>
      <trkpt lat="45.65411" lon="4.65379">
        <ele>582</ele>
        <time>2018-10-14T09:40:13Z</time>
      </trkpt>
      <trkpt lat="45.65406" lon="4.65377">
        <ele>581</ele>
        <time>2018-10-14T09:40:14Z</time>
      </trkpt>
      <trkpt lat="45.65402" lon="4.65375">
        <ele>576</ele>
        <time>2018-10-14T09:40:15Z</time>
      </trkpt>
      <trkpt lat="45.65397" lon="4.6537">
        <ele>576</ele>
        <time>2018-10-14T09:40:16Z</time>
      </trkpt>
      <trkpt lat="45.65391" lon="4.65364">
        <ele>572</ele>
        <time>2018-10-14T09:40:17Z</time>
      </trkpt>
      <trkpt lat="45.65383" lon="4.65361">
        <ele>581</ele>
        <time>2018-10-14T09:40:18Z</time>
      </trkpt>
      <trkpt lat="45.65376" lon="4.65359">
        <ele>580</ele>
        <time>2018-10-14T09:40:19Z</time>
      </trkpt>
      <trkpt lat="45.6537" lon="4.65359">
        <ele>579</ele>
        <time>2018-10-14T09:40:20Z</time>
      </trkpt>
      <trkpt lat="45.65364" lon="4.65359">
        <ele>578</ele>
        <time>2018-10-14T09:40:21Z</time>
      </trkpt>
      <trkpt lat="45.65358" lon="4.65365">
        <ele>577</ele>
        <time>2018-10-14T09:40:22Z</time>
      </trkpt>
      <trkpt lat="45.6536" lon="4.65373">
        <ele>577</ele>
        <time>2018-10-14T09:40:23Z</time>
      </trkpt>
      <trkpt lat="45.6536" lon="4.65381">
        <ele>576</ele>
        <time>2018-10-14T09:40:24Z</time>
      </trkpt>
      <trkpt lat="45.6536" lon="4.65388">
        <ele>575</ele>
        <time>2018-10-14T09:40:25Z</time>
      </trkpt>
      <trkpt lat="45.65359" lon="4.65396">
        <ele>575</ele>
        <time>2018-10-14T09:40:26Z</time>
      </trkpt>
      <trkpt lat="45.65357" lon="4.65407">
        <ele>579</ele>
        <time>2018-10-14T09:40:27Z</time>
      </trkpt>
      <trkpt lat="45.65358" lon="4.65419">
        <ele>578</ele>
        <time>2018-10-14T09:40:28Z</time>
      </trkpt>
      <trkpt lat="45.65358" lon="4.65429">
        <ele>578</ele>
        <time>2018-10-14T09:40:29Z</time>
      </trkpt>
      <trkpt lat="45.65356" lon="4.65441">
        <ele>576</ele>
        <time>2018-10-14T09:40:30Z</time>
      </trkpt>
      <trkpt lat="45.65355" lon="4.65453">
        <ele>575</ele>
        <time>2018-10-14T09:40:31Z</time>
      </trkpt>
      <trkpt lat="45.65352" lon="4.65465">
        <ele>574</ele>
        <time>2018-10-14T09:40:32Z</time>
      </trkpt>
      <trkpt lat="45.65348" lon="4.65475">
        <ele>573</ele>
        <time>2018-10-14T09:40:33Z</time>
      </trkpt>
      <trkpt lat="45.65345" lon="4.65488">
        <ele>573</ele>
        <time>2018-10-14T09:40:34Z</time>
      </trkpt>
      <trkpt lat="45.65339" lon="4.65499">
        <ele>572</ele>
        <time>2018-10-14T09:40:35Z</time>
      </trkpt>
      <trkpt lat="45.65334" lon="4.65507">
        <ele>572</ele>
        <time>2018-10-14T09:40:36Z</time>
      </trkpt>
      <trkpt lat="45.65327" lon="4.65515">
        <ele>574</ele>
        <time>2018-10-14T09:40:37Z</time>
      </trkpt>
      <trkpt lat="45.6532" lon="4.65523">
        <ele>574</ele>
        <time>2018-10-14T09:40:38Z</time>
      </trkpt>
      <trkpt lat="45.65315" lon="4.6553">
        <ele>574</ele>
        <time>2018-10-14T09:40:39Z</time>
      </trkpt>
      <trkpt lat="45.65308" lon="4.65537">
        <ele>575</ele>
        <time>2018-10-14T09:40:40Z</time>
      </trkpt>
      <trkpt lat="45.65301" lon="4.65543">
        <ele>574</ele>
        <time>2018-10-14T09:40:41Z</time>
      </trkpt>
      <trkpt lat="45.65294" lon="4.65548">
        <ele>574</ele>
        <time>2018-10-14T09:40:42Z</time>
      </trkpt>
      <trkpt lat="45.65286" lon="4.65547">
        <ele>572</ele>
        <time>2018-10-14T09:40:43Z</time>
      </trkpt>
      <trkpt lat="45.65278" lon="4.65549">
        <ele>572</ele>
        <time>2018-10-14T09:40:44Z</time>
      </trkpt>
      <trkpt lat="45.6527" lon="4.65548">
        <ele>572</ele>
        <time>2018-10-14T09:40:45Z</time>
      </trkpt>
      <trkpt lat="45.6526" lon="4.65548">
        <ele>571</ele>
        <time>2018-10-14T09:40:46Z</time>
      </trkpt>
      <trkpt lat="45.65249" lon="4.65546">
        <ele>569</ele>
        <time>2018-10-14T09:40:47Z</time>
      </trkpt>
      <trkpt lat="45.65239" lon="4.65548">
        <ele>569</ele>
        <time>2018-10-14T09:40:48Z</time>
      </trkpt>
      <trkpt lat="45.65227" lon="4.65549">
        <ele>571</ele>
        <time>2018-10-14T09:40:49Z</time>
      </trkpt>
      <trkpt lat="45.65216" lon="4.65547">
        <ele>570</ele>
        <time>2018-10-14T09:40:50Z</time>
      </trkpt>
      <trkpt lat="45.65208" lon="4.6554">
        <ele>568</ele>
        <time>2018-10-14T09:40:51Z</time>
      </trkpt>
      <trkpt lat="45.65199" lon="4.65535">
        <ele>568</ele>
        <time>2018-10-14T09:40:52Z</time>
      </trkpt>
      <trkpt lat="45.65189" lon="4.65534">
        <ele>567</ele>
        <time>2018-10-14T09:40:53Z</time>
      </trkpt>
      <trkpt lat="45.65178" lon="4.65535">
        <ele>567</ele>
        <time>2018-10-14T09:40:54Z</time>
      </trkpt>
      <trkpt lat="45.65167" lon="4.65537">
        <ele>566</ele>
        <time>2018-10-14T09:40:55Z</time>
      </trkpt>
      <trkpt lat="45.65164" lon="4.65547">
        <ele>565</ele>
        <time>2018-10-14T09:40:56Z</time>
      </trkpt>
      <trkpt lat="45.65159" lon="4.65554">
        <ele>565</ele>
        <time>2018-10-14T09:40:57Z</time>
      </trkpt>
      <trkpt lat="45.65161" lon="4.65568">
        <ele>566</ele>
        <time>2018-10-14T09:40:58Z</time>
      </trkpt>
      <trkpt lat="45.65165" lon="4.65584">
        <ele>565</ele>
        <time>2018-10-14T09:40:59Z</time>
      </trkpt>
      <trkpt lat="45.65166" lon="4.6559">
        <ele>565</ele>
        <time>2018-10-14T09:41:00Z</time>
      </trkpt>
      <trkpt lat="45.65166" lon="4.65597">
        <ele>569</ele>
        <time>2018-10-14T09:41:01Z</time>
      </trkpt>
      <trkpt lat="45.65171" lon="4.65603">
        <ele>568</ele>
        <time>2018-10-14T09:41:02Z</time>
      </trkpt>
      <trkpt lat="45.65171" lon="4.6561">
        <ele>567</ele>
        <time>2018-10-14T09:41:03Z</time>
      </trkpt>
      <trkpt lat="45.65171" lon="4.65614">
        <ele>563</ele>
        <time>2018-10-14T09:41:04Z</time>
      </trkpt>
      <trkpt lat="45.65173" lon="4.65619">
        <ele>563</ele>
        <time>2018-10-14T09:41:05Z</time>
      </trkpt>
      <trkpt lat="45.65173" lon="4.65624">
        <ele>563</ele>
        <time>2018-10-14T09:41:06Z</time>
      </trkpt>
      <trkpt lat="45.65173" lon="4.6563">
        <ele>564</ele>
        <time>2018-10-14T09:41:07Z</time>
      </trkpt>
      <trkpt lat="45.65173" lon="4.65635">
        <ele>564</ele>
        <time>2018-10-14T09:41:08Z</time>
      </trkpt>
      <trkpt lat="45.65173" lon="4.65639">
        <ele>565</ele>
        <time>2018-10-14T09:41:09Z</time>
      </trkpt>
      <trkpt lat="45.65172" lon="4.65643">
        <ele>566</ele>
        <time>2018-10-14T09:41:10Z</time>
      </trkpt>
      <trkpt lat="45.65173" lon="4.65647">
        <ele>567</ele>
        <time>2018-10-14T09:41:11Z</time>
      </trkpt>
      <trkpt lat="45.65173" lon="4.65651">
        <ele>567</ele>
        <time>2018-10-14T09:41:12Z</time>
      </trkpt>
      <trkpt lat="45.65172" lon="4.65654">
        <ele>567</ele>
        <time>2018-10-14T09:41:13Z</time>
      </trkpt>
      <trkpt lat="45.65171" lon="4.65657">
        <ele>569</ele>
        <time>2018-10-14T09:41:14Z</time>
      </trkpt>
      <trkpt lat="45.6517" lon="4.65659">
        <ele>570</ele>
        <time>2018-10-14T09:41:15Z</time>
      </trkpt>
      <trkpt lat="45.65169" lon="4.65661">
        <ele>570</ele>
        <time>2018-10-14T09:41:16Z</time>
      </trkpt>
      <trkpt lat="45.65168" lon="4.65664">
        <ele>570</ele>
        <time>2018-10-14T09:41:18Z</time>
      </trkpt>
      <trkpt lat="45.65164" lon="4.65668">
        <ele>570</ele>
        <time>2018-10-14T09:41:19Z</time>
      </trkpt>
      <trkpt lat="45.65159" lon="4.65677">
        <ele>574</ele>
        <time>2018-10-14T09:41:20Z</time>
      </trkpt>
      <trkpt lat="45.65159" lon="4.65682">
        <ele>575</ele>
        <time>2018-10-14T09:41:21Z</time>
      </trkpt>
      <trkpt lat="45.65157" lon="4.65685">
        <ele>574</ele>
        <time>2018-10-14T09:41:22Z</time>
      </trkpt>
      <trkpt lat="45.65154" lon="4.65687">
        <ele>574</ele>
        <time>2018-10-14T09:41:23Z</time>
      </trkpt>
      <trkpt lat="45.65152" lon="4.65691">
        <ele>574</ele>
        <time>2018-10-14T09:41:24Z</time>
      </trkpt>
      <trkpt lat="45.65151" lon="4.65693">
        <ele>573</ele>
        <time>2018-10-14T09:41:25Z</time>
      </trkpt>
      <trkpt lat="45.65151" lon="4.65696">
        <ele>573</ele>
        <time>2018-10-14T09:41:26Z</time>
      </trkpt>
      <trkpt lat="45.6515" lon="4.657">
        <ele>572</ele>
        <time>2018-10-14T09:41:27Z</time>
      </trkpt>
      <trkpt lat="45.65149" lon="4.65702">
        <ele>573</ele>
        <time>2018-10-14T09:41:28Z</time>
      </trkpt>
      <trkpt lat="45.65148" lon="4.65705">
        <ele>573</ele>
        <time>2018-10-14T09:41:29Z</time>
      </trkpt>
      <trkpt lat="45.65148" lon="4.65708">
        <ele>573</ele>
        <time>2018-10-14T09:41:30Z</time>
      </trkpt>
      <trkpt lat="45.65147" lon="4.6571">
        <ele>574</ele>
        <time>2018-10-14T09:41:31Z</time>
      </trkpt>
      <trkpt lat="45.65146" lon="4.65712">
        <ele>574</ele>
        <time>2018-10-14T09:41:32Z</time>
      </trkpt>
      <trkpt lat="45.65146" lon="4.65714">
        <ele>574</ele>
        <time>2018-10-14T09:41:33Z</time>
      </trkpt>
      <trkpt lat="45.65145" lon="4.65716">
        <ele>574</ele>
        <time>2018-10-14T09:41:34Z</time>
      </trkpt>
      <trkpt lat="45.65145" lon="4.65719">
        <ele>575</ele>
        <time>2018-10-14T09:41:35Z</time>
      </trkpt>
      <trkpt lat="45.65144" lon="4.65724">
        <ele>574</ele>
        <time>2018-10-14T09:41:36Z</time>
      </trkpt>
      <trkpt lat="45.65144" lon="4.65728">
        <ele>575</ele>
        <time>2018-10-14T09:41:37Z</time>
      </trkpt>
      <trkpt lat="45.65144" lon="4.65732">
        <ele>576</ele>
        <time>2018-10-14T09:41:38Z</time>
      </trkpt>
      <trkpt lat="45.65145" lon="4.65737">
        <ele>574</ele>
        <time>2018-10-14T09:41:40Z</time>
      </trkpt>
      <trkpt lat="45.65146" lon="4.65741">
        <ele>574</ele>
        <time>2018-10-14T09:41:41Z</time>
      </trkpt>
      <trkpt lat="45.65147" lon="4.65745">
        <ele>574</ele>
        <time>2018-10-14T09:41:42Z</time>
      </trkpt>
      <trkpt lat="45.65148" lon="4.65747">
        <ele>574</ele>
        <time>2018-10-14T09:41:43Z</time>
      </trkpt>
      <trkpt lat="45.65149" lon="4.6575">
        <ele>573</ele>
        <time>2018-10-14T09:41:45Z</time>
      </trkpt>
      <trkpt lat="45.65151" lon="4.65753">
        <ele>574</ele>
        <time>2018-10-14T09:41:46Z</time>
      </trkpt>
      <trkpt lat="45.65152" lon="4.65756">
        <ele>573</ele>
        <time>2018-10-14T09:41:47Z</time>
      </trkpt>
      <trkpt lat="45.65152" lon="4.65758">
        <ele>573</ele>
        <time>2018-10-14T09:41:48Z</time>
      </trkpt>
      <trkpt lat="45.65153" lon="4.6576">
        <ele>572</ele>
        <time>2018-10-14T09:41:49Z</time>
      </trkpt>
      <trkpt lat="45.65154" lon="4.65763">
        <ele>572</ele>
        <time>2018-10-14T09:41:50Z</time>
      </trkpt>
      <trkpt lat="45.65155" lon="4.65767">
        <ele>573</ele>
        <time>2018-10-14T09:41:51Z</time>
      </trkpt>
      <trkpt lat="45.65156" lon="4.6577">
        <ele>574</ele>
        <time>2018-10-14T09:41:52Z</time>
      </trkpt>
      <trkpt lat="45.65157" lon="4.65773">
        <ele>574</ele>
        <time>2018-10-14T09:41:53Z</time>
      </trkpt>
      <trkpt lat="45.65157" lon="4.65778">
        <ele>574</ele>
        <time>2018-10-14T09:41:55Z</time>
      </trkpt>
      <trkpt lat="45.65158" lon="4.65782">
        <ele>574</ele>
        <time>2018-10-14T09:41:56Z</time>
      </trkpt>
      <trkpt lat="45.65159" lon="4.65786">
        <ele>574</ele>
        <time>2018-10-14T09:41:57Z</time>
      </trkpt>
      <trkpt lat="45.65159" lon="4.65791">
        <ele>574</ele>
        <time>2018-10-14T09:41:59Z</time>
      </trkpt>
      <trkpt lat="45.65158" lon="4.65795">
        <ele>574</ele>
        <time>2018-10-14T09:42:00Z</time>
      </trkpt>
      <trkpt lat="45.65157" lon="4.65799">
        <ele>575</ele>
        <time>2018-10-14T09:42:01Z</time>
      </trkpt>
      <trkpt lat="45.65156" lon="4.65802">
        <ele>575</ele>
        <time>2018-10-14T09:42:02Z</time>
      </trkpt>
      <trkpt lat="45.65155" lon="4.65805">
        <ele>575</ele>
        <time>2018-10-14T09:42:03Z</time>
      </trkpt>
      <trkpt lat="45.65155" lon="4.65809">
        <ele>574</ele>
        <time>2018-10-14T09:42:05Z</time>
      </trkpt>
      <trkpt lat="45.65154" lon="4.65813">
        <ele>574</ele>
        <time>2018-10-14T09:42:06Z</time>
      </trkpt>
      <trkpt lat="45.65152" lon="4.65816">
        <ele>575</ele>
        <time>2018-10-14T09:42:07Z</time>
      </trkpt>
      <trkpt lat="45.65151" lon="4.65819">
        <ele>574</ele>
        <time>2018-10-14T09:42:08Z</time>
      </trkpt>
      <trkpt lat="45.65149" lon="4.65822">
        <ele>575</ele>
        <time>2018-10-14T09:42:09Z</time>
      </trkpt>
      <trkpt lat="45.65148" lon="4.65825">
        <ele>575</ele>
        <time>2018-10-14T09:42:10Z</time>
      </trkpt>
      <trkpt lat="45.65146" lon="4.65827">
        <ele>575</ele>
        <time>2018-10-14T09:42:11Z</time>
      </trkpt>
      <trkpt lat="45.65144" lon="4.6583">
        <ele>576</ele>
        <time>2018-10-14T09:42:13Z</time>
      </trkpt>
      <trkpt lat="45.65142" lon="4.65833">
        <ele>576</ele>
        <time>2018-10-14T09:42:14Z</time>
      </trkpt>
      <trkpt lat="45.65139" lon="4.65836">
        <ele>575</ele>
        <time>2018-10-14T09:42:15Z</time>
      </trkpt>
      <trkpt lat="45.65137" lon="4.65838">
        <ele>573</ele>
        <time>2018-10-14T09:42:16Z</time>
      </trkpt>
      <trkpt lat="45.65135" lon="4.6584">
        <ele>573</ele>
        <time>2018-10-14T09:42:17Z</time>
      </trkpt>
      <trkpt lat="45.65133" lon="4.65843">
        <ele>574</ele>
        <time>2018-10-14T09:42:18Z</time>
      </trkpt>
      <trkpt lat="45.65131" lon="4.65845">
        <ele>574</ele>
        <time>2018-10-14T09:42:19Z</time>
      </trkpt>
      <trkpt lat="45.65128" lon="4.65847">
        <ele>574</ele>
        <time>2018-10-14T09:42:20Z</time>
      </trkpt>
      <trkpt lat="45.65126" lon="4.6585">
        <ele>574</ele>
        <time>2018-10-14T09:42:21Z</time>
      </trkpt>
      <trkpt lat="45.65124" lon="4.65852">
        <ele>574</ele>
        <time>2018-10-14T09:42:22Z</time>
      </trkpt>
      <trkpt lat="45.65122" lon="4.65855">
        <ele>575</ele>
        <time>2018-10-14T09:42:23Z</time>
      </trkpt>
      <trkpt lat="45.65121" lon="4.65857">
        <ele>574</ele>
        <time>2018-10-14T09:42:24Z</time>
      </trkpt>
      <trkpt lat="45.65119" lon="4.65861">
        <ele>574</ele>
        <time>2018-10-14T09:42:25Z</time>
      </trkpt>
      <trkpt lat="45.65117" lon="4.65864">
        <ele>575</ele>
        <time>2018-10-14T09:42:26Z</time>
      </trkpt>
      <trkpt lat="45.65115" lon="4.65868">
        <ele>575</ele>
        <time>2018-10-14T09:42:27Z</time>
      </trkpt>
      <trkpt lat="45.65112" lon="4.65872">
        <ele>575</ele>
        <time>2018-10-14T09:42:28Z</time>
      </trkpt>
      <trkpt lat="45.6511" lon="4.65875">
        <ele>575</ele>
        <time>2018-10-14T09:42:29Z</time>
      </trkpt>
      <trkpt lat="45.65107" lon="4.65879">
        <ele>576</ele>
        <time>2018-10-14T09:42:30Z</time>
      </trkpt>
      <trkpt lat="45.65104" lon="4.65882">
        <ele>576</ele>
        <time>2018-10-14T09:42:31Z</time>
      </trkpt>
      <trkpt lat="45.65102" lon="4.65885">
        <ele>576</ele>
        <time>2018-10-14T09:42:32Z</time>
      </trkpt>
      <trkpt lat="45.65099" lon="4.6589">
        <ele>576</ele>
        <time>2018-10-14T09:42:33Z</time>
      </trkpt>
      <trkpt lat="45.65096" lon="4.65894">
        <ele>576</ele>
        <time>2018-10-14T09:42:34Z</time>
      </trkpt>
      <trkpt lat="45.65089" lon="4.659">
        <ele>577</ele>
        <time>2018-10-14T09:42:35Z</time>
      </trkpt>
      <trkpt lat="45.65086" lon="4.65904">
        <ele>577</ele>
        <time>2018-10-14T09:42:36Z</time>
      </trkpt>
      <trkpt lat="45.65084" lon="4.65907">
        <ele>577</ele>
        <time>2018-10-14T09:42:37Z</time>
      </trkpt>
      <trkpt lat="45.65081" lon="4.6591">
        <ele>577</ele>
        <time>2018-10-14T09:42:38Z</time>
      </trkpt>
      <trkpt lat="45.65079" lon="4.65915">
        <ele>578</ele>
        <time>2018-10-14T09:42:39Z</time>
      </trkpt>
      <trkpt lat="45.65076" lon="4.65918">
        <ele>578</ele>
        <time>2018-10-14T09:42:40Z</time>
      </trkpt>
      <trkpt lat="45.65075" lon="4.65921">
        <ele>577</ele>
        <time>2018-10-14T09:42:41Z</time>
      </trkpt>
      <trkpt lat="45.65072" lon="4.65925">
        <ele>577</ele>
        <time>2018-10-14T09:42:42Z</time>
      </trkpt>
      <trkpt lat="45.65069" lon="4.65929">
        <ele>577</ele>
        <time>2018-10-14T09:42:43Z</time>
      </trkpt>
      <trkpt lat="45.65066" lon="4.65933">
        <ele>577</ele>
        <time>2018-10-14T09:42:44Z</time>
      </trkpt>
      <trkpt lat="45.65064" lon="4.65937">
        <ele>578</ele>
        <time>2018-10-14T09:42:45Z</time>
      </trkpt>
      <trkpt lat="45.65062" lon="4.6594">
        <ele>578</ele>
        <time>2018-10-14T09:42:46Z</time>
      </trkpt>
      <trkpt lat="45.6506" lon="4.65943">
        <ele>577</ele>
        <time>2018-10-14T09:42:47Z</time>
      </trkpt>
      <trkpt lat="45.65058" lon="4.65947">
        <ele>577</ele>
        <time>2018-10-14T09:42:48Z</time>
      </trkpt>
      <trkpt lat="45.65056" lon="4.65951">
        <ele>577</ele>
        <time>2018-10-14T09:42:49Z</time>
      </trkpt>
      <trkpt lat="45.65052" lon="4.65955">
        <ele>577</ele>
        <time>2018-10-14T09:42:50Z</time>
      </trkpt>
      <trkpt lat="45.6505" lon="4.65958">
        <ele>577</ele>
        <time>2018-10-14T09:42:51Z</time>
      </trkpt>
      <trkpt lat="45.65047" lon="4.65961">
        <ele>578</ele>
        <time>2018-10-14T09:42:52Z</time>
      </trkpt>
      <trkpt lat="45.65044" lon="4.65965">
        <ele>578</ele>
        <time>2018-10-14T09:42:53Z</time>
      </trkpt>
      <trkpt lat="45.65041" lon="4.65968">
        <ele>578</ele>
        <time>2018-10-14T09:42:54Z</time>
      </trkpt>
      <trkpt lat="45.65039" lon="4.6597">
        <ele>578</ele>
        <time>2018-10-14T09:42:55Z</time>
      </trkpt>
      <trkpt lat="45.65039" lon="4.65972">
        <ele>577</ele>
        <time>2018-10-14T09:42:56Z</time>
      </trkpt>
      <trkpt lat="45.65038" lon="4.65973">
        <ele>578</ele>
        <time>2018-10-14T09:42:57Z</time>
      </trkpt>
      <trkpt lat="45.65031" lon="4.65985">
        <ele>580</ele>
        <time>2018-10-14T09:42:58Z</time>
      </trkpt>
      <trkpt lat="45.65028" lon="4.65988">
        <ele>580</ele>
        <time>2018-10-14T09:42:59Z</time>
      </trkpt>
      <trkpt lat="45.65025" lon="4.65991">
        <ele>580</ele>
        <time>2018-10-14T09:43:00Z</time>
      </trkpt>
      <trkpt lat="45.65023" lon="4.65995">
        <ele>581</ele>
        <time>2018-10-14T09:43:01Z</time>
      </trkpt>
      <trkpt lat="45.65019" lon="4.65998">
        <ele>582</ele>
        <time>2018-10-14T09:43:02Z</time>
      </trkpt>
      <trkpt lat="45.65016" lon="4.66001">
        <ele>582</ele>
        <time>2018-10-14T09:43:03Z</time>
      </trkpt>
      <trkpt lat="45.65014" lon="4.66003">
        <ele>582</ele>
        <time>2018-10-14T09:43:04Z</time>
      </trkpt>
      <trkpt lat="45.65011" lon="4.66007">
        <ele>581</ele>
        <time>2018-10-14T09:43:05Z</time>
      </trkpt>
      <trkpt lat="45.6501" lon="4.66009">
        <ele>582</ele>
        <time>2018-10-14T09:43:06Z</time>
      </trkpt>
      <trkpt lat="45.6501" lon="4.66011">
        <ele>582</ele>
        <time>2018-10-14T09:43:07Z</time>
      </trkpt>
      <trkpt lat="45.65009" lon="4.66014">
        <ele>582</ele>
        <time>2018-10-14T09:43:08Z</time>
      </trkpt>
      <trkpt lat="45.65007" lon="4.66018">
        <ele>583</ele>
        <time>2018-10-14T09:43:09Z</time>
      </trkpt>
      <trkpt lat="45.65001" lon="4.66029">
        <ele>583</ele>
        <time>2018-10-14T09:43:10Z</time>
      </trkpt>
      <trkpt lat="45.65" lon="4.66034">
        <ele>584</ele>
        <time>2018-10-14T09:43:11Z</time>
      </trkpt>
      <trkpt lat="45.64998" lon="4.66038">
        <ele>583</ele>
        <time>2018-10-14T09:43:12Z</time>
      </trkpt>
      <trkpt lat="45.64995" lon="4.66041">
        <ele>584</ele>
        <time>2018-10-14T09:43:13Z</time>
      </trkpt>
      <trkpt lat="45.64993" lon="4.66045">
        <ele>584</ele>
        <time>2018-10-14T09:43:14Z</time>
      </trkpt>
      <trkpt lat="45.6499" lon="4.66049">
        <ele>584</ele>
        <time>2018-10-14T09:43:15Z</time>
      </trkpt>
      <trkpt lat="45.64987" lon="4.66054">
        <ele>584</ele>
        <time>2018-10-14T09:43:16Z</time>
      </trkpt>
      <trkpt lat="45.64984" lon="4.66058">
        <ele>584</ele>
        <time>2018-10-14T09:43:17Z</time>
      </trkpt>
      <trkpt lat="45.64982" lon="4.66061">
        <ele>583</ele>
        <time>2018-10-14T09:43:19Z</time>
      </trkpt>
      <trkpt lat="45.64979" lon="4.66064">
        <ele>582</ele>
        <time>2018-10-14T09:43:20Z</time>
      </trkpt>
      <trkpt lat="45.64974" lon="4.66073">
        <ele>582</ele>
        <time>2018-10-14T09:43:21Z</time>
      </trkpt>
      <trkpt lat="45.64972" lon="4.66076">
        <ele>584</ele>
        <time>2018-10-14T09:43:22Z</time>
      </trkpt>
      <trkpt lat="45.6497" lon="4.66079">
        <ele>584</ele>
        <time>2018-10-14T09:43:23Z</time>
      </trkpt>
      <trkpt lat="45.64966" lon="4.66082">
        <ele>583</ele>
        <time>2018-10-14T09:43:24Z</time>
      </trkpt>
      <trkpt lat="45.64963" lon="4.66086">
        <ele>583</ele>
        <time>2018-10-14T09:43:25Z</time>
      </trkpt>
      <trkpt lat="45.64961" lon="4.6609">
        <ele>583</ele>
        <time>2018-10-14T09:43:26Z</time>
      </trkpt>
      <trkpt lat="45.64959" lon="4.66095">
        <ele>583</ele>
        <time>2018-10-14T09:43:27Z</time>
      </trkpt>
      <trkpt lat="45.64956" lon="4.66099">
        <ele>583</ele>
        <time>2018-10-14T09:43:28Z</time>
      </trkpt>
      <trkpt lat="45.64954" lon="4.66104">
        <ele>583</ele>
        <time>2018-10-14T09:43:29Z</time>
      </trkpt>
      <trkpt lat="45.64953" lon="4.66106">
        <ele>584</ele>
        <time>2018-10-14T09:43:30Z</time>
      </trkpt>
      <trkpt lat="45.64951" lon="4.6611">
        <ele>583</ele>
        <time>2018-10-14T09:43:31Z</time>
      </trkpt>
      <trkpt lat="45.64948" lon="4.66114">
        <ele>584</ele>
        <time>2018-10-14T09:43:32Z</time>
      </trkpt>
      <trkpt lat="45.64942" lon="4.6612">
        <ele>584</ele>
        <time>2018-10-14T09:43:33Z</time>
      </trkpt>
      <trkpt lat="45.64939" lon="4.66124">
        <ele>584</ele>
        <time>2018-10-14T09:43:34Z</time>
      </trkpt>
      <trkpt lat="45.64935" lon="4.66129">
        <ele>584</ele>
        <time>2018-10-14T09:43:35Z</time>
      </trkpt>
      <trkpt lat="45.64932" lon="4.66132">
        <ele>583</ele>
        <time>2018-10-14T09:43:36Z</time>
      </trkpt>
      <trkpt lat="45.64929" lon="4.66137">
        <ele>582</ele>
        <time>2018-10-14T09:43:37Z</time>
      </trkpt>
      <trkpt lat="45.64927" lon="4.6614">
        <ele>582</ele>
        <time>2018-10-14T09:43:38Z</time>
      </trkpt>
      <trkpt lat="45.64924" lon="4.66143">
        <ele>582</ele>
        <time>2018-10-14T09:43:39Z</time>
      </trkpt>
      <trkpt lat="45.64921" lon="4.66146">
        <ele>582</ele>
        <time>2018-10-14T09:43:40Z</time>
      </trkpt>
      <trkpt lat="45.64919" lon="4.6615">
        <ele>582</ele>
        <time>2018-10-14T09:43:41Z</time>
      </trkpt>
      <trkpt lat="45.64916" lon="4.66154">
        <ele>582</ele>
        <time>2018-10-14T09:43:42Z</time>
      </trkpt>
      <trkpt lat="45.64914" lon="4.66157">
        <ele>582</ele>
        <time>2018-10-14T09:43:43Z</time>
      </trkpt>
      <trkpt lat="45.64911" lon="4.66161">
        <ele>581</ele>
        <time>2018-10-14T09:43:44Z</time>
      </trkpt>
      <trkpt lat="45.64909" lon="4.66166">
        <ele>582</ele>
        <time>2018-10-14T09:43:45Z</time>
      </trkpt>
      <trkpt lat="45.64907" lon="4.6617">
        <ele>581</ele>
        <time>2018-10-14T09:43:46Z</time>
      </trkpt>
      <trkpt lat="45.64905" lon="4.66175">
        <ele>581</ele>
        <time>2018-10-14T09:43:47Z</time>
      </trkpt>
      <trkpt lat="45.64904" lon="4.66181">
        <ele>580</ele>
        <time>2018-10-14T09:43:48Z</time>
      </trkpt>
      <trkpt lat="45.64905" lon="4.66188">
        <ele>581</ele>
        <time>2018-10-14T09:43:49Z</time>
      </trkpt>
      <trkpt lat="45.64908" lon="4.66195">
        <ele>581</ele>
        <time>2018-10-14T09:43:50Z</time>
      </trkpt>
      <trkpt lat="45.64912" lon="4.662">
        <ele>582</ele>
        <time>2018-10-14T09:43:51Z</time>
      </trkpt>
      <trkpt lat="45.64916" lon="4.66205">
        <ele>581</ele>
        <time>2018-10-14T09:43:52Z</time>
      </trkpt>
      <trkpt lat="45.64919" lon="4.6621">
        <ele>581</ele>
        <time>2018-10-14T09:43:53Z</time>
      </trkpt>
      <trkpt lat="45.64923" lon="4.66215">
        <ele>581</ele>
        <time>2018-10-14T09:43:54Z</time>
      </trkpt>
      <trkpt lat="45.64928" lon="4.66218">
        <ele>582</ele>
        <time>2018-10-14T09:43:55Z</time>
      </trkpt>
      <trkpt lat="45.64934" lon="4.66222">
        <ele>581</ele>
        <time>2018-10-14T09:43:56Z</time>
      </trkpt>
      <trkpt lat="45.6494" lon="4.66227">
        <ele>581</ele>
        <time>2018-10-14T09:43:57Z</time>
      </trkpt>
      <trkpt lat="45.64946" lon="4.66231">
        <ele>582</ele>
        <time>2018-10-14T09:43:58Z</time>
      </trkpt>
      <trkpt lat="45.64952" lon="4.66235">
        <ele>582</ele>
        <time>2018-10-14T09:43:59Z</time>
      </trkpt>
      <trkpt lat="45.64957" lon="4.6624">
        <ele>582</ele>
        <time>2018-10-14T09:44:00Z</time>
      </trkpt>
      <trkpt lat="45.64964" lon="4.66243">
        <ele>582</ele>
        <time>2018-10-14T09:44:01Z</time>
      </trkpt>
      <trkpt lat="45.64971" lon="4.66247">
        <ele>582</ele>
        <time>2018-10-14T09:44:02Z</time>
      </trkpt>
      <trkpt lat="45.64977" lon="4.6625">
        <ele>582</ele>
        <time>2018-10-14T09:44:03Z</time>
      </trkpt>
      <trkpt lat="45.64983" lon="4.66253">
        <ele>581</ele>
        <time>2018-10-14T09:44:04Z</time>
      </trkpt>
      <trkpt lat="45.64991" lon="4.6626">
        <ele>582</ele>
        <time>2018-10-14T09:44:05Z</time>
      </trkpt>
      <trkpt lat="45.64998" lon="4.66264">
        <ele>582</ele>
        <time>2018-10-14T09:44:06Z</time>
      </trkpt>
      <trkpt lat="45.65005" lon="4.66268">
        <ele>582</ele>
        <time>2018-10-14T09:44:07Z</time>
      </trkpt>
      <trkpt lat="45.65012" lon="4.6627">
        <ele>578</ele>
        <time>2018-10-14T09:44:08Z</time>
      </trkpt>
      <trkpt lat="45.65019" lon="4.66273">
        <ele>578</ele>
        <time>2018-10-14T09:44:09Z</time>
      </trkpt>
      <trkpt lat="45.65025" lon="4.66274">
        <ele>577</ele>
        <time>2018-10-14T09:44:10Z</time>
      </trkpt>
      <trkpt lat="45.6503" lon="4.66272">
        <ele>578</ele>
        <time>2018-10-14T09:44:11Z</time>
      </trkpt>
      <trkpt lat="45.65034" lon="4.66268">
        <ele>578</ele>
        <time>2018-10-14T09:44:12Z</time>
      </trkpt>
      <trkpt lat="45.65038" lon="4.66264">
        <ele>576</ele>
        <time>2018-10-14T09:44:13Z</time>
      </trkpt>
      <trkpt lat="45.65041" lon="4.66259">
        <ele>577</ele>
        <time>2018-10-14T09:44:14Z</time>
      </trkpt>
      <trkpt lat="45.65045" lon="4.66252">
        <ele>579</ele>
        <time>2018-10-14T09:44:15Z</time>
      </trkpt>
      <trkpt lat="45.65049" lon="4.66246">
        <ele>578</ele>
        <time>2018-10-14T09:44:16Z</time>
      </trkpt>
      <trkpt lat="45.65052" lon="4.66239">
        <ele>577</ele>
        <time>2018-10-14T09:44:17Z</time>
      </trkpt>
      <trkpt lat="45.65057" lon="4.66235">
        <ele>577</ele>
        <time>2018-10-14T09:44:18Z</time>
      </trkpt>
      <trkpt lat="45.65062" lon="4.66228">
        <ele>581</ele>
        <time>2018-10-14T09:44:19Z</time>
      </trkpt>
      <trkpt lat="45.65068" lon="4.66222">
        <ele>579</ele>
        <time>2018-10-14T09:44:20Z</time>
      </trkpt>
      <trkpt lat="45.65075" lon="4.66216">
        <ele>578</ele>
        <time>2018-10-14T09:44:21Z</time>
      </trkpt>
      <trkpt lat="45.65082" lon="4.6621">
        <ele>577</ele>
        <time>2018-10-14T09:44:22Z</time>
      </trkpt>
      <trkpt lat="45.65088" lon="4.66206">
        <ele>576</ele>
        <time>2018-10-14T09:44:23Z</time>
      </trkpt>
      <trkpt lat="45.65096" lon="4.662">
        <ele>580</ele>
        <time>2018-10-14T09:44:24Z</time>
      </trkpt>
      <trkpt lat="45.65102" lon="4.66194">
        <ele>579</ele>
        <time>2018-10-14T09:44:25Z</time>
      </trkpt>
      <trkpt lat="45.65108" lon="4.66192">
        <ele>578</ele>
        <time>2018-10-14T09:44:26Z</time>
      </trkpt>
      <trkpt lat="45.65115" lon="4.66188">
        <ele>577</ele>
        <time>2018-10-14T09:44:27Z</time>
      </trkpt>
      <trkpt lat="45.65122" lon="4.66184">
        <ele>576</ele>
        <time>2018-10-14T09:44:28Z</time>
      </trkpt>
      <trkpt lat="45.65128" lon="4.66182">
        <ele>576</ele>
        <time>2018-10-14T09:44:29Z</time>
      </trkpt>
      <trkpt lat="45.65135" lon="4.66182">
        <ele>575</ele>
        <time>2018-10-14T09:44:30Z</time>
      </trkpt>
      <trkpt lat="45.65142" lon="4.66182">
        <ele>574</ele>
        <time>2018-10-14T09:44:31Z</time>
      </trkpt>
      <trkpt lat="45.65149" lon="4.6618">
        <ele>574</ele>
        <time>2018-10-14T09:44:32Z</time>
      </trkpt>
      <trkpt lat="45.65157" lon="4.66179">
        <ele>574</ele>
        <time>2018-10-14T09:44:33Z</time>
      </trkpt>
      <trkpt lat="45.65166" lon="4.66178">
        <ele>572</ele>
        <time>2018-10-14T09:44:34Z</time>
      </trkpt>
      <trkpt lat="45.65174" lon="4.66177">
        <ele>572</ele>
        <time>2018-10-14T09:44:35Z</time>
      </trkpt>
      <trkpt lat="45.65181" lon="4.66176">
        <ele>571</ele>
        <time>2018-10-14T09:44:36Z</time>
      </trkpt>
      <trkpt lat="45.65189" lon="4.66177">
        <ele>571</ele>
        <time>2018-10-14T09:44:37Z</time>
      </trkpt>
      <trkpt lat="45.65199" lon="4.66183">
        <ele>570</ele>
        <time>2018-10-14T09:44:38Z</time>
      </trkpt>
      <trkpt lat="45.65208" lon="4.66187">
        <ele>568</ele>
        <time>2018-10-14T09:44:39Z</time>
      </trkpt>
      <trkpt lat="45.65218" lon="4.66186">
        <ele>566</ele>
        <time>2018-10-14T09:44:40Z</time>
      </trkpt>
      <trkpt lat="45.65228" lon="4.66187">
        <ele>567</ele>
        <time>2018-10-14T09:44:41Z</time>
      </trkpt>
      <trkpt lat="45.65236" lon="4.66188">
        <ele>568</ele>
        <time>2018-10-14T09:44:42Z</time>
      </trkpt>
      <trkpt lat="45.65245" lon="4.66186">
        <ele>567</ele>
        <time>2018-10-14T09:44:43Z</time>
      </trkpt>
      <trkpt lat="45.65254" lon="4.66185">
        <ele>567</ele>
        <time>2018-10-14T09:44:44Z</time>
      </trkpt>
      <trkpt lat="45.65262" lon="4.66184">
        <ele>567</ele>
        <time>2018-10-14T09:44:45Z</time>
      </trkpt>
      <trkpt lat="45.6527" lon="4.66178">
        <ele>567</ele>
        <time>2018-10-14T09:44:46Z</time>
      </trkpt>
      <trkpt lat="45.65278" lon="4.66172">
        <ele>567</ele>
        <time>2018-10-14T09:44:47Z</time>
      </trkpt>
      <trkpt lat="45.65283" lon="4.66166">
        <ele>566</ele>
        <time>2018-10-14T09:44:48Z</time>
      </trkpt>
      <trkpt lat="45.65293" lon="4.66161">
        <ele>563</ele>
        <time>2018-10-14T09:44:49Z</time>
      </trkpt>
      <trkpt lat="45.65302" lon="4.66157">
        <ele>561</ele>
        <time>2018-10-14T09:44:50Z</time>
      </trkpt>
      <trkpt lat="45.65309" lon="4.66156">
        <ele>560</ele>
        <time>2018-10-14T09:44:51Z</time>
      </trkpt>
      <trkpt lat="45.65317" lon="4.66154">
        <ele>559</ele>
        <time>2018-10-14T09:44:52Z</time>
      </trkpt>
      <trkpt lat="45.65322" lon="4.66153">
        <ele>558</ele>
        <time>2018-10-14T09:44:53Z</time>
      </trkpt>
      <trkpt lat="45.6533" lon="4.66153">
        <ele>558</ele>
        <time>2018-10-14T09:44:54Z</time>
      </trkpt>
      <trkpt lat="45.65337" lon="4.66157">
        <ele>556</ele>
        <time>2018-10-14T09:44:55Z</time>
      </trkpt>
      <trkpt lat="45.65344" lon="4.66159">
        <ele>557</ele>
        <time>2018-10-14T09:44:56Z</time>
      </trkpt>
      <trkpt lat="45.6535" lon="4.66161">
        <ele>556</ele>
        <time>2018-10-14T09:44:57Z</time>
      </trkpt>
      <trkpt lat="45.65356" lon="4.66165">
        <ele>555</ele>
        <time>2018-10-14T09:44:58Z</time>
      </trkpt>
      <trkpt lat="45.65361" lon="4.66171">
        <ele>553</ele>
        <time>2018-10-14T09:44:59Z</time>
      </trkpt>
      <trkpt lat="45.65366" lon="4.66178">
        <ele>552</ele>
        <time>2018-10-14T09:45:00Z</time>
      </trkpt>
      <trkpt lat="45.65371" lon="4.66186">
        <ele>551</ele>
        <time>2018-10-14T09:45:01Z</time>
      </trkpt>
      <trkpt lat="45.65376" lon="4.66192">
        <ele>552</ele>
        <time>2018-10-14T09:45:02Z</time>
      </trkpt>
      <trkpt lat="45.65381" lon="4.66201">
        <ele>550</ele>
        <time>2018-10-14T09:45:03Z</time>
      </trkpt>
      <trkpt lat="45.65387" lon="4.66207">
        <ele>549</ele>
        <time>2018-10-14T09:45:04Z</time>
      </trkpt>
      <trkpt lat="45.65393" lon="4.66208">
        <ele>552</ele>
        <time>2018-10-14T09:45:05Z</time>
      </trkpt>
      <trkpt lat="45.65396" lon="4.66213">
        <ele>552</ele>
        <time>2018-10-14T09:45:06Z</time>
      </trkpt>
      <trkpt lat="45.65401" lon="4.66215">
        <ele>547</ele>
        <time>2018-10-14T09:45:07Z</time>
      </trkpt>
      <trkpt lat="45.65403" lon="4.66218">
        <ele>547</ele>
        <time>2018-10-14T09:45:08Z</time>
      </trkpt>
      <trkpt lat="45.65403" lon="4.66225">
        <ele>545</ele>
        <time>2018-10-14T09:45:09Z</time>
      </trkpt>
      <trkpt lat="45.65405" lon="4.6623">
        <ele>543</ele>
        <time>2018-10-14T09:45:10Z</time>
      </trkpt>
      <trkpt lat="45.65406" lon="4.66239">
        <ele>541</ele>
        <time>2018-10-14T09:45:11Z</time>
      </trkpt>
      <trkpt lat="45.65408" lon="4.66248">
        <ele>541</ele>
        <time>2018-10-14T09:45:12Z</time>
      </trkpt>
      <trkpt lat="45.65412" lon="4.66256">
        <ele>541</ele>
        <time>2018-10-14T09:45:13Z</time>
      </trkpt>
      <trkpt lat="45.65417" lon="4.66265">
        <ele>542</ele>
        <time>2018-10-14T09:45:14Z</time>
      </trkpt>
      <trkpt lat="45.65421" lon="4.66273">
        <ele>541</ele>
        <time>2018-10-14T09:45:15Z</time>
      </trkpt>
      <trkpt lat="45.65424" lon="4.66281">
        <ele>541</ele>
        <time>2018-10-14T09:45:16Z</time>
      </trkpt>
      <trkpt lat="45.65427" lon="4.66288">
        <ele>541</ele>
        <time>2018-10-14T09:45:17Z</time>
      </trkpt>
      <trkpt lat="45.6543" lon="4.66295">
        <ele>540</ele>
        <time>2018-10-14T09:45:18Z</time>
      </trkpt>
      <trkpt lat="45.65433" lon="4.66304">
        <ele>539</ele>
        <time>2018-10-14T09:45:19Z</time>
      </trkpt>
      <trkpt lat="45.65436" lon="4.6631">
        <ele>537</ele>
        <time>2018-10-14T09:45:20Z</time>
      </trkpt>
      <trkpt lat="45.65441" lon="4.66318">
        <ele>537</ele>
        <time>2018-10-14T09:45:21Z</time>
      </trkpt>
      <trkpt lat="45.65446" lon="4.66327">
        <ele>536</ele>
        <time>2018-10-14T09:45:22Z</time>
      </trkpt>
      <trkpt lat="45.65451" lon="4.66339">
        <ele>534</ele>
        <time>2018-10-14T09:45:23Z</time>
      </trkpt>
      <trkpt lat="45.65455" lon="4.6635">
        <ele>533</ele>
        <time>2018-10-14T09:45:24Z</time>
      </trkpt>
      <trkpt lat="45.65459" lon="4.66364">
        <ele>533</ele>
        <time>2018-10-14T09:45:25Z</time>
      </trkpt>
      <trkpt lat="45.65465" lon="4.66374">
        <ele>530</ele>
        <time>2018-10-14T09:45:26Z</time>
      </trkpt>
      <trkpt lat="45.65471" lon="4.66382">
        <ele>529</ele>
        <time>2018-10-14T09:45:27Z</time>
      </trkpt>
      <trkpt lat="45.65476" lon="4.66389">
        <ele>527</ele>
        <time>2018-10-14T09:45:28Z</time>
      </trkpt>
      <trkpt lat="45.6548" lon="4.66396">
        <ele>526</ele>
        <time>2018-10-14T09:45:29Z</time>
      </trkpt>
      <trkpt lat="45.65485" lon="4.66398">
        <ele>525</ele>
        <time>2018-10-14T09:45:30Z</time>
      </trkpt>
      <trkpt lat="45.65492" lon="4.66403">
        <ele>523</ele>
        <time>2018-10-14T09:45:31Z</time>
      </trkpt>
      <trkpt lat="45.65496" lon="4.66408">
        <ele>523</ele>
        <time>2018-10-14T09:45:32Z</time>
      </trkpt>
      <trkpt lat="45.655" lon="4.66416">
        <ele>523</ele>
        <time>2018-10-14T09:45:33Z</time>
      </trkpt>
      <trkpt lat="45.655" lon="4.66421">
        <ele>522</ele>
        <time>2018-10-14T09:45:34Z</time>
      </trkpt>
      <trkpt lat="45.65493" lon="4.66427">
        <ele>520</ele>
        <time>2018-10-14T09:45:35Z</time>
      </trkpt>
      <trkpt lat="45.65488" lon="4.66428">
        <ele>518</ele>
        <time>2018-10-14T09:45:36Z</time>
      </trkpt>
      <trkpt lat="45.65482" lon="4.66425">
        <ele>517</ele>
        <time>2018-10-14T09:45:37Z</time>
      </trkpt>
      <trkpt lat="45.65475" lon="4.66423">
        <ele>515</ele>
        <time>2018-10-14T09:45:38Z</time>
      </trkpt>
      <trkpt lat="45.65471" lon="4.66423">
        <ele>514</ele>
        <time>2018-10-14T09:45:39Z</time>
      </trkpt>
      <trkpt lat="45.65467" lon="4.66421">
        <ele>512</ele>
        <time>2018-10-14T09:45:40Z</time>
      </trkpt>
      <trkpt lat="45.65461" lon="4.66419">
        <ele>514</ele>
        <time>2018-10-14T09:45:41Z</time>
      </trkpt>
      <trkpt lat="45.65455" lon="4.66418">
        <ele>514</ele>
        <time>2018-10-14T09:45:42Z</time>
      </trkpt>
      <trkpt lat="45.65448" lon="4.66419">
        <ele>515</ele>
        <time>2018-10-14T09:45:43Z</time>
      </trkpt>
      <trkpt lat="45.65442" lon="4.66422">
        <ele>513</ele>
        <time>2018-10-14T09:45:44Z</time>
      </trkpt>
      <trkpt lat="45.65436" lon="4.66425">
        <ele>512</ele>
        <time>2018-10-14T09:45:45Z</time>
      </trkpt>
      <trkpt lat="45.65431" lon="4.66427">
        <ele>511</ele>
        <time>2018-10-14T09:45:46Z</time>
      </trkpt>
      <trkpt lat="45.65428" lon="4.66429">
        <ele>509</ele>
        <time>2018-10-14T09:45:47Z</time>
      </trkpt>
      <trkpt lat="45.65425" lon="4.66432">
        <ele>508</ele>
        <time>2018-10-14T09:45:48Z</time>
      </trkpt>
      <trkpt lat="45.65422" lon="4.66438">
        <ele>507</ele>
        <time>2018-10-14T09:45:49Z</time>
      </trkpt>
      <trkpt lat="45.65419" lon="4.66445">
        <ele>507</ele>
        <time>2018-10-14T09:45:50Z</time>
      </trkpt>
      <trkpt lat="45.65416" lon="4.6645">
        <ele>507</ele>
        <time>2018-10-14T09:45:51Z</time>
      </trkpt>
      <trkpt lat="45.65414" lon="4.66455">
        <ele>508</ele>
        <time>2018-10-14T09:45:52Z</time>
      </trkpt>
      <trkpt lat="45.65413" lon="4.66461">
        <ele>508</ele>
        <time>2018-10-14T09:45:53Z</time>
      </trkpt>
      <trkpt lat="45.65411" lon="4.66466">
        <ele>509</ele>
        <time>2018-10-14T09:45:54Z</time>
      </trkpt>
      <trkpt lat="45.65409" lon="4.66472">
        <ele>509</ele>
        <time>2018-10-14T09:45:55Z</time>
      </trkpt>
      <trkpt lat="45.65407" lon="4.66479">
        <ele>509</ele>
        <time>2018-10-14T09:45:56Z</time>
      </trkpt>
      <trkpt lat="45.65402" lon="4.66483">
        <ele>510</ele>
        <time>2018-10-14T09:45:57Z</time>
      </trkpt>
      <trkpt lat="45.65399" lon="4.66489">
        <ele>509</ele>
        <time>2018-10-14T09:45:58Z</time>
      </trkpt>
      <trkpt lat="45.65395" lon="4.66495">
        <ele>509</ele>
        <time>2018-10-14T09:45:59Z</time>
      </trkpt>
      <trkpt lat="45.65395" lon="4.66505">
        <ele>508</ele>
        <time>2018-10-14T09:46:00Z</time>
      </trkpt>
      <trkpt lat="45.65391" lon="4.66508">
        <ele>508</ele>
        <time>2018-10-14T09:46:01Z</time>
      </trkpt>
      <trkpt lat="45.65388" lon="4.66514">
        <ele>507</ele>
        <time>2018-10-14T09:46:02Z</time>
      </trkpt>
      <trkpt lat="45.65385" lon="4.66519">
        <ele>507</ele>
        <time>2018-10-14T09:46:03Z</time>
      </trkpt>
      <trkpt lat="45.65382" lon="4.66524">
        <ele>506</ele>
        <time>2018-10-14T09:46:04Z</time>
      </trkpt>
      <trkpt lat="45.65379" lon="4.66528">
        <ele>505</ele>
        <time>2018-10-14T09:46:05Z</time>
      </trkpt>
      <trkpt lat="45.65377" lon="4.66533">
        <ele>504</ele>
        <time>2018-10-14T09:46:06Z</time>
      </trkpt>
      <trkpt lat="45.65375" lon="4.6654">
        <ele>504</ele>
        <time>2018-10-14T09:46:07Z</time>
      </trkpt>
      <trkpt lat="45.65374" lon="4.66548">
        <ele>504</ele>
        <time>2018-10-14T09:46:08Z</time>
      </trkpt>
      <trkpt lat="45.65372" lon="4.66554">
        <ele>503</ele>
        <time>2018-10-14T09:46:09Z</time>
      </trkpt>
      <trkpt lat="45.65371" lon="4.66563">
        <ele>503</ele>
        <time>2018-10-14T09:46:10Z</time>
      </trkpt>
      <trkpt lat="45.65366" lon="4.66569">
        <ele>503</ele>
        <time>2018-10-14T09:46:11Z</time>
      </trkpt>
      <trkpt lat="45.65361" lon="4.66575">
        <ele>504</ele>
        <time>2018-10-14T09:46:12Z</time>
      </trkpt>
      <trkpt lat="45.65356" lon="4.66579">
        <ele>503</ele>
        <time>2018-10-14T09:46:13Z</time>
      </trkpt>
      <trkpt lat="45.65352" lon="4.66585">
        <ele>503</ele>
        <time>2018-10-14T09:46:14Z</time>
      </trkpt>
      <trkpt lat="45.65347" lon="4.6659">
        <ele>504</ele>
        <time>2018-10-14T09:46:15Z</time>
      </trkpt>
      <trkpt lat="45.65341" lon="4.66593">
        <ele>501</ele>
        <time>2018-10-14T09:46:16Z</time>
      </trkpt>
      <trkpt lat="45.65336" lon="4.66595">
        <ele>494</ele>
        <time>2018-10-14T09:46:17Z</time>
      </trkpt>
      <trkpt lat="45.65331" lon="4.66601">
        <ele>495</ele>
        <time>2018-10-14T09:46:18Z</time>
      </trkpt>
      <trkpt lat="45.65327" lon="4.66606">
        <ele>491</ele>
        <time>2018-10-14T09:46:19Z</time>
      </trkpt>
      <trkpt lat="45.65321" lon="4.6661">
        <ele>491</ele>
        <time>2018-10-14T09:46:20Z</time>
      </trkpt>
      <trkpt lat="45.65315" lon="4.66615">
        <ele>493</ele>
        <time>2018-10-14T09:46:21Z</time>
      </trkpt>
      <trkpt lat="45.65312" lon="4.66624">
        <ele>494</ele>
        <time>2018-10-14T09:46:22Z</time>
      </trkpt>
      <trkpt lat="45.65308" lon="4.6663">
        <ele>494</ele>
        <time>2018-10-14T09:46:23Z</time>
      </trkpt>
      <trkpt lat="45.65305" lon="4.66638">
        <ele>494</ele>
        <time>2018-10-14T09:46:24Z</time>
      </trkpt>
      <trkpt lat="45.65298" lon="4.66643">
        <ele>492</ele>
        <time>2018-10-14T09:46:25Z</time>
      </trkpt>
      <trkpt lat="45.65293" lon="4.66649">
        <ele>493</ele>
        <time>2018-10-14T09:46:26Z</time>
      </trkpt>
      <trkpt lat="45.65288" lon="4.66655">
        <ele>493</ele>
        <time>2018-10-14T09:46:27Z</time>
      </trkpt>
      <trkpt lat="45.65284" lon="4.6666">
        <ele>494</ele>
        <time>2018-10-14T09:46:28Z</time>
      </trkpt>
      <trkpt lat="45.65279" lon="4.66664">
        <ele>493</ele>
        <time>2018-10-14T09:46:29Z</time>
      </trkpt>
      <trkpt lat="45.65275" lon="4.66667">
        <ele>494</ele>
        <time>2018-10-14T09:46:30Z</time>
      </trkpt>
      <trkpt lat="45.6527" lon="4.66672">
        <ele>494</ele>
        <time>2018-10-14T09:46:31Z</time>
      </trkpt>
      <trkpt lat="45.65266" lon="4.66675">
        <ele>493</ele>
        <time>2018-10-14T09:46:32Z</time>
      </trkpt>
      <trkpt lat="45.65262" lon="4.66679">
        <ele>494</ele>
        <time>2018-10-14T09:46:33Z</time>
      </trkpt>
      <trkpt lat="45.65257" lon="4.6668">
        <ele>497</ele>
        <time>2018-10-14T09:46:34Z</time>
      </trkpt>
      <trkpt lat="45.65255" lon="4.66682">
        <ele>498</ele>
        <time>2018-10-14T09:46:35Z</time>
      </trkpt>
      <trkpt lat="45.65252" lon="4.66683">
        <ele>499</ele>
        <time>2018-10-14T09:46:36Z</time>
      </trkpt>
      <trkpt lat="45.65247" lon="4.66683">
        <ele>502</ele>
        <time>2018-10-14T09:46:37Z</time>
      </trkpt>
      <trkpt lat="45.65241" lon="4.66687">
        <ele>503</ele>
        <time>2018-10-14T09:46:38Z</time>
      </trkpt>
      <trkpt lat="45.65235" lon="4.6669">
        <ele>503</ele>
        <time>2018-10-14T09:46:39Z</time>
      </trkpt>
      <trkpt lat="45.65229" lon="4.66694">
        <ele>504</ele>
        <time>2018-10-14T09:46:40Z</time>
      </trkpt>
      <trkpt lat="45.65223" lon="4.66699">
        <ele>503</ele>
        <time>2018-10-14T09:46:41Z</time>
      </trkpt>
      <trkpt lat="45.65217" lon="4.66704">
        <ele>504</ele>
        <time>2018-10-14T09:46:42Z</time>
      </trkpt>
      <trkpt lat="45.65212" lon="4.66706">
        <ele>504</ele>
        <time>2018-10-14T09:46:43Z</time>
      </trkpt>
      <trkpt lat="45.65207" lon="4.66708">
        <ele>503</ele>
        <time>2018-10-14T09:46:44Z</time>
      </trkpt>
      <trkpt lat="45.65203" lon="4.66712">
        <ele>503</ele>
        <time>2018-10-14T09:46:45Z</time>
      </trkpt>
      <trkpt lat="45.65198" lon="4.66714">
        <ele>504</ele>
        <time>2018-10-14T09:46:46Z</time>
      </trkpt>
      <trkpt lat="45.65193" lon="4.66713">
        <ele>506</ele>
        <time>2018-10-14T09:46:47Z</time>
      </trkpt>
      <trkpt lat="45.65189" lon="4.66711">
        <ele>506</ele>
        <time>2018-10-14T09:46:48Z</time>
      </trkpt>
      <trkpt lat="45.65183" lon="4.66709">
        <ele>504</ele>
        <time>2018-10-14T09:46:49Z</time>
      </trkpt>
      <trkpt lat="45.65178" lon="4.66706">
        <ele>505</ele>
        <time>2018-10-14T09:46:50Z</time>
      </trkpt>
      <trkpt lat="45.65173" lon="4.66704">
        <ele>506</ele>
        <time>2018-10-14T09:46:51Z</time>
      </trkpt>
      <trkpt lat="45.65168" lon="4.66705">
        <ele>507</ele>
        <time>2018-10-14T09:46:52Z</time>
      </trkpt>
      <trkpt lat="45.65163" lon="4.66708">
        <ele>508</ele>
        <time>2018-10-14T09:46:53Z</time>
      </trkpt>
      <trkpt lat="45.6516" lon="4.66713">
        <ele>506</ele>
        <time>2018-10-14T09:46:54Z</time>
      </trkpt>
      <trkpt lat="45.6516" lon="4.66717">
        <ele>505</ele>
        <time>2018-10-14T09:46:55Z</time>
      </trkpt>
      <trkpt lat="45.65162" lon="4.66726">
        <ele>507</ele>
        <time>2018-10-14T09:46:56Z</time>
      </trkpt>
      <trkpt lat="45.65163" lon="4.6673">
        <ele>507</ele>
        <time>2018-10-14T09:46:57Z</time>
      </trkpt>
      <trkpt lat="45.65167" lon="4.66734">
        <ele>507</ele>
        <time>2018-10-14T09:46:58Z</time>
      </trkpt>
      <trkpt lat="45.65167" lon="4.66737">
        <ele>507</ele>
        <time>2018-10-14T09:46:59Z</time>
      </trkpt>
      <trkpt lat="45.65169" lon="4.66739">
        <ele>506</ele>
        <time>2018-10-14T09:47:00Z</time>
      </trkpt>
      <trkpt lat="45.6517" lon="4.66741">
        <ele>507</ele>
        <time>2018-10-14T09:47:01Z</time>
      </trkpt>
      <trkpt lat="45.65171" lon="4.66743">
        <ele>507</ele>
        <time>2018-10-14T09:47:02Z</time>
      </trkpt>
      <trkpt lat="45.65171" lon="4.66745">
        <ele>507</ele>
        <time>2018-10-14T09:47:03Z</time>
      </trkpt>
      <trkpt lat="45.65172" lon="4.66748">
        <ele>507</ele>
        <time>2018-10-14T09:47:04Z</time>
      </trkpt>
      <trkpt lat="45.65173" lon="4.6675">
        <ele>507</ele>
        <time>2018-10-14T09:47:05Z</time>
      </trkpt>
      <trkpt lat="45.65173" lon="4.66753">
        <ele>506</ele>
        <time>2018-10-14T09:47:06Z</time>
      </trkpt>
      <trkpt lat="45.65174" lon="4.66756">
        <ele>507</ele>
        <time>2018-10-14T09:47:07Z</time>
      </trkpt>
      <trkpt lat="45.65174" lon="4.66758">
        <ele>506</ele>
        <time>2018-10-14T09:47:08Z</time>
      </trkpt>
      <trkpt lat="45.65175" lon="4.66761">
        <ele>505</ele>
        <time>2018-10-14T09:47:09Z</time>
      </trkpt>
      <trkpt lat="45.65175" lon="4.66763">
        <ele>505</ele>
        <time>2018-10-14T09:47:10Z</time>
      </trkpt>
      <trkpt lat="45.65176" lon="4.66766">
        <ele>504</ele>
        <time>2018-10-14T09:47:11Z</time>
      </trkpt>
      <trkpt lat="45.65177" lon="4.66768">
        <ele>504</ele>
        <time>2018-10-14T09:47:12Z</time>
      </trkpt>
      <trkpt lat="45.65178" lon="4.66771">
        <ele>504</ele>
        <time>2018-10-14T09:47:13Z</time>
      </trkpt>
      <trkpt lat="45.65179" lon="4.66773">
        <ele>504</ele>
        <time>2018-10-14T09:47:14Z</time>
      </trkpt>
      <trkpt lat="45.6518" lon="4.66775">
        <ele>504</ele>
        <time>2018-10-14T09:47:15Z</time>
      </trkpt>
      <trkpt lat="45.65181" lon="4.66778">
        <ele>504</ele>
        <time>2018-10-14T09:47:16Z</time>
      </trkpt>
      <trkpt lat="45.65182" lon="4.6678">
        <ele>505</ele>
        <time>2018-10-14T09:47:17Z</time>
      </trkpt>
      <trkpt lat="45.65183" lon="4.66783">
        <ele>505</ele>
        <time>2018-10-14T09:47:18Z</time>
      </trkpt>
      <trkpt lat="45.65185" lon="4.66784">
        <ele>505</ele>
        <time>2018-10-14T09:47:19Z</time>
      </trkpt>
      <trkpt lat="45.65187" lon="4.66786">
        <ele>505</ele>
        <time>2018-10-14T09:47:20Z</time>
      </trkpt>
      <trkpt lat="45.65189" lon="4.66788">
        <ele>506</ele>
        <time>2018-10-14T09:47:21Z</time>
      </trkpt>
      <trkpt lat="45.6519" lon="4.66791">
        <ele>506</ele>
        <time>2018-10-14T09:47:22Z</time>
      </trkpt>
      <trkpt lat="45.65191" lon="4.66793">
        <ele>506</ele>
        <time>2018-10-14T09:47:23Z</time>
      </trkpt>
      <trkpt lat="45.65192" lon="4.66794">
        <ele>505</ele>
        <time>2018-10-14T09:47:24Z</time>
      </trkpt>
      <trkpt lat="45.65194" lon="4.66795">
        <ele>505</ele>
        <time>2018-10-14T09:47:25Z</time>
      </trkpt>
      <trkpt lat="45.65195" lon="4.66797">
        <ele>505</ele>
        <time>2018-10-14T09:47:26Z</time>
      </trkpt>
      <trkpt lat="45.65197" lon="4.66798">
        <ele>505</ele>
        <time>2018-10-14T09:47:27Z</time>
      </trkpt>
      <trkpt lat="45.65198" lon="4.66799">
        <ele>505</ele>
        <time>2018-10-14T09:47:28Z</time>
      </trkpt>
      <trkpt lat="45.652" lon="4.668">
        <ele>505</ele>
        <time>2018-10-14T09:47:29Z</time>
      </trkpt>
      <trkpt lat="45.65201" lon="4.66802">
        <ele>506</ele>
        <time>2018-10-14T09:47:30Z</time>
      </trkpt>
      <trkpt lat="45.65202" lon="4.66804">
        <ele>506</ele>
        <time>2018-10-14T09:47:31Z</time>
      </trkpt>
      <trkpt lat="45.65202" lon="4.66806">
        <ele>506</ele>
        <time>2018-10-14T09:47:32Z</time>
      </trkpt>
      <trkpt lat="45.65203" lon="4.66809">
        <ele>506</ele>
        <time>2018-10-14T09:47:33Z</time>
      </trkpt>
      <trkpt lat="45.65202" lon="4.66811">
        <ele>506</ele>
        <time>2018-10-14T09:47:34Z</time>
      </trkpt>
      <trkpt lat="45.65201" lon="4.66814">
        <ele>506</ele>
        <time>2018-10-14T09:47:35Z</time>
      </trkpt>
      <trkpt lat="45.652" lon="4.66816">
        <ele>506</ele>
        <time>2018-10-14T09:47:36Z</time>
      </trkpt>
      <trkpt lat="45.65199" lon="4.66819">
        <ele>506</ele>
        <time>2018-10-14T09:47:37Z</time>
      </trkpt>
      <trkpt lat="45.65198" lon="4.66822">
        <ele>506</ele>
        <time>2018-10-14T09:47:38Z</time>
      </trkpt>
      <trkpt lat="45.65197" lon="4.66825">
        <ele>506</ele>
        <time>2018-10-14T09:47:39Z</time>
      </trkpt>
      <trkpt lat="45.65196" lon="4.66827">
        <ele>506</ele>
        <time>2018-10-14T09:47:40Z</time>
      </trkpt>
      <trkpt lat="45.65196" lon="4.6683">
        <ele>507</ele>
        <time>2018-10-14T09:47:41Z</time>
      </trkpt>
      <trkpt lat="45.65196" lon="4.66832">
        <ele>507</ele>
        <time>2018-10-14T09:47:42Z</time>
      </trkpt>
      <trkpt lat="45.65196" lon="4.66835">
        <ele>507</ele>
        <time>2018-10-14T09:47:43Z</time>
      </trkpt>
      <trkpt lat="45.65197" lon="4.66838">
        <ele>508</ele>
        <time>2018-10-14T09:47:44Z</time>
      </trkpt>
      <trkpt lat="45.65197" lon="4.6684">
        <ele>508</ele>
        <time>2018-10-14T09:47:45Z</time>
      </trkpt>
      <trkpt lat="45.65198" lon="4.66841">
        <ele>507</ele>
        <time>2018-10-14T09:47:46Z</time>
      </trkpt>
      <trkpt lat="45.65199" lon="4.66843">
        <ele>508</ele>
        <time>2018-10-14T09:47:47Z</time>
      </trkpt>
      <trkpt lat="45.652" lon="4.66845">
        <ele>508</ele>
        <time>2018-10-14T09:47:48Z</time>
      </trkpt>
      <trkpt lat="45.652" lon="4.66846">
        <ele>509</ele>
        <time>2018-10-14T09:47:49Z</time>
      </trkpt>
      <trkpt lat="45.65201" lon="4.66849">
        <ele>509</ele>
        <time>2018-10-14T09:47:50Z</time>
      </trkpt>
      <trkpt lat="45.65201" lon="4.66851">
        <ele>509</ele>
        <time>2018-10-14T09:47:51Z</time>
      </trkpt>
      <trkpt lat="45.65202" lon="4.66853">
        <ele>510</ele>
        <time>2018-10-14T09:47:52Z</time>
      </trkpt>
      <trkpt lat="45.65201" lon="4.66856">
        <ele>510</ele>
        <time>2018-10-14T09:47:53Z</time>
      </trkpt>
      <trkpt lat="45.65201" lon="4.66858">
        <ele>511</ele>
        <time>2018-10-14T09:47:54Z</time>
      </trkpt>
      <trkpt lat="45.65201" lon="4.66859">
        <ele>510</ele>
        <time>2018-10-14T09:47:55Z</time>
      </trkpt>
      <trkpt lat="45.652" lon="4.66862">
        <ele>510</ele>
        <time>2018-10-14T09:47:56Z</time>
      </trkpt>
      <trkpt lat="45.652" lon="4.66864">
        <ele>509</ele>
        <time>2018-10-14T09:47:57Z</time>
      </trkpt>
      <trkpt lat="45.652" lon="4.66866">
        <ele>509</ele>
        <time>2018-10-14T09:47:58Z</time>
      </trkpt>
      <trkpt lat="45.65199" lon="4.66868">
        <ele>508</ele>
        <time>2018-10-14T09:47:59Z</time>
      </trkpt>
      <trkpt lat="45.65199" lon="4.6687">
        <ele>508</ele>
        <time>2018-10-14T09:48:00Z</time>
      </trkpt>
      <trkpt lat="45.65198" lon="4.66872">
        <ele>509</ele>
        <time>2018-10-14T09:48:01Z</time>
      </trkpt>
      <trkpt lat="45.65197" lon="4.66874">
        <ele>509</ele>
        <time>2018-10-14T09:48:02Z</time>
      </trkpt>
      <trkpt lat="45.65196" lon="4.66875">
        <ele>508</ele>
        <time>2018-10-14T09:48:03Z</time>
      </trkpt>
      <trkpt lat="45.65196" lon="4.66877">
        <ele>509</ele>
        <time>2018-10-14T09:48:04Z</time>
      </trkpt>
      <trkpt lat="45.65195" lon="4.66879">
        <ele>509</ele>
        <time>2018-10-14T09:48:05Z</time>
      </trkpt>
      <trkpt lat="45.65195" lon="4.6688">
        <ele>509</ele>
        <time>2018-10-14T09:48:06Z</time>
      </trkpt>
      <trkpt lat="45.65194" lon="4.66882">
        <ele>509</ele>
        <time>2018-10-14T09:48:07Z</time>
      </trkpt>
      <trkpt lat="45.65194" lon="4.66884">
        <ele>509</ele>
        <time>2018-10-14T09:48:08Z</time>
      </trkpt>
      <trkpt lat="45.65194" lon="4.66887">
        <ele>510</ele>
        <time>2018-10-14T09:48:10Z</time>
      </trkpt>
      <trkpt lat="45.65194" lon="4.66888">
        <ele>511</ele>
        <time>2018-10-14T09:48:11Z</time>
      </trkpt>
      <trkpt lat="45.65193" lon="4.6689">
        <ele>511</ele>
        <time>2018-10-14T09:48:12Z</time>
      </trkpt>
      <trkpt lat="45.65192" lon="4.66892">
        <ele>511</ele>
        <time>2018-10-14T09:48:13Z</time>
      </trkpt>
      <trkpt lat="45.65192" lon="4.66895">
        <ele>512</ele>
        <time>2018-10-14T09:48:14Z</time>
      </trkpt>
      <trkpt lat="45.65192" lon="4.66897">
        <ele>513</ele>
        <time>2018-10-14T09:48:15Z</time>
      </trkpt>
      <trkpt lat="45.65191" lon="4.66899">
        <ele>511</ele>
        <time>2018-10-14T09:48:16Z</time>
      </trkpt>
      <trkpt lat="45.65191" lon="4.66901">
        <ele>512</ele>
        <time>2018-10-14T09:48:17Z</time>
      </trkpt>
      <trkpt lat="45.6519" lon="4.66903">
        <ele>512</ele>
        <time>2018-10-14T09:48:18Z</time>
      </trkpt>
      <trkpt lat="45.6519" lon="4.66905">
        <ele>512</ele>
        <time>2018-10-14T09:48:19Z</time>
      </trkpt>
      <trkpt lat="45.65189" lon="4.66906">
        <ele>512</ele>
        <time>2018-10-14T09:48:20Z</time>
      </trkpt>
      <trkpt lat="45.65188" lon="4.66908">
        <ele>513</ele>
        <time>2018-10-14T09:48:21Z</time>
      </trkpt>
      <trkpt lat="45.65187" lon="4.66909">
        <ele>513</ele>
        <time>2018-10-14T09:48:22Z</time>
      </trkpt>
      <trkpt lat="45.65186" lon="4.6691">
        <ele>513</ele>
        <time>2018-10-14T09:48:23Z</time>
      </trkpt>
      <trkpt lat="45.65184" lon="4.66912">
        <ele>513</ele>
        <time>2018-10-14T09:48:24Z</time>
      </trkpt>
      <trkpt lat="45.65183" lon="4.66913">
        <ele>513</ele>
        <time>2018-10-14T09:48:25Z</time>
      </trkpt>
      <trkpt lat="45.65182" lon="4.66915">
        <ele>515</ele>
        <time>2018-10-14T09:48:26Z</time>
      </trkpt>
      <trkpt lat="45.65181" lon="4.66916">
        <ele>515</ele>
        <time>2018-10-14T09:48:27Z</time>
      </trkpt>
      <trkpt lat="45.65181" lon="4.66918">
        <ele>516</ele>
        <time>2018-10-14T09:48:28Z</time>
      </trkpt>
      <trkpt lat="45.6518" lon="4.6692">
        <ele>516</ele>
        <time>2018-10-14T09:48:29Z</time>
      </trkpt>
      <trkpt lat="45.65179" lon="4.66921">
        <ele>516</ele>
        <time>2018-10-14T09:48:30Z</time>
      </trkpt>
      <trkpt lat="45.65178" lon="4.66923">
        <ele>516</ele>
        <time>2018-10-14T09:48:31Z</time>
      </trkpt>
      <trkpt lat="45.65177" lon="4.66924">
        <ele>516</ele>
        <time>2018-10-14T09:48:32Z</time>
      </trkpt>
      <trkpt lat="45.65176" lon="4.66926">
        <ele>516</ele>
        <time>2018-10-14T09:48:33Z</time>
      </trkpt>
      <trkpt lat="45.65175" lon="4.66928">
        <ele>516</ele>
        <time>2018-10-14T09:48:34Z</time>
      </trkpt>
      <trkpt lat="45.65175" lon="4.6693">
        <ele>516</ele>
        <time>2018-10-14T09:48:35Z</time>
      </trkpt>
      <trkpt lat="45.65173" lon="4.66932">
        <ele>515</ele>
        <time>2018-10-14T09:48:36Z</time>
      </trkpt>
      <trkpt lat="45.65172" lon="4.66935">
        <ele>516</ele>
        <time>2018-10-14T09:48:38Z</time>
      </trkpt>
      <trkpt lat="45.65171" lon="4.66937">
        <ele>515</ele>
        <time>2018-10-14T09:48:39Z</time>
      </trkpt>
      <trkpt lat="45.6517" lon="4.66939">
        <ele>515</ele>
        <time>2018-10-14T09:48:40Z</time>
      </trkpt>
      <trkpt lat="45.65168" lon="4.66943">
        <ele>515</ele>
        <time>2018-10-14T09:48:41Z</time>
      </trkpt>
      <trkpt lat="45.65167" lon="4.66946">
        <ele>516</ele>
        <time>2018-10-14T09:48:42Z</time>
      </trkpt>
      <trkpt lat="45.65164" lon="4.66949">
        <ele>517</ele>
        <time>2018-10-14T09:48:43Z</time>
      </trkpt>
      <trkpt lat="45.65162" lon="4.66952">
        <ele>517</ele>
        <time>2018-10-14T09:48:44Z</time>
      </trkpt>
      <trkpt lat="45.65159" lon="4.66954">
        <ele>517</ele>
        <time>2018-10-14T09:48:45Z</time>
      </trkpt>
      <trkpt lat="45.65156" lon="4.66957">
        <ele>517</ele>
        <time>2018-10-14T09:48:46Z</time>
      </trkpt>
      <trkpt lat="45.65153" lon="4.66961">
        <ele>518</ele>
        <time>2018-10-14T09:48:47Z</time>
      </trkpt>
      <trkpt lat="45.65151" lon="4.66964">
        <ele>518</ele>
        <time>2018-10-14T09:48:48Z</time>
      </trkpt>
      <trkpt lat="45.65147" lon="4.6697">
        <ele>522</ele>
        <time>2018-10-14T09:48:49Z</time>
      </trkpt>
      <trkpt lat="45.65144" lon="4.66973">
        <ele>521</ele>
        <time>2018-10-14T09:48:50Z</time>
      </trkpt>
      <trkpt lat="45.65141" lon="4.66977">
        <ele>521</ele>
        <time>2018-10-14T09:48:51Z</time>
      </trkpt>
      <trkpt lat="45.65138" lon="4.66979">
        <ele>521</ele>
        <time>2018-10-14T09:48:52Z</time>
      </trkpt>
      <trkpt lat="45.65135" lon="4.66982">
        <ele>520</ele>
        <time>2018-10-14T09:48:53Z</time>
      </trkpt>
      <trkpt lat="45.65131" lon="4.66984">
        <ele>519</ele>
        <time>2018-10-14T09:48:54Z</time>
      </trkpt>
      <trkpt lat="45.65128" lon="4.66987">
        <ele>519</ele>
        <time>2018-10-14T09:48:55Z</time>
      </trkpt>
      <trkpt lat="45.65126" lon="4.66989">
        <ele>518</ele>
        <time>2018-10-14T09:48:56Z</time>
      </trkpt>
      <trkpt lat="45.65122" lon="4.66991">
        <ele>518</ele>
        <time>2018-10-14T09:48:57Z</time>
      </trkpt>
      <trkpt lat="45.65118" lon="4.66992">
        <ele>517</ele>
        <time>2018-10-14T09:48:58Z</time>
      </trkpt>
      <trkpt lat="45.65114" lon="4.66994">
        <ele>518</ele>
        <time>2018-10-14T09:48:59Z</time>
      </trkpt>
      <trkpt lat="45.6511" lon="4.66995">
        <ele>518</ele>
        <time>2018-10-14T09:49:01Z</time>
      </trkpt>
      <trkpt lat="45.65105" lon="4.66996">
        <ele>518</ele>
        <time>2018-10-14T09:49:02Z</time>
      </trkpt>
      <trkpt lat="45.65097" lon="4.66998">
        <ele>519</ele>
        <time>2018-10-14T09:49:03Z</time>
      </trkpt>
      <trkpt lat="45.65091" lon="4.67">
        <ele>519</ele>
        <time>2018-10-14T09:49:04Z</time>
      </trkpt>
      <trkpt lat="45.65087" lon="4.67001">
        <ele>519</ele>
        <time>2018-10-14T09:49:05Z</time>
      </trkpt>
      <trkpt lat="45.65084" lon="4.67005">
        <ele>519</ele>
        <time>2018-10-14T09:49:06Z</time>
      </trkpt>
      <trkpt lat="45.65081" lon="4.6701">
        <ele>519</ele>
        <time>2018-10-14T09:49:07Z</time>
      </trkpt>
      <trkpt lat="45.65077" lon="4.67013">
        <ele>518</ele>
        <time>2018-10-14T09:49:08Z</time>
      </trkpt>
      <trkpt lat="45.65074" lon="4.67017">
        <ele>519</ele>
        <time>2018-10-14T09:49:09Z</time>
      </trkpt>
      <trkpt lat="45.6507" lon="4.67021">
        <ele>519</ele>
        <time>2018-10-14T09:49:10Z</time>
      </trkpt>
      <trkpt lat="45.65067" lon="4.67026">
        <ele>519</ele>
        <time>2018-10-14T09:49:11Z</time>
      </trkpt>
      <trkpt lat="45.65064" lon="4.6703">
        <ele>519</ele>
        <time>2018-10-14T09:49:12Z</time>
      </trkpt>
      <trkpt lat="45.65063" lon="4.67033">
        <ele>517</ele>
        <time>2018-10-14T09:49:13Z</time>
      </trkpt>
      <trkpt lat="45.65062" lon="4.67035">
        <ele>518</ele>
        <time>2018-10-14T09:49:14Z</time>
      </trkpt>
      <trkpt lat="45.65061" lon="4.67038">
        <ele>518</ele>
        <time>2018-10-14T09:49:15Z</time>
      </trkpt>
      <trkpt lat="45.65059" lon="4.6704">
        <ele>518</ele>
        <time>2018-10-14T09:49:16Z</time>
      </trkpt>
      <trkpt lat="45.65058" lon="4.67042">
        <ele>518</ele>
        <time>2018-10-14T09:49:17Z</time>
      </trkpt>
      <trkpt lat="45.65056" lon="4.67045">
        <ele>518</ele>
        <time>2018-10-14T09:49:18Z</time>
      </trkpt>
      <trkpt lat="45.65053" lon="4.67048">
        <ele>518</ele>
        <time>2018-10-14T09:49:19Z</time>
      </trkpt>
      <trkpt lat="45.65048" lon="4.67054">
        <ele>518</ele>
        <time>2018-10-14T09:49:20Z</time>
      </trkpt>
      <trkpt lat="45.6504" lon="4.67063">
        <ele>519</ele>
        <time>2018-10-14T09:49:21Z</time>
      </trkpt>
      <trkpt lat="45.65038" lon="4.67067">
        <ele>518</ele>
        <time>2018-10-14T09:49:22Z</time>
      </trkpt>
      <trkpt lat="45.65036" lon="4.6707">
        <ele>518</ele>
        <time>2018-10-14T09:49:23Z</time>
      </trkpt>
      <trkpt lat="45.65032" lon="4.67073">
        <ele>519</ele>
        <time>2018-10-14T09:49:24Z</time>
      </trkpt>
      <trkpt lat="45.65028" lon="4.67077">
        <ele>519</ele>
        <time>2018-10-14T09:49:25Z</time>
      </trkpt>
      <trkpt lat="45.65024" lon="4.67082">
        <ele>519</ele>
        <time>2018-10-14T09:49:26Z</time>
      </trkpt>
      <trkpt lat="45.65019" lon="4.67085">
        <ele>520</ele>
        <time>2018-10-14T09:49:27Z</time>
      </trkpt>
      <trkpt lat="45.65013" lon="4.67087">
        <ele>520</ele>
        <time>2018-10-14T09:49:28Z</time>
      </trkpt>
      <trkpt lat="45.65008" lon="4.67092">
        <ele>519</ele>
        <time>2018-10-14T09:49:29Z</time>
      </trkpt>
      <trkpt lat="45.65003" lon="4.67095">
        <ele>517</ele>
        <time>2018-10-14T09:49:30Z</time>
      </trkpt>
      <trkpt lat="45.64998" lon="4.67099">
        <ele>516</ele>
        <time>2018-10-14T09:49:31Z</time>
      </trkpt>
      <trkpt lat="45.64992" lon="4.67105">
        <ele>516</ele>
        <time>2018-10-14T09:49:32Z</time>
      </trkpt>
      <trkpt lat="45.64986" lon="4.67109">
        <ele>515</ele>
        <time>2018-10-14T09:49:33Z</time>
      </trkpt>
      <trkpt lat="45.6498" lon="4.67114">
        <ele>515</ele>
        <time>2018-10-14T09:49:34Z</time>
      </trkpt>
      <trkpt lat="45.64974" lon="4.67118">
        <ele>513</ele>
        <time>2018-10-14T09:49:35Z</time>
      </trkpt>
      <trkpt lat="45.64968" lon="4.67123">
        <ele>513</ele>
        <time>2018-10-14T09:49:36Z</time>
      </trkpt>
      <trkpt lat="45.64961" lon="4.67126">
        <ele>513</ele>
        <time>2018-10-14T09:49:37Z</time>
      </trkpt>
      <trkpt lat="45.64953" lon="4.67129">
        <ele>513</ele>
        <time>2018-10-14T09:49:38Z</time>
      </trkpt>
      <trkpt lat="45.64947" lon="4.67132">
        <ele>514</ele>
        <time>2018-10-14T09:49:39Z</time>
      </trkpt>
      <trkpt lat="45.6494" lon="4.67135">
        <ele>514</ele>
        <time>2018-10-14T09:49:40Z</time>
      </trkpt>
      <trkpt lat="45.64933" lon="4.67137">
        <ele>513</ele>
        <time>2018-10-14T09:49:41Z</time>
      </trkpt>
      <trkpt lat="45.64927" lon="4.6714">
        <ele>513</ele>
        <time>2018-10-14T09:49:42Z</time>
      </trkpt>
      <trkpt lat="45.6492" lon="4.67142">
        <ele>512</ele>
        <time>2018-10-14T09:49:43Z</time>
      </trkpt>
      <trkpt lat="45.64914" lon="4.67146">
        <ele>512</ele>
        <time>2018-10-14T09:49:44Z</time>
      </trkpt>
      <trkpt lat="45.64907" lon="4.67149">
        <ele>512</ele>
        <time>2018-10-14T09:49:45Z</time>
      </trkpt>
      <trkpt lat="45.64901" lon="4.67153">
        <ele>512</ele>
        <time>2018-10-14T09:49:46Z</time>
      </trkpt>
      <trkpt lat="45.64895" lon="4.67156">
        <ele>510</ele>
        <time>2018-10-14T09:49:47Z</time>
      </trkpt>
      <trkpt lat="45.64889" lon="4.67159">
        <ele>510</ele>
        <time>2018-10-14T09:49:48Z</time>
      </trkpt>
      <trkpt lat="45.64883" lon="4.67164">
        <ele>511</ele>
        <time>2018-10-14T09:49:49Z</time>
      </trkpt>
      <trkpt lat="45.6488" lon="4.67172">
        <ele>512</ele>
        <time>2018-10-14T09:49:50Z</time>
      </trkpt>
      <trkpt lat="45.64878" lon="4.67177">
        <ele>513</ele>
        <time>2018-10-14T09:49:51Z</time>
      </trkpt>
      <trkpt lat="45.64877" lon="4.67185">
        <ele>513</ele>
        <time>2018-10-14T09:49:52Z</time>
      </trkpt>
      <trkpt lat="45.64875" lon="4.67192">
        <ele>514</ele>
        <time>2018-10-14T09:49:53Z</time>
      </trkpt>
      <trkpt lat="45.64873" lon="4.672">
        <ele>514</ele>
        <time>2018-10-14T09:49:54Z</time>
      </trkpt>
      <trkpt lat="45.64871" lon="4.67208">
        <ele>514</ele>
        <time>2018-10-14T09:49:55Z</time>
      </trkpt>
      <trkpt lat="45.64868" lon="4.67214">
        <ele>515</ele>
        <time>2018-10-14T09:49:56Z</time>
      </trkpt>
      <trkpt lat="45.64866" lon="4.6722">
        <ele>516</ele>
        <time>2018-10-14T09:49:57Z</time>
      </trkpt>
      <trkpt lat="45.64864" lon="4.67225">
        <ele>515</ele>
        <time>2018-10-14T09:49:58Z</time>
      </trkpt>
      <trkpt lat="45.64863" lon="4.6723">
        <ele>515</ele>
        <time>2018-10-14T09:49:59Z</time>
      </trkpt>
      <trkpt lat="45.64862" lon="4.67236">
        <ele>516</ele>
        <time>2018-10-14T09:50:00Z</time>
      </trkpt>
      <trkpt lat="45.6486" lon="4.67241">
        <ele>517</ele>
        <time>2018-10-14T09:50:01Z</time>
      </trkpt>
      <trkpt lat="45.64858" lon="4.67247">
        <ele>517</ele>
        <time>2018-10-14T09:50:02Z</time>
      </trkpt>
      <trkpt lat="45.64857" lon="4.67252">
        <ele>517</ele>
        <time>2018-10-14T09:50:03Z</time>
      </trkpt>
      <trkpt lat="45.64855" lon="4.67256">
        <ele>517</ele>
        <time>2018-10-14T09:50:04Z</time>
      </trkpt>
      <trkpt lat="45.64853" lon="4.67261">
        <ele>517</ele>
        <time>2018-10-14T09:50:05Z</time>
      </trkpt>
      <trkpt lat="45.64851" lon="4.67266">
        <ele>517</ele>
        <time>2018-10-14T09:50:06Z</time>
      </trkpt>
      <trkpt lat="45.6485" lon="4.67271">
        <ele>518</ele>
        <time>2018-10-14T09:50:08Z</time>
      </trkpt>
      <trkpt lat="45.64847" lon="4.67278">
        <ele>519</ele>
        <time>2018-10-14T09:50:09Z</time>
      </trkpt>
      <trkpt lat="45.64845" lon="4.67283">
        <ele>521</ele>
        <time>2018-10-14T09:50:10Z</time>
      </trkpt>
      <trkpt lat="45.64844" lon="4.67288">
        <ele>520</ele>
        <time>2018-10-14T09:50:11Z</time>
      </trkpt>
      <trkpt lat="45.64841" lon="4.67293">
        <ele>521</ele>
        <time>2018-10-14T09:50:12Z</time>
      </trkpt>
      <trkpt lat="45.6484" lon="4.67299">
        <ele>522</ele>
        <time>2018-10-14T09:50:13Z</time>
      </trkpt>
      <trkpt lat="45.64838" lon="4.67303">
        <ele>522</ele>
        <time>2018-10-14T09:50:14Z</time>
      </trkpt>
      <trkpt lat="45.64835" lon="4.67307">
        <ele>521</ele>
        <time>2018-10-14T09:50:15Z</time>
      </trkpt>
      <trkpt lat="45.64834" lon="4.67312">
        <ele>522</ele>
        <time>2018-10-14T09:50:16Z</time>
      </trkpt>
      <trkpt lat="45.64831" lon="4.67316">
        <ele>523</ele>
        <time>2018-10-14T09:50:17Z</time>
      </trkpt>
      <trkpt lat="45.64829" lon="4.6732">
        <ele>523</ele>
        <time>2018-10-14T09:50:18Z</time>
      </trkpt>
      <trkpt lat="45.64828" lon="4.67322">
        <ele>521</ele>
        <time>2018-10-14T09:50:19Z</time>
      </trkpt>
      <trkpt lat="45.64827" lon="4.67324">
        <ele>522</ele>
        <time>2018-10-14T09:50:20Z</time>
      </trkpt>
      <trkpt lat="45.64826" lon="4.67326">
        <ele>522</ele>
        <time>2018-10-14T09:50:21Z</time>
      </trkpt>
      <trkpt lat="45.64825" lon="4.67329">
        <ele>522</ele>
        <time>2018-10-14T09:50:22Z</time>
      </trkpt>
      <trkpt lat="45.64827" lon="4.67345">
        <ele>519</ele>
        <time>2018-10-14T09:50:24Z</time>
      </trkpt>
      <trkpt lat="45.64828" lon="4.67351">
        <ele>518</ele>
        <time>2018-10-14T09:50:25Z</time>
      </trkpt>
      <trkpt lat="45.64829" lon="4.67358">
        <ele>517</ele>
        <time>2018-10-14T09:50:26Z</time>
      </trkpt>
      <trkpt lat="45.64831" lon="4.67364">
        <ele>517</ele>
        <time>2018-10-14T09:50:27Z</time>
      </trkpt>
      <trkpt lat="45.64832" lon="4.67372">
        <ele>518</ele>
        <time>2018-10-14T09:50:28Z</time>
      </trkpt>
      <trkpt lat="45.64835" lon="4.67379">
        <ele>518</ele>
        <time>2018-10-14T09:50:29Z</time>
      </trkpt>
      <trkpt lat="45.64837" lon="4.67387">
        <ele>518</ele>
        <time>2018-10-14T09:50:30Z</time>
      </trkpt>
      <trkpt lat="45.6484" lon="4.67395">
        <ele>519</ele>
        <time>2018-10-14T09:50:31Z</time>
      </trkpt>
      <trkpt lat="45.64842" lon="4.67402">
        <ele>518</ele>
        <time>2018-10-14T09:50:32Z</time>
      </trkpt>
      <trkpt lat="45.64844" lon="4.67408">
        <ele>518</ele>
        <time>2018-10-14T09:50:33Z</time>
      </trkpt>
      <trkpt lat="45.64847" lon="4.67414">
        <ele>518</ele>
        <time>2018-10-14T09:50:34Z</time>
      </trkpt>
      <trkpt lat="45.6485" lon="4.67419">
        <ele>518</ele>
        <time>2018-10-14T09:50:35Z</time>
      </trkpt>
      <trkpt lat="45.64854" lon="4.67424">
        <ele>517</ele>
        <time>2018-10-14T09:50:36Z</time>
      </trkpt>
      <trkpt lat="45.6486" lon="4.67427">
        <ele>517</ele>
        <time>2018-10-14T09:50:37Z</time>
      </trkpt>
      <trkpt lat="45.64864" lon="4.67429">
        <ele>517</ele>
        <time>2018-10-14T09:50:38Z</time>
      </trkpt>
      <trkpt lat="45.6487" lon="4.67431">
        <ele>517</ele>
        <time>2018-10-14T09:50:39Z</time>
      </trkpt>
      <trkpt lat="45.64875" lon="4.67434">
        <ele>517</ele>
        <time>2018-10-14T09:50:40Z</time>
      </trkpt>
      <trkpt lat="45.64881" lon="4.67435">
        <ele>517</ele>
        <time>2018-10-14T09:50:41Z</time>
      </trkpt>
      <trkpt lat="45.64888" lon="4.67436">
        <ele>516</ele>
        <time>2018-10-14T09:50:42Z</time>
      </trkpt>
      <trkpt lat="45.64895" lon="4.67437">
        <ele>515</ele>
        <time>2018-10-14T09:50:43Z</time>
      </trkpt>
      <trkpt lat="45.64902" lon="4.67439">
        <ele>516</ele>
        <time>2018-10-14T09:50:44Z</time>
      </trkpt>
      <trkpt lat="45.64908" lon="4.6744">
        <ele>515</ele>
        <time>2018-10-14T09:50:45Z</time>
      </trkpt>
      <trkpt lat="45.64915" lon="4.6744">
        <ele>515</ele>
        <time>2018-10-14T09:50:46Z</time>
      </trkpt>
      <trkpt lat="45.64922" lon="4.67442">
        <ele>514</ele>
        <time>2018-10-14T09:50:47Z</time>
      </trkpt>
      <trkpt lat="45.64929" lon="4.67445">
        <ele>514</ele>
        <time>2018-10-14T09:50:48Z</time>
      </trkpt>
      <trkpt lat="45.64936" lon="4.6745">
        <ele>514</ele>
        <time>2018-10-14T09:50:49Z</time>
      </trkpt>
      <trkpt lat="45.64944" lon="4.67456">
        <ele>514</ele>
        <time>2018-10-14T09:50:50Z</time>
      </trkpt>
      <trkpt lat="45.64949" lon="4.67463">
        <ele>513</ele>
        <time>2018-10-14T09:50:51Z</time>
      </trkpt>
      <trkpt lat="45.64956" lon="4.67469">
        <ele>513</ele>
        <time>2018-10-14T09:50:52Z</time>
      </trkpt>
      <trkpt lat="45.64962" lon="4.67477">
        <ele>512</ele>
        <time>2018-10-14T09:50:53Z</time>
      </trkpt>
      <trkpt lat="45.64969" lon="4.67484">
        <ele>511</ele>
        <time>2018-10-14T09:50:54Z</time>
      </trkpt>
      <trkpt lat="45.64975" lon="4.67492">
        <ele>510</ele>
        <time>2018-10-14T09:50:55Z</time>
      </trkpt>
      <trkpt lat="45.64983" lon="4.675">
        <ele>508</ele>
        <time>2018-10-14T09:50:56Z</time>
      </trkpt>
      <trkpt lat="45.64991" lon="4.67511">
        <ele>508</ele>
        <time>2018-10-14T09:50:57Z</time>
      </trkpt>
      <trkpt lat="45.64998" lon="4.67522">
        <ele>507</ele>
        <time>2018-10-14T09:50:58Z</time>
      </trkpt>
      <trkpt lat="45.65006" lon="4.67532">
        <ele>507</ele>
        <time>2018-10-14T09:50:59Z</time>
      </trkpt>
      <trkpt lat="45.65014" lon="4.67541">
        <ele>505</ele>
        <time>2018-10-14T09:51:00Z</time>
      </trkpt>
      <trkpt lat="45.6502" lon="4.6755">
        <ele>504</ele>
        <time>2018-10-14T09:51:01Z</time>
      </trkpt>
      <trkpt lat="45.65026" lon="4.67559">
        <ele>504</ele>
        <time>2018-10-14T09:51:02Z</time>
      </trkpt>
      <trkpt lat="45.65033" lon="4.67566">
        <ele>503</ele>
        <time>2018-10-14T09:51:03Z</time>
      </trkpt>
      <trkpt lat="45.65041" lon="4.67575">
        <ele>501</ele>
        <time>2018-10-14T09:51:04Z</time>
      </trkpt>
      <trkpt lat="45.6505" lon="4.67583">
        <ele>499</ele>
        <time>2018-10-14T09:51:05Z</time>
      </trkpt>
      <trkpt lat="45.6506" lon="4.67592">
        <ele>497</ele>
        <time>2018-10-14T09:51:06Z</time>
      </trkpt>
      <trkpt lat="45.65072" lon="4.67601">
        <ele>496</ele>
        <time>2018-10-14T09:51:07Z</time>
      </trkpt>
      <trkpt lat="45.65083" lon="4.6761">
        <ele>494</ele>
        <time>2018-10-14T09:51:08Z</time>
      </trkpt>
      <trkpt lat="45.65096" lon="4.67619">
        <ele>493</ele>
        <time>2018-10-14T09:51:09Z</time>
      </trkpt>
      <trkpt lat="45.65109" lon="4.67627">
        <ele>491</ele>
        <time>2018-10-14T09:51:10Z</time>
      </trkpt>
      <trkpt lat="45.65121" lon="4.67636">
        <ele>489</ele>
        <time>2018-10-14T09:51:11Z</time>
      </trkpt>
      <trkpt lat="45.65135" lon="4.67646">
        <ele>487</ele>
        <time>2018-10-14T09:51:12Z</time>
      </trkpt>
      <trkpt lat="45.65149" lon="4.67656">
        <ele>485</ele>
        <time>2018-10-14T09:51:13Z</time>
      </trkpt>
      <trkpt lat="45.65162" lon="4.67664">
        <ele>483</ele>
        <time>2018-10-14T09:51:14Z</time>
      </trkpt>
      <trkpt lat="45.65174" lon="4.67672">
        <ele>482</ele>
        <time>2018-10-14T09:51:15Z</time>
      </trkpt>
      <trkpt lat="45.65187" lon="4.67678">
        <ele>480</ele>
        <time>2018-10-14T09:51:16Z</time>
      </trkpt>
      <trkpt lat="45.65199" lon="4.67685">
        <ele>479</ele>
        <time>2018-10-14T09:51:17Z</time>
      </trkpt>
      <trkpt lat="45.65211" lon="4.67691">
        <ele>478</ele>
        <time>2018-10-14T09:51:18Z</time>
      </trkpt>
      <trkpt lat="45.65223" lon="4.67697">
        <ele>477</ele>
        <time>2018-10-14T09:51:19Z</time>
      </trkpt>
      <trkpt lat="45.65235" lon="4.67702">
        <ele>476</ele>
        <time>2018-10-14T09:51:20Z</time>
      </trkpt>
      <trkpt lat="45.65247" lon="4.67706">
        <ele>476</ele>
        <time>2018-10-14T09:51:21Z</time>
      </trkpt>
      <trkpt lat="45.65256" lon="4.67711">
        <ele>477</ele>
        <time>2018-10-14T09:51:22Z</time>
      </trkpt>
      <trkpt lat="45.65265" lon="4.67714">
        <ele>475</ele>
        <time>2018-10-14T09:51:23Z</time>
      </trkpt>
      <trkpt lat="45.65273" lon="4.6772">
        <ele>474</ele>
        <time>2018-10-14T09:51:24Z</time>
      </trkpt>
      <trkpt lat="45.6528" lon="4.67727">
        <ele>474</ele>
        <time>2018-10-14T09:51:25Z</time>
      </trkpt>
      <trkpt lat="45.65287" lon="4.67735">
        <ele>473</ele>
        <time>2018-10-14T09:51:26Z</time>
      </trkpt>
      <trkpt lat="45.65294" lon="4.67743">
        <ele>473</ele>
        <time>2018-10-14T09:51:27Z</time>
      </trkpt>
      <trkpt lat="45.653" lon="4.6775">
        <ele>472</ele>
        <time>2018-10-14T09:51:28Z</time>
      </trkpt>
      <trkpt lat="45.65308" lon="4.67757">
        <ele>472</ele>
        <time>2018-10-14T09:51:29Z</time>
      </trkpt>
      <trkpt lat="45.65315" lon="4.67765">
        <ele>472</ele>
        <time>2018-10-14T09:51:30Z</time>
      </trkpt>
      <trkpt lat="45.65321" lon="4.67772">
        <ele>471</ele>
        <time>2018-10-14T09:51:31Z</time>
      </trkpt>
      <trkpt lat="45.65327" lon="4.67779">
        <ele>470</ele>
        <time>2018-10-14T09:51:32Z</time>
      </trkpt>
      <trkpt lat="45.65332" lon="4.67786">
        <ele>470</ele>
        <time>2018-10-14T09:51:33Z</time>
      </trkpt>
      <trkpt lat="45.65336" lon="4.67791">
        <ele>469</ele>
        <time>2018-10-14T09:51:34Z</time>
      </trkpt>
      <trkpt lat="45.65341" lon="4.67793">
        <ele>469</ele>
        <time>2018-10-14T09:51:35Z</time>
      </trkpt>
      <trkpt lat="45.65346" lon="4.6779">
        <ele>468</ele>
        <time>2018-10-14T09:51:36Z</time>
      </trkpt>
      <trkpt lat="45.65348" lon="4.67787">
        <ele>469</ele>
        <time>2018-10-14T09:51:37Z</time>
      </trkpt>
      <trkpt lat="45.6535" lon="4.67783">
        <ele>470</ele>
        <time>2018-10-14T09:51:38Z</time>
      </trkpt>
      <trkpt lat="45.65353" lon="4.67778">
        <ele>470</ele>
        <time>2018-10-14T09:51:39Z</time>
      </trkpt>
      <trkpt lat="45.65358" lon="4.67775">
        <ele>470</ele>
        <time>2018-10-14T09:51:40Z</time>
      </trkpt>
      <trkpt lat="45.65361" lon="4.67771">
        <ele>470</ele>
        <time>2018-10-14T09:51:41Z</time>
      </trkpt>
      <trkpt lat="45.65365" lon="4.67766">
        <ele>470</ele>
        <time>2018-10-14T09:51:42Z</time>
      </trkpt>
      <trkpt lat="45.65368" lon="4.67762">
        <ele>470</ele>
        <time>2018-10-14T09:51:43Z</time>
      </trkpt>
      <trkpt lat="45.65373" lon="4.67757">
        <ele>470</ele>
        <time>2018-10-14T09:51:44Z</time>
      </trkpt>
      <trkpt lat="45.65377" lon="4.67752">
        <ele>470</ele>
        <time>2018-10-14T09:51:45Z</time>
      </trkpt>
      <trkpt lat="45.6538" lon="4.67748">
        <ele>470</ele>
        <time>2018-10-14T09:51:46Z</time>
      </trkpt>
      <trkpt lat="45.65382" lon="4.67746">
        <ele>470</ele>
        <time>2018-10-14T09:51:47Z</time>
      </trkpt>
      <trkpt lat="45.65384" lon="4.67743">
        <ele>469</ele>
        <time>2018-10-14T09:51:48Z</time>
      </trkpt>
      <trkpt lat="45.65387" lon="4.67739">
        <ele>469</ele>
        <time>2018-10-14T09:51:49Z</time>
      </trkpt>
      <trkpt lat="45.65392" lon="4.67737">
        <ele>470</ele>
        <time>2018-10-14T09:51:50Z</time>
      </trkpt>
      <trkpt lat="45.65398" lon="4.67733">
        <ele>469</ele>
        <time>2018-10-14T09:51:51Z</time>
      </trkpt>
      <trkpt lat="45.65404" lon="4.6773">
        <ele>469</ele>
        <time>2018-10-14T09:51:52Z</time>
      </trkpt>
      <trkpt lat="45.65409" lon="4.67723">
        <ele>468</ele>
        <time>2018-10-14T09:51:53Z</time>
      </trkpt>
      <trkpt lat="45.65414" lon="4.67718">
        <ele>467</ele>
        <time>2018-10-14T09:51:54Z</time>
      </trkpt>
      <trkpt lat="45.65421" lon="4.67714">
        <ele>467</ele>
        <time>2018-10-14T09:51:55Z</time>
      </trkpt>
      <trkpt lat="45.65427" lon="4.67711">
        <ele>466</ele>
        <time>2018-10-14T09:51:56Z</time>
      </trkpt>
      <trkpt lat="45.65435" lon="4.67707">
        <ele>466</ele>
        <time>2018-10-14T09:51:57Z</time>
      </trkpt>
      <trkpt lat="45.65444" lon="4.67703">
        <ele>465</ele>
        <time>2018-10-14T09:51:58Z</time>
      </trkpt>
      <trkpt lat="45.65453" lon="4.67701">
        <ele>464</ele>
        <time>2018-10-14T09:51:59Z</time>
      </trkpt>
      <trkpt lat="45.65461" lon="4.67696">
        <ele>464</ele>
        <time>2018-10-14T09:52:00Z</time>
      </trkpt>
      <trkpt lat="45.65464" lon="4.6769">
        <ele>462</ele>
        <time>2018-10-14T09:52:01Z</time>
      </trkpt>
      <trkpt lat="45.6547" lon="4.67685">
        <ele>462</ele>
        <time>2018-10-14T09:52:02Z</time>
      </trkpt>
      <trkpt lat="45.6548" lon="4.67681">
        <ele>459</ele>
        <time>2018-10-14T09:52:03Z</time>
      </trkpt>
      <trkpt lat="45.65488" lon="4.67678">
        <ele>459</ele>
        <time>2018-10-14T09:52:04Z</time>
      </trkpt>
      <trkpt lat="45.65496" lon="4.67676">
        <ele>460</ele>
        <time>2018-10-14T09:52:05Z</time>
      </trkpt>
      <trkpt lat="45.65506" lon="4.67672">
        <ele>461</ele>
        <time>2018-10-14T09:52:06Z</time>
      </trkpt>
      <trkpt lat="45.65514" lon="4.67671">
        <ele>461</ele>
        <time>2018-10-14T09:52:07Z</time>
      </trkpt>
      <trkpt lat="45.65522" lon="4.6767">
        <ele>459</ele>
        <time>2018-10-14T09:52:08Z</time>
      </trkpt>
      <trkpt lat="45.65529" lon="4.67668">
        <ele>458</ele>
        <time>2018-10-14T09:52:09Z</time>
      </trkpt>
      <trkpt lat="45.65538" lon="4.67666">
        <ele>456</ele>
        <time>2018-10-14T09:52:10Z</time>
      </trkpt>
      <trkpt lat="45.65547" lon="4.67665">
        <ele>455</ele>
        <time>2018-10-14T09:52:11Z</time>
      </trkpt>
      <trkpt lat="45.65555" lon="4.67663">
        <ele>455</ele>
        <time>2018-10-14T09:52:12Z</time>
      </trkpt>
      <trkpt lat="45.65561" lon="4.67661">
        <ele>456</ele>
        <time>2018-10-14T09:52:13Z</time>
      </trkpt>
      <trkpt lat="45.65569" lon="4.67659">
        <ele>457</ele>
        <time>2018-10-14T09:52:14Z</time>
      </trkpt>
      <trkpt lat="45.65577" lon="4.67653">
        <ele>454</ele>
        <time>2018-10-14T09:52:15Z</time>
      </trkpt>
      <trkpt lat="45.65587" lon="4.67651">
        <ele>454</ele>
        <time>2018-10-14T09:52:16Z</time>
      </trkpt>
      <trkpt lat="45.65594" lon="4.67648">
        <ele>454</ele>
        <time>2018-10-14T09:52:17Z</time>
      </trkpt>
      <trkpt lat="45.65603" lon="4.67646">
        <ele>453</ele>
        <time>2018-10-14T09:52:18Z</time>
      </trkpt>
      <trkpt lat="45.65612" lon="4.67645">
        <ele>453</ele>
        <time>2018-10-14T09:52:19Z</time>
      </trkpt>
      <trkpt lat="45.6562" lon="4.67643">
        <ele>453</ele>
        <time>2018-10-14T09:52:20Z</time>
      </trkpt>
      <trkpt lat="45.6563" lon="4.67642">
        <ele>450</ele>
        <time>2018-10-14T09:52:21Z</time>
      </trkpt>
      <trkpt lat="45.65635" lon="4.67639">
        <ele>448</ele>
        <time>2018-10-14T09:52:22Z</time>
      </trkpt>
      <trkpt lat="45.65643" lon="4.67634">
        <ele>448</ele>
        <time>2018-10-14T09:52:23Z</time>
      </trkpt>
      <trkpt lat="45.65653" lon="4.67632">
        <ele>448</ele>
        <time>2018-10-14T09:52:24Z</time>
      </trkpt>
      <trkpt lat="45.65661" lon="4.6763">
        <ele>447</ele>
        <time>2018-10-14T09:52:25Z</time>
      </trkpt>
      <trkpt lat="45.65669" lon="4.67626">
        <ele>447</ele>
        <time>2018-10-14T09:52:26Z</time>
      </trkpt>
      <trkpt lat="45.6568" lon="4.67623">
        <ele>445</ele>
        <time>2018-10-14T09:52:27Z</time>
      </trkpt>
      <trkpt lat="45.65691" lon="4.67622">
        <ele>446</ele>
        <time>2018-10-14T09:52:28Z</time>
      </trkpt>
      <trkpt lat="45.65699" lon="4.67623">
        <ele>445</ele>
        <time>2018-10-14T09:52:29Z</time>
      </trkpt>
      <trkpt lat="45.6571" lon="4.67625">
        <ele>445</ele>
        <time>2018-10-14T09:52:30Z</time>
      </trkpt>
      <trkpt lat="45.65718" lon="4.67624">
        <ele>446</ele>
        <time>2018-10-14T09:52:31Z</time>
      </trkpt>
      <trkpt lat="45.65724" lon="4.67622">
        <ele>446</ele>
        <time>2018-10-14T09:52:32Z</time>
      </trkpt>
      <trkpt lat="45.65727" lon="4.67625">
        <ele>447</ele>
        <time>2018-10-14T09:52:33Z</time>
      </trkpt>
      <trkpt lat="45.65732" lon="4.67624">
        <ele>446</ele>
        <time>2018-10-14T09:52:34Z</time>
      </trkpt>
      <trkpt lat="45.65738" lon="4.67625">
        <ele>446</ele>
        <time>2018-10-14T09:52:35Z</time>
      </trkpt>
      <trkpt lat="45.65741" lon="4.67621">
        <ele>447</ele>
        <time>2018-10-14T09:52:36Z</time>
      </trkpt>
      <trkpt lat="45.65746" lon="4.67619">
        <ele>447</ele>
        <time>2018-10-14T09:52:37Z</time>
      </trkpt>
      <trkpt lat="45.6575" lon="4.67614">
        <ele>447</ele>
        <time>2018-10-14T09:52:38Z</time>
      </trkpt>
      <trkpt lat="45.65756" lon="4.6761">
        <ele>448</ele>
        <time>2018-10-14T09:52:39Z</time>
      </trkpt>
      <trkpt lat="45.65759" lon="4.67607">
        <ele>449</ele>
        <time>2018-10-14T09:52:40Z</time>
      </trkpt>
      <trkpt lat="45.65762" lon="4.67613">
        <ele>448</ele>
        <time>2018-10-14T09:52:41Z</time>
      </trkpt>
      <trkpt lat="45.65764" lon="4.67623">
        <ele>448</ele>
        <time>2018-10-14T09:52:42Z</time>
      </trkpt>
      <trkpt lat="45.65766" lon="4.6763">
        <ele>448</ele>
        <time>2018-10-14T09:52:43Z</time>
      </trkpt>
      <trkpt lat="45.65767" lon="4.67637">
        <ele>448</ele>
        <time>2018-10-14T09:52:44Z</time>
      </trkpt>
      <trkpt lat="45.65769" lon="4.67645">
        <ele>447</ele>
        <time>2018-10-14T09:52:45Z</time>
      </trkpt>
      <trkpt lat="45.6577" lon="4.67651">
        <ele>445</ele>
        <time>2018-10-14T09:52:46Z</time>
      </trkpt>
      <trkpt lat="45.65775" lon="4.67655">
        <ele>446</ele>
        <time>2018-10-14T09:52:47Z</time>
      </trkpt>
      <trkpt lat="45.6578" lon="4.67662">
        <ele>443</ele>
        <time>2018-10-14T09:52:48Z</time>
      </trkpt>
      <trkpt lat="45.65783" lon="4.67668">
        <ele>441</ele>
        <time>2018-10-14T09:52:49Z</time>
      </trkpt>
      <trkpt lat="45.65788" lon="4.67674">
        <ele>440</ele>
        <time>2018-10-14T09:52:50Z</time>
      </trkpt>
      <trkpt lat="45.65792" lon="4.67678">
        <ele>439</ele>
        <time>2018-10-14T09:52:51Z</time>
      </trkpt>
      <trkpt lat="45.65793" lon="4.67684">
        <ele>439</ele>
        <time>2018-10-14T09:52:52Z</time>
      </trkpt>
      <trkpt lat="45.65796" lon="4.67691">
        <ele>437</ele>
        <time>2018-10-14T09:52:53Z</time>
      </trkpt>
      <trkpt lat="45.65798" lon="4.67698">
        <ele>439</ele>
        <time>2018-10-14T09:52:54Z</time>
      </trkpt>
      <trkpt lat="45.65801" lon="4.67707">
        <ele>438</ele>
        <time>2018-10-14T09:52:55Z</time>
      </trkpt>
      <trkpt lat="45.65802" lon="4.67716">
        <ele>438</ele>
        <time>2018-10-14T09:52:56Z</time>
      </trkpt>
      <trkpt lat="45.65804" lon="4.67722">
        <ele>438</ele>
        <time>2018-10-14T09:52:57Z</time>
      </trkpt>
      <trkpt lat="45.65806" lon="4.67728">
        <ele>437</ele>
        <time>2018-10-14T09:52:58Z</time>
      </trkpt>
      <trkpt lat="45.65808" lon="4.67734">
        <ele>436</ele>
        <time>2018-10-14T09:52:59Z</time>
      </trkpt>
      <trkpt lat="45.65808" lon="4.6774">
        <ele>437</ele>
        <time>2018-10-14T09:53:00Z</time>
      </trkpt>
      <trkpt lat="45.6581" lon="4.67745">
        <ele>437</ele>
        <time>2018-10-14T09:53:01Z</time>
      </trkpt>
      <trkpt lat="45.65811" lon="4.67749">
        <ele>436</ele>
        <time>2018-10-14T09:53:02Z</time>
      </trkpt>
      <trkpt lat="45.65811" lon="4.67754">
        <ele>435</ele>
        <time>2018-10-14T09:53:03Z</time>
      </trkpt>
      <trkpt lat="45.65813" lon="4.67758">
        <ele>436</ele>
        <time>2018-10-14T09:53:04Z</time>
      </trkpt>
      <trkpt lat="45.65813" lon="4.67761">
        <ele>435</ele>
        <time>2018-10-14T09:53:05Z</time>
      </trkpt>
      <trkpt lat="45.65813" lon="4.67763">
        <ele>435</ele>
        <time>2018-10-14T09:53:06Z</time>
      </trkpt>
      <trkpt lat="45.65814" lon="4.67766">
        <ele>436</ele>
        <time>2018-10-14T09:53:07Z</time>
      </trkpt>
      <trkpt lat="45.65814" lon="4.67768">
        <ele>437</ele>
        <time>2018-10-14T09:53:08Z</time>
      </trkpt>
      <trkpt lat="45.65815" lon="4.67771">
        <ele>437</ele>
        <time>2018-10-14T09:53:09Z</time>
      </trkpt>
      <trkpt lat="45.65815" lon="4.67774">
        <ele>437</ele>
        <time>2018-10-14T09:53:10Z</time>
      </trkpt>
      <trkpt lat="45.65817" lon="4.67777">
        <ele>436</ele>
        <time>2018-10-14T09:53:11Z</time>
      </trkpt>
      <trkpt lat="45.65818" lon="4.67784">
        <ele>436</ele>
        <time>2018-10-14T09:53:12Z</time>
      </trkpt>
      <trkpt lat="45.65822" lon="4.67794">
        <ele>436</ele>
        <time>2018-10-14T09:53:13Z</time>
      </trkpt>
      <trkpt lat="45.65825" lon="4.67798">
        <ele>436</ele>
        <time>2018-10-14T09:53:14Z</time>
      </trkpt>
      <trkpt lat="45.65827" lon="4.67804">
        <ele>435</ele>
        <time>2018-10-14T09:53:15Z</time>
      </trkpt>
      <trkpt lat="45.65829" lon="4.67809">
        <ele>436</ele>
        <time>2018-10-14T09:53:16Z</time>
      </trkpt>
      <trkpt lat="45.65831" lon="4.67814">
        <ele>435</ele>
        <time>2018-10-14T09:53:17Z</time>
      </trkpt>
      <trkpt lat="45.65834" lon="4.6782">
        <ele>435</ele>
        <time>2018-10-14T09:53:18Z</time>
      </trkpt>
      <trkpt lat="45.65837" lon="4.67825">
        <ele>435</ele>
        <time>2018-10-14T09:53:19Z</time>
      </trkpt>
      <trkpt lat="45.65839" lon="4.67829">
        <ele>433</ele>
        <time>2018-10-14T09:53:20Z</time>
      </trkpt>
      <trkpt lat="45.65841" lon="4.67834">
        <ele>432</ele>
        <time>2018-10-14T09:53:21Z</time>
      </trkpt>
      <trkpt lat="45.65845" lon="4.67839">
        <ele>432</ele>
        <time>2018-10-14T09:53:22Z</time>
      </trkpt>
      <trkpt lat="45.65848" lon="4.67846">
        <ele>432</ele>
        <time>2018-10-14T09:53:23Z</time>
      </trkpt>
      <trkpt lat="45.6585" lon="4.67852">
        <ele>432</ele>
        <time>2018-10-14T09:53:24Z</time>
      </trkpt>
      <trkpt lat="45.65854" lon="4.67859">
        <ele>433</ele>
        <time>2018-10-14T09:53:25Z</time>
      </trkpt>
      <trkpt lat="45.65855" lon="4.67865">
        <ele>434</ele>
        <time>2018-10-14T09:53:26Z</time>
      </trkpt>
      <trkpt lat="45.65858" lon="4.6787">
        <ele>434</ele>
        <time>2018-10-14T09:53:27Z</time>
      </trkpt>
      <trkpt lat="45.65861" lon="4.67876">
        <ele>434</ele>
        <time>2018-10-14T09:53:28Z</time>
      </trkpt>
      <trkpt lat="45.65865" lon="4.67882">
        <ele>434</ele>
        <time>2018-10-14T09:53:29Z</time>
      </trkpt>
      <trkpt lat="45.65868" lon="4.67888">
        <ele>435</ele>
        <time>2018-10-14T09:53:30Z</time>
      </trkpt>
      <trkpt lat="45.65871" lon="4.67893">
        <ele>437</ele>
        <time>2018-10-14T09:53:31Z</time>
      </trkpt>
      <trkpt lat="45.65873" lon="4.67898">
        <ele>437</ele>
        <time>2018-10-14T09:53:32Z</time>
      </trkpt>
      <trkpt lat="45.65876" lon="4.679">
        <ele>437</ele>
        <time>2018-10-14T09:53:33Z</time>
      </trkpt>
      <trkpt lat="45.65878" lon="4.67904">
        <ele>437</ele>
        <time>2018-10-14T09:53:34Z</time>
      </trkpt>
      <trkpt lat="45.65881" lon="4.67907">
        <ele>435</ele>
        <time>2018-10-14T09:53:35Z</time>
      </trkpt>
      <trkpt lat="45.65884" lon="4.6791">
        <ele>436</ele>
        <time>2018-10-14T09:53:36Z</time>
      </trkpt>
      <trkpt lat="45.65886" lon="4.67911">
        <ele>436</ele>
        <time>2018-10-14T09:53:37Z</time>
      </trkpt>
      <trkpt lat="45.65888" lon="4.67914">
        <ele>436</ele>
        <time>2018-10-14T09:53:38Z</time>
      </trkpt>
      <trkpt lat="45.6589" lon="4.67916">
        <ele>436</ele>
        <time>2018-10-14T09:53:39Z</time>
      </trkpt>
      <trkpt lat="45.65892" lon="4.67917">
        <ele>437</ele>
        <time>2018-10-14T09:53:40Z</time>
      </trkpt>
      <trkpt lat="45.65893" lon="4.67919">
        <ele>438</ele>
        <time>2018-10-14T09:53:41Z</time>
      </trkpt>
      <trkpt lat="45.65894" lon="4.6792">
        <ele>438</ele>
        <time>2018-10-14T09:53:42Z</time>
      </trkpt>
      <trkpt lat="45.65896" lon="4.67922">
        <ele>438</ele>
        <time>2018-10-14T09:53:43Z</time>
      </trkpt>
      <trkpt lat="45.65898" lon="4.67923">
        <ele>438</ele>
        <time>2018-10-14T09:53:44Z</time>
      </trkpt>
      <trkpt lat="45.659" lon="4.67924">
        <ele>438</ele>
        <time>2018-10-14T09:53:45Z</time>
      </trkpt>
      <trkpt lat="45.65906" lon="4.67927">
        <ele>438</ele>
        <time>2018-10-14T09:53:46Z</time>
      </trkpt>
      <trkpt lat="45.65912" lon="4.67933">
        <ele>441</ele>
        <time>2018-10-14T09:53:47Z</time>
      </trkpt>
      <trkpt lat="45.65914" lon="4.67935">
        <ele>441</ele>
        <time>2018-10-14T09:53:48Z</time>
      </trkpt>
      <trkpt lat="45.65915" lon="4.67937">
        <ele>441</ele>
        <time>2018-10-14T09:53:49Z</time>
      </trkpt>
      <trkpt lat="45.65918" lon="4.67939">
        <ele>441</ele>
        <time>2018-10-14T09:53:50Z</time>
      </trkpt>
      <trkpt lat="45.65919" lon="4.67941">
        <ele>442</ele>
        <time>2018-10-14T09:53:51Z</time>
      </trkpt>
      <trkpt lat="45.6592" lon="4.67943">
        <ele>443</ele>
        <time>2018-10-14T09:53:52Z</time>
      </trkpt>
      <trkpt lat="45.65922" lon="4.67945">
        <ele>441</ele>
        <time>2018-10-14T09:53:53Z</time>
      </trkpt>
      <trkpt lat="45.65924" lon="4.67948">
        <ele>442</ele>
        <time>2018-10-14T09:53:54Z</time>
      </trkpt>
      <trkpt lat="45.65925" lon="4.6795">
        <ele>443</ele>
        <time>2018-10-14T09:53:55Z</time>
      </trkpt>
      <trkpt lat="45.65926" lon="4.67952">
        <ele>443</ele>
        <time>2018-10-14T09:53:56Z</time>
      </trkpt>
      <trkpt lat="45.65928" lon="4.67954">
        <ele>443</ele>
        <time>2018-10-14T09:53:57Z</time>
      </trkpt>
      <trkpt lat="45.65929" lon="4.67955">
        <ele>443</ele>
        <time>2018-10-14T09:53:58Z</time>
      </trkpt>
      <trkpt lat="45.6593" lon="4.67955">
        <ele>443</ele>
        <time>2018-10-14T09:53:59Z</time>
      </trkpt>
      <trkpt lat="45.65932" lon="4.67956">
        <ele>443</ele>
        <time>2018-10-14T09:54:00Z</time>
      </trkpt>
      <trkpt lat="45.65934" lon="4.67958">
        <ele>442</ele>
        <time>2018-10-14T09:54:01Z</time>
      </trkpt>
      <trkpt lat="45.65937" lon="4.67959">
        <ele>442</ele>
        <time>2018-10-14T09:54:02Z</time>
      </trkpt>
      <trkpt lat="45.65938" lon="4.67961">
        <ele>441</ele>
        <time>2018-10-14T09:54:03Z</time>
      </trkpt>
      <trkpt lat="45.6594" lon="4.67962">
        <ele>440</ele>
        <time>2018-10-14T09:54:04Z</time>
      </trkpt>
      <trkpt lat="45.65942" lon="4.67965">
        <ele>440</ele>
        <time>2018-10-14T09:54:05Z</time>
      </trkpt>
      <trkpt lat="45.65944" lon="4.67966">
        <ele>440</ele>
        <time>2018-10-14T09:54:06Z</time>
      </trkpt>
      <trkpt lat="45.65947" lon="4.67968">
        <ele>441</ele>
        <time>2018-10-14T09:54:07Z</time>
      </trkpt>
      <trkpt lat="45.65949" lon="4.67969">
        <ele>441</ele>
        <time>2018-10-14T09:54:08Z</time>
      </trkpt>
      <trkpt lat="45.6595" lon="4.67969">
        <ele>443</ele>
        <time>2018-10-14T09:54:09Z</time>
      </trkpt>
      <trkpt lat="45.65953" lon="4.67971">
        <ele>443</ele>
        <time>2018-10-14T09:54:10Z</time>
      </trkpt>
      <trkpt lat="45.65955" lon="4.67973">
        <ele>444</ele>
        <time>2018-10-14T09:54:11Z</time>
      </trkpt>
      <trkpt lat="45.65956" lon="4.67975">
        <ele>444</ele>
        <time>2018-10-14T09:54:12Z</time>
      </trkpt>
      <trkpt lat="45.65957" lon="4.67977">
        <ele>445</ele>
        <time>2018-10-14T09:54:13Z</time>
      </trkpt>
      <trkpt lat="45.65959" lon="4.67979">
        <ele>445</ele>
        <time>2018-10-14T09:54:14Z</time>
      </trkpt>
      <trkpt lat="45.65961" lon="4.67982">
        <ele>444</ele>
        <time>2018-10-14T09:54:15Z</time>
      </trkpt>
      <trkpt lat="45.65963" lon="4.67983">
        <ele>445</ele>
        <time>2018-10-14T09:54:16Z</time>
      </trkpt>
      <trkpt lat="45.65964" lon="4.67985">
        <ele>445</ele>
        <time>2018-10-14T09:54:17Z</time>
      </trkpt>
      <trkpt lat="45.65965" lon="4.67986">
        <ele>445</ele>
        <time>2018-10-14T09:54:18Z</time>
      </trkpt>
      <trkpt lat="45.65966" lon="4.67988">
        <ele>445</ele>
        <time>2018-10-14T09:54:19Z</time>
      </trkpt>
      <trkpt lat="45.65968" lon="4.6799">
        <ele>446</ele>
        <time>2018-10-14T09:54:20Z</time>
      </trkpt>
      <trkpt lat="45.65971" lon="4.67992">
        <ele>446</ele>
        <time>2018-10-14T09:54:21Z</time>
      </trkpt>
      <trkpt lat="45.65974" lon="4.67993">
        <ele>446</ele>
        <time>2018-10-14T09:54:22Z</time>
      </trkpt>
      <trkpt lat="45.65976" lon="4.67994">
        <ele>447</ele>
        <time>2018-10-14T09:54:23Z</time>
      </trkpt>
      <trkpt lat="45.65979" lon="4.67995">
        <ele>448</ele>
        <time>2018-10-14T09:54:24Z</time>
      </trkpt>
      <trkpt lat="45.65981" lon="4.67996">
        <ele>448</ele>
        <time>2018-10-14T09:54:25Z</time>
      </trkpt>
      <trkpt lat="45.65984" lon="4.67998">
        <ele>449</ele>
        <time>2018-10-14T09:54:26Z</time>
      </trkpt>
      <trkpt lat="45.65986" lon="4.68">
        <ele>449</ele>
        <time>2018-10-14T09:54:27Z</time>
      </trkpt>
      <trkpt lat="45.65988" lon="4.68001">
        <ele>449</ele>
        <time>2018-10-14T09:54:28Z</time>
      </trkpt>
      <trkpt lat="45.6599" lon="4.68002">
        <ele>449</ele>
        <time>2018-10-14T09:54:29Z</time>
      </trkpt>
      <trkpt lat="45.65992" lon="4.68004">
        <ele>448</ele>
        <time>2018-10-14T09:54:30Z</time>
      </trkpt>
      <trkpt lat="45.66" lon="4.68011">
        <ele>449</ele>
        <time>2018-10-14T09:54:31Z</time>
      </trkpt>
      <trkpt lat="45.66002" lon="4.68012">
        <ele>448</ele>
        <time>2018-10-14T09:54:32Z</time>
      </trkpt>
      <trkpt lat="45.66005" lon="4.68013">
        <ele>447</ele>
        <time>2018-10-14T09:54:33Z</time>
      </trkpt>
      <trkpt lat="45.66008" lon="4.68015">
        <ele>446</ele>
        <time>2018-10-14T09:54:34Z</time>
      </trkpt>
      <trkpt lat="45.66011" lon="4.68017">
        <ele>446</ele>
        <time>2018-10-14T09:54:35Z</time>
      </trkpt>
      <trkpt lat="45.66013" lon="4.6802">
        <ele>447</ele>
        <time>2018-10-14T09:54:36Z</time>
      </trkpt>
      <trkpt lat="45.66015" lon="4.68023">
        <ele>447</ele>
        <time>2018-10-14T09:54:37Z</time>
      </trkpt>
      <trkpt lat="45.66018" lon="4.68025">
        <ele>447</ele>
        <time>2018-10-14T09:54:38Z</time>
      </trkpt>
      <trkpt lat="45.66019" lon="4.68027">
        <ele>447</ele>
        <time>2018-10-14T09:54:39Z</time>
      </trkpt>
      <trkpt lat="45.66021" lon="4.68028">
        <ele>448</ele>
        <time>2018-10-14T09:54:40Z</time>
      </trkpt>
      <trkpt lat="45.66023" lon="4.68029">
        <ele>448</ele>
        <time>2018-10-14T09:54:41Z</time>
      </trkpt>
      <trkpt lat="45.66024" lon="4.68029">
        <ele>448</ele>
        <time>2018-10-14T09:54:42Z</time>
      </trkpt>
      <trkpt lat="45.66026" lon="4.68031">
        <ele>447</ele>
        <time>2018-10-14T09:54:43Z</time>
      </trkpt>
      <trkpt lat="45.66029" lon="4.68032">
        <ele>447</ele>
        <time>2018-10-14T09:54:44Z</time>
      </trkpt>
      <trkpt lat="45.66032" lon="4.68034">
        <ele>447</ele>
        <time>2018-10-14T09:54:45Z</time>
      </trkpt>
      <trkpt lat="45.66034" lon="4.68036">
        <ele>448</ele>
        <time>2018-10-14T09:54:46Z</time>
      </trkpt>
      <trkpt lat="45.66037" lon="4.68038">
        <ele>448</ele>
        <time>2018-10-14T09:54:47Z</time>
      </trkpt>
      <trkpt lat="45.66039" lon="4.68041">
        <ele>450</ele>
        <time>2018-10-14T09:54:48Z</time>
      </trkpt>
      <trkpt lat="45.66041" lon="4.68043">
        <ele>449</ele>
        <time>2018-10-14T09:54:49Z</time>
      </trkpt>
      <trkpt lat="45.66043" lon="4.68046">
        <ele>450</ele>
        <time>2018-10-14T09:54:50Z</time>
      </trkpt>
      <trkpt lat="45.66045" lon="4.68049">
        <ele>451</ele>
        <time>2018-10-14T09:54:51Z</time>
      </trkpt>
      <trkpt lat="45.66048" lon="4.68051">
        <ele>452</ele>
        <time>2018-10-14T09:54:52Z</time>
      </trkpt>
      <trkpt lat="45.6605" lon="4.68053">
        <ele>452</ele>
        <time>2018-10-14T09:54:53Z</time>
      </trkpt>
      <trkpt lat="45.66053" lon="4.68054">
        <ele>453</ele>
        <time>2018-10-14T09:54:54Z</time>
      </trkpt>
      <trkpt lat="45.66056" lon="4.68056">
        <ele>454</ele>
        <time>2018-10-14T09:54:55Z</time>
      </trkpt>
      <trkpt lat="45.66059" lon="4.68057">
        <ele>453</ele>
        <time>2018-10-14T09:54:56Z</time>
      </trkpt>
      <trkpt lat="45.66061" lon="4.68059">
        <ele>454</ele>
        <time>2018-10-14T09:54:57Z</time>
      </trkpt>
      <trkpt lat="45.66063" lon="4.6806">
        <ele>455</ele>
        <time>2018-10-14T09:54:58Z</time>
      </trkpt>
      <trkpt lat="45.66066" lon="4.68062">
        <ele>454</ele>
        <time>2018-10-14T09:54:59Z</time>
      </trkpt>
      <trkpt lat="45.66068" lon="4.68063">
        <ele>454</ele>
        <time>2018-10-14T09:55:00Z</time>
      </trkpt>
      <trkpt lat="45.66069" lon="4.68064">
        <ele>454</ele>
        <time>2018-10-14T09:55:01Z</time>
      </trkpt>
      <trkpt lat="45.66071" lon="4.68065">
        <ele>455</ele>
        <time>2018-10-14T09:55:02Z</time>
      </trkpt>
      <trkpt lat="45.66073" lon="4.68067">
        <ele>455</ele>
        <time>2018-10-14T09:55:03Z</time>
      </trkpt>
      <trkpt lat="45.66074" lon="4.68068">
        <ele>454</ele>
        <time>2018-10-14T09:55:04Z</time>
      </trkpt>
      <trkpt lat="45.66076" lon="4.68069">
        <ele>455</ele>
        <time>2018-10-14T09:55:05Z</time>
      </trkpt>
      <trkpt lat="45.66078" lon="4.6807">
        <ele>456</ele>
        <time>2018-10-14T09:55:06Z</time>
      </trkpt>
      <trkpt lat="45.6608" lon="4.68071">
        <ele>456</ele>
        <time>2018-10-14T09:55:07Z</time>
      </trkpt>
      <trkpt lat="45.66082" lon="4.68072">
        <ele>456</ele>
        <time>2018-10-14T09:55:08Z</time>
      </trkpt>
      <trkpt lat="45.66084" lon="4.68073">
        <ele>456</ele>
        <time>2018-10-14T09:55:09Z</time>
      </trkpt>
      <trkpt lat="45.66086" lon="4.68075">
        <ele>457</ele>
        <time>2018-10-14T09:55:10Z</time>
      </trkpt>
      <trkpt lat="45.66087" lon="4.68076">
        <ele>457</ele>
        <time>2018-10-14T09:55:11Z</time>
      </trkpt>
      <trkpt lat="45.6609" lon="4.68079">
        <ele>457</ele>
        <time>2018-10-14T09:55:13Z</time>
      </trkpt>
      <trkpt lat="45.66092" lon="4.68081">
        <ele>457</ele>
        <time>2018-10-14T09:55:14Z</time>
      </trkpt>
      <trkpt lat="45.66095" lon="4.68084">
        <ele>458</ele>
        <time>2018-10-14T09:55:15Z</time>
      </trkpt>
      <trkpt lat="45.66097" lon="4.68086">
        <ele>458</ele>
        <time>2018-10-14T09:55:16Z</time>
      </trkpt>
      <trkpt lat="45.66098" lon="4.68088">
        <ele>458</ele>
        <time>2018-10-14T09:55:17Z</time>
      </trkpt>
      <trkpt lat="45.66099" lon="4.68091">
        <ele>458</ele>
        <time>2018-10-14T09:55:18Z</time>
      </trkpt>
      <trkpt lat="45.661" lon="4.68093">
        <ele>461</ele>
        <time>2018-10-14T09:55:19Z</time>
      </trkpt>
      <trkpt lat="45.66102" lon="4.68094">
        <ele>461</ele>
        <time>2018-10-14T09:55:20Z</time>
      </trkpt>
      <trkpt lat="45.66103" lon="4.68096">
        <ele>462</ele>
        <time>2018-10-14T09:55:21Z</time>
      </trkpt>
      <trkpt lat="45.66105" lon="4.68098">
        <ele>462</ele>
        <time>2018-10-14T09:55:22Z</time>
      </trkpt>
      <trkpt lat="45.66106" lon="4.681">
        <ele>461</ele>
        <time>2018-10-14T09:55:23Z</time>
      </trkpt>
      <trkpt lat="45.66108" lon="4.68102">
        <ele>460</ele>
        <time>2018-10-14T09:55:24Z</time>
      </trkpt>
      <trkpt lat="45.6611" lon="4.68104">
        <ele>460</ele>
        <time>2018-10-14T09:55:25Z</time>
      </trkpt>
      <trkpt lat="45.66111" lon="4.68105">
        <ele>460</ele>
        <time>2018-10-14T09:55:26Z</time>
      </trkpt>
      <trkpt lat="45.66113" lon="4.68107">
        <ele>460</ele>
        <time>2018-10-14T09:55:27Z</time>
      </trkpt>
      <trkpt lat="45.66116" lon="4.68108">
        <ele>461</ele>
        <time>2018-10-14T09:55:28Z</time>
      </trkpt>
      <trkpt lat="45.66118" lon="4.68109">
        <ele>461</ele>
        <time>2018-10-14T09:55:29Z</time>
      </trkpt>
      <trkpt lat="45.66119" lon="4.6811">
        <ele>461</ele>
        <time>2018-10-14T09:55:30Z</time>
      </trkpt>
      <trkpt lat="45.66121" lon="4.68111">
        <ele>462</ele>
        <time>2018-10-14T09:55:31Z</time>
      </trkpt>
      <trkpt lat="45.66124" lon="4.68113">
        <ele>463</ele>
        <time>2018-10-14T09:55:32Z</time>
      </trkpt>
      <trkpt lat="45.66126" lon="4.68115">
        <ele>464</ele>
        <time>2018-10-14T09:55:33Z</time>
      </trkpt>
      <trkpt lat="45.66129" lon="4.68117">
        <ele>463</ele>
        <time>2018-10-14T09:55:34Z</time>
      </trkpt>
      <trkpt lat="45.66131" lon="4.68118">
        <ele>463</ele>
        <time>2018-10-14T09:55:35Z</time>
      </trkpt>
      <trkpt lat="45.66134" lon="4.68121">
        <ele>462</ele>
        <time>2018-10-14T09:55:36Z</time>
      </trkpt>
      <trkpt lat="45.66138" lon="4.68124">
        <ele>463</ele>
        <time>2018-10-14T09:55:37Z</time>
      </trkpt>
      <trkpt lat="45.66141" lon="4.68127">
        <ele>463</ele>
        <time>2018-10-14T09:55:38Z</time>
      </trkpt>
      <trkpt lat="45.66144" lon="4.68129">
        <ele>462</ele>
        <time>2018-10-14T09:55:39Z</time>
      </trkpt>
      <trkpt lat="45.66149" lon="4.68132">
        <ele>461</ele>
        <time>2018-10-14T09:55:40Z</time>
      </trkpt>
      <trkpt lat="45.66153" lon="4.68132">
        <ele>461</ele>
        <time>2018-10-14T09:55:41Z</time>
      </trkpt>
      <trkpt lat="45.66158" lon="4.68133">
        <ele>461</ele>
        <time>2018-10-14T09:55:42Z</time>
      </trkpt>
      <trkpt lat="45.66162" lon="4.68131">
        <ele>461</ele>
        <time>2018-10-14T09:55:43Z</time>
      </trkpt>
      <trkpt lat="45.66166" lon="4.6813">
        <ele>460</ele>
        <time>2018-10-14T09:55:44Z</time>
      </trkpt>
      <trkpt lat="45.6617" lon="4.6813">
        <ele>460</ele>
        <time>2018-10-14T09:55:45Z</time>
      </trkpt>
      <trkpt lat="45.66174" lon="4.6813">
        <ele>460</ele>
        <time>2018-10-14T09:55:46Z</time>
      </trkpt>
      <trkpt lat="45.66177" lon="4.68129">
        <ele>461</ele>
        <time>2018-10-14T09:55:47Z</time>
      </trkpt>
      <trkpt lat="45.6618" lon="4.68129">
        <ele>461</ele>
        <time>2018-10-14T09:55:48Z</time>
      </trkpt>
      <trkpt lat="45.66182" lon="4.68129">
        <ele>461</ele>
        <time>2018-10-14T09:55:49Z</time>
      </trkpt>
      <trkpt lat="45.66184" lon="4.68129">
        <ele>461</ele>
        <time>2018-10-14T09:55:50Z</time>
      </trkpt>
      <trkpt lat="45.66197" lon="4.68125">
        <ele>460</ele>
        <time>2018-10-14T09:55:52Z</time>
      </trkpt>
      <trkpt lat="45.662" lon="4.68124">
        <ele>461</ele>
        <time>2018-10-14T09:55:53Z</time>
      </trkpt>
      <trkpt lat="45.66204" lon="4.68123">
        <ele>461</ele>
        <time>2018-10-14T09:55:54Z</time>
      </trkpt>
      <trkpt lat="45.66207" lon="4.68122">
        <ele>461</ele>
        <time>2018-10-14T09:55:55Z</time>
      </trkpt>
      <trkpt lat="45.66211" lon="4.6812">
        <ele>461</ele>
        <time>2018-10-14T09:55:56Z</time>
      </trkpt>
      <trkpt lat="45.66214" lon="4.68118">
        <ele>461</ele>
        <time>2018-10-14T09:55:57Z</time>
      </trkpt>
      <trkpt lat="45.66217" lon="4.68115">
        <ele>461</ele>
        <time>2018-10-14T09:55:58Z</time>
      </trkpt>
      <trkpt lat="45.66221" lon="4.68114">
        <ele>461</ele>
        <time>2018-10-14T09:55:59Z</time>
      </trkpt>
      <trkpt lat="45.66224" lon="4.68112">
        <ele>461</ele>
        <time>2018-10-14T09:56:00Z</time>
      </trkpt>
      <trkpt lat="45.66228" lon="4.68111">
        <ele>461</ele>
        <time>2018-10-14T09:56:01Z</time>
      </trkpt>
      <trkpt lat="45.66232" lon="4.68109">
        <ele>461</ele>
        <time>2018-10-14T09:56:02Z</time>
      </trkpt>
      <trkpt lat="45.66233" lon="4.68108">
        <ele>461</ele>
        <time>2018-10-14T09:56:03Z</time>
      </trkpt>
      <trkpt lat="45.66235" lon="4.68108">
        <ele>461</ele>
        <time>2018-10-14T09:56:04Z</time>
      </trkpt>
      <trkpt lat="45.66236" lon="4.68106">
        <ele>461</ele>
        <time>2018-10-14T09:56:05Z</time>
      </trkpt>
      <trkpt lat="45.66246" lon="4.68103">
        <ele>463</ele>
        <time>2018-10-14T09:56:06Z</time>
      </trkpt>
      <trkpt lat="45.6625" lon="4.68101">
        <ele>463</ele>
        <time>2018-10-14T09:56:07Z</time>
      </trkpt>
      <trkpt lat="45.66253" lon="4.68098">
        <ele>461</ele>
        <time>2018-10-14T09:56:08Z</time>
      </trkpt>
      <trkpt lat="45.66258" lon="4.68095">
        <ele>460</ele>
        <time>2018-10-14T09:56:09Z</time>
      </trkpt>
      <trkpt lat="45.66262" lon="4.68092">
        <ele>461</ele>
        <time>2018-10-14T09:56:10Z</time>
      </trkpt>
      <trkpt lat="45.66267" lon="4.68088">
        <ele>463</ele>
        <time>2018-10-14T09:56:11Z</time>
      </trkpt>
      <trkpt lat="45.6627" lon="4.68084">
        <ele>460</ele>
        <time>2018-10-14T09:56:12Z</time>
      </trkpt>
      <trkpt lat="45.66275" lon="4.68079">
        <ele>460</ele>
        <time>2018-10-14T09:56:13Z</time>
      </trkpt>
      <trkpt lat="45.66279" lon="4.68075">
        <ele>461</ele>
        <time>2018-10-14T09:56:14Z</time>
      </trkpt>
      <trkpt lat="45.66283" lon="4.68071">
        <ele>460</ele>
        <time>2018-10-14T09:56:15Z</time>
      </trkpt>
      <trkpt lat="45.66286" lon="4.68067">
        <ele>461</ele>
        <time>2018-10-14T09:56:16Z</time>
      </trkpt>
      <trkpt lat="45.66289" lon="4.68061">
        <ele>460</ele>
        <time>2018-10-14T09:56:17Z</time>
      </trkpt>
      <trkpt lat="45.66293" lon="4.68055">
        <ele>459</ele>
        <time>2018-10-14T09:56:18Z</time>
      </trkpt>
      <trkpt lat="45.66296" lon="4.68049">
        <ele>458</ele>
        <time>2018-10-14T09:56:19Z</time>
      </trkpt>
      <trkpt lat="45.66301" lon="4.68043">
        <ele>459</ele>
        <time>2018-10-14T09:56:20Z</time>
      </trkpt>
      <trkpt lat="45.66306" lon="4.6804">
        <ele>459</ele>
        <time>2018-10-14T09:56:21Z</time>
      </trkpt>
      <trkpt lat="45.66312" lon="4.68037">
        <ele>459</ele>
        <time>2018-10-14T09:56:22Z</time>
      </trkpt>
      <trkpt lat="45.66317" lon="4.68035">
        <ele>458</ele>
        <time>2018-10-14T09:56:23Z</time>
      </trkpt>
      <trkpt lat="45.66322" lon="4.68034">
        <ele>459</ele>
        <time>2018-10-14T09:56:24Z</time>
      </trkpt>
      <trkpt lat="45.66327" lon="4.68032">
        <ele>458</ele>
        <time>2018-10-14T09:56:25Z</time>
      </trkpt>
      <trkpt lat="45.66332" lon="4.6803">
        <ele>458</ele>
        <time>2018-10-14T09:56:26Z</time>
      </trkpt>
      <trkpt lat="45.66339" lon="4.6803">
        <ele>458</ele>
        <time>2018-10-14T09:56:27Z</time>
      </trkpt>
      <trkpt lat="45.66344" lon="4.6803">
        <ele>458</ele>
        <time>2018-10-14T09:56:28Z</time>
      </trkpt>
      <trkpt lat="45.66349" lon="4.68032">
        <ele>459</ele>
        <time>2018-10-14T09:56:29Z</time>
      </trkpt>
      <trkpt lat="45.66354" lon="4.68035">
        <ele>458</ele>
        <time>2018-10-14T09:56:30Z</time>
      </trkpt>
      <trkpt lat="45.66359" lon="4.68038">
        <ele>458</ele>
        <time>2018-10-14T09:56:31Z</time>
      </trkpt>
      <trkpt lat="45.66366" lon="4.68041">
        <ele>459</ele>
        <time>2018-10-14T09:56:32Z</time>
      </trkpt>
      <trkpt lat="45.66373" lon="4.68046">
        <ele>459</ele>
        <time>2018-10-14T09:56:33Z</time>
      </trkpt>
      <trkpt lat="45.66379" lon="4.68054">
        <ele>460</ele>
        <time>2018-10-14T09:56:34Z</time>
      </trkpt>
      <trkpt lat="45.66385" lon="4.6806">
        <ele>460</ele>
        <time>2018-10-14T09:56:35Z</time>
      </trkpt>
      <trkpt lat="45.6639" lon="4.68068">
        <ele>460</ele>
        <time>2018-10-14T09:56:36Z</time>
      </trkpt>
      <trkpt lat="45.66396" lon="4.68074">
        <ele>460</ele>
        <time>2018-10-14T09:56:37Z</time>
      </trkpt>
      <trkpt lat="45.664" lon="4.68081">
        <ele>459</ele>
        <time>2018-10-14T09:56:38Z</time>
      </trkpt>
      <trkpt lat="45.66407" lon="4.68086">
        <ele>459</ele>
        <time>2018-10-14T09:56:39Z</time>
      </trkpt>
      <trkpt lat="45.66414" lon="4.68092">
        <ele>459</ele>
        <time>2018-10-14T09:56:40Z</time>
      </trkpt>
      <trkpt lat="45.6642" lon="4.68098">
        <ele>459</ele>
        <time>2018-10-14T09:56:41Z</time>
      </trkpt>
      <trkpt lat="45.66427" lon="4.68106">
        <ele>458</ele>
        <time>2018-10-14T09:56:42Z</time>
      </trkpt>
      <trkpt lat="45.66433" lon="4.68113">
        <ele>457</ele>
        <time>2018-10-14T09:56:43Z</time>
      </trkpt>
      <trkpt lat="45.66439" lon="4.6812">
        <ele>456</ele>
        <time>2018-10-14T09:56:44Z</time>
      </trkpt>
      <trkpt lat="45.66445" lon="4.68128">
        <ele>456</ele>
        <time>2018-10-14T09:56:45Z</time>
      </trkpt>
      <trkpt lat="45.66448" lon="4.68136">
        <ele>455</ele>
        <time>2018-10-14T09:56:46Z</time>
      </trkpt>
      <trkpt lat="45.66452" lon="4.68146">
        <ele>455</ele>
        <time>2018-10-14T09:56:47Z</time>
      </trkpt>
      <trkpt lat="45.66456" lon="4.68155">
        <ele>454</ele>
        <time>2018-10-14T09:56:48Z</time>
      </trkpt>
      <trkpt lat="45.6646" lon="4.68164">
        <ele>454</ele>
        <time>2018-10-14T09:56:49Z</time>
      </trkpt>
      <trkpt lat="45.66465" lon="4.68172">
        <ele>453</ele>
        <time>2018-10-14T09:56:50Z</time>
      </trkpt>
      <trkpt lat="45.6647" lon="4.6818">
        <ele>453</ele>
        <time>2018-10-14T09:56:51Z</time>
      </trkpt>
      <trkpt lat="45.66475" lon="4.68187">
        <ele>452</ele>
        <time>2018-10-14T09:56:52Z</time>
      </trkpt>
      <trkpt lat="45.66482" lon="4.68192">
        <ele>451</ele>
        <time>2018-10-14T09:56:53Z</time>
      </trkpt>
      <trkpt lat="45.66489" lon="4.682">
        <ele>451</ele>
        <time>2018-10-14T09:56:54Z</time>
      </trkpt>
      <trkpt lat="45.66497" lon="4.68206">
        <ele>451</ele>
        <time>2018-10-14T09:56:55Z</time>
      </trkpt>
      <trkpt lat="45.66505" lon="4.68213">
        <ele>451</ele>
        <time>2018-10-14T09:56:56Z</time>
      </trkpt>
      <trkpt lat="45.66513" lon="4.68219">
        <ele>451</ele>
        <time>2018-10-14T09:56:57Z</time>
      </trkpt>
      <trkpt lat="45.66521" lon="4.68225">
        <ele>451</ele>
        <time>2018-10-14T09:56:58Z</time>
      </trkpt>
      <trkpt lat="45.6653" lon="4.68231">
        <ele>451</ele>
        <time>2018-10-14T09:56:59Z</time>
      </trkpt>
      <trkpt lat="45.66538" lon="4.68237">
        <ele>450</ele>
        <time>2018-10-14T09:57:00Z</time>
      </trkpt>
      <trkpt lat="45.66546" lon="4.68243">
        <ele>450</ele>
        <time>2018-10-14T09:57:01Z</time>
      </trkpt>
      <trkpt lat="45.66555" lon="4.68249">
        <ele>450</ele>
        <time>2018-10-14T09:57:02Z</time>
      </trkpt>
      <trkpt lat="45.66565" lon="4.68254">
        <ele>450</ele>
        <time>2018-10-14T09:57:03Z</time>
      </trkpt>
      <trkpt lat="45.66575" lon="4.68261">
        <ele>449</ele>
        <time>2018-10-14T09:57:04Z</time>
      </trkpt>
      <trkpt lat="45.66586" lon="4.68268">
        <ele>449</ele>
        <time>2018-10-14T09:57:05Z</time>
      </trkpt>
      <trkpt lat="45.66597" lon="4.68274">
        <ele>448</ele>
        <time>2018-10-14T09:57:06Z</time>
      </trkpt>
      <trkpt lat="45.66608" lon="4.68283">
        <ele>447</ele>
        <time>2018-10-14T09:57:07Z</time>
      </trkpt>
      <trkpt lat="45.6662" lon="4.68292">
        <ele>446</ele>
        <time>2018-10-14T09:57:08Z</time>
      </trkpt>
      <trkpt lat="45.66631" lon="4.683">
        <ele>445</ele>
        <time>2018-10-14T09:57:09Z</time>
      </trkpt>
      <trkpt lat="45.66644" lon="4.68305">
        <ele>444</ele>
        <time>2018-10-14T09:57:10Z</time>
      </trkpt>
      <trkpt lat="45.66657" lon="4.68311">
        <ele>444</ele>
        <time>2018-10-14T09:57:11Z</time>
      </trkpt>
      <trkpt lat="45.6667" lon="4.68318">
        <ele>443</ele>
        <time>2018-10-14T09:57:12Z</time>
      </trkpt>
      <trkpt lat="45.66682" lon="4.68324">
        <ele>443</ele>
        <time>2018-10-14T09:57:13Z</time>
      </trkpt>
      <trkpt lat="45.66695" lon="4.68329">
        <ele>442</ele>
        <time>2018-10-14T09:57:14Z</time>
      </trkpt>
      <trkpt lat="45.66708" lon="4.68334">
        <ele>442</ele>
        <time>2018-10-14T09:57:15Z</time>
      </trkpt>
      <trkpt lat="45.66721" lon="4.68339">
        <ele>440</ele>
        <time>2018-10-14T09:57:16Z</time>
      </trkpt>
      <trkpt lat="45.66734" lon="4.68344">
        <ele>440</ele>
        <time>2018-10-14T09:57:17Z</time>
      </trkpt>
      <trkpt lat="45.66747" lon="4.68349">
        <ele>438</ele>
        <time>2018-10-14T09:57:18Z</time>
      </trkpt>
      <trkpt lat="45.6676" lon="4.68356">
        <ele>437</ele>
        <time>2018-10-14T09:57:19Z</time>
      </trkpt>
      <trkpt lat="45.66774" lon="4.68365">
        <ele>435</ele>
        <time>2018-10-14T09:57:20Z</time>
      </trkpt>
      <trkpt lat="45.66786" lon="4.68373">
        <ele>435</ele>
        <time>2018-10-14T09:57:21Z</time>
      </trkpt>
      <trkpt lat="45.66799" lon="4.68382">
        <ele>434</ele>
        <time>2018-10-14T09:57:22Z</time>
      </trkpt>
      <trkpt lat="45.66813" lon="4.68388">
        <ele>433</ele>
        <time>2018-10-14T09:57:23Z</time>
      </trkpt>
      <trkpt lat="45.66826" lon="4.68394">
        <ele>433</ele>
        <time>2018-10-14T09:57:24Z</time>
      </trkpt>
      <trkpt lat="45.66839" lon="4.68399">
        <ele>432</ele>
        <time>2018-10-14T09:57:25Z</time>
      </trkpt>
      <trkpt lat="45.66852" lon="4.68399">
        <ele>432</ele>
        <time>2018-10-14T09:57:26Z</time>
      </trkpt>
      <trkpt lat="45.66866" lon="4.68402">
        <ele>431</ele>
        <time>2018-10-14T09:57:27Z</time>
      </trkpt>
      <trkpt lat="45.66879" lon="4.68404">
        <ele>430</ele>
        <time>2018-10-14T09:57:28Z</time>
      </trkpt>
      <trkpt lat="45.66891" lon="4.68406">
        <ele>430</ele>
        <time>2018-10-14T09:57:29Z</time>
      </trkpt>
      <trkpt lat="45.66903" lon="4.6841">
        <ele>428</ele>
        <time>2018-10-14T09:57:30Z</time>
      </trkpt>
      <trkpt lat="45.66915" lon="4.68414">
        <ele>428</ele>
        <time>2018-10-14T09:57:31Z</time>
      </trkpt>
      <trkpt lat="45.66925" lon="4.68419">
        <ele>428</ele>
        <time>2018-10-14T09:57:32Z</time>
      </trkpt>
      <trkpt lat="45.66933" lon="4.68423">
        <ele>427</ele>
        <time>2018-10-14T09:57:33Z</time>
      </trkpt>
      <trkpt lat="45.66941" lon="4.68423">
        <ele>428</ele>
        <time>2018-10-14T09:57:34Z</time>
      </trkpt>
      <trkpt lat="45.66948" lon="4.68421">
        <ele>428</ele>
        <time>2018-10-14T09:57:35Z</time>
      </trkpt>
      <trkpt lat="45.66954" lon="4.68416">
        <ele>427</ele>
        <time>2018-10-14T09:57:36Z</time>
      </trkpt>
      <trkpt lat="45.66962" lon="4.6841">
        <ele>426</ele>
        <time>2018-10-14T09:57:37Z</time>
      </trkpt>
      <trkpt lat="45.6697" lon="4.68405">
        <ele>426</ele>
        <time>2018-10-14T09:57:38Z</time>
      </trkpt>
      <trkpt lat="45.66979" lon="4.68401">
        <ele>426</ele>
        <time>2018-10-14T09:57:39Z</time>
      </trkpt>
      <trkpt lat="45.66987" lon="4.68399">
        <ele>426</ele>
        <time>2018-10-14T09:57:40Z</time>
      </trkpt>
      <trkpt lat="45.66994" lon="4.68398">
        <ele>426</ele>
        <time>2018-10-14T09:57:41Z</time>
      </trkpt>
      <trkpt lat="45.67002" lon="4.68397">
        <ele>427</ele>
        <time>2018-10-14T09:57:42Z</time>
      </trkpt>
      <trkpt lat="45.67009" lon="4.68396">
        <ele>428</ele>
        <time>2018-10-14T09:57:43Z</time>
      </trkpt>
      <trkpt lat="45.67018" lon="4.68394">
        <ele>429</ele>
        <time>2018-10-14T09:57:44Z</time>
      </trkpt>
      <trkpt lat="45.67025" lon="4.68392">
        <ele>429</ele>
        <time>2018-10-14T09:57:45Z</time>
      </trkpt>
      <trkpt lat="45.67033" lon="4.68387">
        <ele>430</ele>
        <time>2018-10-14T09:57:46Z</time>
      </trkpt>
      <trkpt lat="45.6704" lon="4.68382">
        <ele>430</ele>
        <time>2018-10-14T09:57:47Z</time>
      </trkpt>
      <trkpt lat="45.67046" lon="4.68376">
        <ele>431</ele>
        <time>2018-10-14T09:57:48Z</time>
      </trkpt>
      <trkpt lat="45.67052" lon="4.68371">
        <ele>431</ele>
        <time>2018-10-14T09:57:49Z</time>
      </trkpt>
      <trkpt lat="45.67057" lon="4.68367">
        <ele>432</ele>
        <time>2018-10-14T09:57:50Z</time>
      </trkpt>
      <trkpt lat="45.67063" lon="4.68361">
        <ele>433</ele>
        <time>2018-10-14T09:57:51Z</time>
      </trkpt>
      <trkpt lat="45.67068" lon="4.68357">
        <ele>434</ele>
        <time>2018-10-14T09:57:52Z</time>
      </trkpt>
      <trkpt lat="45.67073" lon="4.68354">
        <ele>435</ele>
        <time>2018-10-14T09:57:53Z</time>
      </trkpt>
      <trkpt lat="45.67078" lon="4.68356">
        <ele>435</ele>
        <time>2018-10-14T09:57:54Z</time>
      </trkpt>
      <trkpt lat="45.67085" lon="4.68359">
        <ele>434</ele>
        <time>2018-10-14T09:57:55Z</time>
      </trkpt>
      <trkpt lat="45.67089" lon="4.68365">
        <ele>434</ele>
        <time>2018-10-14T09:57:56Z</time>
      </trkpt>
      <trkpt lat="45.67093" lon="4.68371">
        <ele>433</ele>
        <time>2018-10-14T09:57:57Z</time>
      </trkpt>
      <trkpt lat="45.67096" lon="4.68377">
        <ele>432</ele>
        <time>2018-10-14T09:57:58Z</time>
      </trkpt>
      <trkpt lat="45.67101" lon="4.68383">
        <ele>431</ele>
        <time>2018-10-14T09:57:59Z</time>
      </trkpt>
      <trkpt lat="45.67107" lon="4.68389">
        <ele>430</ele>
        <time>2018-10-14T09:58:00Z</time>
      </trkpt>
      <trkpt lat="45.67113" lon="4.68395">
        <ele>429</ele>
        <time>2018-10-14T09:58:01Z</time>
      </trkpt>
      <trkpt lat="45.6712" lon="4.68399">
        <ele>429</ele>
        <time>2018-10-14T09:58:02Z</time>
      </trkpt>
      <trkpt lat="45.67127" lon="4.68404">
        <ele>431</ele>
        <time>2018-10-14T09:58:03Z</time>
      </trkpt>
      <trkpt lat="45.67133" lon="4.68409">
        <ele>430</ele>
        <time>2018-10-14T09:58:04Z</time>
      </trkpt>
      <trkpt lat="45.6714" lon="4.68414">
        <ele>429</ele>
        <time>2018-10-14T09:58:05Z</time>
      </trkpt>
      <trkpt lat="45.67147" lon="4.6842">
        <ele>429</ele>
        <time>2018-10-14T09:58:06Z</time>
      </trkpt>
      <trkpt lat="45.67154" lon="4.68425">
        <ele>429</ele>
        <time>2018-10-14T09:58:07Z</time>
      </trkpt>
      <trkpt lat="45.67161" lon="4.68431">
        <ele>429</ele>
        <time>2018-10-14T09:58:08Z</time>
      </trkpt>
      <trkpt lat="45.67168" lon="4.68436">
        <ele>429</ele>
        <time>2018-10-14T09:58:09Z</time>
      </trkpt>
      <trkpt lat="45.67175" lon="4.68442">
        <ele>429</ele>
        <time>2018-10-14T09:58:10Z</time>
      </trkpt>
      <trkpt lat="45.67183" lon="4.68447">
        <ele>430</ele>
        <time>2018-10-14T09:58:11Z</time>
      </trkpt>
      <trkpt lat="45.6719" lon="4.68453">
        <ele>430</ele>
        <time>2018-10-14T09:58:12Z</time>
      </trkpt>
      <trkpt lat="45.67197" lon="4.68458">
        <ele>429</ele>
        <time>2018-10-14T09:58:13Z</time>
      </trkpt>
      <trkpt lat="45.67205" lon="4.68462">
        <ele>429</ele>
        <time>2018-10-14T09:58:14Z</time>
      </trkpt>
      <trkpt lat="45.67212" lon="4.68468">
        <ele>428</ele>
        <time>2018-10-14T09:58:15Z</time>
      </trkpt>
      <trkpt lat="45.67219" lon="4.68474">
        <ele>427</ele>
        <time>2018-10-14T09:58:16Z</time>
      </trkpt>
      <trkpt lat="45.67226" lon="4.68481">
        <ele>427</ele>
        <time>2018-10-14T09:58:17Z</time>
      </trkpt>
      <trkpt lat="45.67232" lon="4.68488">
        <ele>427</ele>
        <time>2018-10-14T09:58:18Z</time>
      </trkpt>
      <trkpt lat="45.67239" lon="4.68497">
        <ele>427</ele>
        <time>2018-10-14T09:58:19Z</time>
      </trkpt>
      <trkpt lat="45.67246" lon="4.68506">
        <ele>426</ele>
        <time>2018-10-14T09:58:20Z</time>
      </trkpt>
      <trkpt lat="45.67253" lon="4.68514">
        <ele>426</ele>
        <time>2018-10-14T09:58:21Z</time>
      </trkpt>
      <trkpt lat="45.6726" lon="4.68519">
        <ele>425</ele>
        <time>2018-10-14T09:58:22Z</time>
      </trkpt>
      <trkpt lat="45.67269" lon="4.68525">
        <ele>425</ele>
        <time>2018-10-14T09:58:23Z</time>
      </trkpt>
      <trkpt lat="45.67277" lon="4.68529">
        <ele>424</ele>
        <time>2018-10-14T09:58:24Z</time>
      </trkpt>
      <trkpt lat="45.67286" lon="4.68534">
        <ele>424</ele>
        <time>2018-10-14T09:58:25Z</time>
      </trkpt>
      <trkpt lat="45.67294" lon="4.68538">
        <ele>424</ele>
        <time>2018-10-14T09:58:26Z</time>
      </trkpt>
      <trkpt lat="45.67303" lon="4.68544">
        <ele>424</ele>
        <time>2018-10-14T09:58:27Z</time>
      </trkpt>
      <trkpt lat="45.67311" lon="4.68552">
        <ele>424</ele>
        <time>2018-10-14T09:58:28Z</time>
      </trkpt>
      <trkpt lat="45.67318" lon="4.68561">
        <ele>422</ele>
        <time>2018-10-14T09:58:29Z</time>
      </trkpt>
      <trkpt lat="45.67323" lon="4.68573">
        <ele>421</ele>
        <time>2018-10-14T09:58:30Z</time>
      </trkpt>
      <trkpt lat="45.67328" lon="4.68585">
        <ele>421</ele>
        <time>2018-10-14T09:58:31Z</time>
      </trkpt>
      <trkpt lat="45.67333" lon="4.68597">
        <ele>421</ele>
        <time>2018-10-14T09:58:32Z</time>
      </trkpt>
      <trkpt lat="45.67339" lon="4.68606">
        <ele>418</ele>
        <time>2018-10-14T09:58:33Z</time>
      </trkpt>
      <trkpt lat="45.67344" lon="4.68619">
        <ele>419</ele>
        <time>2018-10-14T09:58:34Z</time>
      </trkpt>
      <trkpt lat="45.67349" lon="4.68631">
        <ele>420</ele>
        <time>2018-10-14T09:58:35Z</time>
      </trkpt>
      <trkpt lat="45.67352" lon="4.68643">
        <ele>419</ele>
        <time>2018-10-14T09:58:36Z</time>
      </trkpt>
      <trkpt lat="45.67357" lon="4.68655">
        <ele>418</ele>
        <time>2018-10-14T09:58:37Z</time>
      </trkpt>
      <trkpt lat="45.67363" lon="4.68666">
        <ele>418</ele>
        <time>2018-10-14T09:58:38Z</time>
      </trkpt>
      <trkpt lat="45.67367" lon="4.68678">
        <ele>420</ele>
        <time>2018-10-14T09:58:39Z</time>
      </trkpt>
      <trkpt lat="45.67372" lon="4.68689">
        <ele>419</ele>
        <time>2018-10-14T09:58:40Z</time>
      </trkpt>
      <trkpt lat="45.67376" lon="4.687">
        <ele>419</ele>
        <time>2018-10-14T09:58:41Z</time>
      </trkpt>
      <trkpt lat="45.67381" lon="4.6871">
        <ele>418</ele>
        <time>2018-10-14T09:58:42Z</time>
      </trkpt>
      <trkpt lat="45.67386" lon="4.6872">
        <ele>417</ele>
        <time>2018-10-14T09:58:43Z</time>
      </trkpt>
      <trkpt lat="45.6739" lon="4.6873">
        <ele>416</ele>
        <time>2018-10-14T09:58:44Z</time>
      </trkpt>
      <trkpt lat="45.67394" lon="4.68742">
        <ele>417</ele>
        <time>2018-10-14T09:58:45Z</time>
      </trkpt>
      <trkpt lat="45.67397" lon="4.68752">
        <ele>418</ele>
        <time>2018-10-14T09:58:46Z</time>
      </trkpt>
      <trkpt lat="45.67401" lon="4.68762">
        <ele>417</ele>
        <time>2018-10-14T09:58:47Z</time>
      </trkpt>
      <trkpt lat="45.67405" lon="4.68772">
        <ele>418</ele>
        <time>2018-10-14T09:58:48Z</time>
      </trkpt>
      <trkpt lat="45.6741" lon="4.68782">
        <ele>418</ele>
        <time>2018-10-14T09:58:49Z</time>
      </trkpt>
      <trkpt lat="45.67413" lon="4.68792">
        <ele>419</ele>
        <time>2018-10-14T09:58:50Z</time>
      </trkpt>
      <trkpt lat="45.67417" lon="4.68802">
        <ele>418</ele>
        <time>2018-10-14T09:58:51Z</time>
      </trkpt>
      <trkpt lat="45.6742" lon="4.68812">
        <ele>419</ele>
        <time>2018-10-14T09:58:52Z</time>
      </trkpt>
      <trkpt lat="45.67422" lon="4.68822">
        <ele>420</ele>
        <time>2018-10-14T09:58:53Z</time>
      </trkpt>
      <trkpt lat="45.67425" lon="4.68833">
        <ele>420</ele>
        <time>2018-10-14T09:58:54Z</time>
      </trkpt>
      <trkpt lat="45.67427" lon="4.68844">
        <ele>421</ele>
        <time>2018-10-14T09:58:55Z</time>
      </trkpt>
      <trkpt lat="45.67429" lon="4.68855">
        <ele>421</ele>
        <time>2018-10-14T09:58:56Z</time>
      </trkpt>
      <trkpt lat="45.67431" lon="4.68865">
        <ele>422</ele>
        <time>2018-10-14T09:58:57Z</time>
      </trkpt>
      <trkpt lat="45.67432" lon="4.68875">
        <ele>422</ele>
        <time>2018-10-14T09:58:58Z</time>
      </trkpt>
      <trkpt lat="45.67433" lon="4.68884">
        <ele>422</ele>
        <time>2018-10-14T09:58:59Z</time>
      </trkpt>
      <trkpt lat="45.67434" lon="4.68894">
        <ele>421</ele>
        <time>2018-10-14T09:59:00Z</time>
      </trkpt>
      <trkpt lat="45.67435" lon="4.68903">
        <ele>422</ele>
        <time>2018-10-14T09:59:01Z</time>
      </trkpt>
      <trkpt lat="45.67437" lon="4.68913">
        <ele>422</ele>
        <time>2018-10-14T09:59:02Z</time>
      </trkpt>
      <trkpt lat="45.67439" lon="4.68921">
        <ele>422</ele>
        <time>2018-10-14T09:59:03Z</time>
      </trkpt>
      <trkpt lat="45.6744" lon="4.68931">
        <ele>423</ele>
        <time>2018-10-14T09:59:04Z</time>
      </trkpt>
      <trkpt lat="45.67442" lon="4.6894">
        <ele>423</ele>
        <time>2018-10-14T09:59:05Z</time>
      </trkpt>
      <trkpt lat="45.67445" lon="4.6895">
        <ele>424</ele>
        <time>2018-10-14T09:59:06Z</time>
      </trkpt>
      <trkpt lat="45.67447" lon="4.68959">
        <ele>423</ele>
        <time>2018-10-14T09:59:07Z</time>
      </trkpt>
      <trkpt lat="45.67449" lon="4.68968">
        <ele>423</ele>
        <time>2018-10-14T09:59:08Z</time>
      </trkpt>
      <trkpt lat="45.67452" lon="4.68976">
        <ele>422</ele>
        <time>2018-10-14T09:59:09Z</time>
      </trkpt>
      <trkpt lat="45.67455" lon="4.68985">
        <ele>422</ele>
        <time>2018-10-14T09:59:10Z</time>
      </trkpt>
      <trkpt lat="45.67458" lon="4.68995">
        <ele>423</ele>
        <time>2018-10-14T09:59:11Z</time>
      </trkpt>
      <trkpt lat="45.67461" lon="4.69004">
        <ele>422</ele>
        <time>2018-10-14T09:59:12Z</time>
      </trkpt>
      <trkpt lat="45.67463" lon="4.69011">
        <ele>421</ele>
        <time>2018-10-14T09:59:13Z</time>
      </trkpt>
      <trkpt lat="45.67467" lon="4.69019">
        <ele>421</ele>
        <time>2018-10-14T09:59:14Z</time>
      </trkpt>
      <trkpt lat="45.67471" lon="4.69026">
        <ele>421</ele>
        <time>2018-10-14T09:59:15Z</time>
      </trkpt>
      <trkpt lat="45.67476" lon="4.69033">
        <ele>421</ele>
        <time>2018-10-14T09:59:16Z</time>
      </trkpt>
      <trkpt lat="45.6748" lon="4.6904">
        <ele>421</ele>
        <time>2018-10-14T09:59:17Z</time>
      </trkpt>
      <trkpt lat="45.67485" lon="4.69047">
        <ele>421</ele>
        <time>2018-10-14T09:59:18Z</time>
      </trkpt>
      <trkpt lat="45.67491" lon="4.69053">
        <ele>421</ele>
        <time>2018-10-14T09:59:19Z</time>
      </trkpt>
      <trkpt lat="45.67498" lon="4.69059">
        <ele>420</ele>
        <time>2018-10-14T09:59:20Z</time>
      </trkpt>
      <trkpt lat="45.67504" lon="4.69065">
        <ele>420</ele>
        <time>2018-10-14T09:59:21Z</time>
      </trkpt>
      <trkpt lat="45.6751" lon="4.69071">
        <ele>420</ele>
        <time>2018-10-14T09:59:22Z</time>
      </trkpt>
      <trkpt lat="45.67516" lon="4.69077">
        <ele>420</ele>
        <time>2018-10-14T09:59:23Z</time>
      </trkpt>
      <trkpt lat="45.67522" lon="4.69083">
        <ele>421</ele>
        <time>2018-10-14T09:59:24Z</time>
      </trkpt>
      <trkpt lat="45.67528" lon="4.6909">
        <ele>421</ele>
        <time>2018-10-14T09:59:25Z</time>
      </trkpt>
      <trkpt lat="45.67535" lon="4.69096">
        <ele>421</ele>
        <time>2018-10-14T09:59:26Z</time>
      </trkpt>
      <trkpt lat="45.67541" lon="4.69101">
        <ele>421</ele>
        <time>2018-10-14T09:59:27Z</time>
      </trkpt>
      <trkpt lat="45.67548" lon="4.69108">
        <ele>421</ele>
        <time>2018-10-14T09:59:28Z</time>
      </trkpt>
      <trkpt lat="45.67554" lon="4.69115">
        <ele>421</ele>
        <time>2018-10-14T09:59:29Z</time>
      </trkpt>
      <trkpt lat="45.67561" lon="4.6912">
        <ele>421</ele>
        <time>2018-10-14T09:59:30Z</time>
      </trkpt>
      <trkpt lat="45.67569" lon="4.69127">
        <ele>422</ele>
        <time>2018-10-14T09:59:31Z</time>
      </trkpt>
      <trkpt lat="45.67577" lon="4.69133">
        <ele>421</ele>
        <time>2018-10-14T09:59:32Z</time>
      </trkpt>
      <trkpt lat="45.67586" lon="4.6914">
        <ele>421</ele>
        <time>2018-10-14T09:59:33Z</time>
      </trkpt>
      <trkpt lat="45.67595" lon="4.69146">
        <ele>421</ele>
        <time>2018-10-14T09:59:34Z</time>
      </trkpt>
      <trkpt lat="45.67603" lon="4.69152">
        <ele>421</ele>
        <time>2018-10-14T09:59:35Z</time>
      </trkpt>
      <trkpt lat="45.67611" lon="4.69158">
        <ele>420</ele>
        <time>2018-10-14T09:59:36Z</time>
      </trkpt>
      <trkpt lat="45.6762" lon="4.69164">
        <ele>420</ele>
        <time>2018-10-14T09:59:37Z</time>
      </trkpt>
      <trkpt lat="45.6763" lon="4.6917">
        <ele>420</ele>
        <time>2018-10-14T09:59:38Z</time>
      </trkpt>
      <trkpt lat="45.67639" lon="4.69174">
        <ele>419</ele>
        <time>2018-10-14T09:59:39Z</time>
      </trkpt>
      <trkpt lat="45.67648" lon="4.69179">
        <ele>419</ele>
        <time>2018-10-14T09:59:40Z</time>
      </trkpt>
      <trkpt lat="45.67658" lon="4.69184">
        <ele>419</ele>
        <time>2018-10-14T09:59:41Z</time>
      </trkpt>
      <trkpt lat="45.67666" lon="4.6919">
        <ele>419</ele>
        <time>2018-10-14T09:59:42Z</time>
      </trkpt>
      <trkpt lat="45.67675" lon="4.69197">
        <ele>419</ele>
        <time>2018-10-14T09:59:43Z</time>
      </trkpt>
      <trkpt lat="45.67684" lon="4.69205">
        <ele>419</ele>
        <time>2018-10-14T09:59:44Z</time>
      </trkpt>
      <trkpt lat="45.67693" lon="4.69213">
        <ele>419</ele>
        <time>2018-10-14T09:59:45Z</time>
      </trkpt>
      <trkpt lat="45.67701" lon="4.69223">
        <ele>419</ele>
        <time>2018-10-14T09:59:46Z</time>
      </trkpt>
      <trkpt lat="45.67709" lon="4.69233">
        <ele>419</ele>
        <time>2018-10-14T09:59:47Z</time>
      </trkpt>
      <trkpt lat="45.67715" lon="4.69242">
        <ele>418</ele>
        <time>2018-10-14T09:59:48Z</time>
      </trkpt>
      <trkpt lat="45.67722" lon="4.69253">
        <ele>418</ele>
        <time>2018-10-14T09:59:49Z</time>
      </trkpt>
      <trkpt lat="45.67728" lon="4.69264">
        <ele>417</ele>
        <time>2018-10-14T09:59:50Z</time>
      </trkpt>
      <trkpt lat="45.67733" lon="4.69275">
        <ele>417</ele>
        <time>2018-10-14T09:59:51Z</time>
      </trkpt>
      <trkpt lat="45.67738" lon="4.69285">
        <ele>417</ele>
        <time>2018-10-14T09:59:52Z</time>
      </trkpt>
      <trkpt lat="45.6774" lon="4.69295">
        <ele>416</ele>
        <time>2018-10-14T09:59:53Z</time>
      </trkpt>
      <trkpt lat="45.67743" lon="4.69306">
        <ele>416</ele>
        <time>2018-10-14T09:59:54Z</time>
      </trkpt>
      <trkpt lat="45.67745" lon="4.69316">
        <ele>415</ele>
        <time>2018-10-14T09:59:55Z</time>
      </trkpt>
      <trkpt lat="45.6775" lon="4.69325">
        <ele>415</ele>
        <time>2018-10-14T09:59:56Z</time>
      </trkpt>
      <trkpt lat="45.67756" lon="4.69333">
        <ele>415</ele>
        <time>2018-10-14T09:59:57Z</time>
      </trkpt>
      <trkpt lat="45.67761" lon="4.69342">
        <ele>415</ele>
        <time>2018-10-14T09:59:58Z</time>
      </trkpt>
      <trkpt lat="45.67767" lon="4.69351">
        <ele>415</ele>
        <time>2018-10-14T09:59:59Z</time>
      </trkpt>
      <trkpt lat="45.6777" lon="4.6936">
        <ele>415</ele>
        <time>2018-10-14T10:00:00Z</time>
      </trkpt>
      <trkpt lat="45.67774" lon="4.69371">
        <ele>415</ele>
        <time>2018-10-14T10:00:01Z</time>
      </trkpt>
      <trkpt lat="45.67777" lon="4.6938">
        <ele>415</ele>
        <time>2018-10-14T10:00:02Z</time>
      </trkpt>
      <trkpt lat="45.67778" lon="4.6939">
        <ele>414</ele>
        <time>2018-10-14T10:00:03Z</time>
      </trkpt>
      <trkpt lat="45.67779" lon="4.69401">
        <ele>414</ele>
        <time>2018-10-14T10:00:04Z</time>
      </trkpt>
      <trkpt lat="45.6778" lon="4.69411">
        <ele>413</ele>
        <time>2018-10-14T10:00:05Z</time>
      </trkpt>
      <trkpt lat="45.67781" lon="4.69421">
        <ele>413</ele>
        <time>2018-10-14T10:00:06Z</time>
      </trkpt>
      <trkpt lat="45.67781" lon="4.69431">
        <ele>412</ele>
        <time>2018-10-14T10:00:07Z</time>
      </trkpt>
      <trkpt lat="45.67782" lon="4.69441">
        <ele>413</ele>
        <time>2018-10-14T10:00:08Z</time>
      </trkpt>
      <trkpt lat="45.67782" lon="4.69451">
        <ele>412</ele>
        <time>2018-10-14T10:00:09Z</time>
      </trkpt>
      <trkpt lat="45.67783" lon="4.69461">
        <ele>412</ele>
        <time>2018-10-14T10:00:10Z</time>
      </trkpt>
      <trkpt lat="45.67784" lon="4.69471">
        <ele>412</ele>
        <time>2018-10-14T10:00:11Z</time>
      </trkpt>
      <trkpt lat="45.67785" lon="4.69482">
        <ele>412</ele>
        <time>2018-10-14T10:00:12Z</time>
      </trkpt>
      <trkpt lat="45.67786" lon="4.69493">
        <ele>412</ele>
        <time>2018-10-14T10:00:13Z</time>
      </trkpt>
      <trkpt lat="45.67788" lon="4.69503">
        <ele>412</ele>
        <time>2018-10-14T10:00:14Z</time>
      </trkpt>
      <trkpt lat="45.6779" lon="4.69514">
        <ele>412</ele>
        <time>2018-10-14T10:00:15Z</time>
      </trkpt>
      <trkpt lat="45.67792" lon="4.69524">
        <ele>412</ele>
        <time>2018-10-14T10:00:16Z</time>
      </trkpt>
      <trkpt lat="45.67794" lon="4.69534">
        <ele>411</ele>
        <time>2018-10-14T10:00:17Z</time>
      </trkpt>
      <trkpt lat="45.67796" lon="4.69546">
        <ele>410</ele>
        <time>2018-10-14T10:00:18Z</time>
      </trkpt>
      <trkpt lat="45.67798" lon="4.69557">
        <ele>411</ele>
        <time>2018-10-14T10:00:19Z</time>
      </trkpt>
      <trkpt lat="45.67801" lon="4.69568">
        <ele>411</ele>
        <time>2018-10-14T10:00:20Z</time>
      </trkpt>
      <trkpt lat="45.67804" lon="4.69579">
        <ele>410</ele>
        <time>2018-10-14T10:00:21Z</time>
      </trkpt>
      <trkpt lat="45.67807" lon="4.69589">
        <ele>410</ele>
        <time>2018-10-14T10:00:22Z</time>
      </trkpt>
      <trkpt lat="45.6781" lon="4.69601">
        <ele>410</ele>
        <time>2018-10-14T10:00:23Z</time>
      </trkpt>
      <trkpt lat="45.67812" lon="4.69612">
        <ele>410</ele>
        <time>2018-10-14T10:00:24Z</time>
      </trkpt>
      <trkpt lat="45.67815" lon="4.69623">
        <ele>409</ele>
        <time>2018-10-14T10:00:25Z</time>
      </trkpt>
      <trkpt lat="45.67819" lon="4.69636">
        <ele>409</ele>
        <time>2018-10-14T10:00:26Z</time>
      </trkpt>
      <trkpt lat="45.67822" lon="4.69648">
        <ele>409</ele>
        <time>2018-10-14T10:00:27Z</time>
      </trkpt>
      <trkpt lat="45.67826" lon="4.6966">
        <ele>409</ele>
        <time>2018-10-14T10:00:28Z</time>
      </trkpt>
      <trkpt lat="45.67829" lon="4.69673">
        <ele>409</ele>
        <time>2018-10-14T10:00:29Z</time>
      </trkpt>
      <trkpt lat="45.67832" lon="4.69685">
        <ele>410</ele>
        <time>2018-10-14T10:00:30Z</time>
      </trkpt>
      <trkpt lat="45.67835" lon="4.69697">
        <ele>409</ele>
        <time>2018-10-14T10:00:31Z</time>
      </trkpt>
      <trkpt lat="45.67836" lon="4.69711">
        <ele>408</ele>
        <time>2018-10-14T10:00:32Z</time>
      </trkpt>
      <trkpt lat="45.67835" lon="4.69724">
        <ele>408</ele>
        <time>2018-10-14T10:00:33Z</time>
      </trkpt>
      <trkpt lat="45.67836" lon="4.69737">
        <ele>408</ele>
        <time>2018-10-14T10:00:34Z</time>
      </trkpt>
      <trkpt lat="45.67836" lon="4.69751">
        <ele>408</ele>
        <time>2018-10-14T10:00:35Z</time>
      </trkpt>
      <trkpt lat="45.67837" lon="4.69766">
        <ele>407</ele>
        <time>2018-10-14T10:00:36Z</time>
      </trkpt>
      <trkpt lat="45.67837" lon="4.6978">
        <ele>407</ele>
        <time>2018-10-14T10:00:37Z</time>
      </trkpt>
      <trkpt lat="45.67837" lon="4.69795">
        <ele>407</ele>
        <time>2018-10-14T10:00:38Z</time>
      </trkpt>
      <trkpt lat="45.67837" lon="4.69809">
        <ele>406</ele>
        <time>2018-10-14T10:00:39Z</time>
      </trkpt>
      <trkpt lat="45.67838" lon="4.69825">
        <ele>405</ele>
        <time>2018-10-14T10:00:40Z</time>
      </trkpt>
      <trkpt lat="45.67839" lon="4.69841">
        <ele>405</ele>
        <time>2018-10-14T10:00:41Z</time>
      </trkpt>
      <trkpt lat="45.6784" lon="4.69856">
        <ele>404</ele>
        <time>2018-10-14T10:00:42Z</time>
      </trkpt>
      <trkpt lat="45.6784" lon="4.69872">
        <ele>403</ele>
        <time>2018-10-14T10:00:43Z</time>
      </trkpt>
      <trkpt lat="45.67841" lon="4.69887">
        <ele>403</ele>
        <time>2018-10-14T10:00:44Z</time>
      </trkpt>
      <trkpt lat="45.67843" lon="4.69902">
        <ele>403</ele>
        <time>2018-10-14T10:00:45Z</time>
      </trkpt>
      <trkpt lat="45.67845" lon="4.69916">
        <ele>402</ele>
        <time>2018-10-14T10:00:46Z</time>
      </trkpt>
      <trkpt lat="45.67849" lon="4.69931">
        <ele>401</ele>
        <time>2018-10-14T10:00:47Z</time>
      </trkpt>
      <trkpt lat="45.67852" lon="4.69946">
        <ele>401</ele>
        <time>2018-10-14T10:00:48Z</time>
      </trkpt>
      <trkpt lat="45.67855" lon="4.6996">
        <ele>401</ele>
        <time>2018-10-14T10:00:49Z</time>
      </trkpt>
      <trkpt lat="45.67859" lon="4.69975">
        <ele>399</ele>
        <time>2018-10-14T10:00:50Z</time>
      </trkpt>
      <trkpt lat="45.67862" lon="4.6999">
        <ele>399</ele>
        <time>2018-10-14T10:00:51Z</time>
      </trkpt>
      <trkpt lat="45.67865" lon="4.70006">
        <ele>399</ele>
        <time>2018-10-14T10:00:52Z</time>
      </trkpt>
      <trkpt lat="45.67866" lon="4.70022">
        <ele>397</ele>
        <time>2018-10-14T10:00:53Z</time>
      </trkpt>
      <trkpt lat="45.67867" lon="4.70037">
        <ele>396</ele>
        <time>2018-10-14T10:00:54Z</time>
      </trkpt>
      <trkpt lat="45.67869" lon="4.70052">
        <ele>396</ele>
        <time>2018-10-14T10:00:55Z</time>
      </trkpt>
      <trkpt lat="45.67871" lon="4.70067">
        <ele>396</ele>
        <time>2018-10-14T10:00:56Z</time>
      </trkpt>
      <trkpt lat="45.67872" lon="4.7008">
        <ele>395</ele>
        <time>2018-10-14T10:00:57Z</time>
      </trkpt>
      <trkpt lat="45.67873" lon="4.70091">
        <ele>394</ele>
        <time>2018-10-14T10:00:58Z</time>
      </trkpt>
      <trkpt lat="45.67873" lon="4.701">
        <ele>395</ele>
        <time>2018-10-14T10:00:59Z</time>
      </trkpt>
      <trkpt lat="45.67873" lon="4.70109">
        <ele>394</ele>
        <time>2018-10-14T10:01:00Z</time>
      </trkpt>
      <trkpt lat="45.67873" lon="4.70117">
        <ele>394</ele>
        <time>2018-10-14T10:01:01Z</time>
      </trkpt>
      <trkpt lat="45.67875" lon="4.70124">
        <ele>394</ele>
        <time>2018-10-14T10:01:02Z</time>
      </trkpt>
      <trkpt lat="45.6788" lon="4.70127">
        <ele>394</ele>
        <time>2018-10-14T10:01:03Z</time>
      </trkpt>
      <trkpt lat="45.67885" lon="4.70128">
        <ele>394</ele>
        <time>2018-10-14T10:01:04Z</time>
      </trkpt>
      <trkpt lat="45.6789" lon="4.70128">
        <ele>394</ele>
        <time>2018-10-14T10:01:05Z</time>
      </trkpt>
      <trkpt lat="45.67893" lon="4.70128">
        <ele>394</ele>
        <time>2018-10-14T10:01:06Z</time>
      </trkpt>
      <trkpt lat="45.67897" lon="4.70127">
        <ele>394</ele>
        <time>2018-10-14T10:01:07Z</time>
      </trkpt>
      <trkpt lat="45.67899" lon="4.70126">
        <ele>394</ele>
        <time>2018-10-14T10:01:08Z</time>
      </trkpt>
      <trkpt lat="45.679" lon="4.70123">
        <ele>395</ele>
        <time>2018-10-14T10:01:09Z</time>
      </trkpt>
      <trkpt lat="45.67899" lon="4.70122">
        <ele>397</ele>
        <time>2018-10-14T10:01:26Z</time>
      </trkpt>
      <trkpt lat="45.67901" lon="4.70122">
        <ele>402</ele>
        <time>2018-10-14T10:03:46Z</time>
      </trkpt>
      <trkpt lat="45.679" lon="4.70124">
        <ele>407</ele>
        <time>2018-10-14T10:07:10Z</time>
      </trkpt>
    </trkseg>
  </trk>
</gpx>